<?xml version="1.0" encoding="UTF-8"?>
<gpx version="1.1" creator="https://www.youtrack.es" xsi:schemaLocation="http://www.topografix.com/GPX/1/1 http://www.topografix.com/GPX/1/1/gpx.xsd http://www.garmin.com/xmlschemas/GpxExtensions/v3 http://www.garmin.com/xmlschemas/GpxExtensionsv3.xsd http://www.garmin.com/xmlschemas/TrackPointExtension/v1 http://www.garmin.com/xmlschemas/TrackPointExtensionv1.xsd" xmlns:gpxtpx="http://www.garmin.com/xmlschemas/TrackPointExtension/v1" xmlns:gpxx="http://www.garmin.com/xmlschemas/GpxExtensions/v3" xmlns:xsi="http://www.w3.org/2001/XMLSchema-instance">
  <metadata>
    <author>
      <name>iñigo orbegozo</name>
      <email id="arrieta.97.orbegozo" domain="gmail.com"/>
    </author>
    <link href="https://www.youtrack.es">
      <text>YouTrack.es</text>
    </link>
    <time>2026-05-08T23:17:57Z</time>
  </metadata>
  <trk>
    <src>https://www.youtrack.es</src>
    <link href="https://www.youtrack.es/ruta/37232-zamudio">
      <text>YouTrack.es</text>
    </link>
    <trkseg>
      <trkpt lat="43.291863" lon="-2.857365">
        <ele>59</ele>
        <time>1970-01-01T00:00:00.000Z</time>
      </trkpt>
      <trkpt lat="43.291863" lon="-2.857365">
        <ele>59</ele>
        <time>1970-01-01T00:00:01.000Z</time>
      </trkpt>
      <trkpt lat="43.291863" lon="-2.857365">
        <ele>59</ele>
        <time>1970-01-01T00:00:02.000Z</time>
      </trkpt>
      <trkpt lat="43.291453" lon="-2.854608">
        <ele>55.2</ele>
        <time>1970-01-01T00:01:59.000Z</time>
      </trkpt>
      <trkpt lat="43.291408" lon="-2.854623">
        <ele>55</ele>
        <time>1970-01-01T00:02:00.000Z</time>
      </trkpt>
      <trkpt lat="43.291365" lon="-2.85464">
        <ele>55</ele>
        <time>1970-01-01T00:02:01.000Z</time>
      </trkpt>
      <trkpt lat="43.291321" lon="-2.854655">
        <ele>55</ele>
        <time>1970-01-01T00:02:02.000Z</time>
      </trkpt>
      <trkpt lat="43.291273" lon="-2.85467">
        <ele>55</ele>
        <time>1970-01-01T00:02:03.000Z</time>
      </trkpt>
      <trkpt lat="43.29122" lon="-2.854683">
        <ele>55</ele>
        <time>1970-01-01T00:02:04.000Z</time>
      </trkpt>
      <trkpt lat="43.291171" lon="-2.854683">
        <ele>53.6</ele>
        <time>1970-01-01T00:02:05.000Z</time>
      </trkpt>
      <trkpt lat="43.291135" lon="-2.854671">
        <ele>53.6</ele>
        <time>1970-01-01T00:02:06.000Z</time>
      </trkpt>
      <trkpt lat="43.291096" lon="-2.854638">
        <ele>52.6</ele>
        <time>1970-01-01T00:02:07.000Z</time>
      </trkpt>
      <trkpt lat="43.291065" lon="-2.854583">
        <ele>52.6</ele>
        <time>1970-01-01T00:02:08.000Z</time>
      </trkpt>
      <trkpt lat="43.291043" lon="-2.854515">
        <ele>52.6</ele>
        <time>1970-01-01T00:02:09.000Z</time>
      </trkpt>
      <trkpt lat="43.291026" lon="-2.854438">
        <ele>52.6</ele>
        <time>1970-01-01T00:02:10.000Z</time>
      </trkpt>
      <trkpt lat="43.29101" lon="-2.854363">
        <ele>52.6</ele>
        <time>1970-01-01T00:02:11.000Z</time>
      </trkpt>
      <trkpt lat="43.290991" lon="-2.854288">
        <ele>52.2</ele>
        <time>1970-01-01T00:02:12.000Z</time>
      </trkpt>
      <trkpt lat="43.290975" lon="-2.85421">
        <ele>52.2</ele>
        <time>1970-01-01T00:02:13.000Z</time>
      </trkpt>
      <trkpt lat="43.290951" lon="-2.854133">
        <ele>52.2</ele>
        <time>1970-01-01T00:02:14.000Z</time>
      </trkpt>
      <trkpt lat="43.290915" lon="-2.854065">
        <ele>52.2</ele>
        <time>1970-01-01T00:02:15.000Z</time>
      </trkpt>
      <trkpt lat="43.290861" lon="-2.854018">
        <ele>52.2</ele>
        <time>1970-01-01T00:02:16.000Z</time>
      </trkpt>
      <trkpt lat="43.2908" lon="-2.853998">
        <ele>50.8</ele>
        <time>1970-01-01T00:02:17.000Z</time>
      </trkpt>
      <trkpt lat="43.290733" lon="-2.853998">
        <ele>50.8</ele>
        <time>1970-01-01T00:02:18.000Z</time>
      </trkpt>
      <trkpt lat="43.290665" lon="-2.854006">
        <ele>49.8</ele>
        <time>1970-01-01T00:02:19.000Z</time>
      </trkpt>
      <trkpt lat="43.290591" lon="-2.85402">
        <ele>49.8</ele>
        <time>1970-01-01T00:02:20.000Z</time>
      </trkpt>
      <trkpt lat="43.290513" lon="-2.854033">
        <ele>49.6</ele>
        <time>1970-01-01T00:02:21.000Z</time>
      </trkpt>
      <trkpt lat="43.290435" lon="-2.854046">
        <ele>49.6</ele>
        <time>1970-01-01T00:02:22.000Z</time>
      </trkpt>
      <trkpt lat="43.290355" lon="-2.854056">
        <ele>49.6</ele>
        <time>1970-01-01T00:02:23.000Z</time>
      </trkpt>
      <trkpt lat="43.290273" lon="-2.854068">
        <ele>48.4</ele>
        <time>1970-01-01T00:02:24.000Z</time>
      </trkpt>
      <trkpt lat="43.290193" lon="-2.854081">
        <ele>48.4</ele>
        <time>1970-01-01T00:02:25.000Z</time>
      </trkpt>
      <trkpt lat="43.290111" lon="-2.854096">
        <ele>48.4</ele>
        <time>1970-01-01T00:02:26.000Z</time>
      </trkpt>
      <trkpt lat="43.29003" lon="-2.85411">
        <ele>48.4</ele>
        <time>1970-01-01T00:02:27.000Z</time>
      </trkpt>
      <trkpt lat="43.289946" lon="-2.854126">
        <ele>47.8</ele>
        <time>1970-01-01T00:02:28.000Z</time>
      </trkpt>
      <trkpt lat="43.289861" lon="-2.854156">
        <ele>47.8</ele>
        <time>1970-01-01T00:02:29.000Z</time>
      </trkpt>
      <trkpt lat="43.28978" lon="-2.854203">
        <ele>47.8</ele>
        <time>1970-01-01T00:02:30.000Z</time>
      </trkpt>
      <trkpt lat="43.289705" lon="-2.854268">
        <ele>46.8</ele>
        <time>1970-01-01T00:02:31.000Z</time>
      </trkpt>
      <trkpt lat="43.289635" lon="-2.854341">
        <ele>46.8</ele>
        <time>1970-01-01T00:02:32.000Z</time>
      </trkpt>
      <trkpt lat="43.289566" lon="-2.854418">
        <ele>46.2</ele>
        <time>1970-01-01T00:02:33.000Z</time>
      </trkpt>
      <trkpt lat="43.289501" lon="-2.854505">
        <ele>46.2</ele>
        <time>1970-01-01T00:02:34.000Z</time>
      </trkpt>
      <trkpt lat="43.289443" lon="-2.854596">
        <ele>46</ele>
        <time>1970-01-01T00:02:35.000Z</time>
      </trkpt>
      <trkpt lat="43.289391" lon="-2.854691">
        <ele>46</ele>
        <time>1970-01-01T00:02:36.000Z</time>
      </trkpt>
      <trkpt lat="43.289341" lon="-2.85479">
        <ele>44</ele>
        <time>1970-01-01T00:02:37.000Z</time>
      </trkpt>
      <trkpt lat="43.289296" lon="-2.854888">
        <ele>44</ele>
        <time>1970-01-01T00:02:38.000Z</time>
      </trkpt>
      <trkpt lat="43.28925" lon="-2.854988">
        <ele>44</ele>
        <time>1970-01-01T00:02:39.000Z</time>
      </trkpt>
      <trkpt lat="43.289201" lon="-2.855085">
        <ele>44</ele>
        <time>1970-01-01T00:02:40.000Z</time>
      </trkpt>
      <trkpt lat="43.289155" lon="-2.855181">
        <ele>43.2</ele>
        <time>1970-01-01T00:02:41.000Z</time>
      </trkpt>
      <trkpt lat="43.289108" lon="-2.855276">
        <ele>43.2</ele>
        <time>1970-01-01T00:02:42.000Z</time>
      </trkpt>
      <trkpt lat="43.289061" lon="-2.85537">
        <ele>43.2</ele>
        <time>1970-01-01T00:02:43.000Z</time>
      </trkpt>
      <trkpt lat="43.289015" lon="-2.855465">
        <ele>43.2</ele>
        <time>1970-01-01T00:02:44.000Z</time>
      </trkpt>
      <trkpt lat="43.288966" lon="-2.855555">
        <ele>43.2</ele>
        <time>1970-01-01T00:02:45.000Z</time>
      </trkpt>
      <trkpt lat="43.288916" lon="-2.855643">
        <ele>43.2</ele>
        <time>1970-01-01T00:02:46.000Z</time>
      </trkpt>
      <trkpt lat="43.288861" lon="-2.855726">
        <ele>43</ele>
        <time>1970-01-01T00:02:47.000Z</time>
      </trkpt>
      <trkpt lat="43.288803" lon="-2.855805">
        <ele>43</ele>
        <time>1970-01-01T00:02:48.000Z</time>
      </trkpt>
      <trkpt lat="43.288741" lon="-2.85588">
        <ele>42.6</ele>
        <time>1970-01-01T00:02:49.000Z</time>
      </trkpt>
      <trkpt lat="43.288678" lon="-2.85595">
        <ele>42.6</ele>
        <time>1970-01-01T00:02:50.000Z</time>
      </trkpt>
      <trkpt lat="43.288615" lon="-2.856021">
        <ele>42</ele>
        <time>1970-01-01T00:02:51.000Z</time>
      </trkpt>
      <trkpt lat="43.288551" lon="-2.856095">
        <ele>42</ele>
        <time>1970-01-01T00:02:52.000Z</time>
      </trkpt>
      <trkpt lat="43.288486" lon="-2.856165">
        <ele>42</ele>
        <time>1970-01-01T00:02:53.000Z</time>
      </trkpt>
      <trkpt lat="43.288421" lon="-2.856235">
        <ele>42</ele>
        <time>1970-01-01T00:02:54.000Z</time>
      </trkpt>
      <trkpt lat="43.288351" lon="-2.856298">
        <ele>42</ele>
        <time>1970-01-01T00:02:55.000Z</time>
      </trkpt>
      <trkpt lat="43.288275" lon="-2.856356">
        <ele>42</ele>
        <time>1970-01-01T00:02:56.000Z</time>
      </trkpt>
      <trkpt lat="43.288196" lon="-2.856408">
        <ele>41</ele>
        <time>1970-01-01T00:02:57.000Z</time>
      </trkpt>
      <trkpt lat="43.288116" lon="-2.856461">
        <ele>41</ele>
        <time>1970-01-01T00:02:58.000Z</time>
      </trkpt>
      <trkpt lat="43.288036" lon="-2.856515">
        <ele>40.2</ele>
        <time>1970-01-01T00:02:59.000Z</time>
      </trkpt>
      <trkpt lat="43.287953" lon="-2.856565">
        <ele>40.2</ele>
        <time>1970-01-01T00:03:00.000Z</time>
      </trkpt>
      <trkpt lat="43.287871" lon="-2.856616">
        <ele>40</ele>
        <time>1970-01-01T00:03:01.000Z</time>
      </trkpt>
      <trkpt lat="43.287786" lon="-2.856666">
        <ele>40</ele>
        <time>1970-01-01T00:03:02.000Z</time>
      </trkpt>
      <trkpt lat="43.287705" lon="-2.85672">
        <ele>39.6</ele>
        <time>1970-01-01T00:03:03.000Z</time>
      </trkpt>
      <trkpt lat="43.287621" lon="-2.856778">
        <ele>39.6</ele>
        <time>1970-01-01T00:03:04.000Z</time>
      </trkpt>
      <trkpt lat="43.28754" lon="-2.856838">
        <ele>39.2</ele>
        <time>1970-01-01T00:03:05.000Z</time>
      </trkpt>
      <trkpt lat="43.28746" lon="-2.8569">
        <ele>39.2</ele>
        <time>1970-01-01T00:03:06.000Z</time>
      </trkpt>
      <trkpt lat="43.287381" lon="-2.856961">
        <ele>39.2</ele>
        <time>1970-01-01T00:03:07.000Z</time>
      </trkpt>
      <trkpt lat="43.287305" lon="-2.85702">
        <ele>39.2</ele>
        <time>1970-01-01T00:03:08.000Z</time>
      </trkpt>
      <trkpt lat="43.28723" lon="-2.857076">
        <ele>38</ele>
        <time>1970-01-01T00:03:09.000Z</time>
      </trkpt>
      <trkpt lat="43.287155" lon="-2.857131">
        <ele>38</ele>
        <time>1970-01-01T00:03:10.000Z</time>
      </trkpt>
      <trkpt lat="43.287083" lon="-2.857188">
        <ele>37.8</ele>
        <time>1970-01-01T00:03:11.000Z</time>
      </trkpt>
      <trkpt lat="43.287015" lon="-2.857245">
        <ele>37.8</ele>
        <time>1970-01-01T00:03:12.000Z</time>
      </trkpt>
      <trkpt lat="43.28695" lon="-2.857306">
        <ele>37.6</ele>
        <time>1970-01-01T00:03:13.000Z</time>
      </trkpt>
      <trkpt lat="43.286886" lon="-2.857368">
        <ele>37.6</ele>
        <time>1970-01-01T00:03:14.000Z</time>
      </trkpt>
      <trkpt lat="43.286823" lon="-2.85743">
        <ele>37.2</ele>
        <time>1970-01-01T00:03:15.000Z</time>
      </trkpt>
      <trkpt lat="43.28676" lon="-2.857488">
        <ele>37.2</ele>
        <time>1970-01-01T00:03:16.000Z</time>
      </trkpt>
      <trkpt lat="43.286695" lon="-2.85754">
        <ele>36.8</ele>
        <time>1970-01-01T00:03:17.000Z</time>
      </trkpt>
      <trkpt lat="43.286631" lon="-2.857588">
        <ele>36.8</ele>
        <time>1970-01-01T00:03:18.000Z</time>
      </trkpt>
      <trkpt lat="43.286568" lon="-2.857635">
        <ele>36.8</ele>
        <time>1970-01-01T00:03:19.000Z</time>
      </trkpt>
      <trkpt lat="43.286506" lon="-2.857683">
        <ele>36.8</ele>
        <time>1970-01-01T00:03:20.000Z</time>
      </trkpt>
      <trkpt lat="43.286446" lon="-2.857733">
        <ele>36.4</ele>
        <time>1970-01-01T00:03:21.000Z</time>
      </trkpt>
      <trkpt lat="43.286388" lon="-2.857781">
        <ele>36.4</ele>
        <time>1970-01-01T00:03:22.000Z</time>
      </trkpt>
      <trkpt lat="43.28633" lon="-2.857823">
        <ele>35.6</ele>
        <time>1970-01-01T00:03:23.000Z</time>
      </trkpt>
      <trkpt lat="43.286266" lon="-2.857868">
        <ele>35.6</ele>
        <time>1970-01-01T00:03:24.000Z</time>
      </trkpt>
      <trkpt lat="43.2862" lon="-2.857916">
        <ele>35.6</ele>
        <time>1970-01-01T00:03:25.000Z</time>
      </trkpt>
      <trkpt lat="43.286133" lon="-2.857963">
        <ele>35.6</ele>
        <time>1970-01-01T00:03:26.000Z</time>
      </trkpt>
      <trkpt lat="43.286066" lon="-2.85801">
        <ele>35.6</ele>
        <time>1970-01-01T00:03:27.000Z</time>
      </trkpt>
      <trkpt lat="43.286" lon="-2.858051">
        <ele>35.6</ele>
        <time>1970-01-01T00:03:28.000Z</time>
      </trkpt>
      <trkpt lat="43.285933" lon="-2.858095">
        <ele>35.6</ele>
        <time>1970-01-01T00:03:29.000Z</time>
      </trkpt>
      <trkpt lat="43.285876" lon="-2.858133">
        <ele>35.6</ele>
        <time>1970-01-01T00:03:30.000Z</time>
      </trkpt>
      <trkpt lat="43.285808" lon="-2.858175">
        <ele>35</ele>
        <time>1970-01-01T00:03:31.000Z</time>
      </trkpt>
      <trkpt lat="43.285743" lon="-2.858218">
        <ele>35</ele>
        <time>1970-01-01T00:03:32.000Z</time>
      </trkpt>
      <trkpt lat="43.285681" lon="-2.858258">
        <ele>34.2</ele>
        <time>1970-01-01T00:03:33.000Z</time>
      </trkpt>
      <trkpt lat="43.285628" lon="-2.858296">
        <ele>34.2</ele>
        <time>1970-01-01T00:03:34.000Z</time>
      </trkpt>
      <trkpt lat="43.28559" lon="-2.858323">
        <ele>34.2</ele>
        <time>1970-01-01T00:03:35.000Z</time>
      </trkpt>
      <trkpt lat="43.285571" lon="-2.858335">
        <ele>34.2</ele>
        <time>1970-01-01T00:03:36.000Z</time>
      </trkpt>
      <trkpt lat="43.285563" lon="-2.858343">
        <ele>33.6</ele>
        <time>1970-01-01T00:03:49.000Z</time>
      </trkpt>
      <trkpt lat="43.285563" lon="-2.858343">
        <ele>34</ele>
        <time>1970-01-01T00:03:50.000Z</time>
      </trkpt>
      <trkpt lat="43.285548" lon="-2.858338">
        <ele>34</ele>
        <time>1970-01-01T00:03:51.000Z</time>
      </trkpt>
      <trkpt lat="43.285516" lon="-2.858323">
        <ele>34</ele>
        <time>1970-01-01T00:03:52.000Z</time>
      </trkpt>
      <trkpt lat="43.285488" lon="-2.858286">
        <ele>34</ele>
        <time>1970-01-01T00:03:53.000Z</time>
      </trkpt>
      <trkpt lat="43.285466" lon="-2.858238">
        <ele>33.8</ele>
        <time>1970-01-01T00:03:54.000Z</time>
      </trkpt>
      <trkpt lat="43.285448" lon="-2.858185">
        <ele>33.8</ele>
        <time>1970-01-01T00:03:55.000Z</time>
      </trkpt>
      <trkpt lat="43.285431" lon="-2.858131">
        <ele>34.2</ele>
        <time>1970-01-01T00:03:56.000Z</time>
      </trkpt>
      <trkpt lat="43.285413" lon="-2.858071">
        <ele>34.2</ele>
        <time>1970-01-01T00:03:57.000Z</time>
      </trkpt>
      <trkpt lat="43.285395" lon="-2.858006">
        <ele>34.2</ele>
        <time>1970-01-01T00:03:58.000Z</time>
      </trkpt>
      <trkpt lat="43.285375" lon="-2.857938">
        <ele>34.2</ele>
        <time>1970-01-01T00:03:59.000Z</time>
      </trkpt>
      <trkpt lat="43.285353" lon="-2.85787">
        <ele>34.2</ele>
        <time>1970-01-01T00:04:00.000Z</time>
      </trkpt>
      <trkpt lat="43.285333" lon="-2.857796">
        <ele>34.2</ele>
        <time>1970-01-01T00:04:01.000Z</time>
      </trkpt>
      <trkpt lat="43.285315" lon="-2.857723">
        <ele>33.8</ele>
        <time>1970-01-01T00:04:02.000Z</time>
      </trkpt>
      <trkpt lat="43.285293" lon="-2.85765">
        <ele>33.8</ele>
        <time>1970-01-01T00:04:03.000Z</time>
      </trkpt>
      <trkpt lat="43.285275" lon="-2.857571">
        <ele>33.8</ele>
        <time>1970-01-01T00:04:04.000Z</time>
      </trkpt>
      <trkpt lat="43.285253" lon="-2.857493">
        <ele>33.8</ele>
        <time>1970-01-01T00:04:05.000Z</time>
      </trkpt>
      <trkpt lat="43.285233" lon="-2.857415">
        <ele>33.6</ele>
        <time>1970-01-01T00:04:06.000Z</time>
      </trkpt>
      <trkpt lat="43.285211" lon="-2.857338">
        <ele>33.6</ele>
        <time>1970-01-01T00:04:07.000Z</time>
      </trkpt>
      <trkpt lat="43.28519" lon="-2.857261">
        <ele>33.6</ele>
        <time>1970-01-01T00:04:08.000Z</time>
      </trkpt>
      <trkpt lat="43.285166" lon="-2.857181">
        <ele>33.6</ele>
        <time>1970-01-01T00:04:09.000Z</time>
      </trkpt>
      <trkpt lat="43.285146" lon="-2.8571">
        <ele>33.6</ele>
        <time>1970-01-01T00:04:10.000Z</time>
      </trkpt>
      <trkpt lat="43.285125" lon="-2.857018">
        <ele>33.6</ele>
        <time>1970-01-01T00:04:11.000Z</time>
      </trkpt>
      <trkpt lat="43.285101" lon="-2.856936">
        <ele>33.6</ele>
        <time>1970-01-01T00:04:12.000Z</time>
      </trkpt>
      <trkpt lat="43.285076" lon="-2.856855">
        <ele>33.6</ele>
        <time>1970-01-01T00:04:13.000Z</time>
      </trkpt>
      <trkpt lat="43.28505" lon="-2.856773">
        <ele>33.6</ele>
        <time>1970-01-01T00:04:14.000Z</time>
      </trkpt>
      <trkpt lat="43.285023" lon="-2.856691">
        <ele>33.6</ele>
        <time>1970-01-01T00:04:15.000Z</time>
      </trkpt>
      <trkpt lat="43.284995" lon="-2.856613">
        <ele>33.6</ele>
        <time>1970-01-01T00:04:16.000Z</time>
      </trkpt>
      <trkpt lat="43.284963" lon="-2.856536">
        <ele>33.4</ele>
        <time>1970-01-01T00:04:17.000Z</time>
      </trkpt>
      <trkpt lat="43.284931" lon="-2.85646">
        <ele>33.4</ele>
        <time>1970-01-01T00:04:18.000Z</time>
      </trkpt>
      <trkpt lat="43.284898" lon="-2.856386">
        <ele>33.4</ele>
        <time>1970-01-01T00:04:19.000Z</time>
      </trkpt>
      <trkpt lat="43.284861" lon="-2.856315">
        <ele>33.4</ele>
        <time>1970-01-01T00:04:20.000Z</time>
      </trkpt>
      <trkpt lat="43.284825" lon="-2.856245">
        <ele>33.8</ele>
        <time>1970-01-01T00:04:21.000Z</time>
      </trkpt>
      <trkpt lat="43.284785" lon="-2.856178">
        <ele>33.8</ele>
        <time>1970-01-01T00:04:22.000Z</time>
      </trkpt>
      <trkpt lat="43.284743" lon="-2.856113">
        <ele>33.8</ele>
        <time>1970-01-01T00:04:23.000Z</time>
      </trkpt>
      <trkpt lat="43.284701" lon="-2.856048">
        <ele>33.8</ele>
        <time>1970-01-01T00:04:24.000Z</time>
      </trkpt>
      <trkpt lat="43.284658" lon="-2.855986">
        <ele>33.8</ele>
        <time>1970-01-01T00:04:25.000Z</time>
      </trkpt>
      <trkpt lat="43.284613" lon="-2.855926">
        <ele>33.4</ele>
        <time>1970-01-01T00:04:26.000Z</time>
      </trkpt>
      <trkpt lat="43.284566" lon="-2.855866">
        <ele>33.4</ele>
        <time>1970-01-01T00:04:27.000Z</time>
      </trkpt>
      <trkpt lat="43.284518" lon="-2.85581">
        <ele>34.2</ele>
        <time>1970-01-01T00:04:28.000Z</time>
      </trkpt>
      <trkpt lat="43.284468" lon="-2.855758">
        <ele>34.2</ele>
        <time>1970-01-01T00:04:29.000Z</time>
      </trkpt>
      <trkpt lat="43.284418" lon="-2.855706">
        <ele>34.2</ele>
        <time>1970-01-01T00:04:30.000Z</time>
      </trkpt>
      <trkpt lat="43.284365" lon="-2.855658">
        <ele>34.6</ele>
        <time>1970-01-01T00:04:31.000Z</time>
      </trkpt>
      <trkpt lat="43.284311" lon="-2.855613">
        <ele>34.6</ele>
        <time>1970-01-01T00:04:32.000Z</time>
      </trkpt>
      <trkpt lat="43.284258" lon="-2.855568">
        <ele>34.8</ele>
        <time>1970-01-01T00:04:33.000Z</time>
      </trkpt>
      <trkpt lat="43.284203" lon="-2.85553">
        <ele>34.8</ele>
        <time>1970-01-01T00:04:34.000Z</time>
      </trkpt>
      <trkpt lat="43.284146" lon="-2.855496">
        <ele>34.8</ele>
        <time>1970-01-01T00:04:35.000Z</time>
      </trkpt>
      <trkpt lat="43.284088" lon="-2.855465">
        <ele>34.8</ele>
        <time>1970-01-01T00:04:36.000Z</time>
      </trkpt>
      <trkpt lat="43.28403" lon="-2.855436">
        <ele>34.8</ele>
        <time>1970-01-01T00:04:37.000Z</time>
      </trkpt>
      <trkpt lat="43.28397" lon="-2.85541">
        <ele>34.8</ele>
        <time>1970-01-01T00:04:38.000Z</time>
      </trkpt>
      <trkpt lat="43.283906" lon="-2.855386">
        <ele>34.8</ele>
        <time>1970-01-01T00:04:39.000Z</time>
      </trkpt>
      <trkpt lat="43.283845" lon="-2.855363">
        <ele>35</ele>
        <time>1970-01-01T00:04:40.000Z</time>
      </trkpt>
      <trkpt lat="43.28378" lon="-2.855345">
        <ele>35</ele>
        <time>1970-01-01T00:04:41.000Z</time>
      </trkpt>
      <trkpt lat="43.283716" lon="-2.855323">
        <ele>35.4</ele>
        <time>1970-01-01T00:04:42.000Z</time>
      </trkpt>
      <trkpt lat="43.283651" lon="-2.855305">
        <ele>35.4</ele>
        <time>1970-01-01T00:04:43.000Z</time>
      </trkpt>
      <trkpt lat="43.283586" lon="-2.85529">
        <ele>35.4</ele>
        <time>1970-01-01T00:04:44.000Z</time>
      </trkpt>
      <trkpt lat="43.283523" lon="-2.855278">
        <ele>35.6</ele>
        <time>1970-01-01T00:04:45.000Z</time>
      </trkpt>
      <trkpt lat="43.283458" lon="-2.855261">
        <ele>35.6</ele>
        <time>1970-01-01T00:04:46.000Z</time>
      </trkpt>
      <trkpt lat="43.283393" lon="-2.855245">
        <ele>35.6</ele>
        <time>1970-01-01T00:04:47.000Z</time>
      </trkpt>
      <trkpt lat="43.28333" lon="-2.855231">
        <ele>35.6</ele>
        <time>1970-01-01T00:04:48.000Z</time>
      </trkpt>
      <trkpt lat="43.283265" lon="-2.855216">
        <ele>35.4</ele>
        <time>1970-01-01T00:04:49.000Z</time>
      </trkpt>
      <trkpt lat="43.2832" lon="-2.855201">
        <ele>35.4</ele>
        <time>1970-01-01T00:04:50.000Z</time>
      </trkpt>
      <trkpt lat="43.283135" lon="-2.855188">
        <ele>35.4</ele>
        <time>1970-01-01T00:04:51.000Z</time>
      </trkpt>
      <trkpt lat="43.28307" lon="-2.855175">
        <ele>35.8</ele>
        <time>1970-01-01T00:04:52.000Z</time>
      </trkpt>
      <trkpt lat="43.283005" lon="-2.855163">
        <ele>35.8</ele>
        <time>1970-01-01T00:04:53.000Z</time>
      </trkpt>
      <trkpt lat="43.28294" lon="-2.855148">
        <ele>35.6</ele>
        <time>1970-01-01T00:04:54.000Z</time>
      </trkpt>
      <trkpt lat="43.282875" lon="-2.85513">
        <ele>35.6</ele>
        <time>1970-01-01T00:04:55.000Z</time>
      </trkpt>
      <trkpt lat="43.282811" lon="-2.855111">
        <ele>36</ele>
        <time>1970-01-01T00:04:56.000Z</time>
      </trkpt>
      <trkpt lat="43.282746" lon="-2.855093">
        <ele>36</ele>
        <time>1970-01-01T00:04:57.000Z</time>
      </trkpt>
      <trkpt lat="43.282683" lon="-2.855075">
        <ele>36</ele>
        <time>1970-01-01T00:04:58.000Z</time>
      </trkpt>
      <trkpt lat="43.28262" lon="-2.85506">
        <ele>36</ele>
        <time>1970-01-01T00:04:59.000Z</time>
      </trkpt>
      <trkpt lat="43.282555" lon="-2.855046">
        <ele>36</ele>
        <time>1970-01-01T00:05:00.000Z</time>
      </trkpt>
      <trkpt lat="43.28249" lon="-2.855033">
        <ele>36.8</ele>
        <time>1970-01-01T00:05:01.000Z</time>
      </trkpt>
      <trkpt lat="43.282426" lon="-2.855018">
        <ele>36.8</ele>
        <time>1970-01-01T00:05:02.000Z</time>
      </trkpt>
      <trkpt lat="43.28236" lon="-2.854998">
        <ele>36.8</ele>
        <time>1970-01-01T00:05:03.000Z</time>
      </trkpt>
      <trkpt lat="43.282296" lon="-2.854983">
        <ele>36.8</ele>
        <time>1970-01-01T00:05:04.000Z</time>
      </trkpt>
      <trkpt lat="43.282233" lon="-2.854968">
        <ele>36.8</ele>
        <time>1970-01-01T00:05:05.000Z</time>
      </trkpt>
      <trkpt lat="43.282171" lon="-2.854953">
        <ele>36.8</ele>
        <time>1970-01-01T00:05:06.000Z</time>
      </trkpt>
      <trkpt lat="43.28211" lon="-2.85494">
        <ele>36.8</ele>
        <time>1970-01-01T00:05:07.000Z</time>
      </trkpt>
      <trkpt lat="43.282046" lon="-2.854926">
        <ele>36.8</ele>
        <time>1970-01-01T00:05:08.000Z</time>
      </trkpt>
      <trkpt lat="43.281985" lon="-2.854915">
        <ele>36.8</ele>
        <time>1970-01-01T00:05:09.000Z</time>
      </trkpt>
      <trkpt lat="43.281923" lon="-2.854898">
        <ele>37</ele>
        <time>1970-01-01T00:05:10.000Z</time>
      </trkpt>
      <trkpt lat="43.281861" lon="-2.854885">
        <ele>37</ele>
        <time>1970-01-01T00:05:11.000Z</time>
      </trkpt>
      <trkpt lat="43.2818" lon="-2.854868">
        <ele>37</ele>
        <time>1970-01-01T00:05:12.000Z</time>
      </trkpt>
      <trkpt lat="43.281738" lon="-2.854858">
        <ele>36.2</ele>
        <time>1970-01-01T00:05:13.000Z</time>
      </trkpt>
      <trkpt lat="43.281676" lon="-2.854846">
        <ele>36.2</ele>
        <time>1970-01-01T00:05:14.000Z</time>
      </trkpt>
      <trkpt lat="43.281615" lon="-2.854833">
        <ele>36.2</ele>
        <time>1970-01-01T00:05:15.000Z</time>
      </trkpt>
      <trkpt lat="43.281555" lon="-2.854821">
        <ele>36.2</ele>
        <time>1970-01-01T00:05:16.000Z</time>
      </trkpt>
      <trkpt lat="43.281493" lon="-2.854811">
        <ele>37.8</ele>
        <time>1970-01-01T00:05:17.000Z</time>
      </trkpt>
      <trkpt lat="43.281433" lon="-2.854796">
        <ele>37.8</ele>
        <time>1970-01-01T00:05:18.000Z</time>
      </trkpt>
      <trkpt lat="43.281375" lon="-2.854785">
        <ele>37.8</ele>
        <time>1970-01-01T00:05:19.000Z</time>
      </trkpt>
      <trkpt lat="43.281316" lon="-2.854768">
        <ele>37.8</ele>
        <time>1970-01-01T00:05:20.000Z</time>
      </trkpt>
      <trkpt lat="43.281261" lon="-2.854745">
        <ele>37.8</ele>
        <time>1970-01-01T00:05:21.000Z</time>
      </trkpt>
      <trkpt lat="43.281213" lon="-2.854731">
        <ele>37.6</ele>
        <time>1970-01-01T00:05:22.000Z</time>
      </trkpt>
      <trkpt lat="43.281171" lon="-2.854721">
        <ele>37.6</ele>
        <time>1970-01-01T00:05:23.000Z</time>
      </trkpt>
      <trkpt lat="43.281143" lon="-2.854718">
        <ele>38.4</ele>
        <time>1970-01-01T00:05:24.000Z</time>
      </trkpt>
      <trkpt lat="43.281125" lon="-2.85471">
        <ele>38.4</ele>
        <time>1970-01-01T00:05:25.000Z</time>
      </trkpt>
      <trkpt lat="43.28111" lon="-2.854698">
        <ele>38.4</ele>
        <time>1970-01-01T00:05:26.000Z</time>
      </trkpt>
      <trkpt lat="43.281096" lon="-2.854686">
        <ele>38.4</ele>
        <time>1970-01-01T00:05:27.000Z</time>
      </trkpt>
      <trkpt lat="43.281081" lon="-2.854686">
        <ele>38.4</ele>
        <time>1970-01-01T00:05:28.000Z</time>
      </trkpt>
      <trkpt lat="43.281078" lon="-2.854686">
        <ele>38.2</ele>
        <time>1970-01-01T00:05:29.000Z</time>
      </trkpt>
      <trkpt lat="43.281078" lon="-2.854686">
        <ele>38.2</ele>
        <time>1970-01-01T00:05:30.000Z</time>
      </trkpt>
      <trkpt lat="43.281078" lon="-2.854686">
        <ele>38.2</ele>
        <time>1970-01-01T00:05:31.000Z</time>
      </trkpt>
      <trkpt lat="43.281078" lon="-2.854686">
        <ele>38.2</ele>
        <time>1970-01-01T00:05:32.000Z</time>
      </trkpt>
      <trkpt lat="43.281078" lon="-2.854686">
        <ele>38.2</ele>
        <time>1970-01-01T00:05:33.000Z</time>
      </trkpt>
      <trkpt lat="43.281055" lon="-2.854706">
        <ele>38</ele>
        <time>1970-01-01T00:05:52.000Z</time>
      </trkpt>
      <trkpt lat="43.281036" lon="-2.854715">
        <ele>38.2</ele>
        <time>1970-01-01T00:05:53.000Z</time>
      </trkpt>
      <trkpt lat="43.281018" lon="-2.85472">
        <ele>38.2</ele>
        <time>1970-01-01T00:05:54.000Z</time>
      </trkpt>
      <trkpt lat="43.280995" lon="-2.854726">
        <ele>38.2</ele>
        <time>1970-01-01T00:05:55.000Z</time>
      </trkpt>
      <trkpt lat="43.280965" lon="-2.854738">
        <ele>38.2</ele>
        <time>1970-01-01T00:05:56.000Z</time>
      </trkpt>
      <trkpt lat="43.280935" lon="-2.854756">
        <ele>38.2</ele>
        <time>1970-01-01T00:05:57.000Z</time>
      </trkpt>
      <trkpt lat="43.280903" lon="-2.854773">
        <ele>38.2</ele>
        <time>1970-01-01T00:05:58.000Z</time>
      </trkpt>
      <trkpt lat="43.280871" lon="-2.854795">
        <ele>38.2</ele>
        <time>1970-01-01T00:05:59.000Z</time>
      </trkpt>
      <trkpt lat="43.280836" lon="-2.854823">
        <ele>38.2</ele>
        <time>1970-01-01T00:06:00.000Z</time>
      </trkpt>
      <trkpt lat="43.280801" lon="-2.854845">
        <ele>38.2</ele>
        <time>1970-01-01T00:06:01.000Z</time>
      </trkpt>
      <trkpt lat="43.280765" lon="-2.854855">
        <ele>38.2</ele>
        <time>1970-01-01T00:06:02.000Z</time>
      </trkpt>
      <trkpt lat="43.280738" lon="-2.854853">
        <ele>38.2</ele>
        <time>1970-01-01T00:06:03.000Z</time>
      </trkpt>
      <trkpt lat="43.280713" lon="-2.854843">
        <ele>38.2</ele>
        <time>1970-01-01T00:06:04.000Z</time>
      </trkpt>
      <trkpt lat="43.28068" lon="-2.85483">
        <ele>37.6</ele>
        <time>1970-01-01T00:06:05.000Z</time>
      </trkpt>
      <trkpt lat="43.280643" lon="-2.854805">
        <ele>37.6</ele>
        <time>1970-01-01T00:06:06.000Z</time>
      </trkpt>
      <trkpt lat="43.280605" lon="-2.85477">
        <ele>37.6</ele>
        <time>1970-01-01T00:06:07.000Z</time>
      </trkpt>
      <trkpt lat="43.280563" lon="-2.854735">
        <ele>37.6</ele>
        <time>1970-01-01T00:06:08.000Z</time>
      </trkpt>
      <trkpt lat="43.28052" lon="-2.85469">
        <ele>38</ele>
        <time>1970-01-01T00:06:09.000Z</time>
      </trkpt>
      <trkpt lat="43.280483" lon="-2.85463">
        <ele>38</ele>
        <time>1970-01-01T00:06:10.000Z</time>
      </trkpt>
      <trkpt lat="43.280451" lon="-2.85456">
        <ele>38</ele>
        <time>1970-01-01T00:06:11.000Z</time>
      </trkpt>
      <trkpt lat="43.280423" lon="-2.85449">
        <ele>38</ele>
        <time>1970-01-01T00:06:12.000Z</time>
      </trkpt>
      <trkpt lat="43.280393" lon="-2.854418">
        <ele>38</ele>
        <time>1970-01-01T00:06:13.000Z</time>
      </trkpt>
      <trkpt lat="43.280363" lon="-2.854345">
        <ele>38.4</ele>
        <time>1970-01-01T00:06:14.000Z</time>
      </trkpt>
      <trkpt lat="43.280335" lon="-2.854271">
        <ele>38.4</ele>
        <time>1970-01-01T00:06:15.000Z</time>
      </trkpt>
      <trkpt lat="43.280305" lon="-2.854198">
        <ele>38.4</ele>
        <time>1970-01-01T00:06:16.000Z</time>
      </trkpt>
      <trkpt lat="43.280276" lon="-2.854123">
        <ele>38.4</ele>
        <time>1970-01-01T00:06:17.000Z</time>
      </trkpt>
      <trkpt lat="43.280245" lon="-2.854048">
        <ele>38.4</ele>
        <time>1970-01-01T00:06:18.000Z</time>
      </trkpt>
      <trkpt lat="43.280213" lon="-2.853971">
        <ele>38.4</ele>
        <time>1970-01-01T00:06:19.000Z</time>
      </trkpt>
      <trkpt lat="43.280183" lon="-2.853895">
        <ele>38.4</ele>
        <time>1970-01-01T00:06:20.000Z</time>
      </trkpt>
      <trkpt lat="43.280151" lon="-2.85382">
        <ele>38.2</ele>
        <time>1970-01-01T00:06:21.000Z</time>
      </trkpt>
      <trkpt lat="43.28012" lon="-2.853745">
        <ele>38.2</ele>
        <time>1970-01-01T00:06:22.000Z</time>
      </trkpt>
      <trkpt lat="43.280086" lon="-2.853668">
        <ele>38.2</ele>
        <time>1970-01-01T00:06:23.000Z</time>
      </trkpt>
      <trkpt lat="43.280055" lon="-2.853591">
        <ele>38.2</ele>
        <time>1970-01-01T00:06:24.000Z</time>
      </trkpt>
      <trkpt lat="43.280023" lon="-2.853513">
        <ele>38.2</ele>
        <time>1970-01-01T00:06:25.000Z</time>
      </trkpt>
      <trkpt lat="43.279991" lon="-2.853435">
        <ele>38.6</ele>
        <time>1970-01-01T00:06:26.000Z</time>
      </trkpt>
      <trkpt lat="43.279961" lon="-2.853355">
        <ele>38.6</ele>
        <time>1970-01-01T00:06:27.000Z</time>
      </trkpt>
      <trkpt lat="43.279931" lon="-2.853276">
        <ele>38.6</ele>
        <time>1970-01-01T00:06:28.000Z</time>
      </trkpt>
      <trkpt lat="43.279901" lon="-2.8532">
        <ele>38.6</ele>
        <time>1970-01-01T00:06:29.000Z</time>
      </trkpt>
      <trkpt lat="43.279871" lon="-2.853121">
        <ele>38.8</ele>
        <time>1970-01-01T00:06:30.000Z</time>
      </trkpt>
      <trkpt lat="43.27984" lon="-2.853045">
        <ele>38.8</ele>
        <time>1970-01-01T00:06:31.000Z</time>
      </trkpt>
      <trkpt lat="43.27981" lon="-2.852966">
        <ele>38.8</ele>
        <time>1970-01-01T00:06:32.000Z</time>
      </trkpt>
      <trkpt lat="43.279778" lon="-2.852888">
        <ele>38.8</ele>
        <time>1970-01-01T00:06:33.000Z</time>
      </trkpt>
      <trkpt lat="43.279748" lon="-2.85281">
        <ele>38.8</ele>
        <time>1970-01-01T00:06:34.000Z</time>
      </trkpt>
      <trkpt lat="43.279715" lon="-2.852731">
        <ele>38.8</ele>
        <time>1970-01-01T00:06:35.000Z</time>
      </trkpt>
      <trkpt lat="43.279685" lon="-2.852653">
        <ele>38.8</ele>
        <time>1970-01-01T00:06:36.000Z</time>
      </trkpt>
      <trkpt lat="43.279653" lon="-2.852576">
        <ele>38.8</ele>
        <time>1970-01-01T00:06:37.000Z</time>
      </trkpt>
      <trkpt lat="43.279623" lon="-2.852498">
        <ele>38.8</ele>
        <time>1970-01-01T00:06:38.000Z</time>
      </trkpt>
      <trkpt lat="43.279591" lon="-2.852421">
        <ele>38.8</ele>
        <time>1970-01-01T00:06:39.000Z</time>
      </trkpt>
      <trkpt lat="43.279563" lon="-2.852343">
        <ele>39.4</ele>
        <time>1970-01-01T00:06:40.000Z</time>
      </trkpt>
      <trkpt lat="43.279535" lon="-2.852265">
        <ele>39.4</ele>
        <time>1970-01-01T00:06:41.000Z</time>
      </trkpt>
      <trkpt lat="43.279503" lon="-2.85219">
        <ele>39.2</ele>
        <time>1970-01-01T00:06:42.000Z</time>
      </trkpt>
      <trkpt lat="43.27947" lon="-2.85211">
        <ele>39.2</ele>
        <time>1970-01-01T00:06:43.000Z</time>
      </trkpt>
      <trkpt lat="43.279436" lon="-2.852031">
        <ele>39.2</ele>
        <time>1970-01-01T00:06:44.000Z</time>
      </trkpt>
      <trkpt lat="43.279405" lon="-2.851955">
        <ele>39.2</ele>
        <time>1970-01-01T00:06:45.000Z</time>
      </trkpt>
      <trkpt lat="43.279373" lon="-2.851875">
        <ele>39.2</ele>
        <time>1970-01-01T00:06:46.000Z</time>
      </trkpt>
      <trkpt lat="43.279341" lon="-2.851796">
        <ele>39.2</ele>
        <time>1970-01-01T00:06:47.000Z</time>
      </trkpt>
      <trkpt lat="43.279311" lon="-2.851718">
        <ele>39.2</ele>
        <time>1970-01-01T00:06:48.000Z</time>
      </trkpt>
      <trkpt lat="43.27928" lon="-2.85164">
        <ele>39.4</ele>
        <time>1970-01-01T00:06:49.000Z</time>
      </trkpt>
      <trkpt lat="43.279246" lon="-2.851561">
        <ele>39.4</ele>
        <time>1970-01-01T00:06:50.000Z</time>
      </trkpt>
      <trkpt lat="43.279215" lon="-2.851481">
        <ele>39.4</ele>
        <time>1970-01-01T00:06:51.000Z</time>
      </trkpt>
      <trkpt lat="43.279186" lon="-2.851403">
        <ele>39.4</ele>
        <time>1970-01-01T00:06:52.000Z</time>
      </trkpt>
      <trkpt lat="43.279156" lon="-2.851321">
        <ele>39.4</ele>
        <time>1970-01-01T00:06:53.000Z</time>
      </trkpt>
      <trkpt lat="43.279126" lon="-2.851243">
        <ele>39.6</ele>
        <time>1970-01-01T00:06:54.000Z</time>
      </trkpt>
      <trkpt lat="43.279093" lon="-2.851165">
        <ele>39.6</ele>
        <time>1970-01-01T00:06:55.000Z</time>
      </trkpt>
      <trkpt lat="43.279063" lon="-2.851085">
        <ele>39.6</ele>
        <time>1970-01-01T00:06:56.000Z</time>
      </trkpt>
      <trkpt lat="43.279031" lon="-2.851006">
        <ele>39.6</ele>
        <time>1970-01-01T00:06:57.000Z</time>
      </trkpt>
      <trkpt lat="43.279001" lon="-2.85093">
        <ele>39.8</ele>
        <time>1970-01-01T00:06:58.000Z</time>
      </trkpt>
      <trkpt lat="43.27897" lon="-2.85085">
        <ele>39.8</ele>
        <time>1970-01-01T00:06:59.000Z</time>
      </trkpt>
      <trkpt lat="43.278936" lon="-2.850771">
        <ele>39.8</ele>
        <time>1970-01-01T00:07:00.000Z</time>
      </trkpt>
      <trkpt lat="43.278905" lon="-2.85069">
        <ele>39.8</ele>
        <time>1970-01-01T00:07:01.000Z</time>
      </trkpt>
      <trkpt lat="43.278873" lon="-2.85061">
        <ele>39.8</ele>
        <time>1970-01-01T00:07:02.000Z</time>
      </trkpt>
      <trkpt lat="43.278843" lon="-2.850531">
        <ele>39.8</ele>
        <time>1970-01-01T00:07:03.000Z</time>
      </trkpt>
      <trkpt lat="43.278811" lon="-2.850451">
        <ele>39.8</ele>
        <time>1970-01-01T00:07:04.000Z</time>
      </trkpt>
      <trkpt lat="43.278776" lon="-2.850376">
        <ele>40.6</ele>
        <time>1970-01-01T00:07:05.000Z</time>
      </trkpt>
      <trkpt lat="43.278736" lon="-2.850305">
        <ele>40.6</ele>
        <time>1970-01-01T00:07:06.000Z</time>
      </trkpt>
      <trkpt lat="43.27869" lon="-2.850238">
        <ele>40.6</ele>
        <time>1970-01-01T00:07:07.000Z</time>
      </trkpt>
      <trkpt lat="43.278641" lon="-2.850178">
        <ele>40.6</ele>
        <time>1970-01-01T00:07:08.000Z</time>
      </trkpt>
      <trkpt lat="43.278591" lon="-2.850123">
        <ele>40.6</ele>
        <time>1970-01-01T00:07:09.000Z</time>
      </trkpt>
      <trkpt lat="43.278543" lon="-2.85006">
        <ele>40.8</ele>
        <time>1970-01-01T00:07:10.000Z</time>
      </trkpt>
      <trkpt lat="43.278498" lon="-2.849986">
        <ele>40.8</ele>
        <time>1970-01-01T00:07:11.000Z</time>
      </trkpt>
      <trkpt lat="43.278463" lon="-2.849903">
        <ele>40.2</ele>
        <time>1970-01-01T00:07:12.000Z</time>
      </trkpt>
      <trkpt lat="43.278436" lon="-2.849813">
        <ele>40.2</ele>
        <time>1970-01-01T00:07:13.000Z</time>
      </trkpt>
      <trkpt lat="43.278421" lon="-2.849721">
        <ele>40.2</ele>
        <time>1970-01-01T00:07:14.000Z</time>
      </trkpt>
      <trkpt lat="43.27841" lon="-2.849631">
        <ele>40.8</ele>
        <time>1970-01-01T00:07:15.000Z</time>
      </trkpt>
      <trkpt lat="43.2784" lon="-2.849543">
        <ele>40.8</ele>
        <time>1970-01-01T00:07:16.000Z</time>
      </trkpt>
      <trkpt lat="43.278388" lon="-2.849458">
        <ele>41.6</ele>
        <time>1970-01-01T00:07:17.000Z</time>
      </trkpt>
      <trkpt lat="43.278371" lon="-2.849373">
        <ele>41.6</ele>
        <time>1970-01-01T00:07:18.000Z</time>
      </trkpt>
      <trkpt lat="43.278348" lon="-2.84929">
        <ele>41.6</ele>
        <time>1970-01-01T00:07:19.000Z</time>
      </trkpt>
      <trkpt lat="43.278316" lon="-2.84921">
        <ele>41.6</ele>
        <time>1970-01-01T00:07:20.000Z</time>
      </trkpt>
      <trkpt lat="43.278283" lon="-2.849133">
        <ele>41.6</ele>
        <time>1970-01-01T00:07:21.000Z</time>
      </trkpt>
      <trkpt lat="43.278248" lon="-2.84906">
        <ele>42.8</ele>
        <time>1970-01-01T00:07:22.000Z</time>
      </trkpt>
      <trkpt lat="43.278211" lon="-2.848985">
        <ele>42.8</ele>
        <time>1970-01-01T00:07:23.000Z</time>
      </trkpt>
      <trkpt lat="43.278175" lon="-2.848908">
        <ele>43.4</ele>
        <time>1970-01-01T00:07:24.000Z</time>
      </trkpt>
      <trkpt lat="43.278138" lon="-2.848836">
        <ele>43.4</ele>
        <time>1970-01-01T00:07:25.000Z</time>
      </trkpt>
      <trkpt lat="43.2781" lon="-2.848763">
        <ele>43.6</ele>
        <time>1970-01-01T00:07:26.000Z</time>
      </trkpt>
      <trkpt lat="43.278061" lon="-2.848691">
        <ele>43.6</ele>
        <time>1970-01-01T00:07:27.000Z</time>
      </trkpt>
      <trkpt lat="43.278026" lon="-2.84862">
        <ele>43.6</ele>
        <time>1970-01-01T00:07:28.000Z</time>
      </trkpt>
      <trkpt lat="43.277991" lon="-2.848545">
        <ele>43.4</ele>
        <time>1970-01-01T00:07:29.000Z</time>
      </trkpt>
      <trkpt lat="43.277956" lon="-2.848471">
        <ele>43.4</ele>
        <time>1970-01-01T00:07:30.000Z</time>
      </trkpt>
      <trkpt lat="43.27792" lon="-2.848398">
        <ele>43.4</ele>
        <time>1970-01-01T00:07:31.000Z</time>
      </trkpt>
      <trkpt lat="43.277883" lon="-2.848325">
        <ele>43.4</ele>
        <time>1970-01-01T00:07:32.000Z</time>
      </trkpt>
      <trkpt lat="43.277848" lon="-2.84825">
        <ele>43.8</ele>
        <time>1970-01-01T00:07:33.000Z</time>
      </trkpt>
      <trkpt lat="43.277811" lon="-2.848176">
        <ele>43.8</ele>
        <time>1970-01-01T00:07:34.000Z</time>
      </trkpt>
      <trkpt lat="43.277775" lon="-2.848103">
        <ele>43.8</ele>
        <time>1970-01-01T00:07:35.000Z</time>
      </trkpt>
      <trkpt lat="43.277738" lon="-2.848031">
        <ele>44.4</ele>
        <time>1970-01-01T00:07:36.000Z</time>
      </trkpt>
      <trkpt lat="43.277703" lon="-2.847956">
        <ele>44.4</ele>
        <time>1970-01-01T00:07:37.000Z</time>
      </trkpt>
      <trkpt lat="43.27767" lon="-2.847881">
        <ele>44.4</ele>
        <time>1970-01-01T00:07:38.000Z</time>
      </trkpt>
      <trkpt lat="43.277635" lon="-2.847805">
        <ele>44.4</ele>
        <time>1970-01-01T00:07:39.000Z</time>
      </trkpt>
      <trkpt lat="43.2776" lon="-2.847731">
        <ele>44.4</ele>
        <time>1970-01-01T00:07:40.000Z</time>
      </trkpt>
      <trkpt lat="43.277565" lon="-2.847656">
        <ele>44.4</ele>
        <time>1970-01-01T00:07:41.000Z</time>
      </trkpt>
      <trkpt lat="43.27753" lon="-2.847581">
        <ele>44.4</ele>
        <time>1970-01-01T00:07:42.000Z</time>
      </trkpt>
      <trkpt lat="43.277495" lon="-2.847506">
        <ele>44.8</ele>
        <time>1970-01-01T00:07:43.000Z</time>
      </trkpt>
      <trkpt lat="43.277458" lon="-2.847433">
        <ele>44.8</ele>
        <time>1970-01-01T00:07:44.000Z</time>
      </trkpt>
      <trkpt lat="43.277423" lon="-2.847356">
        <ele>45.6</ele>
        <time>1970-01-01T00:07:45.000Z</time>
      </trkpt>
      <trkpt lat="43.277388" lon="-2.847281">
        <ele>45.6</ele>
        <time>1970-01-01T00:07:46.000Z</time>
      </trkpt>
      <trkpt lat="43.277353" lon="-2.847206">
        <ele>45.6</ele>
        <time>1970-01-01T00:07:47.000Z</time>
      </trkpt>
      <trkpt lat="43.27732" lon="-2.84713">
        <ele>45.6</ele>
        <time>1970-01-01T00:07:48.000Z</time>
      </trkpt>
      <trkpt lat="43.277285" lon="-2.847053">
        <ele>45.6</ele>
        <time>1970-01-01T00:07:49.000Z</time>
      </trkpt>
      <trkpt lat="43.27725" lon="-2.846976">
        <ele>45.8</ele>
        <time>1970-01-01T00:07:50.000Z</time>
      </trkpt>
      <trkpt lat="43.277215" lon="-2.846901">
        <ele>45.8</ele>
        <time>1970-01-01T00:07:51.000Z</time>
      </trkpt>
      <trkpt lat="43.277178" lon="-2.846825">
        <ele>45.8</ele>
        <time>1970-01-01T00:07:52.000Z</time>
      </trkpt>
      <trkpt lat="43.277138" lon="-2.84675">
        <ele>45.8</ele>
        <time>1970-01-01T00:07:53.000Z</time>
      </trkpt>
      <trkpt lat="43.2771" lon="-2.846675">
        <ele>46.2</ele>
        <time>1970-01-01T00:07:54.000Z</time>
      </trkpt>
      <trkpt lat="43.277066" lon="-2.8466">
        <ele>46.2</ele>
        <time>1970-01-01T00:07:55.000Z</time>
      </trkpt>
      <trkpt lat="43.277026" lon="-2.846523">
        <ele>46.2</ele>
        <time>1970-01-01T00:07:56.000Z</time>
      </trkpt>
      <trkpt lat="43.276988" lon="-2.846446">
        <ele>46.4</ele>
        <time>1970-01-01T00:07:57.000Z</time>
      </trkpt>
      <trkpt lat="43.276951" lon="-2.84637">
        <ele>46.4</ele>
        <time>1970-01-01T00:07:58.000Z</time>
      </trkpt>
      <trkpt lat="43.276915" lon="-2.846293">
        <ele>46.4</ele>
        <time>1970-01-01T00:07:59.000Z</time>
      </trkpt>
      <trkpt lat="43.27688" lon="-2.846215">
        <ele>46.4</ele>
        <time>1970-01-01T00:08:00.000Z</time>
      </trkpt>
      <trkpt lat="43.276845" lon="-2.846135">
        <ele>46.4</ele>
        <time>1970-01-01T00:08:01.000Z</time>
      </trkpt>
      <trkpt lat="43.276811" lon="-2.846056">
        <ele>46.4</ele>
        <time>1970-01-01T00:08:02.000Z</time>
      </trkpt>
      <trkpt lat="43.276778" lon="-2.84598">
        <ele>46.4</ele>
        <time>1970-01-01T00:08:03.000Z</time>
      </trkpt>
      <trkpt lat="43.276745" lon="-2.845898">
        <ele>46.4</ele>
        <time>1970-01-01T00:08:04.000Z</time>
      </trkpt>
      <trkpt lat="43.276715" lon="-2.845811">
        <ele>46.4</ele>
        <time>1970-01-01T00:08:05.000Z</time>
      </trkpt>
      <trkpt lat="43.276681" lon="-2.845726">
        <ele>46.4</ele>
        <time>1970-01-01T00:08:06.000Z</time>
      </trkpt>
      <trkpt lat="43.276651" lon="-2.84564">
        <ele>46.4</ele>
        <time>1970-01-01T00:08:07.000Z</time>
      </trkpt>
      <trkpt lat="43.27662" lon="-2.845551">
        <ele>46.4</ele>
        <time>1970-01-01T00:08:08.000Z</time>
      </trkpt>
      <trkpt lat="43.276591" lon="-2.845461">
        <ele>46.4</ele>
        <time>1970-01-01T00:08:09.000Z</time>
      </trkpt>
      <trkpt lat="43.276565" lon="-2.84537">
        <ele>46.4</ele>
        <time>1970-01-01T00:08:10.000Z</time>
      </trkpt>
      <trkpt lat="43.276538" lon="-2.845278">
        <ele>47</ele>
        <time>1970-01-01T00:08:11.000Z</time>
      </trkpt>
      <trkpt lat="43.276511" lon="-2.845186">
        <ele>47</ele>
        <time>1970-01-01T00:08:12.000Z</time>
      </trkpt>
      <trkpt lat="43.276485" lon="-2.845095">
        <ele>46.6</ele>
        <time>1970-01-01T00:08:13.000Z</time>
      </trkpt>
      <trkpt lat="43.276458" lon="-2.845003">
        <ele>46.6</ele>
        <time>1970-01-01T00:08:14.000Z</time>
      </trkpt>
      <trkpt lat="43.276433" lon="-2.84491">
        <ele>46.6</ele>
        <time>1970-01-01T00:08:15.000Z</time>
      </trkpt>
      <trkpt lat="43.276405" lon="-2.84482">
        <ele>46.6</ele>
        <time>1970-01-01T00:08:16.000Z</time>
      </trkpt>
      <trkpt lat="43.27638" lon="-2.84473">
        <ele>46.6</ele>
        <time>1970-01-01T00:08:17.000Z</time>
      </trkpt>
      <trkpt lat="43.276351" lon="-2.844638">
        <ele>46.2</ele>
        <time>1970-01-01T00:08:18.000Z</time>
      </trkpt>
      <trkpt lat="43.276321" lon="-2.84455">
        <ele>46.2</ele>
        <time>1970-01-01T00:08:19.000Z</time>
      </trkpt>
      <trkpt lat="43.27629" lon="-2.844463">
        <ele>46.2</ele>
        <time>1970-01-01T00:08:20.000Z</time>
      </trkpt>
      <trkpt lat="43.276255" lon="-2.844381">
        <ele>46.2</ele>
        <time>1970-01-01T00:08:21.000Z</time>
      </trkpt>
      <trkpt lat="43.276218" lon="-2.8443">
        <ele>47.2</ele>
        <time>1970-01-01T00:08:22.000Z</time>
      </trkpt>
      <trkpt lat="43.27619" lon="-2.84421">
        <ele>47.2</ele>
        <time>1970-01-01T00:08:23.000Z</time>
      </trkpt>
      <trkpt lat="43.276171" lon="-2.844111">
        <ele>47.2</ele>
        <time>1970-01-01T00:08:24.000Z</time>
      </trkpt>
      <trkpt lat="43.276153" lon="-2.844013">
        <ele>47.2</ele>
        <time>1970-01-01T00:08:25.000Z</time>
      </trkpt>
      <trkpt lat="43.27613" lon="-2.843915">
        <ele>47.2</ele>
        <time>1970-01-01T00:08:26.000Z</time>
      </trkpt>
      <trkpt lat="43.276103" lon="-2.843813">
        <ele>47.2</ele>
        <time>1970-01-01T00:08:27.000Z</time>
      </trkpt>
      <trkpt lat="43.276073" lon="-2.843715">
        <ele>47.2</ele>
        <time>1970-01-01T00:08:28.000Z</time>
      </trkpt>
      <trkpt lat="43.276045" lon="-2.843615">
        <ele>47</ele>
        <time>1970-01-01T00:08:29.000Z</time>
      </trkpt>
      <trkpt lat="43.276016" lon="-2.843515">
        <ele>47</ele>
        <time>1970-01-01T00:08:30.000Z</time>
      </trkpt>
      <trkpt lat="43.27599" lon="-2.843416">
        <ele>47</ele>
        <time>1970-01-01T00:08:31.000Z</time>
      </trkpt>
      <trkpt lat="43.275966" lon="-2.84332">
        <ele>47.4</ele>
        <time>1970-01-01T00:08:32.000Z</time>
      </trkpt>
      <trkpt lat="43.275943" lon="-2.843223">
        <ele>47.4</ele>
        <time>1970-01-01T00:08:33.000Z</time>
      </trkpt>
      <trkpt lat="43.275921" lon="-2.843126">
        <ele>47.4</ele>
        <time>1970-01-01T00:08:34.000Z</time>
      </trkpt>
      <trkpt lat="43.275903" lon="-2.84303">
        <ele>47.4</ele>
        <time>1970-01-01T00:08:35.000Z</time>
      </trkpt>
      <trkpt lat="43.27588" lon="-2.842936">
        <ele>47.6</ele>
        <time>1970-01-01T00:08:36.000Z</time>
      </trkpt>
      <trkpt lat="43.275865" lon="-2.842838">
        <ele>47.6</ele>
        <time>1970-01-01T00:08:37.000Z</time>
      </trkpt>
      <trkpt lat="43.27585" lon="-2.84274">
        <ele>47.6</ele>
        <time>1970-01-01T00:08:38.000Z</time>
      </trkpt>
      <trkpt lat="43.275838" lon="-2.842643">
        <ele>47.6</ele>
        <time>1970-01-01T00:08:39.000Z</time>
      </trkpt>
      <trkpt lat="43.275828" lon="-2.842545">
        <ele>47.6</ele>
        <time>1970-01-01T00:08:40.000Z</time>
      </trkpt>
      <trkpt lat="43.275818" lon="-2.842446">
        <ele>48.8</ele>
        <time>1970-01-01T00:08:41.000Z</time>
      </trkpt>
      <trkpt lat="43.275811" lon="-2.84235">
        <ele>48.8</ele>
        <time>1970-01-01T00:08:42.000Z</time>
      </trkpt>
      <trkpt lat="43.275806" lon="-2.842251">
        <ele>48.8</ele>
        <time>1970-01-01T00:08:43.000Z</time>
      </trkpt>
      <trkpt lat="43.275801" lon="-2.842155">
        <ele>48.8</ele>
        <time>1970-01-01T00:08:44.000Z</time>
      </trkpt>
      <trkpt lat="43.275796" lon="-2.842058">
        <ele>48.8</ele>
        <time>1970-01-01T00:08:45.000Z</time>
      </trkpt>
      <trkpt lat="43.27579" lon="-2.84196">
        <ele>48.6</ele>
        <time>1970-01-01T00:08:46.000Z</time>
      </trkpt>
      <trkpt lat="43.275783" lon="-2.841863">
        <ele>48.6</ele>
        <time>1970-01-01T00:08:47.000Z</time>
      </trkpt>
      <trkpt lat="43.275776" lon="-2.841765">
        <ele>49</ele>
        <time>1970-01-01T00:08:48.000Z</time>
      </trkpt>
      <trkpt lat="43.27577" lon="-2.841666">
        <ele>49</ele>
        <time>1970-01-01T00:08:49.000Z</time>
      </trkpt>
      <trkpt lat="43.275763" lon="-2.841568">
        <ele>49</ele>
        <time>1970-01-01T00:08:50.000Z</time>
      </trkpt>
      <trkpt lat="43.275756" lon="-2.84147">
        <ele>49</ele>
        <time>1970-01-01T00:08:51.000Z</time>
      </trkpt>
      <trkpt lat="43.275751" lon="-2.84137">
        <ele>49</ele>
        <time>1970-01-01T00:08:52.000Z</time>
      </trkpt>
      <trkpt lat="43.275743" lon="-2.841273">
        <ele>49.6</ele>
        <time>1970-01-01T00:08:53.000Z</time>
      </trkpt>
      <trkpt lat="43.275736" lon="-2.841175">
        <ele>49.6</ele>
        <time>1970-01-01T00:08:54.000Z</time>
      </trkpt>
      <trkpt lat="43.27573" lon="-2.841078">
        <ele>49.6</ele>
        <time>1970-01-01T00:08:55.000Z</time>
      </trkpt>
      <trkpt lat="43.275725" lon="-2.84098">
        <ele>49.6</ele>
        <time>1970-01-01T00:08:56.000Z</time>
      </trkpt>
      <trkpt lat="43.275718" lon="-2.840883">
        <ele>49.4</ele>
        <time>1970-01-01T00:08:57.000Z</time>
      </trkpt>
      <trkpt lat="43.275715" lon="-2.840788">
        <ele>49.4</ele>
        <time>1970-01-01T00:08:58.000Z</time>
      </trkpt>
      <trkpt lat="43.27571" lon="-2.840691">
        <ele>49.4</ele>
        <time>1970-01-01T00:08:59.000Z</time>
      </trkpt>
      <trkpt lat="43.275701" lon="-2.840596">
        <ele>50.2</ele>
        <time>1970-01-01T00:09:00.000Z</time>
      </trkpt>
      <trkpt lat="43.275695" lon="-2.8405">
        <ele>50.2</ele>
        <time>1970-01-01T00:09:01.000Z</time>
      </trkpt>
      <trkpt lat="43.275688" lon="-2.840403">
        <ele>49.8</ele>
        <time>1970-01-01T00:09:02.000Z</time>
      </trkpt>
      <trkpt lat="43.27568" lon="-2.840306">
        <ele>49.8</ele>
        <time>1970-01-01T00:09:03.000Z</time>
      </trkpt>
      <trkpt lat="43.27567" lon="-2.840211">
        <ele>50.2</ele>
        <time>1970-01-01T00:09:04.000Z</time>
      </trkpt>
      <trkpt lat="43.275661" lon="-2.840115">
        <ele>50.2</ele>
        <time>1970-01-01T00:09:05.000Z</time>
      </trkpt>
      <trkpt lat="43.275651" lon="-2.84002">
        <ele>50.2</ele>
        <time>1970-01-01T00:09:06.000Z</time>
      </trkpt>
      <trkpt lat="43.275641" lon="-2.839926">
        <ele>50.4</ele>
        <time>1970-01-01T00:09:07.000Z</time>
      </trkpt>
      <trkpt lat="43.27563" lon="-2.839833">
        <ele>50.4</ele>
        <time>1970-01-01T00:09:08.000Z</time>
      </trkpt>
      <trkpt lat="43.275616" lon="-2.83974">
        <ele>51</ele>
        <time>1970-01-01T00:09:09.000Z</time>
      </trkpt>
      <trkpt lat="43.275601" lon="-2.839646">
        <ele>51</ele>
        <time>1970-01-01T00:09:10.000Z</time>
      </trkpt>
      <trkpt lat="43.275586" lon="-2.839553">
        <ele>51</ele>
        <time>1970-01-01T00:09:11.000Z</time>
      </trkpt>
      <trkpt lat="43.275576" lon="-2.839456">
        <ele>51</ele>
        <time>1970-01-01T00:09:12.000Z</time>
      </trkpt>
      <trkpt lat="43.275563" lon="-2.839363">
        <ele>51</ele>
        <time>1970-01-01T00:09:13.000Z</time>
      </trkpt>
      <trkpt lat="43.275548" lon="-2.83927">
        <ele>52.4</ele>
        <time>1970-01-01T00:09:14.000Z</time>
      </trkpt>
      <trkpt lat="43.275533" lon="-2.839176">
        <ele>52.4</ele>
        <time>1970-01-01T00:09:15.000Z</time>
      </trkpt>
      <trkpt lat="43.27552" lon="-2.839083">
        <ele>52.4</ele>
        <time>1970-01-01T00:09:16.000Z</time>
      </trkpt>
      <trkpt lat="43.275505" lon="-2.838991">
        <ele>52.4</ele>
        <time>1970-01-01T00:09:17.000Z</time>
      </trkpt>
      <trkpt lat="43.275486" lon="-2.838901">
        <ele>52.2</ele>
        <time>1970-01-01T00:09:18.000Z</time>
      </trkpt>
      <trkpt lat="43.27547" lon="-2.838813">
        <ele>52.2</ele>
        <time>1970-01-01T00:09:19.000Z</time>
      </trkpt>
      <trkpt lat="43.275451" lon="-2.838725">
        <ele>52.4</ele>
        <time>1970-01-01T00:09:20.000Z</time>
      </trkpt>
      <trkpt lat="43.275431" lon="-2.838636">
        <ele>52.4</ele>
        <time>1970-01-01T00:09:21.000Z</time>
      </trkpt>
      <trkpt lat="43.275411" lon="-2.838546">
        <ele>52.8</ele>
        <time>1970-01-01T00:09:22.000Z</time>
      </trkpt>
      <trkpt lat="43.275391" lon="-2.838458">
        <ele>52.8</ele>
        <time>1970-01-01T00:09:23.000Z</time>
      </trkpt>
      <trkpt lat="43.27537" lon="-2.838368">
        <ele>52.8</ele>
        <time>1970-01-01T00:09:24.000Z</time>
      </trkpt>
      <trkpt lat="43.27535" lon="-2.83828">
        <ele>52.8</ele>
        <time>1970-01-01T00:09:25.000Z</time>
      </trkpt>
      <trkpt lat="43.27533" lon="-2.838193">
        <ele>53</ele>
        <time>1970-01-01T00:09:26.000Z</time>
      </trkpt>
      <trkpt lat="43.275308" lon="-2.838105">
        <ele>53</ele>
        <time>1970-01-01T00:09:27.000Z</time>
      </trkpt>
      <trkpt lat="43.275283" lon="-2.838018">
        <ele>53.6</ele>
        <time>1970-01-01T00:09:28.000Z</time>
      </trkpt>
      <trkpt lat="43.275258" lon="-2.837931">
        <ele>53.6</ele>
        <time>1970-01-01T00:09:29.000Z</time>
      </trkpt>
      <trkpt lat="43.275233" lon="-2.837845">
        <ele>53.8</ele>
        <time>1970-01-01T00:09:30.000Z</time>
      </trkpt>
      <trkpt lat="43.275206" lon="-2.837756">
        <ele>53.8</ele>
        <time>1970-01-01T00:09:31.000Z</time>
      </trkpt>
      <trkpt lat="43.275181" lon="-2.83767">
        <ele>54.8</ele>
        <time>1970-01-01T00:09:32.000Z</time>
      </trkpt>
      <trkpt lat="43.275156" lon="-2.837581">
        <ele>54.8</ele>
        <time>1970-01-01T00:09:33.000Z</time>
      </trkpt>
      <trkpt lat="43.27513" lon="-2.837498">
        <ele>54.8</ele>
        <time>1970-01-01T00:09:34.000Z</time>
      </trkpt>
      <trkpt lat="43.275106" lon="-2.837415">
        <ele>54.8</ele>
        <time>1970-01-01T00:09:35.000Z</time>
      </trkpt>
      <trkpt lat="43.275085" lon="-2.83733">
        <ele>54.8</ele>
        <time>1970-01-01T00:09:36.000Z</time>
      </trkpt>
      <trkpt lat="43.275065" lon="-2.837246">
        <ele>54.8</ele>
        <time>1970-01-01T00:09:37.000Z</time>
      </trkpt>
      <trkpt lat="43.275045" lon="-2.837161">
        <ele>54.8</ele>
        <time>1970-01-01T00:09:38.000Z</time>
      </trkpt>
      <trkpt lat="43.275023" lon="-2.837078">
        <ele>54.8</ele>
        <time>1970-01-01T00:09:39.000Z</time>
      </trkpt>
      <trkpt lat="43.275" lon="-2.836995">
        <ele>55</ele>
        <time>1970-01-01T00:09:40.000Z</time>
      </trkpt>
      <trkpt lat="43.274978" lon="-2.836913">
        <ele>55</ele>
        <time>1970-01-01T00:09:41.000Z</time>
      </trkpt>
      <trkpt lat="43.274955" lon="-2.836828">
        <ele>55.8</ele>
        <time>1970-01-01T00:09:42.000Z</time>
      </trkpt>
      <trkpt lat="43.274931" lon="-2.836748">
        <ele>55.8</ele>
        <time>1970-01-01T00:09:43.000Z</time>
      </trkpt>
      <trkpt lat="43.274906" lon="-2.836675">
        <ele>55.8</ele>
        <time>1970-01-01T00:09:44.000Z</time>
      </trkpt>
      <trkpt lat="43.274886" lon="-2.836605">
        <ele>55.8</ele>
        <time>1970-01-01T00:09:45.000Z</time>
      </trkpt>
      <trkpt lat="43.27487" lon="-2.836536">
        <ele>56.4</ele>
        <time>1970-01-01T00:09:46.000Z</time>
      </trkpt>
      <trkpt lat="43.274846" lon="-2.836465">
        <ele>56.4</ele>
        <time>1970-01-01T00:09:47.000Z</time>
      </trkpt>
      <trkpt lat="43.274825" lon="-2.836393">
        <ele>56.4</ele>
        <time>1970-01-01T00:09:48.000Z</time>
      </trkpt>
      <trkpt lat="43.274803" lon="-2.836321">
        <ele>56.4</ele>
        <time>1970-01-01T00:09:49.000Z</time>
      </trkpt>
      <trkpt lat="43.274783" lon="-2.836246">
        <ele>56.4</ele>
        <time>1970-01-01T00:09:50.000Z</time>
      </trkpt>
      <trkpt lat="43.274761" lon="-2.836178">
        <ele>56.4</ele>
        <time>1970-01-01T00:09:51.000Z</time>
      </trkpt>
      <trkpt lat="43.274743" lon="-2.836113">
        <ele>56.4</ele>
        <time>1970-01-01T00:09:52.000Z</time>
      </trkpt>
      <trkpt lat="43.274725" lon="-2.83605">
        <ele>56.4</ele>
        <time>1970-01-01T00:09:53.000Z</time>
      </trkpt>
      <trkpt lat="43.274706" lon="-2.835988">
        <ele>57.6</ele>
        <time>1970-01-01T00:09:54.000Z</time>
      </trkpt>
      <trkpt lat="43.274686" lon="-2.835926">
        <ele>57.6</ele>
        <time>1970-01-01T00:09:55.000Z</time>
      </trkpt>
      <trkpt lat="43.27467" lon="-2.835865">
        <ele>58</ele>
        <time>1970-01-01T00:09:56.000Z</time>
      </trkpt>
      <trkpt lat="43.274651" lon="-2.835803">
        <ele>58</ele>
        <time>1970-01-01T00:09:57.000Z</time>
      </trkpt>
      <trkpt lat="43.274633" lon="-2.835741">
        <ele>58.6</ele>
        <time>1970-01-01T00:09:58.000Z</time>
      </trkpt>
      <trkpt lat="43.274611" lon="-2.83568">
        <ele>58.6</ele>
        <time>1970-01-01T00:09:59.000Z</time>
      </trkpt>
      <trkpt lat="43.27458" lon="-2.835623">
        <ele>58.6</ele>
        <time>1970-01-01T00:10:00.000Z</time>
      </trkpt>
      <trkpt lat="43.274545" lon="-2.835573">
        <ele>58.6</ele>
        <time>1970-01-01T00:10:01.000Z</time>
      </trkpt>
      <trkpt lat="43.274508" lon="-2.835523">
        <ele>58.6</ele>
        <time>1970-01-01T00:10:02.000Z</time>
      </trkpt>
      <trkpt lat="43.274475" lon="-2.835475">
        <ele>58.6</ele>
        <time>1970-01-01T00:10:03.000Z</time>
      </trkpt>
      <trkpt lat="43.274441" lon="-2.835425">
        <ele>58.6</ele>
        <time>1970-01-01T00:10:04.000Z</time>
      </trkpt>
      <trkpt lat="43.274406" lon="-2.835378">
        <ele>58.6</ele>
        <time>1970-01-01T00:10:05.000Z</time>
      </trkpt>
      <trkpt lat="43.274368" lon="-2.835331">
        <ele>58.6</ele>
        <time>1970-01-01T00:10:06.000Z</time>
      </trkpt>
      <trkpt lat="43.274331" lon="-2.835293">
        <ele>58.8</ele>
        <time>1970-01-01T00:10:07.000Z</time>
      </trkpt>
      <trkpt lat="43.274291" lon="-2.835253">
        <ele>58.8</ele>
        <time>1970-01-01T00:10:08.000Z</time>
      </trkpt>
      <trkpt lat="43.274253" lon="-2.835215">
        <ele>58.8</ele>
        <time>1970-01-01T00:10:09.000Z</time>
      </trkpt>
      <trkpt lat="43.274211" lon="-2.835185">
        <ele>58.8</ele>
        <time>1970-01-01T00:10:10.000Z</time>
      </trkpt>
      <trkpt lat="43.274168" lon="-2.835168">
        <ele>59.2</ele>
        <time>1970-01-01T00:10:11.000Z</time>
      </trkpt>
      <trkpt lat="43.274123" lon="-2.835168">
        <ele>59.2</ele>
        <time>1970-01-01T00:10:12.000Z</time>
      </trkpt>
      <trkpt lat="43.274083" lon="-2.835183">
        <ele>60.6</ele>
        <time>1970-01-01T00:10:13.000Z</time>
      </trkpt>
      <trkpt lat="43.274046" lon="-2.835203">
        <ele>60.6</ele>
        <time>1970-01-01T00:10:14.000Z</time>
      </trkpt>
      <trkpt lat="43.274011" lon="-2.83522">
        <ele>60.6</ele>
        <time>1970-01-01T00:10:15.000Z</time>
      </trkpt>
      <trkpt lat="43.273981" lon="-2.835236">
        <ele>61.6</ele>
        <time>1970-01-01T00:10:16.000Z</time>
      </trkpt>
      <trkpt lat="43.273945" lon="-2.83525">
        <ele>61.6</ele>
        <time>1970-01-01T00:10:17.000Z</time>
      </trkpt>
      <trkpt lat="43.273913" lon="-2.83526">
        <ele>62</ele>
        <time>1970-01-01T00:10:18.000Z</time>
      </trkpt>
      <trkpt lat="43.27388" lon="-2.83527">
        <ele>62</ele>
        <time>1970-01-01T00:10:19.000Z</time>
      </trkpt>
      <trkpt lat="43.273848" lon="-2.835281">
        <ele>63</ele>
        <time>1970-01-01T00:10:20.000Z</time>
      </trkpt>
      <trkpt lat="43.273816" lon="-2.835293">
        <ele>63</ele>
        <time>1970-01-01T00:10:21.000Z</time>
      </trkpt>
      <trkpt lat="43.273783" lon="-2.835305">
        <ele>63</ele>
        <time>1970-01-01T00:10:22.000Z</time>
      </trkpt>
      <trkpt lat="43.273748" lon="-2.835308">
        <ele>63</ele>
        <time>1970-01-01T00:10:23.000Z</time>
      </trkpt>
      <trkpt lat="43.273711" lon="-2.835313">
        <ele>63</ele>
        <time>1970-01-01T00:10:24.000Z</time>
      </trkpt>
      <trkpt lat="43.273676" lon="-2.835316">
        <ele>64.2</ele>
        <time>1970-01-01T00:10:25.000Z</time>
      </trkpt>
      <trkpt lat="43.27364" lon="-2.835321">
        <ele>64.2</ele>
        <time>1970-01-01T00:10:26.000Z</time>
      </trkpt>
      <trkpt lat="43.273603" lon="-2.835328">
        <ele>64.2</ele>
        <time>1970-01-01T00:10:27.000Z</time>
      </trkpt>
      <trkpt lat="43.273565" lon="-2.83534">
        <ele>64.2</ele>
        <time>1970-01-01T00:10:28.000Z</time>
      </trkpt>
      <trkpt lat="43.273528" lon="-2.835343">
        <ele>64.2</ele>
        <time>1970-01-01T00:10:29.000Z</time>
      </trkpt>
      <trkpt lat="43.273491" lon="-2.835341">
        <ele>65.2</ele>
        <time>1970-01-01T00:10:30.000Z</time>
      </trkpt>
      <trkpt lat="43.273453" lon="-2.835341">
        <ele>65.2</ele>
        <time>1970-01-01T00:10:31.000Z</time>
      </trkpt>
      <trkpt lat="43.273415" lon="-2.835345">
        <ele>66</ele>
        <time>1970-01-01T00:10:32.000Z</time>
      </trkpt>
      <trkpt lat="43.273378" lon="-2.83535">
        <ele>66</ele>
        <time>1970-01-01T00:10:33.000Z</time>
      </trkpt>
      <trkpt lat="43.27334" lon="-2.835348">
        <ele>66.4</ele>
        <time>1970-01-01T00:10:34.000Z</time>
      </trkpt>
      <trkpt lat="43.273301" lon="-2.835343">
        <ele>66.4</ele>
        <time>1970-01-01T00:10:35.000Z</time>
      </trkpt>
      <trkpt lat="43.273263" lon="-2.835336">
        <ele>66.4</ele>
        <time>1970-01-01T00:10:36.000Z</time>
      </trkpt>
      <trkpt lat="43.273225" lon="-2.83533">
        <ele>67</ele>
        <time>1970-01-01T00:10:37.000Z</time>
      </trkpt>
      <trkpt lat="43.273188" lon="-2.835323">
        <ele>67</ele>
        <time>1970-01-01T00:10:38.000Z</time>
      </trkpt>
      <trkpt lat="43.273151" lon="-2.835316">
        <ele>67</ele>
        <time>1970-01-01T00:10:39.000Z</time>
      </trkpt>
      <trkpt lat="43.272287" lon="-2.835001">
        <ele>67.6</ele>
        <time>1970-01-01T00:12:36.000Z</time>
      </trkpt>
      <trkpt lat="43.272258" lon="-2.834991">
        <ele>67.8</ele>
        <time>1970-01-01T00:12:37.000Z</time>
      </trkpt>
      <trkpt lat="43.2722" lon="-2.834968">
        <ele>67.8</ele>
        <time>1970-01-01T00:12:38.000Z</time>
      </trkpt>
      <trkpt lat="43.272143" lon="-2.834946">
        <ele>67.8</ele>
        <time>1970-01-01T00:12:39.000Z</time>
      </trkpt>
      <trkpt lat="43.272086" lon="-2.834921">
        <ele>67.8</ele>
        <time>1970-01-01T00:12:40.000Z</time>
      </trkpt>
      <trkpt lat="43.272031" lon="-2.834891">
        <ele>67.8</ele>
        <time>1970-01-01T00:12:41.000Z</time>
      </trkpt>
      <trkpt lat="43.271976" lon="-2.83486">
        <ele>67.6</ele>
        <time>1970-01-01T00:12:42.000Z</time>
      </trkpt>
      <trkpt lat="43.271921" lon="-2.834833">
        <ele>67.6</ele>
        <time>1970-01-01T00:12:43.000Z</time>
      </trkpt>
      <trkpt lat="43.271866" lon="-2.83481">
        <ele>67.6</ele>
        <time>1970-01-01T00:12:44.000Z</time>
      </trkpt>
      <trkpt lat="43.271811" lon="-2.834785">
        <ele>67.6</ele>
        <time>1970-01-01T00:12:45.000Z</time>
      </trkpt>
      <trkpt lat="43.271758" lon="-2.834763">
        <ele>68.4</ele>
        <time>1970-01-01T00:12:46.000Z</time>
      </trkpt>
      <trkpt lat="43.271706" lon="-2.83474">
        <ele>68.4</ele>
        <time>1970-01-01T00:12:47.000Z</time>
      </trkpt>
      <trkpt lat="43.271655" lon="-2.834713">
        <ele>69</ele>
        <time>1970-01-01T00:12:48.000Z</time>
      </trkpt>
      <trkpt lat="43.271605" lon="-2.83469">
        <ele>69</ele>
        <time>1970-01-01T00:12:49.000Z</time>
      </trkpt>
      <trkpt lat="43.271553" lon="-2.834666">
        <ele>69</ele>
        <time>1970-01-01T00:12:50.000Z</time>
      </trkpt>
      <trkpt lat="43.271503" lon="-2.834645">
        <ele>69.2</ele>
        <time>1970-01-01T00:12:51.000Z</time>
      </trkpt>
      <trkpt lat="43.271453" lon="-2.83462">
        <ele>69.2</ele>
        <time>1970-01-01T00:12:52.000Z</time>
      </trkpt>
      <trkpt lat="43.271403" lon="-2.834598">
        <ele>69.8</ele>
        <time>1970-01-01T00:12:53.000Z</time>
      </trkpt>
      <trkpt lat="43.271351" lon="-2.834575">
        <ele>69.8</ele>
        <time>1970-01-01T00:12:54.000Z</time>
      </trkpt>
      <trkpt lat="43.271301" lon="-2.834553">
        <ele>69.8</ele>
        <time>1970-01-01T00:12:55.000Z</time>
      </trkpt>
      <trkpt lat="43.27125" lon="-2.83453">
        <ele>69.8</ele>
        <time>1970-01-01T00:12:56.000Z</time>
      </trkpt>
      <trkpt lat="43.271198" lon="-2.834508">
        <ele>69.8</ele>
        <time>1970-01-01T00:12:57.000Z</time>
      </trkpt>
      <trkpt lat="43.271146" lon="-2.834488">
        <ele>70.2</ele>
        <time>1970-01-01T00:12:58.000Z</time>
      </trkpt>
      <trkpt lat="43.271096" lon="-2.834468">
        <ele>70.2</ele>
        <time>1970-01-01T00:12:59.000Z</time>
      </trkpt>
      <trkpt lat="43.271043" lon="-2.834445">
        <ele>70.4</ele>
        <time>1970-01-01T00:13:00.000Z</time>
      </trkpt>
      <trkpt lat="43.270991" lon="-2.834423">
        <ele>70.4</ele>
        <time>1970-01-01T00:13:01.000Z</time>
      </trkpt>
      <trkpt lat="43.27094" lon="-2.834401">
        <ele>70.6</ele>
        <time>1970-01-01T00:13:02.000Z</time>
      </trkpt>
      <trkpt lat="43.27089" lon="-2.83438">
        <ele>70.6</ele>
        <time>1970-01-01T00:13:03.000Z</time>
      </trkpt>
      <trkpt lat="43.27084" lon="-2.834356">
        <ele>70.6</ele>
        <time>1970-01-01T00:13:04.000Z</time>
      </trkpt>
      <trkpt lat="43.27079" lon="-2.834333">
        <ele>71.2</ele>
        <time>1970-01-01T00:13:05.000Z</time>
      </trkpt>
      <trkpt lat="43.270741" lon="-2.834311">
        <ele>71.2</ele>
        <time>1970-01-01T00:13:06.000Z</time>
      </trkpt>
      <trkpt lat="43.27069" lon="-2.834291">
        <ele>71.2</ele>
        <time>1970-01-01T00:13:07.000Z</time>
      </trkpt>
      <trkpt lat="43.270638" lon="-2.834273">
        <ele>71.2</ele>
        <time>1970-01-01T00:13:08.000Z</time>
      </trkpt>
      <trkpt lat="43.270585" lon="-2.834255">
        <ele>71.4</ele>
        <time>1970-01-01T00:13:09.000Z</time>
      </trkpt>
      <trkpt lat="43.270531" lon="-2.83424">
        <ele>71.4</ele>
        <time>1970-01-01T00:13:10.000Z</time>
      </trkpt>
      <trkpt lat="43.27048" lon="-2.834223">
        <ele>71.4</ele>
        <time>1970-01-01T00:13:11.000Z</time>
      </trkpt>
      <trkpt lat="43.270428" lon="-2.834206">
        <ele>71.4</ele>
        <time>1970-01-01T00:13:12.000Z</time>
      </trkpt>
      <trkpt lat="43.270376" lon="-2.834188">
        <ele>71.4</ele>
        <time>1970-01-01T00:13:13.000Z</time>
      </trkpt>
      <trkpt lat="43.270325" lon="-2.83417">
        <ele>71.6</ele>
        <time>1970-01-01T00:13:14.000Z</time>
      </trkpt>
      <trkpt lat="43.270276" lon="-2.83415">
        <ele>71.6</ele>
        <time>1970-01-01T00:13:15.000Z</time>
      </trkpt>
      <trkpt lat="43.270228" lon="-2.834133">
        <ele>72.2</ele>
        <time>1970-01-01T00:13:16.000Z</time>
      </trkpt>
      <trkpt lat="43.27018" lon="-2.834115">
        <ele>72.2</ele>
        <time>1970-01-01T00:13:17.000Z</time>
      </trkpt>
      <trkpt lat="43.270136" lon="-2.834095">
        <ele>72.2</ele>
        <time>1970-01-01T00:13:18.000Z</time>
      </trkpt>
      <trkpt lat="43.270095" lon="-2.834078">
        <ele>72.2</ele>
        <time>1970-01-01T00:13:19.000Z</time>
      </trkpt>
      <trkpt lat="43.270056" lon="-2.834071">
        <ele>72.2</ele>
        <time>1970-01-01T00:13:20.000Z</time>
      </trkpt>
      <trkpt lat="43.270016" lon="-2.834071">
        <ele>74.2</ele>
        <time>1970-01-01T00:13:21.000Z</time>
      </trkpt>
      <trkpt lat="43.269981" lon="-2.834066">
        <ele>74.2</ele>
        <time>1970-01-01T00:13:22.000Z</time>
      </trkpt>
      <trkpt lat="43.269953" lon="-2.83406">
        <ele>74.2</ele>
        <time>1970-01-01T00:13:23.000Z</time>
      </trkpt>
      <trkpt lat="43.26992" lon="-2.834056">
        <ele>74.2</ele>
        <time>1970-01-01T00:13:24.000Z</time>
      </trkpt>
      <trkpt lat="43.269886" lon="-2.834058">
        <ele>74.2</ele>
        <time>1970-01-01T00:13:25.000Z</time>
      </trkpt>
      <trkpt lat="43.269851" lon="-2.834058">
        <ele>75</ele>
        <time>1970-01-01T00:13:26.000Z</time>
      </trkpt>
      <trkpt lat="43.269818" lon="-2.834061">
        <ele>75</ele>
        <time>1970-01-01T00:13:27.000Z</time>
      </trkpt>
      <trkpt lat="43.269785" lon="-2.834061">
        <ele>76</ele>
        <time>1970-01-01T00:13:28.000Z</time>
      </trkpt>
      <trkpt lat="43.269751" lon="-2.834066">
        <ele>76</ele>
        <time>1970-01-01T00:13:29.000Z</time>
      </trkpt>
      <trkpt lat="43.269716" lon="-2.83407">
        <ele>76</ele>
        <time>1970-01-01T00:13:30.000Z</time>
      </trkpt>
      <trkpt lat="43.269683" lon="-2.834076">
        <ele>76</ele>
        <time>1970-01-01T00:13:31.000Z</time>
      </trkpt>
      <trkpt lat="43.269646" lon="-2.83408">
        <ele>76</ele>
        <time>1970-01-01T00:13:32.000Z</time>
      </trkpt>
      <trkpt lat="43.269613" lon="-2.834078">
        <ele>76.6</ele>
        <time>1970-01-01T00:13:33.000Z</time>
      </trkpt>
      <trkpt lat="43.269581" lon="-2.83408">
        <ele>76.6</ele>
        <time>1970-01-01T00:13:34.000Z</time>
      </trkpt>
      <trkpt lat="43.269548" lon="-2.834078">
        <ele>76.6</ele>
        <time>1970-01-01T00:13:35.000Z</time>
      </trkpt>
      <trkpt lat="43.268633" lon="-2.83406">
        <ele>82</ele>
        <time>1970-01-01T00:14:00.000Z</time>
      </trkpt>
      <trkpt lat="43.268611" lon="-2.83406">
        <ele>83</ele>
        <time>1970-01-01T00:14:01.000Z</time>
      </trkpt>
      <trkpt lat="43.268591" lon="-2.834058">
        <ele>83</ele>
        <time>1970-01-01T00:14:02.000Z</time>
      </trkpt>
      <trkpt lat="43.268576" lon="-2.83404">
        <ele>83</ele>
        <time>1970-01-01T00:14:03.000Z</time>
      </trkpt>
      <trkpt lat="43.268578" lon="-2.834011">
        <ele>83</ele>
        <time>1970-01-01T00:14:04.000Z</time>
      </trkpt>
      <trkpt lat="43.268581" lon="-2.833983">
        <ele>83</ele>
        <time>1970-01-01T00:14:05.000Z</time>
      </trkpt>
      <trkpt lat="43.268585" lon="-2.833953">
        <ele>83.4</ele>
        <time>1970-01-01T00:14:06.000Z</time>
      </trkpt>
      <trkpt lat="43.26858" lon="-2.833923">
        <ele>83.4</ele>
        <time>1970-01-01T00:14:07.000Z</time>
      </trkpt>
      <trkpt lat="43.26857" lon="-2.833895">
        <ele>83.4</ele>
        <time>1970-01-01T00:14:08.000Z</time>
      </trkpt>
      <trkpt lat="43.268555" lon="-2.833863">
        <ele>83.4</ele>
        <time>1970-01-01T00:14:09.000Z</time>
      </trkpt>
      <trkpt lat="43.268543" lon="-2.833825">
        <ele>83</ele>
        <time>1970-01-01T00:14:10.000Z</time>
      </trkpt>
      <trkpt lat="43.268533" lon="-2.833781">
        <ele>83</ele>
        <time>1970-01-01T00:14:11.000Z</time>
      </trkpt>
      <trkpt lat="43.268521" lon="-2.833738">
        <ele>82.6</ele>
        <time>1970-01-01T00:14:12.000Z</time>
      </trkpt>
      <trkpt lat="43.268506" lon="-2.833696">
        <ele>82.6</ele>
        <time>1970-01-01T00:14:13.000Z</time>
      </trkpt>
      <trkpt lat="43.268491" lon="-2.833656">
        <ele>82.6</ele>
        <time>1970-01-01T00:14:14.000Z</time>
      </trkpt>
      <trkpt lat="43.268476" lon="-2.833615">
        <ele>82.2</ele>
        <time>1970-01-01T00:14:15.000Z</time>
      </trkpt>
      <trkpt lat="43.26846" lon="-2.833575">
        <ele>82.2</ele>
        <time>1970-01-01T00:14:16.000Z</time>
      </trkpt>
      <trkpt lat="43.268443" lon="-2.833535">
        <ele>82.2</ele>
        <time>1970-01-01T00:14:17.000Z</time>
      </trkpt>
      <trkpt lat="43.268425" lon="-2.833496">
        <ele>82.2</ele>
        <time>1970-01-01T00:14:18.000Z</time>
      </trkpt>
      <trkpt lat="43.268405" lon="-2.83346">
        <ele>82.2</ele>
        <time>1970-01-01T00:14:19.000Z</time>
      </trkpt>
      <trkpt lat="43.268386" lon="-2.833423">
        <ele>82.2</ele>
        <time>1970-01-01T00:14:20.000Z</time>
      </trkpt>
      <trkpt lat="43.268368" lon="-2.833386">
        <ele>82.2</ele>
        <time>1970-01-01T00:14:21.000Z</time>
      </trkpt>
      <trkpt lat="43.268348" lon="-2.833351">
        <ele>82</ele>
        <time>1970-01-01T00:14:22.000Z</time>
      </trkpt>
      <trkpt lat="43.268326" lon="-2.833318">
        <ele>82</ele>
        <time>1970-01-01T00:14:23.000Z</time>
      </trkpt>
      <trkpt lat="43.268305" lon="-2.833285">
        <ele>82</ele>
        <time>1970-01-01T00:14:24.000Z</time>
      </trkpt>
      <trkpt lat="43.268281" lon="-2.833255">
        <ele>82</ele>
        <time>1970-01-01T00:14:25.000Z</time>
      </trkpt>
      <trkpt lat="43.268263" lon="-2.833226">
        <ele>82.2</ele>
        <time>1970-01-01T00:14:26.000Z</time>
      </trkpt>
      <trkpt lat="43.268246" lon="-2.833201">
        <ele>82.2</ele>
        <time>1970-01-01T00:14:27.000Z</time>
      </trkpt>
      <trkpt lat="43.268237" lon="-2.833188">
        <ele>82.2</ele>
        <time>1970-01-01T00:14:28.000Z</time>
      </trkpt>
      <trkpt lat="43.268243" lon="-2.833193">
        <ele>82.4</ele>
        <time>1970-01-01T00:14:29.000Z</time>
      </trkpt>
      <trkpt lat="43.268249" lon="-2.833198">
        <ele>82.4</ele>
        <time>1970-01-01T00:16:00.000Z</time>
      </trkpt>
      <trkpt lat="43.268255" lon="-2.833203">
        <ele>81.8</ele>
        <time>1970-01-01T00:16:01.000Z</time>
      </trkpt>
      <trkpt lat="43.268283" lon="-2.833251">
        <ele>81.8</ele>
        <time>1970-01-01T00:16:02.000Z</time>
      </trkpt>
      <trkpt lat="43.268315" lon="-2.8333">
        <ele>81.8</ele>
        <time>1970-01-01T00:16:03.000Z</time>
      </trkpt>
      <trkpt lat="43.268348" lon="-2.833348">
        <ele>81.8</ele>
        <time>1970-01-01T00:16:04.000Z</time>
      </trkpt>
      <trkpt lat="43.26838" lon="-2.833401">
        <ele>81.8</ele>
        <time>1970-01-01T00:16:05.000Z</time>
      </trkpt>
      <trkpt lat="43.268411" lon="-2.833461">
        <ele>81.8</ele>
        <time>1970-01-01T00:16:06.000Z</time>
      </trkpt>
      <trkpt lat="43.268438" lon="-2.833523">
        <ele>81.8</ele>
        <time>1970-01-01T00:16:07.000Z</time>
      </trkpt>
      <trkpt lat="43.268465" lon="-2.833586">
        <ele>81.8</ele>
        <time>1970-01-01T00:16:08.000Z</time>
      </trkpt>
      <trkpt lat="43.268488" lon="-2.833651">
        <ele>81.8</ele>
        <time>1970-01-01T00:16:09.000Z</time>
      </trkpt>
      <trkpt lat="43.268506" lon="-2.833718">
        <ele>81.8</ele>
        <time>1970-01-01T00:16:10.000Z</time>
      </trkpt>
      <trkpt lat="43.26853" lon="-2.833781">
        <ele>81.8</ele>
        <time>1970-01-01T00:16:11.000Z</time>
      </trkpt>
      <trkpt lat="43.26855" lon="-2.833843">
        <ele>82.8</ele>
        <time>1970-01-01T00:16:12.000Z</time>
      </trkpt>
      <trkpt lat="43.268568" lon="-2.833901">
        <ele>82.8</ele>
        <time>1970-01-01T00:16:13.000Z</time>
      </trkpt>
      <trkpt lat="43.268586" lon="-2.833951">
        <ele>82.8</ele>
        <time>1970-01-01T00:16:14.000Z</time>
      </trkpt>
      <trkpt lat="43.268605" lon="-2.833991">
        <ele>82.4</ele>
        <time>1970-01-01T00:16:15.000Z</time>
      </trkpt>
      <trkpt lat="43.268635" lon="-2.834013">
        <ele>82.4</ele>
        <time>1970-01-01T00:16:16.000Z</time>
      </trkpt>
      <trkpt lat="43.268676" lon="-2.834021">
        <ele>83.2</ele>
        <time>1970-01-01T00:16:17.000Z</time>
      </trkpt>
      <trkpt lat="43.268723" lon="-2.834025">
        <ele>83.2</ele>
        <time>1970-01-01T00:16:18.000Z</time>
      </trkpt>
      <trkpt lat="43.268775" lon="-2.834028">
        <ele>83.2</ele>
        <time>1970-01-01T00:16:19.000Z</time>
      </trkpt>
      <trkpt lat="43.268828" lon="-2.834033">
        <ele>83.2</ele>
        <time>1970-01-01T00:16:20.000Z</time>
      </trkpt>
      <trkpt lat="43.268888" lon="-2.834038">
        <ele>83.2</ele>
        <time>1970-01-01T00:16:21.000Z</time>
      </trkpt>
      <trkpt lat="43.26895" lon="-2.834043">
        <ele>81.4</ele>
        <time>1970-01-01T00:16:22.000Z</time>
      </trkpt>
      <trkpt lat="43.269015" lon="-2.834048">
        <ele>81.4</ele>
        <time>1970-01-01T00:16:23.000Z</time>
      </trkpt>
      <trkpt lat="43.269081" lon="-2.834048">
        <ele>80.4</ele>
        <time>1970-01-01T00:16:24.000Z</time>
      </trkpt>
      <trkpt lat="43.26915" lon="-2.834055">
        <ele>80.4</ele>
        <time>1970-01-01T00:16:25.000Z</time>
      </trkpt>
      <trkpt lat="43.269221" lon="-2.834056">
        <ele>80</ele>
        <time>1970-01-01T00:16:26.000Z</time>
      </trkpt>
      <trkpt lat="43.269293" lon="-2.834056">
        <ele>80</ele>
        <time>1970-01-01T00:16:27.000Z</time>
      </trkpt>
      <trkpt lat="43.269368" lon="-2.834056">
        <ele>80</ele>
        <time>1970-01-01T00:16:28.000Z</time>
      </trkpt>
      <trkpt lat="43.269443" lon="-2.834058">
        <ele>78.4</ele>
        <time>1970-01-01T00:16:29.000Z</time>
      </trkpt>
      <trkpt lat="43.269521" lon="-2.83406">
        <ele>78.4</ele>
        <time>1970-01-01T00:16:30.000Z</time>
      </trkpt>
      <trkpt lat="43.269601" lon="-2.834061">
        <ele>78.4</ele>
        <time>1970-01-01T00:16:31.000Z</time>
      </trkpt>
      <trkpt lat="43.269685" lon="-2.83406">
        <ele>78.4</ele>
        <time>1970-01-01T00:16:32.000Z</time>
      </trkpt>
      <trkpt lat="43.269766" lon="-2.834056">
        <ele>75.8</ele>
        <time>1970-01-01T00:16:33.000Z</time>
      </trkpt>
      <trkpt lat="43.269853" lon="-2.834058">
        <ele>75.8</ele>
        <time>1970-01-01T00:16:34.000Z</time>
      </trkpt>
      <trkpt lat="43.26994" lon="-2.834061">
        <ele>75.8</ele>
        <time>1970-01-01T00:16:35.000Z</time>
      </trkpt>
      <trkpt lat="43.270026" lon="-2.834076">
        <ele>74.8</ele>
        <time>1970-01-01T00:16:36.000Z</time>
      </trkpt>
      <trkpt lat="43.270121" lon="-2.834093">
        <ele>74.8</ele>
        <time>1970-01-01T00:16:37.000Z</time>
      </trkpt>
      <trkpt lat="43.270218" lon="-2.834121">
        <ele>73</ele>
        <time>1970-01-01T00:16:38.000Z</time>
      </trkpt>
      <trkpt lat="43.270315" lon="-2.834156">
        <ele>73</ele>
        <time>1970-01-01T00:16:39.000Z</time>
      </trkpt>
      <trkpt lat="43.270408" lon="-2.83419">
        <ele>73</ele>
        <time>1970-01-01T00:16:40.000Z</time>
      </trkpt>
      <trkpt lat="43.2705" lon="-2.834221">
        <ele>73</ele>
        <time>1970-01-01T00:16:41.000Z</time>
      </trkpt>
      <trkpt lat="43.27059" lon="-2.834246">
        <ele>73</ele>
        <time>1970-01-01T00:16:42.000Z</time>
      </trkpt>
      <trkpt lat="43.270675" lon="-2.834275">
        <ele>70.8</ele>
        <time>1970-01-01T00:16:43.000Z</time>
      </trkpt>
      <trkpt lat="43.270763" lon="-2.834305">
        <ele>70.8</ele>
        <time>1970-01-01T00:16:44.000Z</time>
      </trkpt>
      <trkpt lat="43.270848" lon="-2.834338">
        <ele>70.6</ele>
        <time>1970-01-01T00:16:45.000Z</time>
      </trkpt>
      <trkpt lat="43.270933" lon="-2.834375">
        <ele>70.6</ele>
        <time>1970-01-01T00:16:46.000Z</time>
      </trkpt>
      <trkpt lat="43.271016" lon="-2.834411">
        <ele>70.6</ele>
        <time>1970-01-01T00:16:47.000Z</time>
      </trkpt>
      <trkpt lat="43.271101" lon="-2.834448">
        <ele>70.6</ele>
        <time>1970-01-01T00:16:48.000Z</time>
      </trkpt>
      <trkpt lat="43.271186" lon="-2.834481">
        <ele>70.6</ele>
        <time>1970-01-01T00:16:49.000Z</time>
      </trkpt>
      <trkpt lat="43.271273" lon="-2.834518">
        <ele>70.4</ele>
        <time>1970-01-01T00:16:50.000Z</time>
      </trkpt>
      <trkpt lat="43.27136" lon="-2.834555">
        <ele>70.4</ele>
        <time>1970-01-01T00:16:51.000Z</time>
      </trkpt>
      <trkpt lat="43.271448" lon="-2.834591">
        <ele>69.4</ele>
        <time>1970-01-01T00:16:52.000Z</time>
      </trkpt>
      <trkpt lat="43.271535" lon="-2.83463">
        <ele>69.4</ele>
        <time>1970-01-01T00:16:53.000Z</time>
      </trkpt>
      <trkpt lat="43.27162" lon="-2.834671">
        <ele>69</ele>
        <time>1970-01-01T00:16:54.000Z</time>
      </trkpt>
      <trkpt lat="43.271703" lon="-2.834708">
        <ele>69</ele>
        <time>1970-01-01T00:16:55.000Z</time>
      </trkpt>
      <trkpt lat="43.271786" lon="-2.834745">
        <ele>69</ele>
        <time>1970-01-01T00:16:56.000Z</time>
      </trkpt>
      <trkpt lat="43.27187" lon="-2.834781">
        <ele>67.4</ele>
        <time>1970-01-01T00:16:57.000Z</time>
      </trkpt>
      <trkpt lat="43.271953" lon="-2.834816">
        <ele>67.4</ele>
        <time>1970-01-01T00:16:58.000Z</time>
      </trkpt>
      <trkpt lat="43.272036" lon="-2.834846">
        <ele>67.4</ele>
        <time>1970-01-01T00:16:59.000Z</time>
      </trkpt>
      <trkpt lat="43.272118" lon="-2.83488">
        <ele>67.4</ele>
        <time>1970-01-01T00:17:00.000Z</time>
      </trkpt>
      <trkpt lat="43.272198" lon="-2.83491">
        <ele>67</ele>
        <time>1970-01-01T00:17:01.000Z</time>
      </trkpt>
      <trkpt lat="43.272278" lon="-2.83494">
        <ele>67</ele>
        <time>1970-01-01T00:17:02.000Z</time>
      </trkpt>
      <trkpt lat="43.272356" lon="-2.834973">
        <ele>67</ele>
        <time>1970-01-01T00:17:03.000Z</time>
      </trkpt>
      <trkpt lat="43.272433" lon="-2.835003">
        <ele>67</ele>
        <time>1970-01-01T00:17:04.000Z</time>
      </trkpt>
      <trkpt lat="43.27251" lon="-2.835033">
        <ele>67</ele>
        <time>1970-01-01T00:17:05.000Z</time>
      </trkpt>
      <trkpt lat="43.272585" lon="-2.83506">
        <ele>67.4</ele>
        <time>1970-01-01T00:17:06.000Z</time>
      </trkpt>
      <trkpt lat="43.272656" lon="-2.835085">
        <ele>67.4</ele>
        <time>1970-01-01T00:17:07.000Z</time>
      </trkpt>
      <trkpt lat="43.272728" lon="-2.835113">
        <ele>67.4</ele>
        <time>1970-01-01T00:17:08.000Z</time>
      </trkpt>
      <trkpt lat="43.272803" lon="-2.835138">
        <ele>67.4</ele>
        <time>1970-01-01T00:17:09.000Z</time>
      </trkpt>
      <trkpt lat="43.272878" lon="-2.835163">
        <ele>67.4</ele>
        <time>1970-01-01T00:17:10.000Z</time>
      </trkpt>
      <trkpt lat="43.272953" lon="-2.835186">
        <ele>66.4</ele>
        <time>1970-01-01T00:17:11.000Z</time>
      </trkpt>
      <trkpt lat="43.273023" lon="-2.83521">
        <ele>66.4</ele>
        <time>1970-01-01T00:17:12.000Z</time>
      </trkpt>
      <trkpt lat="43.273091" lon="-2.835238">
        <ele>67.6</ele>
        <time>1970-01-01T00:17:13.000Z</time>
      </trkpt>
      <trkpt lat="43.273161" lon="-2.835261">
        <ele>67.6</ele>
        <time>1970-01-01T00:17:14.000Z</time>
      </trkpt>
      <trkpt lat="43.27323" lon="-2.83528">
        <ele>67.6</ele>
        <time>1970-01-01T00:17:15.000Z</time>
      </trkpt>
      <trkpt lat="43.273303" lon="-2.835291">
        <ele>67.6</ele>
        <time>1970-01-01T00:17:16.000Z</time>
      </trkpt>
      <trkpt lat="43.273378" lon="-2.835295">
        <ele>67.6</ele>
        <time>1970-01-01T00:17:17.000Z</time>
      </trkpt>
      <trkpt lat="43.273458" lon="-2.835293">
        <ele>65.4</ele>
        <time>1970-01-01T00:17:18.000Z</time>
      </trkpt>
      <trkpt lat="43.27354" lon="-2.835286">
        <ele>65.4</ele>
        <time>1970-01-01T00:17:19.000Z</time>
      </trkpt>
      <trkpt lat="43.273623" lon="-2.835278">
        <ele>65.4</ele>
        <time>1970-01-01T00:17:20.000Z</time>
      </trkpt>
      <trkpt lat="43.273708" lon="-2.835268">
        <ele>65.4</ele>
        <time>1970-01-01T00:17:21.000Z</time>
      </trkpt>
      <trkpt lat="43.273793" lon="-2.835243">
        <ele>64.2</ele>
        <time>1970-01-01T00:17:22.000Z</time>
      </trkpt>
      <trkpt lat="43.273876" lon="-2.835205">
        <ele>64.2</ele>
        <time>1970-01-01T00:17:23.000Z</time>
      </trkpt>
      <trkpt lat="43.273965" lon="-2.835161">
        <ele>64.2</ele>
        <time>1970-01-01T00:17:24.000Z</time>
      </trkpt>
      <trkpt lat="43.274046" lon="-2.83512">
        <ele>60.8</ele>
        <time>1970-01-01T00:17:25.000Z</time>
      </trkpt>
      <trkpt lat="43.274125" lon="-2.83511">
        <ele>60.8</ele>
        <time>1970-01-01T00:17:26.000Z</time>
      </trkpt>
      <trkpt lat="43.274198" lon="-2.835133">
        <ele>60.8</ele>
        <time>1970-01-01T00:17:27.000Z</time>
      </trkpt>
      <trkpt lat="43.274265" lon="-2.835183">
        <ele>60.8</ele>
        <time>1970-01-01T00:17:28.000Z</time>
      </trkpt>
      <trkpt lat="43.27433" lon="-2.835241">
        <ele>59</ele>
        <time>1970-01-01T00:17:29.000Z</time>
      </trkpt>
      <trkpt lat="43.274396" lon="-2.835281">
        <ele>59</ele>
        <time>1970-01-01T00:17:30.000Z</time>
      </trkpt>
      <trkpt lat="43.274465" lon="-2.835283">
        <ele>59</ele>
        <time>1970-01-01T00:17:31.000Z</time>
      </trkpt>
      <trkpt lat="43.274531" lon="-2.835288">
        <ele>58.8</ele>
        <time>1970-01-01T00:17:32.000Z</time>
      </trkpt>
      <trkpt lat="43.274586" lon="-2.83533">
        <ele>58.8</ele>
        <time>1970-01-01T00:17:33.000Z</time>
      </trkpt>
      <trkpt lat="43.27462" lon="-2.835403">
        <ele>58.6</ele>
        <time>1970-01-01T00:17:34.000Z</time>
      </trkpt>
      <trkpt lat="43.274633" lon="-2.835485">
        <ele>58.6</ele>
        <time>1970-01-01T00:17:35.000Z</time>
      </trkpt>
      <trkpt lat="43.274645" lon="-2.835576">
        <ele>57.6</ele>
        <time>1970-01-01T00:17:36.000Z</time>
      </trkpt>
      <trkpt lat="43.274668" lon="-2.835671">
        <ele>57.6</ele>
        <time>1970-01-01T00:17:37.000Z</time>
      </trkpt>
      <trkpt lat="43.274696" lon="-2.835766">
        <ele>57.6</ele>
        <time>1970-01-01T00:17:38.000Z</time>
      </trkpt>
      <trkpt lat="43.274728" lon="-2.835865">
        <ele>57.4</ele>
        <time>1970-01-01T00:17:39.000Z</time>
      </trkpt>
      <trkpt lat="43.274758" lon="-2.835971">
        <ele>57.4</ele>
        <time>1970-01-01T00:17:40.000Z</time>
      </trkpt>
      <trkpt lat="43.274791" lon="-2.836078">
        <ele>57.8</ele>
        <time>1970-01-01T00:17:41.000Z</time>
      </trkpt>
      <trkpt lat="43.274823" lon="-2.836185">
        <ele>57.8</ele>
        <time>1970-01-01T00:17:42.000Z</time>
      </trkpt>
      <trkpt lat="43.274856" lon="-2.836291">
        <ele>57.8</ele>
        <time>1970-01-01T00:17:43.000Z</time>
      </trkpt>
      <trkpt lat="43.274888" lon="-2.8364">
        <ele>57.8</ele>
        <time>1970-01-01T00:17:44.000Z</time>
      </trkpt>
      <trkpt lat="43.27492" lon="-2.836508">
        <ele>57.8</ele>
        <time>1970-01-01T00:17:45.000Z</time>
      </trkpt>
      <trkpt lat="43.274951" lon="-2.836618">
        <ele>56.2</ele>
        <time>1970-01-01T00:17:46.000Z</time>
      </trkpt>
      <trkpt lat="43.274983" lon="-2.836726">
        <ele>56.2</ele>
        <time>1970-01-01T00:17:47.000Z</time>
      </trkpt>
      <trkpt lat="43.275015" lon="-2.836836">
        <ele>56.2</ele>
        <time>1970-01-01T00:17:48.000Z</time>
      </trkpt>
      <trkpt lat="43.275045" lon="-2.836945">
        <ele>56.2</ele>
        <time>1970-01-01T00:17:49.000Z</time>
      </trkpt>
      <trkpt lat="43.275078" lon="-2.837053">
        <ele>55.8</ele>
        <time>1970-01-01T00:17:50.000Z</time>
      </trkpt>
      <trkpt lat="43.27511" lon="-2.837161">
        <ele>55.8</ele>
        <time>1970-01-01T00:17:51.000Z</time>
      </trkpt>
      <trkpt lat="43.275141" lon="-2.83727">
        <ele>55.8</ele>
        <time>1970-01-01T00:17:52.000Z</time>
      </trkpt>
      <trkpt lat="43.275173" lon="-2.837376">
        <ele>54.8</ele>
        <time>1970-01-01T00:17:53.000Z</time>
      </trkpt>
      <trkpt lat="43.275205" lon="-2.837486">
        <ele>54.8</ele>
        <time>1970-01-01T00:17:54.000Z</time>
      </trkpt>
      <trkpt lat="43.275235" lon="-2.837596">
        <ele>54.8</ele>
        <time>1970-01-01T00:17:55.000Z</time>
      </trkpt>
      <trkpt lat="43.275265" lon="-2.837706">
        <ele>54.8</ele>
        <time>1970-01-01T00:17:56.000Z</time>
      </trkpt>
      <trkpt lat="43.275293" lon="-2.837816">
        <ele>54.6</ele>
        <time>1970-01-01T00:17:57.000Z</time>
      </trkpt>
      <trkpt lat="43.275323" lon="-2.837926">
        <ele>54.6</ele>
        <time>1970-01-01T00:17:58.000Z</time>
      </trkpt>
      <trkpt lat="43.275351" lon="-2.838036">
        <ele>54.6</ele>
        <time>1970-01-01T00:17:59.000Z</time>
      </trkpt>
      <trkpt lat="43.275383" lon="-2.838143">
        <ele>53.6</ele>
        <time>1970-01-01T00:18:00.000Z</time>
      </trkpt>
      <trkpt lat="43.275413" lon="-2.838253">
        <ele>53.6</ele>
        <time>1970-01-01T00:18:01.000Z</time>
      </trkpt>
      <trkpt lat="43.275436" lon="-2.838365">
        <ele>53.2</ele>
        <time>1970-01-01T00:18:02.000Z</time>
      </trkpt>
      <trkpt lat="43.275461" lon="-2.83848">
        <ele>53.2</ele>
        <time>1970-01-01T00:18:03.000Z</time>
      </trkpt>
      <trkpt lat="43.275486" lon="-2.838595">
        <ele>53.2</ele>
        <time>1970-01-01T00:18:04.000Z</time>
      </trkpt>
      <trkpt lat="43.27551" lon="-2.838711">
        <ele>53.2</ele>
        <time>1970-01-01T00:18:05.000Z</time>
      </trkpt>
      <trkpt lat="43.275533" lon="-2.838826">
        <ele>53.2</ele>
        <time>1970-01-01T00:18:06.000Z</time>
      </trkpt>
      <trkpt lat="43.275556" lon="-2.838945">
        <ele>52</ele>
        <time>1970-01-01T00:18:07.000Z</time>
      </trkpt>
      <trkpt lat="43.275578" lon="-2.839061">
        <ele>52</ele>
        <time>1970-01-01T00:18:08.000Z</time>
      </trkpt>
      <trkpt lat="43.275598" lon="-2.83918">
        <ele>51.4</ele>
        <time>1970-01-01T00:18:09.000Z</time>
      </trkpt>
      <trkpt lat="43.275616" lon="-2.839301">
        <ele>51.4</ele>
        <time>1970-01-01T00:18:10.000Z</time>
      </trkpt>
      <trkpt lat="43.275635" lon="-2.839423">
        <ele>51.4</ele>
        <time>1970-01-01T00:18:11.000Z</time>
      </trkpt>
      <trkpt lat="43.27565" lon="-2.839543">
        <ele>51.4</ele>
        <time>1970-01-01T00:18:12.000Z</time>
      </trkpt>
      <trkpt lat="43.275666" lon="-2.839661">
        <ele>51.4</ele>
        <time>1970-01-01T00:18:13.000Z</time>
      </trkpt>
      <trkpt lat="43.275681" lon="-2.839783">
        <ele>50.8</ele>
        <time>1970-01-01T00:18:14.000Z</time>
      </trkpt>
      <trkpt lat="43.275696" lon="-2.839901">
        <ele>50.8</ele>
        <time>1970-01-01T00:18:15.000Z</time>
      </trkpt>
      <trkpt lat="43.275711" lon="-2.840021">
        <ele>50</ele>
        <time>1970-01-01T00:18:16.000Z</time>
      </trkpt>
      <trkpt lat="43.275726" lon="-2.840145">
        <ele>50</ele>
        <time>1970-01-01T00:18:17.000Z</time>
      </trkpt>
      <trkpt lat="43.275738" lon="-2.840268">
        <ele>50</ele>
        <time>1970-01-01T00:18:18.000Z</time>
      </trkpt>
      <trkpt lat="43.27575" lon="-2.840391">
        <ele>50</ele>
        <time>1970-01-01T00:18:19.000Z</time>
      </trkpt>
      <trkpt lat="43.275761" lon="-2.840516">
        <ele>50</ele>
        <time>1970-01-01T00:18:20.000Z</time>
      </trkpt>
      <trkpt lat="43.275773" lon="-2.84064">
        <ele>49.2</ele>
        <time>1970-01-01T00:18:21.000Z</time>
      </trkpt>
      <trkpt lat="43.275785" lon="-2.840763">
        <ele>49.2</ele>
        <time>1970-01-01T00:18:22.000Z</time>
      </trkpt>
      <trkpt lat="43.275795" lon="-2.840885">
        <ele>49.2</ele>
        <time>1970-01-01T00:18:23.000Z</time>
      </trkpt>
      <trkpt lat="43.275803" lon="-2.841006">
        <ele>49.2</ele>
        <time>1970-01-01T00:18:24.000Z</time>
      </trkpt>
      <trkpt lat="43.275813" lon="-2.841125">
        <ele>48.8</ele>
        <time>1970-01-01T00:18:25.000Z</time>
      </trkpt>
      <trkpt lat="43.275821" lon="-2.841246">
        <ele>48.8</ele>
        <time>1970-01-01T00:18:26.000Z</time>
      </trkpt>
      <trkpt lat="43.27583" lon="-2.841368">
        <ele>48.8</ele>
        <time>1970-01-01T00:18:27.000Z</time>
      </trkpt>
      <trkpt lat="43.275836" lon="-2.841488">
        <ele>48.8</ele>
        <time>1970-01-01T00:18:28.000Z</time>
      </trkpt>
      <trkpt lat="43.275846" lon="-2.84161">
        <ele>48.8</ele>
        <time>1970-01-01T00:18:29.000Z</time>
      </trkpt>
      <trkpt lat="43.275855" lon="-2.84173">
        <ele>48.4</ele>
        <time>1970-01-01T00:18:30.000Z</time>
      </trkpt>
      <trkpt lat="43.275863" lon="-2.84185">
        <ele>48.4</ele>
        <time>1970-01-01T00:18:31.000Z</time>
      </trkpt>
      <trkpt lat="43.27587" lon="-2.84197">
        <ele>48.4</ele>
        <time>1970-01-01T00:18:32.000Z</time>
      </trkpt>
      <trkpt lat="43.275876" lon="-2.842093">
        <ele>48.4</ele>
        <time>1970-01-01T00:18:33.000Z</time>
      </trkpt>
      <trkpt lat="43.275883" lon="-2.842215">
        <ele>48.4</ele>
        <time>1970-01-01T00:18:34.000Z</time>
      </trkpt>
      <trkpt lat="43.27589" lon="-2.842336">
        <ele>47.8</ele>
        <time>1970-01-01T00:18:35.000Z</time>
      </trkpt>
      <trkpt lat="43.275896" lon="-2.842458">
        <ele>47.8</ele>
        <time>1970-01-01T00:18:36.000Z</time>
      </trkpt>
      <trkpt lat="43.275903" lon="-2.84258">
        <ele>47.4</ele>
        <time>1970-01-01T00:18:37.000Z</time>
      </trkpt>
      <trkpt lat="43.275911" lon="-2.8427">
        <ele>47.4</ele>
        <time>1970-01-01T00:18:38.000Z</time>
      </trkpt>
      <trkpt lat="43.275923" lon="-2.842816">
        <ele>47.4</ele>
        <time>1970-01-01T00:18:39.000Z</time>
      </trkpt>
      <trkpt lat="43.27594" lon="-2.842935">
        <ele>47.4</ele>
        <time>1970-01-01T00:18:40.000Z</time>
      </trkpt>
      <trkpt lat="43.275956" lon="-2.843055">
        <ele>47.4</ele>
        <time>1970-01-01T00:18:41.000Z</time>
      </trkpt>
      <trkpt lat="43.275976" lon="-2.843175">
        <ele>46.8</ele>
        <time>1970-01-01T00:18:42.000Z</time>
      </trkpt>
      <trkpt lat="43.276" lon="-2.843293">
        <ele>46.8</ele>
        <time>1970-01-01T00:18:43.000Z</time>
      </trkpt>
      <trkpt lat="43.276026" lon="-2.843408">
        <ele>46.8</ele>
        <time>1970-01-01T00:18:44.000Z</time>
      </trkpt>
      <trkpt lat="43.276055" lon="-2.843521">
        <ele>46.8</ele>
        <time>1970-01-01T00:18:45.000Z</time>
      </trkpt>
      <trkpt lat="43.276085" lon="-2.843631">
        <ele>46.4</ele>
        <time>1970-01-01T00:18:46.000Z</time>
      </trkpt>
      <trkpt lat="43.276115" lon="-2.843741">
        <ele>46.4</ele>
        <time>1970-01-01T00:18:47.000Z</time>
      </trkpt>
      <trkpt lat="43.27616" lon="-2.843841">
        <ele>45.6</ele>
        <time>1970-01-01T00:18:48.000Z</time>
      </trkpt>
      <trkpt lat="43.276221" lon="-2.843921">
        <ele>45.6</ele>
        <time>1970-01-01T00:18:49.000Z</time>
      </trkpt>
      <trkpt lat="43.276293" lon="-2.843986">
        <ele>46</ele>
        <time>1970-01-01T00:18:50.000Z</time>
      </trkpt>
      <trkpt lat="43.276351" lon="-2.84407">
        <ele>46</ele>
        <time>1970-01-01T00:18:51.000Z</time>
      </trkpt>
      <trkpt lat="43.276378" lon="-2.844178">
        <ele>46</ele>
        <time>1970-01-01T00:18:52.000Z</time>
      </trkpt>
      <trkpt lat="43.276376" lon="-2.844288">
        <ele>46</ele>
        <time>1970-01-01T00:18:53.000Z</time>
      </trkpt>
      <trkpt lat="43.276361" lon="-2.844393">
        <ele>46</ele>
        <time>1970-01-01T00:18:54.000Z</time>
      </trkpt>
      <trkpt lat="43.276356" lon="-2.8445">
        <ele>46</ele>
        <time>1970-01-01T00:18:55.000Z</time>
      </trkpt>
      <trkpt lat="43.276371" lon="-2.844608">
        <ele>46</ele>
        <time>1970-01-01T00:18:56.000Z</time>
      </trkpt>
      <trkpt lat="43.276403" lon="-2.84471">
        <ele>46</ele>
        <time>1970-01-01T00:18:57.000Z</time>
      </trkpt>
      <trkpt lat="43.276436" lon="-2.844811">
        <ele>45.8</ele>
        <time>1970-01-01T00:18:58.000Z</time>
      </trkpt>
      <trkpt lat="43.27647" lon="-2.844908">
        <ele>45.8</ele>
        <time>1970-01-01T00:18:59.000Z</time>
      </trkpt>
      <trkpt lat="43.276501" lon="-2.845008">
        <ele>45.8</ele>
        <time>1970-01-01T00:19:00.000Z</time>
      </trkpt>
      <trkpt lat="43.276536" lon="-2.84511">
        <ele>45.8</ele>
        <time>1970-01-01T00:19:01.000Z</time>
      </trkpt>
      <trkpt lat="43.276568" lon="-2.845213">
        <ele>46.6</ele>
        <time>1970-01-01T00:19:02.000Z</time>
      </trkpt>
      <trkpt lat="43.276601" lon="-2.845316">
        <ele>46.6</ele>
        <time>1970-01-01T00:19:03.000Z</time>
      </trkpt>
      <trkpt lat="43.276631" lon="-2.84542">
        <ele>46</ele>
        <time>1970-01-01T00:19:04.000Z</time>
      </trkpt>
      <trkpt lat="43.276665" lon="-2.84552">
        <ele>46</ele>
        <time>1970-01-01T00:19:05.000Z</time>
      </trkpt>
      <trkpt lat="43.276698" lon="-2.845621">
        <ele>46</ele>
        <time>1970-01-01T00:19:06.000Z</time>
      </trkpt>
      <trkpt lat="43.276733" lon="-2.84572">
        <ele>46</ele>
        <time>1970-01-01T00:19:07.000Z</time>
      </trkpt>
      <trkpt lat="43.276768" lon="-2.84582">
        <ele>46</ele>
        <time>1970-01-01T00:19:08.000Z</time>
      </trkpt>
      <trkpt lat="43.276803" lon="-2.845918">
        <ele>46</ele>
        <time>1970-01-01T00:19:09.000Z</time>
      </trkpt>
      <trkpt lat="43.276841" lon="-2.846015">
        <ele>45.6</ele>
        <time>1970-01-01T00:19:10.000Z</time>
      </trkpt>
      <trkpt lat="43.276881" lon="-2.846113">
        <ele>45.6</ele>
        <time>1970-01-01T00:19:11.000Z</time>
      </trkpt>
      <trkpt lat="43.276921" lon="-2.846208">
        <ele>45.6</ele>
        <time>1970-01-01T00:19:12.000Z</time>
      </trkpt>
      <trkpt lat="43.276965" lon="-2.846303">
        <ele>45.6</ele>
        <time>1970-01-01T00:19:13.000Z</time>
      </trkpt>
      <trkpt lat="43.277011" lon="-2.846396">
        <ele>46.4</ele>
        <time>1970-01-01T00:19:14.000Z</time>
      </trkpt>
      <trkpt lat="43.277056" lon="-2.846491">
        <ele>46.4</ele>
        <time>1970-01-01T00:19:15.000Z</time>
      </trkpt>
      <trkpt lat="43.277101" lon="-2.846586">
        <ele>46.4</ele>
        <time>1970-01-01T00:19:16.000Z</time>
      </trkpt>
      <trkpt lat="43.277148" lon="-2.84668">
        <ele>46.4</ele>
        <time>1970-01-01T00:19:17.000Z</time>
      </trkpt>
      <trkpt lat="43.277195" lon="-2.846773">
        <ele>46.2</ele>
        <time>1970-01-01T00:19:18.000Z</time>
      </trkpt>
      <trkpt lat="43.27724" lon="-2.846866">
        <ele>46.2</ele>
        <time>1970-01-01T00:19:19.000Z</time>
      </trkpt>
      <trkpt lat="43.277285" lon="-2.846961">
        <ele>46.2</ele>
        <time>1970-01-01T00:19:20.000Z</time>
      </trkpt>
      <trkpt lat="43.277328" lon="-2.847053">
        <ele>46.2</ele>
        <time>1970-01-01T00:19:21.000Z</time>
      </trkpt>
      <trkpt lat="43.277373" lon="-2.847145">
        <ele>45.8</ele>
        <time>1970-01-01T00:19:22.000Z</time>
      </trkpt>
      <trkpt lat="43.277418" lon="-2.847236">
        <ele>45.8</ele>
        <time>1970-01-01T00:19:23.000Z</time>
      </trkpt>
      <trkpt lat="43.277463" lon="-2.847328">
        <ele>45.6</ele>
        <time>1970-01-01T00:19:24.000Z</time>
      </trkpt>
      <trkpt lat="43.277508" lon="-2.847421">
        <ele>45.6</ele>
        <time>1970-01-01T00:19:25.000Z</time>
      </trkpt>
      <trkpt lat="43.277553" lon="-2.847513">
        <ele>44.8</ele>
        <time>1970-01-01T00:19:26.000Z</time>
      </trkpt>
      <trkpt lat="43.277596" lon="-2.847608">
        <ele>44.8</ele>
        <time>1970-01-01T00:19:27.000Z</time>
      </trkpt>
      <trkpt lat="43.277641" lon="-2.847701">
        <ele>44.8</ele>
        <time>1970-01-01T00:19:28.000Z</time>
      </trkpt>
      <trkpt lat="43.277688" lon="-2.847795">
        <ele>44.8</ele>
        <time>1970-01-01T00:19:29.000Z</time>
      </trkpt>
      <trkpt lat="43.277735" lon="-2.847888">
        <ele>44.4</ele>
        <time>1970-01-01T00:19:30.000Z</time>
      </trkpt>
      <trkpt lat="43.27778" lon="-2.847981">
        <ele>44.4</ele>
        <time>1970-01-01T00:19:31.000Z</time>
      </trkpt>
      <trkpt lat="43.277828" lon="-2.848071">
        <ele>43.8</ele>
        <time>1970-01-01T00:19:32.000Z</time>
      </trkpt>
      <trkpt lat="43.277876" lon="-2.848161">
        <ele>43.8</ele>
        <time>1970-01-01T00:19:33.000Z</time>
      </trkpt>
      <trkpt lat="43.277925" lon="-2.848253">
        <ele>43.6</ele>
        <time>1970-01-01T00:19:34.000Z</time>
      </trkpt>
      <trkpt lat="43.277971" lon="-2.848345">
        <ele>43.6</ele>
        <time>1970-01-01T00:19:35.000Z</time>
      </trkpt>
      <trkpt lat="43.278018" lon="-2.848438">
        <ele>43</ele>
        <time>1970-01-01T00:19:36.000Z</time>
      </trkpt>
      <trkpt lat="43.278066" lon="-2.848533">
        <ele>43</ele>
        <time>1970-01-01T00:19:37.000Z</time>
      </trkpt>
      <trkpt lat="43.278113" lon="-2.84863">
        <ele>42.8</ele>
        <time>1970-01-01T00:19:38.000Z</time>
      </trkpt>
      <trkpt lat="43.27816" lon="-2.848726">
        <ele>42.8</ele>
        <time>1970-01-01T00:19:39.000Z</time>
      </trkpt>
      <trkpt lat="43.278206" lon="-2.848821">
        <ele>42.8</ele>
        <time>1970-01-01T00:19:40.000Z</time>
      </trkpt>
      <trkpt lat="43.278253" lon="-2.848918">
        <ele>42.8</ele>
        <time>1970-01-01T00:19:41.000Z</time>
      </trkpt>
      <trkpt lat="43.2783" lon="-2.849016">
        <ele>42.6</ele>
        <time>1970-01-01T00:19:42.000Z</time>
      </trkpt>
      <trkpt lat="43.278345" lon="-2.849113">
        <ele>42.6</ele>
        <time>1970-01-01T00:19:43.000Z</time>
      </trkpt>
      <trkpt lat="43.27839" lon="-2.849208">
        <ele>42.6</ele>
        <time>1970-01-01T00:19:44.000Z</time>
      </trkpt>
      <trkpt lat="43.278435" lon="-2.849305">
        <ele>42.6</ele>
        <time>1970-01-01T00:19:45.000Z</time>
      </trkpt>
      <trkpt lat="43.278476" lon="-2.849403">
        <ele>42</ele>
        <time>1970-01-01T00:19:46.000Z</time>
      </trkpt>
      <trkpt lat="43.278525" lon="-2.849498">
        <ele>42</ele>
        <time>1970-01-01T00:19:47.000Z</time>
      </trkpt>
      <trkpt lat="43.278586" lon="-2.849573">
        <ele>41</ele>
        <time>1970-01-01T00:19:48.000Z</time>
      </trkpt>
      <trkpt lat="43.278648" lon="-2.849645">
        <ele>41</ele>
        <time>1970-01-01T00:19:49.000Z</time>
      </trkpt>
      <trkpt lat="43.2787" lon="-2.84972">
        <ele>41.4</ele>
        <time>1970-01-01T00:19:50.000Z</time>
      </trkpt>
      <trkpt lat="43.278726" lon="-2.849805">
        <ele>41.4</ele>
        <time>1970-01-01T00:19:51.000Z</time>
      </trkpt>
      <trkpt lat="43.278731" lon="-2.849901">
        <ele>41.4</ele>
        <time>1970-01-01T00:19:52.000Z</time>
      </trkpt>
      <trkpt lat="43.27874" lon="-2.85">
        <ele>41.4</ele>
        <time>1970-01-01T00:19:53.000Z</time>
      </trkpt>
      <trkpt lat="43.278765" lon="-2.850101">
        <ele>40.2</ele>
        <time>1970-01-01T00:19:54.000Z</time>
      </trkpt>
      <trkpt lat="43.278801" lon="-2.8502">
        <ele>40.2</ele>
        <time>1970-01-01T00:19:55.000Z</time>
      </trkpt>
      <trkpt lat="43.278843" lon="-2.850291">
        <ele>40.2</ele>
        <time>1970-01-01T00:19:56.000Z</time>
      </trkpt>
      <trkpt lat="43.278883" lon="-2.850391">
        <ele>40.2</ele>
        <time>1970-01-01T00:19:57.000Z</time>
      </trkpt>
      <trkpt lat="43.278921" lon="-2.850493">
        <ele>39.4</ele>
        <time>1970-01-01T00:19:58.000Z</time>
      </trkpt>
      <trkpt lat="43.278961" lon="-2.850595">
        <ele>39.4</ele>
        <time>1970-01-01T00:19:59.000Z</time>
      </trkpt>
      <trkpt lat="43.279003" lon="-2.850696">
        <ele>39</ele>
        <time>1970-01-01T00:20:00.000Z</time>
      </trkpt>
      <trkpt lat="43.279045" lon="-2.8508">
        <ele>39</ele>
        <time>1970-01-01T00:20:01.000Z</time>
      </trkpt>
      <trkpt lat="43.279085" lon="-2.850901">
        <ele>38.2</ele>
        <time>1970-01-01T00:20:02.000Z</time>
      </trkpt>
      <trkpt lat="43.279125" lon="-2.851003">
        <ele>38.2</ele>
        <time>1970-01-01T00:20:03.000Z</time>
      </trkpt>
      <trkpt lat="43.279165" lon="-2.851105">
        <ele>38.6</ele>
        <time>1970-01-01T00:20:04.000Z</time>
      </trkpt>
      <trkpt lat="43.279205" lon="-2.851206">
        <ele>38.6</ele>
        <time>1970-01-01T00:20:05.000Z</time>
      </trkpt>
      <trkpt lat="43.279245" lon="-2.851306">
        <ele>38.4</ele>
        <time>1970-01-01T00:20:06.000Z</time>
      </trkpt>
      <trkpt lat="43.279283" lon="-2.851403">
        <ele>38.4</ele>
        <time>1970-01-01T00:20:07.000Z</time>
      </trkpt>
      <trkpt lat="43.279325" lon="-2.851496">
        <ele>38.4</ele>
        <time>1970-01-01T00:20:08.000Z</time>
      </trkpt>
      <trkpt lat="43.279363" lon="-2.851591">
        <ele>38.4</ele>
        <time>1970-01-01T00:20:09.000Z</time>
      </trkpt>
      <trkpt lat="43.279398" lon="-2.851685">
        <ele>38.4</ele>
        <time>1970-01-01T00:20:10.000Z</time>
      </trkpt>
      <trkpt lat="43.279435" lon="-2.851778">
        <ele>38.4</ele>
        <time>1970-01-01T00:20:11.000Z</time>
      </trkpt>
      <trkpt lat="43.279471" lon="-2.85187">
        <ele>38.4</ele>
        <time>1970-01-01T00:20:12.000Z</time>
      </trkpt>
      <trkpt lat="43.27951" lon="-2.851958">
        <ele>38.4</ele>
        <time>1970-01-01T00:20:13.000Z</time>
      </trkpt>
      <trkpt lat="43.279546" lon="-2.852046">
        <ele>37.8</ele>
        <time>1970-01-01T00:20:14.000Z</time>
      </trkpt>
      <trkpt lat="43.279583" lon="-2.852131">
        <ele>37.8</ele>
        <time>1970-01-01T00:20:15.000Z</time>
      </trkpt>
      <trkpt lat="43.279618" lon="-2.852218">
        <ele>37.8</ele>
        <time>1970-01-01T00:20:16.000Z</time>
      </trkpt>
      <trkpt lat="43.279653" lon="-2.852306">
        <ele>37.8</ele>
        <time>1970-01-01T00:20:17.000Z</time>
      </trkpt>
      <trkpt lat="43.279688" lon="-2.852395">
        <ele>37.8</ele>
        <time>1970-01-01T00:20:18.000Z</time>
      </trkpt>
      <trkpt lat="43.279721" lon="-2.852483">
        <ele>37.8</ele>
        <time>1970-01-01T00:20:19.000Z</time>
      </trkpt>
      <trkpt lat="43.279755" lon="-2.852573">
        <ele>38</ele>
        <time>1970-01-01T00:20:20.000Z</time>
      </trkpt>
      <trkpt lat="43.279786" lon="-2.852663">
        <ele>38</ele>
        <time>1970-01-01T00:20:21.000Z</time>
      </trkpt>
      <trkpt lat="43.27982" lon="-2.852751">
        <ele>38.2</ele>
        <time>1970-01-01T00:20:22.000Z</time>
      </trkpt>
      <trkpt lat="43.279853" lon="-2.85284">
        <ele>38.2</ele>
        <time>1970-01-01T00:20:23.000Z</time>
      </trkpt>
      <trkpt lat="43.279888" lon="-2.852928">
        <ele>38.2</ele>
        <time>1970-01-01T00:20:24.000Z</time>
      </trkpt>
      <trkpt lat="43.279923" lon="-2.853016">
        <ele>38.2</ele>
        <time>1970-01-01T00:20:25.000Z</time>
      </trkpt>
      <trkpt lat="43.279956" lon="-2.853108">
        <ele>37.8</ele>
        <time>1970-01-01T00:20:26.000Z</time>
      </trkpt>
      <trkpt lat="43.27999" lon="-2.853198">
        <ele>37.8</ele>
        <time>1970-01-01T00:20:27.000Z</time>
      </trkpt>
      <trkpt lat="43.280026" lon="-2.853288">
        <ele>37.8</ele>
        <time>1970-01-01T00:20:28.000Z</time>
      </trkpt>
      <trkpt lat="43.280063" lon="-2.85338">
        <ele>37.8</ele>
        <time>1970-01-01T00:20:29.000Z</time>
      </trkpt>
      <trkpt lat="43.2801" lon="-2.85347">
        <ele>38</ele>
        <time>1970-01-01T00:20:30.000Z</time>
      </trkpt>
      <trkpt lat="43.280138" lon="-2.853558">
        <ele>38</ele>
        <time>1970-01-01T00:20:31.000Z</time>
      </trkpt>
      <trkpt lat="43.280173" lon="-2.85365">
        <ele>37.8</ele>
        <time>1970-01-01T00:20:32.000Z</time>
      </trkpt>
      <trkpt lat="43.280208" lon="-2.85374">
        <ele>37.8</ele>
        <time>1970-01-01T00:20:33.000Z</time>
      </trkpt>
      <trkpt lat="43.280243" lon="-2.853831">
        <ele>37.6</ele>
        <time>1970-01-01T00:20:34.000Z</time>
      </trkpt>
      <trkpt lat="43.280283" lon="-2.85392">
        <ele>37.6</ele>
        <time>1970-01-01T00:20:35.000Z</time>
      </trkpt>
      <trkpt lat="43.280323" lon="-2.854008">
        <ele>37.6</ele>
        <time>1970-01-01T00:20:36.000Z</time>
      </trkpt>
      <trkpt lat="43.28036" lon="-2.854096">
        <ele>37.6</ele>
        <time>1970-01-01T00:20:37.000Z</time>
      </trkpt>
      <trkpt lat="43.280396" lon="-2.854185">
        <ele>38.2</ele>
        <time>1970-01-01T00:20:38.000Z</time>
      </trkpt>
      <trkpt lat="43.280433" lon="-2.854271">
        <ele>38.2</ele>
        <time>1970-01-01T00:20:39.000Z</time>
      </trkpt>
      <trkpt lat="43.280466" lon="-2.85436">
        <ele>38.2</ele>
        <time>1970-01-01T00:20:40.000Z</time>
      </trkpt>
      <trkpt lat="43.280501" lon="-2.854445">
        <ele>38.2</ele>
        <time>1970-01-01T00:20:41.000Z</time>
      </trkpt>
      <trkpt lat="43.280535" lon="-2.854531">
        <ele>38.2</ele>
        <time>1970-01-01T00:20:42.000Z</time>
      </trkpt>
      <trkpt lat="43.28057" lon="-2.854615">
        <ele>38.2</ele>
        <time>1970-01-01T00:20:43.000Z</time>
      </trkpt>
      <trkpt lat="43.280605" lon="-2.8547">
        <ele>38.2</ele>
        <time>1970-01-01T00:20:44.000Z</time>
      </trkpt>
      <trkpt lat="43.280638" lon="-2.854785">
        <ele>36.6</ele>
        <time>1970-01-01T00:20:45.000Z</time>
      </trkpt>
      <trkpt lat="43.280673" lon="-2.85487">
        <ele>36.6</ele>
        <time>1970-01-01T00:20:46.000Z</time>
      </trkpt>
      <trkpt lat="43.280708" lon="-2.854955">
        <ele>36.6</ele>
        <time>1970-01-01T00:20:47.000Z</time>
      </trkpt>
      <trkpt lat="43.280741" lon="-2.855038">
        <ele>36.6</ele>
        <time>1970-01-01T00:20:48.000Z</time>
      </trkpt>
      <trkpt lat="43.280775" lon="-2.855121">
        <ele>37</ele>
        <time>1970-01-01T00:20:49.000Z</time>
      </trkpt>
      <trkpt lat="43.280806" lon="-2.8552">
        <ele>37</ele>
        <time>1970-01-01T00:20:50.000Z</time>
      </trkpt>
      <trkpt lat="43.280841" lon="-2.855276">
        <ele>37</ele>
        <time>1970-01-01T00:20:51.000Z</time>
      </trkpt>
      <trkpt lat="43.28088" lon="-2.855355">
        <ele>37</ele>
        <time>1970-01-01T00:20:52.000Z</time>
      </trkpt>
      <trkpt lat="43.280921" lon="-2.855433">
        <ele>37.2</ele>
        <time>1970-01-01T00:20:53.000Z</time>
      </trkpt>
      <trkpt lat="43.280958" lon="-2.855511">
        <ele>37.2</ele>
        <time>1970-01-01T00:20:54.000Z</time>
      </trkpt>
      <trkpt lat="43.28099" lon="-2.855593">
        <ele>37.2</ele>
        <time>1970-01-01T00:20:55.000Z</time>
      </trkpt>
      <trkpt lat="43.281016" lon="-2.855678">
        <ele>37.2</ele>
        <time>1970-01-01T00:20:56.000Z</time>
      </trkpt>
      <trkpt lat="43.281043" lon="-2.855761">
        <ele>37</ele>
        <time>1970-01-01T00:20:57.000Z</time>
      </trkpt>
      <trkpt lat="43.28107" lon="-2.855843">
        <ele>37</ele>
        <time>1970-01-01T00:20:58.000Z</time>
      </trkpt>
      <trkpt lat="43.281096" lon="-2.855921">
        <ele>37</ele>
        <time>1970-01-01T00:20:59.000Z</time>
      </trkpt>
      <trkpt lat="43.281125" lon="-2.856">
        <ele>37</ele>
        <time>1970-01-01T00:21:00.000Z</time>
      </trkpt>
      <trkpt lat="43.281153" lon="-2.856073">
        <ele>38.4</ele>
        <time>1970-01-01T00:21:01.000Z</time>
      </trkpt>
      <trkpt lat="43.281183" lon="-2.856148">
        <ele>38.4</ele>
        <time>1970-01-01T00:21:02.000Z</time>
      </trkpt>
      <trkpt lat="43.28121" lon="-2.856225">
        <ele>38.4</ele>
        <time>1970-01-01T00:21:03.000Z</time>
      </trkpt>
      <trkpt lat="43.281236" lon="-2.8563">
        <ele>38.4</ele>
        <time>1970-01-01T00:21:04.000Z</time>
      </trkpt>
      <trkpt lat="43.281263" lon="-2.856371">
        <ele>40.2</ele>
        <time>1970-01-01T00:21:05.000Z</time>
      </trkpt>
      <trkpt lat="43.281288" lon="-2.856445">
        <ele>40.2</ele>
        <time>1970-01-01T00:21:06.000Z</time>
      </trkpt>
      <trkpt lat="43.281316" lon="-2.856516">
        <ele>40.2</ele>
        <time>1970-01-01T00:21:07.000Z</time>
      </trkpt>
      <trkpt lat="43.281343" lon="-2.856588">
        <ele>40.2</ele>
        <time>1970-01-01T00:21:08.000Z</time>
      </trkpt>
      <trkpt lat="43.28137" lon="-2.856661">
        <ele>40.2</ele>
        <time>1970-01-01T00:21:09.000Z</time>
      </trkpt>
      <trkpt lat="43.281398" lon="-2.856731">
        <ele>40.2</ele>
        <time>1970-01-01T00:21:10.000Z</time>
      </trkpt>
      <trkpt lat="43.281428" lon="-2.8568">
        <ele>40.2</ele>
        <time>1970-01-01T00:21:11.000Z</time>
      </trkpt>
      <trkpt lat="43.281458" lon="-2.856871">
        <ele>38.8</ele>
        <time>1970-01-01T00:21:12.000Z</time>
      </trkpt>
      <trkpt lat="43.281488" lon="-2.856943">
        <ele>38.8</ele>
        <time>1970-01-01T00:21:13.000Z</time>
      </trkpt>
      <trkpt lat="43.281516" lon="-2.857016">
        <ele>38.8</ele>
        <time>1970-01-01T00:21:14.000Z</time>
      </trkpt>
      <trkpt lat="43.281545" lon="-2.857088">
        <ele>38.8</ele>
        <time>1970-01-01T00:21:15.000Z</time>
      </trkpt>
      <trkpt lat="43.281571" lon="-2.857161">
        <ele>39.6</ele>
        <time>1970-01-01T00:21:16.000Z</time>
      </trkpt>
      <trkpt lat="43.281601" lon="-2.857231">
        <ele>39.6</ele>
        <time>1970-01-01T00:21:17.000Z</time>
      </trkpt>
      <trkpt lat="43.281635" lon="-2.857291">
        <ele>40.2</ele>
        <time>1970-01-01T00:21:18.000Z</time>
      </trkpt>
      <trkpt lat="43.281661" lon="-2.85735">
        <ele>40.2</ele>
        <time>1970-01-01T00:21:19.000Z</time>
      </trkpt>
      <trkpt lat="43.281683" lon="-2.857403">
        <ele>40.2</ele>
        <time>1970-01-01T00:21:20.000Z</time>
      </trkpt>
      <trkpt lat="43.281705" lon="-2.857455">
        <ele>40.6</ele>
        <time>1970-01-01T00:21:21.000Z</time>
      </trkpt>
      <trkpt lat="43.281725" lon="-2.857501">
        <ele>40.6</ele>
        <time>1970-01-01T00:21:22.000Z</time>
      </trkpt>
      <trkpt lat="43.281743" lon="-2.857545">
        <ele>40.6</ele>
        <time>1970-01-01T00:21:23.000Z</time>
      </trkpt>
      <trkpt lat="43.281758" lon="-2.85759">
        <ele>40.6</ele>
        <time>1970-01-01T00:21:24.000Z</time>
      </trkpt>
      <trkpt lat="43.28178" lon="-2.857633">
        <ele>40.4</ele>
        <time>1970-01-01T00:21:25.000Z</time>
      </trkpt>
      <trkpt lat="43.2818" lon="-2.85768">
        <ele>40.4</ele>
        <time>1970-01-01T00:21:26.000Z</time>
      </trkpt>
      <trkpt lat="43.28182" lon="-2.857731">
        <ele>40.4</ele>
        <time>1970-01-01T00:21:27.000Z</time>
      </trkpt>
      <trkpt lat="43.281843" lon="-2.857785">
        <ele>40.4</ele>
        <time>1970-01-01T00:21:28.000Z</time>
      </trkpt>
      <trkpt lat="43.281868" lon="-2.857838">
        <ele>40.4</ele>
        <time>1970-01-01T00:21:29.000Z</time>
      </trkpt>
      <trkpt lat="43.28189" lon="-2.85789">
        <ele>40.8</ele>
        <time>1970-01-01T00:21:30.000Z</time>
      </trkpt>
      <trkpt lat="43.281906" lon="-2.857943">
        <ele>40.8</ele>
        <time>1970-01-01T00:21:31.000Z</time>
      </trkpt>
      <trkpt lat="43.281918" lon="-2.858">
        <ele>41.8</ele>
        <time>1970-01-01T00:21:32.000Z</time>
      </trkpt>
      <trkpt lat="43.281936" lon="-2.858055">
        <ele>41.8</ele>
        <time>1970-01-01T00:21:33.000Z</time>
      </trkpt>
      <trkpt lat="43.281956" lon="-2.858115">
        <ele>41.8</ele>
        <time>1970-01-01T00:21:34.000Z</time>
      </trkpt>
      <trkpt lat="43.281978" lon="-2.858176">
        <ele>41</ele>
        <time>1970-01-01T00:21:35.000Z</time>
      </trkpt>
      <trkpt lat="43.282" lon="-2.85824">
        <ele>41</ele>
        <time>1970-01-01T00:21:36.000Z</time>
      </trkpt>
      <trkpt lat="43.282026" lon="-2.858303">
        <ele>41</ele>
        <time>1970-01-01T00:21:37.000Z</time>
      </trkpt>
      <trkpt lat="43.282058" lon="-2.858368">
        <ele>41</ele>
        <time>1970-01-01T00:21:38.000Z</time>
      </trkpt>
      <trkpt lat="43.282091" lon="-2.85843">
        <ele>41</ele>
        <time>1970-01-01T00:21:39.000Z</time>
      </trkpt>
      <trkpt lat="43.282125" lon="-2.858495">
        <ele>41</ele>
        <time>1970-01-01T00:21:40.000Z</time>
      </trkpt>
      <trkpt lat="43.282155" lon="-2.858561">
        <ele>41</ele>
        <time>1970-01-01T00:21:41.000Z</time>
      </trkpt>
      <trkpt lat="43.282183" lon="-2.85863">
        <ele>42.8</ele>
        <time>1970-01-01T00:21:42.000Z</time>
      </trkpt>
      <trkpt lat="43.282208" lon="-2.858698">
        <ele>42.8</ele>
        <time>1970-01-01T00:21:43.000Z</time>
      </trkpt>
      <trkpt lat="43.282233" lon="-2.858766">
        <ele>42.8</ele>
        <time>1970-01-01T00:21:44.000Z</time>
      </trkpt>
      <trkpt lat="43.282258" lon="-2.858836">
        <ele>42.8</ele>
        <time>1970-01-01T00:21:45.000Z</time>
      </trkpt>
      <trkpt lat="43.282286" lon="-2.858901">
        <ele>43.8</ele>
        <time>1970-01-01T00:21:46.000Z</time>
      </trkpt>
      <trkpt lat="43.282318" lon="-2.858968">
        <ele>43.8</ele>
        <time>1970-01-01T00:21:47.000Z</time>
      </trkpt>
      <trkpt lat="43.282351" lon="-2.859036">
        <ele>43.8</ele>
        <time>1970-01-01T00:21:48.000Z</time>
      </trkpt>
      <trkpt lat="43.282383" lon="-2.859106">
        <ele>44</ele>
        <time>1970-01-01T00:21:49.000Z</time>
      </trkpt>
      <trkpt lat="43.282413" lon="-2.859176">
        <ele>44</ele>
        <time>1970-01-01T00:21:50.000Z</time>
      </trkpt>
      <trkpt lat="43.282443" lon="-2.859248">
        <ele>44</ele>
        <time>1970-01-01T00:21:51.000Z</time>
      </trkpt>
      <trkpt lat="43.282473" lon="-2.859318">
        <ele>44</ele>
        <time>1970-01-01T00:21:52.000Z</time>
      </trkpt>
      <trkpt lat="43.282503" lon="-2.859388">
        <ele>44.2</ele>
        <time>1970-01-01T00:21:53.000Z</time>
      </trkpt>
      <trkpt lat="43.282533" lon="-2.859458">
        <ele>44.2</ele>
        <time>1970-01-01T00:21:54.000Z</time>
      </trkpt>
      <trkpt lat="43.282561" lon="-2.859528">
        <ele>44.2</ele>
        <time>1970-01-01T00:21:55.000Z</time>
      </trkpt>
      <trkpt lat="43.282591" lon="-2.8596">
        <ele>44.2</ele>
        <time>1970-01-01T00:21:56.000Z</time>
      </trkpt>
      <trkpt lat="43.282621" lon="-2.85967">
        <ele>44.2</ele>
        <time>1970-01-01T00:21:57.000Z</time>
      </trkpt>
      <trkpt lat="43.28265" lon="-2.85974">
        <ele>44.8</ele>
        <time>1970-01-01T00:21:58.000Z</time>
      </trkpt>
      <trkpt lat="43.28268" lon="-2.859808">
        <ele>44.8</ele>
        <time>1970-01-01T00:21:59.000Z</time>
      </trkpt>
      <trkpt lat="43.28271" lon="-2.859876">
        <ele>44.8</ele>
        <time>1970-01-01T00:22:00.000Z</time>
      </trkpt>
      <trkpt lat="43.28274" lon="-2.859945">
        <ele>44.8</ele>
        <time>1970-01-01T00:22:01.000Z</time>
      </trkpt>
      <trkpt lat="43.28277" lon="-2.860011">
        <ele>44.8</ele>
        <time>1970-01-01T00:22:02.000Z</time>
      </trkpt>
      <trkpt lat="43.282798" lon="-2.860081">
        <ele>44.8</ele>
        <time>1970-01-01T00:22:03.000Z</time>
      </trkpt>
      <trkpt lat="43.282826" lon="-2.860153">
        <ele>44.8</ele>
        <time>1970-01-01T00:22:04.000Z</time>
      </trkpt>
      <trkpt lat="43.282855" lon="-2.860223">
        <ele>45</ele>
        <time>1970-01-01T00:22:05.000Z</time>
      </trkpt>
      <trkpt lat="43.282885" lon="-2.860293">
        <ele>45</ele>
        <time>1970-01-01T00:22:06.000Z</time>
      </trkpt>
      <trkpt lat="43.282915" lon="-2.860363">
        <ele>45</ele>
        <time>1970-01-01T00:22:07.000Z</time>
      </trkpt>
      <trkpt lat="43.282946" lon="-2.860433">
        <ele>45</ele>
        <time>1970-01-01T00:22:08.000Z</time>
      </trkpt>
      <trkpt lat="43.282976" lon="-2.860503">
        <ele>45</ele>
        <time>1970-01-01T00:22:09.000Z</time>
      </trkpt>
      <trkpt lat="43.283006" lon="-2.860576">
        <ele>45.8</ele>
        <time>1970-01-01T00:22:10.000Z</time>
      </trkpt>
      <trkpt lat="43.283036" lon="-2.860648">
        <ele>45.8</ele>
        <time>1970-01-01T00:22:11.000Z</time>
      </trkpt>
      <trkpt lat="43.283066" lon="-2.860718">
        <ele>45.6</ele>
        <time>1970-01-01T00:22:12.000Z</time>
      </trkpt>
      <trkpt lat="43.283096" lon="-2.86079">
        <ele>45.6</ele>
        <time>1970-01-01T00:22:13.000Z</time>
      </trkpt>
      <trkpt lat="43.283126" lon="-2.86086">
        <ele>45.4</ele>
        <time>1970-01-01T00:22:14.000Z</time>
      </trkpt>
      <trkpt lat="43.283155" lon="-2.860933">
        <ele>45.4</ele>
        <time>1970-01-01T00:22:15.000Z</time>
      </trkpt>
      <trkpt lat="43.283185" lon="-2.861005">
        <ele>45.4</ele>
        <time>1970-01-01T00:22:16.000Z</time>
      </trkpt>
      <trkpt lat="43.283216" lon="-2.861078">
        <ele>46.2</ele>
        <time>1970-01-01T00:22:17.000Z</time>
      </trkpt>
      <trkpt lat="43.283246" lon="-2.861148">
        <ele>46.2</ele>
        <time>1970-01-01T00:22:18.000Z</time>
      </trkpt>
      <trkpt lat="43.283278" lon="-2.861221">
        <ele>46.2</ele>
        <time>1970-01-01T00:22:19.000Z</time>
      </trkpt>
      <trkpt lat="43.28331" lon="-2.861295">
        <ele>46.2</ele>
        <time>1970-01-01T00:22:20.000Z</time>
      </trkpt>
      <trkpt lat="43.283341" lon="-2.861368">
        <ele>47</ele>
        <time>1970-01-01T00:22:21.000Z</time>
      </trkpt>
      <trkpt lat="43.28337" lon="-2.861443">
        <ele>47</ele>
        <time>1970-01-01T00:22:22.000Z</time>
      </trkpt>
      <trkpt lat="43.283401" lon="-2.861516">
        <ele>47</ele>
        <time>1970-01-01T00:22:23.000Z</time>
      </trkpt>
      <trkpt lat="43.283433" lon="-2.861588">
        <ele>47.4</ele>
        <time>1970-01-01T00:22:24.000Z</time>
      </trkpt>
      <trkpt lat="43.283465" lon="-2.861661">
        <ele>47.4</ele>
        <time>1970-01-01T00:22:25.000Z</time>
      </trkpt>
      <trkpt lat="43.283495" lon="-2.861735">
        <ele>47.4</ele>
        <time>1970-01-01T00:22:26.000Z</time>
      </trkpt>
      <trkpt lat="43.283526" lon="-2.86181">
        <ele>47.4</ele>
        <time>1970-01-01T00:22:27.000Z</time>
      </trkpt>
      <trkpt lat="43.283558" lon="-2.861883">
        <ele>47.4</ele>
        <time>1970-01-01T00:22:28.000Z</time>
      </trkpt>
      <trkpt lat="43.283588" lon="-2.861958">
        <ele>47.4</ele>
        <time>1970-01-01T00:22:29.000Z</time>
      </trkpt>
      <trkpt lat="43.283618" lon="-2.86203">
        <ele>47.4</ele>
        <time>1970-01-01T00:22:30.000Z</time>
      </trkpt>
      <trkpt lat="43.283646" lon="-2.862103">
        <ele>47.6</ele>
        <time>1970-01-01T00:22:31.000Z</time>
      </trkpt>
      <trkpt lat="43.283675" lon="-2.862176">
        <ele>47.6</ele>
        <time>1970-01-01T00:22:32.000Z</time>
      </trkpt>
      <trkpt lat="43.283705" lon="-2.862248">
        <ele>48.2</ele>
        <time>1970-01-01T00:22:33.000Z</time>
      </trkpt>
      <trkpt lat="43.283735" lon="-2.862321">
        <ele>48.2</ele>
        <time>1970-01-01T00:22:34.000Z</time>
      </trkpt>
      <trkpt lat="43.283763" lon="-2.862395">
        <ele>48.2</ele>
        <time>1970-01-01T00:22:35.000Z</time>
      </trkpt>
      <trkpt lat="43.283791" lon="-2.86247">
        <ele>48.2</ele>
        <time>1970-01-01T00:22:36.000Z</time>
      </trkpt>
      <trkpt lat="43.283821" lon="-2.862545">
        <ele>48.2</ele>
        <time>1970-01-01T00:22:37.000Z</time>
      </trkpt>
      <trkpt lat="43.283851" lon="-2.86262">
        <ele>47.6</ele>
        <time>1970-01-01T00:22:38.000Z</time>
      </trkpt>
      <trkpt lat="43.283883" lon="-2.862695">
        <ele>47.6</ele>
        <time>1970-01-01T00:22:39.000Z</time>
      </trkpt>
      <trkpt lat="43.283911" lon="-2.862768">
        <ele>48.4</ele>
        <time>1970-01-01T00:22:40.000Z</time>
      </trkpt>
      <trkpt lat="43.28394" lon="-2.862843">
        <ele>48.4</ele>
        <time>1970-01-01T00:22:41.000Z</time>
      </trkpt>
      <trkpt lat="43.283968" lon="-2.86292">
        <ele>48.4</ele>
        <time>1970-01-01T00:22:42.000Z</time>
      </trkpt>
      <trkpt lat="43.283995" lon="-2.862996">
        <ele>48.4</ele>
        <time>1970-01-01T00:22:43.000Z</time>
      </trkpt>
      <trkpt lat="43.284021" lon="-2.863073">
        <ele>48.4</ele>
        <time>1970-01-01T00:22:44.000Z</time>
      </trkpt>
      <trkpt lat="43.284046" lon="-2.863151">
        <ele>48.4</ele>
        <time>1970-01-01T00:22:45.000Z</time>
      </trkpt>
      <trkpt lat="43.28407" lon="-2.863231">
        <ele>48.4</ele>
        <time>1970-01-01T00:22:46.000Z</time>
      </trkpt>
      <trkpt lat="43.284095" lon="-2.86331">
        <ele>48.4</ele>
        <time>1970-01-01T00:22:47.000Z</time>
      </trkpt>
      <trkpt lat="43.28412" lon="-2.863388">
        <ele>48.4</ele>
        <time>1970-01-01T00:22:48.000Z</time>
      </trkpt>
      <trkpt lat="43.284143" lon="-2.863466">
        <ele>48.6</ele>
        <time>1970-01-01T00:22:49.000Z</time>
      </trkpt>
      <trkpt lat="43.284168" lon="-2.863545">
        <ele>48.6</ele>
        <time>1970-01-01T00:22:50.000Z</time>
      </trkpt>
      <trkpt lat="43.284191" lon="-2.863625">
        <ele>48.6</ele>
        <time>1970-01-01T00:22:51.000Z</time>
      </trkpt>
      <trkpt lat="43.284215" lon="-2.863701">
        <ele>48.6</ele>
        <time>1970-01-01T00:22:52.000Z</time>
      </trkpt>
      <trkpt lat="43.28424" lon="-2.86378">
        <ele>48.6</ele>
        <time>1970-01-01T00:22:53.000Z</time>
      </trkpt>
      <trkpt lat="43.284268" lon="-2.863856">
        <ele>49</ele>
        <time>1970-01-01T00:22:54.000Z</time>
      </trkpt>
      <trkpt lat="43.284293" lon="-2.863935">
        <ele>49</ele>
        <time>1970-01-01T00:22:55.000Z</time>
      </trkpt>
      <trkpt lat="43.284321" lon="-2.864006">
        <ele>49</ele>
        <time>1970-01-01T00:22:56.000Z</time>
      </trkpt>
      <trkpt lat="43.284343" lon="-2.864088">
        <ele>49</ele>
        <time>1970-01-01T00:22:57.000Z</time>
      </trkpt>
      <trkpt lat="43.284365" lon="-2.864168">
        <ele>49</ele>
        <time>1970-01-01T00:22:58.000Z</time>
      </trkpt>
      <trkpt lat="43.284391" lon="-2.864246">
        <ele>48.8</ele>
        <time>1970-01-01T00:22:59.000Z</time>
      </trkpt>
      <trkpt lat="43.284418" lon="-2.864326">
        <ele>48.8</ele>
        <time>1970-01-01T00:23:00.000Z</time>
      </trkpt>
      <trkpt lat="43.284445" lon="-2.86441">
        <ele>49</ele>
        <time>1970-01-01T00:23:01.000Z</time>
      </trkpt>
      <trkpt lat="43.284471" lon="-2.864491">
        <ele>49</ele>
        <time>1970-01-01T00:23:02.000Z</time>
      </trkpt>
      <trkpt lat="43.284498" lon="-2.864573">
        <ele>49</ele>
        <time>1970-01-01T00:23:03.000Z</time>
      </trkpt>
      <trkpt lat="43.284526" lon="-2.864653">
        <ele>49</ele>
        <time>1970-01-01T00:23:04.000Z</time>
      </trkpt>
      <trkpt lat="43.284555" lon="-2.864733">
        <ele>49</ele>
        <time>1970-01-01T00:23:05.000Z</time>
      </trkpt>
      <trkpt lat="43.28458" lon="-2.864815">
        <ele>48.8</ele>
        <time>1970-01-01T00:23:06.000Z</time>
      </trkpt>
      <trkpt lat="43.284606" lon="-2.864895">
        <ele>48.8</ele>
        <time>1970-01-01T00:23:07.000Z</time>
      </trkpt>
      <trkpt lat="43.28463" lon="-2.864976">
        <ele>48.8</ele>
        <time>1970-01-01T00:23:08.000Z</time>
      </trkpt>
      <trkpt lat="43.284651" lon="-2.865058">
        <ele>48.8</ele>
        <time>1970-01-01T00:23:09.000Z</time>
      </trkpt>
      <trkpt lat="43.284671" lon="-2.86514">
        <ele>49</ele>
        <time>1970-01-01T00:23:10.000Z</time>
      </trkpt>
      <trkpt lat="43.284691" lon="-2.865221">
        <ele>49</ele>
        <time>1970-01-01T00:23:11.000Z</time>
      </trkpt>
      <trkpt lat="43.284711" lon="-2.865305">
        <ele>49</ele>
        <time>1970-01-01T00:23:12.000Z</time>
      </trkpt>
      <trkpt lat="43.284733" lon="-2.865385">
        <ele>48.6</ele>
        <time>1970-01-01T00:23:13.000Z</time>
      </trkpt>
      <trkpt lat="43.284753" lon="-2.865466">
        <ele>48.6</ele>
        <time>1970-01-01T00:23:14.000Z</time>
      </trkpt>
      <trkpt lat="43.284773" lon="-2.865546">
        <ele>48.6</ele>
        <time>1970-01-01T00:23:15.000Z</time>
      </trkpt>
      <trkpt lat="43.284793" lon="-2.865625">
        <ele>48.6</ele>
        <time>1970-01-01T00:23:16.000Z</time>
      </trkpt>
      <trkpt lat="43.28481" lon="-2.865705">
        <ele>48.2</ele>
        <time>1970-01-01T00:23:17.000Z</time>
      </trkpt>
      <trkpt lat="43.284821" lon="-2.865785">
        <ele>48.2</ele>
        <time>1970-01-01T00:23:18.000Z</time>
      </trkpt>
      <trkpt lat="43.284831" lon="-2.865863">
        <ele>48.2</ele>
        <time>1970-01-01T00:23:19.000Z</time>
      </trkpt>
      <trkpt lat="43.284848" lon="-2.865931">
        <ele>48.4</ele>
        <time>1970-01-01T00:23:20.000Z</time>
      </trkpt>
      <trkpt lat="43.284865" lon="-2.865986">
        <ele>48.4</ele>
        <time>1970-01-01T00:23:21.000Z</time>
      </trkpt>
      <trkpt lat="43.284893" lon="-2.866041">
        <ele>48.4</ele>
        <time>1970-01-01T00:23:22.000Z</time>
      </trkpt>
      <trkpt lat="43.284931" lon="-2.8661">
        <ele>48.4</ele>
        <time>1970-01-01T00:23:23.000Z</time>
      </trkpt>
      <trkpt lat="43.284958" lon="-2.866165">
        <ele>47.4</ele>
        <time>1970-01-01T00:23:24.000Z</time>
      </trkpt>
      <trkpt lat="43.284955" lon="-2.866235">
        <ele>47.4</ele>
        <time>1970-01-01T00:23:25.000Z</time>
      </trkpt>
      <trkpt lat="43.284925" lon="-2.86629">
        <ele>47.4</ele>
        <time>1970-01-01T00:23:26.000Z</time>
      </trkpt>
      <trkpt lat="43.284885" lon="-2.866316">
        <ele>47.4</ele>
        <time>1970-01-01T00:23:27.000Z</time>
      </trkpt>
      <trkpt lat="43.28484" lon="-2.86632">
        <ele>47.4</ele>
        <time>1970-01-01T00:23:28.000Z</time>
      </trkpt>
      <trkpt lat="43.284798" lon="-2.866301">
        <ele>47.8</ele>
        <time>1970-01-01T00:23:29.000Z</time>
      </trkpt>
      <trkpt lat="43.28476" lon="-2.866271">
        <ele>47.8</ele>
        <time>1970-01-01T00:23:30.000Z</time>
      </trkpt>
      <trkpt lat="43.284723" lon="-2.86624">
        <ele>47.8</ele>
        <time>1970-01-01T00:23:31.000Z</time>
      </trkpt>
      <trkpt lat="43.284685" lon="-2.866213">
        <ele>47.8</ele>
        <time>1970-01-01T00:23:32.000Z</time>
      </trkpt>
      <trkpt lat="43.284646" lon="-2.866186">
        <ele>47.8</ele>
        <time>1970-01-01T00:23:33.000Z</time>
      </trkpt>
      <trkpt lat="43.28461" lon="-2.866163">
        <ele>49.8</ele>
        <time>1970-01-01T00:23:34.000Z</time>
      </trkpt>
      <trkpt lat="43.284575" lon="-2.866128">
        <ele>49.8</ele>
        <time>1970-01-01T00:23:35.000Z</time>
      </trkpt>
      <trkpt lat="43.284543" lon="-2.8661">
        <ele>49.8</ele>
        <time>1970-01-01T00:23:36.000Z</time>
      </trkpt>
      <trkpt lat="43.28451" lon="-2.866068">
        <ele>49.8</ele>
        <time>1970-01-01T00:23:37.000Z</time>
      </trkpt>
      <trkpt lat="43.284478" lon="-2.866031">
        <ele>50.6</ele>
        <time>1970-01-01T00:23:38.000Z</time>
      </trkpt>
      <trkpt lat="43.284446" lon="-2.865991">
        <ele>50.6</ele>
        <time>1970-01-01T00:23:39.000Z</time>
      </trkpt>
      <trkpt lat="43.284415" lon="-2.865955">
        <ele>50.6</ele>
        <time>1970-01-01T00:23:40.000Z</time>
      </trkpt>
      <trkpt lat="43.284383" lon="-2.86592">
        <ele>52</ele>
        <time>1970-01-01T00:23:41.000Z</time>
      </trkpt>
      <trkpt lat="43.28435" lon="-2.865886">
        <ele>52</ele>
        <time>1970-01-01T00:23:42.000Z</time>
      </trkpt>
      <trkpt lat="43.284316" lon="-2.865853">
        <ele>52</ele>
        <time>1970-01-01T00:23:43.000Z</time>
      </trkpt>
      <trkpt lat="43.28428" lon="-2.865818">
        <ele>52</ele>
        <time>1970-01-01T00:23:44.000Z</time>
      </trkpt>
      <trkpt lat="43.284243" lon="-2.865781">
        <ele>53.2</ele>
        <time>1970-01-01T00:23:45.000Z</time>
      </trkpt>
      <trkpt lat="43.284203" lon="-2.865746">
        <ele>53.2</ele>
        <time>1970-01-01T00:23:46.000Z</time>
      </trkpt>
      <trkpt lat="43.284163" lon="-2.865716">
        <ele>53.2</ele>
        <time>1970-01-01T00:23:47.000Z</time>
      </trkpt>
      <trkpt lat="43.284125" lon="-2.865686">
        <ele>53.2</ele>
        <time>1970-01-01T00:23:48.000Z</time>
      </trkpt>
      <trkpt lat="43.284085" lon="-2.86566">
        <ele>53.2</ele>
        <time>1970-01-01T00:23:49.000Z</time>
      </trkpt>
      <trkpt lat="43.284045" lon="-2.865631">
        <ele>54.6</ele>
        <time>1970-01-01T00:23:50.000Z</time>
      </trkpt>
      <trkpt lat="43.284005" lon="-2.865603">
        <ele>54.6</ele>
        <time>1970-01-01T00:23:51.000Z</time>
      </trkpt>
      <trkpt lat="43.283963" lon="-2.865578">
        <ele>54</ele>
        <time>1970-01-01T00:23:52.000Z</time>
      </trkpt>
      <trkpt lat="43.283916" lon="-2.86555">
        <ele>54</ele>
        <time>1970-01-01T00:23:53.000Z</time>
      </trkpt>
      <trkpt lat="43.283863" lon="-2.865525">
        <ele>54</ele>
        <time>1970-01-01T00:23:54.000Z</time>
      </trkpt>
      <trkpt lat="43.283808" lon="-2.865508">
        <ele>53.6</ele>
        <time>1970-01-01T00:23:55.000Z</time>
      </trkpt>
      <trkpt lat="43.283753" lon="-2.865516">
        <ele>53.6</ele>
        <time>1970-01-01T00:23:56.000Z</time>
      </trkpt>
      <trkpt lat="43.283695" lon="-2.865536">
        <ele>51.8</ele>
        <time>1970-01-01T00:23:57.000Z</time>
      </trkpt>
      <trkpt lat="43.283631" lon="-2.865548">
        <ele>51.8</ele>
        <time>1970-01-01T00:23:58.000Z</time>
      </trkpt>
      <trkpt lat="43.283565" lon="-2.865536">
        <ele>51.8</ele>
        <time>1970-01-01T00:23:59.000Z</time>
      </trkpt>
      <trkpt lat="43.283496" lon="-2.86551">
        <ele>51.8</ele>
        <time>1970-01-01T00:24:00.000Z</time>
      </trkpt>
      <trkpt lat="43.283428" lon="-2.865466">
        <ele>51.8</ele>
        <time>1970-01-01T00:24:01.000Z</time>
      </trkpt>
      <trkpt lat="43.283358" lon="-2.86542">
        <ele>50</ele>
        <time>1970-01-01T00:24:02.000Z</time>
      </trkpt>
      <trkpt lat="43.28328" lon="-2.865388">
        <ele>50</ele>
        <time>1970-01-01T00:24:03.000Z</time>
      </trkpt>
      <trkpt lat="43.2832" lon="-2.865376">
        <ele>49</ele>
        <time>1970-01-01T00:24:04.000Z</time>
      </trkpt>
      <trkpt lat="43.283121" lon="-2.865385">
        <ele>49</ele>
        <time>1970-01-01T00:24:05.000Z</time>
      </trkpt>
      <trkpt lat="43.283048" lon="-2.865403">
        <ele>48.4</ele>
        <time>1970-01-01T00:24:06.000Z</time>
      </trkpt>
      <trkpt lat="43.28298" lon="-2.865421">
        <ele>48.4</ele>
        <time>1970-01-01T00:24:07.000Z</time>
      </trkpt>
      <trkpt lat="43.282916" lon="-2.865445">
        <ele>48.4</ele>
        <time>1970-01-01T00:24:08.000Z</time>
      </trkpt>
      <trkpt lat="43.282858" lon="-2.865473">
        <ele>49</ele>
        <time>1970-01-01T00:24:09.000Z</time>
      </trkpt>
      <trkpt lat="43.282808" lon="-2.865515">
        <ele>49</ele>
        <time>1970-01-01T00:24:10.000Z</time>
      </trkpt>
      <trkpt lat="43.282765" lon="-2.865568">
        <ele>49</ele>
        <time>1970-01-01T00:24:11.000Z</time>
      </trkpt>
      <trkpt lat="43.282726" lon="-2.865625">
        <ele>49</ele>
        <time>1970-01-01T00:24:12.000Z</time>
      </trkpt>
      <trkpt lat="43.282685" lon="-2.865678">
        <ele>50</ele>
        <time>1970-01-01T00:24:13.000Z</time>
      </trkpt>
      <trkpt lat="43.282638" lon="-2.865713">
        <ele>50</ele>
        <time>1970-01-01T00:24:14.000Z</time>
      </trkpt>
      <trkpt lat="43.282585" lon="-2.865731">
        <ele>50</ele>
        <time>1970-01-01T00:24:15.000Z</time>
      </trkpt>
      <trkpt lat="43.282531" lon="-2.865733">
        <ele>50.2</ele>
        <time>1970-01-01T00:24:16.000Z</time>
      </trkpt>
      <trkpt lat="43.282478" lon="-2.865731">
        <ele>50.2</ele>
        <time>1970-01-01T00:24:17.000Z</time>
      </trkpt>
      <trkpt lat="43.282425" lon="-2.865733">
        <ele>50.2</ele>
        <time>1970-01-01T00:24:18.000Z</time>
      </trkpt>
      <trkpt lat="43.282371" lon="-2.86575">
        <ele>50.2</ele>
        <time>1970-01-01T00:24:19.000Z</time>
      </trkpt>
      <trkpt lat="43.282323" lon="-2.865775">
        <ele>50.2</ele>
        <time>1970-01-01T00:24:20.000Z</time>
      </trkpt>
      <trkpt lat="43.282273" lon="-2.865801">
        <ele>50.2</ele>
        <time>1970-01-01T00:24:21.000Z</time>
      </trkpt>
      <trkpt lat="43.282225" lon="-2.865826">
        <ele>50.2</ele>
        <time>1970-01-01T00:24:22.000Z</time>
      </trkpt>
      <trkpt lat="43.282178" lon="-2.865851">
        <ele>50.2</ele>
        <time>1970-01-01T00:24:23.000Z</time>
      </trkpt>
      <trkpt lat="43.28213" lon="-2.865868">
        <ele>50.2</ele>
        <time>1970-01-01T00:24:24.000Z</time>
      </trkpt>
      <trkpt lat="43.282083" lon="-2.865886">
        <ele>51</ele>
        <time>1970-01-01T00:24:25.000Z</time>
      </trkpt>
      <trkpt lat="43.282038" lon="-2.865905">
        <ele>51</ele>
        <time>1970-01-01T00:24:26.000Z</time>
      </trkpt>
      <trkpt lat="43.281995" lon="-2.86592">
        <ele>51</ele>
        <time>1970-01-01T00:24:27.000Z</time>
      </trkpt>
      <trkpt lat="43.281951" lon="-2.86594">
        <ele>51</ele>
        <time>1970-01-01T00:24:28.000Z</time>
      </trkpt>
      <trkpt lat="43.281911" lon="-2.865961">
        <ele>51</ele>
        <time>1970-01-01T00:24:29.000Z</time>
      </trkpt>
      <trkpt lat="43.281873" lon="-2.865975">
        <ele>51.4</ele>
        <time>1970-01-01T00:24:30.000Z</time>
      </trkpt>
      <trkpt lat="43.281836" lon="-2.865983">
        <ele>51.4</ele>
        <time>1970-01-01T00:24:31.000Z</time>
      </trkpt>
      <trkpt lat="43.281798" lon="-2.865988">
        <ele>52.4</ele>
        <time>1970-01-01T00:24:32.000Z</time>
      </trkpt>
      <trkpt lat="43.281766" lon="-2.86598">
        <ele>52.4</ele>
        <time>1970-01-01T00:24:33.000Z</time>
      </trkpt>
      <trkpt lat="43.281746" lon="-2.865955">
        <ele>53.2</ele>
        <time>1970-01-01T00:24:34.000Z</time>
      </trkpt>
      <trkpt lat="43.28173" lon="-2.865933">
        <ele>53.2</ele>
        <time>1970-01-01T00:24:35.000Z</time>
      </trkpt>
      <trkpt lat="43.281715" lon="-2.865925">
        <ele>53.2</ele>
        <time>1970-01-01T00:24:36.000Z</time>
      </trkpt>
      <trkpt lat="43.281705" lon="-2.865936">
        <ele>53.6</ele>
        <time>1970-01-01T00:24:37.000Z</time>
      </trkpt>
      <trkpt lat="43.281715" lon="-2.865945">
        <ele>53.6</ele>
        <time>1970-01-01T00:25:58.000Z</time>
      </trkpt>
      <trkpt lat="43.281736" lon="-2.86595">
        <ele>53.6</ele>
        <time>1970-01-01T00:25:59.000Z</time>
      </trkpt>
      <trkpt lat="43.281766" lon="-2.865943">
        <ele>53.6</ele>
        <time>1970-01-01T00:26:00.000Z</time>
      </trkpt>
      <trkpt lat="43.281806" lon="-2.86593">
        <ele>53.6</ele>
        <time>1970-01-01T00:26:01.000Z</time>
      </trkpt>
      <trkpt lat="43.28185" lon="-2.865911">
        <ele>53.6</ele>
        <time>1970-01-01T00:26:02.000Z</time>
      </trkpt>
      <trkpt lat="43.2819" lon="-2.865891">
        <ele>53.6</ele>
        <time>1970-01-01T00:26:03.000Z</time>
      </trkpt>
      <trkpt lat="43.281953" lon="-2.865868">
        <ele>51.6</ele>
        <time>1970-01-01T00:26:04.000Z</time>
      </trkpt>
      <trkpt lat="43.282011" lon="-2.865845">
        <ele>51.6</ele>
        <time>1970-01-01T00:26:05.000Z</time>
      </trkpt>
      <trkpt lat="43.282071" lon="-2.865821">
        <ele>51.6</ele>
        <time>1970-01-01T00:26:06.000Z</time>
      </trkpt>
      <trkpt lat="43.282133" lon="-2.865796">
        <ele>51.6</ele>
        <time>1970-01-01T00:26:07.000Z</time>
      </trkpt>
      <trkpt lat="43.282193" lon="-2.865768">
        <ele>51</ele>
        <time>1970-01-01T00:26:08.000Z</time>
      </trkpt>
      <trkpt lat="43.282255" lon="-2.865738">
        <ele>51</ele>
        <time>1970-01-01T00:26:09.000Z</time>
      </trkpt>
      <trkpt lat="43.282315" lon="-2.865705">
        <ele>50.2</ele>
        <time>1970-01-01T00:26:10.000Z</time>
      </trkpt>
      <trkpt lat="43.282371" lon="-2.865671">
        <ele>50.2</ele>
        <time>1970-01-01T00:26:11.000Z</time>
      </trkpt>
      <trkpt lat="43.282418" lon="-2.865621">
        <ele>50.2</ele>
        <time>1970-01-01T00:26:12.000Z</time>
      </trkpt>
      <trkpt lat="43.282443" lon="-2.865555">
        <ele>50.6</ele>
        <time>1970-01-01T00:26:13.000Z</time>
      </trkpt>
      <trkpt lat="43.282451" lon="-2.865481">
        <ele>50.6</ele>
        <time>1970-01-01T00:26:14.000Z</time>
      </trkpt>
      <trkpt lat="43.282443" lon="-2.865406">
        <ele>50.6</ele>
        <time>1970-01-01T00:26:15.000Z</time>
      </trkpt>
      <trkpt lat="43.282416" lon="-2.865335">
        <ele>50.6</ele>
        <time>1970-01-01T00:26:16.000Z</time>
      </trkpt>
      <trkpt lat="43.282378" lon="-2.865271">
        <ele>49.2</ele>
        <time>1970-01-01T00:26:17.000Z</time>
      </trkpt>
      <trkpt lat="43.282335" lon="-2.865211">
        <ele>49.2</ele>
        <time>1970-01-01T00:26:18.000Z</time>
      </trkpt>
      <trkpt lat="43.282286" lon="-2.865153">
        <ele>49.2</ele>
        <time>1970-01-01T00:26:19.000Z</time>
      </trkpt>
      <trkpt lat="43.28224" lon="-2.865093">
        <ele>49.6</ele>
        <time>1970-01-01T00:26:20.000Z</time>
      </trkpt>
      <trkpt lat="43.282191" lon="-2.865035">
        <ele>49.6</ele>
        <time>1970-01-01T00:26:21.000Z</time>
      </trkpt>
      <trkpt lat="43.282143" lon="-2.864978">
        <ele>50</ele>
        <time>1970-01-01T00:26:22.000Z</time>
      </trkpt>
      <trkpt lat="43.282095" lon="-2.864923">
        <ele>50</ele>
        <time>1970-01-01T00:26:23.000Z</time>
      </trkpt>
      <trkpt lat="43.282045" lon="-2.864871">
        <ele>50</ele>
        <time>1970-01-01T00:26:24.000Z</time>
      </trkpt>
      <trkpt lat="43.281996" lon="-2.864818">
        <ele>50</ele>
        <time>1970-01-01T00:26:25.000Z</time>
      </trkpt>
      <trkpt lat="43.281948" lon="-2.864765">
        <ele>50</ele>
        <time>1970-01-01T00:26:26.000Z</time>
      </trkpt>
      <trkpt lat="43.281901" lon="-2.864713">
        <ele>50.6</ele>
        <time>1970-01-01T00:26:27.000Z</time>
      </trkpt>
      <trkpt lat="43.281853" lon="-2.864663">
        <ele>50.6</ele>
        <time>1970-01-01T00:26:28.000Z</time>
      </trkpt>
      <trkpt lat="43.281803" lon="-2.864613">
        <ele>52.2</ele>
        <time>1970-01-01T00:26:29.000Z</time>
      </trkpt>
      <trkpt lat="43.281753" lon="-2.864565">
        <ele>52.2</ele>
        <time>1970-01-01T00:26:30.000Z</time>
      </trkpt>
      <trkpt lat="43.281705" lon="-2.864516">
        <ele>52.2</ele>
        <time>1970-01-01T00:26:31.000Z</time>
      </trkpt>
      <trkpt lat="43.281655" lon="-2.86447">
        <ele>52.2</ele>
        <time>1970-01-01T00:26:32.000Z</time>
      </trkpt>
      <trkpt lat="43.281605" lon="-2.864421">
        <ele>52.2</ele>
        <time>1970-01-01T00:26:33.000Z</time>
      </trkpt>
      <trkpt lat="43.281555" lon="-2.864373">
        <ele>53.2</ele>
        <time>1970-01-01T00:26:34.000Z</time>
      </trkpt>
      <trkpt lat="43.281506" lon="-2.864328">
        <ele>53.2</ele>
        <time>1970-01-01T00:26:35.000Z</time>
      </trkpt>
      <trkpt lat="43.281455" lon="-2.864285">
        <ele>52.2</ele>
        <time>1970-01-01T00:26:36.000Z</time>
      </trkpt>
      <trkpt lat="43.281405" lon="-2.864241">
        <ele>52.2</ele>
        <time>1970-01-01T00:26:37.000Z</time>
      </trkpt>
      <trkpt lat="43.281356" lon="-2.864195">
        <ele>52.8</ele>
        <time>1970-01-01T00:26:38.000Z</time>
      </trkpt>
      <trkpt lat="43.28131" lon="-2.864148">
        <ele>52.8</ele>
        <time>1970-01-01T00:26:39.000Z</time>
      </trkpt>
      <trkpt lat="43.281265" lon="-2.864096">
        <ele>52.8</ele>
        <time>1970-01-01T00:26:40.000Z</time>
      </trkpt>
      <trkpt lat="43.28122" lon="-2.864045">
        <ele>53.4</ele>
        <time>1970-01-01T00:26:41.000Z</time>
      </trkpt>
      <trkpt lat="43.281178" lon="-2.86399">
        <ele>53.4</ele>
        <time>1970-01-01T00:26:42.000Z</time>
      </trkpt>
      <trkpt lat="43.281135" lon="-2.863935">
        <ele>53.4</ele>
        <time>1970-01-01T00:26:43.000Z</time>
      </trkpt>
      <trkpt lat="43.281095" lon="-2.863878">
        <ele>53.4</ele>
        <time>1970-01-01T00:26:44.000Z</time>
      </trkpt>
      <trkpt lat="43.281055" lon="-2.863821">
        <ele>53.6</ele>
        <time>1970-01-01T00:26:45.000Z</time>
      </trkpt>
      <trkpt lat="43.281018" lon="-2.86376">
        <ele>53.6</ele>
        <time>1970-01-01T00:26:46.000Z</time>
      </trkpt>
      <trkpt lat="43.280981" lon="-2.863698">
        <ele>53.6</ele>
        <time>1970-01-01T00:26:47.000Z</time>
      </trkpt>
      <trkpt lat="43.280946" lon="-2.863633">
        <ele>53.6</ele>
        <time>1970-01-01T00:26:48.000Z</time>
      </trkpt>
      <trkpt lat="43.280911" lon="-2.863565">
        <ele>53.6</ele>
        <time>1970-01-01T00:26:49.000Z</time>
      </trkpt>
      <trkpt lat="43.280878" lon="-2.863498">
        <ele>53.8</ele>
        <time>1970-01-01T00:26:50.000Z</time>
      </trkpt>
      <trkpt lat="43.280846" lon="-2.86343">
        <ele>53.8</ele>
        <time>1970-01-01T00:26:51.000Z</time>
      </trkpt>
      <trkpt lat="43.280815" lon="-2.863356">
        <ele>53.8</ele>
        <time>1970-01-01T00:26:52.000Z</time>
      </trkpt>
      <trkpt lat="43.280786" lon="-2.863283">
        <ele>53.8</ele>
        <time>1970-01-01T00:26:53.000Z</time>
      </trkpt>
      <trkpt lat="43.280758" lon="-2.863211">
        <ele>53.8</ele>
        <time>1970-01-01T00:26:54.000Z</time>
      </trkpt>
      <trkpt lat="43.280731" lon="-2.863136">
        <ele>54.6</ele>
        <time>1970-01-01T00:26:55.000Z</time>
      </trkpt>
      <trkpt lat="43.280703" lon="-2.863065">
        <ele>54.6</ele>
        <time>1970-01-01T00:26:56.000Z</time>
      </trkpt>
      <trkpt lat="43.280671" lon="-2.862991">
        <ele>55.4</ele>
        <time>1970-01-01T00:26:57.000Z</time>
      </trkpt>
      <trkpt lat="43.280641" lon="-2.862918">
        <ele>55.4</ele>
        <time>1970-01-01T00:26:58.000Z</time>
      </trkpt>
      <trkpt lat="43.280613" lon="-2.862846">
        <ele>55.4</ele>
        <time>1970-01-01T00:26:59.000Z</time>
      </trkpt>
      <trkpt lat="43.280583" lon="-2.862775">
        <ele>55.4</ele>
        <time>1970-01-01T00:27:00.000Z</time>
      </trkpt>
      <trkpt lat="43.280555" lon="-2.862703">
        <ele>55.4</ele>
        <time>1970-01-01T00:27:01.000Z</time>
      </trkpt>
      <trkpt lat="43.280526" lon="-2.862631">
        <ele>56.4</ele>
        <time>1970-01-01T00:27:02.000Z</time>
      </trkpt>
      <trkpt lat="43.280496" lon="-2.862561">
        <ele>56.4</ele>
        <time>1970-01-01T00:27:03.000Z</time>
      </trkpt>
      <trkpt lat="43.280465" lon="-2.862493">
        <ele>56.4</ele>
        <time>1970-01-01T00:27:04.000Z</time>
      </trkpt>
      <trkpt lat="43.280435" lon="-2.862421">
        <ele>56.4</ele>
        <time>1970-01-01T00:27:05.000Z</time>
      </trkpt>
      <trkpt lat="43.280405" lon="-2.86235">
        <ele>56.4</ele>
        <time>1970-01-01T00:27:06.000Z</time>
      </trkpt>
      <trkpt lat="43.280378" lon="-2.862278">
        <ele>56.4</ele>
        <time>1970-01-01T00:27:07.000Z</time>
      </trkpt>
      <trkpt lat="43.28035" lon="-2.862205">
        <ele>56.4</ele>
        <time>1970-01-01T00:27:08.000Z</time>
      </trkpt>
      <trkpt lat="43.280323" lon="-2.862131">
        <ele>56.6</ele>
        <time>1970-01-01T00:27:09.000Z</time>
      </trkpt>
      <trkpt lat="43.280295" lon="-2.862061">
        <ele>56.6</ele>
        <time>1970-01-01T00:27:10.000Z</time>
      </trkpt>
      <trkpt lat="43.280266" lon="-2.861991">
        <ele>56.6</ele>
        <time>1970-01-01T00:27:11.000Z</time>
      </trkpt>
      <trkpt lat="43.280235" lon="-2.861926">
        <ele>56.6</ele>
        <time>1970-01-01T00:27:12.000Z</time>
      </trkpt>
      <trkpt lat="43.280211" lon="-2.861858">
        <ele>56.4</ele>
        <time>1970-01-01T00:27:13.000Z</time>
      </trkpt>
      <trkpt lat="43.280185" lon="-2.861791">
        <ele>56.4</ele>
        <time>1970-01-01T00:27:14.000Z</time>
      </trkpt>
      <trkpt lat="43.280161" lon="-2.861723">
        <ele>56.4</ele>
        <time>1970-01-01T00:27:15.000Z</time>
      </trkpt>
      <trkpt lat="43.28014" lon="-2.861651">
        <ele>56.4</ele>
        <time>1970-01-01T00:27:16.000Z</time>
      </trkpt>
      <trkpt lat="43.28012" lon="-2.861578">
        <ele>56.4</ele>
        <time>1970-01-01T00:27:17.000Z</time>
      </trkpt>
      <trkpt lat="43.2801" lon="-2.861501">
        <ele>56.4</ele>
        <time>1970-01-01T00:27:18.000Z</time>
      </trkpt>
      <trkpt lat="43.280083" lon="-2.86142">
        <ele>56.4</ele>
        <time>1970-01-01T00:27:19.000Z</time>
      </trkpt>
      <trkpt lat="43.280068" lon="-2.86134">
        <ele>55.4</ele>
        <time>1970-01-01T00:27:20.000Z</time>
      </trkpt>
      <trkpt lat="43.280055" lon="-2.861261">
        <ele>55.4</ele>
        <time>1970-01-01T00:27:21.000Z</time>
      </trkpt>
      <trkpt lat="43.280045" lon="-2.86118">
        <ele>55.4</ele>
        <time>1970-01-01T00:27:22.000Z</time>
      </trkpt>
      <trkpt lat="43.280036" lon="-2.861096">
        <ele>55</ele>
        <time>1970-01-01T00:27:23.000Z</time>
      </trkpt>
      <trkpt lat="43.280036" lon="-2.861003">
        <ele>55</ele>
        <time>1970-01-01T00:27:24.000Z</time>
      </trkpt>
      <trkpt lat="43.280043" lon="-2.860906">
        <ele>53</ele>
        <time>1970-01-01T00:27:25.000Z</time>
      </trkpt>
      <trkpt lat="43.280046" lon="-2.860805">
        <ele>53</ele>
        <time>1970-01-01T00:27:26.000Z</time>
      </trkpt>
      <trkpt lat="43.280051" lon="-2.860698">
        <ele>53</ele>
        <time>1970-01-01T00:27:27.000Z</time>
      </trkpt>
      <trkpt lat="43.280056" lon="-2.860586">
        <ele>53</ele>
        <time>1970-01-01T00:27:28.000Z</time>
      </trkpt>
      <trkpt lat="43.280058" lon="-2.860473">
        <ele>53</ele>
        <time>1970-01-01T00:27:29.000Z</time>
      </trkpt>
      <trkpt lat="43.280063" lon="-2.860355">
        <ele>51.4</ele>
        <time>1970-01-01T00:27:30.000Z</time>
      </trkpt>
      <trkpt lat="43.280071" lon="-2.860233">
        <ele>51.4</ele>
        <time>1970-01-01T00:27:31.000Z</time>
      </trkpt>
      <trkpt lat="43.280076" lon="-2.86011">
        <ele>50.4</ele>
        <time>1970-01-01T00:27:32.000Z</time>
      </trkpt>
      <trkpt lat="43.280083" lon="-2.859985">
        <ele>50.4</ele>
        <time>1970-01-01T00:27:33.000Z</time>
      </trkpt>
      <trkpt lat="43.28009" lon="-2.859855">
        <ele>49.4</ele>
        <time>1970-01-01T00:27:34.000Z</time>
      </trkpt>
      <trkpt lat="43.280096" lon="-2.859725">
        <ele>49.4</ele>
        <time>1970-01-01T00:27:35.000Z</time>
      </trkpt>
      <trkpt lat="43.280101" lon="-2.859593">
        <ele>49.4</ele>
        <time>1970-01-01T00:27:36.000Z</time>
      </trkpt>
      <trkpt lat="43.28011" lon="-2.85946">
        <ele>47</ele>
        <time>1970-01-01T00:27:37.000Z</time>
      </trkpt>
      <trkpt lat="43.280115" lon="-2.859328">
        <ele>47</ele>
        <time>1970-01-01T00:27:38.000Z</time>
      </trkpt>
      <trkpt lat="43.280118" lon="-2.859203">
        <ele>47</ele>
        <time>1970-01-01T00:27:39.000Z</time>
      </trkpt>
      <trkpt lat="43.280125" lon="-2.859085">
        <ele>47</ele>
        <time>1970-01-01T00:27:40.000Z</time>
      </trkpt>
      <trkpt lat="43.280126" lon="-2.858963">
        <ele>45.6</ele>
        <time>1970-01-01T00:27:41.000Z</time>
      </trkpt>
      <trkpt lat="43.28013" lon="-2.858838">
        <ele>45.6</ele>
        <time>1970-01-01T00:27:42.000Z</time>
      </trkpt>
      <trkpt lat="43.280135" lon="-2.858715">
        <ele>45.6</ele>
        <time>1970-01-01T00:27:43.000Z</time>
      </trkpt>
      <trkpt lat="43.280138" lon="-2.85859">
        <ele>45.6</ele>
        <time>1970-01-01T00:27:44.000Z</time>
      </trkpt>
      <trkpt lat="43.280138" lon="-2.858465">
        <ele>45.6</ele>
        <time>1970-01-01T00:27:45.000Z</time>
      </trkpt>
      <trkpt lat="43.280136" lon="-2.858341">
        <ele>43.4</ele>
        <time>1970-01-01T00:27:46.000Z</time>
      </trkpt>
      <trkpt lat="43.280128" lon="-2.85822">
        <ele>43.4</ele>
        <time>1970-01-01T00:27:47.000Z</time>
      </trkpt>
      <trkpt lat="43.280115" lon="-2.858103">
        <ele>43.4</ele>
        <time>1970-01-01T00:27:48.000Z</time>
      </trkpt>
      <trkpt lat="43.280091" lon="-2.85799">
        <ele>43.4</ele>
        <time>1970-01-01T00:27:49.000Z</time>
      </trkpt>
      <trkpt lat="43.280063" lon="-2.857881">
        <ele>43.4</ele>
        <time>1970-01-01T00:27:50.000Z</time>
      </trkpt>
      <trkpt lat="43.280031" lon="-2.857776">
        <ele>42.8</ele>
        <time>1970-01-01T00:27:51.000Z</time>
      </trkpt>
      <trkpt lat="43.279998" lon="-2.857675">
        <ele>42.8</ele>
        <time>1970-01-01T00:27:52.000Z</time>
      </trkpt>
      <trkpt lat="43.27996" lon="-2.85758">
        <ele>42.6</ele>
        <time>1970-01-01T00:27:53.000Z</time>
      </trkpt>
      <trkpt lat="43.279923" lon="-2.857486">
        <ele>42.6</ele>
        <time>1970-01-01T00:27:54.000Z</time>
      </trkpt>
      <trkpt lat="43.279886" lon="-2.857393">
        <ele>42.6</ele>
        <time>1970-01-01T00:27:55.000Z</time>
      </trkpt>
      <trkpt lat="43.279848" lon="-2.857301">
        <ele>42.6</ele>
        <time>1970-01-01T00:27:56.000Z</time>
      </trkpt>
      <trkpt lat="43.279811" lon="-2.85721">
        <ele>42.6</ele>
        <time>1970-01-01T00:27:57.000Z</time>
      </trkpt>
      <trkpt lat="43.279776" lon="-2.857116">
        <ele>42</ele>
        <time>1970-01-01T00:27:58.000Z</time>
      </trkpt>
      <trkpt lat="43.279738" lon="-2.857026">
        <ele>42</ele>
        <time>1970-01-01T00:27:59.000Z</time>
      </trkpt>
      <trkpt lat="43.2797" lon="-2.856936">
        <ele>42</ele>
        <time>1970-01-01T00:28:00.000Z</time>
      </trkpt>
      <trkpt lat="43.279661" lon="-2.856848">
        <ele>42</ele>
        <time>1970-01-01T00:28:01.000Z</time>
      </trkpt>
      <trkpt lat="43.279625" lon="-2.856758">
        <ele>41.2</ele>
        <time>1970-01-01T00:28:02.000Z</time>
      </trkpt>
      <trkpt lat="43.27959" lon="-2.856668">
        <ele>41.2</ele>
        <time>1970-01-01T00:28:03.000Z</time>
      </trkpt>
      <trkpt lat="43.279555" lon="-2.856578">
        <ele>41.2</ele>
        <time>1970-01-01T00:28:04.000Z</time>
      </trkpt>
      <trkpt lat="43.279518" lon="-2.85649">
        <ele>41.2</ele>
        <time>1970-01-01T00:28:05.000Z</time>
      </trkpt>
      <trkpt lat="43.279483" lon="-2.856401">
        <ele>41.2</ele>
        <time>1970-01-01T00:28:06.000Z</time>
      </trkpt>
      <trkpt lat="43.279446" lon="-2.856315">
        <ele>41.2</ele>
        <time>1970-01-01T00:28:07.000Z</time>
      </trkpt>
      <trkpt lat="43.279411" lon="-2.856233">
        <ele>41.2</ele>
        <time>1970-01-01T00:28:08.000Z</time>
      </trkpt>
      <trkpt lat="43.279378" lon="-2.856161">
        <ele>40.6</ele>
        <time>1970-01-01T00:28:09.000Z</time>
      </trkpt>
      <trkpt lat="43.279343" lon="-2.856106">
        <ele>40.6</ele>
        <time>1970-01-01T00:28:10.000Z</time>
      </trkpt>
      <trkpt lat="43.279305" lon="-2.85606">
        <ele>40.6</ele>
        <time>1970-01-01T00:28:11.000Z</time>
      </trkpt>
      <trkpt lat="43.279258" lon="-2.856018">
        <ele>40.6</ele>
        <time>1970-01-01T00:28:12.000Z</time>
      </trkpt>
      <trkpt lat="43.279205" lon="-2.855985">
        <ele>40.6</ele>
        <time>1970-01-01T00:28:13.000Z</time>
      </trkpt>
      <trkpt lat="43.279151" lon="-2.855965">
        <ele>40.2</ele>
        <time>1970-01-01T00:28:14.000Z</time>
      </trkpt>
      <trkpt lat="43.279098" lon="-2.85597">
        <ele>40.2</ele>
        <time>1970-01-01T00:28:15.000Z</time>
      </trkpt>
      <trkpt lat="43.279048" lon="-2.855995">
        <ele>40.4</ele>
        <time>1970-01-01T00:28:16.000Z</time>
      </trkpt>
      <trkpt lat="43.279" lon="-2.856026">
        <ele>40.4</ele>
        <time>1970-01-01T00:28:17.000Z</time>
      </trkpt>
      <trkpt lat="43.278955" lon="-2.856066">
        <ele>40.4</ele>
        <time>1970-01-01T00:28:18.000Z</time>
      </trkpt>
      <trkpt lat="43.278916" lon="-2.856101">
        <ele>40.2</ele>
        <time>1970-01-01T00:28:19.000Z</time>
      </trkpt>
      <trkpt lat="43.279896" lon="-2.85741">
        <ele>43.4</ele>
        <time>1970-01-01T00:00:00.000Z</time>
      </trkpt>
      <trkpt lat="43.279896" lon="-2.85741">
        <ele>43</ele>
        <time>1970-01-01T00:00:01.000Z</time>
      </trkpt>
      <trkpt lat="43.279896" lon="-2.85741">
        <ele>43</ele>
        <time>1970-01-01T00:00:02.000Z</time>
      </trkpt>
      <trkpt lat="43.279916" lon="-2.85747">
        <ele>43</ele>
        <time>1970-01-01T00:00:03.000Z</time>
      </trkpt>
      <trkpt lat="43.279938" lon="-2.857528">
        <ele>43</ele>
        <time>1970-01-01T00:00:04.000Z</time>
      </trkpt>
      <trkpt lat="43.27996" lon="-2.857586">
        <ele>43</ele>
        <time>1970-01-01T00:00:05.000Z</time>
      </trkpt>
      <trkpt lat="43.279983" lon="-2.857643">
        <ele>43</ele>
        <time>1970-01-01T00:00:06.000Z</time>
      </trkpt>
      <trkpt lat="43.280006" lon="-2.857701">
        <ele>43</ele>
        <time>1970-01-01T00:00:07.000Z</time>
      </trkpt>
      <trkpt lat="43.280028" lon="-2.857761">
        <ele>43</ele>
        <time>1970-01-01T00:00:08.000Z</time>
      </trkpt>
      <trkpt lat="43.280046" lon="-2.857823">
        <ele>43.4</ele>
        <time>1970-01-01T00:00:09.000Z</time>
      </trkpt>
      <trkpt lat="43.280063" lon="-2.857885">
        <ele>43.4</ele>
        <time>1970-01-01T00:00:10.000Z</time>
      </trkpt>
      <trkpt lat="43.28008" lon="-2.857948">
        <ele>43.4</ele>
        <time>1970-01-01T00:00:11.000Z</time>
      </trkpt>
      <trkpt lat="43.280095" lon="-2.85801">
        <ele>43.4</ele>
        <time>1970-01-01T00:00:12.000Z</time>
      </trkpt>
      <trkpt lat="43.280108" lon="-2.858071">
        <ele>43.8</ele>
        <time>1970-01-01T00:00:13.000Z</time>
      </trkpt>
      <trkpt lat="43.28012" lon="-2.858136">
        <ele>43.8</ele>
        <time>1970-01-01T00:00:14.000Z</time>
      </trkpt>
      <trkpt lat="43.28013" lon="-2.8582">
        <ele>43.8</ele>
        <time>1970-01-01T00:00:15.000Z</time>
      </trkpt>
      <trkpt lat="43.280138" lon="-2.858266">
        <ele>44.2</ele>
        <time>1970-01-01T00:00:16.000Z</time>
      </trkpt>
      <trkpt lat="43.280146" lon="-2.858333">
        <ele>44.2</ele>
        <time>1970-01-01T00:00:17.000Z</time>
      </trkpt>
      <trkpt lat="43.280153" lon="-2.858398">
        <ele>44.8</ele>
        <time>1970-01-01T00:00:18.000Z</time>
      </trkpt>
      <trkpt lat="43.28016" lon="-2.858465">
        <ele>44.8</ele>
        <time>1970-01-01T00:00:19.000Z</time>
      </trkpt>
      <trkpt lat="43.28016" lon="-2.85853">
        <ele>44.8</ele>
        <time>1970-01-01T00:00:20.000Z</time>
      </trkpt>
      <trkpt lat="43.28016" lon="-2.858595">
        <ele>44.8</ele>
        <time>1970-01-01T00:00:21.000Z</time>
      </trkpt>
      <trkpt lat="43.280156" lon="-2.858658">
        <ele>44.8</ele>
        <time>1970-01-01T00:00:22.000Z</time>
      </trkpt>
      <trkpt lat="43.280155" lon="-2.858723">
        <ele>44.8</ele>
        <time>1970-01-01T00:00:23.000Z</time>
      </trkpt>
      <trkpt lat="43.280151" lon="-2.858786">
        <ele>45</ele>
        <time>1970-01-01T00:00:24.000Z</time>
      </trkpt>
      <trkpt lat="43.280146" lon="-2.85885">
        <ele>45.4</ele>
        <time>1970-01-01T00:00:25.000Z</time>
      </trkpt>
      <trkpt lat="43.280143" lon="-2.858913">
        <ele>45.4</ele>
        <time>1970-01-01T00:00:26.000Z</time>
      </trkpt>
      <trkpt lat="43.280141" lon="-2.858978">
        <ele>45.4</ele>
        <time>1970-01-01T00:00:27.000Z</time>
      </trkpt>
      <trkpt lat="43.280143" lon="-2.859041">
        <ele>45.4</ele>
        <time>1970-01-01T00:00:28.000Z</time>
      </trkpt>
      <trkpt lat="43.280141" lon="-2.859101">
        <ele>45.4</ele>
        <time>1970-01-01T00:00:29.000Z</time>
      </trkpt>
      <trkpt lat="43.280138" lon="-2.859163">
        <ele>45.8</ele>
        <time>1970-01-01T00:00:30.000Z</time>
      </trkpt>
      <trkpt lat="43.280133" lon="-2.85923">
        <ele>45.8</ele>
        <time>1970-01-01T00:00:31.000Z</time>
      </trkpt>
      <trkpt lat="43.280133" lon="-2.859295">
        <ele>45.8</ele>
        <time>1970-01-01T00:00:32.000Z</time>
      </trkpt>
      <trkpt lat="43.28013" lon="-2.859361">
        <ele>48.2</ele>
        <time>1970-01-01T00:00:33.000Z</time>
      </trkpt>
      <trkpt lat="43.280128" lon="-2.859425">
        <ele>48.2</ele>
        <time>1970-01-01T00:00:34.000Z</time>
      </trkpt>
      <trkpt lat="43.280128" lon="-2.85949">
        <ele>48.2</ele>
        <time>1970-01-01T00:00:35.000Z</time>
      </trkpt>
      <trkpt lat="43.280126" lon="-2.859558">
        <ele>47.6</ele>
        <time>1970-01-01T00:00:36.000Z</time>
      </trkpt>
      <trkpt lat="43.280125" lon="-2.859625">
        <ele>47.8</ele>
        <time>1970-01-01T00:00:37.000Z</time>
      </trkpt>
      <trkpt lat="43.280121" lon="-2.859691">
        <ele>47.8</ele>
        <time>1970-01-01T00:00:38.000Z</time>
      </trkpt>
      <trkpt lat="43.280118" lon="-2.859758">
        <ele>47.8</ele>
        <time>1970-01-01T00:00:39.000Z</time>
      </trkpt>
      <trkpt lat="43.280113" lon="-2.859821">
        <ele>48.8</ele>
        <time>1970-01-01T00:00:40.000Z</time>
      </trkpt>
      <trkpt lat="43.280108" lon="-2.859886">
        <ele>48.8</ele>
        <time>1970-01-01T00:00:41.000Z</time>
      </trkpt>
      <trkpt lat="43.280105" lon="-2.85995">
        <ele>49.2</ele>
        <time>1970-01-01T00:00:42.000Z</time>
      </trkpt>
      <trkpt lat="43.2801" lon="-2.860013">
        <ele>49.2</ele>
        <time>1970-01-01T00:00:43.000Z</time>
      </trkpt>
      <trkpt lat="43.280096" lon="-2.860075">
        <ele>49.2</ele>
        <time>1970-01-01T00:00:44.000Z</time>
      </trkpt>
      <trkpt lat="43.280093" lon="-2.860136">
        <ele>50.6</ele>
        <time>1970-01-01T00:00:45.000Z</time>
      </trkpt>
      <trkpt lat="43.28009" lon="-2.860198">
        <ele>50.6</ele>
        <time>1970-01-01T00:00:46.000Z</time>
      </trkpt>
      <trkpt lat="43.280088" lon="-2.860263">
        <ele>50.6</ele>
        <time>1970-01-01T00:00:47.000Z</time>
      </trkpt>
      <trkpt lat="43.280086" lon="-2.860328">
        <ele>51.2</ele>
        <time>1970-01-01T00:00:48.000Z</time>
      </trkpt>
      <trkpt lat="43.280083" lon="-2.860393">
        <ele>51.4</ele>
        <time>1970-01-01T00:00:49.000Z</time>
      </trkpt>
      <trkpt lat="43.280081" lon="-2.860458">
        <ele>51.4</ele>
        <time>1970-01-01T00:00:50.000Z</time>
      </trkpt>
      <trkpt lat="43.280081" lon="-2.860523">
        <ele>51.4</ele>
        <time>1970-01-01T00:00:51.000Z</time>
      </trkpt>
      <trkpt lat="43.280078" lon="-2.86059">
        <ele>52.2</ele>
        <time>1970-01-01T00:00:52.000Z</time>
      </trkpt>
      <trkpt lat="43.280078" lon="-2.860653">
        <ele>52.2</ele>
        <time>1970-01-01T00:00:53.000Z</time>
      </trkpt>
      <trkpt lat="43.280076" lon="-2.860718">
        <ele>52.4</ele>
        <time>1970-01-01T00:00:54.000Z</time>
      </trkpt>
      <trkpt lat="43.280075" lon="-2.860781">
        <ele>52.4</ele>
        <time>1970-01-01T00:00:55.000Z</time>
      </trkpt>
      <trkpt lat="43.280071" lon="-2.860846">
        <ele>52.4</ele>
        <time>1970-01-01T00:00:56.000Z</time>
      </trkpt>
      <trkpt lat="43.28007" lon="-2.86091">
        <ele>53.4</ele>
        <time>1970-01-01T00:00:57.000Z</time>
      </trkpt>
      <trkpt lat="43.280068" lon="-2.860975">
        <ele>53.4</ele>
        <time>1970-01-01T00:00:58.000Z</time>
      </trkpt>
      <trkpt lat="43.280071" lon="-2.861038">
        <ele>53.4</ele>
        <time>1970-01-01T00:00:59.000Z</time>
      </trkpt>
      <trkpt lat="43.280075" lon="-2.861103">
        <ele>53.4</ele>
        <time>1970-01-01T00:01:00.000Z</time>
      </trkpt>
      <trkpt lat="43.28008" lon="-2.861168">
        <ele>54.6</ele>
        <time>1970-01-01T00:01:01.000Z</time>
      </trkpt>
      <trkpt lat="43.280085" lon="-2.861231">
        <ele>54.6</ele>
        <time>1970-01-01T00:01:02.000Z</time>
      </trkpt>
      <trkpt lat="43.280095" lon="-2.861295">
        <ele>54.6</ele>
        <time>1970-01-01T00:01:03.000Z</time>
      </trkpt>
      <trkpt lat="43.280108" lon="-2.861358">
        <ele>54.6</ele>
        <time>1970-01-01T00:01:04.000Z</time>
      </trkpt>
      <trkpt lat="43.28012" lon="-2.86142">
        <ele>54.6</ele>
        <time>1970-01-01T00:01:05.000Z</time>
      </trkpt>
      <trkpt lat="43.280133" lon="-2.861481">
        <ele>55.2</ele>
        <time>1970-01-01T00:01:06.000Z</time>
      </trkpt>
      <trkpt lat="43.280145" lon="-2.861543">
        <ele>55.2</ele>
        <time>1970-01-01T00:01:07.000Z</time>
      </trkpt>
      <trkpt lat="43.280161" lon="-2.861603">
        <ele>55.2</ele>
        <time>1970-01-01T00:01:08.000Z</time>
      </trkpt>
      <trkpt lat="43.280183" lon="-2.86166">
        <ele>56</ele>
        <time>1970-01-01T00:01:09.000Z</time>
      </trkpt>
      <trkpt lat="43.280203" lon="-2.861718">
        <ele>56</ele>
        <time>1970-01-01T00:01:10.000Z</time>
      </trkpt>
      <trkpt lat="43.280223" lon="-2.861776">
        <ele>56</ele>
        <time>1970-01-01T00:01:11.000Z</time>
      </trkpt>
      <trkpt lat="43.280243" lon="-2.861831">
        <ele>56.4</ele>
        <time>1970-01-01T00:01:12.000Z</time>
      </trkpt>
      <trkpt lat="43.280263" lon="-2.861888">
        <ele>56.4</ele>
        <time>1970-01-01T00:01:13.000Z</time>
      </trkpt>
      <trkpt lat="43.280285" lon="-2.86195">
        <ele>56.6</ele>
        <time>1970-01-01T00:01:14.000Z</time>
      </trkpt>
      <trkpt lat="43.280308" lon="-2.862011">
        <ele>56.6</ele>
        <time>1970-01-01T00:01:15.000Z</time>
      </trkpt>
      <trkpt lat="43.280331" lon="-2.862073">
        <ele>56.6</ele>
        <time>1970-01-01T00:01:16.000Z</time>
      </trkpt>
      <trkpt lat="43.280356" lon="-2.862133">
        <ele>56.8</ele>
        <time>1970-01-01T00:01:17.000Z</time>
      </trkpt>
      <trkpt lat="43.280383" lon="-2.862191">
        <ele>56.8</ele>
        <time>1970-01-01T00:01:18.000Z</time>
      </trkpt>
      <trkpt lat="43.280408" lon="-2.862253">
        <ele>56.8</ele>
        <time>1970-01-01T00:01:19.000Z</time>
      </trkpt>
      <trkpt lat="43.280433" lon="-2.862313">
        <ele>56.4</ele>
        <time>1970-01-01T00:01:20.000Z</time>
      </trkpt>
      <trkpt lat="43.280456" lon="-2.862375">
        <ele>56.4</ele>
        <time>1970-01-01T00:01:21.000Z</time>
      </trkpt>
      <trkpt lat="43.280481" lon="-2.862436">
        <ele>56.4</ele>
        <time>1970-01-01T00:01:22.000Z</time>
      </trkpt>
      <trkpt lat="43.280508" lon="-2.862501">
        <ele>56.4</ele>
        <time>1970-01-01T00:01:23.000Z</time>
      </trkpt>
      <trkpt lat="43.280535" lon="-2.862568">
        <ele>55.8</ele>
        <time>1970-01-01T00:01:24.000Z</time>
      </trkpt>
      <trkpt lat="43.280563" lon="-2.862636">
        <ele>55.6</ele>
        <time>1970-01-01T00:01:25.000Z</time>
      </trkpt>
      <trkpt lat="43.280593" lon="-2.862705">
        <ele>55.6</ele>
        <time>1970-01-01T00:01:26.000Z</time>
      </trkpt>
      <trkpt lat="43.280626" lon="-2.862773">
        <ele>55.6</ele>
        <time>1970-01-01T00:01:27.000Z</time>
      </trkpt>
      <trkpt lat="43.280658" lon="-2.862846">
        <ele>55.6</ele>
        <time>1970-01-01T00:01:28.000Z</time>
      </trkpt>
      <trkpt lat="43.28069" lon="-2.862923">
        <ele>54.8</ele>
        <time>1970-01-01T00:01:29.000Z</time>
      </trkpt>
      <trkpt lat="43.28072" lon="-2.863">
        <ele>54.8</ele>
        <time>1970-01-01T00:01:30.000Z</time>
      </trkpt>
      <trkpt lat="43.28075" lon="-2.863076">
        <ele>54.8</ele>
        <time>1970-01-01T00:01:31.000Z</time>
      </trkpt>
      <trkpt lat="43.28078" lon="-2.86315">
        <ele>54.8</ele>
        <time>1970-01-01T00:01:32.000Z</time>
      </trkpt>
      <trkpt lat="43.280811" lon="-2.863221">
        <ele>54.4</ele>
        <time>1970-01-01T00:01:33.000Z</time>
      </trkpt>
      <trkpt lat="43.280843" lon="-2.863293">
        <ele>54.4</ele>
        <time>1970-01-01T00:01:34.000Z</time>
      </trkpt>
      <trkpt lat="43.280873" lon="-2.863365">
        <ele>54.4</ele>
        <time>1970-01-01T00:01:35.000Z</time>
      </trkpt>
      <trkpt lat="43.280903" lon="-2.86344">
        <ele>54.4</ele>
        <time>1970-01-01T00:01:36.000Z</time>
      </trkpt>
      <trkpt lat="43.280933" lon="-2.863513">
        <ele>53.8</ele>
        <time>1970-01-01T00:01:37.000Z</time>
      </trkpt>
      <trkpt lat="43.280966" lon="-2.863588">
        <ele>53.8</ele>
        <time>1970-01-01T00:01:38.000Z</time>
      </trkpt>
      <trkpt lat="43.281001" lon="-2.86366">
        <ele>53.8</ele>
        <time>1970-01-01T00:01:39.000Z</time>
      </trkpt>
      <trkpt lat="43.281041" lon="-2.863726">
        <ele>53.8</ele>
        <time>1970-01-01T00:01:40.000Z</time>
      </trkpt>
      <trkpt lat="43.281085" lon="-2.863793">
        <ele>53.6</ele>
        <time>1970-01-01T00:01:41.000Z</time>
      </trkpt>
      <trkpt lat="43.28113" lon="-2.863856">
        <ele>53.6</ele>
        <time>1970-01-01T00:01:42.000Z</time>
      </trkpt>
      <trkpt lat="43.281176" lon="-2.863918">
        <ele>53.6</ele>
        <time>1970-01-01T00:01:43.000Z</time>
      </trkpt>
      <trkpt lat="43.281223" lon="-2.863978">
        <ele>53.2</ele>
        <time>1970-01-01T00:01:44.000Z</time>
      </trkpt>
      <trkpt lat="43.281271" lon="-2.864038">
        <ele>53</ele>
        <time>1970-01-01T00:01:45.000Z</time>
      </trkpt>
      <trkpt lat="43.281323" lon="-2.864093">
        <ele>53</ele>
        <time>1970-01-01T00:01:46.000Z</time>
      </trkpt>
      <trkpt lat="43.281376" lon="-2.864145">
        <ele>53</ele>
        <time>1970-01-01T00:01:47.000Z</time>
      </trkpt>
      <trkpt lat="43.281428" lon="-2.864196">
        <ele>52.6</ele>
        <time>1970-01-01T00:01:48.000Z</time>
      </trkpt>
      <trkpt lat="43.281481" lon="-2.864245">
        <ele>52.4</ele>
        <time>1970-01-01T00:01:49.000Z</time>
      </trkpt>
      <trkpt lat="43.281536" lon="-2.864291">
        <ele>52.4</ele>
        <time>1970-01-01T00:01:50.000Z</time>
      </trkpt>
      <trkpt lat="43.28159" lon="-2.864341">
        <ele>52.4</ele>
        <time>1970-01-01T00:01:51.000Z</time>
      </trkpt>
      <trkpt lat="43.281645" lon="-2.864391">
        <ele>51.6</ele>
        <time>1970-01-01T00:01:52.000Z</time>
      </trkpt>
      <trkpt lat="43.2817" lon="-2.864445">
        <ele>51.6</ele>
        <time>1970-01-01T00:01:53.000Z</time>
      </trkpt>
      <trkpt lat="43.281753" lon="-2.864498">
        <ele>51.6</ele>
        <time>1970-01-01T00:01:54.000Z</time>
      </trkpt>
      <trkpt lat="43.281806" lon="-2.864553">
        <ele>51.6</ele>
        <time>1970-01-01T00:01:55.000Z</time>
      </trkpt>
      <trkpt lat="43.28186" lon="-2.864608">
        <ele>51</ele>
        <time>1970-01-01T00:01:56.000Z</time>
      </trkpt>
      <trkpt lat="43.281913" lon="-2.864663">
        <ele>50.2</ele>
        <time>1970-01-01T00:01:57.000Z</time>
      </trkpt>
      <trkpt lat="43.281966" lon="-2.864718">
        <ele>50.2</ele>
        <time>1970-01-01T00:01:58.000Z</time>
      </trkpt>
      <trkpt lat="43.282021" lon="-2.864776">
        <ele>50.2</ele>
        <time>1970-01-01T00:01:59.000Z</time>
      </trkpt>
      <trkpt lat="43.282075" lon="-2.864838">
        <ele>49.2</ele>
        <time>1970-01-01T00:02:00.000Z</time>
      </trkpt>
      <trkpt lat="43.282131" lon="-2.864898">
        <ele>49.6</ele>
        <time>1970-01-01T00:02:01.000Z</time>
      </trkpt>
      <trkpt lat="43.282185" lon="-2.864963">
        <ele>49.6</ele>
        <time>1970-01-01T00:02:02.000Z</time>
      </trkpt>
      <trkpt lat="43.282238" lon="-2.865026">
        <ele>49.6</ele>
        <time>1970-01-01T00:02:03.000Z</time>
      </trkpt>
      <trkpt lat="43.282288" lon="-2.865091">
        <ele>49.4</ele>
        <time>1970-01-01T00:02:04.000Z</time>
      </trkpt>
      <trkpt lat="43.282335" lon="-2.865156">
        <ele>49.4</ele>
        <time>1970-01-01T00:02:05.000Z</time>
      </trkpt>
      <trkpt lat="43.282381" lon="-2.865218">
        <ele>49.4</ele>
        <time>1970-01-01T00:02:06.000Z</time>
      </trkpt>
      <trkpt lat="43.282426" lon="-2.865276">
        <ele>49.4</ele>
        <time>1970-01-01T00:02:07.000Z</time>
      </trkpt>
      <trkpt lat="43.282476" lon="-2.865333">
        <ele>49.4</ele>
        <time>1970-01-01T00:02:08.000Z</time>
      </trkpt>
      <trkpt lat="43.282528" lon="-2.865388">
        <ele>49.8</ele>
        <time>1970-01-01T00:02:09.000Z</time>
      </trkpt>
      <trkpt lat="43.282581" lon="-2.865431">
        <ele>49.8</ele>
        <time>1970-01-01T00:02:10.000Z</time>
      </trkpt>
      <trkpt lat="43.282633" lon="-2.865485">
        <ele>49.8</ele>
        <time>1970-01-01T00:02:11.000Z</time>
      </trkpt>
      <trkpt lat="43.282676" lon="-2.865553">
        <ele>49.4</ele>
        <time>1970-01-01T00:02:12.000Z</time>
      </trkpt>
      <trkpt lat="43.282706" lon="-2.865631">
        <ele>49.4</ele>
        <time>1970-01-01T00:02:13.000Z</time>
      </trkpt>
      <trkpt lat="43.28273" lon="-2.86571">
        <ele>49.4</ele>
        <time>1970-01-01T00:02:14.000Z</time>
      </trkpt>
      <trkpt lat="43.282761" lon="-2.865788">
        <ele>49.4</ele>
        <time>1970-01-01T00:02:15.000Z</time>
      </trkpt>
      <trkpt lat="43.2828" lon="-2.865863">
        <ele>49.4</ele>
        <time>1970-01-01T00:02:16.000Z</time>
      </trkpt>
      <trkpt lat="43.282841" lon="-2.865938">
        <ele>48.4</ele>
        <time>1970-01-01T00:02:17.000Z</time>
      </trkpt>
      <trkpt lat="43.282888" lon="-2.866011">
        <ele>48.4</ele>
        <time>1970-01-01T00:02:18.000Z</time>
      </trkpt>
      <trkpt lat="43.282933" lon="-2.866085">
        <ele>48.4</ele>
        <time>1970-01-01T00:02:19.000Z</time>
      </trkpt>
      <trkpt lat="43.282981" lon="-2.866158">
        <ele>48.4</ele>
        <time>1970-01-01T00:02:20.000Z</time>
      </trkpt>
      <trkpt lat="43.28303" lon="-2.866231">
        <ele>47.8</ele>
        <time>1970-01-01T00:02:21.000Z</time>
      </trkpt>
      <trkpt lat="43.283081" lon="-2.866305">
        <ele>47.8</ele>
        <time>1970-01-01T00:02:22.000Z</time>
      </trkpt>
      <trkpt lat="43.283131" lon="-2.866378">
        <ele>47.8</ele>
        <time>1970-01-01T00:02:23.000Z</time>
      </trkpt>
      <trkpt lat="43.283183" lon="-2.866455">
        <ele>47.2</ele>
        <time>1970-01-01T00:02:24.000Z</time>
      </trkpt>
      <trkpt lat="43.283231" lon="-2.866533">
        <ele>46.8</ele>
        <time>1970-01-01T00:02:25.000Z</time>
      </trkpt>
      <trkpt lat="43.28328" lon="-2.866615">
        <ele>46.8</ele>
        <time>1970-01-01T00:02:26.000Z</time>
      </trkpt>
      <trkpt lat="43.283328" lon="-2.866693">
        <ele>46.8</ele>
        <time>1970-01-01T00:02:27.000Z</time>
      </trkpt>
      <trkpt lat="43.283375" lon="-2.866773">
        <ele>46.8</ele>
        <time>1970-01-01T00:02:28.000Z</time>
      </trkpt>
      <trkpt lat="43.283421" lon="-2.866855">
        <ele>45.8</ele>
        <time>1970-01-01T00:02:29.000Z</time>
      </trkpt>
      <trkpt lat="43.283466" lon="-2.86694">
        <ele>45.8</ele>
        <time>1970-01-01T00:02:30.000Z</time>
      </trkpt>
      <trkpt lat="43.283513" lon="-2.867023">
        <ele>45.8</ele>
        <time>1970-01-01T00:02:31.000Z</time>
      </trkpt>
      <trkpt lat="43.283561" lon="-2.86711">
        <ele>45.8</ele>
        <time>1970-01-01T00:02:32.000Z</time>
      </trkpt>
      <trkpt lat="43.283606" lon="-2.8672">
        <ele>45.8</ele>
        <time>1970-01-01T00:02:33.000Z</time>
      </trkpt>
      <trkpt lat="43.283653" lon="-2.86729">
        <ele>44.6</ele>
        <time>1970-01-01T00:02:34.000Z</time>
      </trkpt>
      <trkpt lat="43.283698" lon="-2.86738">
        <ele>44.6</ele>
        <time>1970-01-01T00:02:35.000Z</time>
      </trkpt>
      <trkpt lat="43.283745" lon="-2.86747">
        <ele>44</ele>
        <time>1970-01-01T00:02:36.000Z</time>
      </trkpt>
      <trkpt lat="43.283791" lon="-2.86756">
        <ele>43.6</ele>
        <time>1970-01-01T00:02:37.000Z</time>
      </trkpt>
      <trkpt lat="43.283838" lon="-2.86765">
        <ele>43.6</ele>
        <time>1970-01-01T00:02:38.000Z</time>
      </trkpt>
      <trkpt lat="43.283888" lon="-2.867735">
        <ele>43.6</ele>
        <time>1970-01-01T00:02:39.000Z</time>
      </trkpt>
      <trkpt lat="43.283938" lon="-2.867818">
        <ele>42.6</ele>
        <time>1970-01-01T00:02:40.000Z</time>
      </trkpt>
      <trkpt lat="43.283986" lon="-2.867903">
        <ele>42.2</ele>
        <time>1970-01-01T00:02:41.000Z</time>
      </trkpt>
      <trkpt lat="43.284035" lon="-2.867988">
        <ele>42.2</ele>
        <time>1970-01-01T00:02:42.000Z</time>
      </trkpt>
      <trkpt lat="43.284083" lon="-2.868075">
        <ele>42.2</ele>
        <time>1970-01-01T00:02:43.000Z</time>
      </trkpt>
      <trkpt lat="43.28413" lon="-2.868163">
        <ele>41.6</ele>
        <time>1970-01-01T00:02:44.000Z</time>
      </trkpt>
      <trkpt lat="43.284178" lon="-2.868251">
        <ele>41</ele>
        <time>1970-01-01T00:02:45.000Z</time>
      </trkpt>
      <trkpt lat="43.284223" lon="-2.86834">
        <ele>41</ele>
        <time>1970-01-01T00:02:46.000Z</time>
      </trkpt>
      <trkpt lat="43.284265" lon="-2.868431">
        <ele>41</ele>
        <time>1970-01-01T00:02:47.000Z</time>
      </trkpt>
      <trkpt lat="43.284311" lon="-2.86852">
        <ele>40.6</ele>
        <time>1970-01-01T00:02:48.000Z</time>
      </trkpt>
      <trkpt lat="43.28436" lon="-2.868605">
        <ele>39.6</ele>
        <time>1970-01-01T00:02:49.000Z</time>
      </trkpt>
      <trkpt lat="43.284406" lon="-2.868691">
        <ele>39.6</ele>
        <time>1970-01-01T00:02:50.000Z</time>
      </trkpt>
      <trkpt lat="43.284455" lon="-2.868778">
        <ele>39.6</ele>
        <time>1970-01-01T00:02:51.000Z</time>
      </trkpt>
      <trkpt lat="43.284503" lon="-2.868863">
        <ele>39</ele>
        <time>1970-01-01T00:02:52.000Z</time>
      </trkpt>
      <trkpt lat="43.284555" lon="-2.868946">
        <ele>39.6</ele>
        <time>1970-01-01T00:02:53.000Z</time>
      </trkpt>
      <trkpt lat="43.284606" lon="-2.869033">
        <ele>39.6</ele>
        <time>1970-01-01T00:02:54.000Z</time>
      </trkpt>
      <trkpt lat="43.284658" lon="-2.86912">
        <ele>39.6</ele>
        <time>1970-01-01T00:02:55.000Z</time>
      </trkpt>
      <trkpt lat="43.284708" lon="-2.869208">
        <ele>38.6</ele>
        <time>1970-01-01T00:02:56.000Z</time>
      </trkpt>
      <trkpt lat="43.284756" lon="-2.869298">
        <ele>38</ele>
        <time>1970-01-01T00:02:57.000Z</time>
      </trkpt>
      <trkpt lat="43.284803" lon="-2.86939">
        <ele>38</ele>
        <time>1970-01-01T00:02:58.000Z</time>
      </trkpt>
      <trkpt lat="43.284846" lon="-2.869483">
        <ele>38</ele>
        <time>1970-01-01T00:02:59.000Z</time>
      </trkpt>
      <trkpt lat="43.284888" lon="-2.869578">
        <ele>37.8</ele>
        <time>1970-01-01T00:03:00.000Z</time>
      </trkpt>
      <trkpt lat="43.284928" lon="-2.869676">
        <ele>37.2</ele>
        <time>1970-01-01T00:03:01.000Z</time>
      </trkpt>
      <trkpt lat="43.284966" lon="-2.869773">
        <ele>37.2</ele>
        <time>1970-01-01T00:03:02.000Z</time>
      </trkpt>
      <trkpt lat="43.285006" lon="-2.869871">
        <ele>37.2</ele>
        <time>1970-01-01T00:03:03.000Z</time>
      </trkpt>
      <trkpt lat="43.285045" lon="-2.86997">
        <ele>36.4</ele>
        <time>1970-01-01T00:03:04.000Z</time>
      </trkpt>
      <trkpt lat="43.285081" lon="-2.87007">
        <ele>36.4</ele>
        <time>1970-01-01T00:03:05.000Z</time>
      </trkpt>
      <trkpt lat="43.28512" lon="-2.87017">
        <ele>36.4</ele>
        <time>1970-01-01T00:03:06.000Z</time>
      </trkpt>
      <trkpt lat="43.285155" lon="-2.870271">
        <ele>36.4</ele>
        <time>1970-01-01T00:03:07.000Z</time>
      </trkpt>
      <trkpt lat="43.285188" lon="-2.870376">
        <ele>36.4</ele>
        <time>1970-01-01T00:03:08.000Z</time>
      </trkpt>
      <trkpt lat="43.285221" lon="-2.87048">
        <ele>35.2</ele>
        <time>1970-01-01T00:03:09.000Z</time>
      </trkpt>
      <trkpt lat="43.285258" lon="-2.870581">
        <ele>35.2</ele>
        <time>1970-01-01T00:03:10.000Z</time>
      </trkpt>
      <trkpt lat="43.285293" lon="-2.870681">
        <ele>35.2</ele>
        <time>1970-01-01T00:03:11.000Z</time>
      </trkpt>
      <trkpt lat="43.28533" lon="-2.870778">
        <ele>35.2</ele>
        <time>1970-01-01T00:03:12.000Z</time>
      </trkpt>
      <trkpt lat="43.285366" lon="-2.870875">
        <ele>34.4</ele>
        <time>1970-01-01T00:03:13.000Z</time>
      </trkpt>
      <trkpt lat="43.285403" lon="-2.87097">
        <ele>34.4</ele>
        <time>1970-01-01T00:03:14.000Z</time>
      </trkpt>
      <trkpt lat="43.28544" lon="-2.871065">
        <ele>34.4</ele>
        <time>1970-01-01T00:03:15.000Z</time>
      </trkpt>
      <trkpt lat="43.285475" lon="-2.871161">
        <ele>34.2</ele>
        <time>1970-01-01T00:03:16.000Z</time>
      </trkpt>
      <trkpt lat="43.285505" lon="-2.871261">
        <ele>33.6</ele>
        <time>1970-01-01T00:03:17.000Z</time>
      </trkpt>
      <trkpt lat="43.285533" lon="-2.871361">
        <ele>33.6</ele>
        <time>1970-01-01T00:03:18.000Z</time>
      </trkpt>
      <trkpt lat="43.285558" lon="-2.871463">
        <ele>33.6</ele>
        <time>1970-01-01T00:03:19.000Z</time>
      </trkpt>
      <trkpt lat="43.285583" lon="-2.871565">
        <ele>33.6</ele>
        <time>1970-01-01T00:03:20.000Z</time>
      </trkpt>
      <trkpt lat="43.285605" lon="-2.871668">
        <ele>32.4</ele>
        <time>1970-01-01T00:03:21.000Z</time>
      </trkpt>
      <trkpt lat="43.28562" lon="-2.871773">
        <ele>32.4</ele>
        <time>1970-01-01T00:03:22.000Z</time>
      </trkpt>
      <trkpt lat="43.285633" lon="-2.871881">
        <ele>32.4</ele>
        <time>1970-01-01T00:03:23.000Z</time>
      </trkpt>
      <trkpt lat="43.285643" lon="-2.871988">
        <ele>33.2</ele>
        <time>1970-01-01T00:03:24.000Z</time>
      </trkpt>
      <trkpt lat="43.285651" lon="-2.872093">
        <ele>32.6</ele>
        <time>1970-01-01T00:03:25.000Z</time>
      </trkpt>
      <trkpt lat="43.285658" lon="-2.8722">
        <ele>32.6</ele>
        <time>1970-01-01T00:03:26.000Z</time>
      </trkpt>
      <trkpt lat="43.285663" lon="-2.872306">
        <ele>32.6</ele>
        <time>1970-01-01T00:03:27.000Z</time>
      </trkpt>
      <trkpt lat="43.28567" lon="-2.872411">
        <ele>31.6</ele>
        <time>1970-01-01T00:03:28.000Z</time>
      </trkpt>
      <trkpt lat="43.285678" lon="-2.872516">
        <ele>31.6</ele>
        <time>1970-01-01T00:03:29.000Z</time>
      </trkpt>
      <trkpt lat="43.285686" lon="-2.872621">
        <ele>31.6</ele>
        <time>1970-01-01T00:03:30.000Z</time>
      </trkpt>
      <trkpt lat="43.285695" lon="-2.872725">
        <ele>31.6</ele>
        <time>1970-01-01T00:03:31.000Z</time>
      </trkpt>
      <trkpt lat="43.285701" lon="-2.87283">
        <ele>31.6</ele>
        <time>1970-01-01T00:03:32.000Z</time>
      </trkpt>
      <trkpt lat="43.28571" lon="-2.872933">
        <ele>30.8</ele>
        <time>1970-01-01T00:03:33.000Z</time>
      </trkpt>
      <trkpt lat="43.28572" lon="-2.873035">
        <ele>30.8</ele>
        <time>1970-01-01T00:03:34.000Z</time>
      </trkpt>
      <trkpt lat="43.285726" lon="-2.873136">
        <ele>30.8</ele>
        <time>1970-01-01T00:03:35.000Z</time>
      </trkpt>
      <trkpt lat="43.285733" lon="-2.873238">
        <ele>30</ele>
        <time>1970-01-01T00:03:36.000Z</time>
      </trkpt>
      <trkpt lat="43.28574" lon="-2.873343">
        <ele>29.8</ele>
        <time>1970-01-01T00:03:37.000Z</time>
      </trkpt>
      <trkpt lat="43.285745" lon="-2.873446">
        <ele>29.8</ele>
        <time>1970-01-01T00:03:38.000Z</time>
      </trkpt>
      <trkpt lat="43.285751" lon="-2.873551">
        <ele>29.8</ele>
        <time>1970-01-01T00:03:39.000Z</time>
      </trkpt>
      <trkpt lat="43.285756" lon="-2.873655">
        <ele>28.8</ele>
        <time>1970-01-01T00:03:40.000Z</time>
      </trkpt>
      <trkpt lat="43.285763" lon="-2.873758">
        <ele>28.8</ele>
        <time>1970-01-01T00:03:41.000Z</time>
      </trkpt>
      <trkpt lat="43.28577" lon="-2.873848">
        <ele>28.2</ele>
        <time>1970-01-01T00:03:42.000Z</time>
      </trkpt>
      <trkpt lat="43.285775" lon="-2.873926">
        <ele>28.2</ele>
        <time>1970-01-01T00:03:43.000Z</time>
      </trkpt>
      <trkpt lat="43.285778" lon="-2.874001">
        <ele>28.2</ele>
        <time>1970-01-01T00:03:44.000Z</time>
      </trkpt>
      <trkpt lat="43.285785" lon="-2.874071">
        <ele>27.8</ele>
        <time>1970-01-01T00:03:45.000Z</time>
      </trkpt>
      <trkpt lat="43.285783" lon="-2.874136">
        <ele>27.8</ele>
        <time>1970-01-01T00:03:46.000Z</time>
      </trkpt>
      <trkpt lat="43.285778" lon="-2.874195">
        <ele>27.8</ele>
        <time>1970-01-01T00:03:47.000Z</time>
      </trkpt>
      <trkpt lat="43.285755" lon="-2.874246">
        <ele>28.2</ele>
        <time>1970-01-01T00:03:48.000Z</time>
      </trkpt>
      <trkpt lat="43.285716" lon="-2.874285">
        <ele>28.2</ele>
        <time>1970-01-01T00:03:49.000Z</time>
      </trkpt>
      <trkpt lat="43.28567" lon="-2.874303">
        <ele>28.2</ele>
        <time>1970-01-01T00:03:50.000Z</time>
      </trkpt>
      <trkpt lat="43.285615" lon="-2.87431">
        <ele>28.2</ele>
        <time>1970-01-01T00:03:51.000Z</time>
      </trkpt>
      <trkpt lat="43.285555" lon="-2.874313">
        <ele>28.2</ele>
        <time>1970-01-01T00:03:52.000Z</time>
      </trkpt>
      <trkpt lat="43.285498" lon="-2.874321">
        <ele>28</ele>
        <time>1970-01-01T00:03:53.000Z</time>
      </trkpt>
      <trkpt lat="43.285438" lon="-2.874333">
        <ele>28</ele>
        <time>1970-01-01T00:03:54.000Z</time>
      </trkpt>
      <trkpt lat="43.285376" lon="-2.874346">
        <ele>28</ele>
        <time>1970-01-01T00:03:55.000Z</time>
      </trkpt>
      <trkpt lat="43.285311" lon="-2.874356">
        <ele>28</ele>
        <time>1970-01-01T00:03:56.000Z</time>
      </trkpt>
      <trkpt lat="43.285246" lon="-2.874366">
        <ele>28</ele>
        <time>1970-01-01T00:03:57.000Z</time>
      </trkpt>
      <trkpt lat="43.285178" lon="-2.874373">
        <ele>28</ele>
        <time>1970-01-01T00:03:58.000Z</time>
      </trkpt>
      <trkpt lat="43.285108" lon="-2.874386">
        <ele>28</ele>
        <time>1970-01-01T00:03:59.000Z</time>
      </trkpt>
      <trkpt lat="43.28504" lon="-2.874388">
        <ele>28</ele>
        <time>1970-01-01T00:04:00.000Z</time>
      </trkpt>
      <trkpt lat="43.284975" lon="-2.874393">
        <ele>29.4</ele>
        <time>1970-01-01T00:04:01.000Z</time>
      </trkpt>
      <trkpt lat="43.284913" lon="-2.874395">
        <ele>29.4</ele>
        <time>1970-01-01T00:04:02.000Z</time>
      </trkpt>
      <trkpt lat="43.284856" lon="-2.874401">
        <ele>29.4</ele>
        <time>1970-01-01T00:04:03.000Z</time>
      </trkpt>
      <trkpt lat="43.284803" lon="-2.874403">
        <ele>30.4</ele>
        <time>1970-01-01T00:04:04.000Z</time>
      </trkpt>
      <trkpt lat="43.28475" lon="-2.874406">
        <ele>31.2</ele>
        <time>1970-01-01T00:04:05.000Z</time>
      </trkpt>
      <trkpt lat="43.284701" lon="-2.874411">
        <ele>31.2</ele>
        <time>1970-01-01T00:04:06.000Z</time>
      </trkpt>
      <trkpt lat="43.28465" lon="-2.874413">
        <ele>31.2</ele>
        <time>1970-01-01T00:04:07.000Z</time>
      </trkpt>
      <trkpt lat="43.284596" lon="-2.874413">
        <ele>31.8</ele>
        <time>1970-01-01T00:04:08.000Z</time>
      </trkpt>
      <trkpt lat="43.284541" lon="-2.874411">
        <ele>32</ele>
        <time>1970-01-01T00:04:09.000Z</time>
      </trkpt>
      <trkpt lat="43.284488" lon="-2.874401">
        <ele>32</ele>
        <time>1970-01-01T00:04:10.000Z</time>
      </trkpt>
      <trkpt lat="43.284435" lon="-2.87438">
        <ele>32</ele>
        <time>1970-01-01T00:04:11.000Z</time>
      </trkpt>
      <trkpt lat="43.284381" lon="-2.874355">
        <ele>32</ele>
        <time>1970-01-01T00:04:12.000Z</time>
      </trkpt>
      <trkpt lat="43.28433" lon="-2.874331">
        <ele>32</ele>
        <time>1970-01-01T00:04:13.000Z</time>
      </trkpt>
      <trkpt lat="43.284276" lon="-2.874306">
        <ele>32.2</ele>
        <time>1970-01-01T00:04:14.000Z</time>
      </trkpt>
      <trkpt lat="43.284225" lon="-2.87428">
        <ele>32.2</ele>
        <time>1970-01-01T00:04:15.000Z</time>
      </trkpt>
      <trkpt lat="43.284175" lon="-2.874253">
        <ele>32.2</ele>
        <time>1970-01-01T00:04:16.000Z</time>
      </trkpt>
      <trkpt lat="43.284123" lon="-2.874226">
        <ele>31.8</ele>
        <time>1970-01-01T00:04:17.000Z</time>
      </trkpt>
      <trkpt lat="43.284073" lon="-2.874195">
        <ele>31.8</ele>
        <time>1970-01-01T00:04:18.000Z</time>
      </trkpt>
      <trkpt lat="43.284023" lon="-2.874161">
        <ele>31.8</ele>
        <time>1970-01-01T00:04:19.000Z</time>
      </trkpt>
      <trkpt lat="43.283975" lon="-2.874126">
        <ele>32.8</ele>
        <time>1970-01-01T00:04:20.000Z</time>
      </trkpt>
      <trkpt lat="43.283923" lon="-2.874096">
        <ele>33.6</ele>
        <time>1970-01-01T00:04:21.000Z</time>
      </trkpt>
      <trkpt lat="43.283873" lon="-2.874066">
        <ele>33.6</ele>
        <time>1970-01-01T00:04:22.000Z</time>
      </trkpt>
      <trkpt lat="43.283823" lon="-2.874035">
        <ele>33.6</ele>
        <time>1970-01-01T00:04:23.000Z</time>
      </trkpt>
      <trkpt lat="43.283771" lon="-2.874003">
        <ele>33.6</ele>
        <time>1970-01-01T00:04:24.000Z</time>
      </trkpt>
      <trkpt lat="43.283721" lon="-2.87397">
        <ele>32.6</ele>
        <time>1970-01-01T00:04:25.000Z</time>
      </trkpt>
      <trkpt lat="43.28367" lon="-2.873936">
        <ele>32.6</ele>
        <time>1970-01-01T00:04:26.000Z</time>
      </trkpt>
      <trkpt lat="43.283618" lon="-2.873903">
        <ele>32.6</ele>
        <time>1970-01-01T00:04:27.000Z</time>
      </trkpt>
      <trkpt lat="43.283566" lon="-2.873871">
        <ele>32.6</ele>
        <time>1970-01-01T00:04:28.000Z</time>
      </trkpt>
      <trkpt lat="43.283515" lon="-2.873841">
        <ele>32.8</ele>
        <time>1970-01-01T00:04:29.000Z</time>
      </trkpt>
      <trkpt lat="43.283465" lon="-2.873811">
        <ele>32.8</ele>
        <time>1970-01-01T00:04:30.000Z</time>
      </trkpt>
      <trkpt lat="43.283415" lon="-2.87378">
        <ele>32.8</ele>
        <time>1970-01-01T00:04:31.000Z</time>
      </trkpt>
      <trkpt lat="43.283366" lon="-2.873746">
        <ele>33.4</ele>
        <time>1970-01-01T00:04:32.000Z</time>
      </trkpt>
      <trkpt lat="43.283315" lon="-2.873721">
        <ele>33</ele>
        <time>1970-01-01T00:04:33.000Z</time>
      </trkpt>
      <trkpt lat="43.283265" lon="-2.873708">
        <ele>33</ele>
        <time>1970-01-01T00:04:34.000Z</time>
      </trkpt>
      <trkpt lat="43.283218" lon="-2.873703">
        <ele>33</ele>
        <time>1970-01-01T00:04:35.000Z</time>
      </trkpt>
      <trkpt lat="43.283173" lon="-2.873703">
        <ele>33</ele>
        <time>1970-01-01T00:04:36.000Z</time>
      </trkpt>
      <trkpt lat="43.283131" lon="-2.8737">
        <ele>34.4</ele>
        <time>1970-01-01T00:04:37.000Z</time>
      </trkpt>
      <trkpt lat="43.28309" lon="-2.873708">
        <ele>34.4</ele>
        <time>1970-01-01T00:04:38.000Z</time>
      </trkpt>
      <trkpt lat="43.283053" lon="-2.873721">
        <ele>34.4</ele>
        <time>1970-01-01T00:04:39.000Z</time>
      </trkpt>
      <trkpt lat="43.283016" lon="-2.873735">
        <ele>34.4</ele>
        <time>1970-01-01T00:04:40.000Z</time>
      </trkpt>
      <trkpt lat="43.282978" lon="-2.873753">
        <ele>35.2</ele>
        <time>1970-01-01T00:04:41.000Z</time>
      </trkpt>
      <trkpt lat="43.282945" lon="-2.87378">
        <ele>35.2</ele>
        <time>1970-01-01T00:04:42.000Z</time>
      </trkpt>
      <trkpt lat="43.28291" lon="-2.8738">
        <ele>35.2</ele>
        <time>1970-01-01T00:04:43.000Z</time>
      </trkpt>
      <trkpt lat="43.282873" lon="-2.873818">
        <ele>36.2</ele>
        <time>1970-01-01T00:04:44.000Z</time>
      </trkpt>
      <trkpt lat="43.282838" lon="-2.873838">
        <ele>36.8</ele>
        <time>1970-01-01T00:04:45.000Z</time>
      </trkpt>
      <trkpt lat="43.282803" lon="-2.873856">
        <ele>36.8</ele>
        <time>1970-01-01T00:04:46.000Z</time>
      </trkpt>
      <trkpt lat="43.282765" lon="-2.873873">
        <ele>36.8</ele>
        <time>1970-01-01T00:04:47.000Z</time>
      </trkpt>
      <trkpt lat="43.28273" lon="-2.87389">
        <ele>37.8</ele>
        <time>1970-01-01T00:04:48.000Z</time>
      </trkpt>
      <trkpt lat="43.282695" lon="-2.873908">
        <ele>37.8</ele>
        <time>1970-01-01T00:04:49.000Z</time>
      </trkpt>
      <trkpt lat="43.282658" lon="-2.873921">
        <ele>38.4</ele>
        <time>1970-01-01T00:04:50.000Z</time>
      </trkpt>
      <trkpt lat="43.282623" lon="-2.873936">
        <ele>38.4</ele>
        <time>1970-01-01T00:04:51.000Z</time>
      </trkpt>
      <trkpt lat="43.282588" lon="-2.87395">
        <ele>39.4</ele>
        <time>1970-01-01T00:04:52.000Z</time>
      </trkpt>
      <trkpt lat="43.282556" lon="-2.873966">
        <ele>40</ele>
        <time>1970-01-01T00:04:53.000Z</time>
      </trkpt>
      <trkpt lat="43.282525" lon="-2.873985">
        <ele>40</ele>
        <time>1970-01-01T00:04:54.000Z</time>
      </trkpt>
      <trkpt lat="43.282493" lon="-2.874005">
        <ele>40</ele>
        <time>1970-01-01T00:04:55.000Z</time>
      </trkpt>
      <trkpt lat="43.282461" lon="-2.874021">
        <ele>40</ele>
        <time>1970-01-01T00:04:56.000Z</time>
      </trkpt>
      <trkpt lat="43.282431" lon="-2.874043">
        <ele>41</ele>
        <time>1970-01-01T00:04:57.000Z</time>
      </trkpt>
      <trkpt lat="43.282401" lon="-2.874066">
        <ele>41</ele>
        <time>1970-01-01T00:04:58.000Z</time>
      </trkpt>
      <trkpt lat="43.282373" lon="-2.874091">
        <ele>41</ele>
        <time>1970-01-01T00:04:59.000Z</time>
      </trkpt>
      <trkpt lat="43.282345" lon="-2.874118">
        <ele>41</ele>
        <time>1970-01-01T00:05:00.000Z</time>
      </trkpt>
      <trkpt lat="43.282315" lon="-2.87414">
        <ele>41.8</ele>
        <time>1970-01-01T00:05:01.000Z</time>
      </trkpt>
      <trkpt lat="43.282283" lon="-2.87416">
        <ele>41.8</ele>
        <time>1970-01-01T00:05:02.000Z</time>
      </trkpt>
      <trkpt lat="43.282251" lon="-2.874181">
        <ele>41.8</ele>
        <time>1970-01-01T00:05:03.000Z</time>
      </trkpt>
      <trkpt lat="43.282221" lon="-2.874201">
        <ele>42.8</ele>
        <time>1970-01-01T00:05:04.000Z</time>
      </trkpt>
      <trkpt lat="43.28219" lon="-2.874218">
        <ele>43.2</ele>
        <time>1970-01-01T00:05:05.000Z</time>
      </trkpt>
      <trkpt lat="43.282158" lon="-2.874235">
        <ele>43.2</ele>
        <time>1970-01-01T00:05:06.000Z</time>
      </trkpt>
      <trkpt lat="43.282126" lon="-2.874256">
        <ele>43.2</ele>
        <time>1970-01-01T00:05:07.000Z</time>
      </trkpt>
      <trkpt lat="43.282093" lon="-2.874276">
        <ele>44</ele>
        <time>1970-01-01T00:05:08.000Z</time>
      </trkpt>
      <trkpt lat="43.28206" lon="-2.874296">
        <ele>44</ele>
        <time>1970-01-01T00:05:09.000Z</time>
      </trkpt>
      <trkpt lat="43.282028" lon="-2.874311">
        <ele>44</ele>
        <time>1970-01-01T00:05:10.000Z</time>
      </trkpt>
      <trkpt lat="43.281995" lon="-2.874325">
        <ele>44</ele>
        <time>1970-01-01T00:05:11.000Z</time>
      </trkpt>
      <trkpt lat="43.281961" lon="-2.874341">
        <ele>44.4</ele>
        <time>1970-01-01T00:05:12.000Z</time>
      </trkpt>
      <trkpt lat="43.281931" lon="-2.874361">
        <ele>44.4</ele>
        <time>1970-01-01T00:05:13.000Z</time>
      </trkpt>
      <trkpt lat="43.281898" lon="-2.874383">
        <ele>44.8</ele>
        <time>1970-01-01T00:05:14.000Z</time>
      </trkpt>
      <trkpt lat="43.281865" lon="-2.874398">
        <ele>44.8</ele>
        <time>1970-01-01T00:05:15.000Z</time>
      </trkpt>
      <trkpt lat="43.281831" lon="-2.87441">
        <ele>44.8</ele>
        <time>1970-01-01T00:05:16.000Z</time>
      </trkpt>
      <trkpt lat="43.281798" lon="-2.874426">
        <ele>45.4</ele>
        <time>1970-01-01T00:05:17.000Z</time>
      </trkpt>
      <trkpt lat="43.281765" lon="-2.874448">
        <ele>45.4</ele>
        <time>1970-01-01T00:05:18.000Z</time>
      </trkpt>
      <trkpt lat="43.281731" lon="-2.874468">
        <ele>45.4</ele>
        <time>1970-01-01T00:05:19.000Z</time>
      </trkpt>
      <trkpt lat="43.281698" lon="-2.874483">
        <ele>46.4</ele>
        <time>1970-01-01T00:05:20.000Z</time>
      </trkpt>
      <trkpt lat="43.281665" lon="-2.874496">
        <ele>46.2</ele>
        <time>1970-01-01T00:05:21.000Z</time>
      </trkpt>
      <trkpt lat="43.281631" lon="-2.874511">
        <ele>46.2</ele>
        <time>1970-01-01T00:05:22.000Z</time>
      </trkpt>
      <trkpt lat="43.281598" lon="-2.874525">
        <ele>46.2</ele>
        <time>1970-01-01T00:05:23.000Z</time>
      </trkpt>
      <trkpt lat="43.281566" lon="-2.874541">
        <ele>47.2</ele>
        <time>1970-01-01T00:05:24.000Z</time>
      </trkpt>
      <trkpt lat="43.281535" lon="-2.874561">
        <ele>47.6</ele>
        <time>1970-01-01T00:05:25.000Z</time>
      </trkpt>
      <trkpt lat="43.281503" lon="-2.874581">
        <ele>47.6</ele>
        <time>1970-01-01T00:05:26.000Z</time>
      </trkpt>
      <trkpt lat="43.281468" lon="-2.8746">
        <ele>47.6</ele>
        <time>1970-01-01T00:05:27.000Z</time>
      </trkpt>
      <trkpt lat="43.281433" lon="-2.874621">
        <ele>47.6</ele>
        <time>1970-01-01T00:05:28.000Z</time>
      </trkpt>
      <trkpt lat="43.281398" lon="-2.874641">
        <ele>48</ele>
        <time>1970-01-01T00:05:29.000Z</time>
      </trkpt>
      <trkpt lat="43.281363" lon="-2.87466">
        <ele>48</ele>
        <time>1970-01-01T00:05:30.000Z</time>
      </trkpt>
      <trkpt lat="43.281326" lon="-2.874675">
        <ele>48</ele>
        <time>1970-01-01T00:05:31.000Z</time>
      </trkpt>
      <trkpt lat="43.28129" lon="-2.87469">
        <ele>48</ele>
        <time>1970-01-01T00:05:32.000Z</time>
      </trkpt>
      <trkpt lat="43.281253" lon="-2.874703">
        <ele>48.4</ele>
        <time>1970-01-01T00:05:33.000Z</time>
      </trkpt>
      <trkpt lat="43.281216" lon="-2.874715">
        <ele>48.4</ele>
        <time>1970-01-01T00:05:34.000Z</time>
      </trkpt>
      <trkpt lat="43.28118" lon="-2.874728">
        <ele>48.4</ele>
        <time>1970-01-01T00:05:35.000Z</time>
      </trkpt>
      <trkpt lat="43.281143" lon="-2.874741">
        <ele>48.4</ele>
        <time>1970-01-01T00:05:36.000Z</time>
      </trkpt>
      <trkpt lat="43.281108" lon="-2.874756">
        <ele>49</ele>
        <time>1970-01-01T00:05:37.000Z</time>
      </trkpt>
      <trkpt lat="43.281073" lon="-2.874771">
        <ele>49</ele>
        <time>1970-01-01T00:05:38.000Z</time>
      </trkpt>
      <trkpt lat="43.28104" lon="-2.874786">
        <ele>49</ele>
        <time>1970-01-01T00:05:39.000Z</time>
      </trkpt>
      <trkpt lat="43.281005" lon="-2.874805">
        <ele>50</ele>
        <time>1970-01-01T00:05:40.000Z</time>
      </trkpt>
      <trkpt lat="43.28097" lon="-2.874821">
        <ele>50</ele>
        <time>1970-01-01T00:05:41.000Z</time>
      </trkpt>
      <trkpt lat="43.280935" lon="-2.874845">
        <ele>50</ele>
        <time>1970-01-01T00:05:42.000Z</time>
      </trkpt>
      <trkpt lat="43.280901" lon="-2.874868">
        <ele>50</ele>
        <time>1970-01-01T00:05:43.000Z</time>
      </trkpt>
      <trkpt lat="43.280866" lon="-2.874891">
        <ele>50</ele>
        <time>1970-01-01T00:05:44.000Z</time>
      </trkpt>
      <trkpt lat="43.280833" lon="-2.874913">
        <ele>50</ele>
        <time>1970-01-01T00:05:45.000Z</time>
      </trkpt>
      <trkpt lat="43.280798" lon="-2.874936">
        <ele>51</ele>
        <time>1970-01-01T00:05:46.000Z</time>
      </trkpt>
      <trkpt lat="43.280763" lon="-2.87496">
        <ele>51</ele>
        <time>1970-01-01T00:05:47.000Z</time>
      </trkpt>
      <trkpt lat="43.280728" lon="-2.874983">
        <ele>51.6</ele>
        <time>1970-01-01T00:05:48.000Z</time>
      </trkpt>
      <trkpt lat="43.280693" lon="-2.875006">
        <ele>51.2</ele>
        <time>1970-01-01T00:05:49.000Z</time>
      </trkpt>
      <trkpt lat="43.28066" lon="-2.87503">
        <ele>51.2</ele>
        <time>1970-01-01T00:05:50.000Z</time>
      </trkpt>
      <trkpt lat="43.280625" lon="-2.875051">
        <ele>51.2</ele>
        <time>1970-01-01T00:05:51.000Z</time>
      </trkpt>
      <trkpt lat="43.28059" lon="-2.875073">
        <ele>51.2</ele>
        <time>1970-01-01T00:05:52.000Z</time>
      </trkpt>
      <trkpt lat="43.280555" lon="-2.875095">
        <ele>52.4</ele>
        <time>1970-01-01T00:05:53.000Z</time>
      </trkpt>
      <trkpt lat="43.28052" lon="-2.875116">
        <ele>52.4</ele>
        <time>1970-01-01T00:05:54.000Z</time>
      </trkpt>
      <trkpt lat="43.280486" lon="-2.875141">
        <ele>52.4</ele>
        <time>1970-01-01T00:05:55.000Z</time>
      </trkpt>
      <trkpt lat="43.280451" lon="-2.875166">
        <ele>53</ele>
        <time>1970-01-01T00:05:56.000Z</time>
      </trkpt>
      <trkpt lat="43.280418" lon="-2.87519">
        <ele>53.4</ele>
        <time>1970-01-01T00:05:57.000Z</time>
      </trkpt>
      <trkpt lat="43.280386" lon="-2.875216">
        <ele>53.4</ele>
        <time>1970-01-01T00:05:58.000Z</time>
      </trkpt>
      <trkpt lat="43.280355" lon="-2.875248">
        <ele>53.4</ele>
        <time>1970-01-01T00:05:59.000Z</time>
      </trkpt>
      <trkpt lat="43.280325" lon="-2.87528">
        <ele>54</ele>
        <time>1970-01-01T00:06:00.000Z</time>
      </trkpt>
      <trkpt lat="43.280296" lon="-2.875315">
        <ele>54.4</ele>
        <time>1970-01-01T00:06:01.000Z</time>
      </trkpt>
      <trkpt lat="43.280268" lon="-2.87535">
        <ele>54.4</ele>
        <time>1970-01-01T00:06:02.000Z</time>
      </trkpt>
      <trkpt lat="43.280243" lon="-2.875386">
        <ele>54.4</ele>
        <time>1970-01-01T00:06:03.000Z</time>
      </trkpt>
      <trkpt lat="43.28022" lon="-2.875426">
        <ele>54.4</ele>
        <time>1970-01-01T00:06:04.000Z</time>
      </trkpt>
      <trkpt lat="43.280195" lon="-2.875466">
        <ele>55</ele>
        <time>1970-01-01T00:06:05.000Z</time>
      </trkpt>
      <trkpt lat="43.280173" lon="-2.875508">
        <ele>55</ele>
        <time>1970-01-01T00:06:06.000Z</time>
      </trkpt>
      <trkpt lat="43.280153" lon="-2.875551">
        <ele>55</ele>
        <time>1970-01-01T00:06:07.000Z</time>
      </trkpt>
      <trkpt lat="43.280131" lon="-2.875595">
        <ele>55.8</ele>
        <time>1970-01-01T00:06:08.000Z</time>
      </trkpt>
      <trkpt lat="43.280113" lon="-2.875638">
        <ele>56</ele>
        <time>1970-01-01T00:06:09.000Z</time>
      </trkpt>
      <trkpt lat="43.280095" lon="-2.87568">
        <ele>56</ele>
        <time>1970-01-01T00:06:10.000Z</time>
      </trkpt>
      <trkpt lat="43.280075" lon="-2.875726">
        <ele>56</ele>
        <time>1970-01-01T00:06:11.000Z</time>
      </trkpt>
      <trkpt lat="43.280058" lon="-2.875773">
        <ele>56</ele>
        <time>1970-01-01T00:06:12.000Z</time>
      </trkpt>
      <trkpt lat="43.28004" lon="-2.875818">
        <ele>56.8</ele>
        <time>1970-01-01T00:06:13.000Z</time>
      </trkpt>
      <trkpt lat="43.280023" lon="-2.875861">
        <ele>56.8</ele>
        <time>1970-01-01T00:06:14.000Z</time>
      </trkpt>
      <trkpt lat="43.280006" lon="-2.875906">
        <ele>56.8</ele>
        <time>1970-01-01T00:06:15.000Z</time>
      </trkpt>
      <trkpt lat="43.279991" lon="-2.875951">
        <ele>56.8</ele>
        <time>1970-01-01T00:06:16.000Z</time>
      </trkpt>
      <trkpt lat="43.279978" lon="-2.875996">
        <ele>57.8</ele>
        <time>1970-01-01T00:06:17.000Z</time>
      </trkpt>
      <trkpt lat="43.279965" lon="-2.876045">
        <ele>57.8</ele>
        <time>1970-01-01T00:06:18.000Z</time>
      </trkpt>
      <trkpt lat="43.279955" lon="-2.876091">
        <ele>57.8</ele>
        <time>1970-01-01T00:06:19.000Z</time>
      </trkpt>
      <trkpt lat="43.279943" lon="-2.876138">
        <ele>58.8</ele>
        <time>1970-01-01T00:06:20.000Z</time>
      </trkpt>
      <trkpt lat="43.279933" lon="-2.876183">
        <ele>58.8</ele>
        <time>1970-01-01T00:06:21.000Z</time>
      </trkpt>
      <trkpt lat="43.279923" lon="-2.876228">
        <ele>58.8</ele>
        <time>1970-01-01T00:06:22.000Z</time>
      </trkpt>
      <trkpt lat="43.279915" lon="-2.876271">
        <ele>58.8</ele>
        <time>1970-01-01T00:06:23.000Z</time>
      </trkpt>
      <trkpt lat="43.27991" lon="-2.876316">
        <ele>59.8</ele>
        <time>1970-01-01T00:06:24.000Z</time>
      </trkpt>
      <trkpt lat="43.279905" lon="-2.876356">
        <ele>61.2</ele>
        <time>1970-01-01T00:06:25.000Z</time>
      </trkpt>
      <trkpt lat="43.279898" lon="-2.876398">
        <ele>61.2</ele>
        <time>1970-01-01T00:06:26.000Z</time>
      </trkpt>
      <trkpt lat="43.279891" lon="-2.87644">
        <ele>61.2</ele>
        <time>1970-01-01T00:06:27.000Z</time>
      </trkpt>
      <trkpt lat="43.279886" lon="-2.876481">
        <ele>61.2</ele>
        <time>1970-01-01T00:06:28.000Z</time>
      </trkpt>
      <trkpt lat="43.279881" lon="-2.876521">
        <ele>63</ele>
        <time>1970-01-01T00:06:29.000Z</time>
      </trkpt>
      <trkpt lat="43.27987" lon="-2.876556">
        <ele>63</ele>
        <time>1970-01-01T00:06:30.000Z</time>
      </trkpt>
      <trkpt lat="43.27986" lon="-2.876595">
        <ele>63</ele>
        <time>1970-01-01T00:06:31.000Z</time>
      </trkpt>
      <trkpt lat="43.279845" lon="-2.87663">
        <ele>63.8</ele>
        <time>1970-01-01T00:06:32.000Z</time>
      </trkpt>
      <trkpt lat="43.279826" lon="-2.876661">
        <ele>63.8</ele>
        <time>1970-01-01T00:06:33.000Z</time>
      </trkpt>
      <trkpt lat="43.279808" lon="-2.876693">
        <ele>63.8</ele>
        <time>1970-01-01T00:06:34.000Z</time>
      </trkpt>
      <trkpt lat="43.279795" lon="-2.876733">
        <ele>63.8</ele>
        <time>1970-01-01T00:06:35.000Z</time>
      </trkpt>
      <trkpt lat="43.279783" lon="-2.876773">
        <ele>64.8</ele>
        <time>1970-01-01T00:06:36.000Z</time>
      </trkpt>
      <trkpt lat="43.279765" lon="-2.876808">
        <ele>65.2</ele>
        <time>1970-01-01T00:06:37.000Z</time>
      </trkpt>
      <trkpt lat="43.279743" lon="-2.876841">
        <ele>65.2</ele>
        <time>1970-01-01T00:06:38.000Z</time>
      </trkpt>
      <trkpt lat="43.27972" lon="-2.876873">
        <ele>65.2</ele>
        <time>1970-01-01T00:06:39.000Z</time>
      </trkpt>
      <trkpt lat="43.279695" lon="-2.876908">
        <ele>66</ele>
        <time>1970-01-01T00:06:40.000Z</time>
      </trkpt>
      <trkpt lat="43.279668" lon="-2.876941">
        <ele>65.8</ele>
        <time>1970-01-01T00:06:41.000Z</time>
      </trkpt>
      <trkpt lat="43.279641" lon="-2.876975">
        <ele>65.8</ele>
        <time>1970-01-01T00:06:42.000Z</time>
      </trkpt>
      <trkpt lat="43.279613" lon="-2.877006">
        <ele>65.8</ele>
        <time>1970-01-01T00:06:43.000Z</time>
      </trkpt>
      <trkpt lat="43.279583" lon="-2.877041">
        <ele>65.8</ele>
        <time>1970-01-01T00:06:44.000Z</time>
      </trkpt>
      <trkpt lat="43.279551" lon="-2.877078">
        <ele>65.8</ele>
        <time>1970-01-01T00:06:45.000Z</time>
      </trkpt>
      <trkpt lat="43.27952" lon="-2.877118">
        <ele>65.8</ele>
        <time>1970-01-01T00:06:46.000Z</time>
      </trkpt>
      <trkpt lat="43.279481" lon="-2.877153">
        <ele>65.2</ele>
        <time>1970-01-01T00:06:47.000Z</time>
      </trkpt>
      <trkpt lat="43.27944" lon="-2.877186">
        <ele>64.8</ele>
        <time>1970-01-01T00:06:48.000Z</time>
      </trkpt>
      <trkpt lat="43.279395" lon="-2.877218">
        <ele>64.6</ele>
        <time>1970-01-01T00:06:49.000Z</time>
      </trkpt>
      <trkpt lat="43.27935" lon="-2.87725">
        <ele>64.6</ele>
        <time>1970-01-01T00:06:50.000Z</time>
      </trkpt>
      <trkpt lat="43.279305" lon="-2.877285">
        <ele>64.6</ele>
        <time>1970-01-01T00:06:51.000Z</time>
      </trkpt>
      <trkpt lat="43.27926" lon="-2.87732">
        <ele>64.4</ele>
        <time>1970-01-01T00:06:52.000Z</time>
      </trkpt>
      <trkpt lat="43.279216" lon="-2.877353">
        <ele>64.6</ele>
        <time>1970-01-01T00:06:53.000Z</time>
      </trkpt>
      <trkpt lat="43.279176" lon="-2.877386">
        <ele>64.6</ele>
        <time>1970-01-01T00:06:54.000Z</time>
      </trkpt>
      <trkpt lat="43.279141" lon="-2.877423">
        <ele>64.6</ele>
        <time>1970-01-01T00:06:55.000Z</time>
      </trkpt>
      <trkpt lat="43.279115" lon="-2.877458">
        <ele>65.6</ele>
        <time>1970-01-01T00:06:56.000Z</time>
      </trkpt>
      <trkpt lat="43.279096" lon="-2.877496">
        <ele>66</ele>
        <time>1970-01-01T00:06:57.000Z</time>
      </trkpt>
      <trkpt lat="43.279083" lon="-2.877538">
        <ele>66</ele>
        <time>1970-01-01T00:06:58.000Z</time>
      </trkpt>
      <trkpt lat="43.279071" lon="-2.877576">
        <ele>66</ele>
        <time>1970-01-01T00:06:59.000Z</time>
      </trkpt>
      <trkpt lat="43.279061" lon="-2.877615">
        <ele>66.8</ele>
        <time>1970-01-01T00:07:00.000Z</time>
      </trkpt>
      <trkpt lat="43.279053" lon="-2.877651">
        <ele>66.8</ele>
        <time>1970-01-01T00:07:01.000Z</time>
      </trkpt>
      <trkpt lat="43.279045" lon="-2.87769">
        <ele>66.8</ele>
        <time>1970-01-01T00:07:02.000Z</time>
      </trkpt>
      <trkpt lat="43.279038" lon="-2.877725">
        <ele>66.8</ele>
        <time>1970-01-01T00:07:03.000Z</time>
      </trkpt>
      <trkpt lat="43.279031" lon="-2.87776">
        <ele>66.8</ele>
        <time>1970-01-01T00:07:04.000Z</time>
      </trkpt>
      <trkpt lat="43.279026" lon="-2.877798">
        <ele>68.8</ele>
        <time>1970-01-01T00:07:05.000Z</time>
      </trkpt>
      <trkpt lat="43.279023" lon="-2.877835">
        <ele>68.8</ele>
        <time>1970-01-01T00:07:06.000Z</time>
      </trkpt>
      <trkpt lat="43.279016" lon="-2.877871">
        <ele>68.8</ele>
        <time>1970-01-01T00:07:07.000Z</time>
      </trkpt>
      <trkpt lat="43.27901" lon="-2.877908">
        <ele>69.8</ele>
        <time>1970-01-01T00:07:08.000Z</time>
      </trkpt>
      <trkpt lat="43.279005" lon="-2.877945">
        <ele>69.8</ele>
        <time>1970-01-01T00:07:09.000Z</time>
      </trkpt>
      <trkpt lat="43.279001" lon="-2.877981">
        <ele>70.4</ele>
        <time>1970-01-01T00:07:10.000Z</time>
      </trkpt>
      <trkpt lat="43.278998" lon="-2.878018">
        <ele>70.4</ele>
        <time>1970-01-01T00:07:11.000Z</time>
      </trkpt>
      <trkpt lat="43.278996" lon="-2.878055">
        <ele>71</ele>
        <time>1970-01-01T00:07:12.000Z</time>
      </trkpt>
      <trkpt lat="43.278996" lon="-2.878088">
        <ele>71.6</ele>
        <time>1970-01-01T00:07:13.000Z</time>
      </trkpt>
      <trkpt lat="43.278996" lon="-2.878123">
        <ele>71.6</ele>
        <time>1970-01-01T00:07:14.000Z</time>
      </trkpt>
      <trkpt lat="43.278996" lon="-2.878155">
        <ele>71.6</ele>
        <time>1970-01-01T00:07:15.000Z</time>
      </trkpt>
      <trkpt lat="43.278996" lon="-2.878185">
        <ele>72.6</ele>
        <time>1970-01-01T00:07:16.000Z</time>
      </trkpt>
      <trkpt lat="43.279" lon="-2.878218">
        <ele>73.2</ele>
        <time>1970-01-01T00:07:17.000Z</time>
      </trkpt>
      <trkpt lat="43.279" lon="-2.87825">
        <ele>73.2</ele>
        <time>1970-01-01T00:07:18.000Z</time>
      </trkpt>
      <trkpt lat="43.279" lon="-2.878281">
        <ele>73.2</ele>
        <time>1970-01-01T00:07:19.000Z</time>
      </trkpt>
      <trkpt lat="43.279006" lon="-2.878315">
        <ele>73.2</ele>
        <time>1970-01-01T00:07:20.000Z</time>
      </trkpt>
      <trkpt lat="43.27901" lon="-2.878348">
        <ele>73.8</ele>
        <time>1970-01-01T00:07:21.000Z</time>
      </trkpt>
      <trkpt lat="43.279013" lon="-2.878381">
        <ele>73.8</ele>
        <time>1970-01-01T00:07:22.000Z</time>
      </trkpt>
      <trkpt lat="43.279015" lon="-2.878415">
        <ele>73.8</ele>
        <time>1970-01-01T00:07:23.000Z</time>
      </trkpt>
      <trkpt lat="43.279018" lon="-2.878448">
        <ele>74.6</ele>
        <time>1970-01-01T00:07:24.000Z</time>
      </trkpt>
      <trkpt lat="43.279018" lon="-2.878483">
        <ele>74.6</ele>
        <time>1970-01-01T00:07:25.000Z</time>
      </trkpt>
      <trkpt lat="43.279016" lon="-2.878518">
        <ele>75</ele>
        <time>1970-01-01T00:07:26.000Z</time>
      </trkpt>
      <trkpt lat="43.279015" lon="-2.878553">
        <ele>75</ele>
        <time>1970-01-01T00:07:27.000Z</time>
      </trkpt>
      <trkpt lat="43.279016" lon="-2.878588">
        <ele>75.8</ele>
        <time>1970-01-01T00:07:28.000Z</time>
      </trkpt>
      <trkpt lat="43.279021" lon="-2.878623">
        <ele>76</ele>
        <time>1970-01-01T00:07:29.000Z</time>
      </trkpt>
      <trkpt lat="43.279026" lon="-2.878656">
        <ele>76</ele>
        <time>1970-01-01T00:07:30.000Z</time>
      </trkpt>
      <trkpt lat="43.27903" lon="-2.878688">
        <ele>76</ele>
        <time>1970-01-01T00:07:31.000Z</time>
      </trkpt>
      <trkpt lat="43.279031" lon="-2.878721">
        <ele>77</ele>
        <time>1970-01-01T00:07:32.000Z</time>
      </trkpt>
      <trkpt lat="43.279033" lon="-2.878753">
        <ele>78.8</ele>
        <time>1970-01-01T00:07:33.000Z</time>
      </trkpt>
      <trkpt lat="43.279036" lon="-2.878786">
        <ele>78.8</ele>
        <time>1970-01-01T00:07:34.000Z</time>
      </trkpt>
      <trkpt lat="43.27904" lon="-2.878818">
        <ele>78.8</ele>
        <time>1970-01-01T00:07:35.000Z</time>
      </trkpt>
      <trkpt lat="43.279041" lon="-2.878848">
        <ele>79.6</ele>
        <time>1970-01-01T00:07:36.000Z</time>
      </trkpt>
      <trkpt lat="43.27904" lon="-2.878878">
        <ele>79.8</ele>
        <time>1970-01-01T00:07:37.000Z</time>
      </trkpt>
      <trkpt lat="43.279038" lon="-2.878908">
        <ele>79.8</ele>
        <time>1970-01-01T00:07:38.000Z</time>
      </trkpt>
      <trkpt lat="43.279033" lon="-2.87894">
        <ele>79.8</ele>
        <time>1970-01-01T00:07:39.000Z</time>
      </trkpt>
      <trkpt lat="43.279028" lon="-2.878973">
        <ele>80.8</ele>
        <time>1970-01-01T00:07:40.000Z</time>
      </trkpt>
      <trkpt lat="43.279025" lon="-2.879003">
        <ele>81.6</ele>
        <time>1970-01-01T00:07:41.000Z</time>
      </trkpt>
      <trkpt lat="43.279026" lon="-2.879028">
        <ele>81.6</ele>
        <time>1970-01-01T00:07:42.000Z</time>
      </trkpt>
      <trkpt lat="43.279026" lon="-2.87906">
        <ele>81.6</ele>
        <time>1970-01-01T00:07:43.000Z</time>
      </trkpt>
      <trkpt lat="43.279026" lon="-2.87909">
        <ele>82.6</ele>
        <time>1970-01-01T00:07:44.000Z</time>
      </trkpt>
      <trkpt lat="43.279025" lon="-2.879121">
        <ele>83.2</ele>
        <time>1970-01-01T00:07:45.000Z</time>
      </trkpt>
      <trkpt lat="43.279025" lon="-2.87915">
        <ele>83.2</ele>
        <time>1970-01-01T00:07:46.000Z</time>
      </trkpt>
      <trkpt lat="43.279025" lon="-2.879173">
        <ele>83.2</ele>
        <time>1970-01-01T00:07:47.000Z</time>
      </trkpt>
      <trkpt lat="43.279026" lon="-2.8792">
        <ele>84.2</ele>
        <time>1970-01-01T00:07:48.000Z</time>
      </trkpt>
      <trkpt lat="43.279025" lon="-2.879226">
        <ele>85</ele>
        <time>1970-01-01T00:07:49.000Z</time>
      </trkpt>
      <trkpt lat="43.279026" lon="-2.87925">
        <ele>85</ele>
        <time>1970-01-01T00:07:50.000Z</time>
      </trkpt>
      <trkpt lat="43.279025" lon="-2.879273">
        <ele>85</ele>
        <time>1970-01-01T00:07:51.000Z</time>
      </trkpt>
      <trkpt lat="43.27902" lon="-2.879298">
        <ele>86</ele>
        <time>1970-01-01T00:07:52.000Z</time>
      </trkpt>
      <trkpt lat="43.279016" lon="-2.879325">
        <ele>86.6</ele>
        <time>1970-01-01T00:07:53.000Z</time>
      </trkpt>
      <trkpt lat="43.279011" lon="-2.879346">
        <ele>86.6</ele>
        <time>1970-01-01T00:07:54.000Z</time>
      </trkpt>
      <trkpt lat="43.279001" lon="-2.879366">
        <ele>86.6</ele>
        <time>1970-01-01T00:07:55.000Z</time>
      </trkpt>
      <trkpt lat="43.278988" lon="-2.879386">
        <ele>87.6</ele>
        <time>1970-01-01T00:07:56.000Z</time>
      </trkpt>
      <trkpt lat="43.278975" lon="-2.879403">
        <ele>87.8</ele>
        <time>1970-01-01T00:07:57.000Z</time>
      </trkpt>
      <trkpt lat="43.278956" lon="-2.879416">
        <ele>87.8</ele>
        <time>1970-01-01T00:07:58.000Z</time>
      </trkpt>
      <trkpt lat="43.278936" lon="-2.879426">
        <ele>87.8</ele>
        <time>1970-01-01T00:07:59.000Z</time>
      </trkpt>
      <trkpt lat="43.27892" lon="-2.879446">
        <ele>87.8</ele>
        <time>1970-01-01T00:08:00.000Z</time>
      </trkpt>
      <trkpt lat="43.278911" lon="-2.879471">
        <ele>89</ele>
        <time>1970-01-01T00:08:01.000Z</time>
      </trkpt>
      <trkpt lat="43.278901" lon="-2.879491">
        <ele>89</ele>
        <time>1970-01-01T00:08:02.000Z</time>
      </trkpt>
      <trkpt lat="43.278886" lon="-2.87951">
        <ele>89</ele>
        <time>1970-01-01T00:08:03.000Z</time>
      </trkpt>
      <trkpt lat="43.278871" lon="-2.879521">
        <ele>89</ele>
        <time>1970-01-01T00:08:04.000Z</time>
      </trkpt>
      <trkpt lat="43.278855" lon="-2.879528">
        <ele>90.6</ele>
        <time>1970-01-01T00:08:05.000Z</time>
      </trkpt>
      <trkpt lat="43.278838" lon="-2.879525">
        <ele>90.6</ele>
        <time>1970-01-01T00:08:06.000Z</time>
      </trkpt>
      <trkpt lat="43.27882" lon="-2.87953">
        <ele>90.6</ele>
        <time>1970-01-01T00:08:07.000Z</time>
      </trkpt>
      <trkpt lat="43.278806" lon="-2.879538">
        <ele>90.6</ele>
        <time>1970-01-01T00:08:08.000Z</time>
      </trkpt>
      <trkpt lat="43.278795" lon="-2.879556">
        <ele>91.8</ele>
        <time>1970-01-01T00:08:09.000Z</time>
      </trkpt>
      <trkpt lat="43.27879" lon="-2.879571">
        <ele>91.8</ele>
        <time>1970-01-01T00:08:10.000Z</time>
      </trkpt>
      <trkpt lat="43.278781" lon="-2.879591">
        <ele>91.8</ele>
        <time>1970-01-01T00:08:11.000Z</time>
      </trkpt>
      <trkpt lat="43.278768" lon="-2.879605">
        <ele>91.8</ele>
        <time>1970-01-01T00:08:12.000Z</time>
      </trkpt>
      <trkpt lat="43.278751" lon="-2.879616">
        <ele>92.8</ele>
        <time>1970-01-01T00:08:13.000Z</time>
      </trkpt>
      <trkpt lat="43.278735" lon="-2.879626">
        <ele>92.8</ele>
        <time>1970-01-01T00:08:14.000Z</time>
      </trkpt>
      <trkpt lat="43.278718" lon="-2.879631">
        <ele>92.8</ele>
        <time>1970-01-01T00:08:15.000Z</time>
      </trkpt>
      <trkpt lat="43.278701" lon="-2.879636">
        <ele>92.8</ele>
        <time>1970-01-01T00:08:16.000Z</time>
      </trkpt>
      <trkpt lat="43.278685" lon="-2.879638">
        <ele>94</ele>
        <time>1970-01-01T00:08:17.000Z</time>
      </trkpt>
      <trkpt lat="43.278668" lon="-2.879651">
        <ele>94</ele>
        <time>1970-01-01T00:08:18.000Z</time>
      </trkpt>
      <trkpt lat="43.278655" lon="-2.879668">
        <ele>94</ele>
        <time>1970-01-01T00:08:19.000Z</time>
      </trkpt>
      <trkpt lat="43.278641" lon="-2.879686">
        <ele>95</ele>
        <time>1970-01-01T00:08:20.000Z</time>
      </trkpt>
      <trkpt lat="43.278628" lon="-2.879703">
        <ele>95.6</ele>
        <time>1970-01-01T00:08:21.000Z</time>
      </trkpt>
      <trkpt lat="43.27861" lon="-2.879716">
        <ele>95.6</ele>
        <time>1970-01-01T00:08:22.000Z</time>
      </trkpt>
      <trkpt lat="43.278596" lon="-2.879735">
        <ele>95.6</ele>
        <time>1970-01-01T00:08:23.000Z</time>
      </trkpt>
      <trkpt lat="43.278581" lon="-2.879753">
        <ele>96.6</ele>
        <time>1970-01-01T00:08:24.000Z</time>
      </trkpt>
      <trkpt lat="43.278568" lon="-2.879771">
        <ele>97.2</ele>
        <time>1970-01-01T00:08:25.000Z</time>
      </trkpt>
      <trkpt lat="43.278553" lon="-2.879791">
        <ele>97.2</ele>
        <time>1970-01-01T00:08:26.000Z</time>
      </trkpt>
      <trkpt lat="43.278536" lon="-2.879806">
        <ele>97.2</ele>
        <time>1970-01-01T00:08:27.000Z</time>
      </trkpt>
      <trkpt lat="43.278521" lon="-2.879818">
        <ele>98.2</ele>
        <time>1970-01-01T00:08:28.000Z</time>
      </trkpt>
      <trkpt lat="43.278503" lon="-2.879825">
        <ele>99</ele>
        <time>1970-01-01T00:08:29.000Z</time>
      </trkpt>
      <trkpt lat="43.278488" lon="-2.879838">
        <ele>99</ele>
        <time>1970-01-01T00:08:30.000Z</time>
      </trkpt>
      <trkpt lat="43.278476" lon="-2.879851">
        <ele>99</ele>
        <time>1970-01-01T00:08:31.000Z</time>
      </trkpt>
      <trkpt lat="43.278475" lon="-2.879876">
        <ele>99</ele>
        <time>1970-01-01T00:08:32.000Z</time>
      </trkpt>
      <trkpt lat="43.278463" lon="-2.879895">
        <ele>99.8</ele>
        <time>1970-01-01T00:08:33.000Z</time>
      </trkpt>
      <trkpt lat="43.278453" lon="-2.879916">
        <ele>99.8</ele>
        <time>1970-01-01T00:08:34.000Z</time>
      </trkpt>
      <trkpt lat="43.278446" lon="-2.87994">
        <ele>99.8</ele>
        <time>1970-01-01T00:08:35.000Z</time>
      </trkpt>
      <trkpt lat="43.27844" lon="-2.879963">
        <ele>100.2</ele>
        <time>1970-01-01T00:08:36.000Z</time>
      </trkpt>
      <trkpt lat="43.278435" lon="-2.879986">
        <ele>100.6</ele>
        <time>1970-01-01T00:08:37.000Z</time>
      </trkpt>
      <trkpt lat="43.278423" lon="-2.880005">
        <ele>100.6</ele>
        <time>1970-01-01T00:08:38.000Z</time>
      </trkpt>
      <trkpt lat="43.27841" lon="-2.880021">
        <ele>100.6</ele>
        <time>1970-01-01T00:08:39.000Z</time>
      </trkpt>
      <trkpt lat="43.278396" lon="-2.880036">
        <ele>101.6</ele>
        <time>1970-01-01T00:08:40.000Z</time>
      </trkpt>
      <trkpt lat="43.278385" lon="-2.880055">
        <ele>102</ele>
        <time>1970-01-01T00:08:41.000Z</time>
      </trkpt>
      <trkpt lat="43.278368" lon="-2.88007">
        <ele>102</ele>
        <time>1970-01-01T00:08:42.000Z</time>
      </trkpt>
      <trkpt lat="43.278356" lon="-2.88009">
        <ele>102</ele>
        <time>1970-01-01T00:08:43.000Z</time>
      </trkpt>
      <trkpt lat="43.278348" lon="-2.880113">
        <ele>102</ele>
        <time>1970-01-01T00:08:44.000Z</time>
      </trkpt>
      <trkpt lat="43.27834" lon="-2.880138">
        <ele>103.2</ele>
        <time>1970-01-01T00:08:45.000Z</time>
      </trkpt>
      <trkpt lat="43.278335" lon="-2.880163">
        <ele>103.2</ele>
        <time>1970-01-01T00:08:46.000Z</time>
      </trkpt>
      <trkpt lat="43.278325" lon="-2.880188">
        <ele>103.2</ele>
        <time>1970-01-01T00:08:47.000Z</time>
      </trkpt>
      <trkpt lat="43.278313" lon="-2.880211">
        <ele>104</ele>
        <time>1970-01-01T00:08:48.000Z</time>
      </trkpt>
      <trkpt lat="43.2783" lon="-2.880231">
        <ele>104.2</ele>
        <time>1970-01-01T00:08:49.000Z</time>
      </trkpt>
      <trkpt lat="43.278285" lon="-2.880248">
        <ele>104.2</ele>
        <time>1970-01-01T00:08:50.000Z</time>
      </trkpt>
      <trkpt lat="43.278275" lon="-2.880273">
        <ele>104.2</ele>
        <time>1970-01-01T00:08:51.000Z</time>
      </trkpt>
      <trkpt lat="43.278278" lon="-2.880298">
        <ele>105</ele>
        <time>1970-01-01T00:08:52.000Z</time>
      </trkpt>
      <trkpt lat="43.278275" lon="-2.880325">
        <ele>105.6</ele>
        <time>1970-01-01T00:08:53.000Z</time>
      </trkpt>
      <trkpt lat="43.278261" lon="-2.880346">
        <ele>105.6</ele>
        <time>1970-01-01T00:08:54.000Z</time>
      </trkpt>
      <trkpt lat="43.27825" lon="-2.880368">
        <ele>105.6</ele>
        <time>1970-01-01T00:08:55.000Z</time>
      </trkpt>
      <trkpt lat="43.27824" lon="-2.880391">
        <ele>106.6</ele>
        <time>1970-01-01T00:08:56.000Z</time>
      </trkpt>
      <trkpt lat="43.278235" lon="-2.880415">
        <ele>107.2</ele>
        <time>1970-01-01T00:08:57.000Z</time>
      </trkpt>
      <trkpt lat="43.278225" lon="-2.880435">
        <ele>107.2</ele>
        <time>1970-01-01T00:08:58.000Z</time>
      </trkpt>
      <trkpt lat="43.278215" lon="-2.880451">
        <ele>107.2</ele>
        <time>1970-01-01T00:08:59.000Z</time>
      </trkpt>
      <trkpt lat="43.2782" lon="-2.880463">
        <ele>107.2</ele>
        <time>1970-01-01T00:09:00.000Z</time>
      </trkpt>
      <trkpt lat="43.278188" lon="-2.880476">
        <ele>108</ele>
        <time>1970-01-01T00:09:01.000Z</time>
      </trkpt>
      <trkpt lat="43.278181" lon="-2.880491">
        <ele>108</ele>
        <time>1970-01-01T00:09:02.000Z</time>
      </trkpt>
      <trkpt lat="43.278171" lon="-2.880508">
        <ele>108</ele>
        <time>1970-01-01T00:09:03.000Z</time>
      </trkpt>
      <trkpt lat="43.278163" lon="-2.880526">
        <ele>109</ele>
        <time>1970-01-01T00:09:04.000Z</time>
      </trkpt>
      <trkpt lat="43.278155" lon="-2.880545">
        <ele>109.2</ele>
        <time>1970-01-01T00:09:05.000Z</time>
      </trkpt>
      <trkpt lat="43.278145" lon="-2.880563">
        <ele>109.2</ele>
        <time>1970-01-01T00:09:06.000Z</time>
      </trkpt>
      <trkpt lat="43.278138" lon="-2.880581">
        <ele>109.2</ele>
        <time>1970-01-01T00:09:07.000Z</time>
      </trkpt>
      <trkpt lat="43.278135" lon="-2.880598">
        <ele>110</ele>
        <time>1970-01-01T00:09:08.000Z</time>
      </trkpt>
      <trkpt lat="43.278126" lon="-2.880616">
        <ele>110.6</ele>
        <time>1970-01-01T00:09:09.000Z</time>
      </trkpt>
      <trkpt lat="43.278121" lon="-2.880631">
        <ele>110.6</ele>
        <time>1970-01-01T00:09:10.000Z</time>
      </trkpt>
      <trkpt lat="43.27812" lon="-2.880651">
        <ele>110.6</ele>
        <time>1970-01-01T00:09:11.000Z</time>
      </trkpt>
      <trkpt lat="43.278116" lon="-2.880675">
        <ele>111.6</ele>
        <time>1970-01-01T00:09:12.000Z</time>
      </trkpt>
      <trkpt lat="43.27811" lon="-2.880696">
        <ele>111.6</ele>
        <time>1970-01-01T00:09:13.000Z</time>
      </trkpt>
      <trkpt lat="43.278105" lon="-2.880715">
        <ele>112.6</ele>
        <time>1970-01-01T00:09:14.000Z</time>
      </trkpt>
      <trkpt lat="43.278093" lon="-2.880731">
        <ele>112.6</ele>
        <time>1970-01-01T00:09:15.000Z</time>
      </trkpt>
      <trkpt lat="43.278086" lon="-2.880751">
        <ele>113.6</ele>
        <time>1970-01-01T00:09:16.000Z</time>
      </trkpt>
      <trkpt lat="43.278078" lon="-2.880768">
        <ele>114.6</ele>
        <time>1970-01-01T00:09:17.000Z</time>
      </trkpt>
      <trkpt lat="43.278071" lon="-2.880788">
        <ele>114.6</ele>
        <time>1970-01-01T00:09:18.000Z</time>
      </trkpt>
      <trkpt lat="43.27807" lon="-2.880816">
        <ele>114.6</ele>
        <time>1970-01-01T00:09:19.000Z</time>
      </trkpt>
      <trkpt lat="43.278075" lon="-2.880838">
        <ele>115.6</ele>
        <time>1970-01-01T00:09:20.000Z</time>
      </trkpt>
      <trkpt lat="43.278078" lon="-2.880863">
        <ele>115.8</ele>
        <time>1970-01-01T00:09:21.000Z</time>
      </trkpt>
      <trkpt lat="43.278086" lon="-2.880885">
        <ele>115.8</ele>
        <time>1970-01-01T00:09:22.000Z</time>
      </trkpt>
      <trkpt lat="43.27809" lon="-2.880903">
        <ele>115.8</ele>
        <time>1970-01-01T00:09:23.000Z</time>
      </trkpt>
      <trkpt lat="43.278096" lon="-2.880925">
        <ele>116.8</ele>
        <time>1970-01-01T00:09:24.000Z</time>
      </trkpt>
      <trkpt lat="43.278098" lon="-2.880945">
        <ele>117.6</ele>
        <time>1970-01-01T00:09:25.000Z</time>
      </trkpt>
      <trkpt lat="43.2781" lon="-2.880961">
        <ele>117.6</ele>
        <time>1970-01-01T00:09:26.000Z</time>
      </trkpt>
      <trkpt lat="43.278095" lon="-2.88098">
        <ele>117.6</ele>
        <time>1970-01-01T00:09:27.000Z</time>
      </trkpt>
      <trkpt lat="43.278093" lon="-2.880996">
        <ele>117.6</ele>
        <time>1970-01-01T00:09:28.000Z</time>
      </trkpt>
      <trkpt lat="43.278098" lon="-2.881016">
        <ele>119.2</ele>
        <time>1970-01-01T00:09:29.000Z</time>
      </trkpt>
      <trkpt lat="43.27811" lon="-2.881035">
        <ele>119.2</ele>
        <time>1970-01-01T00:09:30.000Z</time>
      </trkpt>
      <trkpt lat="43.278123" lon="-2.88105">
        <ele>119.2</ele>
        <time>1970-01-01T00:09:31.000Z</time>
      </trkpt>
      <trkpt lat="43.278135" lon="-2.88106">
        <ele>119.2</ele>
        <time>1970-01-01T00:09:32.000Z</time>
      </trkpt>
      <trkpt lat="43.278151" lon="-2.881075">
        <ele>119.8</ele>
        <time>1970-01-01T00:09:33.000Z</time>
      </trkpt>
      <trkpt lat="43.278161" lon="-2.881091">
        <ele>119.8</ele>
        <time>1970-01-01T00:09:34.000Z</time>
      </trkpt>
      <trkpt lat="43.278166" lon="-2.881113">
        <ele>119.8</ele>
        <time>1970-01-01T00:09:35.000Z</time>
      </trkpt>
      <trkpt lat="43.27817" lon="-2.881131">
        <ele>120.8</ele>
        <time>1970-01-01T00:09:36.000Z</time>
      </trkpt>
      <trkpt lat="43.278165" lon="-2.881151">
        <ele>121.4</ele>
        <time>1970-01-01T00:09:37.000Z</time>
      </trkpt>
      <trkpt lat="43.278161" lon="-2.881171">
        <ele>121.4</ele>
        <time>1970-01-01T00:09:38.000Z</time>
      </trkpt>
      <trkpt lat="43.278155" lon="-2.881195">
        <ele>121.4</ele>
        <time>1970-01-01T00:09:39.000Z</time>
      </trkpt>
      <trkpt lat="43.278155" lon="-2.881213">
        <ele>122.4</ele>
        <time>1970-01-01T00:09:40.000Z</time>
      </trkpt>
      <trkpt lat="43.278153" lon="-2.881231">
        <ele>122.4</ele>
        <time>1970-01-01T00:09:41.000Z</time>
      </trkpt>
      <trkpt lat="43.278158" lon="-2.881248">
        <ele>122.6</ele>
        <time>1970-01-01T00:09:42.000Z</time>
      </trkpt>
      <trkpt lat="43.27817" lon="-2.881263">
        <ele>122.6</ele>
        <time>1970-01-01T00:09:43.000Z</time>
      </trkpt>
      <trkpt lat="43.278183" lon="-2.881278">
        <ele>123</ele>
        <time>1970-01-01T00:09:44.000Z</time>
      </trkpt>
      <trkpt lat="43.278191" lon="-2.8813">
        <ele>123.6</ele>
        <time>1970-01-01T00:09:45.000Z</time>
      </trkpt>
      <trkpt lat="43.278191" lon="-2.881321">
        <ele>123.6</ele>
        <time>1970-01-01T00:09:46.000Z</time>
      </trkpt>
      <trkpt lat="43.278181" lon="-2.88134">
        <ele>123.6</ele>
        <time>1970-01-01T00:09:47.000Z</time>
      </trkpt>
      <trkpt lat="43.27817" lon="-2.881356">
        <ele>124.6</ele>
        <time>1970-01-01T00:09:48.000Z</time>
      </trkpt>
      <trkpt lat="43.278156" lon="-2.881373">
        <ele>125.4</ele>
        <time>1970-01-01T00:09:49.000Z</time>
      </trkpt>
      <trkpt lat="43.278153" lon="-2.881395">
        <ele>125.4</ele>
        <time>1970-01-01T00:09:50.000Z</time>
      </trkpt>
      <trkpt lat="43.27815" lon="-2.881413">
        <ele>125.4</ele>
        <time>1970-01-01T00:09:51.000Z</time>
      </trkpt>
      <trkpt lat="43.278143" lon="-2.881431">
        <ele>126.2</ele>
        <time>1970-01-01T00:09:52.000Z</time>
      </trkpt>
      <trkpt lat="43.27814" lon="-2.881456">
        <ele>126</ele>
        <time>1970-01-01T00:09:53.000Z</time>
      </trkpt>
      <trkpt lat="43.278136" lon="-2.88148">
        <ele>126</ele>
        <time>1970-01-01T00:09:54.000Z</time>
      </trkpt>
      <trkpt lat="43.27813" lon="-2.8815">
        <ele>126</ele>
        <time>1970-01-01T00:09:55.000Z</time>
      </trkpt>
      <trkpt lat="43.278118" lon="-2.881518">
        <ele>127</ele>
        <time>1970-01-01T00:09:56.000Z</time>
      </trkpt>
      <trkpt lat="43.278105" lon="-2.881531">
        <ele>127.6</ele>
        <time>1970-01-01T00:09:57.000Z</time>
      </trkpt>
      <trkpt lat="43.27809" lon="-2.881545">
        <ele>127.6</ele>
        <time>1970-01-01T00:09:58.000Z</time>
      </trkpt>
      <trkpt lat="43.278073" lon="-2.881551">
        <ele>127.6</ele>
        <time>1970-01-01T00:09:59.000Z</time>
      </trkpt>
      <trkpt lat="43.278058" lon="-2.88156">
        <ele>128.6</ele>
        <time>1970-01-01T00:10:00.000Z</time>
      </trkpt>
      <trkpt lat="43.278045" lon="-2.881571">
        <ele>128.4</ele>
        <time>1970-01-01T00:10:01.000Z</time>
      </trkpt>
      <trkpt lat="43.278035" lon="-2.881586">
        <ele>128.4</ele>
        <time>1970-01-01T00:10:02.000Z</time>
      </trkpt>
      <trkpt lat="43.278023" lon="-2.881605">
        <ele>128.4</ele>
        <time>1970-01-01T00:10:03.000Z</time>
      </trkpt>
      <trkpt lat="43.278011" lon="-2.881618">
        <ele>129.4</ele>
        <time>1970-01-01T00:10:04.000Z</time>
      </trkpt>
      <trkpt lat="43.277995" lon="-2.88163">
        <ele>130.2</ele>
        <time>1970-01-01T00:10:05.000Z</time>
      </trkpt>
      <trkpt lat="43.27798" lon="-2.88163">
        <ele>130.2</ele>
        <time>1970-01-01T00:10:06.000Z</time>
      </trkpt>
      <trkpt lat="43.277966" lon="-2.881635">
        <ele>130.2</ele>
        <time>1970-01-01T00:10:07.000Z</time>
      </trkpt>
      <trkpt lat="43.277951" lon="-2.881638">
        <ele>130.2</ele>
        <time>1970-01-01T00:10:08.000Z</time>
      </trkpt>
      <trkpt lat="43.277935" lon="-2.881645">
        <ele>130.8</ele>
        <time>1970-01-01T00:10:09.000Z</time>
      </trkpt>
      <trkpt lat="43.277918" lon="-2.881653">
        <ele>130.8</ele>
        <time>1970-01-01T00:10:10.000Z</time>
      </trkpt>
      <trkpt lat="43.277901" lon="-2.881661">
        <ele>130.8</ele>
        <time>1970-01-01T00:10:11.000Z</time>
      </trkpt>
      <trkpt lat="43.277888" lon="-2.881678">
        <ele>131.6</ele>
        <time>1970-01-01T00:10:12.000Z</time>
      </trkpt>
      <trkpt lat="43.277875" lon="-2.881695">
        <ele>132</ele>
        <time>1970-01-01T00:10:13.000Z</time>
      </trkpt>
      <trkpt lat="43.27786" lon="-2.88171">
        <ele>132</ele>
        <time>1970-01-01T00:10:14.000Z</time>
      </trkpt>
      <trkpt lat="43.277843" lon="-2.881723">
        <ele>132</ele>
        <time>1970-01-01T00:10:15.000Z</time>
      </trkpt>
      <trkpt lat="43.277825" lon="-2.881733">
        <ele>132</ele>
        <time>1970-01-01T00:10:16.000Z</time>
      </trkpt>
      <trkpt lat="43.277806" lon="-2.881738">
        <ele>132.4</ele>
        <time>1970-01-01T00:10:17.000Z</time>
      </trkpt>
      <trkpt lat="43.277786" lon="-2.881741">
        <ele>132.4</ele>
        <time>1970-01-01T00:10:18.000Z</time>
      </trkpt>
      <trkpt lat="43.277768" lon="-2.881745">
        <ele>132.4</ele>
        <time>1970-01-01T00:10:19.000Z</time>
      </trkpt>
      <trkpt lat="43.27775" lon="-2.88175">
        <ele>133.2</ele>
        <time>1970-01-01T00:10:20.000Z</time>
      </trkpt>
      <trkpt lat="43.27773" lon="-2.881753">
        <ele>133.2</ele>
        <time>1970-01-01T00:10:21.000Z</time>
      </trkpt>
      <trkpt lat="43.277711" lon="-2.881756">
        <ele>133.2</ele>
        <time>1970-01-01T00:10:22.000Z</time>
      </trkpt>
      <trkpt lat="43.277695" lon="-2.881758">
        <ele>133.2</ele>
        <time>1970-01-01T00:10:23.000Z</time>
      </trkpt>
      <trkpt lat="43.277676" lon="-2.881758">
        <ele>134</ele>
        <time>1970-01-01T00:10:24.000Z</time>
      </trkpt>
      <trkpt lat="43.277656" lon="-2.88176">
        <ele>134.2</ele>
        <time>1970-01-01T00:10:25.000Z</time>
      </trkpt>
      <trkpt lat="43.277638" lon="-2.881765">
        <ele>134.2</ele>
        <time>1970-01-01T00:10:26.000Z</time>
      </trkpt>
      <trkpt lat="43.277618" lon="-2.881768">
        <ele>134.2</ele>
        <time>1970-01-01T00:10:27.000Z</time>
      </trkpt>
      <trkpt lat="43.2776" lon="-2.881771">
        <ele>134.8</ele>
        <time>1970-01-01T00:10:28.000Z</time>
      </trkpt>
      <trkpt lat="43.277583" lon="-2.881771">
        <ele>135.4</ele>
        <time>1970-01-01T00:10:29.000Z</time>
      </trkpt>
      <trkpt lat="43.277565" lon="-2.881768">
        <ele>135.4</ele>
        <time>1970-01-01T00:10:30.000Z</time>
      </trkpt>
      <trkpt lat="43.277548" lon="-2.881768">
        <ele>135.4</ele>
        <time>1970-01-01T00:10:31.000Z</time>
      </trkpt>
      <trkpt lat="43.27753" lon="-2.881773">
        <ele>135.4</ele>
        <time>1970-01-01T00:10:32.000Z</time>
      </trkpt>
      <trkpt lat="43.277511" lon="-2.881783">
        <ele>136.4</ele>
        <time>1970-01-01T00:10:33.000Z</time>
      </trkpt>
      <trkpt lat="43.277493" lon="-2.881798">
        <ele>136.4</ele>
        <time>1970-01-01T00:10:34.000Z</time>
      </trkpt>
      <trkpt lat="43.277478" lon="-2.881808">
        <ele>136.4</ele>
        <time>1970-01-01T00:10:35.000Z</time>
      </trkpt>
      <trkpt lat="43.27746" lon="-2.881813">
        <ele>137.4</ele>
        <time>1970-01-01T00:10:36.000Z</time>
      </trkpt>
      <trkpt lat="43.277441" lon="-2.881813">
        <ele>137.4</ele>
        <time>1970-01-01T00:10:37.000Z</time>
      </trkpt>
      <trkpt lat="43.277425" lon="-2.881818">
        <ele>137.4</ele>
        <time>1970-01-01T00:10:38.000Z</time>
      </trkpt>
      <trkpt lat="43.277406" lon="-2.881813">
        <ele>137.4</ele>
        <time>1970-01-01T00:10:39.000Z</time>
      </trkpt>
      <trkpt lat="43.277391" lon="-2.881813">
        <ele>138.2</ele>
        <time>1970-01-01T00:10:40.000Z</time>
      </trkpt>
      <trkpt lat="43.277371" lon="-2.881813">
        <ele>138.6</ele>
        <time>1970-01-01T00:10:41.000Z</time>
      </trkpt>
      <trkpt lat="43.277351" lon="-2.881813">
        <ele>138.6</ele>
        <time>1970-01-01T00:10:42.000Z</time>
      </trkpt>
      <trkpt lat="43.277333" lon="-2.881811">
        <ele>138.6</ele>
        <time>1970-01-01T00:10:43.000Z</time>
      </trkpt>
      <trkpt lat="43.277313" lon="-2.881813">
        <ele>139.4</ele>
        <time>1970-01-01T00:10:44.000Z</time>
      </trkpt>
      <trkpt lat="43.277296" lon="-2.881815">
        <ele>139.4</ele>
        <time>1970-01-01T00:10:45.000Z</time>
      </trkpt>
      <trkpt lat="43.277276" lon="-2.88182">
        <ele>139.4</ele>
        <time>1970-01-01T00:10:46.000Z</time>
      </trkpt>
      <trkpt lat="43.277258" lon="-2.881825">
        <ele>139.4</ele>
        <time>1970-01-01T00:10:47.000Z</time>
      </trkpt>
      <trkpt lat="43.277241" lon="-2.881826">
        <ele>140.2</ele>
        <time>1970-01-01T00:10:48.000Z</time>
      </trkpt>
      <trkpt lat="43.277225" lon="-2.881826">
        <ele>140.6</ele>
        <time>1970-01-01T00:10:49.000Z</time>
      </trkpt>
      <trkpt lat="43.277205" lon="-2.881831">
        <ele>140.6</ele>
        <time>1970-01-01T00:10:50.000Z</time>
      </trkpt>
      <trkpt lat="43.277188" lon="-2.881846">
        <ele>140.6</ele>
        <time>1970-01-01T00:10:51.000Z</time>
      </trkpt>
      <trkpt lat="43.277171" lon="-2.881861">
        <ele>141.4</ele>
        <time>1970-01-01T00:10:52.000Z</time>
      </trkpt>
      <trkpt lat="43.277155" lon="-2.88187">
        <ele>141.6</ele>
        <time>1970-01-01T00:10:53.000Z</time>
      </trkpt>
      <trkpt lat="43.277136" lon="-2.881873">
        <ele>141.6</ele>
        <time>1970-01-01T00:10:54.000Z</time>
      </trkpt>
      <trkpt lat="43.277118" lon="-2.881878">
        <ele>141.6</ele>
        <time>1970-01-01T00:10:55.000Z</time>
      </trkpt>
      <trkpt lat="43.277101" lon="-2.881891">
        <ele>142.6</ele>
        <time>1970-01-01T00:10:56.000Z</time>
      </trkpt>
      <trkpt lat="43.277085" lon="-2.881906">
        <ele>143.2</ele>
        <time>1970-01-01T00:10:57.000Z</time>
      </trkpt>
      <trkpt lat="43.277071" lon="-2.881923">
        <ele>143.2</ele>
        <time>1970-01-01T00:10:58.000Z</time>
      </trkpt>
      <trkpt lat="43.27706" lon="-2.881943">
        <ele>143.2</ele>
        <time>1970-01-01T00:10:59.000Z</time>
      </trkpt>
      <trkpt lat="43.277048" lon="-2.881958">
        <ele>144.2</ele>
        <time>1970-01-01T00:11:00.000Z</time>
      </trkpt>
      <trkpt lat="43.277033" lon="-2.881968">
        <ele>144.6</ele>
        <time>1970-01-01T00:11:01.000Z</time>
      </trkpt>
      <trkpt lat="43.277018" lon="-2.88198">
        <ele>144.6</ele>
        <time>1970-01-01T00:11:02.000Z</time>
      </trkpt>
      <trkpt lat="43.277003" lon="-2.881991">
        <ele>144.6</ele>
        <time>1970-01-01T00:11:03.000Z</time>
      </trkpt>
      <trkpt lat="43.276988" lon="-2.882005">
        <ele>144.6</ele>
        <time>1970-01-01T00:11:04.000Z</time>
      </trkpt>
      <trkpt lat="43.27698" lon="-2.88202">
        <ele>144.8</ele>
        <time>1970-01-01T00:11:05.000Z</time>
      </trkpt>
      <trkpt lat="43.276966" lon="-2.882035">
        <ele>144.8</ele>
        <time>1970-01-01T00:11:06.000Z</time>
      </trkpt>
      <trkpt lat="43.276953" lon="-2.882048">
        <ele>144.8</ele>
        <time>1970-01-01T00:11:07.000Z</time>
      </trkpt>
      <trkpt lat="43.276945" lon="-2.882065">
        <ele>145.8</ele>
        <time>1970-01-01T00:11:08.000Z</time>
      </trkpt>
      <trkpt lat="43.276936" lon="-2.882085">
        <ele>147.4</ele>
        <time>1970-01-01T00:11:09.000Z</time>
      </trkpt>
      <trkpt lat="43.276928" lon="-2.882103">
        <ele>147.4</ele>
        <time>1970-01-01T00:11:10.000Z</time>
      </trkpt>
      <trkpt lat="43.276918" lon="-2.882121">
        <ele>147.4</ele>
        <time>1970-01-01T00:11:11.000Z</time>
      </trkpt>
      <trkpt lat="43.276906" lon="-2.882138">
        <ele>147.4</ele>
        <time>1970-01-01T00:11:12.000Z</time>
      </trkpt>
      <trkpt lat="43.27689" lon="-2.882151">
        <ele>148.6</ele>
        <time>1970-01-01T00:11:13.000Z</time>
      </trkpt>
      <trkpt lat="43.276876" lon="-2.882168">
        <ele>148.6</ele>
        <time>1970-01-01T00:11:14.000Z</time>
      </trkpt>
      <trkpt lat="43.276865" lon="-2.882181">
        <ele>148.6</ele>
        <time>1970-01-01T00:11:15.000Z</time>
      </trkpt>
      <trkpt lat="43.276858" lon="-2.882198">
        <ele>148.6</ele>
        <time>1970-01-01T00:11:16.000Z</time>
      </trkpt>
      <trkpt lat="43.276846" lon="-2.882218">
        <ele>149</ele>
        <time>1970-01-01T00:11:17.000Z</time>
      </trkpt>
      <trkpt lat="43.276835" lon="-2.882236">
        <ele>149</ele>
        <time>1970-01-01T00:11:18.000Z</time>
      </trkpt>
      <trkpt lat="43.276825" lon="-2.882251">
        <ele>149</ele>
        <time>1970-01-01T00:11:19.000Z</time>
      </trkpt>
      <trkpt lat="43.276815" lon="-2.88227">
        <ele>150</ele>
        <time>1970-01-01T00:11:20.000Z</time>
      </trkpt>
      <trkpt lat="43.276806" lon="-2.882288">
        <ele>150.4</ele>
        <time>1970-01-01T00:11:21.000Z</time>
      </trkpt>
      <trkpt lat="43.276798" lon="-2.882308">
        <ele>150.4</ele>
        <time>1970-01-01T00:11:22.000Z</time>
      </trkpt>
      <trkpt lat="43.276795" lon="-2.88233">
        <ele>150.4</ele>
        <time>1970-01-01T00:11:23.000Z</time>
      </trkpt>
      <trkpt lat="43.276791" lon="-2.882355">
        <ele>151.4</ele>
        <time>1970-01-01T00:11:24.000Z</time>
      </trkpt>
      <trkpt lat="43.276795" lon="-2.882376">
        <ele>151.8</ele>
        <time>1970-01-01T00:11:25.000Z</time>
      </trkpt>
      <trkpt lat="43.276791" lon="-2.882398">
        <ele>151.8</ele>
        <time>1970-01-01T00:11:26.000Z</time>
      </trkpt>
      <trkpt lat="43.276783" lon="-2.882418">
        <ele>151.8</ele>
        <time>1970-01-01T00:11:27.000Z</time>
      </trkpt>
      <trkpt lat="43.276771" lon="-2.882436">
        <ele>152.8</ele>
        <time>1970-01-01T00:11:28.000Z</time>
      </trkpt>
      <trkpt lat="43.276761" lon="-2.882456">
        <ele>152.8</ele>
        <time>1970-01-01T00:11:29.000Z</time>
      </trkpt>
      <trkpt lat="43.276755" lon="-2.882476">
        <ele>152.8</ele>
        <time>1970-01-01T00:11:30.000Z</time>
      </trkpt>
      <trkpt lat="43.276753" lon="-2.8825">
        <ele>152.8</ele>
        <time>1970-01-01T00:11:31.000Z</time>
      </trkpt>
      <trkpt lat="43.27675" lon="-2.882523">
        <ele>152.8</ele>
        <time>1970-01-01T00:11:32.000Z</time>
      </trkpt>
      <trkpt lat="43.276748" lon="-2.882545">
        <ele>154.6</ele>
        <time>1970-01-01T00:11:33.000Z</time>
      </trkpt>
      <trkpt lat="43.276753" lon="-2.882566">
        <ele>154.6</ele>
        <time>1970-01-01T00:11:34.000Z</time>
      </trkpt>
      <trkpt lat="43.27675" lon="-2.882586">
        <ele>154.6</ele>
        <time>1970-01-01T00:11:35.000Z</time>
      </trkpt>
      <trkpt lat="43.276751" lon="-2.882608">
        <ele>155.6</ele>
        <time>1970-01-01T00:11:36.000Z</time>
      </trkpt>
      <trkpt lat="43.276756" lon="-2.882625">
        <ele>155.8</ele>
        <time>1970-01-01T00:11:37.000Z</time>
      </trkpt>
      <trkpt lat="43.276761" lon="-2.882646">
        <ele>155.8</ele>
        <time>1970-01-01T00:11:38.000Z</time>
      </trkpt>
      <trkpt lat="43.276765" lon="-2.882668">
        <ele>155.8</ele>
        <time>1970-01-01T00:11:39.000Z</time>
      </trkpt>
      <trkpt lat="43.276766" lon="-2.882688">
        <ele>156.8</ele>
        <time>1970-01-01T00:11:40.000Z</time>
      </trkpt>
      <trkpt lat="43.276766" lon="-2.88271">
        <ele>156.8</ele>
        <time>1970-01-01T00:11:41.000Z</time>
      </trkpt>
      <trkpt lat="43.276765" lon="-2.88273">
        <ele>156.4</ele>
        <time>1970-01-01T00:11:42.000Z</time>
      </trkpt>
      <trkpt lat="43.276761" lon="-2.882751">
        <ele>156.4</ele>
        <time>1970-01-01T00:11:43.000Z</time>
      </trkpt>
      <trkpt lat="43.276763" lon="-2.882771">
        <ele>157.4</ele>
        <time>1970-01-01T00:11:44.000Z</time>
      </trkpt>
      <trkpt lat="43.27676" lon="-2.882791">
        <ele>158</ele>
        <time>1970-01-01T00:11:45.000Z</time>
      </trkpt>
      <trkpt lat="43.276758" lon="-2.882813">
        <ele>158</ele>
        <time>1970-01-01T00:11:46.000Z</time>
      </trkpt>
      <trkpt lat="43.27676" lon="-2.882833">
        <ele>158</ele>
        <time>1970-01-01T00:11:47.000Z</time>
      </trkpt>
      <trkpt lat="43.27676" lon="-2.882856">
        <ele>158</ele>
        <time>1970-01-01T00:11:48.000Z</time>
      </trkpt>
      <trkpt lat="43.276753" lon="-2.88288">
        <ele>158.6</ele>
        <time>1970-01-01T00:11:49.000Z</time>
      </trkpt>
      <trkpt lat="43.276756" lon="-2.882896">
        <ele>158.6</ele>
        <time>1970-01-01T00:11:50.000Z</time>
      </trkpt>
      <trkpt lat="43.276758" lon="-2.882916">
        <ele>158.6</ele>
        <time>1970-01-01T00:11:51.000Z</time>
      </trkpt>
      <trkpt lat="43.276795" lon="-2.883125">
        <ele>159.4</ele>
        <time>1970-01-01T00:13:20.000Z</time>
      </trkpt>
      <trkpt lat="43.276785" lon="-2.883121">
        <ele>159.4</ele>
        <time>1970-01-01T00:13:21.000Z</time>
      </trkpt>
      <trkpt lat="43.27677" lon="-2.883121">
        <ele>160.8</ele>
        <time>1970-01-01T00:13:22.000Z</time>
      </trkpt>
      <trkpt lat="43.276755" lon="-2.883126">
        <ele>160.8</ele>
        <time>1970-01-01T00:13:23.000Z</time>
      </trkpt>
      <trkpt lat="43.276738" lon="-2.883136">
        <ele>159.8</ele>
        <time>1970-01-01T00:13:24.000Z</time>
      </trkpt>
      <trkpt lat="43.276725" lon="-2.88315">
        <ele>159.8</ele>
        <time>1970-01-01T00:13:25.000Z</time>
      </trkpt>
      <trkpt lat="43.276711" lon="-2.883166">
        <ele>159.6</ele>
        <time>1970-01-01T00:13:26.000Z</time>
      </trkpt>
      <trkpt lat="43.276701" lon="-2.883171">
        <ele>159.6</ele>
        <time>1970-01-01T00:13:27.000Z</time>
      </trkpt>
      <trkpt lat="43.276686" lon="-2.883176">
        <ele>160.4</ele>
        <time>1970-01-01T00:13:28.000Z</time>
      </trkpt>
      <trkpt lat="43.276671" lon="-2.883185">
        <ele>161</ele>
        <time>1970-01-01T00:13:29.000Z</time>
      </trkpt>
      <trkpt lat="43.276658" lon="-2.883196">
        <ele>161</ele>
        <time>1970-01-01T00:13:30.000Z</time>
      </trkpt>
      <trkpt lat="43.276646" lon="-2.883211">
        <ele>161</ele>
        <time>1970-01-01T00:13:31.000Z</time>
      </trkpt>
      <trkpt lat="43.276635" lon="-2.883226">
        <ele>161</ele>
        <time>1970-01-01T00:13:32.000Z</time>
      </trkpt>
      <trkpt lat="43.27662" lon="-2.88324">
        <ele>162</ele>
        <time>1970-01-01T00:13:33.000Z</time>
      </trkpt>
      <trkpt lat="43.276608" lon="-2.883255">
        <ele>162</ele>
        <time>1970-01-01T00:13:34.000Z</time>
      </trkpt>
      <trkpt lat="43.276601" lon="-2.88327">
        <ele>162</ele>
        <time>1970-01-01T00:13:35.000Z</time>
      </trkpt>
      <trkpt lat="43.276596" lon="-2.883286">
        <ele>163</ele>
        <time>1970-01-01T00:13:36.000Z</time>
      </trkpt>
      <trkpt lat="43.276583" lon="-2.883296">
        <ele>163</ele>
        <time>1970-01-01T00:13:37.000Z</time>
      </trkpt>
      <trkpt lat="43.276571" lon="-2.8833">
        <ele>163</ele>
        <time>1970-01-01T00:13:38.000Z</time>
      </trkpt>
      <trkpt lat="43.276558" lon="-2.883308">
        <ele>163</ele>
        <time>1970-01-01T00:13:39.000Z</time>
      </trkpt>
      <trkpt lat="43.276553" lon="-2.883326">
        <ele>164</ele>
        <time>1970-01-01T00:13:40.000Z</time>
      </trkpt>
      <trkpt lat="43.276548" lon="-2.883346">
        <ele>164.2</ele>
        <time>1970-01-01T00:13:41.000Z</time>
      </trkpt>
      <trkpt lat="43.276541" lon="-2.883368">
        <ele>164.2</ele>
        <time>1970-01-01T00:13:42.000Z</time>
      </trkpt>
      <trkpt lat="43.276528" lon="-2.883381">
        <ele>164.2</ele>
        <time>1970-01-01T00:13:43.000Z</time>
      </trkpt>
      <trkpt lat="43.276515" lon="-2.883395">
        <ele>165.2</ele>
        <time>1970-01-01T00:13:44.000Z</time>
      </trkpt>
      <trkpt lat="43.2765" lon="-2.883411">
        <ele>165.2</ele>
        <time>1970-01-01T00:13:45.000Z</time>
      </trkpt>
      <trkpt lat="43.276488" lon="-2.883428">
        <ele>165.2</ele>
        <time>1970-01-01T00:13:46.000Z</time>
      </trkpt>
      <trkpt lat="43.276478" lon="-2.883448">
        <ele>165.2</ele>
        <time>1970-01-01T00:13:47.000Z</time>
      </trkpt>
      <trkpt lat="43.276468" lon="-2.883465">
        <ele>165.2</ele>
        <time>1970-01-01T00:13:48.000Z</time>
      </trkpt>
      <trkpt lat="43.27646" lon="-2.883481">
        <ele>166.6</ele>
        <time>1970-01-01T00:13:49.000Z</time>
      </trkpt>
      <trkpt lat="43.27645" lon="-2.883498">
        <ele>166.6</ele>
        <time>1970-01-01T00:13:50.000Z</time>
      </trkpt>
      <trkpt lat="43.276438" lon="-2.883513">
        <ele>166.6</ele>
        <time>1970-01-01T00:13:51.000Z</time>
      </trkpt>
      <trkpt lat="43.276426" lon="-2.883533">
        <ele>167.6</ele>
        <time>1970-01-01T00:13:52.000Z</time>
      </trkpt>
      <trkpt lat="43.276416" lon="-2.88355">
        <ele>168.2</ele>
        <time>1970-01-01T00:13:53.000Z</time>
      </trkpt>
      <trkpt lat="43.276405" lon="-2.883565">
        <ele>168.2</ele>
        <time>1970-01-01T00:13:54.000Z</time>
      </trkpt>
      <trkpt lat="43.276391" lon="-2.883576">
        <ele>168.2</ele>
        <time>1970-01-01T00:13:55.000Z</time>
      </trkpt>
      <trkpt lat="43.276376" lon="-2.88359">
        <ele>168.8</ele>
        <time>1970-01-01T00:13:56.000Z</time>
      </trkpt>
      <trkpt lat="43.276365" lon="-2.883606">
        <ele>168.8</ele>
        <time>1970-01-01T00:13:57.000Z</time>
      </trkpt>
      <trkpt lat="43.276355" lon="-2.883626">
        <ele>168.8</ele>
        <time>1970-01-01T00:13:58.000Z</time>
      </trkpt>
      <trkpt lat="43.276343" lon="-2.883643">
        <ele>168.8</ele>
        <time>1970-01-01T00:13:59.000Z</time>
      </trkpt>
      <trkpt lat="43.276331" lon="-2.883658">
        <ele>169.8</ele>
        <time>1970-01-01T00:14:00.000Z</time>
      </trkpt>
      <trkpt lat="43.27632" lon="-2.883673">
        <ele>170.4</ele>
        <time>1970-01-01T00:14:01.000Z</time>
      </trkpt>
      <trkpt lat="43.276306" lon="-2.883686">
        <ele>170.4</ele>
        <time>1970-01-01T00:14:02.000Z</time>
      </trkpt>
      <trkpt lat="43.276298" lon="-2.883706">
        <ele>170.4</ele>
        <time>1970-01-01T00:14:03.000Z</time>
      </trkpt>
      <trkpt lat="43.276291" lon="-2.883725">
        <ele>171.4</ele>
        <time>1970-01-01T00:14:04.000Z</time>
      </trkpt>
      <trkpt lat="43.27628" lon="-2.883741">
        <ele>171.8</ele>
        <time>1970-01-01T00:14:05.000Z</time>
      </trkpt>
      <trkpt lat="43.276266" lon="-2.883746">
        <ele>171.8</ele>
        <time>1970-01-01T00:14:06.000Z</time>
      </trkpt>
      <trkpt lat="43.276251" lon="-2.883748">
        <ele>171.8</ele>
        <time>1970-01-01T00:14:07.000Z</time>
      </trkpt>
      <trkpt lat="43.27624" lon="-2.883763">
        <ele>171.8</ele>
        <time>1970-01-01T00:14:08.000Z</time>
      </trkpt>
      <trkpt lat="43.276233" lon="-2.883785">
        <ele>172.8</ele>
        <time>1970-01-01T00:14:09.000Z</time>
      </trkpt>
      <trkpt lat="43.276225" lon="-2.883801">
        <ele>172.8</ele>
        <time>1970-01-01T00:14:10.000Z</time>
      </trkpt>
      <trkpt lat="43.276213" lon="-2.883815">
        <ele>172.8</ele>
        <time>1970-01-01T00:14:11.000Z</time>
      </trkpt>
      <trkpt lat="43.276201" lon="-2.883826">
        <ele>173.4</ele>
        <time>1970-01-01T00:14:12.000Z</time>
      </trkpt>
      <trkpt lat="43.276188" lon="-2.883841">
        <ele>173.4</ele>
        <time>1970-01-01T00:14:13.000Z</time>
      </trkpt>
      <trkpt lat="43.276175" lon="-2.883856">
        <ele>174.2</ele>
        <time>1970-01-01T00:14:14.000Z</time>
      </trkpt>
      <trkpt lat="43.276161" lon="-2.88387">
        <ele>174.2</ele>
        <time>1970-01-01T00:14:15.000Z</time>
      </trkpt>
      <trkpt lat="43.276146" lon="-2.883881">
        <ele>175.2</ele>
        <time>1970-01-01T00:14:16.000Z</time>
      </trkpt>
      <trkpt lat="43.276136" lon="-2.883896">
        <ele>175.8</ele>
        <time>1970-01-01T00:14:17.000Z</time>
      </trkpt>
      <trkpt lat="43.276121" lon="-2.883906">
        <ele>175.8</ele>
        <time>1970-01-01T00:14:18.000Z</time>
      </trkpt>
      <trkpt lat="43.276106" lon="-2.883906">
        <ele>175.8</ele>
        <time>1970-01-01T00:14:19.000Z</time>
      </trkpt>
      <trkpt lat="43.276091" lon="-2.883911">
        <ele>176.6</ele>
        <time>1970-01-01T00:14:20.000Z</time>
      </trkpt>
      <trkpt lat="43.276076" lon="-2.883918">
        <ele>176.8</ele>
        <time>1970-01-01T00:14:21.000Z</time>
      </trkpt>
      <trkpt lat="43.276063" lon="-2.883926">
        <ele>176.8</ele>
        <time>1970-01-01T00:14:22.000Z</time>
      </trkpt>
      <trkpt lat="43.276048" lon="-2.883933">
        <ele>176.8</ele>
        <time>1970-01-01T00:14:23.000Z</time>
      </trkpt>
      <trkpt lat="43.276033" lon="-2.88394">
        <ele>176.8</ele>
        <time>1970-01-01T00:14:24.000Z</time>
      </trkpt>
      <trkpt lat="43.27602" lon="-2.883948">
        <ele>178</ele>
        <time>1970-01-01T00:14:25.000Z</time>
      </trkpt>
      <trkpt lat="43.276006" lon="-2.883958">
        <ele>178</ele>
        <time>1970-01-01T00:14:26.000Z</time>
      </trkpt>
      <trkpt lat="43.275991" lon="-2.883961">
        <ele>178</ele>
        <time>1970-01-01T00:14:27.000Z</time>
      </trkpt>
      <trkpt lat="43.275978" lon="-2.883963">
        <ele>178.6</ele>
        <time>1970-01-01T00:14:28.000Z</time>
      </trkpt>
      <trkpt lat="43.275963" lon="-2.883966">
        <ele>178.6</ele>
        <time>1970-01-01T00:14:29.000Z</time>
      </trkpt>
      <trkpt lat="43.27595" lon="-2.883973">
        <ele>179.4</ele>
        <time>1970-01-01T00:14:30.000Z</time>
      </trkpt>
      <trkpt lat="43.275936" lon="-2.883978">
        <ele>179.4</ele>
        <time>1970-01-01T00:14:31.000Z</time>
      </trkpt>
      <trkpt lat="43.275921" lon="-2.88398">
        <ele>180.4</ele>
        <time>1970-01-01T00:14:32.000Z</time>
      </trkpt>
      <trkpt lat="43.275906" lon="-2.883981">
        <ele>180.8</ele>
        <time>1970-01-01T00:14:33.000Z</time>
      </trkpt>
      <trkpt lat="43.275891" lon="-2.883985">
        <ele>180.8</ele>
        <time>1970-01-01T00:14:34.000Z</time>
      </trkpt>
      <trkpt lat="43.275878" lon="-2.883995">
        <ele>180.8</ele>
        <time>1970-01-01T00:14:35.000Z</time>
      </trkpt>
      <trkpt lat="43.275866" lon="-2.88401">
        <ele>181.8</ele>
        <time>1970-01-01T00:14:36.000Z</time>
      </trkpt>
      <trkpt lat="43.275856" lon="-2.884025">
        <ele>182.2</ele>
        <time>1970-01-01T00:14:37.000Z</time>
      </trkpt>
      <trkpt lat="43.275843" lon="-2.884031">
        <ele>182.2</ele>
        <time>1970-01-01T00:14:38.000Z</time>
      </trkpt>
      <trkpt lat="43.27583" lon="-2.884026">
        <ele>182.2</ele>
        <time>1970-01-01T00:14:39.000Z</time>
      </trkpt>
      <trkpt lat="43.275815" lon="-2.88402">
        <ele>183.2</ele>
        <time>1970-01-01T00:14:40.000Z</time>
      </trkpt>
      <trkpt lat="43.275798" lon="-2.884011">
        <ele>183.4</ele>
        <time>1970-01-01T00:14:41.000Z</time>
      </trkpt>
      <trkpt lat="43.275783" lon="-2.884013">
        <ele>183.4</ele>
        <time>1970-01-01T00:14:42.000Z</time>
      </trkpt>
      <trkpt lat="43.275768" lon="-2.88402">
        <ele>183.4</ele>
        <time>1970-01-01T00:14:43.000Z</time>
      </trkpt>
      <trkpt lat="43.275755" lon="-2.88402">
        <ele>184</ele>
        <time>1970-01-01T00:14:44.000Z</time>
      </trkpt>
      <trkpt lat="43.27574" lon="-2.884025">
        <ele>184.4</ele>
        <time>1970-01-01T00:14:45.000Z</time>
      </trkpt>
      <trkpt lat="43.275726" lon="-2.88403">
        <ele>184.4</ele>
        <time>1970-01-01T00:14:46.000Z</time>
      </trkpt>
      <trkpt lat="43.275711" lon="-2.884036">
        <ele>184.4</ele>
        <time>1970-01-01T00:14:47.000Z</time>
      </trkpt>
      <trkpt lat="43.275698" lon="-2.88404">
        <ele>184.8</ele>
        <time>1970-01-01T00:14:48.000Z</time>
      </trkpt>
      <trkpt lat="43.275683" lon="-2.884048">
        <ele>185.2</ele>
        <time>1970-01-01T00:14:49.000Z</time>
      </trkpt>
      <trkpt lat="43.27567" lon="-2.884055">
        <ele>185.2</ele>
        <time>1970-01-01T00:14:50.000Z</time>
      </trkpt>
      <trkpt lat="43.275656" lon="-2.884065">
        <ele>185.2</ele>
        <time>1970-01-01T00:14:51.000Z</time>
      </trkpt>
      <trkpt lat="43.275643" lon="-2.884075">
        <ele>185.2</ele>
        <time>1970-01-01T00:14:52.000Z</time>
      </trkpt>
      <trkpt lat="43.27564" lon="-2.884081">
        <ele>185.6</ele>
        <time>1970-01-01T00:14:53.000Z</time>
      </trkpt>
      <trkpt lat="43.27564" lon="-2.884081">
        <ele>185.6</ele>
        <time>1970-01-01T00:14:54.000Z</time>
      </trkpt>
      <trkpt lat="43.27564" lon="-2.884081">
        <ele>185.6</ele>
        <time>1970-01-01T00:14:55.000Z</time>
      </trkpt>
      <trkpt lat="43.27564" lon="-2.884081">
        <ele>185.4</ele>
        <time>1970-01-01T00:15:11.000Z</time>
      </trkpt>
      <trkpt lat="43.274973" lon="-2.884166">
        <ele>197</ele>
        <time>1970-01-01T00:16:19.000Z</time>
      </trkpt>
      <trkpt lat="43.274963" lon="-2.884166">
        <ele>197.8</ele>
        <time>1970-01-01T00:16:20.000Z</time>
      </trkpt>
      <trkpt lat="43.274951" lon="-2.884165">
        <ele>197.8</ele>
        <time>1970-01-01T00:16:21.000Z</time>
      </trkpt>
      <trkpt lat="43.274943" lon="-2.884163">
        <ele>197.8</ele>
        <time>1970-01-01T00:16:22.000Z</time>
      </trkpt>
      <trkpt lat="43.274931" lon="-2.884161">
        <ele>197.8</ele>
        <time>1970-01-01T00:16:23.000Z</time>
      </trkpt>
      <trkpt lat="43.274923" lon="-2.884163">
        <ele>198.4</ele>
        <time>1970-01-01T00:16:24.000Z</time>
      </trkpt>
      <trkpt lat="43.274911" lon="-2.884163">
        <ele>199</ele>
        <time>1970-01-01T00:16:25.000Z</time>
      </trkpt>
      <trkpt lat="43.274901" lon="-2.884166">
        <ele>199</ele>
        <time>1970-01-01T00:16:26.000Z</time>
      </trkpt>
      <trkpt lat="43.27489" lon="-2.88417">
        <ele>199</ele>
        <time>1970-01-01T00:16:27.000Z</time>
      </trkpt>
      <trkpt lat="43.27488" lon="-2.884173">
        <ele>200</ele>
        <time>1970-01-01T00:16:28.000Z</time>
      </trkpt>
      <trkpt lat="43.274868" lon="-2.884178">
        <ele>199.4</ele>
        <time>1970-01-01T00:16:29.000Z</time>
      </trkpt>
      <trkpt lat="43.274858" lon="-2.884181">
        <ele>199.4</ele>
        <time>1970-01-01T00:16:30.000Z</time>
      </trkpt>
      <trkpt lat="43.274848" lon="-2.884185">
        <ele>199.4</ele>
        <time>1970-01-01T00:16:31.000Z</time>
      </trkpt>
      <trkpt lat="43.274838" lon="-2.884188">
        <ele>199.4</ele>
        <time>1970-01-01T00:16:32.000Z</time>
      </trkpt>
      <trkpt lat="43.274828" lon="-2.88419">
        <ele>200.6</ele>
        <time>1970-01-01T00:16:33.000Z</time>
      </trkpt>
      <trkpt lat="43.274818" lon="-2.884191">
        <ele>200.6</ele>
        <time>1970-01-01T00:16:34.000Z</time>
      </trkpt>
      <trkpt lat="43.274811" lon="-2.884193">
        <ele>200.6</ele>
        <time>1970-01-01T00:16:35.000Z</time>
      </trkpt>
      <trkpt lat="43.274805" lon="-2.884191">
        <ele>200.6</ele>
        <time>1970-01-01T00:16:36.000Z</time>
      </trkpt>
      <trkpt lat="43.274805" lon="-2.884191">
        <ele>201</ele>
        <time>1970-01-01T00:16:37.000Z</time>
      </trkpt>
      <trkpt lat="43.274805" lon="-2.884191">
        <ele>200.6</ele>
        <time>1970-01-01T00:16:45.000Z</time>
      </trkpt>
      <trkpt lat="43.274805" lon="-2.884191">
        <ele>200.6</ele>
        <time>1970-01-01T00:16:46.000Z</time>
      </trkpt>
      <trkpt lat="43.274801" lon="-2.884193">
        <ele>200.6</ele>
        <time>1970-01-01T00:16:47.000Z</time>
      </trkpt>
      <trkpt lat="43.274788" lon="-2.884193">
        <ele>200.6</ele>
        <time>1970-01-01T00:16:48.000Z</time>
      </trkpt>
      <trkpt lat="43.274775" lon="-2.884196">
        <ele>201.2</ele>
        <time>1970-01-01T00:16:49.000Z</time>
      </trkpt>
      <trkpt lat="43.274756" lon="-2.8842">
        <ele>201.2</ele>
        <time>1970-01-01T00:16:50.000Z</time>
      </trkpt>
      <trkpt lat="43.27474" lon="-2.884205">
        <ele>201.2</ele>
        <time>1970-01-01T00:16:51.000Z</time>
      </trkpt>
      <trkpt lat="43.274725" lon="-2.88421">
        <ele>201.2</ele>
        <time>1970-01-01T00:16:52.000Z</time>
      </trkpt>
      <trkpt lat="43.274708" lon="-2.884218">
        <ele>201.6</ele>
        <time>1970-01-01T00:16:53.000Z</time>
      </trkpt>
      <trkpt lat="43.274691" lon="-2.884225">
        <ele>201.6</ele>
        <time>1970-01-01T00:16:54.000Z</time>
      </trkpt>
      <trkpt lat="43.274673" lon="-2.884231">
        <ele>201.6</ele>
        <time>1970-01-01T00:16:55.000Z</time>
      </trkpt>
      <trkpt lat="43.274656" lon="-2.884241">
        <ele>201.6</ele>
        <time>1970-01-01T00:16:56.000Z</time>
      </trkpt>
      <trkpt lat="43.274641" lon="-2.884245">
        <ele>201.8</ele>
        <time>1970-01-01T00:16:57.000Z</time>
      </trkpt>
      <trkpt lat="43.274623" lon="-2.884255">
        <ele>201.8</ele>
        <time>1970-01-01T00:16:58.000Z</time>
      </trkpt>
      <trkpt lat="43.274606" lon="-2.884266">
        <ele>201.8</ele>
        <time>1970-01-01T00:16:59.000Z</time>
      </trkpt>
      <trkpt lat="43.27459" lon="-2.884276">
        <ele>202.4</ele>
        <time>1970-01-01T00:17:00.000Z</time>
      </trkpt>
      <trkpt lat="43.274571" lon="-2.884283">
        <ele>202.4</ele>
        <time>1970-01-01T00:17:01.000Z</time>
      </trkpt>
      <trkpt lat="43.274553" lon="-2.884291">
        <ele>202.4</ele>
        <time>1970-01-01T00:17:02.000Z</time>
      </trkpt>
      <trkpt lat="43.274535" lon="-2.884298">
        <ele>202.4</ele>
        <time>1970-01-01T00:17:03.000Z</time>
      </trkpt>
      <trkpt lat="43.274516" lon="-2.884306">
        <ele>202.4</ele>
        <time>1970-01-01T00:17:04.000Z</time>
      </trkpt>
      <trkpt lat="43.274496" lon="-2.884313">
        <ele>202.4</ele>
        <time>1970-01-01T00:17:05.000Z</time>
      </trkpt>
      <trkpt lat="43.27448" lon="-2.884321">
        <ele>202.8</ele>
        <time>1970-01-01T00:17:06.000Z</time>
      </trkpt>
      <trkpt lat="43.274458" lon="-2.884328">
        <ele>202.8</ele>
        <time>1970-01-01T00:17:07.000Z</time>
      </trkpt>
      <trkpt lat="43.274436" lon="-2.884331">
        <ele>202.8</ele>
        <time>1970-01-01T00:17:08.000Z</time>
      </trkpt>
      <trkpt lat="43.274421" lon="-2.884338">
        <ele>203.2</ele>
        <time>1970-01-01T00:17:09.000Z</time>
      </trkpt>
      <trkpt lat="43.274406" lon="-2.884345">
        <ele>203.2</ele>
        <time>1970-01-01T00:17:10.000Z</time>
      </trkpt>
      <trkpt lat="43.274398" lon="-2.884346">
        <ele>203.2</ele>
        <time>1970-01-01T00:17:11.000Z</time>
      </trkpt>
      <trkpt lat="43.27438" lon="-2.884351">
        <ele>204.2</ele>
        <time>1970-01-01T00:17:12.000Z</time>
      </trkpt>
      <trkpt lat="43.274363" lon="-2.884358">
        <ele>204.6</ele>
        <time>1970-01-01T00:17:13.000Z</time>
      </trkpt>
      <trkpt lat="43.274348" lon="-2.884363">
        <ele>204.6</ele>
        <time>1970-01-01T00:17:14.000Z</time>
      </trkpt>
      <trkpt lat="43.274336" lon="-2.884366">
        <ele>204.6</ele>
        <time>1970-01-01T00:17:15.000Z</time>
      </trkpt>
      <trkpt lat="43.274321" lon="-2.884373">
        <ele>205.6</ele>
        <time>1970-01-01T00:17:16.000Z</time>
      </trkpt>
      <trkpt lat="43.274306" lon="-2.884375">
        <ele>206</ele>
        <time>1970-01-01T00:17:17.000Z</time>
      </trkpt>
      <trkpt lat="43.274295" lon="-2.884383">
        <ele>206</ele>
        <time>1970-01-01T00:17:18.000Z</time>
      </trkpt>
      <trkpt lat="43.274278" lon="-2.884388">
        <ele>206</ele>
        <time>1970-01-01T00:17:19.000Z</time>
      </trkpt>
      <trkpt lat="43.27426" lon="-2.884393">
        <ele>206</ele>
        <time>1970-01-01T00:17:20.000Z</time>
      </trkpt>
      <trkpt lat="43.274243" lon="-2.8844">
        <ele>207</ele>
        <time>1970-01-01T00:17:21.000Z</time>
      </trkpt>
      <trkpt lat="43.274228" lon="-2.884406">
        <ele>207</ele>
        <time>1970-01-01T00:17:22.000Z</time>
      </trkpt>
      <trkpt lat="43.274215" lon="-2.884411">
        <ele>207</ele>
        <time>1970-01-01T00:17:23.000Z</time>
      </trkpt>
      <trkpt lat="43.2742" lon="-2.884421">
        <ele>207</ele>
        <time>1970-01-01T00:17:24.000Z</time>
      </trkpt>
      <trkpt lat="43.274186" lon="-2.88443">
        <ele>208</ele>
        <time>1970-01-01T00:17:25.000Z</time>
      </trkpt>
      <trkpt lat="43.274173" lon="-2.884438">
        <ele>208</ele>
        <time>1970-01-01T00:17:26.000Z</time>
      </trkpt>
      <trkpt lat="43.274158" lon="-2.884443">
        <ele>208</ele>
        <time>1970-01-01T00:17:27.000Z</time>
      </trkpt>
      <trkpt lat="43.274145" lon="-2.884448">
        <ele>209</ele>
        <time>1970-01-01T00:17:28.000Z</time>
      </trkpt>
      <trkpt lat="43.274126" lon="-2.88446">
        <ele>209</ele>
        <time>1970-01-01T00:17:29.000Z</time>
      </trkpt>
      <trkpt lat="43.274108" lon="-2.88447">
        <ele>209.8</ele>
        <time>1970-01-01T00:17:30.000Z</time>
      </trkpt>
      <trkpt lat="43.274088" lon="-2.884483">
        <ele>209.8</ele>
        <time>1970-01-01T00:17:31.000Z</time>
      </trkpt>
      <trkpt lat="43.274073" lon="-2.884498">
        <ele>210.2</ele>
        <time>1970-01-01T00:17:32.000Z</time>
      </trkpt>
      <trkpt lat="43.274055" lon="-2.884518">
        <ele>209.8</ele>
        <time>1970-01-01T00:17:33.000Z</time>
      </trkpt>
      <trkpt lat="43.274038" lon="-2.884538">
        <ele>209.8</ele>
        <time>1970-01-01T00:17:34.000Z</time>
      </trkpt>
      <trkpt lat="43.274025" lon="-2.88456">
        <ele>209.8</ele>
        <time>1970-01-01T00:17:35.000Z</time>
      </trkpt>
      <trkpt lat="43.274006" lon="-2.884578">
        <ele>210.4</ele>
        <time>1970-01-01T00:17:36.000Z</time>
      </trkpt>
      <trkpt lat="43.273986" lon="-2.884601">
        <ele>210.6</ele>
        <time>1970-01-01T00:17:37.000Z</time>
      </trkpt>
      <trkpt lat="43.273965" lon="-2.884628">
        <ele>210.6</ele>
        <time>1970-01-01T00:17:38.000Z</time>
      </trkpt>
      <trkpt lat="43.273943" lon="-2.884658">
        <ele>210.6</ele>
        <time>1970-01-01T00:17:39.000Z</time>
      </trkpt>
      <trkpt lat="43.273921" lon="-2.884685">
        <ele>210.8</ele>
        <time>1970-01-01T00:17:40.000Z</time>
      </trkpt>
      <trkpt lat="43.273898" lon="-2.884711">
        <ele>211</ele>
        <time>1970-01-01T00:17:41.000Z</time>
      </trkpt>
      <trkpt lat="43.273878" lon="-2.884745">
        <ele>211</ele>
        <time>1970-01-01T00:17:42.000Z</time>
      </trkpt>
      <trkpt lat="43.273858" lon="-2.884776">
        <ele>211</ele>
        <time>1970-01-01T00:17:43.000Z</time>
      </trkpt>
      <trkpt lat="43.27384" lon="-2.884808">
        <ele>211.4</ele>
        <time>1970-01-01T00:17:44.000Z</time>
      </trkpt>
      <trkpt lat="43.273821" lon="-2.88484">
        <ele>211.4</ele>
        <time>1970-01-01T00:17:45.000Z</time>
      </trkpt>
      <trkpt lat="43.273803" lon="-2.884873">
        <ele>211.4</ele>
        <time>1970-01-01T00:17:46.000Z</time>
      </trkpt>
      <trkpt lat="43.273785" lon="-2.884908">
        <ele>211.4</ele>
        <time>1970-01-01T00:17:47.000Z</time>
      </trkpt>
      <trkpt lat="43.273766" lon="-2.884941">
        <ele>211.6</ele>
        <time>1970-01-01T00:17:48.000Z</time>
      </trkpt>
      <trkpt lat="43.273746" lon="-2.884973">
        <ele>211.6</ele>
        <time>1970-01-01T00:17:49.000Z</time>
      </trkpt>
      <trkpt lat="43.273728" lon="-2.885003">
        <ele>211.6</ele>
        <time>1970-01-01T00:17:50.000Z</time>
      </trkpt>
      <trkpt lat="43.273708" lon="-2.885036">
        <ele>211.6</ele>
        <time>1970-01-01T00:17:51.000Z</time>
      </trkpt>
      <trkpt lat="43.273691" lon="-2.885071">
        <ele>212</ele>
        <time>1970-01-01T00:17:52.000Z</time>
      </trkpt>
      <trkpt lat="43.273675" lon="-2.885105">
        <ele>211.8</ele>
        <time>1970-01-01T00:17:53.000Z</time>
      </trkpt>
      <trkpt lat="43.273658" lon="-2.88514">
        <ele>211.8</ele>
        <time>1970-01-01T00:17:54.000Z</time>
      </trkpt>
      <trkpt lat="43.273643" lon="-2.885175">
        <ele>211.8</ele>
        <time>1970-01-01T00:17:55.000Z</time>
      </trkpt>
      <trkpt lat="43.27363" lon="-2.88521">
        <ele>211.8</ele>
        <time>1970-01-01T00:17:56.000Z</time>
      </trkpt>
      <trkpt lat="43.273615" lon="-2.885246">
        <ele>211.8</ele>
        <time>1970-01-01T00:17:57.000Z</time>
      </trkpt>
      <trkpt lat="43.273603" lon="-2.885281">
        <ele>212.2</ele>
        <time>1970-01-01T00:17:58.000Z</time>
      </trkpt>
      <trkpt lat="43.27359" lon="-2.885318">
        <ele>212.2</ele>
        <time>1970-01-01T00:17:59.000Z</time>
      </trkpt>
      <trkpt lat="43.273578" lon="-2.885356">
        <ele>212.4</ele>
        <time>1970-01-01T00:18:00.000Z</time>
      </trkpt>
      <trkpt lat="43.273565" lon="-2.885391">
        <ele>212.8</ele>
        <time>1970-01-01T00:18:01.000Z</time>
      </trkpt>
      <trkpt lat="43.27355" lon="-2.885425">
        <ele>212.8</ele>
        <time>1970-01-01T00:18:02.000Z</time>
      </trkpt>
      <trkpt lat="43.27353" lon="-2.885451">
        <ele>212.8</ele>
        <time>1970-01-01T00:18:03.000Z</time>
      </trkpt>
      <trkpt lat="43.273513" lon="-2.885478">
        <ele>213</ele>
        <time>1970-01-01T00:18:04.000Z</time>
      </trkpt>
      <trkpt lat="43.273498" lon="-2.885505">
        <ele>213.4</ele>
        <time>1970-01-01T00:18:05.000Z</time>
      </trkpt>
      <trkpt lat="43.273478" lon="-2.885528">
        <ele>213.4</ele>
        <time>1970-01-01T00:18:06.000Z</time>
      </trkpt>
      <trkpt lat="43.273456" lon="-2.885546">
        <ele>213.4</ele>
        <time>1970-01-01T00:18:07.000Z</time>
      </trkpt>
      <trkpt lat="43.273436" lon="-2.88556">
        <ele>213.8</ele>
        <time>1970-01-01T00:18:08.000Z</time>
      </trkpt>
      <trkpt lat="43.273416" lon="-2.885576">
        <ele>214.2</ele>
        <time>1970-01-01T00:18:09.000Z</time>
      </trkpt>
      <trkpt lat="43.273396" lon="-2.885588">
        <ele>214.2</ele>
        <time>1970-01-01T00:18:10.000Z</time>
      </trkpt>
      <trkpt lat="43.273373" lon="-2.885596">
        <ele>214.2</ele>
        <time>1970-01-01T00:18:11.000Z</time>
      </trkpt>
      <trkpt lat="43.273353" lon="-2.885601">
        <ele>215.2</ele>
        <time>1970-01-01T00:18:12.000Z</time>
      </trkpt>
      <trkpt lat="43.273331" lon="-2.885605">
        <ele>215</ele>
        <time>1970-01-01T00:18:13.000Z</time>
      </trkpt>
      <trkpt lat="43.27331" lon="-2.885605">
        <ele>215</ele>
        <time>1970-01-01T00:18:14.000Z</time>
      </trkpt>
      <trkpt lat="43.273288" lon="-2.885606">
        <ele>215</ele>
        <time>1970-01-01T00:18:15.000Z</time>
      </trkpt>
      <trkpt lat="43.27327" lon="-2.885606">
        <ele>216</ele>
        <time>1970-01-01T00:18:16.000Z</time>
      </trkpt>
      <trkpt lat="43.27325" lon="-2.885606">
        <ele>216.6</ele>
        <time>1970-01-01T00:18:17.000Z</time>
      </trkpt>
      <trkpt lat="43.27323" lon="-2.885605">
        <ele>216.6</ele>
        <time>1970-01-01T00:18:18.000Z</time>
      </trkpt>
      <trkpt lat="43.273211" lon="-2.88561">
        <ele>216.6</ele>
        <time>1970-01-01T00:18:19.000Z</time>
      </trkpt>
      <trkpt lat="43.273193" lon="-2.885611">
        <ele>217.6</ele>
        <time>1970-01-01T00:18:20.000Z</time>
      </trkpt>
      <trkpt lat="43.273176" lon="-2.885608">
        <ele>217.8</ele>
        <time>1970-01-01T00:18:21.000Z</time>
      </trkpt>
      <trkpt lat="43.27316" lon="-2.885601">
        <ele>217.8</ele>
        <time>1970-01-01T00:18:22.000Z</time>
      </trkpt>
      <trkpt lat="43.273143" lon="-2.885595">
        <ele>217.8</ele>
        <time>1970-01-01T00:18:23.000Z</time>
      </trkpt>
      <trkpt lat="43.273125" lon="-2.885598">
        <ele>217.8</ele>
        <time>1970-01-01T00:18:24.000Z</time>
      </trkpt>
      <trkpt lat="43.27311" lon="-2.88561">
        <ele>219.2</ele>
        <time>1970-01-01T00:18:25.000Z</time>
      </trkpt>
      <trkpt lat="43.273096" lon="-2.885626">
        <ele>219.2</ele>
        <time>1970-01-01T00:18:26.000Z</time>
      </trkpt>
      <trkpt lat="43.273083" lon="-2.885645">
        <ele>219.2</ele>
        <time>1970-01-01T00:18:27.000Z</time>
      </trkpt>
      <trkpt lat="43.273073" lon="-2.885665">
        <ele>220.2</ele>
        <time>1970-01-01T00:18:28.000Z</time>
      </trkpt>
      <trkpt lat="43.273065" lon="-2.885685">
        <ele>220.4</ele>
        <time>1970-01-01T00:18:29.000Z</time>
      </trkpt>
      <trkpt lat="43.273056" lon="-2.885705">
        <ele>220.4</ele>
        <time>1970-01-01T00:18:30.000Z</time>
      </trkpt>
      <trkpt lat="43.273046" lon="-2.885723">
        <ele>220.4</ele>
        <time>1970-01-01T00:18:31.000Z</time>
      </trkpt>
      <trkpt lat="43.273036" lon="-2.885741">
        <ele>221.4</ele>
        <time>1970-01-01T00:18:32.000Z</time>
      </trkpt>
      <trkpt lat="43.27303" lon="-2.88576">
        <ele>222</ele>
        <time>1970-01-01T00:18:33.000Z</time>
      </trkpt>
      <trkpt lat="43.273026" lon="-2.88578">
        <ele>222</ele>
        <time>1970-01-01T00:18:34.000Z</time>
      </trkpt>
      <trkpt lat="43.273021" lon="-2.885801">
        <ele>222</ele>
        <time>1970-01-01T00:18:35.000Z</time>
      </trkpt>
      <trkpt lat="43.273015" lon="-2.885825">
        <ele>223</ele>
        <time>1970-01-01T00:18:36.000Z</time>
      </trkpt>
      <trkpt lat="43.273008" lon="-2.885848">
        <ele>223.4</ele>
        <time>1970-01-01T00:18:37.000Z</time>
      </trkpt>
      <trkpt lat="43.273003" lon="-2.885866">
        <ele>223.4</ele>
        <time>1970-01-01T00:18:38.000Z</time>
      </trkpt>
      <trkpt lat="43.272993" lon="-2.885885">
        <ele>223.4</ele>
        <time>1970-01-01T00:18:39.000Z</time>
      </trkpt>
      <trkpt lat="43.272985" lon="-2.885905">
        <ele>224</ele>
        <time>1970-01-01T00:18:40.000Z</time>
      </trkpt>
      <trkpt lat="43.272981" lon="-2.885928">
        <ele>224.6</ele>
        <time>1970-01-01T00:18:41.000Z</time>
      </trkpt>
      <trkpt lat="43.272976" lon="-2.885951">
        <ele>224.6</ele>
        <time>1970-01-01T00:18:42.000Z</time>
      </trkpt>
      <trkpt lat="43.272968" lon="-2.88597">
        <ele>224.6</ele>
        <time>1970-01-01T00:18:43.000Z</time>
      </trkpt>
      <trkpt lat="43.272958" lon="-2.885986">
        <ele>225.4</ele>
        <time>1970-01-01T00:18:44.000Z</time>
      </trkpt>
      <trkpt lat="43.272946" lon="-2.886005">
        <ele>226.2</ele>
        <time>1970-01-01T00:18:45.000Z</time>
      </trkpt>
      <trkpt lat="43.272938" lon="-2.886026">
        <ele>226.2</ele>
        <time>1970-01-01T00:18:46.000Z</time>
      </trkpt>
      <trkpt lat="43.272936" lon="-2.886051">
        <ele>226.2</ele>
        <time>1970-01-01T00:18:47.000Z</time>
      </trkpt>
      <trkpt lat="43.272931" lon="-2.886078">
        <ele>226.2</ele>
        <time>1970-01-01T00:18:48.000Z</time>
      </trkpt>
      <trkpt lat="43.272923" lon="-2.886101">
        <ele>227.2</ele>
        <time>1970-01-01T00:18:49.000Z</time>
      </trkpt>
      <trkpt lat="43.272915" lon="-2.886125">
        <ele>227.2</ele>
        <time>1970-01-01T00:18:50.000Z</time>
      </trkpt>
      <trkpt lat="43.272905" lon="-2.88615">
        <ele>227.2</ele>
        <time>1970-01-01T00:18:51.000Z</time>
      </trkpt>
      <trkpt lat="43.272898" lon="-2.886173">
        <ele>227.2</ele>
        <time>1970-01-01T00:18:52.000Z</time>
      </trkpt>
      <trkpt lat="43.272891" lon="-2.886198">
        <ele>227.6</ele>
        <time>1970-01-01T00:18:53.000Z</time>
      </trkpt>
      <trkpt lat="43.272881" lon="-2.886225">
        <ele>227.6</ele>
        <time>1970-01-01T00:18:54.000Z</time>
      </trkpt>
      <trkpt lat="43.272873" lon="-2.886251">
        <ele>227.6</ele>
        <time>1970-01-01T00:18:55.000Z</time>
      </trkpt>
      <trkpt lat="43.272861" lon="-2.886278">
        <ele>228.2</ele>
        <time>1970-01-01T00:18:56.000Z</time>
      </trkpt>
      <trkpt lat="43.27285" lon="-2.886303">
        <ele>228.4</ele>
        <time>1970-01-01T00:18:57.000Z</time>
      </trkpt>
      <trkpt lat="43.272836" lon="-2.886326">
        <ele>228.4</ele>
        <time>1970-01-01T00:18:58.000Z</time>
      </trkpt>
      <trkpt lat="43.272823" lon="-2.886351">
        <ele>228.4</ele>
        <time>1970-01-01T00:18:59.000Z</time>
      </trkpt>
      <trkpt lat="43.272816" lon="-2.886378">
        <ele>228.8</ele>
        <time>1970-01-01T00:19:00.000Z</time>
      </trkpt>
      <trkpt lat="43.272808" lon="-2.886403">
        <ele>229.2</ele>
        <time>1970-01-01T00:19:01.000Z</time>
      </trkpt>
      <trkpt lat="43.2728" lon="-2.88643">
        <ele>229.2</ele>
        <time>1970-01-01T00:19:02.000Z</time>
      </trkpt>
      <trkpt lat="43.272793" lon="-2.886456">
        <ele>229.2</ele>
        <time>1970-01-01T00:19:03.000Z</time>
      </trkpt>
      <trkpt lat="43.272785" lon="-2.886486">
        <ele>230.2</ele>
        <time>1970-01-01T00:19:04.000Z</time>
      </trkpt>
      <trkpt lat="43.27278" lon="-2.886513">
        <ele>230.4</ele>
        <time>1970-01-01T00:19:05.000Z</time>
      </trkpt>
      <trkpt lat="43.272773" lon="-2.88654">
        <ele>230.4</ele>
        <time>1970-01-01T00:19:06.000Z</time>
      </trkpt>
      <trkpt lat="43.272765" lon="-2.886566">
        <ele>230.4</ele>
        <time>1970-01-01T00:19:07.000Z</time>
      </trkpt>
      <trkpt lat="43.272761" lon="-2.886593">
        <ele>230.4</ele>
        <time>1970-01-01T00:19:08.000Z</time>
      </trkpt>
      <trkpt lat="43.272753" lon="-2.88662">
        <ele>231.4</ele>
        <time>1970-01-01T00:19:09.000Z</time>
      </trkpt>
      <trkpt lat="43.272748" lon="-2.886648">
        <ele>231.4</ele>
        <time>1970-01-01T00:19:10.000Z</time>
      </trkpt>
      <trkpt lat="43.272741" lon="-2.886675">
        <ele>231.4</ele>
        <time>1970-01-01T00:19:11.000Z</time>
      </trkpt>
      <trkpt lat="43.272735" lon="-2.886698">
        <ele>231.4</ele>
        <time>1970-01-01T00:19:12.000Z</time>
      </trkpt>
      <trkpt lat="43.272728" lon="-2.886721">
        <ele>232.6</ele>
        <time>1970-01-01T00:19:13.000Z</time>
      </trkpt>
      <trkpt lat="43.27272" lon="-2.886745">
        <ele>232.6</ele>
        <time>1970-01-01T00:19:14.000Z</time>
      </trkpt>
      <trkpt lat="43.272715" lon="-2.886766">
        <ele>232.6</ele>
        <time>1970-01-01T00:19:15.000Z</time>
      </trkpt>
      <trkpt lat="43.272706" lon="-2.886788">
        <ele>233</ele>
        <time>1970-01-01T00:19:16.000Z</time>
      </trkpt>
      <trkpt lat="43.2727" lon="-2.886813">
        <ele>233.4</ele>
        <time>1970-01-01T00:19:17.000Z</time>
      </trkpt>
      <trkpt lat="43.272693" lon="-2.886838">
        <ele>233.4</ele>
        <time>1970-01-01T00:19:18.000Z</time>
      </trkpt>
      <trkpt lat="43.272686" lon="-2.886863">
        <ele>233.4</ele>
        <time>1970-01-01T00:19:19.000Z</time>
      </trkpt>
      <trkpt lat="43.272678" lon="-2.886888">
        <ele>234</ele>
        <time>1970-01-01T00:19:20.000Z</time>
      </trkpt>
      <trkpt lat="43.272668" lon="-2.886913">
        <ele>234.6</ele>
        <time>1970-01-01T00:19:21.000Z</time>
      </trkpt>
      <trkpt lat="43.27266" lon="-2.886936">
        <ele>234.6</ele>
        <time>1970-01-01T00:19:22.000Z</time>
      </trkpt>
      <trkpt lat="43.272653" lon="-2.886961">
        <ele>234.6</ele>
        <time>1970-01-01T00:19:23.000Z</time>
      </trkpt>
      <trkpt lat="43.272646" lon="-2.886986">
        <ele>234.6</ele>
        <time>1970-01-01T00:19:24.000Z</time>
      </trkpt>
      <trkpt lat="43.27264" lon="-2.887011">
        <ele>235.6</ele>
        <time>1970-01-01T00:19:25.000Z</time>
      </trkpt>
      <trkpt lat="43.272636" lon="-2.887033">
        <ele>235.6</ele>
        <time>1970-01-01T00:19:26.000Z</time>
      </trkpt>
      <trkpt lat="43.272626" lon="-2.887058">
        <ele>235.6</ele>
        <time>1970-01-01T00:19:27.000Z</time>
      </trkpt>
      <trkpt lat="43.27262" lon="-2.887081">
        <ele>236.6</ele>
        <time>1970-01-01T00:19:28.000Z</time>
      </trkpt>
      <trkpt lat="43.272615" lon="-2.887105">
        <ele>236.8</ele>
        <time>1970-01-01T00:19:29.000Z</time>
      </trkpt>
      <trkpt lat="43.272606" lon="-2.887131">
        <ele>236.8</ele>
        <time>1970-01-01T00:19:30.000Z</time>
      </trkpt>
      <trkpt lat="43.272601" lon="-2.887158">
        <ele>236.8</ele>
        <time>1970-01-01T00:19:31.000Z</time>
      </trkpt>
      <trkpt lat="43.272593" lon="-2.88718">
        <ele>237.8</ele>
        <time>1970-01-01T00:19:32.000Z</time>
      </trkpt>
      <trkpt lat="43.27259" lon="-2.887203">
        <ele>238</ele>
        <time>1970-01-01T00:19:33.000Z</time>
      </trkpt>
      <trkpt lat="43.27259" lon="-2.887228">
        <ele>238</ele>
        <time>1970-01-01T00:19:34.000Z</time>
      </trkpt>
      <trkpt lat="43.272588" lon="-2.887253">
        <ele>238</ele>
        <time>1970-01-01T00:19:35.000Z</time>
      </trkpt>
      <trkpt lat="43.272581" lon="-2.887276">
        <ele>238</ele>
        <time>1970-01-01T00:19:36.000Z</time>
      </trkpt>
      <trkpt lat="43.272575" lon="-2.887298">
        <ele>239.2</ele>
        <time>1970-01-01T00:19:37.000Z</time>
      </trkpt>
      <trkpt lat="43.27257" lon="-2.887321">
        <ele>239.2</ele>
        <time>1970-01-01T00:19:38.000Z</time>
      </trkpt>
      <trkpt lat="43.272566" lon="-2.887341">
        <ele>239.2</ele>
        <time>1970-01-01T00:19:39.000Z</time>
      </trkpt>
      <trkpt lat="43.272563" lon="-2.887363">
        <ele>240</ele>
        <time>1970-01-01T00:19:40.000Z</time>
      </trkpt>
      <trkpt lat="43.27256" lon="-2.88738">
        <ele>240</ele>
        <time>1970-01-01T00:19:41.000Z</time>
      </trkpt>
      <trkpt lat="43.272558" lon="-2.887401">
        <ele>240.6</ele>
        <time>1970-01-01T00:19:42.000Z</time>
      </trkpt>
      <trkpt lat="43.272555" lon="-2.887423">
        <ele>240.6</ele>
        <time>1970-01-01T00:19:43.000Z</time>
      </trkpt>
      <trkpt lat="43.272551" lon="-2.88745">
        <ele>241.2</ele>
        <time>1970-01-01T00:19:44.000Z</time>
      </trkpt>
      <trkpt lat="43.27255" lon="-2.887476">
        <ele>241.4</ele>
        <time>1970-01-01T00:19:45.000Z</time>
      </trkpt>
      <trkpt lat="43.272555" lon="-2.887501">
        <ele>241.4</ele>
        <time>1970-01-01T00:19:46.000Z</time>
      </trkpt>
      <trkpt lat="43.272553" lon="-2.887531">
        <ele>241.4</ele>
        <time>1970-01-01T00:19:47.000Z</time>
      </trkpt>
      <trkpt lat="43.272556" lon="-2.887555">
        <ele>242.2</ele>
        <time>1970-01-01T00:19:48.000Z</time>
      </trkpt>
      <trkpt lat="43.272551" lon="-2.887583">
        <ele>242</ele>
        <time>1970-01-01T00:19:49.000Z</time>
      </trkpt>
      <trkpt lat="43.272546" lon="-2.88761">
        <ele>242</ele>
        <time>1970-01-01T00:19:50.000Z</time>
      </trkpt>
      <trkpt lat="43.272541" lon="-2.88764">
        <ele>242</ele>
        <time>1970-01-01T00:19:51.000Z</time>
      </trkpt>
      <trkpt lat="43.272536" lon="-2.887663">
        <ele>242.6</ele>
        <time>1970-01-01T00:19:52.000Z</time>
      </trkpt>
      <trkpt lat="43.272525" lon="-2.887691">
        <ele>242.2</ele>
        <time>1970-01-01T00:19:53.000Z</time>
      </trkpt>
      <trkpt lat="43.27252" lon="-2.887718">
        <ele>242.2</ele>
        <time>1970-01-01T00:19:54.000Z</time>
      </trkpt>
      <trkpt lat="43.272511" lon="-2.887746">
        <ele>242.2</ele>
        <time>1970-01-01T00:19:55.000Z</time>
      </trkpt>
      <trkpt lat="43.27251" lon="-2.887773">
        <ele>242.6</ele>
        <time>1970-01-01T00:19:56.000Z</time>
      </trkpt>
      <trkpt lat="43.2725" lon="-2.887796">
        <ele>242.6</ele>
        <time>1970-01-01T00:19:57.000Z</time>
      </trkpt>
      <trkpt lat="43.272486" lon="-2.887821">
        <ele>243.2</ele>
        <time>1970-01-01T00:19:58.000Z</time>
      </trkpt>
      <trkpt lat="43.272471" lon="-2.88785">
        <ele>243.2</ele>
        <time>1970-01-01T00:19:59.000Z</time>
      </trkpt>
      <trkpt lat="43.272455" lon="-2.887876">
        <ele>243.2</ele>
        <time>1970-01-01T00:20:00.000Z</time>
      </trkpt>
      <trkpt lat="43.272438" lon="-2.887896">
        <ele>244</ele>
        <time>1970-01-01T00:20:01.000Z</time>
      </trkpt>
      <trkpt lat="43.272423" lon="-2.88791">
        <ele>244</ele>
        <time>1970-01-01T00:20:02.000Z</time>
      </trkpt>
      <trkpt lat="43.272406" lon="-2.887925">
        <ele>244</ele>
        <time>1970-01-01T00:20:03.000Z</time>
      </trkpt>
      <trkpt lat="43.272383" lon="-2.887936">
        <ele>244</ele>
        <time>1970-01-01T00:20:04.000Z</time>
      </trkpt>
      <trkpt lat="43.272368" lon="-2.887951">
        <ele>245.2</ele>
        <time>1970-01-01T00:20:05.000Z</time>
      </trkpt>
      <trkpt lat="43.27235" lon="-2.887965">
        <ele>245.2</ele>
        <time>1970-01-01T00:20:06.000Z</time>
      </trkpt>
      <trkpt lat="43.272333" lon="-2.887985">
        <ele>245.2</ele>
        <time>1970-01-01T00:20:07.000Z</time>
      </trkpt>
      <trkpt lat="43.272315" lon="-2.888008">
        <ele>245.8</ele>
        <time>1970-01-01T00:20:08.000Z</time>
      </trkpt>
      <trkpt lat="43.272298" lon="-2.88803">
        <ele>245.8</ele>
        <time>1970-01-01T00:20:09.000Z</time>
      </trkpt>
      <trkpt lat="43.272283" lon="-2.888051">
        <ele>245.8</ele>
        <time>1970-01-01T00:20:10.000Z</time>
      </trkpt>
      <trkpt lat="43.272268" lon="-2.888068">
        <ele>245.8</ele>
        <time>1970-01-01T00:20:11.000Z</time>
      </trkpt>
      <trkpt lat="43.272253" lon="-2.888085">
        <ele>245.8</ele>
        <time>1970-01-01T00:20:12.000Z</time>
      </trkpt>
      <trkpt lat="43.272236" lon="-2.888098">
        <ele>247</ele>
        <time>1970-01-01T00:20:13.000Z</time>
      </trkpt>
      <trkpt lat="43.27222" lon="-2.888115">
        <ele>247</ele>
        <time>1970-01-01T00:20:14.000Z</time>
      </trkpt>
      <trkpt lat="43.272205" lon="-2.888135">
        <ele>247</ele>
        <time>1970-01-01T00:20:15.000Z</time>
      </trkpt>
      <trkpt lat="43.27219" lon="-2.888151">
        <ele>247.8</ele>
        <time>1970-01-01T00:20:16.000Z</time>
      </trkpt>
      <trkpt lat="43.272176" lon="-2.888171">
        <ele>247.8</ele>
        <time>1970-01-01T00:20:17.000Z</time>
      </trkpt>
      <trkpt lat="43.272158" lon="-2.888191">
        <ele>247.8</ele>
        <time>1970-01-01T00:20:18.000Z</time>
      </trkpt>
      <trkpt lat="43.272145" lon="-2.888215">
        <ele>247.8</ele>
        <time>1970-01-01T00:20:19.000Z</time>
      </trkpt>
      <trkpt lat="43.272135" lon="-2.88824">
        <ele>248.8</ele>
        <time>1970-01-01T00:20:20.000Z</time>
      </trkpt>
      <trkpt lat="43.272125" lon="-2.888271">
        <ele>249</ele>
        <time>1970-01-01T00:20:21.000Z</time>
      </trkpt>
      <trkpt lat="43.272118" lon="-2.888305">
        <ele>249</ele>
        <time>1970-01-01T00:20:22.000Z</time>
      </trkpt>
      <trkpt lat="43.272115" lon="-2.888336">
        <ele>249</ele>
        <time>1970-01-01T00:20:23.000Z</time>
      </trkpt>
      <trkpt lat="43.272115" lon="-2.88837">
        <ele>249</ele>
        <time>1970-01-01T00:20:24.000Z</time>
      </trkpt>
      <trkpt lat="43.272111" lon="-2.888408">
        <ele>249.4</ele>
        <time>1970-01-01T00:20:25.000Z</time>
      </trkpt>
      <trkpt lat="43.27211" lon="-2.888445">
        <ele>249.4</ele>
        <time>1970-01-01T00:20:26.000Z</time>
      </trkpt>
      <trkpt lat="43.27211" lon="-2.888478">
        <ele>249.4</ele>
        <time>1970-01-01T00:20:27.000Z</time>
      </trkpt>
      <trkpt lat="43.272108" lon="-2.888513">
        <ele>249.4</ele>
        <time>1970-01-01T00:20:28.000Z</time>
      </trkpt>
      <trkpt lat="43.272106" lon="-2.888551">
        <ele>249.6</ele>
        <time>1970-01-01T00:20:29.000Z</time>
      </trkpt>
      <trkpt lat="43.272103" lon="-2.888595">
        <ele>249.6</ele>
        <time>1970-01-01T00:20:30.000Z</time>
      </trkpt>
      <trkpt lat="43.272101" lon="-2.888635">
        <ele>249.6</ele>
        <time>1970-01-01T00:20:31.000Z</time>
      </trkpt>
      <trkpt lat="43.272098" lon="-2.888675">
        <ele>250</ele>
        <time>1970-01-01T00:20:32.000Z</time>
      </trkpt>
      <trkpt lat="43.272095" lon="-2.888716">
        <ele>250</ele>
        <time>1970-01-01T00:20:33.000Z</time>
      </trkpt>
      <trkpt lat="43.272093" lon="-2.888751">
        <ele>250</ele>
        <time>1970-01-01T00:20:34.000Z</time>
      </trkpt>
      <trkpt lat="43.27209" lon="-2.888788">
        <ele>250</ele>
        <time>1970-01-01T00:20:35.000Z</time>
      </trkpt>
      <trkpt lat="43.272086" lon="-2.888825">
        <ele>250</ele>
        <time>1970-01-01T00:20:36.000Z</time>
      </trkpt>
      <trkpt lat="43.272086" lon="-2.888861">
        <ele>250.2</ele>
        <time>1970-01-01T00:20:37.000Z</time>
      </trkpt>
      <trkpt lat="43.272085" lon="-2.8889">
        <ele>250.2</ele>
        <time>1970-01-01T00:20:38.000Z</time>
      </trkpt>
      <trkpt lat="43.272085" lon="-2.888936">
        <ele>250.2</ele>
        <time>1970-01-01T00:20:39.000Z</time>
      </trkpt>
      <trkpt lat="43.272081" lon="-2.888971">
        <ele>250.8</ele>
        <time>1970-01-01T00:20:40.000Z</time>
      </trkpt>
      <trkpt lat="43.27208" lon="-2.889011">
        <ele>251</ele>
        <time>1970-01-01T00:20:41.000Z</time>
      </trkpt>
      <trkpt lat="43.272076" lon="-2.889051">
        <ele>251</ele>
        <time>1970-01-01T00:20:42.000Z</time>
      </trkpt>
      <trkpt lat="43.272075" lon="-2.889088">
        <ele>251</ele>
        <time>1970-01-01T00:20:43.000Z</time>
      </trkpt>
      <trkpt lat="43.272073" lon="-2.889126">
        <ele>251.8</ele>
        <time>1970-01-01T00:20:44.000Z</time>
      </trkpt>
      <trkpt lat="43.272071" lon="-2.889168">
        <ele>252.2</ele>
        <time>1970-01-01T00:20:45.000Z</time>
      </trkpt>
      <trkpt lat="43.272068" lon="-2.889208">
        <ele>252.2</ele>
        <time>1970-01-01T00:20:46.000Z</time>
      </trkpt>
      <trkpt lat="43.272065" lon="-2.889248">
        <ele>252.2</ele>
        <time>1970-01-01T00:20:47.000Z</time>
      </trkpt>
      <trkpt lat="43.272065" lon="-2.889288">
        <ele>252.2</ele>
        <time>1970-01-01T00:20:48.000Z</time>
      </trkpt>
      <trkpt lat="43.272061" lon="-2.889326">
        <ele>253</ele>
        <time>1970-01-01T00:20:49.000Z</time>
      </trkpt>
      <trkpt lat="43.272061" lon="-2.889365">
        <ele>253</ele>
        <time>1970-01-01T00:20:50.000Z</time>
      </trkpt>
      <trkpt lat="43.272063" lon="-2.889403">
        <ele>253</ele>
        <time>1970-01-01T00:20:51.000Z</time>
      </trkpt>
      <trkpt lat="43.272065" lon="-2.889443">
        <ele>253</ele>
        <time>1970-01-01T00:20:52.000Z</time>
      </trkpt>
      <trkpt lat="43.272066" lon="-2.88948">
        <ele>253.6</ele>
        <time>1970-01-01T00:20:53.000Z</time>
      </trkpt>
      <trkpt lat="43.272066" lon="-2.889516">
        <ele>253.6</ele>
        <time>1970-01-01T00:20:54.000Z</time>
      </trkpt>
      <trkpt lat="43.272065" lon="-2.889555">
        <ele>253.6</ele>
        <time>1970-01-01T00:20:55.000Z</time>
      </trkpt>
      <trkpt lat="43.272066" lon="-2.889593">
        <ele>253.6</ele>
        <time>1970-01-01T00:20:56.000Z</time>
      </trkpt>
      <trkpt lat="43.272073" lon="-2.889631">
        <ele>253.8</ele>
        <time>1970-01-01T00:20:57.000Z</time>
      </trkpt>
      <trkpt lat="43.272078" lon="-2.889668">
        <ele>253.8</ele>
        <time>1970-01-01T00:20:58.000Z</time>
      </trkpt>
      <trkpt lat="43.272081" lon="-2.889706">
        <ele>253.8</ele>
        <time>1970-01-01T00:20:59.000Z</time>
      </trkpt>
      <trkpt lat="43.272083" lon="-2.889745">
        <ele>253.8</ele>
        <time>1970-01-01T00:21:00.000Z</time>
      </trkpt>
      <trkpt lat="43.272086" lon="-2.889783">
        <ele>254.2</ele>
        <time>1970-01-01T00:21:01.000Z</time>
      </trkpt>
      <trkpt lat="43.272091" lon="-2.889823">
        <ele>254.2</ele>
        <time>1970-01-01T00:21:02.000Z</time>
      </trkpt>
      <trkpt lat="43.272095" lon="-2.889861">
        <ele>254.2</ele>
        <time>1970-01-01T00:21:03.000Z</time>
      </trkpt>
      <trkpt lat="43.272096" lon="-2.889906">
        <ele>254.2</ele>
        <time>1970-01-01T00:21:04.000Z</time>
      </trkpt>
      <trkpt lat="43.2721" lon="-2.889953">
        <ele>254.2</ele>
        <time>1970-01-01T00:21:05.000Z</time>
      </trkpt>
      <trkpt lat="43.272101" lon="-2.890001">
        <ele>254.2</ele>
        <time>1970-01-01T00:21:06.000Z</time>
      </trkpt>
      <trkpt lat="43.272105" lon="-2.890048">
        <ele>254.2</ele>
        <time>1970-01-01T00:21:07.000Z</time>
      </trkpt>
      <trkpt lat="43.27211" lon="-2.890093">
        <ele>254.6</ele>
        <time>1970-01-01T00:21:08.000Z</time>
      </trkpt>
      <trkpt lat="43.272113" lon="-2.890141">
        <ele>254.6</ele>
        <time>1970-01-01T00:21:09.000Z</time>
      </trkpt>
      <trkpt lat="43.272116" lon="-2.89019">
        <ele>254.8</ele>
        <time>1970-01-01T00:21:10.000Z</time>
      </trkpt>
      <trkpt lat="43.272118" lon="-2.890238">
        <ele>254.8</ele>
        <time>1970-01-01T00:21:11.000Z</time>
      </trkpt>
      <trkpt lat="43.27212" lon="-2.890288">
        <ele>255.8</ele>
        <time>1970-01-01T00:21:12.000Z</time>
      </trkpt>
      <trkpt lat="43.27212" lon="-2.890336">
        <ele>255.2</ele>
        <time>1970-01-01T00:21:13.000Z</time>
      </trkpt>
      <trkpt lat="43.27212" lon="-2.890385">
        <ele>255.2</ele>
        <time>1970-01-01T00:21:14.000Z</time>
      </trkpt>
      <trkpt lat="43.272121" lon="-2.890425">
        <ele>255.2</ele>
        <time>1970-01-01T00:21:15.000Z</time>
      </trkpt>
      <trkpt lat="43.272115" lon="-2.890463">
        <ele>256.2</ele>
        <time>1970-01-01T00:21:16.000Z</time>
      </trkpt>
      <trkpt lat="43.272106" lon="-2.890505">
        <ele>256.6</ele>
        <time>1970-01-01T00:21:17.000Z</time>
      </trkpt>
      <trkpt lat="43.272098" lon="-2.890541">
        <ele>256.6</ele>
        <time>1970-01-01T00:21:18.000Z</time>
      </trkpt>
      <trkpt lat="43.272093" lon="-2.890575">
        <ele>256.6</ele>
        <time>1970-01-01T00:21:19.000Z</time>
      </trkpt>
      <trkpt lat="43.272085" lon="-2.890613">
        <ele>257.4</ele>
        <time>1970-01-01T00:21:20.000Z</time>
      </trkpt>
      <trkpt lat="43.272071" lon="-2.89065">
        <ele>257.4</ele>
        <time>1970-01-01T00:21:21.000Z</time>
      </trkpt>
      <trkpt lat="43.27207" lon="-2.890681">
        <ele>257.4</ele>
        <time>1970-01-01T00:21:22.000Z</time>
      </trkpt>
      <trkpt lat="43.272058" lon="-2.890728">
        <ele>257.4</ele>
        <time>1970-01-01T00:21:23.000Z</time>
      </trkpt>
      <trkpt lat="43.27205" lon="-2.89077">
        <ele>257.4</ele>
        <time>1970-01-01T00:21:24.000Z</time>
      </trkpt>
      <trkpt lat="43.27205" lon="-2.890806">
        <ele>257.4</ele>
        <time>1970-01-01T00:21:25.000Z</time>
      </trkpt>
      <trkpt lat="43.272041" lon="-2.89084">
        <ele>257.4</ele>
        <time>1970-01-01T00:21:26.000Z</time>
      </trkpt>
      <trkpt lat="43.272041" lon="-2.890871">
        <ele>257.4</ele>
        <time>1970-01-01T00:21:27.000Z</time>
      </trkpt>
      <trkpt lat="43.272031" lon="-2.890908">
        <ele>258.4</ele>
        <time>1970-01-01T00:21:28.000Z</time>
      </trkpt>
      <trkpt lat="43.272016" lon="-2.89095">
        <ele>258.4</ele>
        <time>1970-01-01T00:21:29.000Z</time>
      </trkpt>
      <trkpt lat="43.272003" lon="-2.890988">
        <ele>258</ele>
        <time>1970-01-01T00:21:30.000Z</time>
      </trkpt>
      <trkpt lat="43.271991" lon="-2.891031">
        <ele>258</ele>
        <time>1970-01-01T00:21:31.000Z</time>
      </trkpt>
      <trkpt lat="43.271985" lon="-2.891085">
        <ele>257.4</ele>
        <time>1970-01-01T00:21:32.000Z</time>
      </trkpt>
      <trkpt lat="43.271983" lon="-2.891133">
        <ele>258.2</ele>
        <time>1970-01-01T00:21:33.000Z</time>
      </trkpt>
      <trkpt lat="43.271991" lon="-2.89118">
        <ele>258.2</ele>
        <time>1970-01-01T00:21:34.000Z</time>
      </trkpt>
      <trkpt lat="43.272005" lon="-2.891226">
        <ele>258.2</ele>
        <time>1970-01-01T00:21:35.000Z</time>
      </trkpt>
      <trkpt lat="43.272026" lon="-2.891276">
        <ele>257.2</ele>
        <time>1970-01-01T00:21:36.000Z</time>
      </trkpt>
      <trkpt lat="43.272051" lon="-2.891338">
        <ele>256</ele>
        <time>1970-01-01T00:21:37.000Z</time>
      </trkpt>
      <trkpt lat="43.272083" lon="-2.891396">
        <ele>256</ele>
        <time>1970-01-01T00:21:38.000Z</time>
      </trkpt>
      <trkpt lat="43.272118" lon="-2.891451">
        <ele>256</ele>
        <time>1970-01-01T00:21:39.000Z</time>
      </trkpt>
      <trkpt lat="43.272155" lon="-2.891498">
        <ele>256</ele>
        <time>1970-01-01T00:21:40.000Z</time>
      </trkpt>
      <trkpt lat="43.27219" lon="-2.891538">
        <ele>256.6</ele>
        <time>1970-01-01T00:21:41.000Z</time>
      </trkpt>
      <trkpt lat="43.272225" lon="-2.891575">
        <ele>256.6</ele>
        <time>1970-01-01T00:21:42.000Z</time>
      </trkpt>
      <trkpt lat="43.272255" lon="-2.891611">
        <ele>256.6</ele>
        <time>1970-01-01T00:21:43.000Z</time>
      </trkpt>
      <trkpt lat="43.272283" lon="-2.891648">
        <ele>257.4</ele>
        <time>1970-01-01T00:21:44.000Z</time>
      </trkpt>
      <trkpt lat="43.272308" lon="-2.89168">
        <ele>257.4</ele>
        <time>1970-01-01T00:21:45.000Z</time>
      </trkpt>
      <trkpt lat="43.272335" lon="-2.891713">
        <ele>257.4</ele>
        <time>1970-01-01T00:21:46.000Z</time>
      </trkpt>
      <trkpt lat="43.272361" lon="-2.891743">
        <ele>257.4</ele>
        <time>1970-01-01T00:21:47.000Z</time>
      </trkpt>
      <trkpt lat="43.272395" lon="-2.891768">
        <ele>257.8</ele>
        <time>1970-01-01T00:21:48.000Z</time>
      </trkpt>
      <trkpt lat="43.272425" lon="-2.891785">
        <ele>257.8</ele>
        <time>1970-01-01T00:21:49.000Z</time>
      </trkpt>
      <trkpt lat="43.272453" lon="-2.8918">
        <ele>257.8</ele>
        <time>1970-01-01T00:21:50.000Z</time>
      </trkpt>
      <trkpt lat="43.272478" lon="-2.89182">
        <ele>257.8</ele>
        <time>1970-01-01T00:21:51.000Z</time>
      </trkpt>
      <trkpt lat="43.272503" lon="-2.891843">
        <ele>257.8</ele>
        <time>1970-01-01T00:21:52.000Z</time>
      </trkpt>
      <trkpt lat="43.272526" lon="-2.891868">
        <ele>259</ele>
        <time>1970-01-01T00:21:53.000Z</time>
      </trkpt>
      <trkpt lat="43.272548" lon="-2.891893">
        <ele>259</ele>
        <time>1970-01-01T00:21:54.000Z</time>
      </trkpt>
      <trkpt lat="43.27257" lon="-2.891918">
        <ele>259</ele>
        <time>1970-01-01T00:21:55.000Z</time>
      </trkpt>
      <trkpt lat="43.272591" lon="-2.891946">
        <ele>260</ele>
        <time>1970-01-01T00:21:56.000Z</time>
      </trkpt>
      <trkpt lat="43.27261" lon="-2.891976">
        <ele>260</ele>
        <time>1970-01-01T00:21:57.000Z</time>
      </trkpt>
      <trkpt lat="43.272631" lon="-2.892003">
        <ele>260</ele>
        <time>1970-01-01T00:21:58.000Z</time>
      </trkpt>
      <trkpt lat="43.27265" lon="-2.892031">
        <ele>260</ele>
        <time>1970-01-01T00:21:59.000Z</time>
      </trkpt>
      <trkpt lat="43.272668" lon="-2.89206">
        <ele>260.6</ele>
        <time>1970-01-01T00:22:00.000Z</time>
      </trkpt>
      <trkpt lat="43.272688" lon="-2.892085">
        <ele>261.4</ele>
        <time>1970-01-01T00:22:01.000Z</time>
      </trkpt>
      <trkpt lat="43.272706" lon="-2.892111">
        <ele>261.4</ele>
        <time>1970-01-01T00:22:02.000Z</time>
      </trkpt>
      <trkpt lat="43.272723" lon="-2.892141">
        <ele>261.4</ele>
        <time>1970-01-01T00:22:03.000Z</time>
      </trkpt>
      <trkpt lat="43.272738" lon="-2.892168">
        <ele>262.4</ele>
        <time>1970-01-01T00:22:04.000Z</time>
      </trkpt>
      <trkpt lat="43.272755" lon="-2.892196">
        <ele>262.8</ele>
        <time>1970-01-01T00:22:05.000Z</time>
      </trkpt>
      <trkpt lat="43.272773" lon="-2.892223">
        <ele>262.8</ele>
        <time>1970-01-01T00:22:06.000Z</time>
      </trkpt>
      <trkpt lat="43.27279" lon="-2.89225">
        <ele>262.8</ele>
        <time>1970-01-01T00:22:07.000Z</time>
      </trkpt>
      <trkpt lat="43.272806" lon="-2.892278">
        <ele>262.8</ele>
        <time>1970-01-01T00:22:08.000Z</time>
      </trkpt>
      <trkpt lat="43.272823" lon="-2.892305">
        <ele>264</ele>
        <time>1970-01-01T00:22:09.000Z</time>
      </trkpt>
      <trkpt lat="43.272841" lon="-2.892333">
        <ele>264</ele>
        <time>1970-01-01T00:22:10.000Z</time>
      </trkpt>
      <trkpt lat="43.272858" lon="-2.892361">
        <ele>264</ele>
        <time>1970-01-01T00:22:11.000Z</time>
      </trkpt>
      <trkpt lat="43.272868" lon="-2.892391">
        <ele>265</ele>
        <time>1970-01-01T00:22:12.000Z</time>
      </trkpt>
      <trkpt lat="43.272881" lon="-2.892423">
        <ele>265</ele>
        <time>1970-01-01T00:22:13.000Z</time>
      </trkpt>
      <trkpt lat="43.272893" lon="-2.892451">
        <ele>265.4</ele>
        <time>1970-01-01T00:22:14.000Z</time>
      </trkpt>
      <trkpt lat="43.27291" lon="-2.892483">
        <ele>265.4</ele>
        <time>1970-01-01T00:22:15.000Z</time>
      </trkpt>
      <trkpt lat="43.272926" lon="-2.89251">
        <ele>265.4</ele>
        <time>1970-01-01T00:22:16.000Z</time>
      </trkpt>
      <trkpt lat="43.272945" lon="-2.892538">
        <ele>266</ele>
        <time>1970-01-01T00:22:17.000Z</time>
      </trkpt>
      <trkpt lat="43.272963" lon="-2.892565">
        <ele>266</ele>
        <time>1970-01-01T00:22:18.000Z</time>
      </trkpt>
      <trkpt lat="43.272983" lon="-2.892591">
        <ele>266</ele>
        <time>1970-01-01T00:22:19.000Z</time>
      </trkpt>
      <trkpt lat="43.273003" lon="-2.89262">
        <ele>266</ele>
        <time>1970-01-01T00:22:20.000Z</time>
      </trkpt>
      <trkpt lat="43.273023" lon="-2.892646">
        <ele>266.8</ele>
        <time>1970-01-01T00:22:21.000Z</time>
      </trkpt>
      <trkpt lat="43.273045" lon="-2.89267">
        <ele>266.8</ele>
        <time>1970-01-01T00:22:22.000Z</time>
      </trkpt>
      <trkpt lat="43.273066" lon="-2.892691">
        <ele>266.8</ele>
        <time>1970-01-01T00:22:23.000Z</time>
      </trkpt>
      <trkpt lat="43.273088" lon="-2.892706">
        <ele>267</ele>
        <time>1970-01-01T00:22:24.000Z</time>
      </trkpt>
      <trkpt lat="43.273113" lon="-2.892716">
        <ele>267.4</ele>
        <time>1970-01-01T00:22:25.000Z</time>
      </trkpt>
      <trkpt lat="43.273138" lon="-2.892726">
        <ele>267.4</ele>
        <time>1970-01-01T00:22:26.000Z</time>
      </trkpt>
      <trkpt lat="43.273163" lon="-2.892741">
        <ele>267.4</ele>
        <time>1970-01-01T00:22:27.000Z</time>
      </trkpt>
      <trkpt lat="43.273188" lon="-2.892756">
        <ele>267.8</ele>
        <time>1970-01-01T00:22:28.000Z</time>
      </trkpt>
      <trkpt lat="43.273213" lon="-2.892775">
        <ele>267.8</ele>
        <time>1970-01-01T00:22:29.000Z</time>
      </trkpt>
      <trkpt lat="43.273241" lon="-2.89279">
        <ele>267.8</ele>
        <time>1970-01-01T00:22:30.000Z</time>
      </trkpt>
      <trkpt lat="43.273271" lon="-2.892801">
        <ele>267.8</ele>
        <time>1970-01-01T00:22:31.000Z</time>
      </trkpt>
      <trkpt lat="43.273305" lon="-2.892815">
        <ele>267.8</ele>
        <time>1970-01-01T00:22:32.000Z</time>
      </trkpt>
      <trkpt lat="43.273338" lon="-2.89282">
        <ele>267.8</ele>
        <time>1970-01-01T00:22:33.000Z</time>
      </trkpt>
      <trkpt lat="43.27337" lon="-2.89282">
        <ele>267.8</ele>
        <time>1970-01-01T00:22:34.000Z</time>
      </trkpt>
      <trkpt lat="43.2734" lon="-2.892816">
        <ele>267.8</ele>
        <time>1970-01-01T00:22:35.000Z</time>
      </trkpt>
      <trkpt lat="43.273431" lon="-2.892815">
        <ele>267.8</ele>
        <time>1970-01-01T00:22:36.000Z</time>
      </trkpt>
      <trkpt lat="43.273461" lon="-2.892811">
        <ele>268.6</ele>
        <time>1970-01-01T00:22:37.000Z</time>
      </trkpt>
      <trkpt lat="43.273493" lon="-2.89281">
        <ele>268.6</ele>
        <time>1970-01-01T00:22:38.000Z</time>
      </trkpt>
      <trkpt lat="43.273525" lon="-2.89282">
        <ele>268.6</ele>
        <time>1970-01-01T00:22:39.000Z</time>
      </trkpt>
      <trkpt lat="43.273553" lon="-2.89284">
        <ele>268.6</ele>
        <time>1970-01-01T00:22:40.000Z</time>
      </trkpt>
      <trkpt lat="43.273581" lon="-2.892863">
        <ele>268.6</ele>
        <time>1970-01-01T00:22:41.000Z</time>
      </trkpt>
      <trkpt lat="43.273611" lon="-2.892885">
        <ele>268.8</ele>
        <time>1970-01-01T00:22:42.000Z</time>
      </trkpt>
      <trkpt lat="43.273638" lon="-2.892911">
        <ele>268.8</ele>
        <time>1970-01-01T00:22:43.000Z</time>
      </trkpt>
      <trkpt lat="43.273668" lon="-2.892933">
        <ele>268.8</ele>
        <time>1970-01-01T00:22:44.000Z</time>
      </trkpt>
      <trkpt lat="43.273693" lon="-2.892956">
        <ele>268.8</ele>
        <time>1970-01-01T00:22:45.000Z</time>
      </trkpt>
      <trkpt lat="43.273718" lon="-2.892986">
        <ele>268.8</ele>
        <time>1970-01-01T00:22:46.000Z</time>
      </trkpt>
      <trkpt lat="43.273743" lon="-2.893018">
        <ele>268.8</ele>
        <time>1970-01-01T00:22:47.000Z</time>
      </trkpt>
      <trkpt lat="43.273766" lon="-2.89305">
        <ele>268.8</ele>
        <time>1970-01-01T00:22:48.000Z</time>
      </trkpt>
      <trkpt lat="43.273786" lon="-2.893085">
        <ele>268.8</ele>
        <time>1970-01-01T00:22:49.000Z</time>
      </trkpt>
      <trkpt lat="43.273803" lon="-2.893121">
        <ele>269.4</ele>
        <time>1970-01-01T00:22:50.000Z</time>
      </trkpt>
      <trkpt lat="43.27382" lon="-2.893158">
        <ele>269.4</ele>
        <time>1970-01-01T00:22:51.000Z</time>
      </trkpt>
      <trkpt lat="43.273835" lon="-2.893196">
        <ele>269.4</ele>
        <time>1970-01-01T00:22:52.000Z</time>
      </trkpt>
      <trkpt lat="43.273848" lon="-2.893235">
        <ele>269.4</ele>
        <time>1970-01-01T00:22:53.000Z</time>
      </trkpt>
      <trkpt lat="43.27386" lon="-2.893273">
        <ele>269.4</ele>
        <time>1970-01-01T00:22:54.000Z</time>
      </trkpt>
      <trkpt lat="43.273871" lon="-2.893311">
        <ele>269.4</ele>
        <time>1970-01-01T00:22:55.000Z</time>
      </trkpt>
      <trkpt lat="43.273881" lon="-2.893351">
        <ele>269.4</ele>
        <time>1970-01-01T00:22:56.000Z</time>
      </trkpt>
      <trkpt lat="43.273891" lon="-2.893388">
        <ele>270.4</ele>
        <time>1970-01-01T00:22:57.000Z</time>
      </trkpt>
      <trkpt lat="43.2739" lon="-2.893425">
        <ele>270.6</ele>
        <time>1970-01-01T00:22:58.000Z</time>
      </trkpt>
      <trkpt lat="43.273906" lon="-2.89346">
        <ele>270.6</ele>
        <time>1970-01-01T00:22:59.000Z</time>
      </trkpt>
      <trkpt lat="43.273913" lon="-2.893496">
        <ele>270.6</ele>
        <time>1970-01-01T00:23:00.000Z</time>
      </trkpt>
      <trkpt lat="43.273921" lon="-2.893531">
        <ele>271.2</ele>
        <time>1970-01-01T00:23:01.000Z</time>
      </trkpt>
      <trkpt lat="43.273928" lon="-2.893565">
        <ele>271.4</ele>
        <time>1970-01-01T00:23:02.000Z</time>
      </trkpt>
      <trkpt lat="43.273933" lon="-2.893601">
        <ele>271.4</ele>
        <time>1970-01-01T00:23:03.000Z</time>
      </trkpt>
      <trkpt lat="43.273935" lon="-2.893638">
        <ele>271.4</ele>
        <time>1970-01-01T00:23:04.000Z</time>
      </trkpt>
      <trkpt lat="43.273935" lon="-2.893676">
        <ele>272.2</ele>
        <time>1970-01-01T00:23:05.000Z</time>
      </trkpt>
      <trkpt lat="43.273935" lon="-2.893715">
        <ele>272.4</ele>
        <time>1970-01-01T00:23:06.000Z</time>
      </trkpt>
      <trkpt lat="43.273933" lon="-2.893751">
        <ele>272.4</ele>
        <time>1970-01-01T00:23:07.000Z</time>
      </trkpt>
      <trkpt lat="43.27393" lon="-2.893786">
        <ele>272.4</ele>
        <time>1970-01-01T00:23:08.000Z</time>
      </trkpt>
      <trkpt lat="43.273921" lon="-2.89382">
        <ele>272.4</ele>
        <time>1970-01-01T00:23:09.000Z</time>
      </trkpt>
      <trkpt lat="43.273916" lon="-2.893855">
        <ele>273</ele>
        <time>1970-01-01T00:23:10.000Z</time>
      </trkpt>
      <trkpt lat="43.273913" lon="-2.89389">
        <ele>273</ele>
        <time>1970-01-01T00:23:11.000Z</time>
      </trkpt>
      <trkpt lat="43.273913" lon="-2.893925">
        <ele>273</ele>
        <time>1970-01-01T00:23:12.000Z</time>
      </trkpt>
      <trkpt lat="43.273911" lon="-2.893961">
        <ele>273</ele>
        <time>1970-01-01T00:23:13.000Z</time>
      </trkpt>
      <trkpt lat="43.27391" lon="-2.893996">
        <ele>273.8</ele>
        <time>1970-01-01T00:23:14.000Z</time>
      </trkpt>
      <trkpt lat="43.27391" lon="-2.894033">
        <ele>273.8</ele>
        <time>1970-01-01T00:23:15.000Z</time>
      </trkpt>
      <trkpt lat="43.273908" lon="-2.89407">
        <ele>273.8</ele>
        <time>1970-01-01T00:23:16.000Z</time>
      </trkpt>
      <trkpt lat="43.273905" lon="-2.894103">
        <ele>274.8</ele>
        <time>1970-01-01T00:23:17.000Z</time>
      </trkpt>
      <trkpt lat="43.273896" lon="-2.894138">
        <ele>275</ele>
        <time>1970-01-01T00:23:18.000Z</time>
      </trkpt>
      <trkpt lat="43.273891" lon="-2.894178">
        <ele>275</ele>
        <time>1970-01-01T00:23:19.000Z</time>
      </trkpt>
      <trkpt lat="43.273888" lon="-2.894213">
        <ele>275</ele>
        <time>1970-01-01T00:23:20.000Z</time>
      </trkpt>
      <trkpt lat="43.273881" lon="-2.894246">
        <ele>275.6</ele>
        <time>1970-01-01T00:23:21.000Z</time>
      </trkpt>
      <trkpt lat="43.273876" lon="-2.894281">
        <ele>275.8</ele>
        <time>1970-01-01T00:23:22.000Z</time>
      </trkpt>
      <trkpt lat="43.273875" lon="-2.894316">
        <ele>275.8</ele>
        <time>1970-01-01T00:23:23.000Z</time>
      </trkpt>
      <trkpt lat="43.273875" lon="-2.89435">
        <ele>275.8</ele>
        <time>1970-01-01T00:23:24.000Z</time>
      </trkpt>
      <trkpt lat="43.273871" lon="-2.894383">
        <ele>276.6</ele>
        <time>1970-01-01T00:23:25.000Z</time>
      </trkpt>
      <trkpt lat="43.273868" lon="-2.894418">
        <ele>276.8</ele>
        <time>1970-01-01T00:23:26.000Z</time>
      </trkpt>
      <trkpt lat="43.273865" lon="-2.894451">
        <ele>276.8</ele>
        <time>1970-01-01T00:23:27.000Z</time>
      </trkpt>
      <trkpt lat="43.27386" lon="-2.894486">
        <ele>276.8</ele>
        <time>1970-01-01T00:23:28.000Z</time>
      </trkpt>
      <trkpt lat="43.273858" lon="-2.89452">
        <ele>277.8</ele>
        <time>1970-01-01T00:23:29.000Z</time>
      </trkpt>
      <trkpt lat="43.273856" lon="-2.894551">
        <ele>277.8</ele>
        <time>1970-01-01T00:23:30.000Z</time>
      </trkpt>
      <trkpt lat="43.273853" lon="-2.894585">
        <ele>277.8</ele>
        <time>1970-01-01T00:23:31.000Z</time>
      </trkpt>
      <trkpt lat="43.27385" lon="-2.894616">
        <ele>278.6</ele>
        <time>1970-01-01T00:23:32.000Z</time>
      </trkpt>
      <trkpt lat="43.273846" lon="-2.894651">
        <ele>278.6</ele>
        <time>1970-01-01T00:23:33.000Z</time>
      </trkpt>
      <trkpt lat="43.273846" lon="-2.894686">
        <ele>279.2</ele>
        <time>1970-01-01T00:23:34.000Z</time>
      </trkpt>
      <trkpt lat="43.273845" lon="-2.89472">
        <ele>279.2</ele>
        <time>1970-01-01T00:23:35.000Z</time>
      </trkpt>
      <trkpt lat="43.273841" lon="-2.894755">
        <ele>279.2</ele>
        <time>1970-01-01T00:23:36.000Z</time>
      </trkpt>
      <trkpt lat="43.27384" lon="-2.894788">
        <ele>280.2</ele>
        <time>1970-01-01T00:23:37.000Z</time>
      </trkpt>
      <trkpt lat="43.273836" lon="-2.894823">
        <ele>280.4</ele>
        <time>1970-01-01T00:23:38.000Z</time>
      </trkpt>
      <trkpt lat="43.273831" lon="-2.894858">
        <ele>280.4</ele>
        <time>1970-01-01T00:23:39.000Z</time>
      </trkpt>
      <trkpt lat="43.273826" lon="-2.894893">
        <ele>280.4</ele>
        <time>1970-01-01T00:23:40.000Z</time>
      </trkpt>
      <trkpt lat="43.273821" lon="-2.894926">
        <ele>280.4</ele>
        <time>1970-01-01T00:23:41.000Z</time>
      </trkpt>
      <trkpt lat="43.273816" lon="-2.89496">
        <ele>281.4</ele>
        <time>1970-01-01T00:23:42.000Z</time>
      </trkpt>
      <trkpt lat="43.273808" lon="-2.894991">
        <ele>281.4</ele>
        <time>1970-01-01T00:23:43.000Z</time>
      </trkpt>
      <trkpt lat="43.273801" lon="-2.89502">
        <ele>281.4</ele>
        <time>1970-01-01T00:23:44.000Z</time>
      </trkpt>
      <trkpt lat="43.273791" lon="-2.895046">
        <ele>282.2</ele>
        <time>1970-01-01T00:23:45.000Z</time>
      </trkpt>
      <trkpt lat="43.27378" lon="-2.895073">
        <ele>282.4</ele>
        <time>1970-01-01T00:23:46.000Z</time>
      </trkpt>
      <trkpt lat="43.27377" lon="-2.8951">
        <ele>282.4</ele>
        <time>1970-01-01T00:23:47.000Z</time>
      </trkpt>
      <trkpt lat="43.273758" lon="-2.895123">
        <ele>282.4</ele>
        <time>1970-01-01T00:23:48.000Z</time>
      </trkpt>
      <trkpt lat="43.273746" lon="-2.895151">
        <ele>283.4</ele>
        <time>1970-01-01T00:23:49.000Z</time>
      </trkpt>
      <trkpt lat="43.273738" lon="-2.895176">
        <ele>283.6</ele>
        <time>1970-01-01T00:23:50.000Z</time>
      </trkpt>
      <trkpt lat="43.273731" lon="-2.895206">
        <ele>283.6</ele>
        <time>1970-01-01T00:23:51.000Z</time>
      </trkpt>
      <trkpt lat="43.273725" lon="-2.895241">
        <ele>283.6</ele>
        <time>1970-01-01T00:23:52.000Z</time>
      </trkpt>
      <trkpt lat="43.27372" lon="-2.895276">
        <ele>283.6</ele>
        <time>1970-01-01T00:23:53.000Z</time>
      </trkpt>
      <trkpt lat="43.27371" lon="-2.895308">
        <ele>284.4</ele>
        <time>1970-01-01T00:23:54.000Z</time>
      </trkpt>
      <trkpt lat="43.273696" lon="-2.89534">
        <ele>284.4</ele>
        <time>1970-01-01T00:23:55.000Z</time>
      </trkpt>
      <trkpt lat="43.273685" lon="-2.89537">
        <ele>284.4</ele>
        <time>1970-01-01T00:23:56.000Z</time>
      </trkpt>
      <trkpt lat="43.273673" lon="-2.895396">
        <ele>285.2</ele>
        <time>1970-01-01T00:23:57.000Z</time>
      </trkpt>
      <trkpt lat="43.27366" lon="-2.895425">
        <ele>285.8</ele>
        <time>1970-01-01T00:23:58.000Z</time>
      </trkpt>
      <trkpt lat="43.273651" lon="-2.89545">
        <ele>285.8</ele>
        <time>1970-01-01T00:23:59.000Z</time>
      </trkpt>
      <trkpt lat="43.273641" lon="-2.895475">
        <ele>285.8</ele>
        <time>1970-01-01T00:24:00.000Z</time>
      </trkpt>
      <trkpt lat="43.273633" lon="-2.895501">
        <ele>285.8</ele>
        <time>1970-01-01T00:24:01.000Z</time>
      </trkpt>
      <trkpt lat="43.273626" lon="-2.895531">
        <ele>285.8</ele>
        <time>1970-01-01T00:24:02.000Z</time>
      </trkpt>
      <trkpt lat="43.273613" lon="-2.895556">
        <ele>285.8</ele>
        <time>1970-01-01T00:24:03.000Z</time>
      </trkpt>
      <trkpt lat="43.2736" lon="-2.895583">
        <ele>285.8</ele>
        <time>1970-01-01T00:24:04.000Z</time>
      </trkpt>
      <trkpt lat="43.273586" lon="-2.895615">
        <ele>286.8</ele>
        <time>1970-01-01T00:24:05.000Z</time>
      </trkpt>
      <trkpt lat="43.273576" lon="-2.89565">
        <ele>286.8</ele>
        <time>1970-01-01T00:24:06.000Z</time>
      </trkpt>
      <trkpt lat="43.273565" lon="-2.895688">
        <ele>287.4</ele>
        <time>1970-01-01T00:24:07.000Z</time>
      </trkpt>
      <trkpt lat="43.273555" lon="-2.895726">
        <ele>287.4</ele>
        <time>1970-01-01T00:24:08.000Z</time>
      </trkpt>
      <trkpt lat="43.273545" lon="-2.895766">
        <ele>287.4</ele>
        <time>1970-01-01T00:24:09.000Z</time>
      </trkpt>
      <trkpt lat="43.273536" lon="-2.895806">
        <ele>287.8</ele>
        <time>1970-01-01T00:24:10.000Z</time>
      </trkpt>
      <trkpt lat="43.273526" lon="-2.895845">
        <ele>287.8</ele>
        <time>1970-01-01T00:24:11.000Z</time>
      </trkpt>
      <trkpt lat="43.273516" lon="-2.895881">
        <ele>287.8</ele>
        <time>1970-01-01T00:24:12.000Z</time>
      </trkpt>
      <trkpt lat="43.273508" lon="-2.895918">
        <ele>288.8</ele>
        <time>1970-01-01T00:24:13.000Z</time>
      </trkpt>
      <trkpt lat="43.273501" lon="-2.89595">
        <ele>289.4</ele>
        <time>1970-01-01T00:24:14.000Z</time>
      </trkpt>
      <trkpt lat="43.273498" lon="-2.895978">
        <ele>289.4</ele>
        <time>1970-01-01T00:24:15.000Z</time>
      </trkpt>
      <trkpt lat="43.27349" lon="-2.896">
        <ele>289.4</ele>
        <time>1970-01-01T00:24:16.000Z</time>
      </trkpt>
      <trkpt lat="43.273475" lon="-2.896015">
        <ele>289.4</ele>
        <time>1970-01-01T00:24:17.000Z</time>
      </trkpt>
      <trkpt lat="43.273455" lon="-2.89601">
        <ele>289.4</ele>
        <time>1970-01-01T00:24:18.000Z</time>
      </trkpt>
      <trkpt lat="43.27344" lon="-2.895991">
        <ele>289.4</ele>
        <time>1970-01-01T00:24:19.000Z</time>
      </trkpt>
      <trkpt lat="43.27343" lon="-2.89596">
        <ele>289.4</ele>
        <time>1970-01-01T00:24:20.000Z</time>
      </trkpt>
      <trkpt lat="43.27343" lon="-2.895923">
        <ele>289.4</ele>
        <time>1970-01-01T00:24:21.000Z</time>
      </trkpt>
      <trkpt lat="43.273433" lon="-2.895883">
        <ele>289</ele>
        <time>1970-01-01T00:24:22.000Z</time>
      </trkpt>
      <trkpt lat="43.27344" lon="-2.89584">
        <ele>289</ele>
        <time>1970-01-01T00:24:23.000Z</time>
      </trkpt>
      <trkpt lat="43.273448" lon="-2.895796">
        <ele>289</ele>
        <time>1970-01-01T00:24:24.000Z</time>
      </trkpt>
      <trkpt lat="43.273458" lon="-2.895751">
        <ele>289.2</ele>
        <time>1970-01-01T00:24:25.000Z</time>
      </trkpt>
      <trkpt lat="43.273463" lon="-2.895705">
        <ele>289.2</ele>
        <time>1970-01-01T00:24:26.000Z</time>
      </trkpt>
      <trkpt lat="43.27347" lon="-2.895658">
        <ele>289.2</ele>
        <time>1970-01-01T00:24:27.000Z</time>
      </trkpt>
      <trkpt lat="43.273478" lon="-2.89561">
        <ele>289.2</ele>
        <time>1970-01-01T00:24:28.000Z</time>
      </trkpt>
      <trkpt lat="43.273486" lon="-2.895565">
        <ele>289.2</ele>
        <time>1970-01-01T00:24:29.000Z</time>
      </trkpt>
      <trkpt lat="43.273495" lon="-2.895516">
        <ele>289.2</ele>
        <time>1970-01-01T00:24:30.000Z</time>
      </trkpt>
      <trkpt lat="43.273503" lon="-2.89547">
        <ele>289.6</ele>
        <time>1970-01-01T00:24:31.000Z</time>
      </trkpt>
      <trkpt lat="43.273513" lon="-2.895421">
        <ele>289.6</ele>
        <time>1970-01-01T00:24:32.000Z</time>
      </trkpt>
      <trkpt lat="43.273523" lon="-2.895375">
        <ele>289.6</ele>
        <time>1970-01-01T00:24:33.000Z</time>
      </trkpt>
      <trkpt lat="43.273531" lon="-2.895328">
        <ele>290</ele>
        <time>1970-01-01T00:24:34.000Z</time>
      </trkpt>
      <trkpt lat="43.273541" lon="-2.89528">
        <ele>290</ele>
        <time>1970-01-01T00:24:35.000Z</time>
      </trkpt>
      <trkpt lat="43.273551" lon="-2.895231">
        <ele>290</ele>
        <time>1970-01-01T00:24:36.000Z</time>
      </trkpt>
      <trkpt lat="43.27356" lon="-2.895181">
        <ele>290</ele>
        <time>1970-01-01T00:24:37.000Z</time>
      </trkpt>
      <trkpt lat="43.273568" lon="-2.895131">
        <ele>290.2</ele>
        <time>1970-01-01T00:24:38.000Z</time>
      </trkpt>
      <trkpt lat="43.273576" lon="-2.89508">
        <ele>290.2</ele>
        <time>1970-01-01T00:24:39.000Z</time>
      </trkpt>
      <trkpt lat="43.273581" lon="-2.89503">
        <ele>290.2</ele>
        <time>1970-01-01T00:24:40.000Z</time>
      </trkpt>
      <trkpt lat="43.273585" lon="-2.89498">
        <ele>290.2</ele>
        <time>1970-01-01T00:24:41.000Z</time>
      </trkpt>
      <trkpt lat="43.273581" lon="-2.894931">
        <ele>290.2</ele>
        <time>1970-01-01T00:24:42.000Z</time>
      </trkpt>
      <trkpt lat="43.273578" lon="-2.89488">
        <ele>290.2</ele>
        <time>1970-01-01T00:24:43.000Z</time>
      </trkpt>
      <trkpt lat="43.273573" lon="-2.894831">
        <ele>290.2</ele>
        <time>1970-01-01T00:24:44.000Z</time>
      </trkpt>
      <trkpt lat="43.273563" lon="-2.894783">
        <ele>290.2</ele>
        <time>1970-01-01T00:24:45.000Z</time>
      </trkpt>
      <trkpt lat="43.273551" lon="-2.894738">
        <ele>290.4</ele>
        <time>1970-01-01T00:24:46.000Z</time>
      </trkpt>
      <trkpt lat="43.27354" lon="-2.894695">
        <ele>290.4</ele>
        <time>1970-01-01T00:24:47.000Z</time>
      </trkpt>
      <trkpt lat="43.273531" lon="-2.894646">
        <ele>290.4</ele>
        <time>1970-01-01T00:24:48.000Z</time>
      </trkpt>
      <trkpt lat="43.273521" lon="-2.894598">
        <ele>290.6</ele>
        <time>1970-01-01T00:24:49.000Z</time>
      </trkpt>
      <trkpt lat="43.273513" lon="-2.89455">
        <ele>291</ele>
        <time>1970-01-01T00:24:50.000Z</time>
      </trkpt>
      <trkpt lat="43.2735" lon="-2.894503">
        <ele>291</ele>
        <time>1970-01-01T00:24:51.000Z</time>
      </trkpt>
      <trkpt lat="43.273486" lon="-2.894456">
        <ele>291</ele>
        <time>1970-01-01T00:24:52.000Z</time>
      </trkpt>
      <trkpt lat="43.273473" lon="-2.894411">
        <ele>291.2</ele>
        <time>1970-01-01T00:24:53.000Z</time>
      </trkpt>
      <trkpt lat="43.273463" lon="-2.894366">
        <ele>291.2</ele>
        <time>1970-01-01T00:24:54.000Z</time>
      </trkpt>
      <trkpt lat="43.27345" lon="-2.894325">
        <ele>291.2</ele>
        <time>1970-01-01T00:24:55.000Z</time>
      </trkpt>
      <trkpt lat="43.273436" lon="-2.894278">
        <ele>291.2</ele>
        <time>1970-01-01T00:24:56.000Z</time>
      </trkpt>
      <trkpt lat="43.273426" lon="-2.894231">
        <ele>291.2</ele>
        <time>1970-01-01T00:24:57.000Z</time>
      </trkpt>
      <trkpt lat="43.273415" lon="-2.894185">
        <ele>291.4</ele>
        <time>1970-01-01T00:24:58.000Z</time>
      </trkpt>
      <trkpt lat="43.273401" lon="-2.89414">
        <ele>291.4</ele>
        <time>1970-01-01T00:24:59.000Z</time>
      </trkpt>
      <trkpt lat="43.273383" lon="-2.894096">
        <ele>291.4</ele>
        <time>1970-01-01T00:25:00.000Z</time>
      </trkpt>
      <trkpt lat="43.273365" lon="-2.894056">
        <ele>291.4</ele>
        <time>1970-01-01T00:25:01.000Z</time>
      </trkpt>
      <trkpt lat="43.273346" lon="-2.894016">
        <ele>292.2</ele>
        <time>1970-01-01T00:25:02.000Z</time>
      </trkpt>
      <trkpt lat="43.273323" lon="-2.893981">
        <ele>292.2</ele>
        <time>1970-01-01T00:25:03.000Z</time>
      </trkpt>
      <trkpt lat="43.2733" lon="-2.893946">
        <ele>292.2</ele>
        <time>1970-01-01T00:25:04.000Z</time>
      </trkpt>
      <trkpt lat="43.273273" lon="-2.893913">
        <ele>292.2</ele>
        <time>1970-01-01T00:25:05.000Z</time>
      </trkpt>
      <trkpt lat="43.273246" lon="-2.893883">
        <ele>292.6</ele>
        <time>1970-01-01T00:25:06.000Z</time>
      </trkpt>
      <trkpt lat="43.273218" lon="-2.893855">
        <ele>292.6</ele>
        <time>1970-01-01T00:25:07.000Z</time>
      </trkpt>
      <trkpt lat="43.27319" lon="-2.893831">
        <ele>292.6</ele>
        <time>1970-01-01T00:25:08.000Z</time>
      </trkpt>
      <trkpt lat="43.273163" lon="-2.8938">
        <ele>293</ele>
        <time>1970-01-01T00:25:09.000Z</time>
      </trkpt>
      <trkpt lat="43.273135" lon="-2.893773">
        <ele>293</ele>
        <time>1970-01-01T00:25:10.000Z</time>
      </trkpt>
      <trkpt lat="43.273106" lon="-2.893743">
        <ele>293.2</ele>
        <time>1970-01-01T00:25:11.000Z</time>
      </trkpt>
      <trkpt lat="43.273075" lon="-2.893716">
        <ele>293.2</ele>
        <time>1970-01-01T00:25:12.000Z</time>
      </trkpt>
      <trkpt lat="43.273045" lon="-2.89369">
        <ele>293.2</ele>
        <time>1970-01-01T00:25:13.000Z</time>
      </trkpt>
      <trkpt lat="43.273016" lon="-2.893666">
        <ele>293.4</ele>
        <time>1970-01-01T00:25:14.000Z</time>
      </trkpt>
      <trkpt lat="43.27299" lon="-2.89364">
        <ele>293.4</ele>
        <time>1970-01-01T00:25:15.000Z</time>
      </trkpt>
      <trkpt lat="43.272961" lon="-2.893611">
        <ele>293.4</ele>
        <time>1970-01-01T00:25:16.000Z</time>
      </trkpt>
      <trkpt lat="43.272933" lon="-2.893585">
        <ele>293.4</ele>
        <time>1970-01-01T00:25:17.000Z</time>
      </trkpt>
      <trkpt lat="43.272906" lon="-2.893558">
        <ele>293.8</ele>
        <time>1970-01-01T00:25:18.000Z</time>
      </trkpt>
      <trkpt lat="43.272876" lon="-2.893536">
        <ele>293.8</ele>
        <time>1970-01-01T00:25:19.000Z</time>
      </trkpt>
      <trkpt lat="43.272848" lon="-2.893506">
        <ele>293.8</ele>
        <time>1970-01-01T00:25:20.000Z</time>
      </trkpt>
      <trkpt lat="43.272815" lon="-2.89348">
        <ele>293.8</ele>
        <time>1970-01-01T00:25:21.000Z</time>
      </trkpt>
      <trkpt lat="43.272788" lon="-2.89345">
        <ele>294.6</ele>
        <time>1970-01-01T00:25:22.000Z</time>
      </trkpt>
      <trkpt lat="43.27276" lon="-2.893421">
        <ele>294.6</ele>
        <time>1970-01-01T00:25:23.000Z</time>
      </trkpt>
      <trkpt lat="43.272733" lon="-2.893391">
        <ele>294.6</ele>
        <time>1970-01-01T00:25:24.000Z</time>
      </trkpt>
      <trkpt lat="43.272703" lon="-2.893366">
        <ele>294.8</ele>
        <time>1970-01-01T00:25:25.000Z</time>
      </trkpt>
      <trkpt lat="43.272675" lon="-2.893341">
        <ele>295.2</ele>
        <time>1970-01-01T00:25:26.000Z</time>
      </trkpt>
      <trkpt lat="43.272655" lon="-2.893315">
        <ele>295.2</ele>
        <time>1970-01-01T00:25:27.000Z</time>
      </trkpt>
      <trkpt lat="43.272623" lon="-2.893288">
        <ele>295.2</ele>
        <time>1970-01-01T00:25:28.000Z</time>
      </trkpt>
      <trkpt lat="43.272591" lon="-2.893258">
        <ele>295.2</ele>
        <time>1970-01-01T00:25:29.000Z</time>
      </trkpt>
      <trkpt lat="43.272556" lon="-2.893226">
        <ele>295.2</ele>
        <time>1970-01-01T00:25:30.000Z</time>
      </trkpt>
      <trkpt lat="43.272518" lon="-2.893191">
        <ele>295</ele>
        <time>1970-01-01T00:25:31.000Z</time>
      </trkpt>
      <trkpt lat="43.272485" lon="-2.893145">
        <ele>295</ele>
        <time>1970-01-01T00:25:32.000Z</time>
      </trkpt>
      <trkpt lat="43.272446" lon="-2.893108">
        <ele>295</ele>
        <time>1970-01-01T00:25:33.000Z</time>
      </trkpt>
      <trkpt lat="43.27241" lon="-2.893071">
        <ele>295.4</ele>
        <time>1970-01-01T00:25:34.000Z</time>
      </trkpt>
      <trkpt lat="43.27237" lon="-2.893035">
        <ele>295.4</ele>
        <time>1970-01-01T00:25:35.000Z</time>
      </trkpt>
      <trkpt lat="43.272331" lon="-2.893">
        <ele>295.4</ele>
        <time>1970-01-01T00:25:36.000Z</time>
      </trkpt>
      <trkpt lat="43.27229" lon="-2.892966">
        <ele>296.2</ele>
        <time>1970-01-01T00:25:37.000Z</time>
      </trkpt>
      <trkpt lat="43.272245" lon="-2.89294">
        <ele>296.2</ele>
        <time>1970-01-01T00:25:38.000Z</time>
      </trkpt>
      <trkpt lat="43.272198" lon="-2.89292">
        <ele>296.4</ele>
        <time>1970-01-01T00:25:39.000Z</time>
      </trkpt>
      <trkpt lat="43.272153" lon="-2.892906">
        <ele>296.4</ele>
        <time>1970-01-01T00:25:40.000Z</time>
      </trkpt>
      <trkpt lat="43.272106" lon="-2.8929">
        <ele>296.6</ele>
        <time>1970-01-01T00:25:41.000Z</time>
      </trkpt>
      <trkpt lat="43.272061" lon="-2.892888">
        <ele>296.6</ele>
        <time>1970-01-01T00:25:42.000Z</time>
      </trkpt>
      <trkpt lat="43.272018" lon="-2.892876">
        <ele>296.6</ele>
        <time>1970-01-01T00:25:43.000Z</time>
      </trkpt>
      <trkpt lat="43.271975" lon="-2.892861">
        <ele>296.6</ele>
        <time>1970-01-01T00:25:44.000Z</time>
      </trkpt>
      <trkpt lat="43.271933" lon="-2.892843">
        <ele>297.2</ele>
        <time>1970-01-01T00:25:45.000Z</time>
      </trkpt>
      <trkpt lat="43.271891" lon="-2.89282">
        <ele>297.2</ele>
        <time>1970-01-01T00:25:46.000Z</time>
      </trkpt>
      <trkpt lat="43.27185" lon="-2.892795">
        <ele>297.2</ele>
        <time>1970-01-01T00:25:47.000Z</time>
      </trkpt>
      <trkpt lat="43.271805" lon="-2.892775">
        <ele>297.2</ele>
        <time>1970-01-01T00:25:48.000Z</time>
      </trkpt>
      <trkpt lat="43.271771" lon="-2.89274">
        <ele>297.6</ele>
        <time>1970-01-01T00:25:49.000Z</time>
      </trkpt>
      <trkpt lat="43.271738" lon="-2.892708">
        <ele>298</ele>
        <time>1970-01-01T00:25:50.000Z</time>
      </trkpt>
      <trkpt lat="43.271706" lon="-2.892676">
        <ele>298</ele>
        <time>1970-01-01T00:25:51.000Z</time>
      </trkpt>
      <trkpt lat="43.271676" lon="-2.892643">
        <ele>298</ele>
        <time>1970-01-01T00:25:52.000Z</time>
      </trkpt>
      <trkpt lat="43.27165" lon="-2.892613">
        <ele>298</ele>
        <time>1970-01-01T00:25:53.000Z</time>
      </trkpt>
      <trkpt lat="43.271618" lon="-2.892578">
        <ele>298.2</ele>
        <time>1970-01-01T00:25:54.000Z</time>
      </trkpt>
      <trkpt lat="43.271585" lon="-2.892548">
        <ele>298.2</ele>
        <time>1970-01-01T00:25:55.000Z</time>
      </trkpt>
      <trkpt lat="43.27156" lon="-2.892511">
        <ele>298.2</ele>
        <time>1970-01-01T00:25:56.000Z</time>
      </trkpt>
      <trkpt lat="43.271531" lon="-2.89248">
        <ele>299</ele>
        <time>1970-01-01T00:25:57.000Z</time>
      </trkpt>
      <trkpt lat="43.271506" lon="-2.892445">
        <ele>298.8</ele>
        <time>1970-01-01T00:25:58.000Z</time>
      </trkpt>
      <trkpt lat="43.271473" lon="-2.892408">
        <ele>298.8</ele>
        <time>1970-01-01T00:25:59.000Z</time>
      </trkpt>
      <trkpt lat="43.271445" lon="-2.892366">
        <ele>298.8</ele>
        <time>1970-01-01T00:26:00.000Z</time>
      </trkpt>
      <trkpt lat="43.271416" lon="-2.892326">
        <ele>298.8</ele>
        <time>1970-01-01T00:26:01.000Z</time>
      </trkpt>
      <trkpt lat="43.271393" lon="-2.892285">
        <ele>299.2</ele>
        <time>1970-01-01T00:26:02.000Z</time>
      </trkpt>
      <trkpt lat="43.271375" lon="-2.892233">
        <ele>299.2</ele>
        <time>1970-01-01T00:26:03.000Z</time>
      </trkpt>
      <trkpt lat="43.271353" lon="-2.892186">
        <ele>299.2</ele>
        <time>1970-01-01T00:26:04.000Z</time>
      </trkpt>
      <trkpt lat="43.271336" lon="-2.892131">
        <ele>299.8</ele>
        <time>1970-01-01T00:26:05.000Z</time>
      </trkpt>
      <trkpt lat="43.27132" lon="-2.89208">
        <ele>299.8</ele>
        <time>1970-01-01T00:26:06.000Z</time>
      </trkpt>
      <trkpt lat="43.271303" lon="-2.892023">
        <ele>300.2</ele>
        <time>1970-01-01T00:26:07.000Z</time>
      </trkpt>
      <trkpt lat="43.27129" lon="-2.89197">
        <ele>300.2</ele>
        <time>1970-01-01T00:26:08.000Z</time>
      </trkpt>
      <trkpt lat="43.27128" lon="-2.89191">
        <ele>300.2</ele>
        <time>1970-01-01T00:26:09.000Z</time>
      </trkpt>
      <trkpt lat="43.271268" lon="-2.89185">
        <ele>300.4</ele>
        <time>1970-01-01T00:26:10.000Z</time>
      </trkpt>
      <trkpt lat="43.271253" lon="-2.891795">
        <ele>300.4</ele>
        <time>1970-01-01T00:26:11.000Z</time>
      </trkpt>
      <trkpt lat="43.271241" lon="-2.89174">
        <ele>300.4</ele>
        <time>1970-01-01T00:26:12.000Z</time>
      </trkpt>
      <trkpt lat="43.271236" lon="-2.891688">
        <ele>301</ele>
        <time>1970-01-01T00:26:13.000Z</time>
      </trkpt>
      <trkpt lat="43.27122" lon="-2.891631">
        <ele>301</ele>
        <time>1970-01-01T00:26:14.000Z</time>
      </trkpt>
      <trkpt lat="43.271208" lon="-2.891581">
        <ele>301</ele>
        <time>1970-01-01T00:26:15.000Z</time>
      </trkpt>
      <trkpt lat="43.271201" lon="-2.891538">
        <ele>301</ele>
        <time>1970-01-01T00:26:16.000Z</time>
      </trkpt>
      <trkpt lat="43.27119" lon="-2.891485">
        <ele>301</ele>
        <time>1970-01-01T00:26:17.000Z</time>
      </trkpt>
      <trkpt lat="43.271183" lon="-2.891433">
        <ele>301.4</ele>
        <time>1970-01-01T00:26:18.000Z</time>
      </trkpt>
      <trkpt lat="43.271173" lon="-2.891381">
        <ele>301.4</ele>
        <time>1970-01-01T00:26:19.000Z</time>
      </trkpt>
      <trkpt lat="43.271161" lon="-2.891336">
        <ele>301.4</ele>
        <time>1970-01-01T00:26:20.000Z</time>
      </trkpt>
      <trkpt lat="43.27114" lon="-2.891281">
        <ele>301.8</ele>
        <time>1970-01-01T00:26:21.000Z</time>
      </trkpt>
      <trkpt lat="43.271121" lon="-2.891228">
        <ele>301.8</ele>
        <time>1970-01-01T00:26:22.000Z</time>
      </trkpt>
      <trkpt lat="43.271101" lon="-2.891178">
        <ele>301.8</ele>
        <time>1970-01-01T00:26:23.000Z</time>
      </trkpt>
      <trkpt lat="43.271088" lon="-2.891135">
        <ele>301.8</ele>
        <time>1970-01-01T00:26:24.000Z</time>
      </trkpt>
      <trkpt lat="43.271066" lon="-2.891081">
        <ele>302.6</ele>
        <time>1970-01-01T00:26:25.000Z</time>
      </trkpt>
      <trkpt lat="43.271045" lon="-2.891035">
        <ele>302.6</ele>
        <time>1970-01-01T00:26:26.000Z</time>
      </trkpt>
      <trkpt lat="43.271023" lon="-2.890983">
        <ele>302.6</ele>
        <time>1970-01-01T00:26:27.000Z</time>
      </trkpt>
      <trkpt lat="43.271003" lon="-2.890941">
        <ele>302.6</ele>
        <time>1970-01-01T00:26:28.000Z</time>
      </trkpt>
      <trkpt lat="43.270976" lon="-2.890895">
        <ele>303</ele>
        <time>1970-01-01T00:26:29.000Z</time>
      </trkpt>
      <trkpt lat="43.27095" lon="-2.890846">
        <ele>303.2</ele>
        <time>1970-01-01T00:26:30.000Z</time>
      </trkpt>
      <trkpt lat="43.270921" lon="-2.8908">
        <ele>303.2</ele>
        <time>1970-01-01T00:26:31.000Z</time>
      </trkpt>
      <trkpt lat="43.270901" lon="-2.890751">
        <ele>303.2</ele>
        <time>1970-01-01T00:26:32.000Z</time>
      </trkpt>
      <trkpt lat="43.270876" lon="-2.89071">
        <ele>303.2</ele>
        <time>1970-01-01T00:26:33.000Z</time>
      </trkpt>
      <trkpt lat="43.27085" lon="-2.89067">
        <ele>303.8</ele>
        <time>1970-01-01T00:26:34.000Z</time>
      </trkpt>
      <trkpt lat="43.270825" lon="-2.89062">
        <ele>303.8</ele>
        <time>1970-01-01T00:26:35.000Z</time>
      </trkpt>
      <trkpt lat="43.270795" lon="-2.890576">
        <ele>303.8</ele>
        <time>1970-01-01T00:26:36.000Z</time>
      </trkpt>
      <trkpt lat="43.270766" lon="-2.890535">
        <ele>303.8</ele>
        <time>1970-01-01T00:26:37.000Z</time>
      </trkpt>
      <trkpt lat="43.270736" lon="-2.890493">
        <ele>304</ele>
        <time>1970-01-01T00:26:38.000Z</time>
      </trkpt>
      <trkpt lat="43.270706" lon="-2.89045">
        <ele>304</ele>
        <time>1970-01-01T00:26:39.000Z</time>
      </trkpt>
      <trkpt lat="43.270676" lon="-2.890411">
        <ele>304</ele>
        <time>1970-01-01T00:26:40.000Z</time>
      </trkpt>
      <trkpt lat="43.270645" lon="-2.890373">
        <ele>304</ele>
        <time>1970-01-01T00:26:41.000Z</time>
      </trkpt>
      <trkpt lat="43.270615" lon="-2.890333">
        <ele>304.8</ele>
        <time>1970-01-01T00:26:42.000Z</time>
      </trkpt>
      <trkpt lat="43.270586" lon="-2.890285">
        <ele>304.8</ele>
        <time>1970-01-01T00:26:43.000Z</time>
      </trkpt>
      <trkpt lat="43.270556" lon="-2.890238">
        <ele>304.8</ele>
        <time>1970-01-01T00:26:44.000Z</time>
      </trkpt>
      <trkpt lat="43.270526" lon="-2.8902">
        <ele>305</ele>
        <time>1970-01-01T00:26:45.000Z</time>
      </trkpt>
      <trkpt lat="43.270495" lon="-2.890163">
        <ele>305.8</ele>
        <time>1970-01-01T00:26:46.000Z</time>
      </trkpt>
      <trkpt lat="43.270461" lon="-2.890123">
        <ele>305.8</ele>
        <time>1970-01-01T00:26:47.000Z</time>
      </trkpt>
      <trkpt lat="43.27043" lon="-2.890083">
        <ele>305.8</ele>
        <time>1970-01-01T00:26:48.000Z</time>
      </trkpt>
      <trkpt lat="43.270396" lon="-2.890048">
        <ele>305.8</ele>
        <time>1970-01-01T00:26:49.000Z</time>
      </trkpt>
      <trkpt lat="43.270363" lon="-2.890013">
        <ele>305.8</ele>
        <time>1970-01-01T00:26:50.000Z</time>
      </trkpt>
      <trkpt lat="43.270328" lon="-2.889971">
        <ele>305.8</ele>
        <time>1970-01-01T00:26:51.000Z</time>
      </trkpt>
      <trkpt lat="43.270295" lon="-2.889931">
        <ele>305.8</ele>
        <time>1970-01-01T00:26:52.000Z</time>
      </trkpt>
      <trkpt lat="43.270263" lon="-2.889896">
        <ele>306.2</ele>
        <time>1970-01-01T00:26:53.000Z</time>
      </trkpt>
      <trkpt lat="43.270231" lon="-2.889855">
        <ele>306.6</ele>
        <time>1970-01-01T00:26:54.000Z</time>
      </trkpt>
      <trkpt lat="43.2702" lon="-2.889816">
        <ele>306.6</ele>
        <time>1970-01-01T00:26:55.000Z</time>
      </trkpt>
      <trkpt lat="43.270166" lon="-2.889776">
        <ele>306.6</ele>
        <time>1970-01-01T00:26:56.000Z</time>
      </trkpt>
      <trkpt lat="43.270136" lon="-2.889735">
        <ele>307</ele>
        <time>1970-01-01T00:26:57.000Z</time>
      </trkpt>
      <trkpt lat="43.270106" lon="-2.889698">
        <ele>307</ele>
        <time>1970-01-01T00:26:58.000Z</time>
      </trkpt>
      <trkpt lat="43.270076" lon="-2.889661">
        <ele>307.6</ele>
        <time>1970-01-01T00:26:59.000Z</time>
      </trkpt>
      <trkpt lat="43.270046" lon="-2.889626">
        <ele>307.6</ele>
        <time>1970-01-01T00:27:00.000Z</time>
      </trkpt>
      <trkpt lat="43.27002" lon="-2.889586">
        <ele>307.6</ele>
        <time>1970-01-01T00:27:01.000Z</time>
      </trkpt>
      <trkpt lat="43.269993" lon="-2.889546">
        <ele>307.6</ele>
        <time>1970-01-01T00:27:02.000Z</time>
      </trkpt>
      <trkpt lat="43.269968" lon="-2.889506">
        <ele>308.2</ele>
        <time>1970-01-01T00:27:03.000Z</time>
      </trkpt>
      <trkpt lat="43.269946" lon="-2.889461">
        <ele>308.2</ele>
        <time>1970-01-01T00:27:04.000Z</time>
      </trkpt>
      <trkpt lat="43.269926" lon="-2.889413">
        <ele>308.8</ele>
        <time>1970-01-01T00:27:05.000Z</time>
      </trkpt>
      <trkpt lat="43.269905" lon="-2.889365">
        <ele>309.2</ele>
        <time>1970-01-01T00:27:06.000Z</time>
      </trkpt>
      <trkpt lat="43.269883" lon="-2.889315">
        <ele>309.2</ele>
        <time>1970-01-01T00:27:07.000Z</time>
      </trkpt>
      <trkpt lat="43.269863" lon="-2.889261">
        <ele>309.2</ele>
        <time>1970-01-01T00:27:08.000Z</time>
      </trkpt>
      <trkpt lat="43.269845" lon="-2.88921">
        <ele>309.6</ele>
        <time>1970-01-01T00:27:09.000Z</time>
      </trkpt>
      <trkpt lat="43.269828" lon="-2.889158">
        <ele>310</ele>
        <time>1970-01-01T00:27:10.000Z</time>
      </trkpt>
      <trkpt lat="43.269793" lon="-2.889108">
        <ele>310</ele>
        <time>1970-01-01T00:27:11.000Z</time>
      </trkpt>
      <trkpt lat="43.269776" lon="-2.889056">
        <ele>310</ele>
        <time>1970-01-01T00:27:12.000Z</time>
      </trkpt>
      <trkpt lat="43.26976" lon="-2.889003">
        <ele>310</ele>
        <time>1970-01-01T00:27:13.000Z</time>
      </trkpt>
      <trkpt lat="43.269746" lon="-2.888948">
        <ele>310.4</ele>
        <time>1970-01-01T00:27:14.000Z</time>
      </trkpt>
      <trkpt lat="43.269735" lon="-2.888893">
        <ele>310.4</ele>
        <time>1970-01-01T00:27:15.000Z</time>
      </trkpt>
      <trkpt lat="43.269726" lon="-2.888836">
        <ele>310.4</ele>
        <time>1970-01-01T00:27:16.000Z</time>
      </trkpt>
      <trkpt lat="43.269721" lon="-2.88878">
        <ele>311.2</ele>
        <time>1970-01-01T00:27:17.000Z</time>
      </trkpt>
      <trkpt lat="43.269715" lon="-2.888725">
        <ele>311.2</ele>
        <time>1970-01-01T00:27:18.000Z</time>
      </trkpt>
      <trkpt lat="43.269711" lon="-2.88867">
        <ele>311</ele>
        <time>1970-01-01T00:27:19.000Z</time>
      </trkpt>
      <trkpt lat="43.269711" lon="-2.888611">
        <ele>311</ele>
        <time>1970-01-01T00:27:20.000Z</time>
      </trkpt>
      <trkpt lat="43.269713" lon="-2.888555">
        <ele>311.6</ele>
        <time>1970-01-01T00:27:21.000Z</time>
      </trkpt>
      <trkpt lat="43.269718" lon="-2.888496">
        <ele>311.8</ele>
        <time>1970-01-01T00:27:22.000Z</time>
      </trkpt>
      <trkpt lat="43.269723" lon="-2.888441">
        <ele>311.8</ele>
        <time>1970-01-01T00:27:23.000Z</time>
      </trkpt>
      <trkpt lat="43.26973" lon="-2.888386">
        <ele>311.8</ele>
        <time>1970-01-01T00:27:24.000Z</time>
      </trkpt>
      <trkpt lat="43.269736" lon="-2.888328">
        <ele>312.2</ele>
        <time>1970-01-01T00:27:25.000Z</time>
      </trkpt>
      <trkpt lat="43.269745" lon="-2.888271">
        <ele>312.6</ele>
        <time>1970-01-01T00:27:26.000Z</time>
      </trkpt>
      <trkpt lat="43.269745" lon="-2.888216">
        <ele>312.6</ele>
        <time>1970-01-01T00:27:27.000Z</time>
      </trkpt>
      <trkpt lat="43.269748" lon="-2.88816">
        <ele>312.6</ele>
        <time>1970-01-01T00:27:28.000Z</time>
      </trkpt>
      <trkpt lat="43.269753" lon="-2.888105">
        <ele>313.4</ele>
        <time>1970-01-01T00:27:29.000Z</time>
      </trkpt>
      <trkpt lat="43.26976" lon="-2.888048">
        <ele>313.8</ele>
        <time>1970-01-01T00:27:30.000Z</time>
      </trkpt>
      <trkpt lat="43.269766" lon="-2.887993">
        <ele>313.8</ele>
        <time>1970-01-01T00:27:31.000Z</time>
      </trkpt>
      <trkpt lat="43.26977" lon="-2.88794">
        <ele>313.8</ele>
        <time>1970-01-01T00:27:32.000Z</time>
      </trkpt>
      <trkpt lat="43.269773" lon="-2.887885">
        <ele>313.8</ele>
        <time>1970-01-01T00:27:33.000Z</time>
      </trkpt>
      <trkpt lat="43.269776" lon="-2.88783">
        <ele>314</ele>
        <time>1970-01-01T00:27:34.000Z</time>
      </trkpt>
      <trkpt lat="43.269776" lon="-2.887776">
        <ele>314</ele>
        <time>1970-01-01T00:27:35.000Z</time>
      </trkpt>
      <trkpt lat="43.269783" lon="-2.88772">
        <ele>314</ele>
        <time>1970-01-01T00:27:36.000Z</time>
      </trkpt>
      <trkpt lat="43.269786" lon="-2.887665">
        <ele>314.6</ele>
        <time>1970-01-01T00:27:37.000Z</time>
      </trkpt>
      <trkpt lat="43.269786" lon="-2.887608">
        <ele>314.6</ele>
        <time>1970-01-01T00:27:38.000Z</time>
      </trkpt>
      <trkpt lat="43.269785" lon="-2.887551">
        <ele>314.8</ele>
        <time>1970-01-01T00:27:39.000Z</time>
      </trkpt>
      <trkpt lat="43.269778" lon="-2.887495">
        <ele>314.8</ele>
        <time>1970-01-01T00:27:40.000Z</time>
      </trkpt>
      <trkpt lat="43.269771" lon="-2.88744">
        <ele>315.4</ele>
        <time>1970-01-01T00:27:41.000Z</time>
      </trkpt>
      <trkpt lat="43.26976" lon="-2.887388">
        <ele>315.4</ele>
        <time>1970-01-01T00:27:42.000Z</time>
      </trkpt>
      <trkpt lat="43.269743" lon="-2.88734">
        <ele>315.4</ele>
        <time>1970-01-01T00:27:43.000Z</time>
      </trkpt>
      <trkpt lat="43.269723" lon="-2.887293">
        <ele>315.4</ele>
        <time>1970-01-01T00:27:44.000Z</time>
      </trkpt>
      <trkpt lat="43.269701" lon="-2.887246">
        <ele>316</ele>
        <time>1970-01-01T00:27:45.000Z</time>
      </trkpt>
      <trkpt lat="43.269676" lon="-2.88721">
        <ele>316.2</ele>
        <time>1970-01-01T00:27:46.000Z</time>
      </trkpt>
      <trkpt lat="43.269651" lon="-2.88717">
        <ele>316.2</ele>
        <time>1970-01-01T00:27:47.000Z</time>
      </trkpt>
      <trkpt lat="43.269626" lon="-2.887128">
        <ele>316.2</ele>
        <time>1970-01-01T00:27:48.000Z</time>
      </trkpt>
      <trkpt lat="43.2696" lon="-2.887088">
        <ele>316.2</ele>
        <time>1970-01-01T00:27:49.000Z</time>
      </trkpt>
      <trkpt lat="43.269571" lon="-2.887046">
        <ele>316.6</ele>
        <time>1970-01-01T00:27:50.000Z</time>
      </trkpt>
      <trkpt lat="43.269543" lon="-2.887005">
        <ele>316.6</ele>
        <time>1970-01-01T00:27:51.000Z</time>
      </trkpt>
      <trkpt lat="43.269515" lon="-2.886968">
        <ele>316.6</ele>
        <time>1970-01-01T00:27:52.000Z</time>
      </trkpt>
      <trkpt lat="43.269488" lon="-2.886931">
        <ele>317</ele>
        <time>1970-01-01T00:27:53.000Z</time>
      </trkpt>
      <trkpt lat="43.269456" lon="-2.886895">
        <ele>317.2</ele>
        <time>1970-01-01T00:27:54.000Z</time>
      </trkpt>
      <trkpt lat="43.269426" lon="-2.88686">
        <ele>317.2</ele>
        <time>1970-01-01T00:27:55.000Z</time>
      </trkpt>
      <trkpt lat="43.2694" lon="-2.886826">
        <ele>317.2</ele>
        <time>1970-01-01T00:27:56.000Z</time>
      </trkpt>
      <trkpt lat="43.269376" lon="-2.88679">
        <ele>317.2</ele>
        <time>1970-01-01T00:27:57.000Z</time>
      </trkpt>
      <trkpt lat="43.269351" lon="-2.886748">
        <ele>317.6</ele>
        <time>1970-01-01T00:27:58.000Z</time>
      </trkpt>
      <trkpt lat="43.269323" lon="-2.886713">
        <ele>317.6</ele>
        <time>1970-01-01T00:27:59.000Z</time>
      </trkpt>
      <trkpt lat="43.269295" lon="-2.886673">
        <ele>317.6</ele>
        <time>1970-01-01T00:28:00.000Z</time>
      </trkpt>
      <trkpt lat="43.269265" lon="-2.886641">
        <ele>317.6</ele>
        <time>1970-01-01T00:28:01.000Z</time>
      </trkpt>
      <trkpt lat="43.269236" lon="-2.88661">
        <ele>317.6</ele>
        <time>1970-01-01T00:28:02.000Z</time>
      </trkpt>
      <trkpt lat="43.269211" lon="-2.886571">
        <ele>317.8</ele>
        <time>1970-01-01T00:28:03.000Z</time>
      </trkpt>
      <trkpt lat="43.269186" lon="-2.886536">
        <ele>317.8</ele>
        <time>1970-01-01T00:28:04.000Z</time>
      </trkpt>
      <trkpt lat="43.269161" lon="-2.886503">
        <ele>318.2</ele>
        <time>1970-01-01T00:28:05.000Z</time>
      </trkpt>
      <trkpt lat="43.26913" lon="-2.886468">
        <ele>318</ele>
        <time>1970-01-01T00:28:06.000Z</time>
      </trkpt>
      <trkpt lat="43.269101" lon="-2.886435">
        <ele>318</ele>
        <time>1970-01-01T00:28:07.000Z</time>
      </trkpt>
      <trkpt lat="43.269073" lon="-2.886398">
        <ele>318</ele>
        <time>1970-01-01T00:28:08.000Z</time>
      </trkpt>
      <trkpt lat="43.269045" lon="-2.886361">
        <ele>318.4</ele>
        <time>1970-01-01T00:28:09.000Z</time>
      </trkpt>
      <trkpt lat="43.269016" lon="-2.886316">
        <ele>319</ele>
        <time>1970-01-01T00:28:10.000Z</time>
      </trkpt>
      <trkpt lat="43.268988" lon="-2.88627">
        <ele>319</ele>
        <time>1970-01-01T00:28:11.000Z</time>
      </trkpt>
      <trkpt lat="43.268958" lon="-2.886228">
        <ele>319</ele>
        <time>1970-01-01T00:28:12.000Z</time>
      </trkpt>
      <trkpt lat="43.268926" lon="-2.88619">
        <ele>319</ele>
        <time>1970-01-01T00:28:13.000Z</time>
      </trkpt>
      <trkpt lat="43.268895" lon="-2.886153">
        <ele>318.8</ele>
        <time>1970-01-01T00:28:14.000Z</time>
      </trkpt>
      <trkpt lat="43.268863" lon="-2.886116">
        <ele>318.8</ele>
        <time>1970-01-01T00:28:15.000Z</time>
      </trkpt>
      <trkpt lat="43.268831" lon="-2.886078">
        <ele>318.8</ele>
        <time>1970-01-01T00:28:16.000Z</time>
      </trkpt>
      <trkpt lat="43.268798" lon="-2.88604">
        <ele>319.4</ele>
        <time>1970-01-01T00:28:17.000Z</time>
      </trkpt>
      <trkpt lat="43.268766" lon="-2.886001">
        <ele>319.4</ele>
        <time>1970-01-01T00:28:18.000Z</time>
      </trkpt>
      <trkpt lat="43.268735" lon="-2.885966">
        <ele>319.4</ele>
        <time>1970-01-01T00:28:19.000Z</time>
      </trkpt>
      <trkpt lat="43.268703" lon="-2.88593">
        <ele>319.4</ele>
        <time>1970-01-01T00:28:20.000Z</time>
      </trkpt>
      <trkpt lat="43.268671" lon="-2.885893">
        <ele>320.4</ele>
        <time>1970-01-01T00:28:21.000Z</time>
      </trkpt>
      <trkpt lat="43.268638" lon="-2.885856">
        <ele>320.6</ele>
        <time>1970-01-01T00:28:22.000Z</time>
      </trkpt>
      <trkpt lat="43.268606" lon="-2.885821">
        <ele>320.6</ele>
        <time>1970-01-01T00:28:23.000Z</time>
      </trkpt>
      <trkpt lat="43.268575" lon="-2.885788">
        <ele>320.6</ele>
        <time>1970-01-01T00:28:24.000Z</time>
      </trkpt>
      <trkpt lat="43.268543" lon="-2.885758">
        <ele>320.6</ele>
        <time>1970-01-01T00:28:25.000Z</time>
      </trkpt>
      <trkpt lat="43.26851" lon="-2.88573">
        <ele>321.2</ele>
        <time>1970-01-01T00:28:26.000Z</time>
      </trkpt>
      <trkpt lat="43.268476" lon="-2.885701">
        <ele>321.2</ele>
        <time>1970-01-01T00:28:27.000Z</time>
      </trkpt>
      <trkpt lat="43.268446" lon="-2.885671">
        <ele>321.2</ele>
        <time>1970-01-01T00:28:28.000Z</time>
      </trkpt>
      <trkpt lat="43.268415" lon="-2.885633">
        <ele>321.2</ele>
        <time>1970-01-01T00:28:29.000Z</time>
      </trkpt>
      <trkpt lat="43.268386" lon="-2.885593">
        <ele>321.8</ele>
        <time>1970-01-01T00:28:30.000Z</time>
      </trkpt>
      <trkpt lat="43.268356" lon="-2.885553">
        <ele>321.8</ele>
        <time>1970-01-01T00:28:31.000Z</time>
      </trkpt>
      <trkpt lat="43.268326" lon="-2.885515">
        <ele>321.8</ele>
        <time>1970-01-01T00:28:32.000Z</time>
      </trkpt>
      <trkpt lat="43.268296" lon="-2.885478">
        <ele>322.4</ele>
        <time>1970-01-01T00:28:33.000Z</time>
      </trkpt>
      <trkpt lat="43.268263" lon="-2.885445">
        <ele>322.4</ele>
        <time>1970-01-01T00:28:34.000Z</time>
      </trkpt>
      <trkpt lat="43.268231" lon="-2.88541">
        <ele>322.4</ele>
        <time>1970-01-01T00:28:35.000Z</time>
      </trkpt>
      <trkpt lat="43.2682" lon="-2.885368">
        <ele>322.4</ele>
        <time>1970-01-01T00:28:36.000Z</time>
      </trkpt>
      <trkpt lat="43.268171" lon="-2.885331">
        <ele>323.2</ele>
        <time>1970-01-01T00:28:37.000Z</time>
      </trkpt>
      <trkpt lat="43.268143" lon="-2.885291">
        <ele>323.2</ele>
        <time>1970-01-01T00:28:38.000Z</time>
      </trkpt>
      <trkpt lat="43.268113" lon="-2.88525">
        <ele>323.2</ele>
        <time>1970-01-01T00:28:39.000Z</time>
      </trkpt>
      <trkpt lat="43.268085" lon="-2.88521">
        <ele>323.2</ele>
        <time>1970-01-01T00:28:40.000Z</time>
      </trkpt>
      <trkpt lat="43.268055" lon="-2.88517">
        <ele>323.6</ele>
        <time>1970-01-01T00:28:41.000Z</time>
      </trkpt>
      <trkpt lat="43.268025" lon="-2.885133">
        <ele>324</ele>
        <time>1970-01-01T00:28:42.000Z</time>
      </trkpt>
      <trkpt lat="43.267995" lon="-2.885096">
        <ele>324</ele>
        <time>1970-01-01T00:28:43.000Z</time>
      </trkpt>
      <trkpt lat="43.267965" lon="-2.885056">
        <ele>324</ele>
        <time>1970-01-01T00:28:44.000Z</time>
      </trkpt>
      <trkpt lat="43.267935" lon="-2.885023">
        <ele>324.2</ele>
        <time>1970-01-01T00:28:45.000Z</time>
      </trkpt>
      <trkpt lat="43.267903" lon="-2.884986">
        <ele>324.4</ele>
        <time>1970-01-01T00:28:46.000Z</time>
      </trkpt>
      <trkpt lat="43.267871" lon="-2.884955">
        <ele>324.4</ele>
        <time>1970-01-01T00:28:47.000Z</time>
      </trkpt>
      <trkpt lat="43.26784" lon="-2.884921">
        <ele>324.4</ele>
        <time>1970-01-01T00:28:48.000Z</time>
      </trkpt>
      <trkpt lat="43.267808" lon="-2.884888">
        <ele>324.4</ele>
        <time>1970-01-01T00:28:49.000Z</time>
      </trkpt>
      <trkpt lat="43.267778" lon="-2.884853">
        <ele>324.8</ele>
        <time>1970-01-01T00:28:50.000Z</time>
      </trkpt>
      <trkpt lat="43.267746" lon="-2.884823">
        <ele>324.8</ele>
        <time>1970-01-01T00:28:51.000Z</time>
      </trkpt>
      <trkpt lat="43.267718" lon="-2.88479">
        <ele>324.8</ele>
        <time>1970-01-01T00:28:52.000Z</time>
      </trkpt>
      <trkpt lat="43.267688" lon="-2.884761">
        <ele>324.8</ele>
        <time>1970-01-01T00:28:53.000Z</time>
      </trkpt>
      <trkpt lat="43.267656" lon="-2.88473">
        <ele>325.4</ele>
        <time>1970-01-01T00:28:54.000Z</time>
      </trkpt>
      <trkpt lat="43.267628" lon="-2.884696">
        <ele>325.4</ele>
        <time>1970-01-01T00:28:55.000Z</time>
      </trkpt>
      <trkpt lat="43.267598" lon="-2.88466">
        <ele>325.4</ele>
        <time>1970-01-01T00:28:56.000Z</time>
      </trkpt>
      <trkpt lat="43.267566" lon="-2.884625">
        <ele>325.4</ele>
        <time>1970-01-01T00:28:57.000Z</time>
      </trkpt>
      <trkpt lat="43.267535" lon="-2.88459">
        <ele>325.8</ele>
        <time>1970-01-01T00:28:58.000Z</time>
      </trkpt>
      <trkpt lat="43.2675" lon="-2.884558">
        <ele>325.8</ele>
        <time>1970-01-01T00:28:59.000Z</time>
      </trkpt>
      <trkpt lat="43.267465" lon="-2.884526">
        <ele>325.8</ele>
        <time>1970-01-01T00:29:00.000Z</time>
      </trkpt>
      <trkpt lat="43.267433" lon="-2.884493">
        <ele>326</ele>
        <time>1970-01-01T00:29:01.000Z</time>
      </trkpt>
      <trkpt lat="43.267401" lon="-2.884461">
        <ele>326</ele>
        <time>1970-01-01T00:29:02.000Z</time>
      </trkpt>
      <trkpt lat="43.26737" lon="-2.884426">
        <ele>326</ele>
        <time>1970-01-01T00:29:03.000Z</time>
      </trkpt>
      <trkpt lat="43.267336" lon="-2.884391">
        <ele>326</ele>
        <time>1970-01-01T00:29:04.000Z</time>
      </trkpt>
      <trkpt lat="43.267305" lon="-2.884356">
        <ele>326.6</ele>
        <time>1970-01-01T00:29:05.000Z</time>
      </trkpt>
      <trkpt lat="43.267273" lon="-2.884321">
        <ele>326.6</ele>
        <time>1970-01-01T00:29:06.000Z</time>
      </trkpt>
      <trkpt lat="43.267241" lon="-2.884288">
        <ele>326.6</ele>
        <time>1970-01-01T00:29:07.000Z</time>
      </trkpt>
      <trkpt lat="43.26721" lon="-2.884253">
        <ele>326.6</ele>
        <time>1970-01-01T00:29:08.000Z</time>
      </trkpt>
      <trkpt lat="43.26718" lon="-2.884216">
        <ele>326.6</ele>
        <time>1970-01-01T00:29:09.000Z</time>
      </trkpt>
      <trkpt lat="43.267151" lon="-2.884178">
        <ele>327.4</ele>
        <time>1970-01-01T00:29:10.000Z</time>
      </trkpt>
      <trkpt lat="43.267123" lon="-2.884138">
        <ele>327.4</ele>
        <time>1970-01-01T00:29:11.000Z</time>
      </trkpt>
      <trkpt lat="43.267101" lon="-2.884093">
        <ele>327.4</ele>
        <time>1970-01-01T00:29:12.000Z</time>
      </trkpt>
      <trkpt lat="43.26708" lon="-2.884041">
        <ele>327.4</ele>
        <time>1970-01-01T00:29:13.000Z</time>
      </trkpt>
      <trkpt lat="43.267058" lon="-2.883996">
        <ele>327.2</ele>
        <time>1970-01-01T00:29:14.000Z</time>
      </trkpt>
      <trkpt lat="43.267038" lon="-2.883946">
        <ele>327.2</ele>
        <time>1970-01-01T00:29:15.000Z</time>
      </trkpt>
      <trkpt lat="43.26702" lon="-2.883893">
        <ele>327.2</ele>
        <time>1970-01-01T00:29:16.000Z</time>
      </trkpt>
      <trkpt lat="43.267001" lon="-2.88384">
        <ele>327.8</ele>
        <time>1970-01-01T00:29:17.000Z</time>
      </trkpt>
      <trkpt lat="43.26698" lon="-2.88379">
        <ele>328</ele>
        <time>1970-01-01T00:29:18.000Z</time>
      </trkpt>
      <trkpt lat="43.266956" lon="-2.883741">
        <ele>328</ele>
        <time>1970-01-01T00:29:19.000Z</time>
      </trkpt>
      <trkpt lat="43.266936" lon="-2.883691">
        <ele>328</ele>
        <time>1970-01-01T00:29:20.000Z</time>
      </trkpt>
      <trkpt lat="43.266921" lon="-2.883636">
        <ele>328</ele>
        <time>1970-01-01T00:29:21.000Z</time>
      </trkpt>
      <trkpt lat="43.266903" lon="-2.883586">
        <ele>328.8</ele>
        <time>1970-01-01T00:29:22.000Z</time>
      </trkpt>
      <trkpt lat="43.266886" lon="-2.883541">
        <ele>328.8</ele>
        <time>1970-01-01T00:29:23.000Z</time>
      </trkpt>
      <trkpt lat="43.266875" lon="-2.883501">
        <ele>328.8</ele>
        <time>1970-01-01T00:29:24.000Z</time>
      </trkpt>
      <trkpt lat="43.266861" lon="-2.883455">
        <ele>328.8</ele>
        <time>1970-01-01T00:29:25.000Z</time>
      </trkpt>
      <trkpt lat="43.266848" lon="-2.88341">
        <ele>329</ele>
        <time>1970-01-01T00:29:26.000Z</time>
      </trkpt>
      <trkpt lat="43.266831" lon="-2.883365">
        <ele>329</ele>
        <time>1970-01-01T00:29:27.000Z</time>
      </trkpt>
      <trkpt lat="43.26681" lon="-2.883318">
        <ele>329</ele>
        <time>1970-01-01T00:29:28.000Z</time>
      </trkpt>
      <trkpt lat="43.266788" lon="-2.883273">
        <ele>329.8</ele>
        <time>1970-01-01T00:29:29.000Z</time>
      </trkpt>
      <trkpt lat="43.266768" lon="-2.883226">
        <ele>329.8</ele>
        <time>1970-01-01T00:29:30.000Z</time>
      </trkpt>
      <trkpt lat="43.266748" lon="-2.88318">
        <ele>330</ele>
        <time>1970-01-01T00:29:31.000Z</time>
      </trkpt>
      <trkpt lat="43.266736" lon="-2.883135">
        <ele>330</ele>
        <time>1970-01-01T00:29:32.000Z</time>
      </trkpt>
      <trkpt lat="43.266711" lon="-2.88309">
        <ele>330</ele>
        <time>1970-01-01T00:29:33.000Z</time>
      </trkpt>
      <trkpt lat="43.266688" lon="-2.883046">
        <ele>330.6</ele>
        <time>1970-01-01T00:29:34.000Z</time>
      </trkpt>
      <trkpt lat="43.266663" lon="-2.883006">
        <ele>330.6</ele>
        <time>1970-01-01T00:29:35.000Z</time>
      </trkpt>
      <trkpt lat="43.266635" lon="-2.882968">
        <ele>330.6</ele>
        <time>1970-01-01T00:29:36.000Z</time>
      </trkpt>
      <trkpt lat="43.266608" lon="-2.882926">
        <ele>330.6</ele>
        <time>1970-01-01T00:29:37.000Z</time>
      </trkpt>
      <trkpt lat="43.266581" lon="-2.882883">
        <ele>331.6</ele>
        <time>1970-01-01T00:29:38.000Z</time>
      </trkpt>
      <trkpt lat="43.266555" lon="-2.882838">
        <ele>331.6</ele>
        <time>1970-01-01T00:29:39.000Z</time>
      </trkpt>
      <trkpt lat="43.266526" lon="-2.882795">
        <ele>331.6</ele>
        <time>1970-01-01T00:29:40.000Z</time>
      </trkpt>
      <trkpt lat="43.266498" lon="-2.882753">
        <ele>331.6</ele>
        <time>1970-01-01T00:29:41.000Z</time>
      </trkpt>
      <trkpt lat="43.26647" lon="-2.882713">
        <ele>331.8</ele>
        <time>1970-01-01T00:29:42.000Z</time>
      </trkpt>
      <trkpt lat="43.266443" lon="-2.882671">
        <ele>331.8</ele>
        <time>1970-01-01T00:29:43.000Z</time>
      </trkpt>
      <trkpt lat="43.266416" lon="-2.882626">
        <ele>331.8</ele>
        <time>1970-01-01T00:29:44.000Z</time>
      </trkpt>
      <trkpt lat="43.266383" lon="-2.882588">
        <ele>332.4</ele>
        <time>1970-01-01T00:29:45.000Z</time>
      </trkpt>
      <trkpt lat="43.266358" lon="-2.882543">
        <ele>332.2</ele>
        <time>1970-01-01T00:29:46.000Z</time>
      </trkpt>
      <trkpt lat="43.26633" lon="-2.882503">
        <ele>332.2</ele>
        <time>1970-01-01T00:29:47.000Z</time>
      </trkpt>
      <trkpt lat="43.266298" lon="-2.882465">
        <ele>332.2</ele>
        <time>1970-01-01T00:29:48.000Z</time>
      </trkpt>
      <trkpt lat="43.266268" lon="-2.882426">
        <ele>332.8</ele>
        <time>1970-01-01T00:29:49.000Z</time>
      </trkpt>
      <trkpt lat="43.26624" lon="-2.88239">
        <ele>333.2</ele>
        <time>1970-01-01T00:29:50.000Z</time>
      </trkpt>
      <trkpt lat="43.266213" lon="-2.882346">
        <ele>333.2</ele>
        <time>1970-01-01T00:29:51.000Z</time>
      </trkpt>
      <trkpt lat="43.266185" lon="-2.882305">
        <ele>333.2</ele>
        <time>1970-01-01T00:29:52.000Z</time>
      </trkpt>
      <trkpt lat="43.266156" lon="-2.882263">
        <ele>333.2</ele>
        <time>1970-01-01T00:29:53.000Z</time>
      </trkpt>
      <trkpt lat="43.266131" lon="-2.882221">
        <ele>333.8</ele>
        <time>1970-01-01T00:29:54.000Z</time>
      </trkpt>
      <trkpt lat="43.266103" lon="-2.882178">
        <ele>333.8</ele>
        <time>1970-01-01T00:29:55.000Z</time>
      </trkpt>
      <trkpt lat="43.266078" lon="-2.882135">
        <ele>333.8</ele>
        <time>1970-01-01T00:29:56.000Z</time>
      </trkpt>
      <trkpt lat="43.266051" lon="-2.882091">
        <ele>333.8</ele>
        <time>1970-01-01T00:29:57.000Z</time>
      </trkpt>
      <trkpt lat="43.266023" lon="-2.88205">
        <ele>333.8</ele>
        <time>1970-01-01T00:29:58.000Z</time>
      </trkpt>
      <trkpt lat="43.265995" lon="-2.882006">
        <ele>333.6</ele>
        <time>1970-01-01T00:29:59.000Z</time>
      </trkpt>
      <trkpt lat="43.265965" lon="-2.881963">
        <ele>333.6</ele>
        <time>1970-01-01T00:30:00.000Z</time>
      </trkpt>
      <trkpt lat="43.265938" lon="-2.881921">
        <ele>333.8</ele>
        <time>1970-01-01T00:30:01.000Z</time>
      </trkpt>
      <trkpt lat="43.265908" lon="-2.881878">
        <ele>334.6</ele>
        <time>1970-01-01T00:30:02.000Z</time>
      </trkpt>
      <trkpt lat="43.265876" lon="-2.881831">
        <ele>334.6</ele>
        <time>1970-01-01T00:30:03.000Z</time>
      </trkpt>
      <trkpt lat="43.265848" lon="-2.881786">
        <ele>334.6</ele>
        <time>1970-01-01T00:30:04.000Z</time>
      </trkpt>
      <trkpt lat="43.26582" lon="-2.881743">
        <ele>335</ele>
        <time>1970-01-01T00:30:05.000Z</time>
      </trkpt>
      <trkpt lat="43.265791" lon="-2.881698">
        <ele>335.2</ele>
        <time>1970-01-01T00:30:06.000Z</time>
      </trkpt>
      <trkpt lat="43.265761" lon="-2.881656">
        <ele>335.2</ele>
        <time>1970-01-01T00:30:07.000Z</time>
      </trkpt>
      <trkpt lat="43.265733" lon="-2.881616">
        <ele>335.2</ele>
        <time>1970-01-01T00:30:08.000Z</time>
      </trkpt>
      <trkpt lat="43.265703" lon="-2.881575">
        <ele>335.8</ele>
        <time>1970-01-01T00:30:09.000Z</time>
      </trkpt>
      <trkpt lat="43.265676" lon="-2.881533">
        <ele>336.2</ele>
        <time>1970-01-01T00:30:10.000Z</time>
      </trkpt>
      <trkpt lat="43.265651" lon="-2.881491">
        <ele>336.2</ele>
        <time>1970-01-01T00:30:11.000Z</time>
      </trkpt>
      <trkpt lat="43.265625" lon="-2.881451">
        <ele>336.2</ele>
        <time>1970-01-01T00:30:12.000Z</time>
      </trkpt>
      <trkpt lat="43.265601" lon="-2.881406">
        <ele>336.6</ele>
        <time>1970-01-01T00:30:13.000Z</time>
      </trkpt>
      <trkpt lat="43.265576" lon="-2.881361">
        <ele>336.8</ele>
        <time>1970-01-01T00:30:14.000Z</time>
      </trkpt>
      <trkpt lat="43.265551" lon="-2.881318">
        <ele>336.8</ele>
        <time>1970-01-01T00:30:15.000Z</time>
      </trkpt>
      <trkpt lat="43.265526" lon="-2.881271">
        <ele>336.8</ele>
        <time>1970-01-01T00:30:16.000Z</time>
      </trkpt>
      <trkpt lat="43.265505" lon="-2.881223">
        <ele>337.4</ele>
        <time>1970-01-01T00:30:17.000Z</time>
      </trkpt>
      <trkpt lat="43.265483" lon="-2.881175">
        <ele>337.2</ele>
        <time>1970-01-01T00:30:18.000Z</time>
      </trkpt>
      <trkpt lat="43.265461" lon="-2.881128">
        <ele>337.2</ele>
        <time>1970-01-01T00:30:19.000Z</time>
      </trkpt>
      <trkpt lat="43.265445" lon="-2.881078">
        <ele>337.2</ele>
        <time>1970-01-01T00:30:20.000Z</time>
      </trkpt>
      <trkpt lat="43.265426" lon="-2.881026">
        <ele>337.2</ele>
        <time>1970-01-01T00:30:21.000Z</time>
      </trkpt>
      <trkpt lat="43.265411" lon="-2.880976">
        <ele>337.8</ele>
        <time>1970-01-01T00:30:22.000Z</time>
      </trkpt>
      <trkpt lat="43.265396" lon="-2.880926">
        <ele>337.8</ele>
        <time>1970-01-01T00:30:23.000Z</time>
      </trkpt>
      <trkpt lat="43.265376" lon="-2.880878">
        <ele>337.8</ele>
        <time>1970-01-01T00:30:24.000Z</time>
      </trkpt>
      <trkpt lat="43.26536" lon="-2.880828">
        <ele>338.2</ele>
        <time>1970-01-01T00:30:25.000Z</time>
      </trkpt>
      <trkpt lat="43.265346" lon="-2.880776">
        <ele>338.4</ele>
        <time>1970-01-01T00:30:26.000Z</time>
      </trkpt>
      <trkpt lat="43.265336" lon="-2.880725">
        <ele>338.4</ele>
        <time>1970-01-01T00:30:27.000Z</time>
      </trkpt>
      <trkpt lat="43.265325" lon="-2.880673">
        <ele>338.4</ele>
        <time>1970-01-01T00:30:28.000Z</time>
      </trkpt>
      <trkpt lat="43.265313" lon="-2.880621">
        <ele>338.4</ele>
        <time>1970-01-01T00:30:29.000Z</time>
      </trkpt>
      <trkpt lat="43.265301" lon="-2.88057">
        <ele>339</ele>
        <time>1970-01-01T00:30:30.000Z</time>
      </trkpt>
      <trkpt lat="43.26529" lon="-2.880518">
        <ele>339</ele>
        <time>1970-01-01T00:30:31.000Z</time>
      </trkpt>
      <trkpt lat="43.265276" lon="-2.880466">
        <ele>339</ele>
        <time>1970-01-01T00:30:32.000Z</time>
      </trkpt>
      <trkpt lat="43.265265" lon="-2.880415">
        <ele>339</ele>
        <time>1970-01-01T00:30:33.000Z</time>
      </trkpt>
      <trkpt lat="43.265253" lon="-2.880361">
        <ele>339.6</ele>
        <time>1970-01-01T00:30:34.000Z</time>
      </trkpt>
      <trkpt lat="43.265243" lon="-2.880306">
        <ele>339.6</ele>
        <time>1970-01-01T00:30:35.000Z</time>
      </trkpt>
      <trkpt lat="43.265233" lon="-2.880255">
        <ele>339.6</ele>
        <time>1970-01-01T00:30:36.000Z</time>
      </trkpt>
      <trkpt lat="43.265221" lon="-2.880203">
        <ele>340.2</ele>
        <time>1970-01-01T00:30:37.000Z</time>
      </trkpt>
      <trkpt lat="43.26521" lon="-2.880153">
        <ele>340.6</ele>
        <time>1970-01-01T00:30:38.000Z</time>
      </trkpt>
      <trkpt lat="43.2652" lon="-2.880103">
        <ele>340.6</ele>
        <time>1970-01-01T00:30:39.000Z</time>
      </trkpt>
      <trkpt lat="43.26519" lon="-2.880056">
        <ele>340.6</ele>
        <time>1970-01-01T00:30:40.000Z</time>
      </trkpt>
      <trkpt lat="43.265181" lon="-2.880013">
        <ele>340.8</ele>
        <time>1970-01-01T00:30:41.000Z</time>
      </trkpt>
      <trkpt lat="43.26517" lon="-2.87997">
        <ele>341</ele>
        <time>1970-01-01T00:30:42.000Z</time>
      </trkpt>
      <trkpt lat="43.265161" lon="-2.87993">
        <ele>341</ele>
        <time>1970-01-01T00:30:43.000Z</time>
      </trkpt>
      <trkpt lat="43.265161" lon="-2.879895">
        <ele>341</ele>
        <time>1970-01-01T00:30:44.000Z</time>
      </trkpt>
      <trkpt lat="43.265171" lon="-2.879861">
        <ele>341</ele>
        <time>1970-01-01T00:30:45.000Z</time>
      </trkpt>
      <trkpt lat="43.265181" lon="-2.879831">
        <ele>341.6</ele>
        <time>1970-01-01T00:30:46.000Z</time>
      </trkpt>
      <trkpt lat="43.265191" lon="-2.879803">
        <ele>341.6</ele>
        <time>1970-01-01T00:30:47.000Z</time>
      </trkpt>
      <trkpt lat="43.265205" lon="-2.879771">
        <ele>341.6</ele>
        <time>1970-01-01T00:30:48.000Z</time>
      </trkpt>
      <trkpt lat="43.265208" lon="-2.879743">
        <ele>341.6</ele>
        <time>1970-01-01T00:30:49.000Z</time>
      </trkpt>
      <trkpt lat="43.26521" lon="-2.879715">
        <ele>341.8</ele>
        <time>1970-01-01T00:30:50.000Z</time>
      </trkpt>
      <trkpt lat="43.265205" lon="-2.879681">
        <ele>341.8</ele>
        <time>1970-01-01T00:30:51.000Z</time>
      </trkpt>
      <trkpt lat="43.2652" lon="-2.87965">
        <ele>341.8</ele>
        <time>1970-01-01T00:30:52.000Z</time>
      </trkpt>
      <trkpt lat="43.265193" lon="-2.87962">
        <ele>342.8</ele>
        <time>1970-01-01T00:30:53.000Z</time>
      </trkpt>
      <trkpt lat="43.265191" lon="-2.87959">
        <ele>342.4</ele>
        <time>1970-01-01T00:30:54.000Z</time>
      </trkpt>
      <trkpt lat="43.265191" lon="-2.879556">
        <ele>342.4</ele>
        <time>1970-01-01T00:30:55.000Z</time>
      </trkpt>
      <trkpt lat="43.265188" lon="-2.87952">
        <ele>342.4</ele>
        <time>1970-01-01T00:30:56.000Z</time>
      </trkpt>
      <trkpt lat="43.265183" lon="-2.879486">
        <ele>342.6</ele>
        <time>1970-01-01T00:30:57.000Z</time>
      </trkpt>
      <trkpt lat="43.265176" lon="-2.87945">
        <ele>343.2</ele>
        <time>1970-01-01T00:30:58.000Z</time>
      </trkpt>
      <trkpt lat="43.265166" lon="-2.87942">
        <ele>343.2</ele>
        <time>1970-01-01T00:30:59.000Z</time>
      </trkpt>
      <trkpt lat="43.265156" lon="-2.879388">
        <ele>343.2</ele>
        <time>1970-01-01T00:31:00.000Z</time>
      </trkpt>
      <trkpt lat="43.265148" lon="-2.879355">
        <ele>343.2</ele>
        <time>1970-01-01T00:31:01.000Z</time>
      </trkpt>
      <trkpt lat="43.265143" lon="-2.879321">
        <ele>343.2</ele>
        <time>1970-01-01T00:31:02.000Z</time>
      </trkpt>
      <trkpt lat="43.265133" lon="-2.87929">
        <ele>343.8</ele>
        <time>1970-01-01T00:31:03.000Z</time>
      </trkpt>
      <trkpt lat="43.265125" lon="-2.87926">
        <ele>343.8</ele>
        <time>1970-01-01T00:31:04.000Z</time>
      </trkpt>
      <trkpt lat="43.265116" lon="-2.87923">
        <ele>344.8</ele>
        <time>1970-01-01T00:31:05.000Z</time>
      </trkpt>
      <trkpt lat="43.26511" lon="-2.879198">
        <ele>345.2</ele>
        <time>1970-01-01T00:31:06.000Z</time>
      </trkpt>
      <trkpt lat="43.265105" lon="-2.879168">
        <ele>345.2</ele>
        <time>1970-01-01T00:31:07.000Z</time>
      </trkpt>
      <trkpt lat="43.265103" lon="-2.879135">
        <ele>345.2</ele>
        <time>1970-01-01T00:31:08.000Z</time>
      </trkpt>
      <trkpt lat="43.265101" lon="-2.879101">
        <ele>346.2</ele>
        <time>1970-01-01T00:31:09.000Z</time>
      </trkpt>
      <trkpt lat="43.265098" lon="-2.879068">
        <ele>347.4</ele>
        <time>1970-01-01T00:31:10.000Z</time>
      </trkpt>
      <trkpt lat="43.265095" lon="-2.879038">
        <ele>347.4</ele>
        <time>1970-01-01T00:31:11.000Z</time>
      </trkpt>
      <trkpt lat="43.265088" lon="-2.879006">
        <ele>347.4</ele>
        <time>1970-01-01T00:31:12.000Z</time>
      </trkpt>
      <trkpt lat="43.265083" lon="-2.878975">
        <ele>347.4</ele>
        <time>1970-01-01T00:31:13.000Z</time>
      </trkpt>
      <trkpt lat="43.26508" lon="-2.878946">
        <ele>347.8</ele>
        <time>1970-01-01T00:31:14.000Z</time>
      </trkpt>
      <trkpt lat="43.265076" lon="-2.878915">
        <ele>347.8</ele>
        <time>1970-01-01T00:31:15.000Z</time>
      </trkpt>
      <trkpt lat="43.265068" lon="-2.878883">
        <ele>347.8</ele>
        <time>1970-01-01T00:31:16.000Z</time>
      </trkpt>
      <trkpt lat="43.265061" lon="-2.878853">
        <ele>348.6</ele>
        <time>1970-01-01T00:31:17.000Z</time>
      </trkpt>
      <trkpt lat="43.265056" lon="-2.878825">
        <ele>348.6</ele>
        <time>1970-01-01T00:31:18.000Z</time>
      </trkpt>
      <trkpt lat="43.265051" lon="-2.878796">
        <ele>348.6</ele>
        <time>1970-01-01T00:31:19.000Z</time>
      </trkpt>
      <trkpt lat="43.265046" lon="-2.878768">
        <ele>348.6</ele>
        <time>1970-01-01T00:31:20.000Z</time>
      </trkpt>
      <trkpt lat="43.265041" lon="-2.878736">
        <ele>348.8</ele>
        <time>1970-01-01T00:31:21.000Z</time>
      </trkpt>
      <trkpt lat="43.265038" lon="-2.878705">
        <ele>349.6</ele>
        <time>1970-01-01T00:31:22.000Z</time>
      </trkpt>
      <trkpt lat="43.265035" lon="-2.878676">
        <ele>349.6</ele>
        <time>1970-01-01T00:31:23.000Z</time>
      </trkpt>
      <trkpt lat="43.26503" lon="-2.878646">
        <ele>349.6</ele>
        <time>1970-01-01T00:31:24.000Z</time>
      </trkpt>
      <trkpt lat="43.265025" lon="-2.878615">
        <ele>349.6</ele>
        <time>1970-01-01T00:31:25.000Z</time>
      </trkpt>
      <trkpt lat="43.26502" lon="-2.878585">
        <ele>350.4</ele>
        <time>1970-01-01T00:31:26.000Z</time>
      </trkpt>
      <trkpt lat="43.265011" lon="-2.878553">
        <ele>350.4</ele>
        <time>1970-01-01T00:31:27.000Z</time>
      </trkpt>
      <trkpt lat="43.265006" lon="-2.878521">
        <ele>350.4</ele>
        <time>1970-01-01T00:31:28.000Z</time>
      </trkpt>
      <trkpt lat="43.265" lon="-2.878491">
        <ele>350.8</ele>
        <time>1970-01-01T00:31:29.000Z</time>
      </trkpt>
      <trkpt lat="43.264993" lon="-2.878461">
        <ele>351.8</ele>
        <time>1970-01-01T00:31:30.000Z</time>
      </trkpt>
      <trkpt lat="43.26499" lon="-2.87843">
        <ele>351.8</ele>
        <time>1970-01-01T00:31:31.000Z</time>
      </trkpt>
      <trkpt lat="43.264985" lon="-2.8784">
        <ele>351.8</ele>
        <time>1970-01-01T00:31:32.000Z</time>
      </trkpt>
      <trkpt lat="43.264978" lon="-2.878371">
        <ele>351.8</ele>
        <time>1970-01-01T00:31:33.000Z</time>
      </trkpt>
      <trkpt lat="43.264971" lon="-2.878343">
        <ele>353</ele>
        <time>1970-01-01T00:31:34.000Z</time>
      </trkpt>
      <trkpt lat="43.264963" lon="-2.878316">
        <ele>353</ele>
        <time>1970-01-01T00:31:35.000Z</time>
      </trkpt>
      <trkpt lat="43.264958" lon="-2.878291">
        <ele>353</ele>
        <time>1970-01-01T00:31:36.000Z</time>
      </trkpt>
      <trkpt lat="43.264953" lon="-2.878263">
        <ele>353</ele>
        <time>1970-01-01T00:31:37.000Z</time>
      </trkpt>
      <trkpt lat="43.264946" lon="-2.878236">
        <ele>354.2</ele>
        <time>1970-01-01T00:31:38.000Z</time>
      </trkpt>
      <trkpt lat="43.264943" lon="-2.878211">
        <ele>354.2</ele>
        <time>1970-01-01T00:31:39.000Z</time>
      </trkpt>
      <trkpt lat="43.264935" lon="-2.878185">
        <ele>354.2</ele>
        <time>1970-01-01T00:31:40.000Z</time>
      </trkpt>
      <trkpt lat="43.26493" lon="-2.878158">
        <ele>355</ele>
        <time>1970-01-01T00:31:41.000Z</time>
      </trkpt>
      <trkpt lat="43.264916" lon="-2.878138">
        <ele>355.2</ele>
        <time>1970-01-01T00:31:42.000Z</time>
      </trkpt>
      <trkpt lat="43.264911" lon="-2.878113">
        <ele>355.2</ele>
        <time>1970-01-01T00:31:43.000Z</time>
      </trkpt>
      <trkpt lat="43.264913" lon="-2.87811">
        <ele>355.2</ele>
        <time>1970-01-01T00:31:44.000Z</time>
      </trkpt>
      <trkpt lat="43.264913" lon="-2.87811">
        <ele>355.2</ele>
        <time>1970-01-01T00:31:45.000Z</time>
      </trkpt>
      <trkpt lat="43.264913" lon="-2.87811">
        <ele>355.4</ele>
        <time>1970-01-01T00:31:51.000Z</time>
      </trkpt>
      <trkpt lat="43.264876" lon="-2.87766">
        <ele>360.2</ele>
        <time>1970-01-01T00:32:29.000Z</time>
      </trkpt>
      <trkpt lat="43.264873" lon="-2.877638">
        <ele>361</ele>
        <time>1970-01-01T00:32:30.000Z</time>
      </trkpt>
      <trkpt lat="43.26487" lon="-2.877613">
        <ele>361</ele>
        <time>1970-01-01T00:32:31.000Z</time>
      </trkpt>
      <trkpt lat="43.264865" lon="-2.877588">
        <ele>361</ele>
        <time>1970-01-01T00:32:32.000Z</time>
      </trkpt>
      <trkpt lat="43.264858" lon="-2.877566">
        <ele>361</ele>
        <time>1970-01-01T00:32:33.000Z</time>
      </trkpt>
      <trkpt lat="43.264856" lon="-2.877543">
        <ele>362.2</ele>
        <time>1970-01-01T00:32:34.000Z</time>
      </trkpt>
      <trkpt lat="43.264855" lon="-2.877521">
        <ele>362.2</ele>
        <time>1970-01-01T00:32:35.000Z</time>
      </trkpt>
      <trkpt lat="43.26485" lon="-2.877496">
        <ele>362.2</ele>
        <time>1970-01-01T00:32:36.000Z</time>
      </trkpt>
      <trkpt lat="43.264843" lon="-2.877476">
        <ele>362.2</ele>
        <time>1970-01-01T00:32:37.000Z</time>
      </trkpt>
      <trkpt lat="43.264836" lon="-2.877455">
        <ele>362.4</ele>
        <time>1970-01-01T00:32:38.000Z</time>
      </trkpt>
      <trkpt lat="43.264826" lon="-2.877433">
        <ele>362.4</ele>
        <time>1970-01-01T00:32:39.000Z</time>
      </trkpt>
      <trkpt lat="43.264821" lon="-2.877411">
        <ele>362.4</ele>
        <time>1970-01-01T00:32:40.000Z</time>
      </trkpt>
      <trkpt lat="43.264815" lon="-2.877385">
        <ele>363.4</ele>
        <time>1970-01-01T00:32:41.000Z</time>
      </trkpt>
      <trkpt lat="43.26481" lon="-2.877361">
        <ele>364</ele>
        <time>1970-01-01T00:32:42.000Z</time>
      </trkpt>
      <trkpt lat="43.264805" lon="-2.877336">
        <ele>364</ele>
        <time>1970-01-01T00:32:43.000Z</time>
      </trkpt>
      <trkpt lat="43.2648" lon="-2.877311">
        <ele>364</ele>
        <time>1970-01-01T00:32:44.000Z</time>
      </trkpt>
      <trkpt lat="43.264798" lon="-2.877301">
        <ele>364.6</ele>
        <time>1970-01-01T00:32:45.000Z</time>
      </trkpt>
      <trkpt lat="43.264795" lon="-2.8773">
        <ele>365.8</ele>
        <time>1970-01-01T00:32:46.000Z</time>
      </trkpt>
      <trkpt lat="43.264793" lon="-2.877285">
        <ele>365.8</ele>
        <time>1970-01-01T00:32:47.000Z</time>
      </trkpt>
      <trkpt lat="43.264788" lon="-2.877268">
        <ele>365.8</ele>
        <time>1970-01-01T00:32:48.000Z</time>
      </trkpt>
      <trkpt lat="43.264783" lon="-2.877253">
        <ele>365.8</ele>
        <time>1970-01-01T00:32:49.000Z</time>
      </trkpt>
      <trkpt lat="43.264778" lon="-2.877233">
        <ele>366</ele>
        <time>1970-01-01T00:32:50.000Z</time>
      </trkpt>
      <trkpt lat="43.264775" lon="-2.877218">
        <ele>366</ele>
        <time>1970-01-01T00:32:51.000Z</time>
      </trkpt>
      <trkpt lat="43.264771" lon="-2.877205">
        <ele>366</ele>
        <time>1970-01-01T00:32:52.000Z</time>
      </trkpt>
      <trkpt lat="43.264773" lon="-2.877196">
        <ele>366</ele>
        <time>1970-01-01T00:32:53.000Z</time>
      </trkpt>
      <trkpt lat="43.264776" lon="-2.877191">
        <ele>365.6</ele>
        <time>1970-01-01T00:32:54.000Z</time>
      </trkpt>
      <trkpt lat="43.26478" lon="-2.877175">
        <ele>365.6</ele>
        <time>1970-01-01T00:32:55.000Z</time>
      </trkpt>
      <trkpt lat="43.264781" lon="-2.877163">
        <ele>365.6</ele>
        <time>1970-01-01T00:32:56.000Z</time>
      </trkpt>
      <trkpt lat="43.264785" lon="-2.87715">
        <ele>366.6</ele>
        <time>1970-01-01T00:32:57.000Z</time>
      </trkpt>
      <trkpt lat="43.264783" lon="-2.877135">
        <ele>366.8</ele>
        <time>1970-01-01T00:32:58.000Z</time>
      </trkpt>
      <trkpt lat="43.26478" lon="-2.877121">
        <ele>366.8</ele>
        <time>1970-01-01T00:32:59.000Z</time>
      </trkpt>
      <trkpt lat="43.264778" lon="-2.877105">
        <ele>366.8</ele>
        <time>1970-01-01T00:33:00.000Z</time>
      </trkpt>
      <trkpt lat="43.264775" lon="-2.877088">
        <ele>366.8</ele>
        <time>1970-01-01T00:33:01.000Z</time>
      </trkpt>
      <trkpt lat="43.264771" lon="-2.877075">
        <ele>367.8</ele>
        <time>1970-01-01T00:33:02.000Z</time>
      </trkpt>
      <trkpt lat="43.264768" lon="-2.87706">
        <ele>367.8</ele>
        <time>1970-01-01T00:33:03.000Z</time>
      </trkpt>
      <trkpt lat="43.264763" lon="-2.877048">
        <ele>367.8</ele>
        <time>1970-01-01T00:33:04.000Z</time>
      </trkpt>
      <trkpt lat="43.26476" lon="-2.877035">
        <ele>367.8</ele>
        <time>1970-01-01T00:33:05.000Z</time>
      </trkpt>
      <trkpt lat="43.264756" lon="-2.877023">
        <ele>368</ele>
        <time>1970-01-01T00:33:06.000Z</time>
      </trkpt>
      <trkpt lat="43.264755" lon="-2.877011">
        <ele>368</ele>
        <time>1970-01-01T00:33:07.000Z</time>
      </trkpt>
      <trkpt lat="43.264755" lon="-2.877013">
        <ele>368</ele>
        <time>1970-01-01T00:33:08.000Z</time>
      </trkpt>
      <trkpt lat="43.264768" lon="-2.876933">
        <ele>369.6</ele>
        <time>1970-01-01T00:33:22.000Z</time>
      </trkpt>
      <trkpt lat="43.264765" lon="-2.876916">
        <ele>369.6</ele>
        <time>1970-01-01T00:33:23.000Z</time>
      </trkpt>
      <trkpt lat="43.264765" lon="-2.876906">
        <ele>369.6</ele>
        <time>1970-01-01T00:33:24.000Z</time>
      </trkpt>
      <trkpt lat="43.264765" lon="-2.876895">
        <ele>369.6</ele>
        <time>1970-01-01T00:33:25.000Z</time>
      </trkpt>
      <trkpt lat="43.264765" lon="-2.876895">
        <ele>370.4</ele>
        <time>1970-01-01T00:33:26.000Z</time>
      </trkpt>
      <trkpt lat="43.264765" lon="-2.876895">
        <ele>371.2</ele>
        <time>1970-01-01T00:33:41.000Z</time>
      </trkpt>
      <trkpt lat="43.264765" lon="-2.876895">
        <ele>372</ele>
        <time>1970-01-01T00:33:42.000Z</time>
      </trkpt>
      <trkpt lat="43.264633" lon="-2.876201">
        <ele>380.2</ele>
        <time>1970-01-01T00:34:26.000Z</time>
      </trkpt>
      <trkpt lat="43.264631" lon="-2.876191">
        <ele>380.2</ele>
        <time>1970-01-01T00:34:27.000Z</time>
      </trkpt>
      <trkpt lat="43.264631" lon="-2.876176">
        <ele>380.2</ele>
        <time>1970-01-01T00:34:28.000Z</time>
      </trkpt>
      <trkpt lat="43.264631" lon="-2.876163">
        <ele>380.2</ele>
        <time>1970-01-01T00:34:29.000Z</time>
      </trkpt>
      <trkpt lat="43.264631" lon="-2.876151">
        <ele>381.2</ele>
        <time>1970-01-01T00:34:30.000Z</time>
      </trkpt>
      <trkpt lat="43.264628" lon="-2.876141">
        <ele>381.2</ele>
        <time>1970-01-01T00:34:31.000Z</time>
      </trkpt>
      <trkpt lat="43.264626" lon="-2.87613">
        <ele>381.2</ele>
        <time>1970-01-01T00:34:32.000Z</time>
      </trkpt>
      <trkpt lat="43.264626" lon="-2.87613">
        <ele>382.2</ele>
        <time>1970-01-01T00:34:33.000Z</time>
      </trkpt>
      <trkpt lat="43.264626" lon="-2.87613">
        <ele>381.4</ele>
        <time>1970-01-01T00:34:36.000Z</time>
      </trkpt>
      <trkpt lat="43.264626" lon="-2.87613">
        <ele>382.4</ele>
        <time>1970-01-01T00:34:37.000Z</time>
      </trkpt>
      <trkpt lat="43.264618" lon="-2.876058">
        <ele>382.6</ele>
        <time>1970-01-01T00:34:38.000Z</time>
      </trkpt>
      <trkpt lat="43.264615" lon="-2.876048">
        <ele>382.6</ele>
        <time>1970-01-01T00:34:39.000Z</time>
      </trkpt>
      <trkpt lat="43.264615" lon="-2.876048">
        <ele>384.2</ele>
        <time>1970-01-01T00:34:42.000Z</time>
      </trkpt>
      <trkpt lat="43.264615" lon="-2.876048">
        <ele>384.2</ele>
        <time>1970-01-01T00:34:43.000Z</time>
      </trkpt>
      <trkpt lat="43.264585" lon="-2.87597">
        <ele>384.4</ele>
        <time>1970-01-01T00:34:46.000Z</time>
      </trkpt>
      <trkpt lat="43.264585" lon="-2.87597">
        <ele>384.4</ele>
        <time>1970-01-01T00:34:47.000Z</time>
      </trkpt>
      <trkpt lat="43.264585" lon="-2.87597">
        <ele>384.8</ele>
        <time>1970-01-01T00:34:50.000Z</time>
      </trkpt>
      <trkpt lat="43.264561" lon="-2.875898">
        <ele>386</ele>
        <time>1970-01-01T00:35:10.000Z</time>
      </trkpt>
      <trkpt lat="43.264561" lon="-2.875898">
        <ele>386</ele>
        <time>1970-01-01T00:35:11.000Z</time>
      </trkpt>
      <trkpt lat="43.264515" lon="-2.875656">
        <ele>390.6</ele>
        <time>1970-01-01T00:35:39.000Z</time>
      </trkpt>
      <trkpt lat="43.26451" lon="-2.875581">
        <ele>390.6</ele>
        <time>1970-01-01T00:35:40.000Z</time>
      </trkpt>
      <trkpt lat="43.264508" lon="-2.875571">
        <ele>390.6</ele>
        <time>1970-01-01T00:35:41.000Z</time>
      </trkpt>
      <trkpt lat="43.264508" lon="-2.875571">
        <ele>391.8</ele>
        <time>1970-01-01T00:35:42.000Z</time>
      </trkpt>
      <trkpt lat="43.2645" lon="-2.875511">
        <ele>393.2</ele>
        <time>1970-01-01T00:35:47.000Z</time>
      </trkpt>
      <trkpt lat="43.264496" lon="-2.875493">
        <ele>393.2</ele>
        <time>1970-01-01T00:35:48.000Z</time>
      </trkpt>
      <trkpt lat="43.264491" lon="-2.875475">
        <ele>393.2</ele>
        <time>1970-01-01T00:35:49.000Z</time>
      </trkpt>
      <trkpt lat="43.264488" lon="-2.875463">
        <ele>392.8</ele>
        <time>1970-01-01T00:35:50.000Z</time>
      </trkpt>
      <trkpt lat="43.264483" lon="-2.87545">
        <ele>392.8</ele>
        <time>1970-01-01T00:35:51.000Z</time>
      </trkpt>
      <trkpt lat="43.264478" lon="-2.875435">
        <ele>392.8</ele>
        <time>1970-01-01T00:35:52.000Z</time>
      </trkpt>
      <trkpt lat="43.264476" lon="-2.875421">
        <ele>393.8</ele>
        <time>1970-01-01T00:35:53.000Z</time>
      </trkpt>
      <trkpt lat="43.264473" lon="-2.875406">
        <ele>394</ele>
        <time>1970-01-01T00:35:54.000Z</time>
      </trkpt>
      <trkpt lat="43.26447" lon="-2.875395">
        <ele>394</ele>
        <time>1970-01-01T00:35:55.000Z</time>
      </trkpt>
      <trkpt lat="43.264465" lon="-2.875381">
        <ele>394</ele>
        <time>1970-01-01T00:35:56.000Z</time>
      </trkpt>
      <trkpt lat="43.264461" lon="-2.875368">
        <ele>395</ele>
        <time>1970-01-01T00:35:57.000Z</time>
      </trkpt>
      <trkpt lat="43.26446" lon="-2.875355">
        <ele>394.6</ele>
        <time>1970-01-01T00:35:58.000Z</time>
      </trkpt>
      <trkpt lat="43.264456" lon="-2.875341">
        <ele>394.6</ele>
        <time>1970-01-01T00:35:59.000Z</time>
      </trkpt>
      <trkpt lat="43.264451" lon="-2.875331">
        <ele>394.6</ele>
        <time>1970-01-01T00:36:00.000Z</time>
      </trkpt>
      <trkpt lat="43.264448" lon="-2.875316">
        <ele>394.6</ele>
        <time>1970-01-01T00:36:01.000Z</time>
      </trkpt>
      <trkpt lat="43.264446" lon="-2.875305">
        <ele>396</ele>
        <time>1970-01-01T00:36:02.000Z</time>
      </trkpt>
      <trkpt lat="43.264443" lon="-2.875293">
        <ele>396</ele>
        <time>1970-01-01T00:36:03.000Z</time>
      </trkpt>
      <trkpt lat="43.264438" lon="-2.875281">
        <ele>396</ele>
        <time>1970-01-01T00:36:04.000Z</time>
      </trkpt>
      <trkpt lat="43.264438" lon="-2.875271">
        <ele>396</ele>
        <time>1970-01-01T00:36:05.000Z</time>
      </trkpt>
      <trkpt lat="43.264436" lon="-2.875263">
        <ele>396</ele>
        <time>1970-01-01T00:36:06.000Z</time>
      </trkpt>
      <trkpt lat="43.264436" lon="-2.875263">
        <ele>396</ele>
        <time>1970-01-01T00:36:07.000Z</time>
      </trkpt>
      <trkpt lat="43.264388" lon="-2.874913">
        <ele>400.2</ele>
        <time>1970-01-01T00:36:42.000Z</time>
      </trkpt>
      <trkpt lat="43.264386" lon="-2.87489">
        <ele>400.2</ele>
        <time>1970-01-01T00:36:43.000Z</time>
      </trkpt>
      <trkpt lat="43.264386" lon="-2.874865">
        <ele>400.2</ele>
        <time>1970-01-01T00:36:44.000Z</time>
      </trkpt>
      <trkpt lat="43.264381" lon="-2.87484">
        <ele>401</ele>
        <time>1970-01-01T00:36:45.000Z</time>
      </trkpt>
      <trkpt lat="43.264373" lon="-2.874816">
        <ele>401.2</ele>
        <time>1970-01-01T00:36:46.000Z</time>
      </trkpt>
      <trkpt lat="43.264366" lon="-2.874795">
        <ele>401.2</ele>
        <time>1970-01-01T00:36:47.000Z</time>
      </trkpt>
      <trkpt lat="43.26436" lon="-2.874768">
        <ele>401.2</ele>
        <time>1970-01-01T00:36:48.000Z</time>
      </trkpt>
      <trkpt lat="43.264353" lon="-2.87474">
        <ele>401.2</ele>
        <time>1970-01-01T00:36:49.000Z</time>
      </trkpt>
      <trkpt lat="43.264348" lon="-2.87471">
        <ele>401.4</ele>
        <time>1970-01-01T00:36:50.000Z</time>
      </trkpt>
      <trkpt lat="43.264343" lon="-2.874678">
        <ele>401.4</ele>
        <time>1970-01-01T00:36:51.000Z</time>
      </trkpt>
      <trkpt lat="43.26434" lon="-2.87465">
        <ele>401.4</ele>
        <time>1970-01-01T00:36:52.000Z</time>
      </trkpt>
      <trkpt lat="43.264336" lon="-2.874621">
        <ele>402.4</ele>
        <time>1970-01-01T00:36:53.000Z</time>
      </trkpt>
      <trkpt lat="43.26433" lon="-2.874591">
        <ele>401.8</ele>
        <time>1970-01-01T00:36:54.000Z</time>
      </trkpt>
      <trkpt lat="43.264325" lon="-2.87456">
        <ele>401.8</ele>
        <time>1970-01-01T00:36:55.000Z</time>
      </trkpt>
      <trkpt lat="43.26432" lon="-2.874528">
        <ele>401.8</ele>
        <time>1970-01-01T00:36:56.000Z</time>
      </trkpt>
      <trkpt lat="43.264316" lon="-2.874493">
        <ele>402.8</ele>
        <time>1970-01-01T00:36:57.000Z</time>
      </trkpt>
      <trkpt lat="43.264311" lon="-2.874461">
        <ele>402.8</ele>
        <time>1970-01-01T00:36:58.000Z</time>
      </trkpt>
      <trkpt lat="43.264306" lon="-2.874431">
        <ele>402.8</ele>
        <time>1970-01-01T00:36:59.000Z</time>
      </trkpt>
      <trkpt lat="43.264301" lon="-2.8744">
        <ele>402.8</ele>
        <time>1970-01-01T00:37:00.000Z</time>
      </trkpt>
      <trkpt lat="43.264295" lon="-2.874366">
        <ele>403.6</ele>
        <time>1970-01-01T00:37:01.000Z</time>
      </trkpt>
      <trkpt lat="43.264286" lon="-2.874335">
        <ele>403.6</ele>
        <time>1970-01-01T00:37:02.000Z</time>
      </trkpt>
      <trkpt lat="43.264281" lon="-2.874301">
        <ele>403.6</ele>
        <time>1970-01-01T00:37:03.000Z</time>
      </trkpt>
      <trkpt lat="43.264275" lon="-2.874266">
        <ele>403.6</ele>
        <time>1970-01-01T00:37:04.000Z</time>
      </trkpt>
      <trkpt lat="43.264268" lon="-2.874233">
        <ele>403.6</ele>
        <time>1970-01-01T00:37:05.000Z</time>
      </trkpt>
      <trkpt lat="43.264258" lon="-2.8742">
        <ele>404.8</ele>
        <time>1970-01-01T00:37:06.000Z</time>
      </trkpt>
      <trkpt lat="43.264248" lon="-2.874166">
        <ele>404.8</ele>
        <time>1970-01-01T00:37:07.000Z</time>
      </trkpt>
      <trkpt lat="43.26424" lon="-2.874131">
        <ele>404.8</ele>
        <time>1970-01-01T00:37:08.000Z</time>
      </trkpt>
      <trkpt lat="43.264228" lon="-2.874098">
        <ele>404.4</ele>
        <time>1970-01-01T00:37:09.000Z</time>
      </trkpt>
      <trkpt lat="43.26422" lon="-2.874065">
        <ele>404.8</ele>
        <time>1970-01-01T00:37:10.000Z</time>
      </trkpt>
      <trkpt lat="43.264211" lon="-2.87403">
        <ele>404.8</ele>
        <time>1970-01-01T00:37:11.000Z</time>
      </trkpt>
      <trkpt lat="43.264206" lon="-2.873996">
        <ele>404.8</ele>
        <time>1970-01-01T00:37:12.000Z</time>
      </trkpt>
      <trkpt lat="43.264201" lon="-2.873961">
        <ele>405.8</ele>
        <time>1970-01-01T00:37:13.000Z</time>
      </trkpt>
      <trkpt lat="43.2642" lon="-2.873926">
        <ele>405</ele>
        <time>1970-01-01T00:37:14.000Z</time>
      </trkpt>
      <trkpt lat="43.264198" lon="-2.873891">
        <ele>405</ele>
        <time>1970-01-01T00:37:15.000Z</time>
      </trkpt>
      <trkpt lat="43.264198" lon="-2.873858">
        <ele>405</ele>
        <time>1970-01-01T00:37:16.000Z</time>
      </trkpt>
      <trkpt lat="43.264195" lon="-2.873826">
        <ele>406</ele>
        <time>1970-01-01T00:37:17.000Z</time>
      </trkpt>
      <trkpt lat="43.264193" lon="-2.873795">
        <ele>406.4</ele>
        <time>1970-01-01T00:37:18.000Z</time>
      </trkpt>
      <trkpt lat="43.264191" lon="-2.873763">
        <ele>406.4</ele>
        <time>1970-01-01T00:37:19.000Z</time>
      </trkpt>
      <trkpt lat="43.264185" lon="-2.873733">
        <ele>406.4</ele>
        <time>1970-01-01T00:37:20.000Z</time>
      </trkpt>
      <trkpt lat="43.264173" lon="-2.873703">
        <ele>406.4</ele>
        <time>1970-01-01T00:37:21.000Z</time>
      </trkpt>
      <trkpt lat="43.26416" lon="-2.873671">
        <ele>406.6</ele>
        <time>1970-01-01T00:37:22.000Z</time>
      </trkpt>
      <trkpt lat="43.264148" lon="-2.873638">
        <ele>406.6</ele>
        <time>1970-01-01T00:37:23.000Z</time>
      </trkpt>
      <trkpt lat="43.264136" lon="-2.873608">
        <ele>406.6</ele>
        <time>1970-01-01T00:37:24.000Z</time>
      </trkpt>
      <trkpt lat="43.264128" lon="-2.873575">
        <ele>406.4</ele>
        <time>1970-01-01T00:37:25.000Z</time>
      </trkpt>
      <trkpt lat="43.264121" lon="-2.873545">
        <ele>406.6</ele>
        <time>1970-01-01T00:37:26.000Z</time>
      </trkpt>
      <trkpt lat="43.264115" lon="-2.873525">
        <ele>406.6</ele>
        <time>1970-01-01T00:37:27.000Z</time>
      </trkpt>
      <trkpt lat="43.264111" lon="-2.87352">
        <ele>406.6</ele>
        <time>1970-01-01T00:37:28.000Z</time>
      </trkpt>
      <trkpt lat="43.26411" lon="-2.87352">
        <ele>406.6</ele>
        <time>1970-01-01T00:37:29.000Z</time>
      </trkpt>
      <trkpt lat="43.26411" lon="-2.87352">
        <ele>406.6</ele>
        <time>1970-01-01T00:37:30.000Z</time>
      </trkpt>
      <trkpt lat="43.26411" lon="-2.87352">
        <ele>406.6</ele>
        <time>1970-01-01T00:37:31.000Z</time>
      </trkpt>
      <trkpt lat="43.264093" lon="-2.87345">
        <ele>406.6</ele>
        <time>1970-01-01T00:40:40.000Z</time>
      </trkpt>
      <trkpt lat="43.264083" lon="-2.873423">
        <ele>407.6</ele>
        <time>1970-01-01T00:40:41.000Z</time>
      </trkpt>
      <trkpt lat="43.264071" lon="-2.873395">
        <ele>407.2</ele>
        <time>1970-01-01T00:40:42.000Z</time>
      </trkpt>
      <trkpt lat="43.264061" lon="-2.87337">
        <ele>407.2</ele>
        <time>1970-01-01T00:40:43.000Z</time>
      </trkpt>
      <trkpt lat="43.264056" lon="-2.873341">
        <ele>407.2</ele>
        <time>1970-01-01T00:40:44.000Z</time>
      </trkpt>
      <trkpt lat="43.26405" lon="-2.873313">
        <ele>407.2</ele>
        <time>1970-01-01T00:40:45.000Z</time>
      </trkpt>
      <trkpt lat="43.264041" lon="-2.873286">
        <ele>408</ele>
        <time>1970-01-01T00:40:46.000Z</time>
      </trkpt>
      <trkpt lat="43.264031" lon="-2.873256">
        <ele>408</ele>
        <time>1970-01-01T00:40:47.000Z</time>
      </trkpt>
      <trkpt lat="43.264016" lon="-2.873228">
        <ele>408</ele>
        <time>1970-01-01T00:40:48.000Z</time>
      </trkpt>
      <trkpt lat="43.264003" lon="-2.873198">
        <ele>408</ele>
        <time>1970-01-01T00:40:49.000Z</time>
      </trkpt>
      <trkpt lat="43.26399" lon="-2.873168">
        <ele>408</ele>
        <time>1970-01-01T00:40:50.000Z</time>
      </trkpt>
      <trkpt lat="43.263981" lon="-2.873145">
        <ele>408</ele>
        <time>1970-01-01T00:40:51.000Z</time>
      </trkpt>
      <trkpt lat="43.26397" lon="-2.87312">
        <ele>408</ele>
        <time>1970-01-01T00:40:52.000Z</time>
      </trkpt>
      <trkpt lat="43.26396" lon="-2.873088">
        <ele>408</ele>
        <time>1970-01-01T00:40:53.000Z</time>
      </trkpt>
      <trkpt lat="43.263948" lon="-2.873061">
        <ele>409.6</ele>
        <time>1970-01-01T00:40:54.000Z</time>
      </trkpt>
      <trkpt lat="43.263945" lon="-2.873031">
        <ele>409.6</ele>
        <time>1970-01-01T00:40:55.000Z</time>
      </trkpt>
      <trkpt lat="43.263936" lon="-2.873001">
        <ele>409.6</ele>
        <time>1970-01-01T00:40:56.000Z</time>
      </trkpt>
      <trkpt lat="43.263928" lon="-2.872971">
        <ele>409.6</ele>
        <time>1970-01-01T00:40:57.000Z</time>
      </trkpt>
      <trkpt lat="43.263916" lon="-2.872943">
        <ele>410.2</ele>
        <time>1970-01-01T00:40:58.000Z</time>
      </trkpt>
      <trkpt lat="43.26391" lon="-2.872915">
        <ele>410.2</ele>
        <time>1970-01-01T00:40:59.000Z</time>
      </trkpt>
      <trkpt lat="43.263905" lon="-2.872885">
        <ele>410.2</ele>
        <time>1970-01-01T00:41:00.000Z</time>
      </trkpt>
      <trkpt lat="43.263903" lon="-2.87285">
        <ele>410.8</ele>
        <time>1970-01-01T00:41:01.000Z</time>
      </trkpt>
      <trkpt lat="43.263895" lon="-2.872813">
        <ele>411.2</ele>
        <time>1970-01-01T00:41:02.000Z</time>
      </trkpt>
      <trkpt lat="43.26389" lon="-2.872775">
        <ele>411.2</ele>
        <time>1970-01-01T00:41:03.000Z</time>
      </trkpt>
      <trkpt lat="43.263881" lon="-2.872741">
        <ele>411.2</ele>
        <time>1970-01-01T00:41:04.000Z</time>
      </trkpt>
      <trkpt lat="43.263875" lon="-2.87272">
        <ele>411.2</ele>
        <time>1970-01-01T00:41:05.000Z</time>
      </trkpt>
      <trkpt lat="43.26386" lon="-2.872691">
        <ele>411.8</ele>
        <time>1970-01-01T00:41:06.000Z</time>
      </trkpt>
      <trkpt lat="43.263845" lon="-2.872658">
        <ele>411.8</ele>
        <time>1970-01-01T00:41:07.000Z</time>
      </trkpt>
      <trkpt lat="43.263831" lon="-2.872628">
        <ele>411.8</ele>
        <time>1970-01-01T00:41:08.000Z</time>
      </trkpt>
      <trkpt lat="43.263821" lon="-2.872598">
        <ele>412.8</ele>
        <time>1970-01-01T00:41:09.000Z</time>
      </trkpt>
      <trkpt lat="43.263808" lon="-2.872571">
        <ele>413</ele>
        <time>1970-01-01T00:41:10.000Z</time>
      </trkpt>
      <trkpt lat="43.263795" lon="-2.872543">
        <ele>413</ele>
        <time>1970-01-01T00:41:11.000Z</time>
      </trkpt>
      <trkpt lat="43.263783" lon="-2.872516">
        <ele>413</ele>
        <time>1970-01-01T00:41:12.000Z</time>
      </trkpt>
      <trkpt lat="43.263768" lon="-2.872486">
        <ele>413.8</ele>
        <time>1970-01-01T00:41:13.000Z</time>
      </trkpt>
      <trkpt lat="43.263753" lon="-2.872458">
        <ele>414.4</ele>
        <time>1970-01-01T00:41:14.000Z</time>
      </trkpt>
      <trkpt lat="43.263741" lon="-2.872433">
        <ele>414.4</ele>
        <time>1970-01-01T00:41:15.000Z</time>
      </trkpt>
      <trkpt lat="43.263725" lon="-2.872406">
        <ele>414.4</ele>
        <time>1970-01-01T00:41:16.000Z</time>
      </trkpt>
      <trkpt lat="43.263713" lon="-2.872375">
        <ele>414.8</ele>
        <time>1970-01-01T00:41:17.000Z</time>
      </trkpt>
      <trkpt lat="43.263705" lon="-2.872333">
        <ele>414.2</ele>
        <time>1970-01-01T00:41:18.000Z</time>
      </trkpt>
      <trkpt lat="43.263691" lon="-2.872296">
        <ele>414.2</ele>
        <time>1970-01-01T00:41:19.000Z</time>
      </trkpt>
      <trkpt lat="43.263678" lon="-2.872258">
        <ele>414.2</ele>
        <time>1970-01-01T00:41:20.000Z</time>
      </trkpt>
      <trkpt lat="43.263663" lon="-2.872218">
        <ele>414.6</ele>
        <time>1970-01-01T00:41:21.000Z</time>
      </trkpt>
      <trkpt lat="43.26365" lon="-2.872171">
        <ele>414.6</ele>
        <time>1970-01-01T00:41:22.000Z</time>
      </trkpt>
      <trkpt lat="43.263645" lon="-2.872118">
        <ele>414.6</ele>
        <time>1970-01-01T00:41:23.000Z</time>
      </trkpt>
      <trkpt lat="43.26363" lon="-2.872065">
        <ele>414.6</ele>
        <time>1970-01-01T00:41:24.000Z</time>
      </trkpt>
      <trkpt lat="43.263613" lon="-2.872008">
        <ele>414.2</ele>
        <time>1970-01-01T00:41:25.000Z</time>
      </trkpt>
      <trkpt lat="43.2636" lon="-2.87195">
        <ele>413.4</ele>
        <time>1970-01-01T00:41:26.000Z</time>
      </trkpt>
      <trkpt lat="43.263583" lon="-2.871888">
        <ele>413.4</ele>
        <time>1970-01-01T00:41:27.000Z</time>
      </trkpt>
      <trkpt lat="43.26357" lon="-2.871826">
        <ele>413.4</ele>
        <time>1970-01-01T00:41:28.000Z</time>
      </trkpt>
      <trkpt lat="43.263555" lon="-2.871766">
        <ele>413.4</ele>
        <time>1970-01-01T00:41:29.000Z</time>
      </trkpt>
      <trkpt lat="43.263535" lon="-2.871708">
        <ele>413</ele>
        <time>1970-01-01T00:41:30.000Z</time>
      </trkpt>
      <trkpt lat="43.26352" lon="-2.87166">
        <ele>413</ele>
        <time>1970-01-01T00:41:31.000Z</time>
      </trkpt>
      <trkpt lat="43.26351" lon="-2.871628">
        <ele>413</ele>
        <time>1970-01-01T00:41:32.000Z</time>
      </trkpt>
      <trkpt lat="43.263503" lon="-2.87161">
        <ele>413</ele>
        <time>1970-01-01T00:41:33.000Z</time>
      </trkpt>
      <trkpt lat="43.2635" lon="-2.8716">
        <ele>413.2</ele>
        <time>1970-01-01T00:41:34.000Z</time>
      </trkpt>
      <trkpt lat="43.263495" lon="-2.8716">
        <ele>413.2</ele>
        <time>1970-01-01T00:41:35.000Z</time>
      </trkpt>
      <trkpt lat="43.263495" lon="-2.8716">
        <ele>413.2</ele>
        <time>1970-01-01T00:41:36.000Z</time>
      </trkpt>
      <trkpt lat="43.263506" lon="-2.87165">
        <ele>413.6</ele>
        <time>1970-01-01T00:41:44.000Z</time>
      </trkpt>
      <trkpt lat="43.263516" lon="-2.871685">
        <ele>413.6</ele>
        <time>1970-01-01T00:41:45.000Z</time>
      </trkpt>
      <trkpt lat="43.263526" lon="-2.871723">
        <ele>413</ele>
        <time>1970-01-01T00:41:46.000Z</time>
      </trkpt>
      <trkpt lat="43.263538" lon="-2.87176">
        <ele>413</ele>
        <time>1970-01-01T00:41:47.000Z</time>
      </trkpt>
      <trkpt lat="43.263546" lon="-2.871796">
        <ele>413</ele>
        <time>1970-01-01T00:41:48.000Z</time>
      </trkpt>
      <trkpt lat="43.263558" lon="-2.871836">
        <ele>413.6</ele>
        <time>1970-01-01T00:41:49.000Z</time>
      </trkpt>
      <trkpt lat="43.263571" lon="-2.871876">
        <ele>413.4</ele>
        <time>1970-01-01T00:41:50.000Z</time>
      </trkpt>
      <trkpt lat="43.263581" lon="-2.871916">
        <ele>413.4</ele>
        <time>1970-01-01T00:41:51.000Z</time>
      </trkpt>
      <trkpt lat="43.263595" lon="-2.871956">
        <ele>413.4</ele>
        <time>1970-01-01T00:41:52.000Z</time>
      </trkpt>
      <trkpt lat="43.263605" lon="-2.872">
        <ele>414.4</ele>
        <time>1970-01-01T00:41:53.000Z</time>
      </trkpt>
      <trkpt lat="43.263618" lon="-2.87204">
        <ele>413.6</ele>
        <time>1970-01-01T00:41:54.000Z</time>
      </trkpt>
      <trkpt lat="43.263631" lon="-2.872086">
        <ele>413.6</ele>
        <time>1970-01-01T00:41:55.000Z</time>
      </trkpt>
      <trkpt lat="43.26364" lon="-2.872123">
        <ele>413.6</ele>
        <time>1970-01-01T00:41:56.000Z</time>
      </trkpt>
      <trkpt lat="43.263655" lon="-2.872163">
        <ele>413.6</ele>
        <time>1970-01-01T00:41:57.000Z</time>
      </trkpt>
      <trkpt lat="43.263663" lon="-2.872206">
        <ele>414.8</ele>
        <time>1970-01-01T00:41:58.000Z</time>
      </trkpt>
      <trkpt lat="43.26368" lon="-2.872253">
        <ele>414.8</ele>
        <time>1970-01-01T00:41:59.000Z</time>
      </trkpt>
      <trkpt lat="43.2637" lon="-2.872305">
        <ele>414.8</ele>
        <time>1970-01-01T00:42:00.000Z</time>
      </trkpt>
      <trkpt lat="43.263723" lon="-2.872356">
        <ele>414.6</ele>
        <time>1970-01-01T00:42:01.000Z</time>
      </trkpt>
      <trkpt lat="43.26375" lon="-2.872405">
        <ele>414.8</ele>
        <time>1970-01-01T00:42:02.000Z</time>
      </trkpt>
      <trkpt lat="43.263771" lon="-2.872455">
        <ele>414.8</ele>
        <time>1970-01-01T00:42:03.000Z</time>
      </trkpt>
      <trkpt lat="43.263791" lon="-2.872518">
        <ele>414.8</ele>
        <time>1970-01-01T00:42:04.000Z</time>
      </trkpt>
      <trkpt lat="43.263816" lon="-2.872583">
        <ele>413.8</ele>
        <time>1970-01-01T00:42:05.000Z</time>
      </trkpt>
      <trkpt lat="43.263845" lon="-2.87264">
        <ele>411.8</ele>
        <time>1970-01-01T00:42:06.000Z</time>
      </trkpt>
      <trkpt lat="43.263865" lon="-2.872703">
        <ele>411.8</ele>
        <time>1970-01-01T00:42:07.000Z</time>
      </trkpt>
      <trkpt lat="43.263881" lon="-2.87278">
        <ele>411.8</ele>
        <time>1970-01-01T00:42:08.000Z</time>
      </trkpt>
      <trkpt lat="43.263898" lon="-2.872856">
        <ele>411.8</ele>
        <time>1970-01-01T00:42:09.000Z</time>
      </trkpt>
      <trkpt lat="43.263925" lon="-2.872931">
        <ele>409.6</ele>
        <time>1970-01-01T00:42:10.000Z</time>
      </trkpt>
      <trkpt lat="43.26395" lon="-2.87301">
        <ele>409.6</ele>
        <time>1970-01-01T00:42:11.000Z</time>
      </trkpt>
      <trkpt lat="43.263973" lon="-2.873093">
        <ele>409.6</ele>
        <time>1970-01-01T00:42:12.000Z</time>
      </trkpt>
      <trkpt lat="43.264006" lon="-2.873178">
        <ele>409.6</ele>
        <time>1970-01-01T00:42:13.000Z</time>
      </trkpt>
      <trkpt lat="43.264031" lon="-2.873263">
        <ele>408.2</ele>
        <time>1970-01-01T00:42:14.000Z</time>
      </trkpt>
      <trkpt lat="43.264058" lon="-2.87335">
        <ele>408.2</ele>
        <time>1970-01-01T00:42:15.000Z</time>
      </trkpt>
      <trkpt lat="43.264086" lon="-2.873433">
        <ele>408.2</ele>
        <time>1970-01-01T00:42:16.000Z</time>
      </trkpt>
      <trkpt lat="43.264111" lon="-2.873523">
        <ele>407.2</ele>
        <time>1970-01-01T00:42:17.000Z</time>
      </trkpt>
      <trkpt lat="43.264138" lon="-2.87361">
        <ele>406.6</ele>
        <time>1970-01-01T00:42:18.000Z</time>
      </trkpt>
      <trkpt lat="43.264156" lon="-2.873696">
        <ele>406.6</ele>
        <time>1970-01-01T00:42:19.000Z</time>
      </trkpt>
      <trkpt lat="43.26417" lon="-2.873773">
        <ele>406.6</ele>
        <time>1970-01-01T00:42:20.000Z</time>
      </trkpt>
      <trkpt lat="43.264181" lon="-2.87385">
        <ele>406.6</ele>
        <time>1970-01-01T00:42:21.000Z</time>
      </trkpt>
      <trkpt lat="43.264195" lon="-2.873938">
        <ele>405.6</ele>
        <time>1970-01-01T00:42:22.000Z</time>
      </trkpt>
      <trkpt lat="43.264215" lon="-2.874023">
        <ele>405.6</ele>
        <time>1970-01-01T00:42:23.000Z</time>
      </trkpt>
      <trkpt lat="43.264235" lon="-2.874111">
        <ele>405.6</ele>
        <time>1970-01-01T00:42:24.000Z</time>
      </trkpt>
      <trkpt lat="43.264256" lon="-2.874198">
        <ele>404.6</ele>
        <time>1970-01-01T00:42:25.000Z</time>
      </trkpt>
      <trkpt lat="43.264276" lon="-2.87429">
        <ele>403.8</ele>
        <time>1970-01-01T00:42:26.000Z</time>
      </trkpt>
      <trkpt lat="43.264295" lon="-2.874378">
        <ele>403.8</ele>
        <time>1970-01-01T00:42:27.000Z</time>
      </trkpt>
      <trkpt lat="43.264305" lon="-2.874455">
        <ele>403.8</ele>
        <time>1970-01-01T00:42:28.000Z</time>
      </trkpt>
      <trkpt lat="43.264318" lon="-2.874533">
        <ele>402.8</ele>
        <time>1970-01-01T00:42:29.000Z</time>
      </trkpt>
      <trkpt lat="43.264335" lon="-2.874606">
        <ele>402</ele>
        <time>1970-01-01T00:42:30.000Z</time>
      </trkpt>
      <trkpt lat="43.264346" lon="-2.874675">
        <ele>402</ele>
        <time>1970-01-01T00:42:31.000Z</time>
      </trkpt>
      <trkpt lat="43.264358" lon="-2.874741">
        <ele>402</ele>
        <time>1970-01-01T00:42:32.000Z</time>
      </trkpt>
      <trkpt lat="43.264373" lon="-2.874808">
        <ele>401</ele>
        <time>1970-01-01T00:42:33.000Z</time>
      </trkpt>
      <trkpt lat="43.264385" lon="-2.874868">
        <ele>398.8</ele>
        <time>1970-01-01T00:42:34.000Z</time>
      </trkpt>
      <trkpt lat="43.264395" lon="-2.874931">
        <ele>398.8</ele>
        <time>1970-01-01T00:42:35.000Z</time>
      </trkpt>
      <trkpt lat="43.264406" lon="-2.874986">
        <ele>398.8</ele>
        <time>1970-01-01T00:42:36.000Z</time>
      </trkpt>
      <trkpt lat="43.264413" lon="-2.875033">
        <ele>398.8</ele>
        <time>1970-01-01T00:42:37.000Z</time>
      </trkpt>
      <trkpt lat="43.26442" lon="-2.875086">
        <ele>397</ele>
        <time>1970-01-01T00:42:38.000Z</time>
      </trkpt>
      <trkpt lat="43.264433" lon="-2.875136">
        <ele>397</ele>
        <time>1970-01-01T00:42:39.000Z</time>
      </trkpt>
      <trkpt lat="43.264448" lon="-2.875178">
        <ele>397</ele>
        <time>1970-01-01T00:42:40.000Z</time>
      </trkpt>
      <trkpt lat="43.264461" lon="-2.875225">
        <ele>396</ele>
        <time>1970-01-01T00:42:41.000Z</time>
      </trkpt>
      <trkpt lat="43.264478" lon="-2.875266">
        <ele>395.2</ele>
        <time>1970-01-01T00:42:42.000Z</time>
      </trkpt>
      <trkpt lat="43.264493" lon="-2.875313">
        <ele>395.2</ele>
        <time>1970-01-01T00:42:43.000Z</time>
      </trkpt>
      <trkpt lat="43.26451" lon="-2.875358">
        <ele>395.2</ele>
        <time>1970-01-01T00:42:44.000Z</time>
      </trkpt>
      <trkpt lat="43.264525" lon="-2.875406">
        <ele>395.2</ele>
        <time>1970-01-01T00:42:45.000Z</time>
      </trkpt>
      <trkpt lat="43.264531" lon="-2.875443">
        <ele>392.6</ele>
        <time>1970-01-01T00:42:46.000Z</time>
      </trkpt>
      <trkpt lat="43.264538" lon="-2.875485">
        <ele>392.6</ele>
        <time>1970-01-01T00:42:47.000Z</time>
      </trkpt>
      <trkpt lat="43.264546" lon="-2.875521">
        <ele>392.6</ele>
        <time>1970-01-01T00:42:48.000Z</time>
      </trkpt>
      <trkpt lat="43.264556" lon="-2.875555">
        <ele>391.6</ele>
        <time>1970-01-01T00:42:49.000Z</time>
      </trkpt>
      <trkpt lat="43.264566" lon="-2.875588">
        <ele>389.8</ele>
        <time>1970-01-01T00:42:50.000Z</time>
      </trkpt>
      <trkpt lat="43.264573" lon="-2.875615">
        <ele>389.8</ele>
        <time>1970-01-01T00:42:51.000Z</time>
      </trkpt>
      <trkpt lat="43.264581" lon="-2.875645">
        <ele>389.8</ele>
        <time>1970-01-01T00:42:52.000Z</time>
      </trkpt>
      <trkpt lat="43.264586" lon="-2.875675">
        <ele>389.8</ele>
        <time>1970-01-01T00:42:53.000Z</time>
      </trkpt>
      <trkpt lat="43.264595" lon="-2.875706">
        <ele>388.4</ele>
        <time>1970-01-01T00:42:54.000Z</time>
      </trkpt>
      <trkpt lat="43.264598" lon="-2.875741">
        <ele>388.4</ele>
        <time>1970-01-01T00:42:55.000Z</time>
      </trkpt>
      <trkpt lat="43.264603" lon="-2.875783">
        <ele>388.4</ele>
        <time>1970-01-01T00:42:56.000Z</time>
      </trkpt>
      <trkpt lat="43.264606" lon="-2.875825">
        <ele>388.4</ele>
        <time>1970-01-01T00:42:57.000Z</time>
      </trkpt>
      <trkpt lat="43.264615" lon="-2.87587">
        <ele>386</ele>
        <time>1970-01-01T00:42:58.000Z</time>
      </trkpt>
      <trkpt lat="43.264623" lon="-2.875916">
        <ele>386</ele>
        <time>1970-01-01T00:42:59.000Z</time>
      </trkpt>
      <trkpt lat="43.264636" lon="-2.875968">
        <ele>386</ele>
        <time>1970-01-01T00:43:00.000Z</time>
      </trkpt>
      <trkpt lat="43.264645" lon="-2.876011">
        <ele>385</ele>
        <time>1970-01-01T00:43:01.000Z</time>
      </trkpt>
      <trkpt lat="43.264651" lon="-2.87604">
        <ele>383.2</ele>
        <time>1970-01-01T00:43:02.000Z</time>
      </trkpt>
      <trkpt lat="43.264653" lon="-2.876045">
        <ele>383.2</ele>
        <time>1970-01-01T00:43:03.000Z</time>
      </trkpt>
      <trkpt lat="43.264653" lon="-2.876045">
        <ele>383.2</ele>
        <time>1970-01-01T00:43:04.000Z</time>
      </trkpt>
      <trkpt lat="43.264653" lon="-2.876045">
        <ele>382.6</ele>
        <time>1970-01-01T00:43:05.000Z</time>
      </trkpt>
      <trkpt lat="43.26468" lon="-2.876328">
        <ele>378.6</ele>
        <time>1970-01-01T00:43:27.000Z</time>
      </trkpt>
      <trkpt lat="43.264685" lon="-2.876371">
        <ele>378.6</ele>
        <time>1970-01-01T00:43:28.000Z</time>
      </trkpt>
      <trkpt lat="43.264695" lon="-2.876396">
        <ele>377.6</ele>
        <time>1970-01-01T00:43:29.000Z</time>
      </trkpt>
      <trkpt lat="43.264701" lon="-2.876421">
        <ele>376</ele>
        <time>1970-01-01T00:43:30.000Z</time>
      </trkpt>
      <trkpt lat="43.26471" lon="-2.876458">
        <ele>376</ele>
        <time>1970-01-01T00:43:31.000Z</time>
      </trkpt>
      <trkpt lat="43.26472" lon="-2.876493">
        <ele>376</ele>
        <time>1970-01-01T00:43:32.000Z</time>
      </trkpt>
      <trkpt lat="43.26473" lon="-2.876533">
        <ele>375</ele>
        <time>1970-01-01T00:43:33.000Z</time>
      </trkpt>
      <trkpt lat="43.26474" lon="-2.876585">
        <ele>374.4</ele>
        <time>1970-01-01T00:43:34.000Z</time>
      </trkpt>
      <trkpt lat="43.264745" lon="-2.876628">
        <ele>374.4</ele>
        <time>1970-01-01T00:43:35.000Z</time>
      </trkpt>
      <trkpt lat="43.264758" lon="-2.87667">
        <ele>374.4</ele>
        <time>1970-01-01T00:43:36.000Z</time>
      </trkpt>
      <trkpt lat="43.264775" lon="-2.876715">
        <ele>373.4</ele>
        <time>1970-01-01T00:43:37.000Z</time>
      </trkpt>
      <trkpt lat="43.264783" lon="-2.876771">
        <ele>370.2</ele>
        <time>1970-01-01T00:43:38.000Z</time>
      </trkpt>
      <trkpt lat="43.264798" lon="-2.876825">
        <ele>370.2</ele>
        <time>1970-01-01T00:43:39.000Z</time>
      </trkpt>
      <trkpt lat="43.264801" lon="-2.876875">
        <ele>370.2</ele>
        <time>1970-01-01T00:43:40.000Z</time>
      </trkpt>
      <trkpt lat="43.264801" lon="-2.876923">
        <ele>370.2</ele>
        <time>1970-01-01T00:43:41.000Z</time>
      </trkpt>
      <trkpt lat="43.264798" lon="-2.876978">
        <ele>368</ele>
        <time>1970-01-01T00:43:42.000Z</time>
      </trkpt>
      <trkpt lat="43.264801" lon="-2.877031">
        <ele>368</ele>
        <time>1970-01-01T00:43:43.000Z</time>
      </trkpt>
      <trkpt lat="43.26481" lon="-2.87709">
        <ele>368</ele>
        <time>1970-01-01T00:43:44.000Z</time>
      </trkpt>
      <trkpt lat="43.264815" lon="-2.877145">
        <ele>367</ele>
        <time>1970-01-01T00:43:45.000Z</time>
      </trkpt>
      <trkpt lat="43.264821" lon="-2.877196">
        <ele>365.6</ele>
        <time>1970-01-01T00:43:46.000Z</time>
      </trkpt>
      <trkpt lat="43.264833" lon="-2.877243">
        <ele>365.6</ele>
        <time>1970-01-01T00:43:47.000Z</time>
      </trkpt>
      <trkpt lat="43.264838" lon="-2.877286">
        <ele>365.6</ele>
        <time>1970-01-01T00:43:48.000Z</time>
      </trkpt>
      <trkpt lat="43.264846" lon="-2.877321">
        <ele>365.6</ele>
        <time>1970-01-01T00:43:49.000Z</time>
      </trkpt>
      <trkpt lat="43.264855" lon="-2.87736">
        <ele>362.4</ele>
        <time>1970-01-01T00:43:50.000Z</time>
      </trkpt>
      <trkpt lat="43.26486" lon="-2.8774">
        <ele>362.4</ele>
        <time>1970-01-01T00:43:51.000Z</time>
      </trkpt>
      <trkpt lat="43.264855" lon="-2.877448">
        <ele>362.4</ele>
        <time>1970-01-01T00:43:52.000Z</time>
      </trkpt>
      <trkpt lat="43.264861" lon="-2.877508">
        <ele>362.4</ele>
        <time>1970-01-01T00:43:53.000Z</time>
      </trkpt>
      <trkpt lat="43.264866" lon="-2.877568">
        <ele>361.6</ele>
        <time>1970-01-01T00:43:54.000Z</time>
      </trkpt>
      <trkpt lat="43.264875" lon="-2.877633">
        <ele>361.6</ele>
        <time>1970-01-01T00:43:55.000Z</time>
      </trkpt>
      <trkpt lat="43.264883" lon="-2.877685">
        <ele>361.6</ele>
        <time>1970-01-01T00:43:56.000Z</time>
      </trkpt>
      <trkpt lat="43.264893" lon="-2.877718">
        <ele>361</ele>
        <time>1970-01-01T00:43:57.000Z</time>
      </trkpt>
      <trkpt lat="43.264905" lon="-2.877751">
        <ele>359.4</ele>
        <time>1970-01-01T00:43:58.000Z</time>
      </trkpt>
      <trkpt lat="43.264915" lon="-2.877778">
        <ele>359.4</ele>
        <time>1970-01-01T00:43:59.000Z</time>
      </trkpt>
      <trkpt lat="43.264921" lon="-2.877808">
        <ele>359.4</ele>
        <time>1970-01-01T00:44:00.000Z</time>
      </trkpt>
      <trkpt lat="43.264925" lon="-2.877845">
        <ele>358.4</ele>
        <time>1970-01-01T00:44:01.000Z</time>
      </trkpt>
      <trkpt lat="43.264926" lon="-2.877898">
        <ele>356.8</ele>
        <time>1970-01-01T00:44:02.000Z</time>
      </trkpt>
      <trkpt lat="43.264928" lon="-2.87795">
        <ele>356.8</ele>
        <time>1970-01-01T00:44:03.000Z</time>
      </trkpt>
      <trkpt lat="43.26493" lon="-2.877993">
        <ele>356.8</ele>
        <time>1970-01-01T00:44:04.000Z</time>
      </trkpt>
      <trkpt lat="43.264938" lon="-2.878038">
        <ele>356.8</ele>
        <time>1970-01-01T00:44:05.000Z</time>
      </trkpt>
      <trkpt lat="43.264953" lon="-2.878086">
        <ele>354.4</ele>
        <time>1970-01-01T00:44:06.000Z</time>
      </trkpt>
      <trkpt lat="43.264965" lon="-2.87813">
        <ele>354.4</ele>
        <time>1970-01-01T00:44:07.000Z</time>
      </trkpt>
      <trkpt lat="43.264976" lon="-2.878173">
        <ele>354.4</ele>
        <time>1970-01-01T00:44:08.000Z</time>
      </trkpt>
      <trkpt lat="43.264985" lon="-2.878201">
        <ele>354.4</ele>
        <time>1970-01-01T00:44:09.000Z</time>
      </trkpt>
      <trkpt lat="43.26499" lon="-2.878225">
        <ele>353.4</ele>
        <time>1970-01-01T00:44:10.000Z</time>
      </trkpt>
      <trkpt lat="43.264991" lon="-2.878238">
        <ele>353.4</ele>
        <time>1970-01-01T00:44:11.000Z</time>
      </trkpt>
      <trkpt lat="43.264991" lon="-2.878245">
        <ele>353.4</ele>
        <time>1970-01-01T00:44:12.000Z</time>
      </trkpt>
      <trkpt lat="43.264988" lon="-2.878258">
        <ele>353.2</ele>
        <time>1970-01-01T00:44:13.000Z</time>
      </trkpt>
      <trkpt lat="43.26499" lon="-2.878285">
        <ele>353</ele>
        <time>1970-01-01T00:44:14.000Z</time>
      </trkpt>
      <trkpt lat="43.264996" lon="-2.87832">
        <ele>353</ele>
        <time>1970-01-01T00:44:15.000Z</time>
      </trkpt>
      <trkpt lat="43.265008" lon="-2.878363">
        <ele>353</ele>
        <time>1970-01-01T00:44:16.000Z</time>
      </trkpt>
      <trkpt lat="43.265018" lon="-2.878415">
        <ele>352</ele>
        <time>1970-01-01T00:44:17.000Z</time>
      </trkpt>
      <trkpt lat="43.26503" lon="-2.878478">
        <ele>350.8</ele>
        <time>1970-01-01T00:44:18.000Z</time>
      </trkpt>
      <trkpt lat="43.265038" lon="-2.878551">
        <ele>350.8</ele>
        <time>1970-01-01T00:44:19.000Z</time>
      </trkpt>
      <trkpt lat="43.26505" lon="-2.878615">
        <ele>350.8</ele>
        <time>1970-01-01T00:44:20.000Z</time>
      </trkpt>
      <trkpt lat="43.265056" lon="-2.878676">
        <ele>350.8</ele>
        <time>1970-01-01T00:44:21.000Z</time>
      </trkpt>
      <trkpt lat="43.265068" lon="-2.878745">
        <ele>348</ele>
        <time>1970-01-01T00:44:22.000Z</time>
      </trkpt>
      <trkpt lat="43.265081" lon="-2.878811">
        <ele>348</ele>
        <time>1970-01-01T00:44:23.000Z</time>
      </trkpt>
      <trkpt lat="43.265095" lon="-2.87888">
        <ele>348</ele>
        <time>1970-01-01T00:44:24.000Z</time>
      </trkpt>
      <trkpt lat="43.265105" lon="-2.878943">
        <ele>348</ele>
        <time>1970-01-01T00:44:25.000Z</time>
      </trkpt>
      <trkpt lat="43.265113" lon="-2.879006">
        <ele>346.8</ele>
        <time>1970-01-01T00:44:26.000Z</time>
      </trkpt>
      <trkpt lat="43.265123" lon="-2.879073">
        <ele>346.8</ele>
        <time>1970-01-01T00:44:27.000Z</time>
      </trkpt>
      <trkpt lat="43.265133" lon="-2.879141">
        <ele>346.8</ele>
        <time>1970-01-01T00:44:28.000Z</time>
      </trkpt>
      <trkpt lat="43.265148" lon="-2.879213">
        <ele>346.8</ele>
        <time>1970-01-01T00:44:29.000Z</time>
      </trkpt>
      <trkpt lat="43.265163" lon="-2.879273">
        <ele>344.2</ele>
        <time>1970-01-01T00:44:30.000Z</time>
      </trkpt>
      <trkpt lat="43.265178" lon="-2.879333">
        <ele>344.2</ele>
        <time>1970-01-01T00:44:31.000Z</time>
      </trkpt>
      <trkpt lat="43.265196" lon="-2.87939">
        <ele>344.2</ele>
        <time>1970-01-01T00:44:32.000Z</time>
      </trkpt>
      <trkpt lat="43.265205" lon="-2.879455">
        <ele>343.2</ele>
        <time>1970-01-01T00:44:33.000Z</time>
      </trkpt>
      <trkpt lat="43.265205" lon="-2.879525">
        <ele>342.6</ele>
        <time>1970-01-01T00:44:34.000Z</time>
      </trkpt>
      <trkpt lat="43.265211" lon="-2.879586">
        <ele>342.6</ele>
        <time>1970-01-01T00:44:35.000Z</time>
      </trkpt>
      <trkpt lat="43.265215" lon="-2.879636">
        <ele>342.6</ele>
        <time>1970-01-01T00:44:36.000Z</time>
      </trkpt>
      <trkpt lat="43.265213" lon="-2.879673">
        <ele>342</ele>
        <time>1970-01-01T00:44:37.000Z</time>
      </trkpt>
      <trkpt lat="43.265212" lon="-2.879728">
        <ele>341.4</ele>
        <time>1970-01-01T00:44:38.000Z</time>
      </trkpt>
      <trkpt lat="43.265212" lon="-2.879757">
        <ele>341.4</ele>
        <time>1970-01-01T00:44:39.000Z</time>
      </trkpt>
      <trkpt lat="43.265213" lon="-2.879787">
        <ele>341.4</ele>
        <time>1970-01-01T00:44:40.000Z</time>
      </trkpt>
      <trkpt lat="43.265213" lon="-2.879816">
        <ele>341.4</ele>
        <time>1970-01-01T00:44:41.000Z</time>
      </trkpt>
      <trkpt lat="43.265214" lon="-2.879846">
        <ele>341</ele>
        <time>1970-01-01T00:44:42.000Z</time>
      </trkpt>
      <trkpt lat="43.265214" lon="-2.879875">
        <ele>341</ele>
        <time>1970-01-01T00:44:53.000Z</time>
      </trkpt>
      <trkpt lat="43.265215" lon="-2.879905">
        <ele>341</ele>
        <time>1970-01-01T00:44:54.000Z</time>
      </trkpt>
      <trkpt lat="43.265226" lon="-2.879963">
        <ele>341</ele>
        <time>1970-01-01T00:44:55.000Z</time>
      </trkpt>
      <trkpt lat="43.26524" lon="-2.880021">
        <ele>341</ele>
        <time>1970-01-01T00:44:56.000Z</time>
      </trkpt>
      <trkpt lat="43.265253" lon="-2.880081">
        <ele>340.4</ele>
        <time>1970-01-01T00:44:57.000Z</time>
      </trkpt>
      <trkpt lat="43.265263" lon="-2.880146">
        <ele>340.6</ele>
        <time>1970-01-01T00:44:58.000Z</time>
      </trkpt>
      <trkpt lat="43.265266" lon="-2.880213">
        <ele>340.6</ele>
        <time>1970-01-01T00:44:59.000Z</time>
      </trkpt>
      <trkpt lat="43.265261" lon="-2.88029">
        <ele>340.6</ele>
        <time>1970-01-01T00:45:00.000Z</time>
      </trkpt>
      <trkpt lat="43.265255" lon="-2.880365">
        <ele>339.8</ele>
        <time>1970-01-01T00:45:01.000Z</time>
      </trkpt>
      <trkpt lat="43.265248" lon="-2.880446">
        <ele>339.2</ele>
        <time>1970-01-01T00:45:02.000Z</time>
      </trkpt>
      <trkpt lat="43.265245" lon="-2.880526">
        <ele>339.2</ele>
        <time>1970-01-01T00:45:03.000Z</time>
      </trkpt>
      <trkpt lat="43.265238" lon="-2.880598">
        <ele>339.2</ele>
        <time>1970-01-01T00:45:04.000Z</time>
      </trkpt>
      <trkpt lat="43.265233" lon="-2.880671">
        <ele>339.2</ele>
        <time>1970-01-01T00:45:05.000Z</time>
      </trkpt>
      <trkpt lat="43.265225" lon="-2.880738">
        <ele>339.6</ele>
        <time>1970-01-01T00:45:06.000Z</time>
      </trkpt>
      <trkpt lat="43.265223" lon="-2.880801">
        <ele>339.6</ele>
        <time>1970-01-01T00:45:07.000Z</time>
      </trkpt>
      <trkpt lat="43.265223" lon="-2.880863">
        <ele>339.6</ele>
        <time>1970-01-01T00:45:08.000Z</time>
      </trkpt>
      <trkpt lat="43.265228" lon="-2.88092">
        <ele>339.6</ele>
        <time>1970-01-01T00:45:09.000Z</time>
      </trkpt>
      <trkpt lat="43.265233" lon="-2.880973">
        <ele>340</ele>
        <time>1970-01-01T00:45:10.000Z</time>
      </trkpt>
      <trkpt lat="43.26524" lon="-2.88102">
        <ele>340</ele>
        <time>1970-01-01T00:45:11.000Z</time>
      </trkpt>
      <trkpt lat="43.265243" lon="-2.88106">
        <ele>340</ele>
        <time>1970-01-01T00:45:12.000Z</time>
      </trkpt>
      <trkpt lat="43.265251" lon="-2.8811">
        <ele>340.4</ele>
        <time>1970-01-01T00:45:13.000Z</time>
      </trkpt>
      <trkpt lat="43.26526" lon="-2.88113">
        <ele>340.6</ele>
        <time>1970-01-01T00:45:14.000Z</time>
      </trkpt>
      <trkpt lat="43.265271" lon="-2.881151">
        <ele>340.6</ele>
        <time>1970-01-01T00:45:15.000Z</time>
      </trkpt>
      <trkpt lat="43.265285" lon="-2.88116">
        <ele>340.6</ele>
        <time>1970-01-01T00:45:16.000Z</time>
      </trkpt>
      <trkpt lat="43.265295" lon="-2.881153">
        <ele>340.6</ele>
        <time>1970-01-01T00:45:17.000Z</time>
      </trkpt>
      <trkpt lat="43.2653" lon="-2.88114">
        <ele>340.6</ele>
        <time>1970-01-01T00:45:18.000Z</time>
      </trkpt>
      <trkpt lat="43.265298" lon="-2.881128">
        <ele>340.6</ele>
        <time>1970-01-01T00:45:19.000Z</time>
      </trkpt>
      <trkpt lat="43.26529" lon="-2.881118">
        <ele>340.6</ele>
        <time>1970-01-01T00:45:20.000Z</time>
      </trkpt>
      <trkpt lat="43.265278" lon="-2.881108">
        <ele>340.6</ele>
        <time>1970-01-01T00:45:21.000Z</time>
      </trkpt>
      <trkpt lat="43.265263" lon="-2.881091">
        <ele>340.6</ele>
        <time>1970-01-01T00:45:22.000Z</time>
      </trkpt>
      <trkpt lat="43.26525" lon="-2.881078">
        <ele>340.6</ele>
        <time>1970-01-01T00:45:23.000Z</time>
      </trkpt>
      <trkpt lat="43.265245" lon="-2.88105">
        <ele>340.6</ele>
        <time>1970-01-01T00:45:24.000Z</time>
      </trkpt>
      <trkpt lat="43.265241" lon="-2.881016">
        <ele>339.6</ele>
        <time>1970-01-01T00:45:25.000Z</time>
      </trkpt>
      <trkpt lat="43.265241" lon="-2.880978">
        <ele>339.8</ele>
        <time>1970-01-01T00:45:26.000Z</time>
      </trkpt>
      <trkpt lat="43.265238" lon="-2.880936">
        <ele>339.8</ele>
        <time>1970-01-01T00:45:27.000Z</time>
      </trkpt>
      <trkpt lat="43.265231" lon="-2.880893">
        <ele>339.8</ele>
        <time>1970-01-01T00:45:28.000Z</time>
      </trkpt>
      <trkpt lat="43.265228" lon="-2.880851">
        <ele>339.8</ele>
        <time>1970-01-01T00:45:29.000Z</time>
      </trkpt>
      <trkpt lat="43.265226" lon="-2.880806">
        <ele>339.2</ele>
        <time>1970-01-01T00:45:30.000Z</time>
      </trkpt>
      <trkpt lat="43.265226" lon="-2.880761">
        <ele>339.2</ele>
        <time>1970-01-01T00:45:31.000Z</time>
      </trkpt>
      <trkpt lat="43.265226" lon="-2.880715">
        <ele>339.2</ele>
        <time>1970-01-01T00:45:32.000Z</time>
      </trkpt>
      <trkpt lat="43.265226" lon="-2.880668">
        <ele>339.6</ele>
        <time>1970-01-01T00:45:33.000Z</time>
      </trkpt>
      <trkpt lat="43.265228" lon="-2.880623">
        <ele>339.2</ele>
        <time>1970-01-01T00:45:34.000Z</time>
      </trkpt>
      <trkpt lat="43.265238" lon="-2.880578">
        <ele>339.2</ele>
        <time>1970-01-01T00:45:35.000Z</time>
      </trkpt>
      <trkpt lat="43.26525" lon="-2.880536">
        <ele>339.2</ele>
        <time>1970-01-01T00:45:36.000Z</time>
      </trkpt>
      <trkpt lat="43.265256" lon="-2.880488">
        <ele>339.2</ele>
        <time>1970-01-01T00:45:37.000Z</time>
      </trkpt>
      <trkpt lat="43.265263" lon="-2.880435">
        <ele>339.6</ele>
        <time>1970-01-01T00:45:38.000Z</time>
      </trkpt>
      <trkpt lat="43.265256" lon="-2.880381">
        <ele>339.6</ele>
        <time>1970-01-01T00:45:39.000Z</time>
      </trkpt>
      <trkpt lat="43.265248" lon="-2.880328">
        <ele>339.6</ele>
        <time>1970-01-01T00:45:40.000Z</time>
      </trkpt>
      <trkpt lat="43.26524" lon="-2.880275">
        <ele>340</ele>
        <time>1970-01-01T00:45:41.000Z</time>
      </trkpt>
      <trkpt lat="43.265233" lon="-2.880221">
        <ele>340</ele>
        <time>1970-01-01T00:45:42.000Z</time>
      </trkpt>
      <trkpt lat="43.265225" lon="-2.880166">
        <ele>340</ele>
        <time>1970-01-01T00:45:43.000Z</time>
      </trkpt>
      <trkpt lat="43.265215" lon="-2.880113">
        <ele>340</ele>
        <time>1970-01-01T00:45:44.000Z</time>
      </trkpt>
      <trkpt lat="43.265205" lon="-2.88006">
        <ele>340</ele>
        <time>1970-01-01T00:45:45.000Z</time>
      </trkpt>
      <trkpt lat="43.265191" lon="-2.880006">
        <ele>340.4</ele>
        <time>1970-01-01T00:45:46.000Z</time>
      </trkpt>
      <trkpt lat="43.26518" lon="-2.879953">
        <ele>340.4</ele>
        <time>1970-01-01T00:45:47.000Z</time>
      </trkpt>
      <trkpt lat="43.265168" lon="-2.8799">
        <ele>340.4</ele>
        <time>1970-01-01T00:45:48.000Z</time>
      </trkpt>
      <trkpt lat="43.265156" lon="-2.879846">
        <ele>341.4</ele>
        <time>1970-01-01T00:45:49.000Z</time>
      </trkpt>
      <trkpt lat="43.265145" lon="-2.879791">
        <ele>341.2</ele>
        <time>1970-01-01T00:45:50.000Z</time>
      </trkpt>
      <trkpt lat="43.265131" lon="-2.879736">
        <ele>341.2</ele>
        <time>1970-01-01T00:45:51.000Z</time>
      </trkpt>
      <trkpt lat="43.26512" lon="-2.879681">
        <ele>341.2</ele>
        <time>1970-01-01T00:45:52.000Z</time>
      </trkpt>
      <trkpt lat="43.265106" lon="-2.879626">
        <ele>341.6</ele>
        <time>1970-01-01T00:45:53.000Z</time>
      </trkpt>
      <trkpt lat="43.265093" lon="-2.879571">
        <ele>341.8</ele>
        <time>1970-01-01T00:45:54.000Z</time>
      </trkpt>
      <trkpt lat="43.265076" lon="-2.879516">
        <ele>341.8</ele>
        <time>1970-01-01T00:45:55.000Z</time>
      </trkpt>
      <trkpt lat="43.26506" lon="-2.879461">
        <ele>341.8</ele>
        <time>1970-01-01T00:45:56.000Z</time>
      </trkpt>
      <trkpt lat="43.265043" lon="-2.879408">
        <ele>342.4</ele>
        <time>1970-01-01T00:45:57.000Z</time>
      </trkpt>
      <trkpt lat="43.26503" lon="-2.879353">
        <ele>342.6</ele>
        <time>1970-01-01T00:45:58.000Z</time>
      </trkpt>
      <trkpt lat="43.265013" lon="-2.8793">
        <ele>342.6</ele>
        <time>1970-01-01T00:45:59.000Z</time>
      </trkpt>
      <trkpt lat="43.264996" lon="-2.879248">
        <ele>342.6</ele>
        <time>1970-01-01T00:46:00.000Z</time>
      </trkpt>
      <trkpt lat="43.264978" lon="-2.879196">
        <ele>343.2</ele>
        <time>1970-01-01T00:46:01.000Z</time>
      </trkpt>
      <trkpt lat="43.264958" lon="-2.879145">
        <ele>343.2</ele>
        <time>1970-01-01T00:46:02.000Z</time>
      </trkpt>
      <trkpt lat="43.264941" lon="-2.879093">
        <ele>343.2</ele>
        <time>1970-01-01T00:46:03.000Z</time>
      </trkpt>
      <trkpt lat="43.264923" lon="-2.879041">
        <ele>343.2</ele>
        <time>1970-01-01T00:46:04.000Z</time>
      </trkpt>
      <trkpt lat="43.264906" lon="-2.87899">
        <ele>344</ele>
        <time>1970-01-01T00:46:05.000Z</time>
      </trkpt>
      <trkpt lat="43.264888" lon="-2.87894">
        <ele>344</ele>
        <time>1970-01-01T00:46:06.000Z</time>
      </trkpt>
      <trkpt lat="43.264873" lon="-2.87889">
        <ele>344</ele>
        <time>1970-01-01T00:46:07.000Z</time>
      </trkpt>
      <trkpt lat="43.264853" lon="-2.878841">
        <ele>344</ele>
        <time>1970-01-01T00:46:08.000Z</time>
      </trkpt>
      <trkpt lat="43.26483" lon="-2.878796">
        <ele>344.2</ele>
        <time>1970-01-01T00:46:09.000Z</time>
      </trkpt>
      <trkpt lat="43.26481" lon="-2.878746">
        <ele>344.6</ele>
        <time>1970-01-01T00:46:10.000Z</time>
      </trkpt>
      <trkpt lat="43.26479" lon="-2.878696">
        <ele>344.6</ele>
        <time>1970-01-01T00:46:11.000Z</time>
      </trkpt>
      <trkpt lat="43.264768" lon="-2.878648">
        <ele>344.6</ele>
        <time>1970-01-01T00:46:12.000Z</time>
      </trkpt>
      <trkpt lat="43.264748" lon="-2.878598">
        <ele>344.6</ele>
        <time>1970-01-01T00:46:13.000Z</time>
      </trkpt>
      <trkpt lat="43.264725" lon="-2.878553">
        <ele>345.2</ele>
        <time>1970-01-01T00:46:14.000Z</time>
      </trkpt>
      <trkpt lat="43.264701" lon="-2.878506">
        <ele>345.2</ele>
        <time>1970-01-01T00:46:15.000Z</time>
      </trkpt>
      <trkpt lat="43.264675" lon="-2.87846">
        <ele>345.2</ele>
        <time>1970-01-01T00:46:16.000Z</time>
      </trkpt>
      <trkpt lat="43.264646" lon="-2.87842">
        <ele>345.2</ele>
        <time>1970-01-01T00:46:17.000Z</time>
      </trkpt>
      <trkpt lat="43.264616" lon="-2.87838">
        <ele>345.8</ele>
        <time>1970-01-01T00:46:18.000Z</time>
      </trkpt>
      <trkpt lat="43.264586" lon="-2.878341">
        <ele>345.8</ele>
        <time>1970-01-01T00:46:19.000Z</time>
      </trkpt>
      <trkpt lat="43.264555" lon="-2.878305">
        <ele>345.8</ele>
        <time>1970-01-01T00:46:20.000Z</time>
      </trkpt>
      <trkpt lat="43.26452" lon="-2.878268">
        <ele>346.4</ele>
        <time>1970-01-01T00:46:21.000Z</time>
      </trkpt>
      <trkpt lat="43.26449" lon="-2.878233">
        <ele>346.4</ele>
        <time>1970-01-01T00:46:22.000Z</time>
      </trkpt>
      <trkpt lat="43.26446" lon="-2.878193">
        <ele>346.4</ele>
        <time>1970-01-01T00:46:23.000Z</time>
      </trkpt>
      <trkpt lat="43.264426" lon="-2.878156">
        <ele>346.4</ele>
        <time>1970-01-01T00:46:24.000Z</time>
      </trkpt>
      <trkpt lat="43.264398" lon="-2.878131">
        <ele>346.4</ele>
        <time>1970-01-01T00:46:25.000Z</time>
      </trkpt>
      <trkpt lat="43.264368" lon="-2.878101">
        <ele>347.4</ele>
        <time>1970-01-01T00:46:26.000Z</time>
      </trkpt>
      <trkpt lat="43.264336" lon="-2.878068">
        <ele>347.4</ele>
        <time>1970-01-01T00:46:27.000Z</time>
      </trkpt>
      <trkpt lat="43.264305" lon="-2.878033">
        <ele>347.4</ele>
        <time>1970-01-01T00:46:28.000Z</time>
      </trkpt>
      <trkpt lat="43.264271" lon="-2.878">
        <ele>348.4</ele>
        <time>1970-01-01T00:46:29.000Z</time>
      </trkpt>
      <trkpt lat="43.264238" lon="-2.87797">
        <ele>349.2</ele>
        <time>1970-01-01T00:46:30.000Z</time>
      </trkpt>
      <trkpt lat="43.264208" lon="-2.877938">
        <ele>349.2</ele>
        <time>1970-01-01T00:46:31.000Z</time>
      </trkpt>
      <trkpt lat="43.264181" lon="-2.877908">
        <ele>349.2</ele>
        <time>1970-01-01T00:46:32.000Z</time>
      </trkpt>
      <trkpt lat="43.264153" lon="-2.877871">
        <ele>350.2</ele>
        <time>1970-01-01T00:46:33.000Z</time>
      </trkpt>
      <trkpt lat="43.26412" lon="-2.877835">
        <ele>350.4</ele>
        <time>1970-01-01T00:46:34.000Z</time>
      </trkpt>
      <trkpt lat="43.264088" lon="-2.877801">
        <ele>350.4</ele>
        <time>1970-01-01T00:46:35.000Z</time>
      </trkpt>
      <trkpt lat="43.264056" lon="-2.877775">
        <ele>350.4</ele>
        <time>1970-01-01T00:46:36.000Z</time>
      </trkpt>
      <trkpt lat="43.264028" lon="-2.877733">
        <ele>350.4</ele>
        <time>1970-01-01T00:46:37.000Z</time>
      </trkpt>
      <trkpt lat="43.263998" lon="-2.877688">
        <ele>351</ele>
        <time>1970-01-01T00:46:38.000Z</time>
      </trkpt>
      <trkpt lat="43.263963" lon="-2.877651">
        <ele>351</ele>
        <time>1970-01-01T00:46:39.000Z</time>
      </trkpt>
      <trkpt lat="43.263935" lon="-2.877608">
        <ele>351</ele>
        <time>1970-01-01T00:46:40.000Z</time>
      </trkpt>
      <trkpt lat="43.263906" lon="-2.877566">
        <ele>352</ele>
        <time>1970-01-01T00:46:41.000Z</time>
      </trkpt>
      <trkpt lat="43.263878" lon="-2.877526">
        <ele>351.6</ele>
        <time>1970-01-01T00:46:42.000Z</time>
      </trkpt>
      <trkpt lat="43.263848" lon="-2.877483">
        <ele>351.6</ele>
        <time>1970-01-01T00:46:43.000Z</time>
      </trkpt>
      <trkpt lat="43.263818" lon="-2.877445">
        <ele>351.6</ele>
        <time>1970-01-01T00:46:44.000Z</time>
      </trkpt>
      <trkpt lat="43.263783" lon="-2.877411">
        <ele>352.4</ele>
        <time>1970-01-01T00:46:45.000Z</time>
      </trkpt>
      <trkpt lat="43.263748" lon="-2.877375">
        <ele>353</ele>
        <time>1970-01-01T00:46:46.000Z</time>
      </trkpt>
      <trkpt lat="43.263715" lon="-2.87735">
        <ele>353</ele>
        <time>1970-01-01T00:46:47.000Z</time>
      </trkpt>
      <trkpt lat="43.263681" lon="-2.877315">
        <ele>353</ele>
        <time>1970-01-01T00:46:48.000Z</time>
      </trkpt>
      <trkpt lat="43.263648" lon="-2.877278">
        <ele>353</ele>
        <time>1970-01-01T00:46:49.000Z</time>
      </trkpt>
      <trkpt lat="43.263615" lon="-2.877243">
        <ele>353.6</ele>
        <time>1970-01-01T00:46:50.000Z</time>
      </trkpt>
      <trkpt lat="43.263578" lon="-2.877208">
        <ele>353.6</ele>
        <time>1970-01-01T00:46:51.000Z</time>
      </trkpt>
      <trkpt lat="43.26355" lon="-2.877171">
        <ele>353.6</ele>
        <time>1970-01-01T00:46:52.000Z</time>
      </trkpt>
      <trkpt lat="43.263518" lon="-2.877133">
        <ele>354.4</ele>
        <time>1970-01-01T00:46:53.000Z</time>
      </trkpt>
      <trkpt lat="43.263491" lon="-2.877091">
        <ele>354.4</ele>
        <time>1970-01-01T00:46:54.000Z</time>
      </trkpt>
      <trkpt lat="43.263461" lon="-2.877053">
        <ele>354.2</ele>
        <time>1970-01-01T00:46:55.000Z</time>
      </trkpt>
      <trkpt lat="43.263433" lon="-2.877008">
        <ele>354.2</ele>
        <time>1970-01-01T00:46:56.000Z</time>
      </trkpt>
      <trkpt lat="43.263405" lon="-2.876961">
        <ele>355.2</ele>
        <time>1970-01-01T00:46:57.000Z</time>
      </trkpt>
      <trkpt lat="43.26338" lon="-2.876916">
        <ele>355.6</ele>
        <time>1970-01-01T00:46:58.000Z</time>
      </trkpt>
      <trkpt lat="43.263353" lon="-2.876863">
        <ele>355.6</ele>
        <time>1970-01-01T00:46:59.000Z</time>
      </trkpt>
      <trkpt lat="43.26333" lon="-2.876808">
        <ele>355.6</ele>
        <time>1970-01-01T00:47:00.000Z</time>
      </trkpt>
      <trkpt lat="43.26331" lon="-2.87675">
        <ele>355.8</ele>
        <time>1970-01-01T00:47:01.000Z</time>
      </trkpt>
      <trkpt lat="43.263283" lon="-2.876696">
        <ele>356</ele>
        <time>1970-01-01T00:47:02.000Z</time>
      </trkpt>
      <trkpt lat="43.263265" lon="-2.876641">
        <ele>356</ele>
        <time>1970-01-01T00:47:03.000Z</time>
      </trkpt>
      <trkpt lat="43.26325" lon="-2.876585">
        <ele>356</ele>
        <time>1970-01-01T00:47:04.000Z</time>
      </trkpt>
      <trkpt lat="43.263235" lon="-2.87653">
        <ele>356.6</ele>
        <time>1970-01-01T00:47:05.000Z</time>
      </trkpt>
      <trkpt lat="43.263221" lon="-2.876473">
        <ele>356.6</ele>
        <time>1970-01-01T00:47:06.000Z</time>
      </trkpt>
      <trkpt lat="43.263206" lon="-2.876416">
        <ele>356.4</ele>
        <time>1970-01-01T00:47:07.000Z</time>
      </trkpt>
      <trkpt lat="43.26319" lon="-2.876361">
        <ele>356.4</ele>
        <time>1970-01-01T00:47:08.000Z</time>
      </trkpt>
      <trkpt lat="43.263171" lon="-2.876308">
        <ele>357.2</ele>
        <time>1970-01-01T00:47:09.000Z</time>
      </trkpt>
      <trkpt lat="43.263151" lon="-2.87625">
        <ele>357.6</ele>
        <time>1970-01-01T00:47:10.000Z</time>
      </trkpt>
      <trkpt lat="43.263128" lon="-2.876193">
        <ele>357.6</ele>
        <time>1970-01-01T00:47:11.000Z</time>
      </trkpt>
      <trkpt lat="43.263103" lon="-2.876141">
        <ele>357.6</ele>
        <time>1970-01-01T00:47:12.000Z</time>
      </trkpt>
      <trkpt lat="43.263081" lon="-2.876088">
        <ele>357.6</ele>
        <time>1970-01-01T00:47:13.000Z</time>
      </trkpt>
      <trkpt lat="43.263058" lon="-2.876035">
        <ele>358.4</ele>
        <time>1970-01-01T00:47:14.000Z</time>
      </trkpt>
      <trkpt lat="43.263035" lon="-2.875983">
        <ele>358.4</ele>
        <time>1970-01-01T00:47:15.000Z</time>
      </trkpt>
      <trkpt lat="43.263011" lon="-2.875935">
        <ele>358.4</ele>
        <time>1970-01-01T00:47:16.000Z</time>
      </trkpt>
      <trkpt lat="43.26299" lon="-2.875885">
        <ele>358.4</ele>
        <time>1970-01-01T00:47:17.000Z</time>
      </trkpt>
      <trkpt lat="43.262965" lon="-2.875835">
        <ele>359.4</ele>
        <time>1970-01-01T00:47:18.000Z</time>
      </trkpt>
      <trkpt lat="43.262945" lon="-2.875783">
        <ele>359.4</ele>
        <time>1970-01-01T00:47:19.000Z</time>
      </trkpt>
      <trkpt lat="43.262921" lon="-2.875733">
        <ele>359.4</ele>
        <time>1970-01-01T00:47:20.000Z</time>
      </trkpt>
      <trkpt lat="43.2629" lon="-2.875683">
        <ele>359.4</ele>
        <time>1970-01-01T00:47:21.000Z</time>
      </trkpt>
      <trkpt lat="43.26288" lon="-2.875633">
        <ele>360</ele>
        <time>1970-01-01T00:47:22.000Z</time>
      </trkpt>
      <trkpt lat="43.262863" lon="-2.875581">
        <ele>360</ele>
        <time>1970-01-01T00:47:23.000Z</time>
      </trkpt>
      <trkpt lat="43.262843" lon="-2.87553">
        <ele>360</ele>
        <time>1970-01-01T00:47:24.000Z</time>
      </trkpt>
      <trkpt lat="43.262825" lon="-2.875476">
        <ele>360.6</ele>
        <time>1970-01-01T00:47:25.000Z</time>
      </trkpt>
      <trkpt lat="43.262806" lon="-2.875421">
        <ele>361.2</ele>
        <time>1970-01-01T00:47:26.000Z</time>
      </trkpt>
      <trkpt lat="43.26279" lon="-2.875365">
        <ele>361.2</ele>
        <time>1970-01-01T00:47:27.000Z</time>
      </trkpt>
      <trkpt lat="43.262775" lon="-2.875308">
        <ele>361.2</ele>
        <time>1970-01-01T00:47:28.000Z</time>
      </trkpt>
      <trkpt lat="43.26276" lon="-2.875251">
        <ele>361.2</ele>
        <time>1970-01-01T00:47:29.000Z</time>
      </trkpt>
      <trkpt lat="43.26275" lon="-2.875195">
        <ele>361</ele>
        <time>1970-01-01T00:47:30.000Z</time>
      </trkpt>
      <trkpt lat="43.26274" lon="-2.875138">
        <ele>361</ele>
        <time>1970-01-01T00:47:31.000Z</time>
      </trkpt>
      <trkpt lat="43.262733" lon="-2.87508">
        <ele>361</ele>
        <time>1970-01-01T00:47:32.000Z</time>
      </trkpt>
      <trkpt lat="43.262733" lon="-2.875021">
        <ele>361.8</ele>
        <time>1970-01-01T00:47:33.000Z</time>
      </trkpt>
      <trkpt lat="43.262731" lon="-2.874963">
        <ele>361.8</ele>
        <time>1970-01-01T00:47:34.000Z</time>
      </trkpt>
      <trkpt lat="43.262733" lon="-2.874905">
        <ele>361.8</ele>
        <time>1970-01-01T00:47:35.000Z</time>
      </trkpt>
      <trkpt lat="43.262743" lon="-2.874855">
        <ele>361.8</ele>
        <time>1970-01-01T00:47:36.000Z</time>
      </trkpt>
      <trkpt lat="43.262746" lon="-2.874798">
        <ele>362.6</ele>
        <time>1970-01-01T00:47:37.000Z</time>
      </trkpt>
      <trkpt lat="43.262743" lon="-2.874738">
        <ele>362.6</ele>
        <time>1970-01-01T00:47:38.000Z</time>
      </trkpt>
      <trkpt lat="43.262748" lon="-2.874676">
        <ele>362.6</ele>
        <time>1970-01-01T00:47:39.000Z</time>
      </trkpt>
      <trkpt lat="43.26275" lon="-2.874615">
        <ele>362.6</ele>
        <time>1970-01-01T00:47:40.000Z</time>
      </trkpt>
      <trkpt lat="43.262746" lon="-2.874553">
        <ele>362.6</ele>
        <time>1970-01-01T00:47:41.000Z</time>
      </trkpt>
      <trkpt lat="43.262745" lon="-2.874493">
        <ele>363.2</ele>
        <time>1970-01-01T00:47:42.000Z</time>
      </trkpt>
      <trkpt lat="43.262738" lon="-2.874433">
        <ele>363.2</ele>
        <time>1970-01-01T00:47:43.000Z</time>
      </trkpt>
      <trkpt lat="43.26273" lon="-2.874373">
        <ele>363.2</ele>
        <time>1970-01-01T00:47:44.000Z</time>
      </trkpt>
      <trkpt lat="43.262725" lon="-2.874318">
        <ele>363.8</ele>
        <time>1970-01-01T00:47:45.000Z</time>
      </trkpt>
      <trkpt lat="43.262711" lon="-2.87426">
        <ele>363.8</ele>
        <time>1970-01-01T00:47:46.000Z</time>
      </trkpt>
      <trkpt lat="43.262698" lon="-2.874198">
        <ele>364</ele>
        <time>1970-01-01T00:47:47.000Z</time>
      </trkpt>
      <trkpt lat="43.262681" lon="-2.874138">
        <ele>364</ele>
        <time>1970-01-01T00:47:48.000Z</time>
      </trkpt>
      <trkpt lat="43.262668" lon="-2.874078">
        <ele>364</ele>
        <time>1970-01-01T00:47:49.000Z</time>
      </trkpt>
      <trkpt lat="43.262658" lon="-2.87402">
        <ele>364.6</ele>
        <time>1970-01-01T00:47:50.000Z</time>
      </trkpt>
      <trkpt lat="43.262645" lon="-2.873961">
        <ele>364.6</ele>
        <time>1970-01-01T00:47:51.000Z</time>
      </trkpt>
      <trkpt lat="43.262633" lon="-2.873903">
        <ele>364.6</ele>
        <time>1970-01-01T00:47:52.000Z</time>
      </trkpt>
      <trkpt lat="43.262613" lon="-2.87385">
        <ele>364.6</ele>
        <time>1970-01-01T00:47:53.000Z</time>
      </trkpt>
      <trkpt lat="43.262596" lon="-2.873793">
        <ele>364.8</ele>
        <time>1970-01-01T00:47:54.000Z</time>
      </trkpt>
      <trkpt lat="43.262575" lon="-2.87374">
        <ele>364.8</ele>
        <time>1970-01-01T00:47:55.000Z</time>
      </trkpt>
      <trkpt lat="43.262555" lon="-2.873683">
        <ele>364.8</ele>
        <time>1970-01-01T00:47:56.000Z</time>
      </trkpt>
      <trkpt lat="43.262528" lon="-2.873635">
        <ele>365.8</ele>
        <time>1970-01-01T00:47:57.000Z</time>
      </trkpt>
      <trkpt lat="43.262501" lon="-2.873591">
        <ele>365.4</ele>
        <time>1970-01-01T00:47:58.000Z</time>
      </trkpt>
      <trkpt lat="43.262471" lon="-2.873541">
        <ele>365.4</ele>
        <time>1970-01-01T00:47:59.000Z</time>
      </trkpt>
      <trkpt lat="43.262438" lon="-2.873493">
        <ele>365.4</ele>
        <time>1970-01-01T00:48:00.000Z</time>
      </trkpt>
      <trkpt lat="43.262406" lon="-2.873445">
        <ele>366</ele>
        <time>1970-01-01T00:48:01.000Z</time>
      </trkpt>
      <trkpt lat="43.262375" lon="-2.8734">
        <ele>366.4</ele>
        <time>1970-01-01T00:48:02.000Z</time>
      </trkpt>
      <trkpt lat="43.262345" lon="-2.873358">
        <ele>366.4</ele>
        <time>1970-01-01T00:48:03.000Z</time>
      </trkpt>
      <trkpt lat="43.262313" lon="-2.873318">
        <ele>366.4</ele>
        <time>1970-01-01T00:48:04.000Z</time>
      </trkpt>
      <trkpt lat="43.26228" lon="-2.87327">
        <ele>366.4</ele>
        <time>1970-01-01T00:48:05.000Z</time>
      </trkpt>
      <trkpt lat="43.26225" lon="-2.873221">
        <ele>366.6</ele>
        <time>1970-01-01T00:48:06.000Z</time>
      </trkpt>
      <trkpt lat="43.262218" lon="-2.873171">
        <ele>366.6</ele>
        <time>1970-01-01T00:48:07.000Z</time>
      </trkpt>
      <trkpt lat="43.262186" lon="-2.873123">
        <ele>366.6</ele>
        <time>1970-01-01T00:48:08.000Z</time>
      </trkpt>
      <trkpt lat="43.262156" lon="-2.873073">
        <ele>367.4</ele>
        <time>1970-01-01T00:48:09.000Z</time>
      </trkpt>
      <trkpt lat="43.262131" lon="-2.873023">
        <ele>367.2</ele>
        <time>1970-01-01T00:48:10.000Z</time>
      </trkpt>
      <trkpt lat="43.262111" lon="-2.872968">
        <ele>367.2</ele>
        <time>1970-01-01T00:48:11.000Z</time>
      </trkpt>
      <trkpt lat="43.262093" lon="-2.872913">
        <ele>367.2</ele>
        <time>1970-01-01T00:48:12.000Z</time>
      </trkpt>
      <trkpt lat="43.262076" lon="-2.872853">
        <ele>367.6</ele>
        <time>1970-01-01T00:48:13.000Z</time>
      </trkpt>
      <trkpt lat="43.262066" lon="-2.872793">
        <ele>368.2</ele>
        <time>1970-01-01T00:48:14.000Z</time>
      </trkpt>
      <trkpt lat="43.262066" lon="-2.872733">
        <ele>368.2</ele>
        <time>1970-01-01T00:48:15.000Z</time>
      </trkpt>
      <trkpt lat="43.262076" lon="-2.872671">
        <ele>368.2</ele>
        <time>1970-01-01T00:48:16.000Z</time>
      </trkpt>
      <trkpt lat="43.262095" lon="-2.87261">
        <ele>367.8</ele>
        <time>1970-01-01T00:48:17.000Z</time>
      </trkpt>
      <trkpt lat="43.262116" lon="-2.872555">
        <ele>367.8</ele>
        <time>1970-01-01T00:48:18.000Z</time>
      </trkpt>
      <trkpt lat="43.26214" lon="-2.872498">
        <ele>367.8</ele>
        <time>1970-01-01T00:48:19.000Z</time>
      </trkpt>
      <trkpt lat="43.262168" lon="-2.872446">
        <ele>367.8</ele>
        <time>1970-01-01T00:48:20.000Z</time>
      </trkpt>
      <trkpt lat="43.262196" lon="-2.872396">
        <ele>367.8</ele>
        <time>1970-01-01T00:48:21.000Z</time>
      </trkpt>
      <trkpt lat="43.262225" lon="-2.872343">
        <ele>368.6</ele>
        <time>1970-01-01T00:48:22.000Z</time>
      </trkpt>
      <trkpt lat="43.262246" lon="-2.872293">
        <ele>368.6</ele>
        <time>1970-01-01T00:48:23.000Z</time>
      </trkpt>
      <trkpt lat="43.262271" lon="-2.872245">
        <ele>368.6</ele>
        <time>1970-01-01T00:48:24.000Z</time>
      </trkpt>
      <trkpt lat="43.2623" lon="-2.872195">
        <ele>368.6</ele>
        <time>1970-01-01T00:48:25.000Z</time>
      </trkpt>
      <trkpt lat="43.262326" lon="-2.872141">
        <ele>368.8</ele>
        <time>1970-01-01T00:48:26.000Z</time>
      </trkpt>
      <trkpt lat="43.262348" lon="-2.872088">
        <ele>368.8</ele>
        <time>1970-01-01T00:48:27.000Z</time>
      </trkpt>
      <trkpt lat="43.262363" lon="-2.872031">
        <ele>368.8</ele>
        <time>1970-01-01T00:48:28.000Z</time>
      </trkpt>
      <trkpt lat="43.262378" lon="-2.871981">
        <ele>368.8</ele>
        <time>1970-01-01T00:48:29.000Z</time>
      </trkpt>
      <trkpt lat="43.26239" lon="-2.871921">
        <ele>369</ele>
        <time>1970-01-01T00:48:30.000Z</time>
      </trkpt>
      <trkpt lat="43.262408" lon="-2.87186">
        <ele>369</ele>
        <time>1970-01-01T00:48:31.000Z</time>
      </trkpt>
      <trkpt lat="43.262421" lon="-2.871793">
        <ele>369</ele>
        <time>1970-01-01T00:48:32.000Z</time>
      </trkpt>
      <trkpt lat="43.262433" lon="-2.87173">
        <ele>369.2</ele>
        <time>1970-01-01T00:48:33.000Z</time>
      </trkpt>
      <trkpt lat="43.26244" lon="-2.871668">
        <ele>369</ele>
        <time>1970-01-01T00:48:34.000Z</time>
      </trkpt>
      <trkpt lat="43.262445" lon="-2.871603">
        <ele>369</ele>
        <time>1970-01-01T00:48:35.000Z</time>
      </trkpt>
      <trkpt lat="43.26245" lon="-2.87154">
        <ele>369</ele>
        <time>1970-01-01T00:48:36.000Z</time>
      </trkpt>
      <trkpt lat="43.262448" lon="-2.871473">
        <ele>369.6</ele>
        <time>1970-01-01T00:48:37.000Z</time>
      </trkpt>
      <trkpt lat="43.26244" lon="-2.871413">
        <ele>369</ele>
        <time>1970-01-01T00:48:38.000Z</time>
      </trkpt>
      <trkpt lat="43.262418" lon="-2.871348">
        <ele>369</ele>
        <time>1970-01-01T00:48:39.000Z</time>
      </trkpt>
      <trkpt lat="43.262393" lon="-2.871288">
        <ele>369</ele>
        <time>1970-01-01T00:48:40.000Z</time>
      </trkpt>
      <trkpt lat="43.262365" lon="-2.871238">
        <ele>369.4</ele>
        <time>1970-01-01T00:48:41.000Z</time>
      </trkpt>
      <trkpt lat="43.262331" lon="-2.871195">
        <ele>369.4</ele>
        <time>1970-01-01T00:48:42.000Z</time>
      </trkpt>
      <trkpt lat="43.262295" lon="-2.871155">
        <ele>369.4</ele>
        <time>1970-01-01T00:48:43.000Z</time>
      </trkpt>
      <trkpt lat="43.26227" lon="-2.871118">
        <ele>369.4</ele>
        <time>1970-01-01T00:48:44.000Z</time>
      </trkpt>
      <trkpt lat="43.262238" lon="-2.871095">
        <ele>369.4</ele>
        <time>1970-01-01T00:48:45.000Z</time>
      </trkpt>
      <trkpt lat="43.262203" lon="-2.87108">
        <ele>369.6</ele>
        <time>1970-01-01T00:48:46.000Z</time>
      </trkpt>
      <trkpt lat="43.26217" lon="-2.871055">
        <ele>369.6</ele>
        <time>1970-01-01T00:48:47.000Z</time>
      </trkpt>
      <trkpt lat="43.262126" lon="-2.871033">
        <ele>369.6</ele>
        <time>1970-01-01T00:48:48.000Z</time>
      </trkpt>
      <trkpt lat="43.262083" lon="-2.871011">
        <ele>369.6</ele>
        <time>1970-01-01T00:48:49.000Z</time>
      </trkpt>
      <trkpt lat="43.262041" lon="-2.870985">
        <ele>370.2</ele>
        <time>1970-01-01T00:48:50.000Z</time>
      </trkpt>
      <trkpt lat="43.262" lon="-2.87095">
        <ele>370.2</ele>
        <time>1970-01-01T00:48:51.000Z</time>
      </trkpt>
      <trkpt lat="43.26196" lon="-2.87092">
        <ele>370.2</ele>
        <time>1970-01-01T00:48:52.000Z</time>
      </trkpt>
      <trkpt lat="43.261921" lon="-2.870876">
        <ele>370.2</ele>
        <time>1970-01-01T00:48:53.000Z</time>
      </trkpt>
      <trkpt lat="43.261883" lon="-2.870845">
        <ele>370.2</ele>
        <time>1970-01-01T00:48:54.000Z</time>
      </trkpt>
      <trkpt lat="43.261848" lon="-2.8708">
        <ele>370.2</ele>
        <time>1970-01-01T00:48:55.000Z</time>
      </trkpt>
      <trkpt lat="43.261813" lon="-2.870746">
        <ele>370.2</ele>
        <time>1970-01-01T00:48:56.000Z</time>
      </trkpt>
      <trkpt lat="43.261781" lon="-2.870693">
        <ele>370.4</ele>
        <time>1970-01-01T00:48:57.000Z</time>
      </trkpt>
      <trkpt lat="43.261748" lon="-2.870631">
        <ele>370.6</ele>
        <time>1970-01-01T00:48:58.000Z</time>
      </trkpt>
      <trkpt lat="43.261721" lon="-2.870568">
        <ele>370.6</ele>
        <time>1970-01-01T00:48:59.000Z</time>
      </trkpt>
      <trkpt lat="43.261696" lon="-2.870508">
        <ele>370.6</ele>
        <time>1970-01-01T00:49:00.000Z</time>
      </trkpt>
      <trkpt lat="43.261676" lon="-2.870453">
        <ele>371.4</ele>
        <time>1970-01-01T00:49:01.000Z</time>
      </trkpt>
      <trkpt lat="43.261646" lon="-2.870398">
        <ele>371.2</ele>
        <time>1970-01-01T00:49:02.000Z</time>
      </trkpt>
      <trkpt lat="43.261621" lon="-2.87034">
        <ele>371.2</ele>
        <time>1970-01-01T00:49:03.000Z</time>
      </trkpt>
      <trkpt lat="43.261598" lon="-2.87028">
        <ele>371.2</ele>
        <time>1970-01-01T00:49:04.000Z</time>
      </trkpt>
      <trkpt lat="43.261575" lon="-2.870223">
        <ele>372.2</ele>
        <time>1970-01-01T00:49:05.000Z</time>
      </trkpt>
      <trkpt lat="43.261548" lon="-2.87017">
        <ele>372.4</ele>
        <time>1970-01-01T00:49:06.000Z</time>
      </trkpt>
      <trkpt lat="43.261518" lon="-2.870113">
        <ele>372.4</ele>
        <time>1970-01-01T00:49:07.000Z</time>
      </trkpt>
      <trkpt lat="43.261486" lon="-2.870061">
        <ele>372.4</ele>
        <time>1970-01-01T00:49:08.000Z</time>
      </trkpt>
      <trkpt lat="43.261461" lon="-2.870006">
        <ele>372.4</ele>
        <time>1970-01-01T00:49:09.000Z</time>
      </trkpt>
      <trkpt lat="43.261433" lon="-2.869963">
        <ele>373.8</ele>
        <time>1970-01-01T00:49:10.000Z</time>
      </trkpt>
      <trkpt lat="43.261405" lon="-2.869921">
        <ele>373.8</ele>
        <time>1970-01-01T00:49:11.000Z</time>
      </trkpt>
      <trkpt lat="43.261373" lon="-2.869883">
        <ele>373.8</ele>
        <time>1970-01-01T00:49:12.000Z</time>
      </trkpt>
      <trkpt lat="43.261348" lon="-2.869846">
        <ele>374.8</ele>
        <time>1970-01-01T00:49:13.000Z</time>
      </trkpt>
      <trkpt lat="43.261316" lon="-2.869798">
        <ele>374.2</ele>
        <time>1970-01-01T00:49:14.000Z</time>
      </trkpt>
      <trkpt lat="43.26129" lon="-2.869755">
        <ele>374.2</ele>
        <time>1970-01-01T00:49:15.000Z</time>
      </trkpt>
      <trkpt lat="43.261261" lon="-2.869706">
        <ele>374.2</ele>
        <time>1970-01-01T00:49:16.000Z</time>
      </trkpt>
      <trkpt lat="43.261231" lon="-2.869668">
        <ele>374.2</ele>
        <time>1970-01-01T00:49:17.000Z</time>
      </trkpt>
      <trkpt lat="43.261196" lon="-2.869628">
        <ele>376.2</ele>
        <time>1970-01-01T00:49:18.000Z</time>
      </trkpt>
      <trkpt lat="43.261166" lon="-2.86959">
        <ele>376.2</ele>
        <time>1970-01-01T00:49:19.000Z</time>
      </trkpt>
      <trkpt lat="43.261135" lon="-2.869553">
        <ele>376.2</ele>
        <time>1970-01-01T00:49:20.000Z</time>
      </trkpt>
      <trkpt lat="43.261106" lon="-2.869516">
        <ele>377</ele>
        <time>1970-01-01T00:49:21.000Z</time>
      </trkpt>
      <trkpt lat="43.261081" lon="-2.869473">
        <ele>377</ele>
        <time>1970-01-01T00:49:22.000Z</time>
      </trkpt>
      <trkpt lat="43.261053" lon="-2.869433">
        <ele>377</ele>
        <time>1970-01-01T00:49:23.000Z</time>
      </trkpt>
      <trkpt lat="43.261021" lon="-2.869396">
        <ele>377</ele>
        <time>1970-01-01T00:49:24.000Z</time>
      </trkpt>
      <trkpt lat="43.260991" lon="-2.86936">
        <ele>378</ele>
        <time>1970-01-01T00:49:25.000Z</time>
      </trkpt>
      <trkpt lat="43.260961" lon="-2.86932">
        <ele>378.2</ele>
        <time>1970-01-01T00:49:26.000Z</time>
      </trkpt>
      <trkpt lat="43.260933" lon="-2.869283">
        <ele>378.2</ele>
        <time>1970-01-01T00:49:27.000Z</time>
      </trkpt>
      <trkpt lat="43.260901" lon="-2.869245">
        <ele>378.2</ele>
        <time>1970-01-01T00:49:28.000Z</time>
      </trkpt>
      <trkpt lat="43.260875" lon="-2.869216">
        <ele>378.2</ele>
        <time>1970-01-01T00:49:29.000Z</time>
      </trkpt>
      <trkpt lat="43.26085" lon="-2.869178">
        <ele>379</ele>
        <time>1970-01-01T00:49:30.000Z</time>
      </trkpt>
      <trkpt lat="43.260821" lon="-2.869135">
        <ele>379</ele>
        <time>1970-01-01T00:49:31.000Z</time>
      </trkpt>
      <trkpt lat="43.260793" lon="-2.869101">
        <ele>379</ele>
        <time>1970-01-01T00:49:32.000Z</time>
      </trkpt>
      <trkpt lat="43.26077" lon="-2.869055">
        <ele>379.8</ele>
        <time>1970-01-01T00:49:33.000Z</time>
      </trkpt>
      <trkpt lat="43.26074" lon="-2.86902">
        <ele>379.6</ele>
        <time>1970-01-01T00:49:34.000Z</time>
      </trkpt>
      <trkpt lat="43.26071" lon="-2.868988">
        <ele>379.6</ele>
        <time>1970-01-01T00:49:35.000Z</time>
      </trkpt>
      <trkpt lat="43.260685" lon="-2.868953">
        <ele>379.6</ele>
        <time>1970-01-01T00:49:36.000Z</time>
      </trkpt>
      <trkpt lat="43.260666" lon="-2.868915">
        <ele>380.2</ele>
        <time>1970-01-01T00:49:37.000Z</time>
      </trkpt>
      <trkpt lat="43.26064" lon="-2.868871">
        <ele>381</ele>
        <time>1970-01-01T00:49:38.000Z</time>
      </trkpt>
      <trkpt lat="43.260608" lon="-2.868835">
        <ele>381</ele>
        <time>1970-01-01T00:49:39.000Z</time>
      </trkpt>
      <trkpt lat="43.260578" lon="-2.868803">
        <ele>381</ele>
        <time>1970-01-01T00:49:40.000Z</time>
      </trkpt>
      <trkpt lat="43.260546" lon="-2.868766">
        <ele>381</ele>
        <time>1970-01-01T00:49:41.000Z</time>
      </trkpt>
      <trkpt lat="43.26052" lon="-2.86873">
        <ele>382.2</ele>
        <time>1970-01-01T00:49:42.000Z</time>
      </trkpt>
      <trkpt lat="43.260488" lon="-2.868695">
        <ele>382.2</ele>
        <time>1970-01-01T00:49:43.000Z</time>
      </trkpt>
      <trkpt lat="43.260456" lon="-2.868661">
        <ele>382.2</ele>
        <time>1970-01-01T00:49:44.000Z</time>
      </trkpt>
      <trkpt lat="43.260423" lon="-2.868628">
        <ele>382.2</ele>
        <time>1970-01-01T00:49:45.000Z</time>
      </trkpt>
      <trkpt lat="43.2604" lon="-2.868593">
        <ele>383</ele>
        <time>1970-01-01T00:49:46.000Z</time>
      </trkpt>
      <trkpt lat="43.260368" lon="-2.868568">
        <ele>383</ele>
        <time>1970-01-01T00:49:47.000Z</time>
      </trkpt>
      <trkpt lat="43.260331" lon="-2.86854">
        <ele>383</ele>
        <time>1970-01-01T00:49:48.000Z</time>
      </trkpt>
      <trkpt lat="43.260295" lon="-2.868523">
        <ele>383.6</ele>
        <time>1970-01-01T00:49:49.000Z</time>
      </trkpt>
      <trkpt lat="43.260255" lon="-2.868506">
        <ele>384</ele>
        <time>1970-01-01T00:49:50.000Z</time>
      </trkpt>
      <trkpt lat="43.260215" lon="-2.868486">
        <ele>384</ele>
        <time>1970-01-01T00:49:51.000Z</time>
      </trkpt>
      <trkpt lat="43.260176" lon="-2.868473">
        <ele>384</ele>
        <time>1970-01-01T00:49:52.000Z</time>
      </trkpt>
      <trkpt lat="43.260136" lon="-2.868458">
        <ele>384</ele>
        <time>1970-01-01T00:49:53.000Z</time>
      </trkpt>
      <trkpt lat="43.260096" lon="-2.868441">
        <ele>384.8</ele>
        <time>1970-01-01T00:49:54.000Z</time>
      </trkpt>
      <trkpt lat="43.260058" lon="-2.868426">
        <ele>384.8</ele>
        <time>1970-01-01T00:49:55.000Z</time>
      </trkpt>
      <trkpt lat="43.26002" lon="-2.86841">
        <ele>384.8</ele>
        <time>1970-01-01T00:49:56.000Z</time>
      </trkpt>
      <trkpt lat="43.259983" lon="-2.868395">
        <ele>385.6</ele>
        <time>1970-01-01T00:49:57.000Z</time>
      </trkpt>
      <trkpt lat="43.259946" lon="-2.868383">
        <ele>385.6</ele>
        <time>1970-01-01T00:49:58.000Z</time>
      </trkpt>
      <trkpt lat="43.259906" lon="-2.868371">
        <ele>385.6</ele>
        <time>1970-01-01T00:49:59.000Z</time>
      </trkpt>
      <trkpt lat="43.259868" lon="-2.868353">
        <ele>385.6</ele>
        <time>1970-01-01T00:50:00.000Z</time>
      </trkpt>
      <trkpt lat="43.259831" lon="-2.868338">
        <ele>386</ele>
        <time>1970-01-01T00:50:01.000Z</time>
      </trkpt>
      <trkpt lat="43.259795" lon="-2.868328">
        <ele>386.2</ele>
        <time>1970-01-01T00:50:02.000Z</time>
      </trkpt>
      <trkpt lat="43.259755" lon="-2.868316">
        <ele>386.2</ele>
        <time>1970-01-01T00:50:03.000Z</time>
      </trkpt>
      <trkpt lat="43.259715" lon="-2.868303">
        <ele>386.2</ele>
        <time>1970-01-01T00:50:04.000Z</time>
      </trkpt>
      <trkpt lat="43.259678" lon="-2.868298">
        <ele>387</ele>
        <time>1970-01-01T00:50:05.000Z</time>
      </trkpt>
      <trkpt lat="43.259636" lon="-2.868288">
        <ele>387.2</ele>
        <time>1970-01-01T00:50:06.000Z</time>
      </trkpt>
      <trkpt lat="43.259593" lon="-2.86827">
        <ele>387.2</ele>
        <time>1970-01-01T00:50:07.000Z</time>
      </trkpt>
      <trkpt lat="43.25955" lon="-2.86826">
        <ele>387.2</ele>
        <time>1970-01-01T00:50:08.000Z</time>
      </trkpt>
      <trkpt lat="43.259511" lon="-2.86825">
        <ele>388</ele>
        <time>1970-01-01T00:50:09.000Z</time>
      </trkpt>
      <trkpt lat="43.259471" lon="-2.868243">
        <ele>388.4</ele>
        <time>1970-01-01T00:50:10.000Z</time>
      </trkpt>
      <trkpt lat="43.259436" lon="-2.868233">
        <ele>388.4</ele>
        <time>1970-01-01T00:50:11.000Z</time>
      </trkpt>
      <trkpt lat="43.259403" lon="-2.868221">
        <ele>388.4</ele>
        <time>1970-01-01T00:50:12.000Z</time>
      </trkpt>
      <trkpt lat="43.259365" lon="-2.868206">
        <ele>388.4</ele>
        <time>1970-01-01T00:50:13.000Z</time>
      </trkpt>
      <trkpt lat="43.259326" lon="-2.868193">
        <ele>388.4</ele>
        <time>1970-01-01T00:50:14.000Z</time>
      </trkpt>
      <trkpt lat="43.25929" lon="-2.868175">
        <ele>389.2</ele>
        <time>1970-01-01T00:50:15.000Z</time>
      </trkpt>
      <trkpt lat="43.259255" lon="-2.868156">
        <ele>389.2</ele>
        <time>1970-01-01T00:50:16.000Z</time>
      </trkpt>
      <trkpt lat="43.259218" lon="-2.868146">
        <ele>389.8</ele>
        <time>1970-01-01T00:50:17.000Z</time>
      </trkpt>
      <trkpt lat="43.259181" lon="-2.868138">
        <ele>390.2</ele>
        <time>1970-01-01T00:50:18.000Z</time>
      </trkpt>
      <trkpt lat="43.259146" lon="-2.86813">
        <ele>390.2</ele>
        <time>1970-01-01T00:50:19.000Z</time>
      </trkpt>
      <trkpt lat="43.259108" lon="-2.868121">
        <ele>390.2</ele>
        <time>1970-01-01T00:50:20.000Z</time>
      </trkpt>
      <trkpt lat="43.259066" lon="-2.868116">
        <ele>390.2</ele>
        <time>1970-01-01T00:50:21.000Z</time>
      </trkpt>
      <trkpt lat="43.259025" lon="-2.868106">
        <ele>390.6</ele>
        <time>1970-01-01T00:50:22.000Z</time>
      </trkpt>
      <trkpt lat="43.258985" lon="-2.868095">
        <ele>390.6</ele>
        <time>1970-01-01T00:50:23.000Z</time>
      </trkpt>
      <trkpt lat="43.258945" lon="-2.86808">
        <ele>390.6</ele>
        <time>1970-01-01T00:50:24.000Z</time>
      </trkpt>
      <trkpt lat="43.258901" lon="-2.868065">
        <ele>391.6</ele>
        <time>1970-01-01T00:50:25.000Z</time>
      </trkpt>
      <trkpt lat="43.25886" lon="-2.86804">
        <ele>391.8</ele>
        <time>1970-01-01T00:50:26.000Z</time>
      </trkpt>
      <trkpt lat="43.258818" lon="-2.868013">
        <ele>391.8</ele>
        <time>1970-01-01T00:50:27.000Z</time>
      </trkpt>
      <trkpt lat="43.258776" lon="-2.867986">
        <ele>391.8</ele>
        <time>1970-01-01T00:50:28.000Z</time>
      </trkpt>
      <trkpt lat="43.258738" lon="-2.867958">
        <ele>391.8</ele>
        <time>1970-01-01T00:50:29.000Z</time>
      </trkpt>
      <trkpt lat="43.258705" lon="-2.86792">
        <ele>392.4</ele>
        <time>1970-01-01T00:50:30.000Z</time>
      </trkpt>
      <trkpt lat="43.258676" lon="-2.867878">
        <ele>392.4</ele>
        <time>1970-01-01T00:50:31.000Z</time>
      </trkpt>
      <trkpt lat="43.258653" lon="-2.86783">
        <ele>392.4</ele>
        <time>1970-01-01T00:50:32.000Z</time>
      </trkpt>
      <trkpt lat="43.258636" lon="-2.867773">
        <ele>392.4</ele>
        <time>1970-01-01T00:50:33.000Z</time>
      </trkpt>
      <trkpt lat="43.258625" lon="-2.867711">
        <ele>392</ele>
        <time>1970-01-01T00:50:34.000Z</time>
      </trkpt>
      <trkpt lat="43.258608" lon="-2.867645">
        <ele>392</ele>
        <time>1970-01-01T00:50:35.000Z</time>
      </trkpt>
      <trkpt lat="43.258591" lon="-2.867576">
        <ele>392</ele>
        <time>1970-01-01T00:50:36.000Z</time>
      </trkpt>
      <trkpt lat="43.258575" lon="-2.86751">
        <ele>392.2</ele>
        <time>1970-01-01T00:50:37.000Z</time>
      </trkpt>
      <trkpt lat="43.258556" lon="-2.867443">
        <ele>392</ele>
        <time>1970-01-01T00:50:38.000Z</time>
      </trkpt>
      <trkpt lat="43.258533" lon="-2.867378">
        <ele>392</ele>
        <time>1970-01-01T00:50:39.000Z</time>
      </trkpt>
      <trkpt lat="43.258511" lon="-2.867313">
        <ele>392</ele>
        <time>1970-01-01T00:50:40.000Z</time>
      </trkpt>
      <trkpt lat="43.258483" lon="-2.867245">
        <ele>392</ele>
        <time>1970-01-01T00:50:41.000Z</time>
      </trkpt>
      <trkpt lat="43.258456" lon="-2.86718">
        <ele>392.4</ele>
        <time>1970-01-01T00:50:42.000Z</time>
      </trkpt>
      <trkpt lat="43.25843" lon="-2.867115">
        <ele>392.4</ele>
        <time>1970-01-01T00:50:43.000Z</time>
      </trkpt>
      <trkpt lat="43.258401" lon="-2.867051">
        <ele>392.4</ele>
        <time>1970-01-01T00:50:44.000Z</time>
      </trkpt>
      <trkpt lat="43.258373" lon="-2.866986">
        <ele>392.4</ele>
        <time>1970-01-01T00:50:45.000Z</time>
      </trkpt>
      <trkpt lat="43.258345" lon="-2.866923">
        <ele>392.8</ele>
        <time>1970-01-01T00:50:46.000Z</time>
      </trkpt>
      <trkpt lat="43.258313" lon="-2.86686">
        <ele>392.8</ele>
        <time>1970-01-01T00:50:47.000Z</time>
      </trkpt>
      <trkpt lat="43.258281" lon="-2.866796">
        <ele>392.8</ele>
        <time>1970-01-01T00:50:48.000Z</time>
      </trkpt>
      <trkpt lat="43.258253" lon="-2.866735">
        <ele>393.4</ele>
        <time>1970-01-01T00:50:49.000Z</time>
      </trkpt>
      <trkpt lat="43.258223" lon="-2.86667">
        <ele>393.4</ele>
        <time>1970-01-01T00:50:50.000Z</time>
      </trkpt>
      <trkpt lat="43.258193" lon="-2.866605">
        <ele>393.4</ele>
        <time>1970-01-01T00:50:51.000Z</time>
      </trkpt>
      <trkpt lat="43.258165" lon="-2.866538">
        <ele>393.4</ele>
        <time>1970-01-01T00:50:52.000Z</time>
      </trkpt>
      <trkpt lat="43.258135" lon="-2.866473">
        <ele>393.4</ele>
        <time>1970-01-01T00:50:53.000Z</time>
      </trkpt>
      <trkpt lat="43.258105" lon="-2.866411">
        <ele>393.4</ele>
        <time>1970-01-01T00:50:54.000Z</time>
      </trkpt>
      <trkpt lat="43.25808" lon="-2.86635">
        <ele>393.4</ele>
        <time>1970-01-01T00:50:55.000Z</time>
      </trkpt>
      <trkpt lat="43.258053" lon="-2.86629">
        <ele>393.4</ele>
        <time>1970-01-01T00:50:56.000Z</time>
      </trkpt>
      <trkpt lat="43.258025" lon="-2.86623">
        <ele>394.2</ele>
        <time>1970-01-01T00:50:57.000Z</time>
      </trkpt>
      <trkpt lat="43.257998" lon="-2.866175">
        <ele>394.2</ele>
        <time>1970-01-01T00:50:58.000Z</time>
      </trkpt>
      <trkpt lat="43.257968" lon="-2.866125">
        <ele>394.2</ele>
        <time>1970-01-01T00:50:59.000Z</time>
      </trkpt>
      <trkpt lat="43.257938" lon="-2.866073">
        <ele>394.2</ele>
        <time>1970-01-01T00:51:00.000Z</time>
      </trkpt>
      <trkpt lat="43.25791" lon="-2.866021">
        <ele>395.2</ele>
        <time>1970-01-01T00:51:01.000Z</time>
      </trkpt>
      <trkpt lat="43.25788" lon="-2.865971">
        <ele>395.4</ele>
        <time>1970-01-01T00:51:02.000Z</time>
      </trkpt>
      <trkpt lat="43.25785" lon="-2.865925">
        <ele>395.4</ele>
        <time>1970-01-01T00:51:03.000Z</time>
      </trkpt>
      <trkpt lat="43.257818" lon="-2.865876">
        <ele>395.4</ele>
        <time>1970-01-01T00:51:04.000Z</time>
      </trkpt>
      <trkpt lat="43.25779" lon="-2.865826">
        <ele>396.2</ele>
        <time>1970-01-01T00:51:05.000Z</time>
      </trkpt>
      <trkpt lat="43.257758" lon="-2.865781">
        <ele>396.2</ele>
        <time>1970-01-01T00:51:06.000Z</time>
      </trkpt>
      <trkpt lat="43.257726" lon="-2.865735">
        <ele>396.2</ele>
        <time>1970-01-01T00:51:07.000Z</time>
      </trkpt>
      <trkpt lat="43.257693" lon="-2.865691">
        <ele>396.2</ele>
        <time>1970-01-01T00:51:08.000Z</time>
      </trkpt>
      <trkpt lat="43.257661" lon="-2.865648">
        <ele>397</ele>
        <time>1970-01-01T00:51:09.000Z</time>
      </trkpt>
      <trkpt lat="43.257628" lon="-2.865601">
        <ele>397.2</ele>
        <time>1970-01-01T00:51:10.000Z</time>
      </trkpt>
      <trkpt lat="43.257596" lon="-2.865555">
        <ele>397.2</ele>
        <time>1970-01-01T00:51:11.000Z</time>
      </trkpt>
      <trkpt lat="43.257565" lon="-2.865506">
        <ele>397.2</ele>
        <time>1970-01-01T00:51:12.000Z</time>
      </trkpt>
      <trkpt lat="43.257533" lon="-2.865458">
        <ele>398</ele>
        <time>1970-01-01T00:51:13.000Z</time>
      </trkpt>
      <trkpt lat="43.257501" lon="-2.865416">
        <ele>398</ele>
        <time>1970-01-01T00:51:14.000Z</time>
      </trkpt>
      <trkpt lat="43.257471" lon="-2.865373">
        <ele>398</ele>
        <time>1970-01-01T00:51:15.000Z</time>
      </trkpt>
      <trkpt lat="43.257441" lon="-2.865331">
        <ele>398</ele>
        <time>1970-01-01T00:51:16.000Z</time>
      </trkpt>
      <trkpt lat="43.257415" lon="-2.865286">
        <ele>398.6</ele>
        <time>1970-01-01T00:51:17.000Z</time>
      </trkpt>
      <trkpt lat="43.257385" lon="-2.865236">
        <ele>398.8</ele>
        <time>1970-01-01T00:51:18.000Z</time>
      </trkpt>
      <trkpt lat="43.257353" lon="-2.865196">
        <ele>398.8</ele>
        <time>1970-01-01T00:51:19.000Z</time>
      </trkpt>
      <trkpt lat="43.257321" lon="-2.865148">
        <ele>398.8</ele>
        <time>1970-01-01T00:51:20.000Z</time>
      </trkpt>
      <trkpt lat="43.257288" lon="-2.865105">
        <ele>399.6</ele>
        <time>1970-01-01T00:51:21.000Z</time>
      </trkpt>
      <trkpt lat="43.257256" lon="-2.865056">
        <ele>399.6</ele>
        <time>1970-01-01T00:51:22.000Z</time>
      </trkpt>
      <trkpt lat="43.257225" lon="-2.865005">
        <ele>399.6</ele>
        <time>1970-01-01T00:51:23.000Z</time>
      </trkpt>
      <trkpt lat="43.257196" lon="-2.864951">
        <ele>399.6</ele>
        <time>1970-01-01T00:51:24.000Z</time>
      </trkpt>
      <trkpt lat="43.257168" lon="-2.8649">
        <ele>400.6</ele>
        <time>1970-01-01T00:51:25.000Z</time>
      </trkpt>
      <trkpt lat="43.257143" lon="-2.864848">
        <ele>401.2</ele>
        <time>1970-01-01T00:51:26.000Z</time>
      </trkpt>
      <trkpt lat="43.257121" lon="-2.864796">
        <ele>401.2</ele>
        <time>1970-01-01T00:51:27.000Z</time>
      </trkpt>
      <trkpt lat="43.257105" lon="-2.864746">
        <ele>401.2</ele>
        <time>1970-01-01T00:51:28.000Z</time>
      </trkpt>
      <trkpt lat="43.257093" lon="-2.864698">
        <ele>401.2</ele>
        <time>1970-01-01T00:51:29.000Z</time>
      </trkpt>
      <trkpt lat="43.25708" lon="-2.864655">
        <ele>401.2</ele>
        <time>1970-01-01T00:51:30.000Z</time>
      </trkpt>
      <trkpt lat="43.257068" lon="-2.864616">
        <ele>401.2</ele>
        <time>1970-01-01T00:51:31.000Z</time>
      </trkpt>
      <trkpt lat="43.257055" lon="-2.86457">
        <ele>401.2</ele>
        <time>1970-01-01T00:51:32.000Z</time>
      </trkpt>
      <trkpt lat="43.257043" lon="-2.864518">
        <ele>401.2</ele>
        <time>1970-01-01T00:51:33.000Z</time>
      </trkpt>
      <trkpt lat="43.257035" lon="-2.864463">
        <ele>401.2</ele>
        <time>1970-01-01T00:51:34.000Z</time>
      </trkpt>
      <trkpt lat="43.257023" lon="-2.864403">
        <ele>401.2</ele>
        <time>1970-01-01T00:51:35.000Z</time>
      </trkpt>
      <trkpt lat="43.25701" lon="-2.864341">
        <ele>401.2</ele>
        <time>1970-01-01T00:51:36.000Z</time>
      </trkpt>
      <trkpt lat="43.257" lon="-2.864276">
        <ele>401.2</ele>
        <time>1970-01-01T00:51:37.000Z</time>
      </trkpt>
      <trkpt lat="43.256991" lon="-2.864211">
        <ele>400.4</ele>
        <time>1970-01-01T00:51:38.000Z</time>
      </trkpt>
      <trkpt lat="43.256985" lon="-2.864143">
        <ele>400.4</ele>
        <time>1970-01-01T00:51:39.000Z</time>
      </trkpt>
      <trkpt lat="43.256983" lon="-2.86407">
        <ele>400.4</ele>
        <time>1970-01-01T00:51:40.000Z</time>
      </trkpt>
      <trkpt lat="43.256981" lon="-2.863995">
        <ele>400.4</ele>
        <time>1970-01-01T00:51:41.000Z</time>
      </trkpt>
      <trkpt lat="43.256993" lon="-2.863913">
        <ele>399.6</ele>
        <time>1970-01-01T00:51:42.000Z</time>
      </trkpt>
      <trkpt lat="43.257003" lon="-2.863828">
        <ele>399.6</ele>
        <time>1970-01-01T00:51:43.000Z</time>
      </trkpt>
      <trkpt lat="43.257015" lon="-2.863738">
        <ele>399.6</ele>
        <time>1970-01-01T00:51:44.000Z</time>
      </trkpt>
      <trkpt lat="43.257035" lon="-2.86365">
        <ele>398.8</ele>
        <time>1970-01-01T00:51:45.000Z</time>
      </trkpt>
      <trkpt lat="43.25706" lon="-2.863563">
        <ele>398.4</ele>
        <time>1970-01-01T00:51:46.000Z</time>
      </trkpt>
      <trkpt lat="43.257093" lon="-2.863478">
        <ele>398.4</ele>
        <time>1970-01-01T00:51:47.000Z</time>
      </trkpt>
      <trkpt lat="43.257136" lon="-2.863396">
        <ele>398.4</ele>
        <time>1970-01-01T00:51:48.000Z</time>
      </trkpt>
      <trkpt lat="43.257185" lon="-2.863323">
        <ele>397.4</ele>
        <time>1970-01-01T00:51:49.000Z</time>
      </trkpt>
      <trkpt lat="43.257241" lon="-2.86326">
        <ele>396.6</ele>
        <time>1970-01-01T00:51:50.000Z</time>
      </trkpt>
      <trkpt lat="43.2573" lon="-2.863205">
        <ele>396.6</ele>
        <time>1970-01-01T00:51:51.000Z</time>
      </trkpt>
      <trkpt lat="43.257366" lon="-2.863158">
        <ele>396.6</ele>
        <time>1970-01-01T00:51:52.000Z</time>
      </trkpt>
      <trkpt lat="43.25743" lon="-2.863111">
        <ele>395.6</ele>
        <time>1970-01-01T00:51:53.000Z</time>
      </trkpt>
      <trkpt lat="43.257493" lon="-2.863063">
        <ele>395.4</ele>
        <time>1970-01-01T00:51:54.000Z</time>
      </trkpt>
      <trkpt lat="43.257548" lon="-2.863008">
        <ele>395.4</ele>
        <time>1970-01-01T00:51:55.000Z</time>
      </trkpt>
      <trkpt lat="43.25761" lon="-2.862946">
        <ele>395.4</ele>
        <time>1970-01-01T00:51:56.000Z</time>
      </trkpt>
      <trkpt lat="43.257661" lon="-2.862875">
        <ele>394.8</ele>
        <time>1970-01-01T00:51:57.000Z</time>
      </trkpt>
      <trkpt lat="43.257708" lon="-2.862795">
        <ele>394.4</ele>
        <time>1970-01-01T00:51:58.000Z</time>
      </trkpt>
      <trkpt lat="43.25774" lon="-2.862703">
        <ele>394.4</ele>
        <time>1970-01-01T00:51:59.000Z</time>
      </trkpt>
      <trkpt lat="43.257756" lon="-2.862606">
        <ele>394.4</ele>
        <time>1970-01-01T00:52:00.000Z</time>
      </trkpt>
      <trkpt lat="43.257756" lon="-2.86251">
        <ele>394</ele>
        <time>1970-01-01T00:52:01.000Z</time>
      </trkpt>
      <trkpt lat="43.257753" lon="-2.862411">
        <ele>394</ele>
        <time>1970-01-01T00:52:02.000Z</time>
      </trkpt>
      <trkpt lat="43.257746" lon="-2.862316">
        <ele>393.6</ele>
        <time>1970-01-01T00:52:03.000Z</time>
      </trkpt>
      <trkpt lat="43.25774" lon="-2.862221">
        <ele>393.6</ele>
        <time>1970-01-01T00:52:04.000Z</time>
      </trkpt>
      <trkpt lat="43.257738" lon="-2.862126">
        <ele>393.4</ele>
        <time>1970-01-01T00:52:05.000Z</time>
      </trkpt>
      <trkpt lat="43.257743" lon="-2.862033">
        <ele>393.4</ele>
        <time>1970-01-01T00:52:06.000Z</time>
      </trkpt>
      <trkpt lat="43.257751" lon="-2.861935">
        <ele>393.4</ele>
        <time>1970-01-01T00:52:07.000Z</time>
      </trkpt>
      <trkpt lat="43.257766" lon="-2.861838">
        <ele>393.4</ele>
        <time>1970-01-01T00:52:08.000Z</time>
      </trkpt>
      <trkpt lat="43.257781" lon="-2.861738">
        <ele>392.4</ele>
        <time>1970-01-01T00:52:09.000Z</time>
      </trkpt>
      <trkpt lat="43.257801" lon="-2.861643">
        <ele>392.2</ele>
        <time>1970-01-01T00:52:10.000Z</time>
      </trkpt>
      <trkpt lat="43.257831" lon="-2.861551">
        <ele>392.2</ele>
        <time>1970-01-01T00:52:11.000Z</time>
      </trkpt>
      <trkpt lat="43.257871" lon="-2.861466">
        <ele>392.2</ele>
        <time>1970-01-01T00:52:12.000Z</time>
      </trkpt>
      <trkpt lat="43.257911" lon="-2.861385">
        <ele>391.2</ele>
        <time>1970-01-01T00:52:13.000Z</time>
      </trkpt>
      <trkpt lat="43.257953" lon="-2.861303">
        <ele>391.4</ele>
        <time>1970-01-01T00:52:14.000Z</time>
      </trkpt>
      <trkpt lat="43.257993" lon="-2.861221">
        <ele>391.4</ele>
        <time>1970-01-01T00:52:15.000Z</time>
      </trkpt>
      <trkpt lat="43.258033" lon="-2.861136">
        <ele>391.4</ele>
        <time>1970-01-01T00:52:16.000Z</time>
      </trkpt>
      <trkpt lat="43.258073" lon="-2.861051">
        <ele>391</ele>
        <time>1970-01-01T00:52:17.000Z</time>
      </trkpt>
      <trkpt lat="43.258103" lon="-2.860965">
        <ele>390.6</ele>
        <time>1970-01-01T00:52:18.000Z</time>
      </trkpt>
      <trkpt lat="43.258138" lon="-2.860873">
        <ele>390.6</ele>
        <time>1970-01-01T00:52:19.000Z</time>
      </trkpt>
      <trkpt lat="43.25816" lon="-2.860773">
        <ele>390.6</ele>
        <time>1970-01-01T00:52:20.000Z</time>
      </trkpt>
      <trkpt lat="43.25818" lon="-2.860675">
        <ele>390.2</ele>
        <time>1970-01-01T00:52:21.000Z</time>
      </trkpt>
      <trkpt lat="43.258203" lon="-2.860575">
        <ele>390</ele>
        <time>1970-01-01T00:52:22.000Z</time>
      </trkpt>
      <trkpt lat="43.258225" lon="-2.860476">
        <ele>390</ele>
        <time>1970-01-01T00:52:23.000Z</time>
      </trkpt>
      <trkpt lat="43.258253" lon="-2.860381">
        <ele>390</ele>
        <time>1970-01-01T00:52:24.000Z</time>
      </trkpt>
      <trkpt lat="43.258283" lon="-2.860283">
        <ele>390</ele>
        <time>1970-01-01T00:52:25.000Z</time>
      </trkpt>
      <trkpt lat="43.25831" lon="-2.860183">
        <ele>390</ele>
        <time>1970-01-01T00:52:26.000Z</time>
      </trkpt>
      <trkpt lat="43.258315" lon="-2.860078">
        <ele>388.8</ele>
        <time>1970-01-01T00:52:27.000Z</time>
      </trkpt>
      <trkpt lat="43.25831" lon="-2.859971">
        <ele>388.8</ele>
        <time>1970-01-01T00:52:28.000Z</time>
      </trkpt>
      <trkpt lat="43.258286" lon="-2.859868">
        <ele>387.8</ele>
        <time>1970-01-01T00:52:29.000Z</time>
      </trkpt>
      <trkpt lat="43.258251" lon="-2.85977">
        <ele>387.4</ele>
        <time>1970-01-01T00:52:30.000Z</time>
      </trkpt>
      <trkpt lat="43.258213" lon="-2.859668">
        <ele>387.4</ele>
        <time>1970-01-01T00:52:31.000Z</time>
      </trkpt>
      <trkpt lat="43.258171" lon="-2.859563">
        <ele>387.4</ele>
        <time>1970-01-01T00:52:32.000Z</time>
      </trkpt>
      <trkpt lat="43.258128" lon="-2.859458">
        <ele>386.4</ele>
        <time>1970-01-01T00:52:33.000Z</time>
      </trkpt>
      <trkpt lat="43.258086" lon="-2.85935">
        <ele>386.4</ele>
        <time>1970-01-01T00:52:34.000Z</time>
      </trkpt>
      <trkpt lat="43.25805" lon="-2.859243">
        <ele>385.2</ele>
        <time>1970-01-01T00:52:35.000Z</time>
      </trkpt>
      <trkpt lat="43.258008" lon="-2.859128">
        <ele>385.2</ele>
        <time>1970-01-01T00:52:36.000Z</time>
      </trkpt>
      <trkpt lat="43.257961" lon="-2.859013">
        <ele>384.2</ele>
        <time>1970-01-01T00:52:37.000Z</time>
      </trkpt>
      <trkpt lat="43.257915" lon="-2.858898">
        <ele>382.8</ele>
        <time>1970-01-01T00:52:38.000Z</time>
      </trkpt>
      <trkpt lat="43.257868" lon="-2.858783">
        <ele>382.8</ele>
        <time>1970-01-01T00:52:39.000Z</time>
      </trkpt>
      <trkpt lat="43.257818" lon="-2.858666">
        <ele>382.8</ele>
        <time>1970-01-01T00:52:40.000Z</time>
      </trkpt>
      <trkpt lat="43.257773" lon="-2.85855">
        <ele>381.8</ele>
        <time>1970-01-01T00:52:41.000Z</time>
      </trkpt>
      <trkpt lat="43.257726" lon="-2.858435">
        <ele>380.6</ele>
        <time>1970-01-01T00:52:42.000Z</time>
      </trkpt>
      <trkpt lat="43.257686" lon="-2.858316">
        <ele>380.6</ele>
        <time>1970-01-01T00:52:43.000Z</time>
      </trkpt>
      <trkpt lat="43.25766" lon="-2.858193">
        <ele>380.6</ele>
        <time>1970-01-01T00:52:44.000Z</time>
      </trkpt>
      <trkpt lat="43.257633" lon="-2.85807">
        <ele>379.6</ele>
        <time>1970-01-01T00:52:45.000Z</time>
      </trkpt>
      <trkpt lat="43.257613" lon="-2.857946">
        <ele>379</ele>
        <time>1970-01-01T00:52:46.000Z</time>
      </trkpt>
      <trkpt lat="43.257588" lon="-2.857821">
        <ele>379</ele>
        <time>1970-01-01T00:52:47.000Z</time>
      </trkpt>
      <trkpt lat="43.257568" lon="-2.857696">
        <ele>379</ele>
        <time>1970-01-01T00:52:48.000Z</time>
      </trkpt>
      <trkpt lat="43.25755" lon="-2.857573">
        <ele>379</ele>
        <time>1970-01-01T00:52:49.000Z</time>
      </trkpt>
      <trkpt lat="43.257531" lon="-2.85745">
        <ele>377.6</ele>
        <time>1970-01-01T00:52:50.000Z</time>
      </trkpt>
      <trkpt lat="43.257511" lon="-2.857331">
        <ele>377.6</ele>
        <time>1970-01-01T00:52:51.000Z</time>
      </trkpt>
      <trkpt lat="43.257493" lon="-2.857213">
        <ele>377.6</ele>
        <time>1970-01-01T00:52:52.000Z</time>
      </trkpt>
      <trkpt lat="43.257476" lon="-2.857096">
        <ele>376.6</ele>
        <time>1970-01-01T00:52:53.000Z</time>
      </trkpt>
      <trkpt lat="43.25747" lon="-2.856978">
        <ele>376.4</ele>
        <time>1970-01-01T00:52:54.000Z</time>
      </trkpt>
      <trkpt lat="43.257481" lon="-2.856861">
        <ele>376.4</ele>
        <time>1970-01-01T00:52:55.000Z</time>
      </trkpt>
      <trkpt lat="43.257493" lon="-2.856751">
        <ele>376.4</ele>
        <time>1970-01-01T00:52:56.000Z</time>
      </trkpt>
      <trkpt lat="43.25753" lon="-2.856643">
        <ele>375.4</ele>
        <time>1970-01-01T00:52:57.000Z</time>
      </trkpt>
      <trkpt lat="43.257575" lon="-2.85654">
        <ele>375.2</ele>
        <time>1970-01-01T00:52:58.000Z</time>
      </trkpt>
      <trkpt lat="43.257618" lon="-2.856441">
        <ele>375.2</ele>
        <time>1970-01-01T00:52:59.000Z</time>
      </trkpt>
      <trkpt lat="43.257663" lon="-2.85634">
        <ele>375.2</ele>
        <time>1970-01-01T00:53:00.000Z</time>
      </trkpt>
      <trkpt lat="43.257698" lon="-2.856233">
        <ele>374.2</ele>
        <time>1970-01-01T00:53:01.000Z</time>
      </trkpt>
      <trkpt lat="43.25772" lon="-2.856118">
        <ele>373.2</ele>
        <time>1970-01-01T00:53:02.000Z</time>
      </trkpt>
      <trkpt lat="43.257726" lon="-2.856">
        <ele>373.2</ele>
        <time>1970-01-01T00:53:03.000Z</time>
      </trkpt>
      <trkpt lat="43.257721" lon="-2.855878">
        <ele>373.2</ele>
        <time>1970-01-01T00:53:04.000Z</time>
      </trkpt>
      <trkpt lat="43.257705" lon="-2.855758">
        <ele>372.2</ele>
        <time>1970-01-01T00:53:05.000Z</time>
      </trkpt>
      <trkpt lat="43.257678" lon="-2.85564">
        <ele>371.6</ele>
        <time>1970-01-01T00:53:06.000Z</time>
      </trkpt>
      <trkpt lat="43.25765" lon="-2.855523">
        <ele>371.6</ele>
        <time>1970-01-01T00:53:07.000Z</time>
      </trkpt>
      <trkpt lat="43.257618" lon="-2.855406">
        <ele>371.6</ele>
        <time>1970-01-01T00:53:08.000Z</time>
      </trkpt>
      <trkpt lat="43.25759" lon="-2.85529">
        <ele>370.6</ele>
        <time>1970-01-01T00:53:09.000Z</time>
      </trkpt>
      <trkpt lat="43.25756" lon="-2.85517">
        <ele>369.8</ele>
        <time>1970-01-01T00:53:10.000Z</time>
      </trkpt>
      <trkpt lat="43.257526" lon="-2.855051">
        <ele>369.8</ele>
        <time>1970-01-01T00:53:11.000Z</time>
      </trkpt>
      <trkpt lat="43.257491" lon="-2.854935">
        <ele>369.8</ele>
        <time>1970-01-01T00:53:12.000Z</time>
      </trkpt>
      <trkpt lat="43.25745" lon="-2.854818">
        <ele>368.8</ele>
        <time>1970-01-01T00:53:13.000Z</time>
      </trkpt>
      <trkpt lat="43.25741" lon="-2.854701">
        <ele>368.8</ele>
        <time>1970-01-01T00:53:14.000Z</time>
      </trkpt>
      <trkpt lat="43.257365" lon="-2.854588">
        <ele>368.2</ele>
        <time>1970-01-01T00:53:15.000Z</time>
      </trkpt>
      <trkpt lat="43.257325" lon="-2.854486">
        <ele>368.2</ele>
        <time>1970-01-01T00:53:16.000Z</time>
      </trkpt>
      <trkpt lat="43.25729" lon="-2.854395">
        <ele>367.2</ele>
        <time>1970-01-01T00:53:17.000Z</time>
      </trkpt>
      <trkpt lat="43.25726" lon="-2.854306">
        <ele>366.2</ele>
        <time>1970-01-01T00:53:18.000Z</time>
      </trkpt>
      <trkpt lat="43.257233" lon="-2.85421">
        <ele>366.2</ele>
        <time>1970-01-01T00:53:19.000Z</time>
      </trkpt>
      <trkpt lat="43.257215" lon="-2.854111">
        <ele>366.2</ele>
        <time>1970-01-01T00:53:20.000Z</time>
      </trkpt>
      <trkpt lat="43.257208" lon="-2.854011">
        <ele>366.2</ele>
        <time>1970-01-01T00:53:21.000Z</time>
      </trkpt>
      <trkpt lat="43.257208" lon="-2.853916">
        <ele>364</ele>
        <time>1970-01-01T00:53:22.000Z</time>
      </trkpt>
      <trkpt lat="43.257218" lon="-2.853833">
        <ele>364</ele>
        <time>1970-01-01T00:53:23.000Z</time>
      </trkpt>
      <trkpt lat="43.257228" lon="-2.853751">
        <ele>364</ele>
        <time>1970-01-01T00:53:24.000Z</time>
      </trkpt>
      <trkpt lat="43.257236" lon="-2.853673">
        <ele>363</ele>
        <time>1970-01-01T00:53:25.000Z</time>
      </trkpt>
      <trkpt lat="43.25725" lon="-2.853608">
        <ele>361.2</ele>
        <time>1970-01-01T00:53:26.000Z</time>
      </trkpt>
      <trkpt lat="43.257275" lon="-2.853548">
        <ele>361.2</ele>
        <time>1970-01-01T00:53:27.000Z</time>
      </trkpt>
      <trkpt lat="43.257315" lon="-2.853503">
        <ele>361.2</ele>
        <time>1970-01-01T00:53:28.000Z</time>
      </trkpt>
      <trkpt lat="43.257363" lon="-2.853465">
        <ele>361.2</ele>
        <time>1970-01-01T00:53:29.000Z</time>
      </trkpt>
      <trkpt lat="43.257408" lon="-2.85343">
        <ele>359.4</ele>
        <time>1970-01-01T00:53:30.000Z</time>
      </trkpt>
      <trkpt lat="43.257443" lon="-2.853385">
        <ele>359.4</ele>
        <time>1970-01-01T00:53:31.000Z</time>
      </trkpt>
      <trkpt lat="43.257463" lon="-2.85333">
        <ele>359.4</ele>
        <time>1970-01-01T00:53:32.000Z</time>
      </trkpt>
      <trkpt lat="43.25748" lon="-2.85327">
        <ele>359.6</ele>
        <time>1970-01-01T00:53:33.000Z</time>
      </trkpt>
      <trkpt lat="43.25749" lon="-2.853203">
        <ele>359.8</ele>
        <time>1970-01-01T00:53:34.000Z</time>
      </trkpt>
      <trkpt lat="43.2575" lon="-2.85313">
        <ele>359.8</ele>
        <time>1970-01-01T00:53:35.000Z</time>
      </trkpt>
      <trkpt lat="43.257506" lon="-2.85305">
        <ele>359.8</ele>
        <time>1970-01-01T00:53:36.000Z</time>
      </trkpt>
      <trkpt lat="43.257513" lon="-2.852961">
        <ele>358.8</ele>
        <time>1970-01-01T00:53:37.000Z</time>
      </trkpt>
      <trkpt lat="43.257523" lon="-2.852871">
        <ele>357.6</ele>
        <time>1970-01-01T00:53:38.000Z</time>
      </trkpt>
      <trkpt lat="43.257533" lon="-2.852788">
        <ele>357.6</ele>
        <time>1970-01-01T00:53:39.000Z</time>
      </trkpt>
      <trkpt lat="43.25755" lon="-2.852726">
        <ele>357.6</ele>
        <time>1970-01-01T00:53:40.000Z</time>
      </trkpt>
      <trkpt lat="43.257578" lon="-2.852686">
        <ele>356.6</ele>
        <time>1970-01-01T00:53:41.000Z</time>
      </trkpt>
      <trkpt lat="43.257615" lon="-2.852665">
        <ele>356</ele>
        <time>1970-01-01T00:53:42.000Z</time>
      </trkpt>
      <trkpt lat="43.257653" lon="-2.852655">
        <ele>356</ele>
        <time>1970-01-01T00:53:43.000Z</time>
      </trkpt>
      <trkpt lat="43.257688" lon="-2.852648">
        <ele>356</ele>
        <time>1970-01-01T00:53:44.000Z</time>
      </trkpt>
      <trkpt lat="43.257716" lon="-2.852633">
        <ele>356.6</ele>
        <time>1970-01-01T00:53:45.000Z</time>
      </trkpt>
      <trkpt lat="43.257738" lon="-2.852606">
        <ele>356.6</ele>
        <time>1970-01-01T00:53:46.000Z</time>
      </trkpt>
      <trkpt lat="43.257748" lon="-2.852576">
        <ele>356.6</ele>
        <time>1970-01-01T00:53:47.000Z</time>
      </trkpt>
      <trkpt lat="43.257746" lon="-2.852541">
        <ele>356.6</ele>
        <time>1970-01-01T00:53:48.000Z</time>
      </trkpt>
      <trkpt lat="43.257746" lon="-2.852495">
        <ele>356.6</ele>
        <time>1970-01-01T00:53:49.000Z</time>
      </trkpt>
      <trkpt lat="43.257751" lon="-2.852433">
        <ele>355.4</ele>
        <time>1970-01-01T00:53:50.000Z</time>
      </trkpt>
      <trkpt lat="43.25776" lon="-2.852368">
        <ele>355.4</ele>
        <time>1970-01-01T00:53:51.000Z</time>
      </trkpt>
      <trkpt lat="43.257763" lon="-2.852306">
        <ele>355.4</ele>
        <time>1970-01-01T00:53:52.000Z</time>
      </trkpt>
      <trkpt lat="43.25777" lon="-2.85225">
        <ele>354.6</ele>
        <time>1970-01-01T00:53:53.000Z</time>
      </trkpt>
      <trkpt lat="43.257763" lon="-2.852188">
        <ele>355</ele>
        <time>1970-01-01T00:53:54.000Z</time>
      </trkpt>
      <trkpt lat="43.257776" lon="-2.852123">
        <ele>355</ele>
        <time>1970-01-01T00:53:55.000Z</time>
      </trkpt>
      <trkpt lat="43.257781" lon="-2.852051">
        <ele>355</ele>
        <time>1970-01-01T00:53:56.000Z</time>
      </trkpt>
      <trkpt lat="43.25778" lon="-2.851981">
        <ele>354</ele>
        <time>1970-01-01T00:53:57.000Z</time>
      </trkpt>
      <trkpt lat="43.257773" lon="-2.851938">
        <ele>353.8</ele>
        <time>1970-01-01T00:53:58.000Z</time>
      </trkpt>
      <trkpt lat="43.257768" lon="-2.851913">
        <ele>353.8</ele>
        <time>1970-01-01T00:53:59.000Z</time>
      </trkpt>
      <trkpt lat="43.257765" lon="-2.851905">
        <ele>353.8</ele>
        <time>1970-01-01T00:54:00.000Z</time>
      </trkpt>
      <trkpt lat="43.257763" lon="-2.851895">
        <ele>353.8</ele>
        <time>1970-01-01T00:54:01.000Z</time>
      </trkpt>
      <trkpt lat="43.257758" lon="-2.851883">
        <ele>353.2</ele>
        <time>1970-01-01T00:54:02.000Z</time>
      </trkpt>
      <trkpt lat="43.257758" lon="-2.851883">
        <ele>353.2</ele>
        <time>1970-01-01T00:54:03.000Z</time>
      </trkpt>
      <trkpt lat="43.257758" lon="-2.851883">
        <ele>353.2</ele>
        <time>1970-01-01T00:54:04.000Z</time>
      </trkpt>
      <trkpt lat="43.25778" lon="-2.85169">
        <ele>353.6</ele>
        <time>1970-01-01T00:55:48.000Z</time>
      </trkpt>
      <trkpt lat="43.257805" lon="-2.851681">
        <ele>353.6</ele>
        <time>1970-01-01T00:55:49.000Z</time>
      </trkpt>
      <trkpt lat="43.257826" lon="-2.851663">
        <ele>353.6</ele>
        <time>1970-01-01T00:55:50.000Z</time>
      </trkpt>
      <trkpt lat="43.257851" lon="-2.851645">
        <ele>353.8</ele>
        <time>1970-01-01T00:55:51.000Z</time>
      </trkpt>
      <trkpt lat="43.257868" lon="-2.851613">
        <ele>353.8</ele>
        <time>1970-01-01T00:55:52.000Z</time>
      </trkpt>
      <trkpt lat="43.257878" lon="-2.851575">
        <ele>354.2</ele>
        <time>1970-01-01T00:55:53.000Z</time>
      </trkpt>
      <trkpt lat="43.25787" lon="-2.851541">
        <ele>354</ele>
        <time>1970-01-01T00:55:54.000Z</time>
      </trkpt>
      <trkpt lat="43.257851" lon="-2.85152">
        <ele>354</ele>
        <time>1970-01-01T00:55:55.000Z</time>
      </trkpt>
      <trkpt lat="43.25784" lon="-2.851495">
        <ele>354</ele>
        <time>1970-01-01T00:55:56.000Z</time>
      </trkpt>
      <trkpt lat="43.257826" lon="-2.851476">
        <ele>354</ele>
        <time>1970-01-01T00:55:57.000Z</time>
      </trkpt>
      <trkpt lat="43.25781" lon="-2.85145">
        <ele>354</ele>
        <time>1970-01-01T00:55:58.000Z</time>
      </trkpt>
      <trkpt lat="43.257785" lon="-2.851416">
        <ele>354</ele>
        <time>1970-01-01T00:55:59.000Z</time>
      </trkpt>
      <trkpt lat="43.257758" lon="-2.851381">
        <ele>354</ele>
        <time>1970-01-01T00:56:00.000Z</time>
      </trkpt>
      <trkpt lat="43.257725" lon="-2.851356">
        <ele>354</ele>
        <time>1970-01-01T00:56:01.000Z</time>
      </trkpt>
      <trkpt lat="43.257688" lon="-2.851315">
        <ele>354.6</ele>
        <time>1970-01-01T00:56:02.000Z</time>
      </trkpt>
      <trkpt lat="43.257655" lon="-2.851276">
        <ele>354.6</ele>
        <time>1970-01-01T00:56:03.000Z</time>
      </trkpt>
      <trkpt lat="43.257625" lon="-2.851245">
        <ele>354.6</ele>
        <time>1970-01-01T00:56:04.000Z</time>
      </trkpt>
      <trkpt lat="43.257595" lon="-2.851208">
        <ele>354.6</ele>
        <time>1970-01-01T00:56:05.000Z</time>
      </trkpt>
      <trkpt lat="43.257565" lon="-2.85117">
        <ele>354.6</ele>
        <time>1970-01-01T00:56:06.000Z</time>
      </trkpt>
      <trkpt lat="43.25753" lon="-2.85113">
        <ele>354.6</ele>
        <time>1970-01-01T00:56:07.000Z</time>
      </trkpt>
      <trkpt lat="43.257496" lon="-2.851093">
        <ele>354.6</ele>
        <time>1970-01-01T00:56:08.000Z</time>
      </trkpt>
      <trkpt lat="43.257463" lon="-2.851051">
        <ele>355</ele>
        <time>1970-01-01T00:56:09.000Z</time>
      </trkpt>
      <trkpt lat="43.25743" lon="-2.85101">
        <ele>355</ele>
        <time>1970-01-01T00:56:10.000Z</time>
      </trkpt>
      <trkpt lat="43.257398" lon="-2.850968">
        <ele>355.2</ele>
        <time>1970-01-01T00:56:11.000Z</time>
      </trkpt>
      <trkpt lat="43.257365" lon="-2.850928">
        <ele>355.2</ele>
        <time>1970-01-01T00:56:12.000Z</time>
      </trkpt>
      <trkpt lat="43.257331" lon="-2.850885">
        <ele>355.2</ele>
        <time>1970-01-01T00:56:13.000Z</time>
      </trkpt>
      <trkpt lat="43.257298" lon="-2.850846">
        <ele>355.4</ele>
        <time>1970-01-01T00:56:14.000Z</time>
      </trkpt>
      <trkpt lat="43.257268" lon="-2.850806">
        <ele>355.4</ele>
        <time>1970-01-01T00:56:15.000Z</time>
      </trkpt>
      <trkpt lat="43.257236" lon="-2.850768">
        <ele>355.4</ele>
        <time>1970-01-01T00:56:16.000Z</time>
      </trkpt>
      <trkpt lat="43.257206" lon="-2.850725">
        <ele>355.4</ele>
        <time>1970-01-01T00:56:17.000Z</time>
      </trkpt>
      <trkpt lat="43.257178" lon="-2.85068">
        <ele>355.6</ele>
        <time>1970-01-01T00:56:18.000Z</time>
      </trkpt>
      <trkpt lat="43.257161" lon="-2.850626">
        <ele>355.6</ele>
        <time>1970-01-01T00:56:19.000Z</time>
      </trkpt>
      <trkpt lat="43.257146" lon="-2.850575">
        <ele>355.6</ele>
        <time>1970-01-01T00:56:20.000Z</time>
      </trkpt>
      <trkpt lat="43.257136" lon="-2.850523">
        <ele>356.2</ele>
        <time>1970-01-01T00:56:21.000Z</time>
      </trkpt>
      <trkpt lat="43.257138" lon="-2.850476">
        <ele>357</ele>
        <time>1970-01-01T00:56:22.000Z</time>
      </trkpt>
      <trkpt lat="43.257123" lon="-2.850425">
        <ele>357</ele>
        <time>1970-01-01T00:56:23.000Z</time>
      </trkpt>
      <trkpt lat="43.257105" lon="-2.850378">
        <ele>357</ele>
        <time>1970-01-01T00:56:24.000Z</time>
      </trkpt>
      <trkpt lat="43.257081" lon="-2.850326">
        <ele>357</ele>
        <time>1970-01-01T00:56:25.000Z</time>
      </trkpt>
      <trkpt lat="43.257055" lon="-2.850281">
        <ele>357.6</ele>
        <time>1970-01-01T00:56:26.000Z</time>
      </trkpt>
      <trkpt lat="43.257028" lon="-2.850236">
        <ele>357.6</ele>
        <time>1970-01-01T00:56:27.000Z</time>
      </trkpt>
      <trkpt lat="43.257008" lon="-2.85019">
        <ele>357.6</ele>
        <time>1970-01-01T00:56:28.000Z</time>
      </trkpt>
      <trkpt lat="43.256993" lon="-2.850148">
        <ele>357.6</ele>
        <time>1970-01-01T00:56:29.000Z</time>
      </trkpt>
      <trkpt lat="43.256968" lon="-2.850121">
        <ele>358.2</ele>
        <time>1970-01-01T00:56:30.000Z</time>
      </trkpt>
      <trkpt lat="43.25696" lon="-2.850075">
        <ele>358.2</ele>
        <time>1970-01-01T00:56:31.000Z</time>
      </trkpt>
      <trkpt lat="43.256966" lon="-2.850025">
        <ele>358.2</ele>
        <time>1970-01-01T00:56:32.000Z</time>
      </trkpt>
      <trkpt lat="43.256973" lon="-2.849981">
        <ele>357.6</ele>
        <time>1970-01-01T00:56:33.000Z</time>
      </trkpt>
      <trkpt lat="43.256986" lon="-2.84993">
        <ele>356.6</ele>
        <time>1970-01-01T00:56:34.000Z</time>
      </trkpt>
      <trkpt lat="43.257005" lon="-2.849893">
        <ele>356.6</ele>
        <time>1970-01-01T00:56:35.000Z</time>
      </trkpt>
      <trkpt lat="43.257013" lon="-2.849833">
        <ele>356.6</ele>
        <time>1970-01-01T00:56:36.000Z</time>
      </trkpt>
      <trkpt lat="43.257021" lon="-2.849768">
        <ele>355.6</ele>
        <time>1970-01-01T00:56:37.000Z</time>
      </trkpt>
      <trkpt lat="43.257031" lon="-2.849711">
        <ele>354.4</ele>
        <time>1970-01-01T00:56:38.000Z</time>
      </trkpt>
      <trkpt lat="43.257033" lon="-2.849666">
        <ele>354.4</ele>
        <time>1970-01-01T00:56:39.000Z</time>
      </trkpt>
      <trkpt lat="43.257018" lon="-2.849618">
        <ele>354.4</ele>
        <time>1970-01-01T00:56:40.000Z</time>
      </trkpt>
      <trkpt lat="43.256998" lon="-2.84957">
        <ele>353.4</ele>
        <time>1970-01-01T00:56:41.000Z</time>
      </trkpt>
      <trkpt lat="43.256965" lon="-2.84953">
        <ele>353.4</ele>
        <time>1970-01-01T00:56:42.000Z</time>
      </trkpt>
      <trkpt lat="43.256933" lon="-2.849493">
        <ele>353.4</ele>
        <time>1970-01-01T00:56:43.000Z</time>
      </trkpt>
      <trkpt lat="43.256898" lon="-2.849473">
        <ele>353.4</ele>
        <time>1970-01-01T00:56:44.000Z</time>
      </trkpt>
      <trkpt lat="43.256866" lon="-2.849458">
        <ele>353.4</ele>
        <time>1970-01-01T00:56:45.000Z</time>
      </trkpt>
      <trkpt lat="43.256833" lon="-2.849443">
        <ele>354.4</ele>
        <time>1970-01-01T00:56:46.000Z</time>
      </trkpt>
      <trkpt lat="43.2568" lon="-2.849436">
        <ele>354.4</ele>
        <time>1970-01-01T00:56:47.000Z</time>
      </trkpt>
      <trkpt lat="43.256763" lon="-2.849423">
        <ele>354.4</ele>
        <time>1970-01-01T00:56:48.000Z</time>
      </trkpt>
      <trkpt lat="43.256731" lon="-2.849403">
        <ele>354</ele>
        <time>1970-01-01T00:56:49.000Z</time>
      </trkpt>
      <trkpt lat="43.256703" lon="-2.84938">
        <ele>354</ele>
        <time>1970-01-01T00:56:50.000Z</time>
      </trkpt>
      <trkpt lat="43.25668" lon="-2.849346">
        <ele>354.4</ele>
        <time>1970-01-01T00:56:51.000Z</time>
      </trkpt>
      <trkpt lat="43.256668" lon="-2.849305">
        <ele>354.4</ele>
        <time>1970-01-01T00:56:52.000Z</time>
      </trkpt>
      <trkpt lat="43.256666" lon="-2.849256">
        <ele>354.8</ele>
        <time>1970-01-01T00:56:53.000Z</time>
      </trkpt>
      <trkpt lat="43.256675" lon="-2.849203">
        <ele>354.8</ele>
        <time>1970-01-01T00:56:54.000Z</time>
      </trkpt>
      <trkpt lat="43.256691" lon="-2.849155">
        <ele>354.8</ele>
        <time>1970-01-01T00:56:55.000Z</time>
      </trkpt>
      <trkpt lat="43.256706" lon="-2.849108">
        <ele>354.8</ele>
        <time>1970-01-01T00:56:56.000Z</time>
      </trkpt>
      <trkpt lat="43.256723" lon="-2.849058">
        <ele>355.2</ele>
        <time>1970-01-01T00:56:57.000Z</time>
      </trkpt>
      <trkpt lat="43.256738" lon="-2.849008">
        <ele>355.4</ele>
        <time>1970-01-01T00:56:58.000Z</time>
      </trkpt>
      <trkpt lat="43.256748" lon="-2.848953">
        <ele>355.4</ele>
        <time>1970-01-01T00:56:59.000Z</time>
      </trkpt>
      <trkpt lat="43.256758" lon="-2.848895">
        <ele>355.4</ele>
        <time>1970-01-01T00:57:00.000Z</time>
      </trkpt>
      <trkpt lat="43.25677" lon="-2.848838">
        <ele>355.4</ele>
        <time>1970-01-01T00:57:01.000Z</time>
      </trkpt>
      <trkpt lat="43.256778" lon="-2.848785">
        <ele>355.8</ele>
        <time>1970-01-01T00:57:02.000Z</time>
      </trkpt>
      <trkpt lat="43.256783" lon="-2.848728">
        <ele>355.8</ele>
        <time>1970-01-01T00:57:03.000Z</time>
      </trkpt>
      <trkpt lat="43.256791" lon="-2.84867">
        <ele>355.8</ele>
        <time>1970-01-01T00:57:04.000Z</time>
      </trkpt>
      <trkpt lat="43.256798" lon="-2.848608">
        <ele>355.8</ele>
        <time>1970-01-01T00:57:05.000Z</time>
      </trkpt>
      <trkpt lat="43.256806" lon="-2.848546">
        <ele>355.6</ele>
        <time>1970-01-01T00:57:06.000Z</time>
      </trkpt>
      <trkpt lat="43.256813" lon="-2.84849">
        <ele>355.6</ele>
        <time>1970-01-01T00:57:07.000Z</time>
      </trkpt>
      <trkpt lat="43.256821" lon="-2.848438">
        <ele>355.6</ele>
        <time>1970-01-01T00:57:08.000Z</time>
      </trkpt>
      <trkpt lat="43.256825" lon="-2.848388">
        <ele>356.6</ele>
        <time>1970-01-01T00:57:09.000Z</time>
      </trkpt>
      <trkpt lat="43.256828" lon="-2.848343">
        <ele>357.2</ele>
        <time>1970-01-01T00:57:10.000Z</time>
      </trkpt>
      <trkpt lat="43.256831" lon="-2.8483">
        <ele>357.2</ele>
        <time>1970-01-01T00:57:11.000Z</time>
      </trkpt>
      <trkpt lat="43.256835" lon="-2.848258">
        <ele>357.2</ele>
        <time>1970-01-01T00:57:12.000Z</time>
      </trkpt>
      <trkpt lat="43.256845" lon="-2.84822">
        <ele>357.2</ele>
        <time>1970-01-01T00:57:13.000Z</time>
      </trkpt>
      <trkpt lat="43.256843" lon="-2.848188">
        <ele>357.2</ele>
        <time>1970-01-01T00:57:14.000Z</time>
      </trkpt>
      <trkpt lat="43.256848" lon="-2.848153">
        <ele>357.2</ele>
        <time>1970-01-01T00:57:15.000Z</time>
      </trkpt>
      <trkpt lat="43.256856" lon="-2.848113">
        <ele>357.2</ele>
        <time>1970-01-01T00:57:16.000Z</time>
      </trkpt>
      <trkpt lat="43.256863" lon="-2.848075">
        <ele>357.8</ele>
        <time>1970-01-01T00:57:17.000Z</time>
      </trkpt>
      <trkpt lat="43.256866" lon="-2.848036">
        <ele>359.4</ele>
        <time>1970-01-01T00:57:18.000Z</time>
      </trkpt>
      <trkpt lat="43.256871" lon="-2.848001">
        <ele>359.4</ele>
        <time>1970-01-01T00:57:19.000Z</time>
      </trkpt>
      <trkpt lat="43.256878" lon="-2.847966">
        <ele>359.4</ele>
        <time>1970-01-01T00:57:20.000Z</time>
      </trkpt>
      <trkpt lat="43.256886" lon="-2.847931">
        <ele>360.4</ele>
        <time>1970-01-01T00:57:21.000Z</time>
      </trkpt>
      <trkpt lat="43.256886" lon="-2.847901">
        <ele>360.8</ele>
        <time>1970-01-01T00:57:22.000Z</time>
      </trkpt>
      <trkpt lat="43.256893" lon="-2.847865">
        <ele>360.8</ele>
        <time>1970-01-01T00:57:23.000Z</time>
      </trkpt>
      <trkpt lat="43.256906" lon="-2.847835">
        <ele>360.8</ele>
        <time>1970-01-01T00:57:24.000Z</time>
      </trkpt>
      <trkpt lat="43.256923" lon="-2.847801">
        <ele>360.8</ele>
        <time>1970-01-01T00:57:25.000Z</time>
      </trkpt>
      <trkpt lat="43.256931" lon="-2.847761">
        <ele>362.4</ele>
        <time>1970-01-01T00:57:26.000Z</time>
      </trkpt>
      <trkpt lat="43.25694" lon="-2.847725">
        <ele>362.4</ele>
        <time>1970-01-01T00:57:27.000Z</time>
      </trkpt>
      <trkpt lat="43.256946" lon="-2.84769">
        <ele>362.4</ele>
        <time>1970-01-01T00:57:28.000Z</time>
      </trkpt>
      <trkpt lat="43.256955" lon="-2.847651">
        <ele>363.4</ele>
        <time>1970-01-01T00:57:29.000Z</time>
      </trkpt>
      <trkpt lat="43.256965" lon="-2.847606">
        <ele>363.8</ele>
        <time>1970-01-01T00:57:30.000Z</time>
      </trkpt>
      <trkpt lat="43.25697" lon="-2.84757">
        <ele>363.8</ele>
        <time>1970-01-01T00:57:31.000Z</time>
      </trkpt>
      <trkpt lat="43.25697" lon="-2.847538">
        <ele>363.8</ele>
        <time>1970-01-01T00:57:32.000Z</time>
      </trkpt>
      <trkpt lat="43.25697" lon="-2.847508">
        <ele>363.8</ele>
        <time>1970-01-01T00:57:33.000Z</time>
      </trkpt>
      <trkpt lat="43.25697" lon="-2.84747">
        <ele>365.2</ele>
        <time>1970-01-01T00:57:34.000Z</time>
      </trkpt>
      <trkpt lat="43.25697" lon="-2.847431">
        <ele>365.2</ele>
        <time>1970-01-01T00:57:35.000Z</time>
      </trkpt>
      <trkpt lat="43.25697" lon="-2.847393">
        <ele>365.2</ele>
        <time>1970-01-01T00:57:36.000Z</time>
      </trkpt>
      <trkpt lat="43.256963" lon="-2.847361">
        <ele>366.2</ele>
        <time>1970-01-01T00:57:37.000Z</time>
      </trkpt>
      <trkpt lat="43.256953" lon="-2.847325">
        <ele>366.6</ele>
        <time>1970-01-01T00:57:38.000Z</time>
      </trkpt>
      <trkpt lat="43.256941" lon="-2.847291">
        <ele>366.6</ele>
        <time>1970-01-01T00:57:39.000Z</time>
      </trkpt>
      <trkpt lat="43.256926" lon="-2.847251">
        <ele>366.6</ele>
        <time>1970-01-01T00:57:40.000Z</time>
      </trkpt>
      <trkpt lat="43.256906" lon="-2.84723">
        <ele>367.2</ele>
        <time>1970-01-01T00:57:41.000Z</time>
      </trkpt>
      <trkpt lat="43.256888" lon="-2.847208">
        <ele>368</ele>
        <time>1970-01-01T00:57:42.000Z</time>
      </trkpt>
      <trkpt lat="43.256858" lon="-2.847185">
        <ele>368</ele>
        <time>1970-01-01T00:57:43.000Z</time>
      </trkpt>
      <trkpt lat="43.256836" lon="-2.847165">
        <ele>368</ele>
        <time>1970-01-01T00:57:44.000Z</time>
      </trkpt>
      <trkpt lat="43.256815" lon="-2.847151">
        <ele>368.8</ele>
        <time>1970-01-01T00:57:45.000Z</time>
      </trkpt>
      <trkpt lat="43.25679" lon="-2.847135">
        <ele>369.2</ele>
        <time>1970-01-01T00:57:46.000Z</time>
      </trkpt>
      <trkpt lat="43.256768" lon="-2.847115">
        <ele>369.2</ele>
        <time>1970-01-01T00:57:47.000Z</time>
      </trkpt>
      <trkpt lat="43.256745" lon="-2.847093">
        <ele>369.2</ele>
        <time>1970-01-01T00:57:48.000Z</time>
      </trkpt>
      <trkpt lat="43.25672" lon="-2.847076">
        <ele>369.2</ele>
        <time>1970-01-01T00:57:49.000Z</time>
      </trkpt>
      <trkpt lat="43.256696" lon="-2.847063">
        <ele>369.2</ele>
        <time>1970-01-01T00:57:50.000Z</time>
      </trkpt>
      <trkpt lat="43.256678" lon="-2.847035">
        <ele>369.8</ele>
        <time>1970-01-01T00:57:51.000Z</time>
      </trkpt>
      <trkpt lat="43.256655" lon="-2.847001">
        <ele>369.8</ele>
        <time>1970-01-01T00:57:52.000Z</time>
      </trkpt>
      <trkpt lat="43.256635" lon="-2.846966">
        <ele>369.8</ele>
        <time>1970-01-01T00:57:53.000Z</time>
      </trkpt>
      <trkpt lat="43.256615" lon="-2.846933">
        <ele>369.8</ele>
        <time>1970-01-01T00:57:54.000Z</time>
      </trkpt>
      <trkpt lat="43.256593" lon="-2.846903">
        <ele>369.8</ele>
        <time>1970-01-01T00:57:55.000Z</time>
      </trkpt>
      <trkpt lat="43.256571" lon="-2.846865">
        <ele>369.8</ele>
        <time>1970-01-01T00:57:56.000Z</time>
      </trkpt>
      <trkpt lat="43.256558" lon="-2.846821">
        <ele>370.8</ele>
        <time>1970-01-01T00:57:57.000Z</time>
      </trkpt>
      <trkpt lat="43.256548" lon="-2.846778">
        <ele>372</ele>
        <time>1970-01-01T00:57:58.000Z</time>
      </trkpt>
      <trkpt lat="43.256536" lon="-2.846733">
        <ele>372</ele>
        <time>1970-01-01T00:57:59.000Z</time>
      </trkpt>
      <trkpt lat="43.25653" lon="-2.846695">
        <ele>372</ele>
        <time>1970-01-01T00:58:00.000Z</time>
      </trkpt>
      <trkpt lat="43.256521" lon="-2.846653">
        <ele>372.4</ele>
        <time>1970-01-01T00:58:01.000Z</time>
      </trkpt>
      <trkpt lat="43.256516" lon="-2.84661">
        <ele>372.6</ele>
        <time>1970-01-01T00:58:02.000Z</time>
      </trkpt>
      <trkpt lat="43.256511" lon="-2.846568">
        <ele>372.6</ele>
        <time>1970-01-01T00:58:03.000Z</time>
      </trkpt>
      <trkpt lat="43.256501" lon="-2.846521">
        <ele>372.6</ele>
        <time>1970-01-01T00:58:04.000Z</time>
      </trkpt>
      <trkpt lat="43.256498" lon="-2.846478">
        <ele>373.2</ele>
        <time>1970-01-01T00:58:05.000Z</time>
      </trkpt>
      <trkpt lat="43.256493" lon="-2.846433">
        <ele>373.8</ele>
        <time>1970-01-01T00:58:06.000Z</time>
      </trkpt>
      <trkpt lat="43.256488" lon="-2.846391">
        <ele>373.8</ele>
        <time>1970-01-01T00:58:07.000Z</time>
      </trkpt>
      <trkpt lat="43.256485" lon="-2.84635">
        <ele>373.8</ele>
        <time>1970-01-01T00:58:08.000Z</time>
      </trkpt>
      <trkpt lat="43.25648" lon="-2.846315">
        <ele>373.8</ele>
        <time>1970-01-01T00:58:09.000Z</time>
      </trkpt>
      <trkpt lat="43.256471" lon="-2.846281">
        <ele>373.8</ele>
        <time>1970-01-01T00:58:10.000Z</time>
      </trkpt>
      <trkpt lat="43.25647" lon="-2.846243">
        <ele>375</ele>
        <time>1970-01-01T00:58:11.000Z</time>
      </trkpt>
      <trkpt lat="43.25647" lon="-2.846206">
        <ele>375</ele>
        <time>1970-01-01T00:58:12.000Z</time>
      </trkpt>
      <trkpt lat="43.25647" lon="-2.846168">
        <ele>376</ele>
        <time>1970-01-01T00:58:13.000Z</time>
      </trkpt>
      <trkpt lat="43.25647" lon="-2.84613">
        <ele>375.6</ele>
        <time>1970-01-01T00:58:14.000Z</time>
      </trkpt>
      <trkpt lat="43.256471" lon="-2.846095">
        <ele>375.6</ele>
        <time>1970-01-01T00:58:15.000Z</time>
      </trkpt>
      <trkpt lat="43.256478" lon="-2.846068">
        <ele>375.6</ele>
        <time>1970-01-01T00:58:16.000Z</time>
      </trkpt>
      <trkpt lat="43.256491" lon="-2.84604">
        <ele>376.6</ele>
        <time>1970-01-01T00:58:17.000Z</time>
      </trkpt>
      <trkpt lat="43.256508" lon="-2.846011">
        <ele>376</ele>
        <time>1970-01-01T00:58:18.000Z</time>
      </trkpt>
      <trkpt lat="43.25653" lon="-2.845975">
        <ele>376</ele>
        <time>1970-01-01T00:58:19.000Z</time>
      </trkpt>
      <trkpt lat="43.256553" lon="-2.845935">
        <ele>376</ele>
        <time>1970-01-01T00:58:20.000Z</time>
      </trkpt>
      <trkpt lat="43.256578" lon="-2.845891">
        <ele>376</ele>
        <time>1970-01-01T00:58:21.000Z</time>
      </trkpt>
      <trkpt lat="43.256603" lon="-2.845845">
        <ele>375</ele>
        <time>1970-01-01T00:58:22.000Z</time>
      </trkpt>
      <trkpt lat="43.25662" lon="-2.845796">
        <ele>375</ele>
        <time>1970-01-01T00:58:23.000Z</time>
      </trkpt>
      <trkpt lat="43.256643" lon="-2.845741">
        <ele>375</ele>
        <time>1970-01-01T00:58:24.000Z</time>
      </trkpt>
      <trkpt lat="43.256673" lon="-2.845685">
        <ele>375</ele>
        <time>1970-01-01T00:58:25.000Z</time>
      </trkpt>
      <trkpt lat="43.256701" lon="-2.845626">
        <ele>373.2</ele>
        <time>1970-01-01T00:58:26.000Z</time>
      </trkpt>
      <trkpt lat="43.256738" lon="-2.845561">
        <ele>373.2</ele>
        <time>1970-01-01T00:58:27.000Z</time>
      </trkpt>
      <trkpt lat="43.25677" lon="-2.845488">
        <ele>373.2</ele>
        <time>1970-01-01T00:58:28.000Z</time>
      </trkpt>
      <trkpt lat="43.256803" lon="-2.845405">
        <ele>373.2</ele>
        <time>1970-01-01T00:58:29.000Z</time>
      </trkpt>
      <trkpt lat="43.256838" lon="-2.845325">
        <ele>371</ele>
        <time>1970-01-01T00:58:30.000Z</time>
      </trkpt>
      <trkpt lat="43.25687" lon="-2.845253">
        <ele>371</ele>
        <time>1970-01-01T00:58:31.000Z</time>
      </trkpt>
      <trkpt lat="43.256895" lon="-2.845186">
        <ele>371</ele>
        <time>1970-01-01T00:58:32.000Z</time>
      </trkpt>
      <trkpt lat="43.256916" lon="-2.845118">
        <ele>370</ele>
        <time>1970-01-01T00:58:33.000Z</time>
      </trkpt>
      <trkpt lat="43.25695" lon="-2.845036">
        <ele>368.2</ele>
        <time>1970-01-01T00:58:34.000Z</time>
      </trkpt>
      <trkpt lat="43.256983" lon="-2.844946">
        <ele>368.2</ele>
        <time>1970-01-01T00:58:35.000Z</time>
      </trkpt>
      <trkpt lat="43.257023" lon="-2.844856">
        <ele>368.2</ele>
        <time>1970-01-01T00:58:36.000Z</time>
      </trkpt>
      <trkpt lat="43.257051" lon="-2.844765">
        <ele>367.2</ele>
        <time>1970-01-01T00:58:37.000Z</time>
      </trkpt>
      <trkpt lat="43.257063" lon="-2.84468">
        <ele>365</ele>
        <time>1970-01-01T00:58:38.000Z</time>
      </trkpt>
      <trkpt lat="43.257066" lon="-2.844598">
        <ele>365</ele>
        <time>1970-01-01T00:58:39.000Z</time>
      </trkpt>
      <trkpt lat="43.257055" lon="-2.844511">
        <ele>365</ele>
        <time>1970-01-01T00:58:40.000Z</time>
      </trkpt>
      <trkpt lat="43.25703" lon="-2.844435">
        <ele>364</ele>
        <time>1970-01-01T00:58:41.000Z</time>
      </trkpt>
      <trkpt lat="43.257003" lon="-2.844361">
        <ele>361.8</ele>
        <time>1970-01-01T00:58:42.000Z</time>
      </trkpt>
      <trkpt lat="43.256975" lon="-2.844295">
        <ele>361.8</ele>
        <time>1970-01-01T00:58:43.000Z</time>
      </trkpt>
      <trkpt lat="43.256948" lon="-2.84424">
        <ele>361.8</ele>
        <time>1970-01-01T00:58:44.000Z</time>
      </trkpt>
      <trkpt lat="43.256925" lon="-2.84418">
        <ele>360.8</ele>
        <time>1970-01-01T00:58:45.000Z</time>
      </trkpt>
      <trkpt lat="43.256898" lon="-2.844115">
        <ele>357.8</ele>
        <time>1970-01-01T00:58:46.000Z</time>
      </trkpt>
      <trkpt lat="43.25687" lon="-2.844036">
        <ele>357.8</ele>
        <time>1970-01-01T00:58:47.000Z</time>
      </trkpt>
      <trkpt lat="43.256851" lon="-2.843945">
        <ele>357.8</ele>
        <time>1970-01-01T00:58:48.000Z</time>
      </trkpt>
      <trkpt lat="43.256838" lon="-2.843848">
        <ele>356.8</ele>
        <time>1970-01-01T00:58:49.000Z</time>
      </trkpt>
      <trkpt lat="43.256821" lon="-2.843746">
        <ele>356.8</ele>
        <time>1970-01-01T00:58:50.000Z</time>
      </trkpt>
      <trkpt lat="43.256796" lon="-2.843643">
        <ele>354.8</ele>
        <time>1970-01-01T00:58:51.000Z</time>
      </trkpt>
      <trkpt lat="43.256763" lon="-2.843536">
        <ele>354.8</ele>
        <time>1970-01-01T00:58:52.000Z</time>
      </trkpt>
      <trkpt lat="43.25673" lon="-2.84343">
        <ele>353.8</ele>
        <time>1970-01-01T00:58:53.000Z</time>
      </trkpt>
      <trkpt lat="43.256701" lon="-2.843328">
        <ele>352.2</ele>
        <time>1970-01-01T00:58:54.000Z</time>
      </trkpt>
      <trkpt lat="43.256675" lon="-2.84323">
        <ele>352.2</ele>
        <time>1970-01-01T00:58:55.000Z</time>
      </trkpt>
      <trkpt lat="43.256656" lon="-2.84314">
        <ele>352.2</ele>
        <time>1970-01-01T00:58:56.000Z</time>
      </trkpt>
      <trkpt lat="43.256646" lon="-2.843051">
        <ele>352.2</ele>
        <time>1970-01-01T00:58:57.000Z</time>
      </trkpt>
      <trkpt lat="43.256638" lon="-2.84296">
        <ele>350.8</ele>
        <time>1970-01-01T00:58:58.000Z</time>
      </trkpt>
      <trkpt lat="43.256633" lon="-2.842863">
        <ele>350.8</ele>
        <time>1970-01-01T00:58:59.000Z</time>
      </trkpt>
      <trkpt lat="43.25663" lon="-2.84276">
        <ele>350.8</ele>
        <time>1970-01-01T00:59:00.000Z</time>
      </trkpt>
      <trkpt lat="43.256626" lon="-2.842648">
        <ele>349.8</ele>
        <time>1970-01-01T00:59:01.000Z</time>
      </trkpt>
      <trkpt lat="43.256621" lon="-2.842533">
        <ele>347.6</ele>
        <time>1970-01-01T00:59:02.000Z</time>
      </trkpt>
      <trkpt lat="43.256613" lon="-2.842403">
        <ele>347.6</ele>
        <time>1970-01-01T00:59:03.000Z</time>
      </trkpt>
      <trkpt lat="43.256601" lon="-2.842276">
        <ele>347.6</ele>
        <time>1970-01-01T00:59:04.000Z</time>
      </trkpt>
      <trkpt lat="43.256585" lon="-2.84216">
        <ele>346.6</ele>
        <time>1970-01-01T00:59:05.000Z</time>
      </trkpt>
      <trkpt lat="43.256561" lon="-2.842056">
        <ele>343</ele>
        <time>1970-01-01T00:59:06.000Z</time>
      </trkpt>
      <trkpt lat="43.256541" lon="-2.841973">
        <ele>343</ele>
        <time>1970-01-01T00:59:07.000Z</time>
      </trkpt>
      <trkpt lat="43.256525" lon="-2.841906">
        <ele>343</ele>
        <time>1970-01-01T00:59:08.000Z</time>
      </trkpt>
      <trkpt lat="43.25651" lon="-2.84184">
        <ele>342.4</ele>
        <time>1970-01-01T00:59:09.000Z</time>
      </trkpt>
      <trkpt lat="43.256495" lon="-2.841768">
        <ele>342.2</ele>
        <time>1970-01-01T00:59:10.000Z</time>
      </trkpt>
      <trkpt lat="43.256483" lon="-2.841688">
        <ele>342.2</ele>
        <time>1970-01-01T00:59:11.000Z</time>
      </trkpt>
      <trkpt lat="43.256476" lon="-2.841596">
        <ele>342.2</ele>
        <time>1970-01-01T00:59:12.000Z</time>
      </trkpt>
      <trkpt lat="43.256478" lon="-2.841491">
        <ele>341.2</ele>
        <time>1970-01-01T00:59:13.000Z</time>
      </trkpt>
      <trkpt lat="43.256486" lon="-2.841383">
        <ele>338.6</ele>
        <time>1970-01-01T00:59:14.000Z</time>
      </trkpt>
      <trkpt lat="43.256491" lon="-2.841275">
        <ele>338.6</ele>
        <time>1970-01-01T00:59:15.000Z</time>
      </trkpt>
      <trkpt lat="43.256498" lon="-2.841163">
        <ele>338.6</ele>
        <time>1970-01-01T00:59:16.000Z</time>
      </trkpt>
      <trkpt lat="43.256511" lon="-2.841045">
        <ele>337.6</ele>
        <time>1970-01-01T00:59:17.000Z</time>
      </trkpt>
      <trkpt lat="43.256528" lon="-2.84093">
        <ele>334.6</ele>
        <time>1970-01-01T00:59:18.000Z</time>
      </trkpt>
      <trkpt lat="43.256553" lon="-2.840823">
        <ele>334.6</ele>
        <time>1970-01-01T00:59:19.000Z</time>
      </trkpt>
      <trkpt lat="43.256585" lon="-2.840718">
        <ele>334.6</ele>
        <time>1970-01-01T00:59:20.000Z</time>
      </trkpt>
      <trkpt lat="43.256618" lon="-2.840625">
        <ele>333.6</ele>
        <time>1970-01-01T00:59:21.000Z</time>
      </trkpt>
      <trkpt lat="43.256643" lon="-2.84055">
        <ele>331.2</ele>
        <time>1970-01-01T00:59:22.000Z</time>
      </trkpt>
      <trkpt lat="43.256666" lon="-2.840485">
        <ele>331.2</ele>
        <time>1970-01-01T00:59:23.000Z</time>
      </trkpt>
      <trkpt lat="43.256698" lon="-2.840415">
        <ele>331.2</ele>
        <time>1970-01-01T00:59:24.000Z</time>
      </trkpt>
      <trkpt lat="43.256735" lon="-2.840348">
        <ele>330.2</ele>
        <time>1970-01-01T00:59:25.000Z</time>
      </trkpt>
      <trkpt lat="43.256786" lon="-2.840285">
        <ele>327.2</ele>
        <time>1970-01-01T00:59:26.000Z</time>
      </trkpt>
      <trkpt lat="43.256843" lon="-2.840223">
        <ele>327.2</ele>
        <time>1970-01-01T00:59:27.000Z</time>
      </trkpt>
      <trkpt lat="43.2569" lon="-2.840173">
        <ele>327.2</ele>
        <time>1970-01-01T00:59:28.000Z</time>
      </trkpt>
      <trkpt lat="43.256946" lon="-2.840131">
        <ele>326.2</ele>
        <time>1970-01-01T00:59:29.000Z</time>
      </trkpt>
      <trkpt lat="43.256986" lon="-2.840106">
        <ele>326.2</ele>
        <time>1970-01-01T00:59:30.000Z</time>
      </trkpt>
      <trkpt lat="43.257031" lon="-2.840088">
        <ele>324</ele>
        <time>1970-01-01T00:59:31.000Z</time>
      </trkpt>
      <trkpt lat="43.257088" lon="-2.840073">
        <ele>324</ele>
        <time>1970-01-01T00:59:32.000Z</time>
      </trkpt>
      <trkpt lat="43.257155" lon="-2.84005">
        <ele>324</ele>
        <time>1970-01-01T00:59:33.000Z</time>
      </trkpt>
      <trkpt lat="43.257225" lon="-2.840028">
        <ele>321.2</ele>
        <time>1970-01-01T00:59:34.000Z</time>
      </trkpt>
      <trkpt lat="43.25728" lon="-2.840003">
        <ele>321.2</ele>
        <time>1970-01-01T00:59:35.000Z</time>
      </trkpt>
      <trkpt lat="43.257325" lon="-2.83998">
        <ele>321.2</ele>
        <time>1970-01-01T00:59:36.000Z</time>
      </trkpt>
      <trkpt lat="43.257368" lon="-2.839946">
        <ele>321.2</ele>
        <time>1970-01-01T00:59:37.000Z</time>
      </trkpt>
      <trkpt lat="43.257406" lon="-2.839895">
        <ele>319.2</ele>
        <time>1970-01-01T00:59:38.000Z</time>
      </trkpt>
      <trkpt lat="43.257441" lon="-2.839828">
        <ele>319.2</ele>
        <time>1970-01-01T00:59:39.000Z</time>
      </trkpt>
      <trkpt lat="43.257466" lon="-2.839748">
        <ele>319.2</ele>
        <time>1970-01-01T00:59:40.000Z</time>
      </trkpt>
      <trkpt lat="43.25749" lon="-2.839658">
        <ele>318.2</ele>
        <time>1970-01-01T00:59:41.000Z</time>
      </trkpt>
      <trkpt lat="43.25751" lon="-2.839575">
        <ele>316.4</ele>
        <time>1970-01-01T00:59:42.000Z</time>
      </trkpt>
      <trkpt lat="43.25753" lon="-2.839503">
        <ele>316.4</ele>
        <time>1970-01-01T00:59:43.000Z</time>
      </trkpt>
      <trkpt lat="43.25756" lon="-2.839443">
        <ele>316.4</ele>
        <time>1970-01-01T00:59:44.000Z</time>
      </trkpt>
      <trkpt lat="43.257595" lon="-2.83938">
        <ele>315.4</ele>
        <time>1970-01-01T00:59:45.000Z</time>
      </trkpt>
      <trkpt lat="43.257636" lon="-2.839316">
        <ele>312.6</ele>
        <time>1970-01-01T00:59:46.000Z</time>
      </trkpt>
      <trkpt lat="43.257675" lon="-2.839258">
        <ele>312.6</ele>
        <time>1970-01-01T00:59:47.000Z</time>
      </trkpt>
      <trkpt lat="43.257713" lon="-2.83921">
        <ele>312.6</ele>
        <time>1970-01-01T00:59:48.000Z</time>
      </trkpt>
      <trkpt lat="43.257761" lon="-2.839163">
        <ele>312.2</ele>
        <time>1970-01-01T00:59:49.000Z</time>
      </trkpt>
      <trkpt lat="43.257803" lon="-2.839118">
        <ele>312.6</ele>
        <time>1970-01-01T00:59:50.000Z</time>
      </trkpt>
      <trkpt lat="43.257846" lon="-2.83908">
        <ele>312.6</ele>
        <time>1970-01-01T00:59:51.000Z</time>
      </trkpt>
      <trkpt lat="43.257875" lon="-2.83903">
        <ele>312.6</ele>
        <time>1970-01-01T00:59:52.000Z</time>
      </trkpt>
      <trkpt lat="43.257901" lon="-2.838961">
        <ele>312.6</ele>
        <time>1970-01-01T00:59:53.000Z</time>
      </trkpt>
      <trkpt lat="43.257918" lon="-2.838888">
        <ele>313</ele>
        <time>1970-01-01T00:59:54.000Z</time>
      </trkpt>
      <trkpt lat="43.257928" lon="-2.838813">
        <ele>313</ele>
        <time>1970-01-01T00:59:55.000Z</time>
      </trkpt>
      <trkpt lat="43.257935" lon="-2.838745">
        <ele>313</ele>
        <time>1970-01-01T00:59:56.000Z</time>
      </trkpt>
      <trkpt lat="43.257946" lon="-2.838681">
        <ele>312</ele>
        <time>1970-01-01T00:59:57.000Z</time>
      </trkpt>
      <trkpt lat="43.257958" lon="-2.838605">
        <ele>312.4</ele>
        <time>1970-01-01T00:59:58.000Z</time>
      </trkpt>
      <trkpt lat="43.257975" lon="-2.83853">
        <ele>312.4</ele>
        <time>1970-01-01T00:59:59.000Z</time>
      </trkpt>
      <trkpt lat="43.257978" lon="-2.838441">
        <ele>312.4</ele>
        <time>1970-01-01T01:00:00.000Z</time>
      </trkpt>
      <trkpt lat="43.257968" lon="-2.838353">
        <ele>312</ele>
        <time>1970-01-01T01:00:01.000Z</time>
      </trkpt>
      <trkpt lat="43.257963" lon="-2.838275">
        <ele>312.2</ele>
        <time>1970-01-01T01:00:02.000Z</time>
      </trkpt>
      <trkpt lat="43.257961" lon="-2.838191">
        <ele>312.2</ele>
        <time>1970-01-01T01:00:03.000Z</time>
      </trkpt>
      <trkpt lat="43.257955" lon="-2.83811">
        <ele>312.2</ele>
        <time>1970-01-01T01:00:04.000Z</time>
      </trkpt>
      <trkpt lat="43.257946" lon="-2.838028">
        <ele>312.2</ele>
        <time>1970-01-01T01:00:05.000Z</time>
      </trkpt>
      <trkpt lat="43.257935" lon="-2.837933">
        <ele>311.8</ele>
        <time>1970-01-01T01:00:06.000Z</time>
      </trkpt>
      <trkpt lat="43.25793" lon="-2.837836">
        <ele>311.8</ele>
        <time>1970-01-01T01:00:07.000Z</time>
      </trkpt>
      <trkpt lat="43.257928" lon="-2.837745">
        <ele>311.8</ele>
        <time>1970-01-01T01:00:08.000Z</time>
      </trkpt>
      <trkpt lat="43.257915" lon="-2.837665">
        <ele>311.4</ele>
        <time>1970-01-01T01:00:09.000Z</time>
      </trkpt>
      <trkpt lat="43.2579" lon="-2.837581">
        <ele>310.6</ele>
        <time>1970-01-01T01:00:10.000Z</time>
      </trkpt>
      <trkpt lat="43.25789" lon="-2.837491">
        <ele>310.6</ele>
        <time>1970-01-01T01:00:11.000Z</time>
      </trkpt>
      <trkpt lat="43.25788" lon="-2.837405">
        <ele>310.6</ele>
        <time>1970-01-01T01:00:12.000Z</time>
      </trkpt>
      <trkpt lat="43.257863" lon="-2.837318">
        <ele>311.2</ele>
        <time>1970-01-01T01:00:13.000Z</time>
      </trkpt>
      <trkpt lat="43.257843" lon="-2.837231">
        <ele>310.2</ele>
        <time>1970-01-01T01:00:14.000Z</time>
      </trkpt>
      <trkpt lat="43.257828" lon="-2.837143">
        <ele>310.2</ele>
        <time>1970-01-01T01:00:15.000Z</time>
      </trkpt>
      <trkpt lat="43.257808" lon="-2.837055">
        <ele>310.2</ele>
        <time>1970-01-01T01:00:16.000Z</time>
      </trkpt>
      <trkpt lat="43.257781" lon="-2.836975">
        <ele>310.6</ele>
        <time>1970-01-01T01:00:17.000Z</time>
      </trkpt>
      <trkpt lat="43.257756" lon="-2.836901">
        <ele>310.2</ele>
        <time>1970-01-01T01:00:18.000Z</time>
      </trkpt>
      <trkpt lat="43.257733" lon="-2.83683">
        <ele>310.2</ele>
        <time>1970-01-01T01:00:19.000Z</time>
      </trkpt>
      <trkpt lat="43.257715" lon="-2.836751">
        <ele>310.2</ele>
        <time>1970-01-01T01:00:20.000Z</time>
      </trkpt>
      <trkpt lat="43.257693" lon="-2.836678">
        <ele>310.2</ele>
        <time>1970-01-01T01:00:21.000Z</time>
      </trkpt>
      <trkpt lat="43.257675" lon="-2.83661">
        <ele>309.8</ele>
        <time>1970-01-01T01:00:22.000Z</time>
      </trkpt>
      <trkpt lat="43.257658" lon="-2.836555">
        <ele>309.8</ele>
        <time>1970-01-01T01:00:23.000Z</time>
      </trkpt>
      <trkpt lat="43.257648" lon="-2.836508">
        <ele>309.8</ele>
        <time>1970-01-01T01:00:24.000Z</time>
      </trkpt>
      <trkpt lat="43.25764" lon="-2.836471">
        <ele>310</ele>
        <time>1970-01-01T01:00:25.000Z</time>
      </trkpt>
      <trkpt lat="43.257644" lon="-2.836448">
        <ele>310.2</ele>
        <time>1970-01-01T01:00:26.000Z</time>
      </trkpt>
      <trkpt lat="43.257655" lon="-2.836455">
        <ele>310.2</ele>
        <time>1970-01-01T01:00:27.000Z</time>
      </trkpt>
      <trkpt lat="43.257665" lon="-2.836463">
        <ele>310.2</ele>
        <time>1970-01-01T01:00:28.000Z</time>
      </trkpt>
      <trkpt lat="43.257676" lon="-2.836471">
        <ele>310.2</ele>
        <time>1970-01-01T01:00:29.000Z</time>
      </trkpt>
      <trkpt lat="43.257687" lon="-2.836478">
        <ele>310</ele>
        <time>1970-01-01T01:00:48.000Z</time>
      </trkpt>
      <trkpt lat="43.257698" lon="-2.836486">
        <ele>309.8</ele>
        <time>1970-01-01T01:00:49.000Z</time>
      </trkpt>
      <trkpt lat="43.257725" lon="-2.836538">
        <ele>309.6</ele>
        <time>1970-01-01T01:00:50.000Z</time>
      </trkpt>
      <trkpt lat="43.257751" lon="-2.836593">
        <ele>309.6</ele>
        <time>1970-01-01T01:00:51.000Z</time>
      </trkpt>
      <trkpt lat="43.25778" lon="-2.836651">
        <ele>309.6</ele>
        <time>1970-01-01T01:00:52.000Z</time>
      </trkpt>
      <trkpt lat="43.257801" lon="-2.836703">
        <ele>309.6</ele>
        <time>1970-01-01T01:00:53.000Z</time>
      </trkpt>
      <trkpt lat="43.257818" lon="-2.836753">
        <ele>309.8</ele>
        <time>1970-01-01T01:00:54.000Z</time>
      </trkpt>
      <trkpt lat="43.25784" lon="-2.836778">
        <ele>309.8</ele>
        <time>1970-01-01T01:00:55.000Z</time>
      </trkpt>
      <trkpt lat="43.257865" lon="-2.836776">
        <ele>309.8</ele>
        <time>1970-01-01T01:00:56.000Z</time>
      </trkpt>
      <trkpt lat="43.257901" lon="-2.83675">
        <ele>309.8</ele>
        <time>1970-01-01T01:00:57.000Z</time>
      </trkpt>
      <trkpt lat="43.257946" lon="-2.83671">
        <ele>306</ele>
        <time>1970-01-01T01:00:58.000Z</time>
      </trkpt>
      <trkpt lat="43.258" lon="-2.83667">
        <ele>306</ele>
        <time>1970-01-01T01:00:59.000Z</time>
      </trkpt>
      <trkpt lat="43.258061" lon="-2.836626">
        <ele>306</ele>
        <time>1970-01-01T01:01:00.000Z</time>
      </trkpt>
      <trkpt lat="43.258116" lon="-2.836581">
        <ele>305</ele>
        <time>1970-01-01T01:01:01.000Z</time>
      </trkpt>
      <trkpt lat="43.258153" lon="-2.836548">
        <ele>303</ele>
        <time>1970-01-01T01:01:02.000Z</time>
      </trkpt>
      <trkpt lat="43.258213" lon="-2.836503">
        <ele>303</ele>
        <time>1970-01-01T01:01:03.000Z</time>
      </trkpt>
      <trkpt lat="43.258276" lon="-2.836473">
        <ele>303</ele>
        <time>1970-01-01T01:01:04.000Z</time>
      </trkpt>
      <trkpt lat="43.258333" lon="-2.836465">
        <ele>302</ele>
        <time>1970-01-01T01:01:05.000Z</time>
      </trkpt>
      <trkpt lat="43.258391" lon="-2.836465">
        <ele>298.2</ele>
        <time>1970-01-01T01:01:06.000Z</time>
      </trkpt>
      <trkpt lat="43.258463" lon="-2.836461">
        <ele>298.2</ele>
        <time>1970-01-01T01:01:07.000Z</time>
      </trkpt>
      <trkpt lat="43.258516" lon="-2.836448">
        <ele>298.2</ele>
        <time>1970-01-01T01:01:08.000Z</time>
      </trkpt>
      <trkpt lat="43.25857" lon="-2.836425">
        <ele>297.2</ele>
        <time>1970-01-01T01:01:09.000Z</time>
      </trkpt>
      <trkpt lat="43.25863" lon="-2.836385">
        <ele>294</ele>
        <time>1970-01-01T01:01:10.000Z</time>
      </trkpt>
      <trkpt lat="43.258691" lon="-2.83633">
        <ele>294</ele>
        <time>1970-01-01T01:01:11.000Z</time>
      </trkpt>
      <trkpt lat="43.258733" lon="-2.836268">
        <ele>294</ele>
        <time>1970-01-01T01:01:12.000Z</time>
      </trkpt>
      <trkpt lat="43.25875" lon="-2.836211">
        <ele>293</ele>
        <time>1970-01-01T01:01:13.000Z</time>
      </trkpt>
      <trkpt lat="43.258766" lon="-2.836153">
        <ele>293.2</ele>
        <time>1970-01-01T01:01:14.000Z</time>
      </trkpt>
      <trkpt lat="43.258773" lon="-2.836091">
        <ele>293.2</ele>
        <time>1970-01-01T01:01:15.000Z</time>
      </trkpt>
      <trkpt lat="43.258766" lon="-2.836026">
        <ele>293.2</ele>
        <time>1970-01-01T01:01:16.000Z</time>
      </trkpt>
      <trkpt lat="43.258758" lon="-2.835963">
        <ele>292.2</ele>
        <time>1970-01-01T01:01:17.000Z</time>
      </trkpt>
      <trkpt lat="43.258746" lon="-2.83591">
        <ele>291.2</ele>
        <time>1970-01-01T01:01:18.000Z</time>
      </trkpt>
      <trkpt lat="43.25872" lon="-2.83586">
        <ele>291.2</ele>
        <time>1970-01-01T01:01:19.000Z</time>
      </trkpt>
      <trkpt lat="43.258698" lon="-2.835805">
        <ele>291.2</ele>
        <time>1970-01-01T01:01:20.000Z</time>
      </trkpt>
      <trkpt lat="43.258678" lon="-2.835753">
        <ele>290.8</ele>
        <time>1970-01-01T01:01:21.000Z</time>
      </trkpt>
      <trkpt lat="43.258658" lon="-2.835703">
        <ele>290.6</ele>
        <time>1970-01-01T01:01:22.000Z</time>
      </trkpt>
      <trkpt lat="43.25864" lon="-2.835665">
        <ele>290.6</ele>
        <time>1970-01-01T01:01:23.000Z</time>
      </trkpt>
      <trkpt lat="43.258611" lon="-2.835621">
        <ele>290.6</ele>
        <time>1970-01-01T01:01:24.000Z</time>
      </trkpt>
      <trkpt lat="43.258578" lon="-2.835573">
        <ele>291</ele>
        <time>1970-01-01T01:01:25.000Z</time>
      </trkpt>
      <trkpt lat="43.25854" lon="-2.83553">
        <ele>291.2</ele>
        <time>1970-01-01T01:01:26.000Z</time>
      </trkpt>
      <trkpt lat="43.258508" lon="-2.83548">
        <ele>291.2</ele>
        <time>1970-01-01T01:01:27.000Z</time>
      </trkpt>
      <trkpt lat="43.258468" lon="-2.835445">
        <ele>291.2</ele>
        <time>1970-01-01T01:01:28.000Z</time>
      </trkpt>
      <trkpt lat="43.258433" lon="-2.835411">
        <ele>290.4</ele>
        <time>1970-01-01T01:01:29.000Z</time>
      </trkpt>
      <trkpt lat="43.258393" lon="-2.835363">
        <ele>289.4</ele>
        <time>1970-01-01T01:01:30.000Z</time>
      </trkpt>
      <trkpt lat="43.258351" lon="-2.83531">
        <ele>289.4</ele>
        <time>1970-01-01T01:01:31.000Z</time>
      </trkpt>
      <trkpt lat="43.258301" lon="-2.835253">
        <ele>289.4</ele>
        <time>1970-01-01T01:01:32.000Z</time>
      </trkpt>
      <trkpt lat="43.258258" lon="-2.835201">
        <ele>288.4</ele>
        <time>1970-01-01T01:01:33.000Z</time>
      </trkpt>
      <trkpt lat="43.258215" lon="-2.835148">
        <ele>287.8</ele>
        <time>1970-01-01T01:01:34.000Z</time>
      </trkpt>
      <trkpt lat="43.258175" lon="-2.835108">
        <ele>287.8</ele>
        <time>1970-01-01T01:01:35.000Z</time>
      </trkpt>
      <trkpt lat="43.258131" lon="-2.835045">
        <ele>287.8</ele>
        <time>1970-01-01T01:01:36.000Z</time>
      </trkpt>
      <trkpt lat="43.258093" lon="-2.835001">
        <ele>287.2</ele>
        <time>1970-01-01T01:01:37.000Z</time>
      </trkpt>
      <trkpt lat="43.258063" lon="-2.834968">
        <ele>286.8</ele>
        <time>1970-01-01T01:01:38.000Z</time>
      </trkpt>
      <trkpt lat="43.258053" lon="-2.834928">
        <ele>286.8</ele>
        <time>1970-01-01T01:01:39.000Z</time>
      </trkpt>
      <trkpt lat="43.258061" lon="-2.834883">
        <ele>286.8</ele>
        <time>1970-01-01T01:01:40.000Z</time>
      </trkpt>
      <trkpt lat="43.258085" lon="-2.834856">
        <ele>286.8</ele>
        <time>1970-01-01T01:01:41.000Z</time>
      </trkpt>
      <trkpt lat="43.258106" lon="-2.834856">
        <ele>286.2</ele>
        <time>1970-01-01T01:01:42.000Z</time>
      </trkpt>
      <trkpt lat="43.258136" lon="-2.834866">
        <ele>286.2</ele>
        <time>1970-01-01T01:01:43.000Z</time>
      </trkpt>
      <trkpt lat="43.258181" lon="-2.834881">
        <ele>286.2</ele>
        <time>1970-01-01T01:01:44.000Z</time>
      </trkpt>
      <trkpt lat="43.258238" lon="-2.834893">
        <ele>286.2</ele>
        <time>1970-01-01T01:01:45.000Z</time>
      </trkpt>
      <trkpt lat="43.258295" lon="-2.834913">
        <ele>284.8</ele>
        <time>1970-01-01T01:01:46.000Z</time>
      </trkpt>
      <trkpt lat="43.258345" lon="-2.834938">
        <ele>284.8</ele>
        <time>1970-01-01T01:01:47.000Z</time>
      </trkpt>
      <trkpt lat="43.258386" lon="-2.83497">
        <ele>284.8</ele>
        <time>1970-01-01T01:01:48.000Z</time>
      </trkpt>
      <trkpt lat="43.258421" lon="-2.835">
        <ele>284.8</ele>
        <time>1970-01-01T01:01:49.000Z</time>
      </trkpt>
      <trkpt lat="43.258476" lon="-2.835016">
        <ele>283.4</ele>
        <time>1970-01-01T01:01:50.000Z</time>
      </trkpt>
      <trkpt lat="43.25853" lon="-2.835026">
        <ele>283.4</ele>
        <time>1970-01-01T01:01:51.000Z</time>
      </trkpt>
      <trkpt lat="43.25859" lon="-2.83503">
        <ele>283.4</ele>
        <time>1970-01-01T01:01:52.000Z</time>
      </trkpt>
      <trkpt lat="43.258638" lon="-2.835041">
        <ele>283.4</ele>
        <time>1970-01-01T01:01:53.000Z</time>
      </trkpt>
      <trkpt lat="43.258698" lon="-2.835046">
        <ele>281.2</ele>
        <time>1970-01-01T01:01:54.000Z</time>
      </trkpt>
      <trkpt lat="43.258753" lon="-2.835055">
        <ele>281.2</ele>
        <time>1970-01-01T01:01:55.000Z</time>
      </trkpt>
      <trkpt lat="43.258805" lon="-2.835073">
        <ele>281.2</ele>
        <time>1970-01-01T01:01:56.000Z</time>
      </trkpt>
      <trkpt lat="43.258848" lon="-2.83508">
        <ele>280.2</ele>
        <time>1970-01-01T01:01:57.000Z</time>
      </trkpt>
      <trkpt lat="43.258893" lon="-2.835095">
        <ele>278.6</ele>
        <time>1970-01-01T01:01:58.000Z</time>
      </trkpt>
      <trkpt lat="43.258926" lon="-2.835121">
        <ele>278.6</ele>
        <time>1970-01-01T01:01:59.000Z</time>
      </trkpt>
      <trkpt lat="43.258956" lon="-2.835158">
        <ele>278.6</ele>
        <time>1970-01-01T01:02:00.000Z</time>
      </trkpt>
      <trkpt lat="43.258976" lon="-2.835193">
        <ele>279</ele>
        <time>1970-01-01T01:02:01.000Z</time>
      </trkpt>
      <trkpt lat="43.258996" lon="-2.835228">
        <ele>279</ele>
        <time>1970-01-01T01:02:02.000Z</time>
      </trkpt>
      <trkpt lat="43.259016" lon="-2.835258">
        <ele>279</ele>
        <time>1970-01-01T01:02:03.000Z</time>
      </trkpt>
      <trkpt lat="43.259033" lon="-2.835286">
        <ele>279</ele>
        <time>1970-01-01T01:02:04.000Z</time>
      </trkpt>
      <trkpt lat="43.259041" lon="-2.835318">
        <ele>279.6</ele>
        <time>1970-01-01T01:02:05.000Z</time>
      </trkpt>
      <trkpt lat="43.25906" lon="-2.83535">
        <ele>280.4</ele>
        <time>1970-01-01T01:02:06.000Z</time>
      </trkpt>
      <trkpt lat="43.25907" lon="-2.835378">
        <ele>280.4</ele>
        <time>1970-01-01T01:02:07.000Z</time>
      </trkpt>
      <trkpt lat="43.259078" lon="-2.835418">
        <ele>280.4</ele>
        <time>1970-01-01T01:02:08.000Z</time>
      </trkpt>
      <trkpt lat="43.259093" lon="-2.835456">
        <ele>280.4</ele>
        <time>1970-01-01T01:02:09.000Z</time>
      </trkpt>
      <trkpt lat="43.259106" lon="-2.835498">
        <ele>281.2</ele>
        <time>1970-01-01T01:02:10.000Z</time>
      </trkpt>
      <trkpt lat="43.259115" lon="-2.835528">
        <ele>281.2</ele>
        <time>1970-01-01T01:02:11.000Z</time>
      </trkpt>
      <trkpt lat="43.259125" lon="-2.835555">
        <ele>281.2</ele>
        <time>1970-01-01T01:02:12.000Z</time>
      </trkpt>
      <trkpt lat="43.259136" lon="-2.835601">
        <ele>282.2</ele>
        <time>1970-01-01T01:02:13.000Z</time>
      </trkpt>
      <trkpt lat="43.25915" lon="-2.835645">
        <ele>283</ele>
        <time>1970-01-01T01:02:14.000Z</time>
      </trkpt>
      <trkpt lat="43.25916" lon="-2.835676">
        <ele>283</ele>
        <time>1970-01-01T01:02:15.000Z</time>
      </trkpt>
      <trkpt lat="43.259166" lon="-2.835723">
        <ele>283</ele>
        <time>1970-01-01T01:02:16.000Z</time>
      </trkpt>
      <trkpt lat="43.259165" lon="-2.835778">
        <ele>282.6</ele>
        <time>1970-01-01T01:02:17.000Z</time>
      </trkpt>
      <trkpt lat="43.25918" lon="-2.835836">
        <ele>282.6</ele>
        <time>1970-01-01T01:02:18.000Z</time>
      </trkpt>
      <trkpt lat="43.259193" lon="-2.835883">
        <ele>282.6</ele>
        <time>1970-01-01T01:02:19.000Z</time>
      </trkpt>
      <trkpt lat="43.259203" lon="-2.835928">
        <ele>282.6</ele>
        <time>1970-01-01T01:02:20.000Z</time>
      </trkpt>
      <trkpt lat="43.259211" lon="-2.835976">
        <ele>282.2</ele>
        <time>1970-01-01T01:02:21.000Z</time>
      </trkpt>
      <trkpt lat="43.259216" lon="-2.83603">
        <ele>282.2</ele>
        <time>1970-01-01T01:02:22.000Z</time>
      </trkpt>
      <trkpt lat="43.259216" lon="-2.836088">
        <ele>282.2</ele>
        <time>1970-01-01T01:02:23.000Z</time>
      </trkpt>
      <trkpt lat="43.259215" lon="-2.836146">
        <ele>282.2</ele>
        <time>1970-01-01T01:02:24.000Z</time>
      </trkpt>
      <trkpt lat="43.259208" lon="-2.836211">
        <ele>282.2</ele>
        <time>1970-01-01T01:02:25.000Z</time>
      </trkpt>
      <trkpt lat="43.25921" lon="-2.83627">
        <ele>281.8</ele>
        <time>1970-01-01T01:02:26.000Z</time>
      </trkpt>
      <trkpt lat="43.259205" lon="-2.83633">
        <ele>281.8</ele>
        <time>1970-01-01T01:02:27.000Z</time>
      </trkpt>
      <trkpt lat="43.259193" lon="-2.836391">
        <ele>281.8</ele>
        <time>1970-01-01T01:02:28.000Z</time>
      </trkpt>
      <trkpt lat="43.25919" lon="-2.836441">
        <ele>281.8</ele>
        <time>1970-01-01T01:02:29.000Z</time>
      </trkpt>
      <trkpt lat="43.259175" lon="-2.836513">
        <ele>281.6</ele>
        <time>1970-01-01T01:02:30.000Z</time>
      </trkpt>
      <trkpt lat="43.25915" lon="-2.83658">
        <ele>281.6</ele>
        <time>1970-01-01T01:02:31.000Z</time>
      </trkpt>
      <trkpt lat="43.259118" lon="-2.836638">
        <ele>281.6</ele>
        <time>1970-01-01T01:02:32.000Z</time>
      </trkpt>
      <trkpt lat="43.25909" lon="-2.836698">
        <ele>281.6</ele>
        <time>1970-01-01T01:02:33.000Z</time>
      </trkpt>
      <trkpt lat="43.259058" lon="-2.836756">
        <ele>281.8</ele>
        <time>1970-01-01T01:02:34.000Z</time>
      </trkpt>
      <trkpt lat="43.259058" lon="-2.836813">
        <ele>281.8</ele>
        <time>1970-01-01T01:02:35.000Z</time>
      </trkpt>
      <trkpt lat="43.259048" lon="-2.836883">
        <ele>281.8</ele>
        <time>1970-01-01T01:02:36.000Z</time>
      </trkpt>
      <trkpt lat="43.259046" lon="-2.836961">
        <ele>280.8</ele>
        <time>1970-01-01T01:02:37.000Z</time>
      </trkpt>
      <trkpt lat="43.259036" lon="-2.837038">
        <ele>280.2</ele>
        <time>1970-01-01T01:02:38.000Z</time>
      </trkpt>
      <trkpt lat="43.259041" lon="-2.83712">
        <ele>280.2</ele>
        <time>1970-01-01T01:02:39.000Z</time>
      </trkpt>
      <trkpt lat="43.259038" lon="-2.83719">
        <ele>280.2</ele>
        <time>1970-01-01T01:02:40.000Z</time>
      </trkpt>
      <trkpt lat="43.259046" lon="-2.837268">
        <ele>280.2</ele>
        <time>1970-01-01T01:02:41.000Z</time>
      </trkpt>
      <trkpt lat="43.259043" lon="-2.837338">
        <ele>279.6</ele>
        <time>1970-01-01T01:02:42.000Z</time>
      </trkpt>
      <trkpt lat="43.259036" lon="-2.83741">
        <ele>279.6</ele>
        <time>1970-01-01T01:02:43.000Z</time>
      </trkpt>
      <trkpt lat="43.25904" lon="-2.837476">
        <ele>279.6</ele>
        <time>1970-01-01T01:02:44.000Z</time>
      </trkpt>
      <trkpt lat="43.259038" lon="-2.837541">
        <ele>280.4</ele>
        <time>1970-01-01T01:02:45.000Z</time>
      </trkpt>
      <trkpt lat="43.259038" lon="-2.8376">
        <ele>280.2</ele>
        <time>1970-01-01T01:02:46.000Z</time>
      </trkpt>
      <trkpt lat="43.259036" lon="-2.837661">
        <ele>280.2</ele>
        <time>1970-01-01T01:02:47.000Z</time>
      </trkpt>
      <trkpt lat="43.259031" lon="-2.837715">
        <ele>280.2</ele>
        <time>1970-01-01T01:02:48.000Z</time>
      </trkpt>
      <trkpt lat="43.259031" lon="-2.837763">
        <ele>280.2</ele>
        <time>1970-01-01T01:02:49.000Z</time>
      </trkpt>
      <trkpt lat="43.259036" lon="-2.837803">
        <ele>280.2</ele>
        <time>1970-01-01T01:02:50.000Z</time>
      </trkpt>
      <trkpt lat="43.25903" lon="-2.83785">
        <ele>280.2</ele>
        <time>1970-01-01T01:02:51.000Z</time>
      </trkpt>
      <trkpt lat="43.259028" lon="-2.8379">
        <ele>280.2</ele>
        <time>1970-01-01T01:02:52.000Z</time>
      </trkpt>
      <trkpt lat="43.259025" lon="-2.837936">
        <ele>280.2</ele>
        <time>1970-01-01T01:02:53.000Z</time>
      </trkpt>
      <trkpt lat="43.259028" lon="-2.83797">
        <ele>281</ele>
        <time>1970-01-01T01:02:54.000Z</time>
      </trkpt>
      <trkpt lat="43.259023" lon="-2.838008">
        <ele>281</ele>
        <time>1970-01-01T01:02:55.000Z</time>
      </trkpt>
      <trkpt lat="43.259025" lon="-2.83802">
        <ele>281</ele>
        <time>1970-01-01T01:02:56.000Z</time>
      </trkpt>
      <trkpt lat="43.259025" lon="-2.83802">
        <ele>281</ele>
        <time>1970-01-01T01:02:57.000Z</time>
      </trkpt>
      <trkpt lat="43.25905" lon="-2.838156">
        <ele>281.2</ele>
        <time>1970-01-01T01:03:15.000Z</time>
      </trkpt>
      <trkpt lat="43.259056" lon="-2.838201">
        <ele>281.2</ele>
        <time>1970-01-01T01:03:16.000Z</time>
      </trkpt>
      <trkpt lat="43.259061" lon="-2.838248">
        <ele>281.2</ele>
        <time>1970-01-01T01:03:17.000Z</time>
      </trkpt>
      <trkpt lat="43.259065" lon="-2.838315">
        <ele>281.2</ele>
        <time>1970-01-01T01:03:18.000Z</time>
      </trkpt>
      <trkpt lat="43.259071" lon="-2.838373">
        <ele>281.2</ele>
        <time>1970-01-01T01:03:19.000Z</time>
      </trkpt>
      <trkpt lat="43.259086" lon="-2.838436">
        <ele>281.2</ele>
        <time>1970-01-01T01:03:20.000Z</time>
      </trkpt>
      <trkpt lat="43.25909" lon="-2.838496">
        <ele>281.2</ele>
        <time>1970-01-01T01:03:21.000Z</time>
      </trkpt>
      <trkpt lat="43.259095" lon="-2.838546">
        <ele>280.6</ele>
        <time>1970-01-01T01:03:22.000Z</time>
      </trkpt>
      <trkpt lat="43.259103" lon="-2.83859">
        <ele>280.6</ele>
        <time>1970-01-01T01:03:23.000Z</time>
      </trkpt>
      <trkpt lat="43.259111" lon="-2.838636">
        <ele>280.6</ele>
        <time>1970-01-01T01:03:24.000Z</time>
      </trkpt>
      <trkpt lat="43.259111" lon="-2.838691">
        <ele>280.6</ele>
        <time>1970-01-01T01:03:25.000Z</time>
      </trkpt>
      <trkpt lat="43.259116" lon="-2.838743">
        <ele>279.6</ele>
        <time>1970-01-01T01:03:26.000Z</time>
      </trkpt>
      <trkpt lat="43.259116" lon="-2.83879">
        <ele>279.6</ele>
        <time>1970-01-01T01:03:27.000Z</time>
      </trkpt>
      <trkpt lat="43.259128" lon="-2.838836">
        <ele>279.6</ele>
        <time>1970-01-01T01:03:28.000Z</time>
      </trkpt>
      <trkpt lat="43.259133" lon="-2.838875">
        <ele>279.6</ele>
        <time>1970-01-01T01:03:29.000Z</time>
      </trkpt>
      <trkpt lat="43.25914" lon="-2.838913">
        <ele>279</ele>
        <time>1970-01-01T01:03:30.000Z</time>
      </trkpt>
      <trkpt lat="43.259145" lon="-2.838951">
        <ele>279</ele>
        <time>1970-01-01T01:03:31.000Z</time>
      </trkpt>
      <trkpt lat="43.259141" lon="-2.839003">
        <ele>279</ele>
        <time>1970-01-01T01:03:32.000Z</time>
      </trkpt>
      <trkpt lat="43.259138" lon="-2.839056">
        <ele>278</ele>
        <time>1970-01-01T01:03:33.000Z</time>
      </trkpt>
      <trkpt lat="43.259141" lon="-2.839113">
        <ele>276.6</ele>
        <time>1970-01-01T01:03:34.000Z</time>
      </trkpt>
      <trkpt lat="43.259135" lon="-2.839195">
        <ele>276.6</ele>
        <time>1970-01-01T01:03:35.000Z</time>
      </trkpt>
      <trkpt lat="43.25914" lon="-2.83928">
        <ele>276.6</ele>
        <time>1970-01-01T01:03:36.000Z</time>
      </trkpt>
      <trkpt lat="43.259143" lon="-2.839361">
        <ele>275.6</ele>
        <time>1970-01-01T01:03:37.000Z</time>
      </trkpt>
      <trkpt lat="43.259136" lon="-2.839431">
        <ele>274.6</ele>
        <time>1970-01-01T01:03:38.000Z</time>
      </trkpt>
      <trkpt lat="43.259125" lon="-2.839495">
        <ele>274.6</ele>
        <time>1970-01-01T01:03:39.000Z</time>
      </trkpt>
      <trkpt lat="43.259106" lon="-2.839551">
        <ele>274.6</ele>
        <time>1970-01-01T01:03:40.000Z</time>
      </trkpt>
      <trkpt lat="43.259088" lon="-2.839603">
        <ele>274.6</ele>
        <time>1970-01-01T01:03:41.000Z</time>
      </trkpt>
      <trkpt lat="43.259076" lon="-2.839655">
        <ele>271.8</ele>
        <time>1970-01-01T01:03:42.000Z</time>
      </trkpt>
      <trkpt lat="43.25906" lon="-2.839703">
        <ele>271.8</ele>
        <time>1970-01-01T01:03:43.000Z</time>
      </trkpt>
      <trkpt lat="43.259045" lon="-2.83978">
        <ele>271.8</ele>
        <time>1970-01-01T01:03:44.000Z</time>
      </trkpt>
      <trkpt lat="43.25903" lon="-2.839851">
        <ele>271.8</ele>
        <time>1970-01-01T01:03:45.000Z</time>
      </trkpt>
      <trkpt lat="43.25903" lon="-2.839928">
        <ele>269.2</ele>
        <time>1970-01-01T01:03:46.000Z</time>
      </trkpt>
      <trkpt lat="43.259035" lon="-2.840006">
        <ele>269.2</ele>
        <time>1970-01-01T01:03:47.000Z</time>
      </trkpt>
      <trkpt lat="43.259048" lon="-2.84007">
        <ele>269.2</ele>
        <time>1970-01-01T01:03:48.000Z</time>
      </trkpt>
      <trkpt lat="43.25906" lon="-2.840135">
        <ele>269.2</ele>
        <time>1970-01-01T01:03:49.000Z</time>
      </trkpt>
      <trkpt lat="43.25906" lon="-2.840196">
        <ele>269.2</ele>
        <time>1970-01-01T01:03:50.000Z</time>
      </trkpt>
      <trkpt lat="43.259055" lon="-2.840245">
        <ele>270.2</ele>
        <time>1970-01-01T01:03:51.000Z</time>
      </trkpt>
      <trkpt lat="43.259035" lon="-2.840325">
        <ele>270.2</ele>
        <time>1970-01-01T01:03:52.000Z</time>
      </trkpt>
      <trkpt lat="43.259013" lon="-2.840403">
        <ele>269.2</ele>
        <time>1970-01-01T01:03:53.000Z</time>
      </trkpt>
      <trkpt lat="43.258998" lon="-2.84048">
        <ele>269</ele>
        <time>1970-01-01T01:03:54.000Z</time>
      </trkpt>
      <trkpt lat="43.258985" lon="-2.84056">
        <ele>269</ele>
        <time>1970-01-01T01:03:55.000Z</time>
      </trkpt>
      <trkpt lat="43.258978" lon="-2.840633">
        <ele>269</ele>
        <time>1970-01-01T01:03:56.000Z</time>
      </trkpt>
      <trkpt lat="43.258966" lon="-2.840705">
        <ele>269</ele>
        <time>1970-01-01T01:03:57.000Z</time>
      </trkpt>
      <trkpt lat="43.258958" lon="-2.840775">
        <ele>269.2</ele>
        <time>1970-01-01T01:03:58.000Z</time>
      </trkpt>
      <trkpt lat="43.25895" lon="-2.84084">
        <ele>269.2</ele>
        <time>1970-01-01T01:03:59.000Z</time>
      </trkpt>
      <trkpt lat="43.258963" lon="-2.840898">
        <ele>269.2</ele>
        <time>1970-01-01T01:04:00.000Z</time>
      </trkpt>
      <trkpt lat="43.258968" lon="-2.840955">
        <ele>270.2</ele>
        <time>1970-01-01T01:04:01.000Z</time>
      </trkpt>
      <trkpt lat="43.258976" lon="-2.841005">
        <ele>270.4</ele>
        <time>1970-01-01T01:04:02.000Z</time>
      </trkpt>
      <trkpt lat="43.258985" lon="-2.84106">
        <ele>270.4</ele>
        <time>1970-01-01T01:04:03.000Z</time>
      </trkpt>
      <trkpt lat="43.259" lon="-2.8411">
        <ele>270.4</ele>
        <time>1970-01-01T01:04:04.000Z</time>
      </trkpt>
      <trkpt lat="43.259001" lon="-2.841153">
        <ele>270.4</ele>
        <time>1970-01-01T01:04:05.000Z</time>
      </trkpt>
      <trkpt lat="43.258993" lon="-2.841208">
        <ele>271.2</ele>
        <time>1970-01-01T01:04:06.000Z</time>
      </trkpt>
      <trkpt lat="43.258976" lon="-2.841273">
        <ele>271.2</ele>
        <time>1970-01-01T01:04:07.000Z</time>
      </trkpt>
      <trkpt lat="43.258965" lon="-2.841335">
        <ele>271.2</ele>
        <time>1970-01-01T01:04:08.000Z</time>
      </trkpt>
      <trkpt lat="43.25895" lon="-2.8414">
        <ele>271.2</ele>
        <time>1970-01-01T01:04:09.000Z</time>
      </trkpt>
      <trkpt lat="43.258928" lon="-2.841466">
        <ele>271.2</ele>
        <time>1970-01-01T01:04:10.000Z</time>
      </trkpt>
      <trkpt lat="43.25892" lon="-2.841538">
        <ele>271</ele>
        <time>1970-01-01T01:04:11.000Z</time>
      </trkpt>
      <trkpt lat="43.258911" lon="-2.84162">
        <ele>271</ele>
        <time>1970-01-01T01:04:12.000Z</time>
      </trkpt>
      <trkpt lat="43.258918" lon="-2.841711">
        <ele>270</ele>
        <time>1970-01-01T01:04:13.000Z</time>
      </trkpt>
      <trkpt lat="43.258938" lon="-2.8418">
        <ele>270</ele>
        <time>1970-01-01T01:04:14.000Z</time>
      </trkpt>
      <trkpt lat="43.258955" lon="-2.84189">
        <ele>270</ele>
        <time>1970-01-01T01:04:15.000Z</time>
      </trkpt>
      <trkpt lat="43.258985" lon="-2.841978">
        <ele>270</ele>
        <time>1970-01-01T01:04:16.000Z</time>
      </trkpt>
      <trkpt lat="43.259028" lon="-2.842058">
        <ele>269</ele>
        <time>1970-01-01T01:04:17.000Z</time>
      </trkpt>
      <trkpt lat="43.259053" lon="-2.84215">
        <ele>266.6</ele>
        <time>1970-01-01T01:04:18.000Z</time>
      </trkpt>
      <trkpt lat="43.259086" lon="-2.842241">
        <ele>266.6</ele>
        <time>1970-01-01T01:04:19.000Z</time>
      </trkpt>
      <trkpt lat="43.259125" lon="-2.842333">
        <ele>266.6</ele>
        <time>1970-01-01T01:04:20.000Z</time>
      </trkpt>
      <trkpt lat="43.259178" lon="-2.842431">
        <ele>266.6</ele>
        <time>1970-01-01T01:04:21.000Z</time>
      </trkpt>
      <trkpt lat="43.259226" lon="-2.842513">
        <ele>265</ele>
        <time>1970-01-01T01:04:22.000Z</time>
      </trkpt>
      <trkpt lat="43.259281" lon="-2.842596">
        <ele>265</ele>
        <time>1970-01-01T01:04:23.000Z</time>
      </trkpt>
      <trkpt lat="43.259318" lon="-2.842701">
        <ele>265</ele>
        <time>1970-01-01T01:04:24.000Z</time>
      </trkpt>
      <trkpt lat="43.259356" lon="-2.842811">
        <ele>265</ele>
        <time>1970-01-01T01:04:25.000Z</time>
      </trkpt>
      <trkpt lat="43.259388" lon="-2.84291">
        <ele>263.2</ele>
        <time>1970-01-01T01:04:26.000Z</time>
      </trkpt>
      <trkpt lat="43.259425" lon="-2.843023">
        <ele>263.2</ele>
        <time>1970-01-01T01:04:27.000Z</time>
      </trkpt>
      <trkpt lat="43.259458" lon="-2.843126">
        <ele>263.2</ele>
        <time>1970-01-01T01:04:28.000Z</time>
      </trkpt>
      <trkpt lat="43.259471" lon="-2.84322">
        <ele>262.2</ele>
        <time>1970-01-01T01:04:29.000Z</time>
      </trkpt>
      <trkpt lat="43.259473" lon="-2.843313">
        <ele>262.2</ele>
        <time>1970-01-01T01:04:30.000Z</time>
      </trkpt>
      <trkpt lat="43.259471" lon="-2.843403">
        <ele>259.4</ele>
        <time>1970-01-01T01:04:31.000Z</time>
      </trkpt>
      <trkpt lat="43.259465" lon="-2.843496">
        <ele>259.4</ele>
        <time>1970-01-01T01:04:32.000Z</time>
      </trkpt>
      <trkpt lat="43.259475" lon="-2.843598">
        <ele>258.4</ele>
        <time>1970-01-01T01:04:33.000Z</time>
      </trkpt>
      <trkpt lat="43.259505" lon="-2.843705">
        <ele>251.6</ele>
        <time>1970-01-01T01:04:34.000Z</time>
      </trkpt>
      <trkpt lat="43.259555" lon="-2.843806">
        <ele>251.6</ele>
        <time>1970-01-01T01:04:35.000Z</time>
      </trkpt>
      <trkpt lat="43.25962" lon="-2.843903">
        <ele>251.6</ele>
        <time>1970-01-01T01:04:36.000Z</time>
      </trkpt>
      <trkpt lat="43.259685" lon="-2.843996">
        <ele>251.6</ele>
        <time>1970-01-01T01:04:37.000Z</time>
      </trkpt>
      <trkpt lat="43.259751" lon="-2.84409">
        <ele>251</ele>
        <time>1970-01-01T01:04:38.000Z</time>
      </trkpt>
      <trkpt lat="43.259808" lon="-2.844158">
        <ele>251</ele>
        <time>1970-01-01T01:04:39.000Z</time>
      </trkpt>
      <trkpt lat="43.259868" lon="-2.844226">
        <ele>251</ele>
        <time>1970-01-01T01:04:40.000Z</time>
      </trkpt>
      <trkpt lat="43.259916" lon="-2.844305">
        <ele>251</ele>
        <time>1970-01-01T01:04:41.000Z</time>
      </trkpt>
      <trkpt lat="43.25996" lon="-2.844395">
        <ele>251</ele>
        <time>1970-01-01T01:04:42.000Z</time>
      </trkpt>
      <trkpt lat="43.259988" lon="-2.844493">
        <ele>251</ele>
        <time>1970-01-01T01:04:43.000Z</time>
      </trkpt>
      <trkpt lat="43.260011" lon="-2.844588">
        <ele>251</ele>
        <time>1970-01-01T01:04:44.000Z</time>
      </trkpt>
      <trkpt lat="43.260033" lon="-2.844688">
        <ele>251</ele>
        <time>1970-01-01T01:04:45.000Z</time>
      </trkpt>
      <trkpt lat="43.260078" lon="-2.844761">
        <ele>250</ele>
        <time>1970-01-01T01:04:46.000Z</time>
      </trkpt>
      <trkpt lat="43.260136" lon="-2.844796">
        <ele>250</ele>
        <time>1970-01-01T01:04:47.000Z</time>
      </trkpt>
      <trkpt lat="43.2602" lon="-2.844786">
        <ele>250</ele>
        <time>1970-01-01T01:04:48.000Z</time>
      </trkpt>
      <trkpt lat="43.26026" lon="-2.84476">
        <ele>249.2</ele>
        <time>1970-01-01T01:04:49.000Z</time>
      </trkpt>
      <trkpt lat="43.260318" lon="-2.844723">
        <ele>249.2</ele>
        <time>1970-01-01T01:04:50.000Z</time>
      </trkpt>
      <trkpt lat="43.260375" lon="-2.844703">
        <ele>248.2</ele>
        <time>1970-01-01T01:04:51.000Z</time>
      </trkpt>
      <trkpt lat="43.260436" lon="-2.84471">
        <ele>248.2</ele>
        <time>1970-01-01T01:04:52.000Z</time>
      </trkpt>
      <trkpt lat="43.260501" lon="-2.84474">
        <ele>247.2</ele>
        <time>1970-01-01T01:04:53.000Z</time>
      </trkpt>
      <trkpt lat="43.260565" lon="-2.844785">
        <ele>246.2</ele>
        <time>1970-01-01T01:04:54.000Z</time>
      </trkpt>
      <trkpt lat="43.260628" lon="-2.84484">
        <ele>246.2</ele>
        <time>1970-01-01T01:04:55.000Z</time>
      </trkpt>
      <trkpt lat="43.260691" lon="-2.8449">
        <ele>246.2</ele>
        <time>1970-01-01T01:04:56.000Z</time>
      </trkpt>
      <trkpt lat="43.260758" lon="-2.844961">
        <ele>246.2</ele>
        <time>1970-01-01T01:04:57.000Z</time>
      </trkpt>
      <trkpt lat="43.26083" lon="-2.845023">
        <ele>244</ele>
        <time>1970-01-01T01:04:58.000Z</time>
      </trkpt>
      <trkpt lat="43.260903" lon="-2.845086">
        <ele>244</ele>
        <time>1970-01-01T01:04:59.000Z</time>
      </trkpt>
      <trkpt lat="43.260968" lon="-2.845146">
        <ele>244</ele>
        <time>1970-01-01T01:05:00.000Z</time>
      </trkpt>
      <trkpt lat="43.26102" lon="-2.8452">
        <ele>243</ele>
        <time>1970-01-01T01:05:01.000Z</time>
      </trkpt>
      <trkpt lat="43.261066" lon="-2.845245">
        <ele>242</ele>
        <time>1970-01-01T01:05:02.000Z</time>
      </trkpt>
      <trkpt lat="43.261111" lon="-2.84529">
        <ele>242</ele>
        <time>1970-01-01T01:05:03.000Z</time>
      </trkpt>
      <trkpt lat="43.261143" lon="-2.845328">
        <ele>242</ele>
        <time>1970-01-01T01:05:04.000Z</time>
      </trkpt>
      <trkpt lat="43.261166" lon="-2.84537">
        <ele>242</ele>
        <time>1970-01-01T01:05:05.000Z</time>
      </trkpt>
      <trkpt lat="43.261185" lon="-2.845416">
        <ele>238.6</ele>
        <time>1970-01-01T01:05:06.000Z</time>
      </trkpt>
      <trkpt lat="43.261205" lon="-2.845463">
        <ele>238.6</ele>
        <time>1970-01-01T01:05:07.000Z</time>
      </trkpt>
      <trkpt lat="43.26122" lon="-2.845496">
        <ele>238.6</ele>
        <time>1970-01-01T01:05:08.000Z</time>
      </trkpt>
      <trkpt lat="43.261228" lon="-2.845516">
        <ele>237.6</ele>
        <time>1970-01-01T01:05:09.000Z</time>
      </trkpt>
      <trkpt lat="43.261236" lon="-2.845533">
        <ele>236.6</ele>
        <time>1970-01-01T01:05:10.000Z</time>
      </trkpt>
      <trkpt lat="43.26125" lon="-2.84555">
        <ele>236.6</ele>
        <time>1970-01-01T01:05:11.000Z</time>
      </trkpt>
      <trkpt lat="43.261273" lon="-2.84555">
        <ele>236.6</ele>
        <time>1970-01-01T01:05:12.000Z</time>
      </trkpt>
      <trkpt lat="43.261286" lon="-2.845521">
        <ele>236.6</ele>
        <time>1970-01-01T01:05:13.000Z</time>
      </trkpt>
      <trkpt lat="43.261293" lon="-2.845493">
        <ele>236.6</ele>
        <time>1970-01-01T01:05:14.000Z</time>
      </trkpt>
      <trkpt lat="43.261311" lon="-2.845483">
        <ele>236.2</ele>
        <time>1970-01-01T01:05:15.000Z</time>
      </trkpt>
      <trkpt lat="43.261328" lon="-2.845496">
        <ele>236.2</ele>
        <time>1970-01-01T01:05:16.000Z</time>
      </trkpt>
      <trkpt lat="43.26134" lon="-2.845531">
        <ele>235.6</ele>
        <time>1970-01-01T01:05:17.000Z</time>
      </trkpt>
      <trkpt lat="43.261346" lon="-2.84557">
        <ele>236.2</ele>
        <time>1970-01-01T01:05:18.000Z</time>
      </trkpt>
      <trkpt lat="43.26135" lon="-2.84561">
        <ele>236.2</ele>
        <time>1970-01-01T01:05:19.000Z</time>
      </trkpt>
      <trkpt lat="43.26136" lon="-2.845635">
        <ele>236.2</ele>
        <time>1970-01-01T01:05:20.000Z</time>
      </trkpt>
      <trkpt lat="43.261365" lon="-2.845665">
        <ele>235.2</ele>
        <time>1970-01-01T01:05:21.000Z</time>
      </trkpt>
      <trkpt lat="43.261376" lon="-2.845701">
        <ele>235.2</ele>
        <time>1970-01-01T01:05:22.000Z</time>
      </trkpt>
      <trkpt lat="43.261383" lon="-2.84574">
        <ele>235</ele>
        <time>1970-01-01T01:05:23.000Z</time>
      </trkpt>
      <trkpt lat="43.261398" lon="-2.84579">
        <ele>235</ele>
        <time>1970-01-01T01:05:24.000Z</time>
      </trkpt>
      <trkpt lat="43.261413" lon="-2.845831">
        <ele>234</ele>
        <time>1970-01-01T01:05:25.000Z</time>
      </trkpt>
      <trkpt lat="43.261428" lon="-2.845886">
        <ele>232.8</ele>
        <time>1970-01-01T01:05:26.000Z</time>
      </trkpt>
      <trkpt lat="43.26144" lon="-2.845936">
        <ele>232.8</ele>
        <time>1970-01-01T01:05:27.000Z</time>
      </trkpt>
      <trkpt lat="43.26144" lon="-2.846001">
        <ele>232.8</ele>
        <time>1970-01-01T01:05:28.000Z</time>
      </trkpt>
      <trkpt lat="43.261433" lon="-2.846068">
        <ele>231.8</ele>
        <time>1970-01-01T01:05:29.000Z</time>
      </trkpt>
      <trkpt lat="43.261411" lon="-2.846123">
        <ele>232.2</ele>
        <time>1970-01-01T01:05:30.000Z</time>
      </trkpt>
      <trkpt lat="43.261385" lon="-2.846188">
        <ele>232.2</ele>
        <time>1970-01-01T01:05:31.000Z</time>
      </trkpt>
      <trkpt lat="43.261351" lon="-2.84625">
        <ele>232.2</ele>
        <time>1970-01-01T01:05:32.000Z</time>
      </trkpt>
      <trkpt lat="43.261316" lon="-2.846305">
        <ele>231.2</ele>
        <time>1970-01-01T01:05:33.000Z</time>
      </trkpt>
      <trkpt lat="43.26127" lon="-2.84636">
        <ele>230.4</ele>
        <time>1970-01-01T01:05:34.000Z</time>
      </trkpt>
      <trkpt lat="43.261223" lon="-2.846408">
        <ele>230.4</ele>
        <time>1970-01-01T01:05:35.000Z</time>
      </trkpt>
      <trkpt lat="43.261178" lon="-2.846455">
        <ele>230.4</ele>
        <time>1970-01-01T01:05:36.000Z</time>
      </trkpt>
      <trkpt lat="43.26114" lon="-2.84649">
        <ele>230.4</ele>
        <time>1970-01-01T01:05:37.000Z</time>
      </trkpt>
      <trkpt lat="43.261095" lon="-2.846536">
        <ele>229.6</ele>
        <time>1970-01-01T01:05:38.000Z</time>
      </trkpt>
      <trkpt lat="43.261066" lon="-2.846585">
        <ele>229.6</ele>
        <time>1970-01-01T01:05:39.000Z</time>
      </trkpt>
      <trkpt lat="43.261041" lon="-2.846631">
        <ele>229.6</ele>
        <time>1970-01-01T01:05:40.000Z</time>
      </trkpt>
      <trkpt lat="43.261025" lon="-2.846691">
        <ele>229.6</ele>
        <time>1970-01-01T01:05:41.000Z</time>
      </trkpt>
      <trkpt lat="43.261031" lon="-2.846741">
        <ele>229.4</ele>
        <time>1970-01-01T01:05:42.000Z</time>
      </trkpt>
      <trkpt lat="43.261041" lon="-2.846811">
        <ele>229.4</ele>
        <time>1970-01-01T01:05:43.000Z</time>
      </trkpt>
      <trkpt lat="43.261053" lon="-2.846875">
        <ele>229.4</ele>
        <time>1970-01-01T01:05:44.000Z</time>
      </trkpt>
      <trkpt lat="43.261055" lon="-2.846943">
        <ele>229.4</ele>
        <time>1970-01-01T01:05:45.000Z</time>
      </trkpt>
      <trkpt lat="43.261055" lon="-2.847016">
        <ele>229.4</ele>
        <time>1970-01-01T01:05:46.000Z</time>
      </trkpt>
      <trkpt lat="43.261058" lon="-2.847083">
        <ele>229.8</ele>
        <time>1970-01-01T01:05:47.000Z</time>
      </trkpt>
      <trkpt lat="43.261073" lon="-2.847148">
        <ele>229.8</ele>
        <time>1970-01-01T01:05:48.000Z</time>
      </trkpt>
      <trkpt lat="43.26109" lon="-2.847221">
        <ele>228.8</ele>
        <time>1970-01-01T01:05:49.000Z</time>
      </trkpt>
      <trkpt lat="43.261121" lon="-2.847293">
        <ele>229</ele>
        <time>1970-01-01T01:05:50.000Z</time>
      </trkpt>
      <trkpt lat="43.261153" lon="-2.84735">
        <ele>229</ele>
        <time>1970-01-01T01:05:51.000Z</time>
      </trkpt>
      <trkpt lat="43.261175" lon="-2.847408">
        <ele>229</ele>
        <time>1970-01-01T01:05:52.000Z</time>
      </trkpt>
      <trkpt lat="43.261203" lon="-2.847431">
        <ele>228.2</ele>
        <time>1970-01-01T01:05:53.000Z</time>
      </trkpt>
      <trkpt lat="43.261236" lon="-2.84745">
        <ele>228.2</ele>
        <time>1970-01-01T01:05:54.000Z</time>
      </trkpt>
      <trkpt lat="43.261276" lon="-2.84745">
        <ele>228.2</ele>
        <time>1970-01-01T01:05:55.000Z</time>
      </trkpt>
      <trkpt lat="43.26131" lon="-2.847438">
        <ele>228.2</ele>
        <time>1970-01-01T01:05:56.000Z</time>
      </trkpt>
      <trkpt lat="43.261336" lon="-2.847423">
        <ele>228.2</ele>
        <time>1970-01-01T01:05:57.000Z</time>
      </trkpt>
      <trkpt lat="43.26137" lon="-2.847393">
        <ele>227.6</ele>
        <time>1970-01-01T01:05:58.000Z</time>
      </trkpt>
      <trkpt lat="43.261408" lon="-2.84738">
        <ele>227.6</ele>
        <time>1970-01-01T01:05:59.000Z</time>
      </trkpt>
      <trkpt lat="43.261446" lon="-2.847366">
        <ele>227.6</ele>
        <time>1970-01-01T01:06:00.000Z</time>
      </trkpt>
      <trkpt lat="43.261493" lon="-2.847361">
        <ele>226.6</ele>
        <time>1970-01-01T01:06:01.000Z</time>
      </trkpt>
      <trkpt lat="43.261531" lon="-2.847381">
        <ele>224.6</ele>
        <time>1970-01-01T01:06:02.000Z</time>
      </trkpt>
      <trkpt lat="43.261571" lon="-2.847406">
        <ele>224.6</ele>
        <time>1970-01-01T01:06:03.000Z</time>
      </trkpt>
      <trkpt lat="43.261621" lon="-2.847445">
        <ele>224.6</ele>
        <time>1970-01-01T01:06:04.000Z</time>
      </trkpt>
      <trkpt lat="43.261668" lon="-2.847495">
        <ele>223.6</ele>
        <time>1970-01-01T01:06:05.000Z</time>
      </trkpt>
      <trkpt lat="43.261708" lon="-2.847548">
        <ele>221.2</ele>
        <time>1970-01-01T01:06:06.000Z</time>
      </trkpt>
      <trkpt lat="43.261743" lon="-2.847603">
        <ele>221.2</ele>
        <time>1970-01-01T01:06:07.000Z</time>
      </trkpt>
      <trkpt lat="43.261766" lon="-2.847671">
        <ele>221.2</ele>
        <time>1970-01-01T01:06:08.000Z</time>
      </trkpt>
      <trkpt lat="43.261781" lon="-2.847753">
        <ele>221.2</ele>
        <time>1970-01-01T01:06:09.000Z</time>
      </trkpt>
      <trkpt lat="43.261783" lon="-2.847833">
        <ele>218.4</ele>
        <time>1970-01-01T01:06:10.000Z</time>
      </trkpt>
      <trkpt lat="43.261798" lon="-2.847915">
        <ele>218.4</ele>
        <time>1970-01-01T01:06:11.000Z</time>
      </trkpt>
      <trkpt lat="43.261828" lon="-2.847995">
        <ele>218.4</ele>
        <time>1970-01-01T01:06:12.000Z</time>
      </trkpt>
      <trkpt lat="43.261855" lon="-2.848076">
        <ele>218.4</ele>
        <time>1970-01-01T01:06:13.000Z</time>
      </trkpt>
      <trkpt lat="43.26188" lon="-2.848165">
        <ele>215.6</ele>
        <time>1970-01-01T01:06:14.000Z</time>
      </trkpt>
      <trkpt lat="43.261903" lon="-2.848246">
        <ele>215.6</ele>
        <time>1970-01-01T01:06:15.000Z</time>
      </trkpt>
      <trkpt lat="43.261938" lon="-2.848331">
        <ele>215.6</ele>
        <time>1970-01-01T01:06:16.000Z</time>
      </trkpt>
      <trkpt lat="43.261995" lon="-2.848396">
        <ele>214.6</ele>
        <time>1970-01-01T01:06:17.000Z</time>
      </trkpt>
      <trkpt lat="43.262025" lon="-2.848453">
        <ele>210.6</ele>
        <time>1970-01-01T01:06:18.000Z</time>
      </trkpt>
      <trkpt lat="43.26208" lon="-2.848478">
        <ele>210.6</ele>
        <time>1970-01-01T01:06:19.000Z</time>
      </trkpt>
      <trkpt lat="43.262141" lon="-2.848525">
        <ele>210.6</ele>
        <time>1970-01-01T01:06:20.000Z</time>
      </trkpt>
      <trkpt lat="43.262196" lon="-2.848571">
        <ele>210.6</ele>
        <time>1970-01-01T01:06:21.000Z</time>
      </trkpt>
      <trkpt lat="43.262263" lon="-2.848626">
        <ele>209.8</ele>
        <time>1970-01-01T01:06:22.000Z</time>
      </trkpt>
      <trkpt lat="43.262316" lon="-2.848686">
        <ele>209.8</ele>
        <time>1970-01-01T01:06:23.000Z</time>
      </trkpt>
      <trkpt lat="43.26238" lon="-2.848746">
        <ele>209.8</ele>
        <time>1970-01-01T01:06:24.000Z</time>
      </trkpt>
      <trkpt lat="43.262421" lon="-2.848801">
        <ele>210.2</ele>
        <time>1970-01-01T01:06:25.000Z</time>
      </trkpt>
      <trkpt lat="43.262466" lon="-2.848856">
        <ele>210.2</ele>
        <time>1970-01-01T01:06:26.000Z</time>
      </trkpt>
      <trkpt lat="43.26253" lon="-2.84891">
        <ele>209.2</ele>
        <time>1970-01-01T01:06:27.000Z</time>
      </trkpt>
      <trkpt lat="43.262576" lon="-2.848958">
        <ele>209.2</ele>
        <time>1970-01-01T01:06:28.000Z</time>
      </trkpt>
      <trkpt lat="43.26262" lon="-2.849028">
        <ele>208.2</ele>
        <time>1970-01-01T01:06:29.000Z</time>
      </trkpt>
      <trkpt lat="43.262665" lon="-2.8491">
        <ele>207.4</ele>
        <time>1970-01-01T01:06:30.000Z</time>
      </trkpt>
      <trkpt lat="43.262715" lon="-2.849171">
        <ele>207.4</ele>
        <time>1970-01-01T01:06:31.000Z</time>
      </trkpt>
      <trkpt lat="43.262753" lon="-2.849241">
        <ele>207.4</ele>
        <time>1970-01-01T01:06:32.000Z</time>
      </trkpt>
      <trkpt lat="43.26282" lon="-2.849303">
        <ele>207.4</ele>
        <time>1970-01-01T01:06:33.000Z</time>
      </trkpt>
      <trkpt lat="43.262873" lon="-2.849373">
        <ele>207.4</ele>
        <time>1970-01-01T01:06:34.000Z</time>
      </trkpt>
      <trkpt lat="43.262915" lon="-2.849453">
        <ele>206.8</ele>
        <time>1970-01-01T01:06:35.000Z</time>
      </trkpt>
      <trkpt lat="43.262955" lon="-2.849518">
        <ele>206.8</ele>
        <time>1970-01-01T01:06:36.000Z</time>
      </trkpt>
      <trkpt lat="43.263001" lon="-2.849576">
        <ele>205.8</ele>
        <time>1970-01-01T01:06:37.000Z</time>
      </trkpt>
      <trkpt lat="43.263046" lon="-2.849645">
        <ele>205</ele>
        <time>1970-01-01T01:06:38.000Z</time>
      </trkpt>
      <trkpt lat="43.263093" lon="-2.849705">
        <ele>205</ele>
        <time>1970-01-01T01:06:39.000Z</time>
      </trkpt>
      <trkpt lat="43.263141" lon="-2.849778">
        <ele>205</ele>
        <time>1970-01-01T01:06:40.000Z</time>
      </trkpt>
      <trkpt lat="43.263185" lon="-2.849843">
        <ele>204</ele>
        <time>1970-01-01T01:06:41.000Z</time>
      </trkpt>
      <trkpt lat="43.263221" lon="-2.849901">
        <ele>202</ele>
        <time>1970-01-01T01:06:42.000Z</time>
      </trkpt>
      <trkpt lat="43.263266" lon="-2.849941">
        <ele>202</ele>
        <time>1970-01-01T01:06:43.000Z</time>
      </trkpt>
      <trkpt lat="43.263306" lon="-2.849965">
        <ele>202</ele>
        <time>1970-01-01T01:06:44.000Z</time>
      </trkpt>
      <trkpt lat="43.263338" lon="-2.849958">
        <ele>202</ele>
        <time>1970-01-01T01:06:45.000Z</time>
      </trkpt>
      <trkpt lat="43.263368" lon="-2.849946">
        <ele>202.4</ele>
        <time>1970-01-01T01:06:46.000Z</time>
      </trkpt>
      <trkpt lat="43.263415" lon="-2.849925">
        <ele>202.4</ele>
        <time>1970-01-01T01:06:47.000Z</time>
      </trkpt>
      <trkpt lat="43.263463" lon="-2.849888">
        <ele>202.4</ele>
        <time>1970-01-01T01:06:48.000Z</time>
      </trkpt>
      <trkpt lat="43.263513" lon="-2.849843">
        <ele>201.4</ele>
        <time>1970-01-01T01:06:49.000Z</time>
      </trkpt>
      <trkpt lat="43.26357" lon="-2.849793">
        <ele>199</ele>
        <time>1970-01-01T01:06:50.000Z</time>
      </trkpt>
      <trkpt lat="43.263628" lon="-2.84974">
        <ele>199</ele>
        <time>1970-01-01T01:06:51.000Z</time>
      </trkpt>
      <trkpt lat="43.263683" lon="-2.849685">
        <ele>199</ele>
        <time>1970-01-01T01:06:52.000Z</time>
      </trkpt>
      <trkpt lat="43.263733" lon="-2.84962">
        <ele>198</ele>
        <time>1970-01-01T01:06:53.000Z</time>
      </trkpt>
      <trkpt lat="43.263788" lon="-2.84955">
        <ele>196.2</ele>
        <time>1970-01-01T01:06:54.000Z</time>
      </trkpt>
      <trkpt lat="43.263845" lon="-2.849483">
        <ele>196.2</ele>
        <time>1970-01-01T01:06:55.000Z</time>
      </trkpt>
      <trkpt lat="43.263888" lon="-2.849408">
        <ele>196.2</ele>
        <time>1970-01-01T01:06:56.000Z</time>
      </trkpt>
      <trkpt lat="43.263926" lon="-2.849346">
        <ele>196.2</ele>
        <time>1970-01-01T01:06:57.000Z</time>
      </trkpt>
      <trkpt lat="43.263963" lon="-2.849285">
        <ele>194</ele>
        <time>1970-01-01T01:06:58.000Z</time>
      </trkpt>
      <trkpt lat="43.26401" lon="-2.849226">
        <ele>194</ele>
        <time>1970-01-01T01:06:59.000Z</time>
      </trkpt>
      <trkpt lat="43.264041" lon="-2.849188">
        <ele>194</ele>
        <time>1970-01-01T01:07:00.000Z</time>
      </trkpt>
      <trkpt lat="43.264081" lon="-2.84916">
        <ele>194</ele>
        <time>1970-01-01T01:07:01.000Z</time>
      </trkpt>
      <trkpt lat="43.264113" lon="-2.849125">
        <ele>193.2</ele>
        <time>1970-01-01T01:07:02.000Z</time>
      </trkpt>
      <trkpt lat="43.264151" lon="-2.849073">
        <ele>193.2</ele>
        <time>1970-01-01T01:07:03.000Z</time>
      </trkpt>
      <trkpt lat="43.26417" lon="-2.84902">
        <ele>193.2</ele>
        <time>1970-01-01T01:07:04.000Z</time>
      </trkpt>
      <trkpt lat="43.264186" lon="-2.848973">
        <ele>193.2</ele>
        <time>1970-01-01T01:07:05.000Z</time>
      </trkpt>
      <trkpt lat="43.264188" lon="-2.848926">
        <ele>187.6</ele>
        <time>1970-01-01T01:07:06.000Z</time>
      </trkpt>
      <trkpt lat="43.264193" lon="-2.848883">
        <ele>187.6</ele>
        <time>1970-01-01T01:07:07.000Z</time>
      </trkpt>
      <trkpt lat="43.264203" lon="-2.848853">
        <ele>187.6</ele>
        <time>1970-01-01T01:07:08.000Z</time>
      </trkpt>
      <trkpt lat="43.264215" lon="-2.848836">
        <ele>187.6</ele>
        <time>1970-01-01T01:07:09.000Z</time>
      </trkpt>
      <trkpt lat="43.264238" lon="-2.848816">
        <ele>186.2</ele>
        <time>1970-01-01T01:07:10.000Z</time>
      </trkpt>
      <trkpt lat="43.264266" lon="-2.848798">
        <ele>186.2</ele>
        <time>1970-01-01T01:07:11.000Z</time>
      </trkpt>
      <trkpt lat="43.264301" lon="-2.84878">
        <ele>186.2</ele>
        <time>1970-01-01T01:07:12.000Z</time>
      </trkpt>
      <trkpt lat="43.264335" lon="-2.848761">
        <ele>186.2</ele>
        <time>1970-01-01T01:07:13.000Z</time>
      </trkpt>
      <trkpt lat="43.264358" lon="-2.848751">
        <ele>183.2</ele>
        <time>1970-01-01T01:07:14.000Z</time>
      </trkpt>
      <trkpt lat="43.264383" lon="-2.848743">
        <ele>183.2</ele>
        <time>1970-01-01T01:07:15.000Z</time>
      </trkpt>
      <trkpt lat="43.264421" lon="-2.84873">
        <ele>183.2</ele>
        <time>1970-01-01T01:07:16.000Z</time>
      </trkpt>
      <trkpt lat="43.26446" lon="-2.848715">
        <ele>182.2</ele>
        <time>1970-01-01T01:07:17.000Z</time>
      </trkpt>
      <trkpt lat="43.264505" lon="-2.848693">
        <ele>182.2</ele>
        <time>1970-01-01T01:07:18.000Z</time>
      </trkpt>
      <trkpt lat="43.264553" lon="-2.848671">
        <ele>180.6</ele>
        <time>1970-01-01T01:07:19.000Z</time>
      </trkpt>
      <trkpt lat="43.264601" lon="-2.848653">
        <ele>180.6</ele>
        <time>1970-01-01T01:07:20.000Z</time>
      </trkpt>
      <trkpt lat="43.264671" lon="-2.848633">
        <ele>179.6</ele>
        <time>1970-01-01T01:07:21.000Z</time>
      </trkpt>
      <trkpt lat="43.264751" lon="-2.848611">
        <ele>176</ele>
        <time>1970-01-01T01:07:22.000Z</time>
      </trkpt>
      <trkpt lat="43.26483" lon="-2.8486">
        <ele>176</ele>
        <time>1970-01-01T01:07:23.000Z</time>
      </trkpt>
      <trkpt lat="43.264903" lon="-2.848593">
        <ele>176</ele>
        <time>1970-01-01T01:07:24.000Z</time>
      </trkpt>
      <trkpt lat="43.264966" lon="-2.848593">
        <ele>175</ele>
        <time>1970-01-01T01:07:25.000Z</time>
      </trkpt>
      <trkpt lat="43.265018" lon="-2.848613">
        <ele>172.2</ele>
        <time>1970-01-01T01:07:26.000Z</time>
      </trkpt>
      <trkpt lat="43.265073" lon="-2.848641">
        <ele>172.2</ele>
        <time>1970-01-01T01:07:27.000Z</time>
      </trkpt>
      <trkpt lat="43.265118" lon="-2.848663">
        <ele>172.2</ele>
        <time>1970-01-01T01:07:28.000Z</time>
      </trkpt>
      <trkpt lat="43.265161" lon="-2.848671">
        <ele>171.2</ele>
        <time>1970-01-01T01:07:29.000Z</time>
      </trkpt>
      <trkpt lat="43.265196" lon="-2.848666">
        <ele>169.6</ele>
        <time>1970-01-01T01:07:30.000Z</time>
      </trkpt>
      <trkpt lat="43.265225" lon="-2.848638">
        <ele>169.6</ele>
        <time>1970-01-01T01:07:31.000Z</time>
      </trkpt>
      <trkpt lat="43.265241" lon="-2.848586">
        <ele>169.6</ele>
        <time>1970-01-01T01:07:32.000Z</time>
      </trkpt>
      <trkpt lat="43.265245" lon="-2.848523">
        <ele>168.6</ele>
        <time>1970-01-01T01:07:33.000Z</time>
      </trkpt>
      <trkpt lat="43.265233" lon="-2.84847">
        <ele>167.8</ele>
        <time>1970-01-01T01:07:34.000Z</time>
      </trkpt>
      <trkpt lat="43.265223" lon="-2.848428">
        <ele>167.8</ele>
        <time>1970-01-01T01:07:35.000Z</time>
      </trkpt>
      <trkpt lat="43.265208" lon="-2.848381">
        <ele>167.8</ele>
        <time>1970-01-01T01:07:36.000Z</time>
      </trkpt>
      <trkpt lat="43.265186" lon="-2.848343">
        <ele>166.8</ele>
        <time>1970-01-01T01:07:37.000Z</time>
      </trkpt>
      <trkpt lat="43.265146" lon="-2.848295">
        <ele>165.6</ele>
        <time>1970-01-01T01:07:38.000Z</time>
      </trkpt>
      <trkpt lat="43.265101" lon="-2.848253">
        <ele>165.6</ele>
        <time>1970-01-01T01:07:39.000Z</time>
      </trkpt>
      <trkpt lat="43.265066" lon="-2.848215">
        <ele>165.6</ele>
        <time>1970-01-01T01:07:40.000Z</time>
      </trkpt>
      <trkpt lat="43.26505" lon="-2.848171">
        <ele>164.6</ele>
        <time>1970-01-01T01:07:41.000Z</time>
      </trkpt>
      <trkpt lat="43.265053" lon="-2.848103">
        <ele>161.8</ele>
        <time>1970-01-01T01:07:42.000Z</time>
      </trkpt>
      <trkpt lat="43.265085" lon="-2.84803">
        <ele>161.8</ele>
        <time>1970-01-01T01:07:43.000Z</time>
      </trkpt>
      <trkpt lat="43.265143" lon="-2.847961">
        <ele>161.8</ele>
        <time>1970-01-01T01:07:44.000Z</time>
      </trkpt>
      <trkpt lat="43.265215" lon="-2.847893">
        <ele>160.8</ele>
        <time>1970-01-01T01:07:45.000Z</time>
      </trkpt>
      <trkpt lat="43.265291" lon="-2.847828">
        <ele>154.4</ele>
        <time>1970-01-01T01:07:46.000Z</time>
      </trkpt>
      <trkpt lat="43.265358" lon="-2.847778">
        <ele>154.4</ele>
        <time>1970-01-01T01:07:47.000Z</time>
      </trkpt>
      <trkpt lat="43.265421" lon="-2.847745">
        <ele>154.4</ele>
        <time>1970-01-01T01:07:48.000Z</time>
      </trkpt>
      <trkpt lat="43.265496" lon="-2.84774">
        <ele>153.4</ele>
        <time>1970-01-01T01:07:49.000Z</time>
      </trkpt>
      <trkpt lat="43.265568" lon="-2.847771">
        <ele>151</ele>
        <time>1970-01-01T01:07:50.000Z</time>
      </trkpt>
      <trkpt lat="43.26564" lon="-2.847828">
        <ele>151</ele>
        <time>1970-01-01T01:07:51.000Z</time>
      </trkpt>
      <trkpt lat="43.265703" lon="-2.847906">
        <ele>151</ele>
        <time>1970-01-01T01:07:52.000Z</time>
      </trkpt>
      <trkpt lat="43.265765" lon="-2.847993">
        <ele>150</ele>
        <time>1970-01-01T01:07:53.000Z</time>
      </trkpt>
      <trkpt lat="43.265821" lon="-2.848078">
        <ele>147.8</ele>
        <time>1970-01-01T01:07:54.000Z</time>
      </trkpt>
      <trkpt lat="43.26587" lon="-2.848151">
        <ele>147.8</ele>
        <time>1970-01-01T01:07:55.000Z</time>
      </trkpt>
      <trkpt lat="43.265925" lon="-2.848208">
        <ele>147.8</ele>
        <time>1970-01-01T01:07:56.000Z</time>
      </trkpt>
      <trkpt lat="43.26599" lon="-2.848241">
        <ele>147.8</ele>
        <time>1970-01-01T01:07:57.000Z</time>
      </trkpt>
      <trkpt lat="43.266061" lon="-2.848246">
        <ele>145.6</ele>
        <time>1970-01-01T01:07:58.000Z</time>
      </trkpt>
      <trkpt lat="43.266143" lon="-2.848213">
        <ele>145.6</ele>
        <time>1970-01-01T01:07:59.000Z</time>
      </trkpt>
      <trkpt lat="43.266218" lon="-2.848168">
        <ele>145.6</ele>
        <time>1970-01-01T01:08:00.000Z</time>
      </trkpt>
      <trkpt lat="43.266291" lon="-2.848121">
        <ele>144.6</ele>
        <time>1970-01-01T01:08:01.000Z</time>
      </trkpt>
      <trkpt lat="43.266368" lon="-2.848073">
        <ele>141.8</ele>
        <time>1970-01-01T01:08:02.000Z</time>
      </trkpt>
      <trkpt lat="43.26644" lon="-2.848026">
        <ele>141.8</ele>
        <time>1970-01-01T01:08:03.000Z</time>
      </trkpt>
      <trkpt lat="43.266531" lon="-2.847978">
        <ele>141.8</ele>
        <time>1970-01-01T01:08:04.000Z</time>
      </trkpt>
      <trkpt lat="43.26664" lon="-2.847925">
        <ele>141.8</ele>
        <time>1970-01-01T01:08:05.000Z</time>
      </trkpt>
      <trkpt lat="43.266748" lon="-2.84786">
        <ele>133</ele>
        <time>1970-01-01T01:08:06.000Z</time>
      </trkpt>
      <trkpt lat="43.266855" lon="-2.847798">
        <ele>133</ele>
        <time>1970-01-01T01:08:07.000Z</time>
      </trkpt>
      <trkpt lat="43.266961" lon="-2.847733">
        <ele>133</ele>
        <time>1970-01-01T01:08:08.000Z</time>
      </trkpt>
      <trkpt lat="43.267071" lon="-2.847663">
        <ele>132</ele>
        <time>1970-01-01T01:08:09.000Z</time>
      </trkpt>
      <trkpt lat="43.267178" lon="-2.847583">
        <ele>126.6</ele>
        <time>1970-01-01T01:08:10.000Z</time>
      </trkpt>
      <trkpt lat="43.26728" lon="-2.847496">
        <ele>126.6</ele>
        <time>1970-01-01T01:08:11.000Z</time>
      </trkpt>
      <trkpt lat="43.267368" lon="-2.847411">
        <ele>126.6</ele>
        <time>1970-01-01T01:08:12.000Z</time>
      </trkpt>
      <trkpt lat="43.26745" lon="-2.847346">
        <ele>126.6</ele>
        <time>1970-01-01T01:08:13.000Z</time>
      </trkpt>
      <trkpt lat="43.267523" lon="-2.847283">
        <ele>123</ele>
        <time>1970-01-01T01:08:14.000Z</time>
      </trkpt>
      <trkpt lat="43.267598" lon="-2.847223">
        <ele>123</ele>
        <time>1970-01-01T01:08:15.000Z</time>
      </trkpt>
      <trkpt lat="43.267663" lon="-2.847168">
        <ele>123</ele>
        <time>1970-01-01T01:08:16.000Z</time>
      </trkpt>
      <trkpt lat="43.267718" lon="-2.84713">
        <ele>122</ele>
        <time>1970-01-01T01:08:17.000Z</time>
      </trkpt>
      <trkpt lat="43.267778" lon="-2.84711">
        <ele>122</ele>
        <time>1970-01-01T01:08:18.000Z</time>
      </trkpt>
      <trkpt lat="43.267843" lon="-2.847118">
        <ele>119.2</ele>
        <time>1970-01-01T01:08:19.000Z</time>
      </trkpt>
      <trkpt lat="43.267915" lon="-2.847145">
        <ele>119.2</ele>
        <time>1970-01-01T01:08:20.000Z</time>
      </trkpt>
      <trkpt lat="43.267995" lon="-2.847171">
        <ele>118.2</ele>
        <time>1970-01-01T01:08:21.000Z</time>
      </trkpt>
      <trkpt lat="43.268073" lon="-2.847173">
        <ele>115.6</ele>
        <time>1970-01-01T01:08:22.000Z</time>
      </trkpt>
      <trkpt lat="43.26815" lon="-2.847136">
        <ele>115.6</ele>
        <time>1970-01-01T01:08:23.000Z</time>
      </trkpt>
      <trkpt lat="43.268223" lon="-2.847066">
        <ele>115.6</ele>
        <time>1970-01-01T01:08:24.000Z</time>
      </trkpt>
      <trkpt lat="43.268295" lon="-2.846975">
        <ele>114.6</ele>
        <time>1970-01-01T01:08:25.000Z</time>
      </trkpt>
      <trkpt lat="43.268366" lon="-2.846876">
        <ele>114.6</ele>
        <time>1970-01-01T01:08:26.000Z</time>
      </trkpt>
      <trkpt lat="43.268441" lon="-2.84677">
        <ele>110.4</ele>
        <time>1970-01-01T01:08:27.000Z</time>
      </trkpt>
      <trkpt lat="43.26851" lon="-2.846655">
        <ele>110.4</ele>
        <time>1970-01-01T01:08:28.000Z</time>
      </trkpt>
      <trkpt lat="43.268563" lon="-2.846525">
        <ele>109.4</ele>
        <time>1970-01-01T01:08:29.000Z</time>
      </trkpt>
      <trkpt lat="43.2686" lon="-2.846386">
        <ele>105.4</ele>
        <time>1970-01-01T01:08:30.000Z</time>
      </trkpt>
      <trkpt lat="43.268636" lon="-2.84626">
        <ele>105.4</ele>
        <time>1970-01-01T01:08:31.000Z</time>
      </trkpt>
      <trkpt lat="43.268686" lon="-2.846143">
        <ele>105.4</ele>
        <time>1970-01-01T01:08:32.000Z</time>
      </trkpt>
      <trkpt lat="43.268745" lon="-2.846035">
        <ele>104.4</ele>
        <time>1970-01-01T01:08:33.000Z</time>
      </trkpt>
      <trkpt lat="43.268806" lon="-2.845921">
        <ele>104.4</ele>
        <time>1970-01-01T01:08:34.000Z</time>
      </trkpt>
      <trkpt lat="43.268875" lon="-2.845805">
        <ele>101.6</ele>
        <time>1970-01-01T01:08:35.000Z</time>
      </trkpt>
      <trkpt lat="43.268936" lon="-2.845688">
        <ele>101.6</ele>
        <time>1970-01-01T01:08:36.000Z</time>
      </trkpt>
      <trkpt lat="43.268996" lon="-2.84558">
        <ele>100.6</ele>
        <time>1970-01-01T01:08:37.000Z</time>
      </trkpt>
      <trkpt lat="43.269053" lon="-2.845485">
        <ele>97.6</ele>
        <time>1970-01-01T01:08:38.000Z</time>
      </trkpt>
      <trkpt lat="43.269123" lon="-2.845398">
        <ele>97.6</ele>
        <time>1970-01-01T01:08:39.000Z</time>
      </trkpt>
      <trkpt lat="43.2692" lon="-2.84532">
        <ele>97.6</ele>
        <time>1970-01-01T01:08:40.000Z</time>
      </trkpt>
      <trkpt lat="43.269283" lon="-2.845245">
        <ele>96.6</ele>
        <time>1970-01-01T01:08:41.000Z</time>
      </trkpt>
      <trkpt lat="43.269368" lon="-2.845168">
        <ele>96.6</ele>
        <time>1970-01-01T01:08:42.000Z</time>
      </trkpt>
      <trkpt lat="43.269458" lon="-2.845091">
        <ele>94.8</ele>
        <time>1970-01-01T01:08:43.000Z</time>
      </trkpt>
      <trkpt lat="43.269551" lon="-2.845016">
        <ele>94.8</ele>
        <time>1970-01-01T01:08:44.000Z</time>
      </trkpt>
      <trkpt lat="43.269655" lon="-2.844938">
        <ele>93.8</ele>
        <time>1970-01-01T01:08:45.000Z</time>
      </trkpt>
      <trkpt lat="43.26976" lon="-2.844858">
        <ele>88.2</ele>
        <time>1970-01-01T01:08:46.000Z</time>
      </trkpt>
      <trkpt lat="43.269858" lon="-2.84477">
        <ele>88.2</ele>
        <time>1970-01-01T01:08:47.000Z</time>
      </trkpt>
      <trkpt lat="43.269951" lon="-2.844678">
        <ele>88.2</ele>
        <time>1970-01-01T01:08:48.000Z</time>
      </trkpt>
      <trkpt lat="43.27004" lon="-2.844586">
        <ele>89.2</ele>
        <time>1970-01-01T01:08:49.000Z</time>
      </trkpt>
      <trkpt lat="43.27013" lon="-2.8445">
        <ele>88.4</ele>
        <time>1970-01-01T01:08:50.000Z</time>
      </trkpt>
      <trkpt lat="43.270225" lon="-2.844416">
        <ele>88.4</ele>
        <time>1970-01-01T01:08:51.000Z</time>
      </trkpt>
      <trkpt lat="43.270321" lon="-2.844335">
        <ele>88.4</ele>
        <time>1970-01-01T01:08:52.000Z</time>
      </trkpt>
      <trkpt lat="43.270418" lon="-2.844253">
        <ele>87.4</ele>
        <time>1970-01-01T01:08:53.000Z</time>
      </trkpt>
      <trkpt lat="43.270518" lon="-2.84417">
        <ele>84.6</ele>
        <time>1970-01-01T01:08:54.000Z</time>
      </trkpt>
      <trkpt lat="43.270615" lon="-2.844086">
        <ele>84.6</ele>
        <time>1970-01-01T01:08:55.000Z</time>
      </trkpt>
      <trkpt lat="43.270713" lon="-2.844003">
        <ele>84.6</ele>
        <time>1970-01-01T01:08:56.000Z</time>
      </trkpt>
      <trkpt lat="43.270806" lon="-2.843923">
        <ele>83.6</ele>
        <time>1970-01-01T01:08:57.000Z</time>
      </trkpt>
      <trkpt lat="43.270895" lon="-2.843848">
        <ele>82.6</ele>
        <time>1970-01-01T01:08:58.000Z</time>
      </trkpt>
      <trkpt lat="43.270976" lon="-2.843783">
        <ele>82.6</ele>
        <time>1970-01-01T01:08:59.000Z</time>
      </trkpt>
      <trkpt lat="43.271063" lon="-2.843726">
        <ele>82.6</ele>
        <time>1970-01-01T01:09:00.000Z</time>
      </trkpt>
      <trkpt lat="43.271158" lon="-2.843683">
        <ele>81.6</ele>
        <time>1970-01-01T01:09:01.000Z</time>
      </trkpt>
      <trkpt lat="43.271256" lon="-2.843656">
        <ele>79.2</ele>
        <time>1970-01-01T01:09:02.000Z</time>
      </trkpt>
      <trkpt lat="43.271358" lon="-2.84364">
        <ele>79.2</ele>
        <time>1970-01-01T01:09:03.000Z</time>
      </trkpt>
      <trkpt lat="43.271463" lon="-2.843635">
        <ele>79.2</ele>
        <time>1970-01-01T01:09:04.000Z</time>
      </trkpt>
      <trkpt lat="43.271566" lon="-2.843628">
        <ele>78.2</ele>
        <time>1970-01-01T01:09:05.000Z</time>
      </trkpt>
      <trkpt lat="43.271673" lon="-2.84363">
        <ele>75.6</ele>
        <time>1970-01-01T01:09:06.000Z</time>
      </trkpt>
      <trkpt lat="43.271781" lon="-2.84364">
        <ele>75.6</ele>
        <time>1970-01-01T01:09:07.000Z</time>
      </trkpt>
      <trkpt lat="43.271886" lon="-2.84366">
        <ele>75.6</ele>
        <time>1970-01-01T01:09:08.000Z</time>
      </trkpt>
      <trkpt lat="43.271986" lon="-2.843681">
        <ele>74.6</ele>
        <time>1970-01-01T01:09:09.000Z</time>
      </trkpt>
      <trkpt lat="43.27208" lon="-2.843701">
        <ele>74</ele>
        <time>1970-01-01T01:09:10.000Z</time>
      </trkpt>
      <trkpt lat="43.272161" lon="-2.843726">
        <ele>74</ele>
        <time>1970-01-01T01:09:11.000Z</time>
      </trkpt>
      <trkpt lat="43.272235" lon="-2.843741">
        <ele>74</ele>
        <time>1970-01-01T01:09:12.000Z</time>
      </trkpt>
      <trkpt lat="43.272305" lon="-2.843756">
        <ele>73.2</ele>
        <time>1970-01-01T01:09:13.000Z</time>
      </trkpt>
      <trkpt lat="43.272375" lon="-2.843785">
        <ele>73</ele>
        <time>1970-01-01T01:09:14.000Z</time>
      </trkpt>
      <trkpt lat="43.272448" lon="-2.84381">
        <ele>73</ele>
        <time>1970-01-01T01:09:15.000Z</time>
      </trkpt>
      <trkpt lat="43.27252" lon="-2.843838">
        <ele>73</ele>
        <time>1970-01-01T01:09:16.000Z</time>
      </trkpt>
      <trkpt lat="43.272593" lon="-2.84387">
        <ele>73</ele>
        <time>1970-01-01T01:09:17.000Z</time>
      </trkpt>
      <trkpt lat="43.272666" lon="-2.843901">
        <ele>71.4</ele>
        <time>1970-01-01T01:09:18.000Z</time>
      </trkpt>
      <trkpt lat="43.272741" lon="-2.843935">
        <ele>71.4</ele>
        <time>1970-01-01T01:09:19.000Z</time>
      </trkpt>
      <trkpt lat="43.272816" lon="-2.84397">
        <ele>71.4</ele>
        <time>1970-01-01T01:09:20.000Z</time>
      </trkpt>
      <trkpt lat="43.272893" lon="-2.844005">
        <ele>70.4</ele>
        <time>1970-01-01T01:09:21.000Z</time>
      </trkpt>
      <trkpt lat="43.27297" lon="-2.84403">
        <ele>69.8</ele>
        <time>1970-01-01T01:09:22.000Z</time>
      </trkpt>
      <trkpt lat="43.273048" lon="-2.844036">
        <ele>69.8</ele>
        <time>1970-01-01T01:09:23.000Z</time>
      </trkpt>
      <trkpt lat="43.273125" lon="-2.844043">
        <ele>69.8</ele>
        <time>1970-01-01T01:09:24.000Z</time>
      </trkpt>
      <trkpt lat="43.273203" lon="-2.84405">
        <ele>69.2</ele>
        <time>1970-01-01T01:09:25.000Z</time>
      </trkpt>
      <trkpt lat="43.273281" lon="-2.844056">
        <ele>69</ele>
        <time>1970-01-01T01:09:26.000Z</time>
      </trkpt>
      <trkpt lat="43.273356" lon="-2.84406">
        <ele>69</ele>
        <time>1970-01-01T01:09:27.000Z</time>
      </trkpt>
      <trkpt lat="43.273431" lon="-2.844063">
        <ele>69</ele>
        <time>1970-01-01T01:09:28.000Z</time>
      </trkpt>
      <trkpt lat="43.273506" lon="-2.844068">
        <ele>68</ele>
        <time>1970-01-01T01:09:29.000Z</time>
      </trkpt>
      <trkpt lat="43.273585" lon="-2.844075">
        <ele>66.8</ele>
        <time>1970-01-01T01:09:30.000Z</time>
      </trkpt>
      <trkpt lat="43.273666" lon="-2.84408">
        <ele>66.8</ele>
        <time>1970-01-01T01:09:31.000Z</time>
      </trkpt>
      <trkpt lat="43.27375" lon="-2.844081">
        <ele>66.8</ele>
        <time>1970-01-01T01:09:32.000Z</time>
      </trkpt>
      <trkpt lat="43.273836" lon="-2.844081">
        <ele>65.8</ele>
        <time>1970-01-01T01:09:33.000Z</time>
      </trkpt>
      <trkpt lat="43.273925" lon="-2.844085">
        <ele>64</ele>
        <time>1970-01-01T01:09:34.000Z</time>
      </trkpt>
      <trkpt lat="43.274016" lon="-2.844093">
        <ele>64</ele>
        <time>1970-01-01T01:09:35.000Z</time>
      </trkpt>
      <trkpt lat="43.27411" lon="-2.844103">
        <ele>64</ele>
        <time>1970-01-01T01:09:36.000Z</time>
      </trkpt>
      <trkpt lat="43.274206" lon="-2.84411">
        <ele>63</ele>
        <time>1970-01-01T01:09:37.000Z</time>
      </trkpt>
      <trkpt lat="43.274303" lon="-2.844116">
        <ele>61</ele>
        <time>1970-01-01T01:09:38.000Z</time>
      </trkpt>
      <trkpt lat="43.274401" lon="-2.84412">
        <ele>61</ele>
        <time>1970-01-01T01:09:39.000Z</time>
      </trkpt>
      <trkpt lat="43.274503" lon="-2.844121">
        <ele>61</ele>
        <time>1970-01-01T01:09:40.000Z</time>
      </trkpt>
      <trkpt lat="43.274605" lon="-2.844128">
        <ele>60</ele>
        <time>1970-01-01T01:09:41.000Z</time>
      </trkpt>
      <trkpt lat="43.274708" lon="-2.844133">
        <ele>55.8</ele>
        <time>1970-01-01T01:09:42.000Z</time>
      </trkpt>
      <trkpt lat="43.27481" lon="-2.844143">
        <ele>55.8</ele>
        <time>1970-01-01T01:09:43.000Z</time>
      </trkpt>
      <trkpt lat="43.274911" lon="-2.844155">
        <ele>55.8</ele>
        <time>1970-01-01T01:09:44.000Z</time>
      </trkpt>
      <trkpt lat="43.275006" lon="-2.844166">
        <ele>54.8</ele>
        <time>1970-01-01T01:09:45.000Z</time>
      </trkpt>
      <trkpt lat="43.275096" lon="-2.844181">
        <ele>54.2</ele>
        <time>1970-01-01T01:09:46.000Z</time>
      </trkpt>
      <trkpt lat="43.275188" lon="-2.8442">
        <ele>54.2</ele>
        <time>1970-01-01T01:09:47.000Z</time>
      </trkpt>
      <trkpt lat="43.275276" lon="-2.84421">
        <ele>54.2</ele>
        <time>1970-01-01T01:09:48.000Z</time>
      </trkpt>
      <trkpt lat="43.27536" lon="-2.844213">
        <ele>53.2</ele>
        <time>1970-01-01T01:09:49.000Z</time>
      </trkpt>
      <trkpt lat="43.275443" lon="-2.844211">
        <ele>53</ele>
        <time>1970-01-01T01:09:50.000Z</time>
      </trkpt>
      <trkpt lat="43.275526" lon="-2.844211">
        <ele>53</ele>
        <time>1970-01-01T01:09:51.000Z</time>
      </trkpt>
      <trkpt lat="43.275616" lon="-2.84421">
        <ele>53</ele>
        <time>1970-01-01T01:09:52.000Z</time>
      </trkpt>
      <trkpt lat="43.275701" lon="-2.844208">
        <ele>52</ele>
        <time>1970-01-01T01:09:53.000Z</time>
      </trkpt>
      <trkpt lat="43.275778" lon="-2.844205">
        <ele>50</ele>
        <time>1970-01-01T01:09:54.000Z</time>
      </trkpt>
      <trkpt lat="43.27585" lon="-2.844201">
        <ele>50</ele>
        <time>1970-01-01T01:09:55.000Z</time>
      </trkpt>
      <trkpt lat="43.275915" lon="-2.844198">
        <ele>50</ele>
        <time>1970-01-01T01:09:56.000Z</time>
      </trkpt>
      <trkpt lat="43.275971" lon="-2.844196">
        <ele>49</ele>
        <time>1970-01-01T01:09:57.000Z</time>
      </trkpt>
      <trkpt lat="43.276026" lon="-2.844188">
        <ele>47.2</ele>
        <time>1970-01-01T01:09:58.000Z</time>
      </trkpt>
      <trkpt lat="43.276073" lon="-2.844171">
        <ele>47.2</ele>
        <time>1970-01-01T01:09:59.000Z</time>
      </trkpt>
      <trkpt lat="43.276115" lon="-2.844138">
        <ele>47.2</ele>
        <time>1970-01-01T01:10:00.000Z</time>
      </trkpt>
      <trkpt lat="43.27616" lon="-2.844096">
        <ele>46.2</ele>
        <time>1970-01-01T01:10:01.000Z</time>
      </trkpt>
      <trkpt lat="43.276208" lon="-2.844058">
        <ele>45</ele>
        <time>1970-01-01T01:10:02.000Z</time>
      </trkpt>
      <trkpt lat="43.276266" lon="-2.844041">
        <ele>45</ele>
        <time>1970-01-01T01:10:03.000Z</time>
      </trkpt>
      <trkpt lat="43.276323" lon="-2.84406">
        <ele>45</ele>
        <time>1970-01-01T01:10:04.000Z</time>
      </trkpt>
      <trkpt lat="43.27637" lon="-2.844115">
        <ele>45</ele>
        <time>1970-01-01T01:10:05.000Z</time>
      </trkpt>
      <trkpt lat="43.276388" lon="-2.844193">
        <ele>44.6</ele>
        <time>1970-01-01T01:10:06.000Z</time>
      </trkpt>
      <trkpt lat="43.276388" lon="-2.844275">
        <ele>44.6</ele>
        <time>1970-01-01T01:10:07.000Z</time>
      </trkpt>
      <trkpt lat="43.276378" lon="-2.844356">
        <ele>44.6</ele>
        <time>1970-01-01T01:10:08.000Z</time>
      </trkpt>
      <trkpt lat="43.276366" lon="-2.844436">
        <ele>44.6</ele>
        <time>1970-01-01T01:10:09.000Z</time>
      </trkpt>
      <trkpt lat="43.276368" lon="-2.844523">
        <ele>45.2</ele>
        <time>1970-01-01T01:10:10.000Z</time>
      </trkpt>
      <trkpt lat="43.276383" lon="-2.844615">
        <ele>45.2</ele>
        <time>1970-01-01T01:10:11.000Z</time>
      </trkpt>
      <trkpt lat="43.27641" lon="-2.844706">
        <ele>45.2</ele>
        <time>1970-01-01T01:10:12.000Z</time>
      </trkpt>
      <trkpt lat="43.276438" lon="-2.844796">
        <ele>44.4</ele>
        <time>1970-01-01T01:10:13.000Z</time>
      </trkpt>
      <trkpt lat="43.276463" lon="-2.844886">
        <ele>45.4</ele>
        <time>1970-01-01T01:10:14.000Z</time>
      </trkpt>
      <trkpt lat="43.276491" lon="-2.844973">
        <ele>45.4</ele>
        <time>1970-01-01T01:10:15.000Z</time>
      </trkpt>
      <trkpt lat="43.27652" lon="-2.84506">
        <ele>45.4</ele>
        <time>1970-01-01T01:10:16.000Z</time>
      </trkpt>
      <trkpt lat="43.276548" lon="-2.845146">
        <ele>45.4</ele>
        <time>1970-01-01T01:10:17.000Z</time>
      </trkpt>
      <trkpt lat="43.276573" lon="-2.84523">
        <ele>44.6</ele>
        <time>1970-01-01T01:10:18.000Z</time>
      </trkpt>
      <trkpt lat="43.2766" lon="-2.845316">
        <ele>44.6</ele>
        <time>1970-01-01T01:10:19.000Z</time>
      </trkpt>
      <trkpt lat="43.276628" lon="-2.845406">
        <ele>44.6</ele>
        <time>1970-01-01T01:10:20.000Z</time>
      </trkpt>
      <trkpt lat="43.276655" lon="-2.845496">
        <ele>45.6</ele>
        <time>1970-01-01T01:10:21.000Z</time>
      </trkpt>
      <trkpt lat="43.276683" lon="-2.845583">
        <ele>45.4</ele>
        <time>1970-01-01T01:10:22.000Z</time>
      </trkpt>
      <trkpt lat="43.276715" lon="-2.84567">
        <ele>45.4</ele>
        <time>1970-01-01T01:10:23.000Z</time>
      </trkpt>
      <trkpt lat="43.276745" lon="-2.845755">
        <ele>45.4</ele>
        <time>1970-01-01T01:10:24.000Z</time>
      </trkpt>
      <trkpt lat="43.276775" lon="-2.84584">
        <ele>45.4</ele>
        <time>1970-01-01T01:10:25.000Z</time>
      </trkpt>
      <trkpt lat="43.276805" lon="-2.845923">
        <ele>45.4</ele>
        <time>1970-01-01T01:10:26.000Z</time>
      </trkpt>
      <trkpt lat="43.276836" lon="-2.846006">
        <ele>45.4</ele>
        <time>1970-01-01T01:10:27.000Z</time>
      </trkpt>
      <trkpt lat="43.27687" lon="-2.846088">
        <ele>45.4</ele>
        <time>1970-01-01T01:10:28.000Z</time>
      </trkpt>
      <trkpt lat="43.276905" lon="-2.84617">
        <ele>45.4</ele>
        <time>1970-01-01T01:10:29.000Z</time>
      </trkpt>
      <trkpt lat="43.27694" lon="-2.84625">
        <ele>45.2</ele>
        <time>1970-01-01T01:10:30.000Z</time>
      </trkpt>
      <trkpt lat="43.276975" lon="-2.846328">
        <ele>45.2</ele>
        <time>1970-01-01T01:10:31.000Z</time>
      </trkpt>
      <trkpt lat="43.277013" lon="-2.846403">
        <ele>45.2</ele>
        <time>1970-01-01T01:10:32.000Z</time>
      </trkpt>
      <trkpt lat="43.277051" lon="-2.84648">
        <ele>45.2</ele>
        <time>1970-01-01T01:10:33.000Z</time>
      </trkpt>
      <trkpt lat="43.277091" lon="-2.846558">
        <ele>45</ele>
        <time>1970-01-01T01:10:34.000Z</time>
      </trkpt>
      <trkpt lat="43.277135" lon="-2.846645">
        <ele>45</ele>
        <time>1970-01-01T01:10:35.000Z</time>
      </trkpt>
      <trkpt lat="43.277178" lon="-2.846728">
        <ele>45</ele>
        <time>1970-01-01T01:10:36.000Z</time>
      </trkpt>
      <trkpt lat="43.277226" lon="-2.846808">
        <ele>45</ele>
        <time>1970-01-01T01:10:37.000Z</time>
      </trkpt>
      <trkpt lat="43.27727" lon="-2.846893">
        <ele>44.8</ele>
        <time>1970-01-01T01:10:38.000Z</time>
      </trkpt>
      <trkpt lat="43.277311" lon="-2.84698">
        <ele>44.8</ele>
        <time>1970-01-01T01:10:39.000Z</time>
      </trkpt>
      <trkpt lat="43.277353" lon="-2.847066">
        <ele>44.8</ele>
        <time>1970-01-01T01:10:40.000Z</time>
      </trkpt>
      <trkpt lat="43.277393" lon="-2.847153">
        <ele>44.8</ele>
        <time>1970-01-01T01:10:41.000Z</time>
      </trkpt>
      <trkpt lat="43.277436" lon="-2.84724">
        <ele>44.8</ele>
        <time>1970-01-01T01:10:42.000Z</time>
      </trkpt>
      <trkpt lat="43.277478" lon="-2.847325">
        <ele>44.8</ele>
        <time>1970-01-01T01:10:43.000Z</time>
      </trkpt>
      <trkpt lat="43.27752" lon="-2.84741">
        <ele>44.8</ele>
        <time>1970-01-01T01:10:44.000Z</time>
      </trkpt>
      <trkpt lat="43.277561" lon="-2.847495">
        <ele>44</ele>
        <time>1970-01-01T01:10:45.000Z</time>
      </trkpt>
      <trkpt lat="43.2776" lon="-2.84758">
        <ele>44.2</ele>
        <time>1970-01-01T01:10:46.000Z</time>
      </trkpt>
      <trkpt lat="43.277641" lon="-2.847665">
        <ele>44.2</ele>
        <time>1970-01-01T01:10:47.000Z</time>
      </trkpt>
      <trkpt lat="43.277681" lon="-2.847748">
        <ele>44.2</ele>
        <time>1970-01-01T01:10:48.000Z</time>
      </trkpt>
      <trkpt lat="43.277723" lon="-2.847831">
        <ele>44.2</ele>
        <time>1970-01-01T01:10:49.000Z</time>
      </trkpt>
      <trkpt lat="43.277763" lon="-2.847915">
        <ele>44</ele>
        <time>1970-01-01T01:10:50.000Z</time>
      </trkpt>
      <trkpt lat="43.277803" lon="-2.847998">
        <ele>44</ele>
        <time>1970-01-01T01:10:51.000Z</time>
      </trkpt>
      <trkpt lat="43.277843" lon="-2.84808">
        <ele>44</ele>
        <time>1970-01-01T01:10:52.000Z</time>
      </trkpt>
      <trkpt lat="43.277883" lon="-2.84816">
        <ele>44</ele>
        <time>1970-01-01T01:10:53.000Z</time>
      </trkpt>
      <trkpt lat="43.277923" lon="-2.848243">
        <ele>42.8</ele>
        <time>1970-01-01T01:10:54.000Z</time>
      </trkpt>
      <trkpt lat="43.277963" lon="-2.848326">
        <ele>42.8</ele>
        <time>1970-01-01T01:10:55.000Z</time>
      </trkpt>
      <trkpt lat="43.278005" lon="-2.84841">
        <ele>42.8</ele>
        <time>1970-01-01T01:10:56.000Z</time>
      </trkpt>
      <trkpt lat="43.278046" lon="-2.848491">
        <ele>42.8</ele>
        <time>1970-01-01T01:10:57.000Z</time>
      </trkpt>
      <trkpt lat="43.27809" lon="-2.848575">
        <ele>42.8</ele>
        <time>1970-01-01T01:10:58.000Z</time>
      </trkpt>
      <trkpt lat="43.278133" lon="-2.84866">
        <ele>42.8</ele>
        <time>1970-01-01T01:10:59.000Z</time>
      </trkpt>
      <trkpt lat="43.278175" lon="-2.848746">
        <ele>42.8</ele>
        <time>1970-01-01T01:11:00.000Z</time>
      </trkpt>
      <trkpt lat="43.278215" lon="-2.848831">
        <ele>42.8</ele>
        <time>1970-01-01T01:11:01.000Z</time>
      </trkpt>
      <trkpt lat="43.278255" lon="-2.848916">
        <ele>42.4</ele>
        <time>1970-01-01T01:11:02.000Z</time>
      </trkpt>
      <trkpt lat="43.278295" lon="-2.849">
        <ele>42.4</ele>
        <time>1970-01-01T01:11:03.000Z</time>
      </trkpt>
      <trkpt lat="43.278336" lon="-2.849081">
        <ele>42.4</ele>
        <time>1970-01-01T01:11:04.000Z</time>
      </trkpt>
      <trkpt lat="43.278376" lon="-2.849161">
        <ele>42.4</ele>
        <time>1970-01-01T01:11:05.000Z</time>
      </trkpt>
      <trkpt lat="43.278413" lon="-2.849241">
        <ele>42</ele>
        <time>1970-01-01T01:11:06.000Z</time>
      </trkpt>
      <trkpt lat="43.278448" lon="-2.849318">
        <ele>42</ele>
        <time>1970-01-01T01:11:07.000Z</time>
      </trkpt>
      <trkpt lat="43.27848" lon="-2.849395">
        <ele>42</ele>
        <time>1970-01-01T01:11:08.000Z</time>
      </trkpt>
      <trkpt lat="43.278513" lon="-2.84947">
        <ele>41</ele>
        <time>1970-01-01T01:11:09.000Z</time>
      </trkpt>
      <trkpt lat="43.278555" lon="-2.84954">
        <ele>41</ele>
        <time>1970-01-01T01:11:10.000Z</time>
      </trkpt>
      <trkpt lat="43.278605" lon="-2.849598">
        <ele>41</ele>
        <time>1970-01-01T01:11:11.000Z</time>
      </trkpt>
      <trkpt lat="43.278658" lon="-2.849653">
        <ele>41</ele>
        <time>1970-01-01T01:11:12.000Z</time>
      </trkpt>
      <trkpt lat="43.278703" lon="-2.849716">
        <ele>41.4</ele>
        <time>1970-01-01T01:11:13.000Z</time>
      </trkpt>
      <trkpt lat="43.278733" lon="-2.849791">
        <ele>41.2</ele>
        <time>1970-01-01T01:11:14.000Z</time>
      </trkpt>
      <trkpt lat="43.278743" lon="-2.849876">
        <ele>41.2</ele>
        <time>1970-01-01T01:11:15.000Z</time>
      </trkpt>
      <trkpt lat="43.278745" lon="-2.849966">
        <ele>41.2</ele>
        <time>1970-01-01T01:11:16.000Z</time>
      </trkpt>
      <trkpt lat="43.27876" lon="-2.85006">
        <ele>40.6</ele>
        <time>1970-01-01T01:11:17.000Z</time>
      </trkpt>
      <trkpt lat="43.278786" lon="-2.850151">
        <ele>39.4</ele>
        <time>1970-01-01T01:11:18.000Z</time>
      </trkpt>
      <trkpt lat="43.278821" lon="-2.850243">
        <ele>39.4</ele>
        <time>1970-01-01T01:11:19.000Z</time>
      </trkpt>
      <trkpt lat="43.278856" lon="-2.850335">
        <ele>39.4</ele>
        <time>1970-01-01T01:11:20.000Z</time>
      </trkpt>
      <trkpt lat="43.278895" lon="-2.850425">
        <ele>39.4</ele>
        <time>1970-01-01T01:11:21.000Z</time>
      </trkpt>
      <trkpt lat="43.27893" lon="-2.850518">
        <ele>38.8</ele>
        <time>1970-01-01T01:11:22.000Z</time>
      </trkpt>
      <trkpt lat="43.278966" lon="-2.850608">
        <ele>38.8</ele>
        <time>1970-01-01T01:11:23.000Z</time>
      </trkpt>
      <trkpt lat="43.279001" lon="-2.850698">
        <ele>38.8</ele>
        <time>1970-01-01T01:11:24.000Z</time>
      </trkpt>
      <trkpt lat="43.279036" lon="-2.850788">
        <ele>37.8</ele>
        <time>1970-01-01T01:11:25.000Z</time>
      </trkpt>
      <trkpt lat="43.279073" lon="-2.850875">
        <ele>39</ele>
        <time>1970-01-01T01:11:26.000Z</time>
      </trkpt>
      <trkpt lat="43.279108" lon="-2.850961">
        <ele>39</ele>
        <time>1970-01-01T01:11:27.000Z</time>
      </trkpt>
      <trkpt lat="43.279143" lon="-2.851048">
        <ele>39</ele>
        <time>1970-01-01T01:11:28.000Z</time>
      </trkpt>
      <trkpt lat="43.279178" lon="-2.851135">
        <ele>39</ele>
        <time>1970-01-01T01:11:29.000Z</time>
      </trkpt>
      <trkpt lat="43.279213" lon="-2.85122">
        <ele>38.8</ele>
        <time>1970-01-01T01:11:30.000Z</time>
      </trkpt>
      <trkpt lat="43.279246" lon="-2.851303">
        <ele>38.8</ele>
        <time>1970-01-01T01:11:31.000Z</time>
      </trkpt>
      <trkpt lat="43.279278" lon="-2.851388">
        <ele>38.8</ele>
        <time>1970-01-01T01:11:32.000Z</time>
      </trkpt>
      <trkpt lat="43.279311" lon="-2.851473">
        <ele>38.6</ele>
        <time>1970-01-01T01:11:33.000Z</time>
      </trkpt>
      <trkpt lat="43.279343" lon="-2.851556">
        <ele>38.8</ele>
        <time>1970-01-01T01:11:34.000Z</time>
      </trkpt>
      <trkpt lat="43.279376" lon="-2.851638">
        <ele>38.8</ele>
        <time>1970-01-01T01:11:35.000Z</time>
      </trkpt>
      <trkpt lat="43.279408" lon="-2.851718">
        <ele>38.8</ele>
        <time>1970-01-01T01:11:36.000Z</time>
      </trkpt>
      <trkpt lat="43.279438" lon="-2.851795">
        <ele>38.2</ele>
        <time>1970-01-01T01:11:37.000Z</time>
      </trkpt>
      <trkpt lat="43.279468" lon="-2.851871">
        <ele>38.2</ele>
        <time>1970-01-01T01:11:38.000Z</time>
      </trkpt>
      <trkpt lat="43.279498" lon="-2.851943">
        <ele>38.2</ele>
        <time>1970-01-01T01:11:39.000Z</time>
      </trkpt>
      <trkpt lat="43.27953" lon="-2.852011">
        <ele>38.2</ele>
        <time>1970-01-01T01:11:40.000Z</time>
      </trkpt>
      <trkpt lat="43.279561" lon="-2.85208">
        <ele>37.8</ele>
        <time>1970-01-01T01:11:41.000Z</time>
      </trkpt>
      <trkpt lat="43.27959" lon="-2.852146">
        <ele>38.2</ele>
        <time>1970-01-01T01:11:42.000Z</time>
      </trkpt>
      <trkpt lat="43.279616" lon="-2.852205">
        <ele>38.2</ele>
        <time>1970-01-01T01:11:43.000Z</time>
      </trkpt>
      <trkpt lat="43.27964" lon="-2.852271">
        <ele>38.2</ele>
        <time>1970-01-01T01:11:44.000Z</time>
      </trkpt>
      <trkpt lat="43.279665" lon="-2.852341">
        <ele>38.2</ele>
        <time>1970-01-01T01:11:45.000Z</time>
      </trkpt>
      <trkpt lat="43.279691" lon="-2.852413">
        <ele>37.8</ele>
        <time>1970-01-01T01:11:46.000Z</time>
      </trkpt>
      <trkpt lat="43.279718" lon="-2.852486">
        <ele>37.8</ele>
        <time>1970-01-01T01:11:47.000Z</time>
      </trkpt>
      <trkpt lat="43.279746" lon="-2.852558">
        <ele>37.8</ele>
        <time>1970-01-01T01:11:48.000Z</time>
      </trkpt>
      <trkpt lat="43.279775" lon="-2.85263">
        <ele>37.8</ele>
        <time>1970-01-01T01:11:49.000Z</time>
      </trkpt>
      <trkpt lat="43.279803" lon="-2.852701">
        <ele>37.8</ele>
        <time>1970-01-01T01:11:50.000Z</time>
      </trkpt>
      <trkpt lat="43.279828" lon="-2.852775">
        <ele>37.8</ele>
        <time>1970-01-01T01:11:51.000Z</time>
      </trkpt>
      <trkpt lat="43.279855" lon="-2.852846">
        <ele>37.8</ele>
        <time>1970-01-01T01:11:52.000Z</time>
      </trkpt>
      <trkpt lat="43.279883" lon="-2.852916">
        <ele>37.8</ele>
        <time>1970-01-01T01:11:53.000Z</time>
      </trkpt>
      <trkpt lat="43.279911" lon="-2.85299">
        <ele>37.8</ele>
        <time>1970-01-01T01:11:54.000Z</time>
      </trkpt>
      <trkpt lat="43.279941" lon="-2.853065">
        <ele>37.8</ele>
        <time>1970-01-01T01:11:55.000Z</time>
      </trkpt>
      <trkpt lat="43.27997" lon="-2.85314">
        <ele>37.8</ele>
        <time>1970-01-01T01:11:56.000Z</time>
      </trkpt>
      <trkpt lat="43.28" lon="-2.853213">
        <ele>37.8</ele>
        <time>1970-01-01T01:11:57.000Z</time>
      </trkpt>
      <trkpt lat="43.280028" lon="-2.853286">
        <ele>37.4</ele>
        <time>1970-01-01T01:11:58.000Z</time>
      </trkpt>
      <trkpt lat="43.280056" lon="-2.85336">
        <ele>37.4</ele>
        <time>1970-01-01T01:11:59.000Z</time>
      </trkpt>
      <trkpt lat="43.280081" lon="-2.85343">
        <ele>37.4</ele>
        <time>1970-01-01T01:12:00.000Z</time>
      </trkpt>
      <trkpt lat="43.280105" lon="-2.853485">
        <ele>37.4</ele>
        <time>1970-01-01T01:12:01.000Z</time>
      </trkpt>
      <trkpt lat="43.280131" lon="-2.85354">
        <ele>37</ele>
        <time>1970-01-01T01:12:02.000Z</time>
      </trkpt>
      <trkpt lat="43.28016" lon="-2.8536">
        <ele>37</ele>
        <time>1970-01-01T01:12:03.000Z</time>
      </trkpt>
      <trkpt lat="43.280186" lon="-2.853666">
        <ele>37</ele>
        <time>1970-01-01T01:12:04.000Z</time>
      </trkpt>
      <trkpt lat="43.280211" lon="-2.853738">
        <ele>37.8</ele>
        <time>1970-01-01T01:12:05.000Z</time>
      </trkpt>
      <trkpt lat="43.280238" lon="-2.853811">
        <ele>37.6</ele>
        <time>1970-01-01T01:12:06.000Z</time>
      </trkpt>
      <trkpt lat="43.280268" lon="-2.85388">
        <ele>37.6</ele>
        <time>1970-01-01T01:12:07.000Z</time>
      </trkpt>
      <trkpt lat="43.2803" lon="-2.853948">
        <ele>37.6</ele>
        <time>1970-01-01T01:12:08.000Z</time>
      </trkpt>
      <trkpt lat="43.280335" lon="-2.854013">
        <ele>37.6</ele>
        <time>1970-01-01T01:12:09.000Z</time>
      </trkpt>
      <trkpt lat="43.28037" lon="-2.85408">
        <ele>37.4</ele>
        <time>1970-01-01T01:12:10.000Z</time>
      </trkpt>
      <trkpt lat="43.28041" lon="-2.854141">
        <ele>37.4</ele>
        <time>1970-01-01T01:12:11.000Z</time>
      </trkpt>
      <trkpt lat="43.280453" lon="-2.854198">
        <ele>37.4</ele>
        <time>1970-01-01T01:12:12.000Z</time>
      </trkpt>
      <trkpt lat="43.280496" lon="-2.854255">
        <ele>37.2</ele>
        <time>1970-01-01T01:12:13.000Z</time>
      </trkpt>
      <trkpt lat="43.280541" lon="-2.85431">
        <ele>37</ele>
        <time>1970-01-01T01:12:14.000Z</time>
      </trkpt>
      <trkpt lat="43.280591" lon="-2.854358">
        <ele>37</ele>
        <time>1970-01-01T01:12:15.000Z</time>
      </trkpt>
      <trkpt lat="43.280641" lon="-2.854403">
        <ele>37</ele>
        <time>1970-01-01T01:12:16.000Z</time>
      </trkpt>
      <trkpt lat="43.280695" lon="-2.854446">
        <ele>37</ele>
        <time>1970-01-01T01:12:17.000Z</time>
      </trkpt>
      <trkpt lat="43.28075" lon="-2.854483">
        <ele>36.8</ele>
        <time>1970-01-01T01:12:18.000Z</time>
      </trkpt>
      <trkpt lat="43.280806" lon="-2.854513">
        <ele>36.8</ele>
        <time>1970-01-01T01:12:19.000Z</time>
      </trkpt>
      <trkpt lat="43.280866" lon="-2.85454">
        <ele>36.8</ele>
        <time>1970-01-01T01:12:20.000Z</time>
      </trkpt>
      <trkpt lat="43.280925" lon="-2.854565">
        <ele>36.8</ele>
        <time>1970-01-01T01:12:21.000Z</time>
      </trkpt>
      <trkpt lat="43.280983" lon="-2.854586">
        <ele>36.6</ele>
        <time>1970-01-01T01:12:22.000Z</time>
      </trkpt>
      <trkpt lat="43.281041" lon="-2.854603">
        <ele>36.6</ele>
        <time>1970-01-01T01:12:23.000Z</time>
      </trkpt>
      <trkpt lat="43.2811" lon="-2.854623">
        <ele>36.6</ele>
        <time>1970-01-01T01:12:24.000Z</time>
      </trkpt>
      <trkpt lat="43.28116" lon="-2.854643">
        <ele>36.6</ele>
        <time>1970-01-01T01:12:25.000Z</time>
      </trkpt>
      <trkpt lat="43.281221" lon="-2.85466">
        <ele>36.2</ele>
        <time>1970-01-01T01:12:26.000Z</time>
      </trkpt>
      <trkpt lat="43.281283" lon="-2.854671">
        <ele>36.2</ele>
        <time>1970-01-01T01:12:27.000Z</time>
      </trkpt>
      <trkpt lat="43.281345" lon="-2.854685">
        <ele>36.2</ele>
        <time>1970-01-01T01:12:28.000Z</time>
      </trkpt>
      <trkpt lat="43.281403" lon="-2.854698">
        <ele>36.2</ele>
        <time>1970-01-01T01:12:29.000Z</time>
      </trkpt>
      <trkpt lat="43.281465" lon="-2.854715">
        <ele>36.4</ele>
        <time>1970-01-01T01:12:30.000Z</time>
      </trkpt>
      <trkpt lat="43.28152" lon="-2.854733">
        <ele>36.4</ele>
        <time>1970-01-01T01:12:31.000Z</time>
      </trkpt>
      <trkpt lat="43.281585" lon="-2.85475">
        <ele>36.4</ele>
        <time>1970-01-01T01:12:32.000Z</time>
      </trkpt>
      <trkpt lat="43.281651" lon="-2.854766">
        <ele>35.4</ele>
        <time>1970-01-01T01:12:33.000Z</time>
      </trkpt>
      <trkpt lat="43.281716" lon="-2.85478">
        <ele>35.6</ele>
        <time>1970-01-01T01:12:34.000Z</time>
      </trkpt>
      <trkpt lat="43.281781" lon="-2.854791">
        <ele>35.6</ele>
        <time>1970-01-01T01:12:35.000Z</time>
      </trkpt>
      <trkpt lat="43.281846" lon="-2.854803">
        <ele>35.6</ele>
        <time>1970-01-01T01:12:36.000Z</time>
      </trkpt>
      <trkpt lat="43.281915" lon="-2.854813">
        <ele>35.6</ele>
        <time>1970-01-01T01:12:37.000Z</time>
      </trkpt>
      <trkpt lat="43.28198" lon="-2.854828">
        <ele>35.2</ele>
        <time>1970-01-01T01:12:38.000Z</time>
      </trkpt>
      <trkpt lat="43.282046" lon="-2.854845">
        <ele>35.2</ele>
        <time>1970-01-01T01:12:39.000Z</time>
      </trkpt>
      <trkpt lat="43.282111" lon="-2.854863">
        <ele>35.2</ele>
        <time>1970-01-01T01:12:40.000Z</time>
      </trkpt>
      <trkpt lat="43.282173" lon="-2.854885">
        <ele>35.4</ele>
        <time>1970-01-01T01:12:41.000Z</time>
      </trkpt>
      <trkpt lat="43.28224" lon="-2.854898">
        <ele>35</ele>
        <time>1970-01-01T01:12:42.000Z</time>
      </trkpt>
      <trkpt lat="43.282306" lon="-2.854913">
        <ele>35</ele>
        <time>1970-01-01T01:12:43.000Z</time>
      </trkpt>
      <trkpt lat="43.282375" lon="-2.85493">
        <ele>35</ele>
        <time>1970-01-01T01:12:44.000Z</time>
      </trkpt>
      <trkpt lat="43.282443" lon="-2.854946">
        <ele>35</ele>
        <time>1970-01-01T01:12:45.000Z</time>
      </trkpt>
      <trkpt lat="43.282511" lon="-2.854963">
        <ele>34.6</ele>
        <time>1970-01-01T01:12:46.000Z</time>
      </trkpt>
      <trkpt lat="43.28258" lon="-2.85498">
        <ele>34.6</ele>
        <time>1970-01-01T01:12:47.000Z</time>
      </trkpt>
      <trkpt lat="43.28265" lon="-2.854998">
        <ele>34.6</ele>
        <time>1970-01-01T01:12:48.000Z</time>
      </trkpt>
      <trkpt lat="43.282718" lon="-2.855013">
        <ele>34.6</ele>
        <time>1970-01-01T01:12:49.000Z</time>
      </trkpt>
      <trkpt lat="43.282788" lon="-2.855026">
        <ele>35.2</ele>
        <time>1970-01-01T01:12:50.000Z</time>
      </trkpt>
      <trkpt lat="43.28286" lon="-2.855041">
        <ele>35.2</ele>
        <time>1970-01-01T01:12:51.000Z</time>
      </trkpt>
      <trkpt lat="43.282931" lon="-2.85506">
        <ele>35.2</ele>
        <time>1970-01-01T01:12:52.000Z</time>
      </trkpt>
      <trkpt lat="43.283003" lon="-2.855078">
        <ele>34.2</ele>
        <time>1970-01-01T01:12:53.000Z</time>
      </trkpt>
      <trkpt lat="43.283073" lon="-2.855095">
        <ele>34</ele>
        <time>1970-01-01T01:12:54.000Z</time>
      </trkpt>
      <trkpt lat="43.283145" lon="-2.855111">
        <ele>34</ele>
        <time>1970-01-01T01:12:55.000Z</time>
      </trkpt>
      <trkpt lat="43.283216" lon="-2.855126">
        <ele>34</ele>
        <time>1970-01-01T01:12:56.000Z</time>
      </trkpt>
      <trkpt lat="43.283286" lon="-2.855143">
        <ele>34</ele>
        <time>1970-01-01T01:12:57.000Z</time>
      </trkpt>
      <trkpt lat="43.283356" lon="-2.855158">
        <ele>34</ele>
        <time>1970-01-01T01:12:58.000Z</time>
      </trkpt>
      <trkpt lat="43.283426" lon="-2.855173">
        <ele>34</ele>
        <time>1970-01-01T01:12:59.000Z</time>
      </trkpt>
      <trkpt lat="43.283493" lon="-2.85519">
        <ele>34</ele>
        <time>1970-01-01T01:13:00.000Z</time>
      </trkpt>
      <trkpt lat="43.28356" lon="-2.855208">
        <ele>33.6</ele>
        <time>1970-01-01T01:13:01.000Z</time>
      </trkpt>
      <trkpt lat="43.283628" lon="-2.855226">
        <ele>33.6</ele>
        <time>1970-01-01T01:13:02.000Z</time>
      </trkpt>
      <trkpt lat="43.283696" lon="-2.855243">
        <ele>33.6</ele>
        <time>1970-01-01T01:13:03.000Z</time>
      </trkpt>
      <trkpt lat="43.283763" lon="-2.855265">
        <ele>33.6</ele>
        <time>1970-01-01T01:13:04.000Z</time>
      </trkpt>
      <trkpt lat="43.28383" lon="-2.855286">
        <ele>33</ele>
        <time>1970-01-01T01:13:05.000Z</time>
      </trkpt>
      <trkpt lat="43.283896" lon="-2.855306">
        <ele>33</ele>
        <time>1970-01-01T01:13:06.000Z</time>
      </trkpt>
      <trkpt lat="43.283958" lon="-2.85533">
        <ele>33.2</ele>
        <time>1970-01-01T01:13:07.000Z</time>
      </trkpt>
      <trkpt lat="43.284021" lon="-2.85536">
        <ele>33.2</ele>
        <time>1970-01-01T01:13:08.000Z</time>
      </trkpt>
      <trkpt lat="43.284081" lon="-2.855395">
        <ele>33.2</ele>
        <time>1970-01-01T01:13:09.000Z</time>
      </trkpt>
      <trkpt lat="43.28414" lon="-2.855431">
        <ele>32.6</ele>
        <time>1970-01-01T01:13:10.000Z</time>
      </trkpt>
      <trkpt lat="43.284196" lon="-2.85547">
        <ele>32.6</ele>
        <time>1970-01-01T01:13:11.000Z</time>
      </trkpt>
      <trkpt lat="43.284253" lon="-2.855506">
        <ele>32.6</ele>
        <time>1970-01-01T01:13:12.000Z</time>
      </trkpt>
      <trkpt lat="43.284308" lon="-2.855548">
        <ele>32.6</ele>
        <time>1970-01-01T01:13:13.000Z</time>
      </trkpt>
      <trkpt lat="43.284361" lon="-2.855593">
        <ele>32.6</ele>
        <time>1970-01-01T01:13:14.000Z</time>
      </trkpt>
      <trkpt lat="43.284413" lon="-2.85564">
        <ele>32.6</ele>
        <time>1970-01-01T01:13:15.000Z</time>
      </trkpt>
      <trkpt lat="43.284465" lon="-2.855688">
        <ele>32.6</ele>
        <time>1970-01-01T01:13:16.000Z</time>
      </trkpt>
      <trkpt lat="43.284513" lon="-2.85574">
        <ele>32.6</ele>
        <time>1970-01-01T01:13:17.000Z</time>
      </trkpt>
      <trkpt lat="43.28456" lon="-2.855795">
        <ele>32.6</ele>
        <time>1970-01-01T01:13:18.000Z</time>
      </trkpt>
      <trkpt lat="43.284605" lon="-2.85585">
        <ele>32.6</ele>
        <time>1970-01-01T01:13:19.000Z</time>
      </trkpt>
      <trkpt lat="43.28465" lon="-2.855905">
        <ele>32.6</ele>
        <time>1970-01-01T01:13:20.000Z</time>
      </trkpt>
      <trkpt lat="43.284693" lon="-2.855961">
        <ele>32.6</ele>
        <time>1970-01-01T01:13:21.000Z</time>
      </trkpt>
      <trkpt lat="43.284735" lon="-2.856018">
        <ele>32.4</ele>
        <time>1970-01-01T01:13:22.000Z</time>
      </trkpt>
      <trkpt lat="43.284775" lon="-2.856078">
        <ele>32.4</ele>
        <time>1970-01-01T01:13:23.000Z</time>
      </trkpt>
      <trkpt lat="43.284815" lon="-2.856138">
        <ele>32.4</ele>
        <time>1970-01-01T01:13:24.000Z</time>
      </trkpt>
      <trkpt lat="43.284853" lon="-2.856201">
        <ele>32.4</ele>
        <time>1970-01-01T01:13:25.000Z</time>
      </trkpt>
      <trkpt lat="43.28489" lon="-2.856266">
        <ele>32.4</ele>
        <time>1970-01-01T01:13:26.000Z</time>
      </trkpt>
      <trkpt lat="43.284923" lon="-2.856335">
        <ele>32.4</ele>
        <time>1970-01-01T01:13:27.000Z</time>
      </trkpt>
      <trkpt lat="43.284955" lon="-2.856403">
        <ele>32.4</ele>
        <time>1970-01-01T01:13:28.000Z</time>
      </trkpt>
      <trkpt lat="43.284985" lon="-2.856471">
        <ele>32.4</ele>
        <time>1970-01-01T01:13:29.000Z</time>
      </trkpt>
      <trkpt lat="43.285013" lon="-2.856545">
        <ele>32</ele>
        <time>1970-01-01T01:13:30.000Z</time>
      </trkpt>
      <trkpt lat="43.28504" lon="-2.856616">
        <ele>32</ele>
        <time>1970-01-01T01:13:31.000Z</time>
      </trkpt>
      <trkpt lat="43.285066" lon="-2.856693">
        <ele>32</ele>
        <time>1970-01-01T01:13:32.000Z</time>
      </trkpt>
      <trkpt lat="43.285095" lon="-2.856768">
        <ele>32.6</ele>
        <time>1970-01-01T01:13:33.000Z</time>
      </trkpt>
      <trkpt lat="43.28512" lon="-2.856846">
        <ele>32.2</ele>
        <time>1970-01-01T01:13:34.000Z</time>
      </trkpt>
      <trkpt lat="43.285141" lon="-2.856926">
        <ele>32.2</ele>
        <time>1970-01-01T01:13:35.000Z</time>
      </trkpt>
      <trkpt lat="43.285161" lon="-2.857006">
        <ele>32.2</ele>
        <time>1970-01-01T01:13:36.000Z</time>
      </trkpt>
      <trkpt lat="43.285181" lon="-2.857086">
        <ele>32.2</ele>
        <time>1970-01-01T01:13:37.000Z</time>
      </trkpt>
      <trkpt lat="43.2852" lon="-2.857166">
        <ele>32.4</ele>
        <time>1970-01-01T01:13:38.000Z</time>
      </trkpt>
      <trkpt lat="43.28522" lon="-2.857246">
        <ele>32.4</ele>
        <time>1970-01-01T01:13:39.000Z</time>
      </trkpt>
      <trkpt lat="43.28524" lon="-2.857325">
        <ele>32.4</ele>
        <time>1970-01-01T01:13:40.000Z</time>
      </trkpt>
      <trkpt lat="43.28526" lon="-2.857403">
        <ele>32.2</ele>
        <time>1970-01-01T01:13:41.000Z</time>
      </trkpt>
      <trkpt lat="43.285278" lon="-2.857485">
        <ele>32.2</ele>
        <time>1970-01-01T01:13:42.000Z</time>
      </trkpt>
      <trkpt lat="43.285298" lon="-2.857565">
        <ele>32</ele>
        <time>1970-01-01T01:13:43.000Z</time>
      </trkpt>
      <trkpt lat="43.28532" lon="-2.857643">
        <ele>32</ele>
        <time>1970-01-01T01:13:44.000Z</time>
      </trkpt>
      <trkpt lat="43.28534" lon="-2.857721">
        <ele>32.2</ele>
        <time>1970-01-01T01:13:45.000Z</time>
      </trkpt>
      <trkpt lat="43.28536" lon="-2.857798">
        <ele>32.6</ele>
        <time>1970-01-01T01:13:46.000Z</time>
      </trkpt>
      <trkpt lat="43.28538" lon="-2.857876">
        <ele>32.6</ele>
        <time>1970-01-01T01:13:47.000Z</time>
      </trkpt>
      <trkpt lat="43.285398" lon="-2.857951">
        <ele>32.6</ele>
        <time>1970-01-01T01:13:48.000Z</time>
      </trkpt>
      <trkpt lat="43.285416" lon="-2.858025">
        <ele>32.4</ele>
        <time>1970-01-01T01:13:49.000Z</time>
      </trkpt>
      <trkpt lat="43.285431" lon="-2.858095">
        <ele>32.4</ele>
        <time>1970-01-01T01:13:50.000Z</time>
      </trkpt>
      <trkpt lat="43.285445" lon="-2.858165">
        <ele>32</ele>
        <time>1970-01-01T01:13:51.000Z</time>
      </trkpt>
      <trkpt lat="43.285465" lon="-2.858231">
        <ele>32</ele>
        <time>1970-01-01T01:13:52.000Z</time>
      </trkpt>
      <trkpt lat="43.2855" lon="-2.858281">
        <ele>32</ele>
        <time>1970-01-01T01:13:53.000Z</time>
      </trkpt>
      <trkpt lat="43.285545" lon="-2.858298">
        <ele>31.8</ele>
        <time>1970-01-01T01:13:54.000Z</time>
      </trkpt>
      <trkpt lat="43.285593" lon="-2.858288">
        <ele>31.8</ele>
        <time>1970-01-01T01:13:55.000Z</time>
      </trkpt>
      <trkpt lat="43.285638" lon="-2.85826">
        <ele>31.8</ele>
        <time>1970-01-01T01:13:56.000Z</time>
      </trkpt>
      <trkpt lat="43.285683" lon="-2.858228">
        <ele>32.6</ele>
        <time>1970-01-01T01:13:57.000Z</time>
      </trkpt>
      <trkpt lat="43.285728" lon="-2.858198">
        <ele>32.8</ele>
        <time>1970-01-01T01:13:58.000Z</time>
      </trkpt>
      <trkpt lat="43.285775" lon="-2.85817">
        <ele>32.8</ele>
        <time>1970-01-01T01:13:59.000Z</time>
      </trkpt>
      <trkpt lat="43.285818" lon="-2.85814">
        <ele>32.8</ele>
        <time>1970-01-01T01:14:00.000Z</time>
      </trkpt>
      <trkpt lat="43.285858" lon="-2.858111">
        <ele>32.8</ele>
        <time>1970-01-01T01:14:01.000Z</time>
      </trkpt>
      <trkpt lat="43.285901" lon="-2.858086">
        <ele>33.4</ele>
        <time>1970-01-01T01:14:02.000Z</time>
      </trkpt>
      <trkpt lat="43.285941" lon="-2.85805">
        <ele>33.4</ele>
        <time>1970-01-01T01:14:03.000Z</time>
      </trkpt>
      <trkpt lat="43.285986" lon="-2.858018">
        <ele>33.4</ele>
        <time>1970-01-01T01:14:04.000Z</time>
      </trkpt>
      <trkpt lat="43.286033" lon="-2.857986">
        <ele>34</ele>
        <time>1970-01-01T01:14:05.000Z</time>
      </trkpt>
      <trkpt lat="43.28608" lon="-2.857956">
        <ele>34</ele>
        <time>1970-01-01T01:14:06.000Z</time>
      </trkpt>
      <trkpt lat="43.286126" lon="-2.857925">
        <ele>34</ele>
        <time>1970-01-01T01:14:07.000Z</time>
      </trkpt>
      <trkpt lat="43.28617" lon="-2.857891">
        <ele>34</ele>
        <time>1970-01-01T01:14:08.000Z</time>
      </trkpt>
      <trkpt lat="43.286216" lon="-2.857855">
        <ele>34.4</ele>
        <time>1970-01-01T01:14:09.000Z</time>
      </trkpt>
      <trkpt lat="43.286261" lon="-2.857821">
        <ele>34.2</ele>
        <time>1970-01-01T01:14:10.000Z</time>
      </trkpt>
      <trkpt lat="43.286308" lon="-2.857788">
        <ele>34.2</ele>
        <time>1970-01-01T01:14:11.000Z</time>
      </trkpt>
      <trkpt lat="43.286355" lon="-2.857755">
        <ele>34.2</ele>
        <time>1970-01-01T01:14:12.000Z</time>
      </trkpt>
      <trkpt lat="43.286401" lon="-2.857721">
        <ele>34.8</ele>
        <time>1970-01-01T01:14:13.000Z</time>
      </trkpt>
      <trkpt lat="43.286446" lon="-2.857686">
        <ele>35</ele>
        <time>1970-01-01T01:14:14.000Z</time>
      </trkpt>
      <trkpt lat="43.286493" lon="-2.857651">
        <ele>35</ele>
        <time>1970-01-01T01:14:15.000Z</time>
      </trkpt>
      <trkpt lat="43.28654" lon="-2.857615">
        <ele>35</ele>
        <time>1970-01-01T01:14:16.000Z</time>
      </trkpt>
      <trkpt lat="43.286585" lon="-2.857576">
        <ele>35</ele>
        <time>1970-01-01T01:14:17.000Z</time>
      </trkpt>
      <trkpt lat="43.28663" lon="-2.857541">
        <ele>35.4</ele>
        <time>1970-01-01T01:14:18.000Z</time>
      </trkpt>
      <trkpt lat="43.286676" lon="-2.85751">
        <ele>35.4</ele>
        <time>1970-01-01T01:14:19.000Z</time>
      </trkpt>
      <trkpt lat="43.286723" lon="-2.857481">
        <ele>35.4</ele>
        <time>1970-01-01T01:14:20.000Z</time>
      </trkpt>
      <trkpt lat="43.286765" lon="-2.857448">
        <ele>35.8</ele>
        <time>1970-01-01T01:14:21.000Z</time>
      </trkpt>
      <trkpt lat="43.286806" lon="-2.857411">
        <ele>35.2</ele>
        <time>1970-01-01T01:14:22.000Z</time>
      </trkpt>
      <trkpt lat="43.286848" lon="-2.857375">
        <ele>35.2</ele>
        <time>1970-01-01T01:14:23.000Z</time>
      </trkpt>
      <trkpt lat="43.28689" lon="-2.857335">
        <ele>35.2</ele>
        <time>1970-01-01T01:14:24.000Z</time>
      </trkpt>
      <trkpt lat="43.28693" lon="-2.857291">
        <ele>35.8</ele>
        <time>1970-01-01T01:14:25.000Z</time>
      </trkpt>
      <trkpt lat="43.286971" lon="-2.857248">
        <ele>35.8</ele>
        <time>1970-01-01T01:14:26.000Z</time>
      </trkpt>
      <trkpt lat="43.287015" lon="-2.85721">
        <ele>36</ele>
        <time>1970-01-01T01:14:27.000Z</time>
      </trkpt>
      <trkpt lat="43.287056" lon="-2.857171">
        <ele>36</ele>
        <time>1970-01-01T01:14:28.000Z</time>
      </trkpt>
      <trkpt lat="43.2871" lon="-2.857133">
        <ele>36</ele>
        <time>1970-01-01T01:14:29.000Z</time>
      </trkpt>
      <trkpt lat="43.287143" lon="-2.857096">
        <ele>36</ele>
        <time>1970-01-01T01:14:30.000Z</time>
      </trkpt>
      <trkpt lat="43.287185" lon="-2.857061">
        <ele>36</ele>
        <time>1970-01-01T01:14:31.000Z</time>
      </trkpt>
      <trkpt lat="43.28723" lon="-2.85703">
        <ele>36</ele>
        <time>1970-01-01T01:14:32.000Z</time>
      </trkpt>
      <trkpt lat="43.287275" lon="-2.856998">
        <ele>36</ele>
        <time>1970-01-01T01:14:33.000Z</time>
      </trkpt>
      <trkpt lat="43.28732" lon="-2.856963">
        <ele>36</ele>
        <time>1970-01-01T01:14:34.000Z</time>
      </trkpt>
      <trkpt lat="43.287366" lon="-2.856931">
        <ele>36.2</ele>
        <time>1970-01-01T01:14:35.000Z</time>
      </trkpt>
      <trkpt lat="43.287413" lon="-2.856901">
        <ele>36.2</ele>
        <time>1970-01-01T01:14:36.000Z</time>
      </trkpt>
      <trkpt lat="43.287458" lon="-2.856866">
        <ele>36.2</ele>
        <time>1970-01-01T01:14:37.000Z</time>
      </trkpt>
      <trkpt lat="43.287506" lon="-2.856833">
        <ele>36.8</ele>
        <time>1970-01-01T01:14:38.000Z</time>
      </trkpt>
      <trkpt lat="43.287555" lon="-2.856801">
        <ele>36.8</ele>
        <time>1970-01-01T01:14:39.000Z</time>
      </trkpt>
      <trkpt lat="43.287603" lon="-2.856768">
        <ele>36.8</ele>
        <time>1970-01-01T01:14:40.000Z</time>
      </trkpt>
      <trkpt lat="43.28765" lon="-2.856735">
        <ele>37</ele>
        <time>1970-01-01T01:14:41.000Z</time>
      </trkpt>
      <trkpt lat="43.287698" lon="-2.856703">
        <ele>37.2</ele>
        <time>1970-01-01T01:14:42.000Z</time>
      </trkpt>
      <trkpt lat="43.287746" lon="-2.856675">
        <ele>37.2</ele>
        <time>1970-01-01T01:14:43.000Z</time>
      </trkpt>
      <trkpt lat="43.287793" lon="-2.856643">
        <ele>37.2</ele>
        <time>1970-01-01T01:14:44.000Z</time>
      </trkpt>
      <trkpt lat="43.287838" lon="-2.856611">
        <ele>37.2</ele>
        <time>1970-01-01T01:14:45.000Z</time>
      </trkpt>
      <trkpt lat="43.287886" lon="-2.85658">
        <ele>37.8</ele>
        <time>1970-01-01T01:14:46.000Z</time>
      </trkpt>
      <trkpt lat="43.287935" lon="-2.856551">
        <ele>37.8</ele>
        <time>1970-01-01T01:14:47.000Z</time>
      </trkpt>
      <trkpt lat="43.287983" lon="-2.856521">
        <ele>37.8</ele>
        <time>1970-01-01T01:14:48.000Z</time>
      </trkpt>
      <trkpt lat="43.28803" lon="-2.856491">
        <ele>38</ele>
        <time>1970-01-01T01:14:49.000Z</time>
      </trkpt>
      <trkpt lat="43.288075" lon="-2.856461">
        <ele>39</ele>
        <time>1970-01-01T01:14:50.000Z</time>
      </trkpt>
      <trkpt lat="43.288123" lon="-2.856431">
        <ele>39</ele>
        <time>1970-01-01T01:14:51.000Z</time>
      </trkpt>
      <trkpt lat="43.288168" lon="-2.8564">
        <ele>39</ele>
        <time>1970-01-01T01:14:52.000Z</time>
      </trkpt>
      <trkpt lat="43.288215" lon="-2.856371">
        <ele>39</ele>
        <time>1970-01-01T01:14:53.000Z</time>
      </trkpt>
      <trkpt lat="43.288261" lon="-2.856341">
        <ele>39.4</ele>
        <time>1970-01-01T01:14:54.000Z</time>
      </trkpt>
      <trkpt lat="43.288308" lon="-2.85631">
        <ele>39.4</ele>
        <time>1970-01-01T01:14:55.000Z</time>
      </trkpt>
      <trkpt lat="43.288351" lon="-2.856273">
        <ele>39.4</ele>
        <time>1970-01-01T01:14:56.000Z</time>
      </trkpt>
      <trkpt lat="43.288393" lon="-2.856235">
        <ele>40.2</ele>
        <time>1970-01-01T01:14:57.000Z</time>
      </trkpt>
      <trkpt lat="43.288435" lon="-2.856193">
        <ele>40.2</ele>
        <time>1970-01-01T01:14:58.000Z</time>
      </trkpt>
      <trkpt lat="43.288475" lon="-2.856146">
        <ele>40.2</ele>
        <time>1970-01-01T01:14:59.000Z</time>
      </trkpt>
      <trkpt lat="43.288513" lon="-2.856096">
        <ele>40.2</ele>
        <time>1970-01-01T01:15:00.000Z</time>
      </trkpt>
      <trkpt lat="43.288553" lon="-2.85605">
        <ele>40.2</ele>
        <time>1970-01-01T01:15:01.000Z</time>
      </trkpt>
      <trkpt lat="43.288593" lon="-2.856006">
        <ele>40.2</ele>
        <time>1970-01-01T01:15:02.000Z</time>
      </trkpt>
      <trkpt lat="43.288635" lon="-2.85596">
        <ele>40.2</ele>
        <time>1970-01-01T01:15:03.000Z</time>
      </trkpt>
      <trkpt lat="43.288673" lon="-2.855913">
        <ele>40.2</ele>
        <time>1970-01-01T01:15:04.000Z</time>
      </trkpt>
      <trkpt lat="43.288713" lon="-2.855865">
        <ele>40.2</ele>
        <time>1970-01-01T01:15:05.000Z</time>
      </trkpt>
      <trkpt lat="43.288751" lon="-2.855818">
        <ele>40.6</ele>
        <time>1970-01-01T01:15:06.000Z</time>
      </trkpt>
      <trkpt lat="43.288791" lon="-2.855771">
        <ele>40.6</ele>
        <time>1970-01-01T01:15:07.000Z</time>
      </trkpt>
      <trkpt lat="43.288831" lon="-2.855725">
        <ele>40.6</ele>
        <time>1970-01-01T01:15:08.000Z</time>
      </trkpt>
      <trkpt lat="43.28887" lon="-2.855673">
        <ele>40.6</ele>
        <time>1970-01-01T01:15:09.000Z</time>
      </trkpt>
      <trkpt lat="43.288906" lon="-2.85562">
        <ele>41.2</ele>
        <time>1970-01-01T01:15:10.000Z</time>
      </trkpt>
      <trkpt lat="43.288938" lon="-2.855558">
        <ele>41.2</ele>
        <time>1970-01-01T01:15:11.000Z</time>
      </trkpt>
      <trkpt lat="43.28897" lon="-2.855496">
        <ele>41.2</ele>
        <time>1970-01-01T01:15:12.000Z</time>
      </trkpt>
      <trkpt lat="43.289001" lon="-2.855435">
        <ele>41.2</ele>
        <time>1970-01-01T01:15:13.000Z</time>
      </trkpt>
      <trkpt lat="43.289033" lon="-2.855375">
        <ele>41.4</ele>
        <time>1970-01-01T01:15:14.000Z</time>
      </trkpt>
      <trkpt lat="43.289058" lon="-2.85532">
        <ele>41.4</ele>
        <time>1970-01-01T01:15:15.000Z</time>
      </trkpt>
      <trkpt lat="43.28908" lon="-2.855271">
        <ele>41.4</ele>
        <time>1970-01-01T01:15:16.000Z</time>
      </trkpt>
      <trkpt lat="43.289103" lon="-2.855218">
        <ele>41.8</ele>
        <time>1970-01-01T01:15:17.000Z</time>
      </trkpt>
      <trkpt lat="43.28913" lon="-2.855163">
        <ele>41.8</ele>
        <time>1970-01-01T01:15:18.000Z</time>
      </trkpt>
      <trkpt lat="43.289156" lon="-2.855106">
        <ele>41.6</ele>
        <time>1970-01-01T01:15:19.000Z</time>
      </trkpt>
      <trkpt lat="43.289181" lon="-2.855053">
        <ele>41.6</ele>
        <time>1970-01-01T01:15:20.000Z</time>
      </trkpt>
      <trkpt lat="43.289195" lon="-2.85502">
        <ele>41.6</ele>
        <time>1970-01-01T01:15:21.000Z</time>
      </trkpt>
      <trkpt lat="43.289198" lon="-2.855013">
        <ele>42</ele>
        <time>1970-01-01T01:15:22.000Z</time>
      </trkpt>
      <trkpt lat="43.289196" lon="-2.855011">
        <ele>42</ele>
        <time>1970-01-01T01:15:23.000Z</time>
      </trkpt>
      <trkpt lat="43.289196" lon="-2.855011">
        <ele>42</ele>
        <time>1970-01-01T01:15:24.000Z</time>
      </trkpt>
      <trkpt lat="43.289196" lon="-2.855011">
        <ele>42</ele>
        <time>1970-01-01T01:15:25.000Z</time>
      </trkpt>
      <trkpt lat="43.289196" lon="-2.855011">
        <ele>42</ele>
        <time>1970-01-01T01:15:26.000Z</time>
      </trkpt>
      <trkpt lat="43.289218" lon="-2.854973">
        <ele>42</ele>
        <time>1970-01-01T01:16:00.000Z</time>
      </trkpt>
      <trkpt lat="43.289233" lon="-2.854936">
        <ele>42</ele>
        <time>1970-01-01T01:16:01.000Z</time>
      </trkpt>
      <trkpt lat="43.289248" lon="-2.854896">
        <ele>42.6</ele>
        <time>1970-01-01T01:16:02.000Z</time>
      </trkpt>
      <trkpt lat="43.289263" lon="-2.854848">
        <ele>42.6</ele>
        <time>1970-01-01T01:16:03.000Z</time>
      </trkpt>
      <trkpt lat="43.289266" lon="-2.854798">
        <ele>42.6</ele>
        <time>1970-01-01T01:16:04.000Z</time>
      </trkpt>
      <trkpt lat="43.289265" lon="-2.854751">
        <ele>42.6</ele>
        <time>1970-01-01T01:16:05.000Z</time>
      </trkpt>
      <trkpt lat="43.28926" lon="-2.8547">
        <ele>41.4</ele>
        <time>1970-01-01T01:16:06.000Z</time>
      </trkpt>
      <trkpt lat="43.289258" lon="-2.854638">
        <ele>41.4</ele>
        <time>1970-01-01T01:16:07.000Z</time>
      </trkpt>
      <trkpt lat="43.289255" lon="-2.854568">
        <ele>41.4</ele>
        <time>1970-01-01T01:16:08.000Z</time>
      </trkpt>
      <trkpt lat="43.289255" lon="-2.8545">
        <ele>42.2</ele>
        <time>1970-01-01T01:16:09.000Z</time>
      </trkpt>
      <trkpt lat="43.289256" lon="-2.854431">
        <ele>42.6</ele>
        <time>1970-01-01T01:16:10.000Z</time>
      </trkpt>
      <trkpt lat="43.289256" lon="-2.854363">
        <ele>42.6</ele>
        <time>1970-01-01T01:16:11.000Z</time>
      </trkpt>
      <trkpt lat="43.289258" lon="-2.854293">
        <ele>42.6</ele>
        <time>1970-01-01T01:16:12.000Z</time>
      </trkpt>
      <trkpt lat="43.289256" lon="-2.85422">
        <ele>42.6</ele>
        <time>1970-01-01T01:16:13.000Z</time>
      </trkpt>
      <trkpt lat="43.289256" lon="-2.854143">
        <ele>42.6</ele>
        <time>1970-01-01T01:16:14.000Z</time>
      </trkpt>
      <trkpt lat="43.28926" lon="-2.854061">
        <ele>42.6</ele>
        <time>1970-01-01T01:16:15.000Z</time>
      </trkpt>
      <trkpt lat="43.289261" lon="-2.85398">
        <ele>42.6</ele>
        <time>1970-01-01T01:16:16.000Z</time>
      </trkpt>
      <trkpt lat="43.289261" lon="-2.853895">
        <ele>42</ele>
        <time>1970-01-01T01:16:17.000Z</time>
      </trkpt>
      <trkpt lat="43.28926" lon="-2.853815">
        <ele>42</ele>
        <time>1970-01-01T01:16:18.000Z</time>
      </trkpt>
      <trkpt lat="43.289258" lon="-2.853733">
        <ele>42</ele>
        <time>1970-01-01T01:16:19.000Z</time>
      </trkpt>
      <trkpt lat="43.289258" lon="-2.853655">
        <ele>42</ele>
        <time>1970-01-01T01:16:20.000Z</time>
      </trkpt>
      <trkpt lat="43.289255" lon="-2.853578">
        <ele>42</ele>
        <time>1970-01-01T01:16:21.000Z</time>
      </trkpt>
      <trkpt lat="43.289246" lon="-2.853501">
        <ele>42.4</ele>
        <time>1970-01-01T01:16:22.000Z</time>
      </trkpt>
      <trkpt lat="43.289238" lon="-2.853426">
        <ele>42.4</ele>
        <time>1970-01-01T01:16:23.000Z</time>
      </trkpt>
      <trkpt lat="43.28923" lon="-2.853348">
        <ele>42.4</ele>
        <time>1970-01-01T01:16:24.000Z</time>
      </trkpt>
      <trkpt lat="43.289221" lon="-2.853268">
        <ele>42.4</ele>
        <time>1970-01-01T01:16:25.000Z</time>
      </trkpt>
      <trkpt lat="43.289211" lon="-2.85319">
        <ele>42.2</ele>
        <time>1970-01-01T01:16:26.000Z</time>
      </trkpt>
      <trkpt lat="43.289201" lon="-2.853113">
        <ele>42.2</ele>
        <time>1970-01-01T01:16:27.000Z</time>
      </trkpt>
      <trkpt lat="43.289191" lon="-2.853038">
        <ele>42.2</ele>
        <time>1970-01-01T01:16:28.000Z</time>
      </trkpt>
      <trkpt lat="43.289181" lon="-2.85297">
        <ele>42.2</ele>
        <time>1970-01-01T01:16:29.000Z</time>
      </trkpt>
      <trkpt lat="43.289168" lon="-2.852901">
        <ele>42.6</ele>
        <time>1970-01-01T01:16:30.000Z</time>
      </trkpt>
      <trkpt lat="43.289151" lon="-2.852835">
        <ele>42.6</ele>
        <time>1970-01-01T01:16:31.000Z</time>
      </trkpt>
      <trkpt lat="43.289133" lon="-2.85277">
        <ele>42.6</ele>
        <time>1970-01-01T01:16:32.000Z</time>
      </trkpt>
      <trkpt lat="43.289118" lon="-2.852705">
        <ele>42.8</ele>
        <time>1970-01-01T01:16:33.000Z</time>
      </trkpt>
      <trkpt lat="43.289105" lon="-2.852643">
        <ele>43.4</ele>
        <time>1970-01-01T01:16:34.000Z</time>
      </trkpt>
      <trkpt lat="43.289091" lon="-2.852581">
        <ele>43.4</ele>
        <time>1970-01-01T01:16:35.000Z</time>
      </trkpt>
      <trkpt lat="43.28908" lon="-2.852523">
        <ele>43.4</ele>
        <time>1970-01-01T01:16:36.000Z</time>
      </trkpt>
      <trkpt lat="43.289066" lon="-2.85247">
        <ele>43.4</ele>
        <time>1970-01-01T01:16:37.000Z</time>
      </trkpt>
      <trkpt lat="43.289053" lon="-2.852416">
        <ele>43.6</ele>
        <time>1970-01-01T01:16:38.000Z</time>
      </trkpt>
      <trkpt lat="43.289041" lon="-2.852363">
        <ele>43.6</ele>
        <time>1970-01-01T01:16:39.000Z</time>
      </trkpt>
      <trkpt lat="43.289031" lon="-2.852311">
        <ele>43.6</ele>
        <time>1970-01-01T01:16:40.000Z</time>
      </trkpt>
      <trkpt lat="43.28902" lon="-2.852263">
        <ele>44.6</ele>
        <time>1970-01-01T01:16:41.000Z</time>
      </trkpt>
      <trkpt lat="43.289008" lon="-2.852213">
        <ele>46.4</ele>
        <time>1970-01-01T01:16:42.000Z</time>
      </trkpt>
      <trkpt lat="43.288995" lon="-2.852161">
        <ele>46.4</ele>
        <time>1970-01-01T01:16:43.000Z</time>
      </trkpt>
      <trkpt lat="43.288983" lon="-2.852108">
        <ele>46.4</ele>
        <time>1970-01-01T01:16:44.000Z</time>
      </trkpt>
      <trkpt lat="43.288968" lon="-2.85206">
        <ele>46.4</ele>
        <time>1970-01-01T01:16:45.000Z</time>
      </trkpt>
      <trkpt lat="43.288951" lon="-2.852013">
        <ele>47.4</ele>
        <time>1970-01-01T01:16:46.000Z</time>
      </trkpt>
      <trkpt lat="43.288935" lon="-2.851965">
        <ele>47.4</ele>
        <time>1970-01-01T01:16:47.000Z</time>
      </trkpt>
      <trkpt lat="43.288918" lon="-2.851918">
        <ele>47.4</ele>
        <time>1970-01-01T01:16:48.000Z</time>
      </trkpt>
      <trkpt lat="43.2889" lon="-2.85187">
        <ele>48.4</ele>
        <time>1970-01-01T01:16:49.000Z</time>
      </trkpt>
      <trkpt lat="43.288885" lon="-2.851823">
        <ele>49.4</ele>
        <time>1970-01-01T01:16:50.000Z</time>
      </trkpt>
      <trkpt lat="43.288866" lon="-2.851773">
        <ele>49.4</ele>
        <time>1970-01-01T01:16:51.000Z</time>
      </trkpt>
      <trkpt lat="43.288843" lon="-2.851723">
        <ele>49.4</ele>
        <time>1970-01-01T01:16:52.000Z</time>
      </trkpt>
      <trkpt lat="43.288823" lon="-2.851671">
        <ele>49.4</ele>
        <time>1970-01-01T01:16:53.000Z</time>
      </trkpt>
      <trkpt lat="43.288803" lon="-2.851623">
        <ele>51</ele>
        <time>1970-01-01T01:16:54.000Z</time>
      </trkpt>
      <trkpt lat="43.288783" lon="-2.851575">
        <ele>51</ele>
        <time>1970-01-01T01:16:55.000Z</time>
      </trkpt>
      <trkpt lat="43.288763" lon="-2.851523">
        <ele>51</ele>
        <time>1970-01-01T01:16:56.000Z</time>
      </trkpt>
      <trkpt lat="43.288743" lon="-2.851473">
        <ele>51.6</ele>
        <time>1970-01-01T01:16:57.000Z</time>
      </trkpt>
      <trkpt lat="43.288726" lon="-2.851423">
        <ele>51.6</ele>
        <time>1970-01-01T01:16:58.000Z</time>
      </trkpt>
      <trkpt lat="43.288705" lon="-2.851373">
        <ele>51.6</ele>
        <time>1970-01-01T01:16:59.000Z</time>
      </trkpt>
      <trkpt lat="43.28868" lon="-2.851323">
        <ele>51.6</ele>
        <time>1970-01-01T01:17:00.000Z</time>
      </trkpt>
      <trkpt lat="43.288656" lon="-2.851273">
        <ele>51.6</ele>
        <time>1970-01-01T01:17:01.000Z</time>
      </trkpt>
      <trkpt lat="43.288633" lon="-2.851221">
        <ele>51.6</ele>
        <time>1970-01-01T01:17:02.000Z</time>
      </trkpt>
      <trkpt lat="43.288608" lon="-2.851171">
        <ele>52</ele>
        <time>1970-01-01T01:17:03.000Z</time>
      </trkpt>
      <trkpt lat="43.28858" lon="-2.851125">
        <ele>52</ele>
        <time>1970-01-01T01:17:04.000Z</time>
      </trkpt>
      <trkpt lat="43.28855" lon="-2.851078">
        <ele>52</ele>
        <time>1970-01-01T01:17:05.000Z</time>
      </trkpt>
      <trkpt lat="43.28852" lon="-2.851035">
        <ele>51.8</ele>
        <time>1970-01-01T01:17:06.000Z</time>
      </trkpt>
      <trkpt lat="43.288486" lon="-2.850993">
        <ele>51.8</ele>
        <time>1970-01-01T01:17:07.000Z</time>
      </trkpt>
      <trkpt lat="43.288453" lon="-2.850953">
        <ele>51.8</ele>
        <time>1970-01-01T01:17:08.000Z</time>
      </trkpt>
      <trkpt lat="43.288423" lon="-2.850911">
        <ele>52.8</ele>
        <time>1970-01-01T01:17:09.000Z</time>
      </trkpt>
      <trkpt lat="43.2884" lon="-2.850866">
        <ele>52.8</ele>
        <time>1970-01-01T01:17:10.000Z</time>
      </trkpt>
      <trkpt lat="43.28838" lon="-2.850813">
        <ele>53</ele>
        <time>1970-01-01T01:17:11.000Z</time>
      </trkpt>
      <trkpt lat="43.288363" lon="-2.85076">
        <ele>53</ele>
        <time>1970-01-01T01:17:12.000Z</time>
      </trkpt>
      <trkpt lat="43.288351" lon="-2.850701">
        <ele>53</ele>
        <time>1970-01-01T01:17:13.000Z</time>
      </trkpt>
      <trkpt lat="43.288335" lon="-2.850643">
        <ele>53.4</ele>
        <time>1970-01-01T01:17:14.000Z</time>
      </trkpt>
      <trkpt lat="43.28832" lon="-2.850583">
        <ele>53.4</ele>
        <time>1970-01-01T01:17:15.000Z</time>
      </trkpt>
      <trkpt lat="43.288308" lon="-2.850523">
        <ele>53.4</ele>
        <time>1970-01-01T01:17:16.000Z</time>
      </trkpt>
      <trkpt lat="43.2883" lon="-2.850463">
        <ele>54</ele>
        <time>1970-01-01T01:17:17.000Z</time>
      </trkpt>
      <trkpt lat="43.288291" lon="-2.850405">
        <ele>54.6</ele>
        <time>1970-01-01T01:17:18.000Z</time>
      </trkpt>
      <trkpt lat="43.288281" lon="-2.850345">
        <ele>54.6</ele>
        <time>1970-01-01T01:17:19.000Z</time>
      </trkpt>
      <trkpt lat="43.288271" lon="-2.850283">
        <ele>54.6</ele>
        <time>1970-01-01T01:17:20.000Z</time>
      </trkpt>
      <trkpt lat="43.288261" lon="-2.850221">
        <ele>54.6</ele>
        <time>1970-01-01T01:17:21.000Z</time>
      </trkpt>
      <trkpt lat="43.288253" lon="-2.85016">
        <ele>54.8</ele>
        <time>1970-01-01T01:17:22.000Z</time>
      </trkpt>
      <trkpt lat="43.288245" lon="-2.850095">
        <ele>54.8</ele>
        <time>1970-01-01T01:17:23.000Z</time>
      </trkpt>
      <trkpt lat="43.288235" lon="-2.850031">
        <ele>54.8</ele>
        <time>1970-01-01T01:17:24.000Z</time>
      </trkpt>
      <trkpt lat="43.288225" lon="-2.849966">
        <ele>54.8</ele>
        <time>1970-01-01T01:17:25.000Z</time>
      </trkpt>
      <trkpt lat="43.288215" lon="-2.849901">
        <ele>54.4</ele>
        <time>1970-01-01T01:17:26.000Z</time>
      </trkpt>
      <trkpt lat="43.288205" lon="-2.849836">
        <ele>54.4</ele>
        <time>1970-01-01T01:17:27.000Z</time>
      </trkpt>
      <trkpt lat="43.288195" lon="-2.849773">
        <ele>54.4</ele>
        <time>1970-01-01T01:17:28.000Z</time>
      </trkpt>
      <trkpt lat="43.288181" lon="-2.84971">
        <ele>54.4</ele>
        <time>1970-01-01T01:17:29.000Z</time>
      </trkpt>
      <trkpt lat="43.288163" lon="-2.84965">
        <ele>54.8</ele>
        <time>1970-01-01T01:17:30.000Z</time>
      </trkpt>
      <trkpt lat="43.288148" lon="-2.84959">
        <ele>54.8</ele>
        <time>1970-01-01T01:17:31.000Z</time>
      </trkpt>
      <trkpt lat="43.288133" lon="-2.849531">
        <ele>54.8</ele>
        <time>1970-01-01T01:17:32.000Z</time>
      </trkpt>
      <trkpt lat="43.288116" lon="-2.849473">
        <ele>55.8</ele>
        <time>1970-01-01T01:17:33.000Z</time>
      </trkpt>
      <trkpt lat="43.288105" lon="-2.849418">
        <ele>56.2</ele>
        <time>1970-01-01T01:17:34.000Z</time>
      </trkpt>
      <trkpt lat="43.288091" lon="-2.849361">
        <ele>56.2</ele>
        <time>1970-01-01T01:17:35.000Z</time>
      </trkpt>
      <trkpt lat="43.288081" lon="-2.849306">
        <ele>56.2</ele>
        <time>1970-01-01T01:17:36.000Z</time>
      </trkpt>
      <trkpt lat="43.28807" lon="-2.849256">
        <ele>56.2</ele>
        <time>1970-01-01T01:17:37.000Z</time>
      </trkpt>
      <trkpt lat="43.288061" lon="-2.849225">
        <ele>57</ele>
        <time>1970-01-01T01:17:38.000Z</time>
      </trkpt>
      <trkpt lat="43.288061" lon="-2.849223">
        <ele>57</ele>
        <time>1970-01-01T01:17:39.000Z</time>
      </trkpt>
      <trkpt lat="43.28807" lon="-2.849215">
        <ele>57</ele>
        <time>1970-01-01T01:17:40.000Z</time>
      </trkpt>
      <trkpt lat="43.288081" lon="-2.8492">
        <ele>57</ele>
        <time>1970-01-01T01:17:41.000Z</time>
      </trkpt>
      <trkpt lat="43.28809" lon="-2.849178">
        <ele>57</ele>
        <time>1970-01-01T01:17:42.000Z</time>
      </trkpt>
      <trkpt lat="43.2881" lon="-2.849148">
        <ele>57</ele>
        <time>1970-01-01T01:17:43.000Z</time>
      </trkpt>
      <trkpt lat="43.288108" lon="-2.849105">
        <ele>57</ele>
        <time>1970-01-01T01:17:44.000Z</time>
      </trkpt>
      <trkpt lat="43.288115" lon="-2.849056">
        <ele>57</ele>
        <time>1970-01-01T01:17:45.000Z</time>
      </trkpt>
      <trkpt lat="43.28812" lon="-2.849001">
        <ele>56.8</ele>
        <time>1970-01-01T01:17:46.000Z</time>
      </trkpt>
      <trkpt lat="43.288118" lon="-2.848945">
        <ele>56.8</ele>
        <time>1970-01-01T01:17:47.000Z</time>
      </trkpt>
      <trkpt lat="43.288111" lon="-2.84889">
        <ele>56.8</ele>
        <time>1970-01-01T01:17:48.000Z</time>
      </trkpt>
      <trkpt lat="43.288111" lon="-2.848833">
        <ele>56.8</ele>
        <time>1970-01-01T01:17:49.000Z</time>
      </trkpt>
      <trkpt lat="43.288105" lon="-2.848773">
        <ele>57.2</ele>
        <time>1970-01-01T01:17:50.000Z</time>
      </trkpt>
      <trkpt lat="43.2881" lon="-2.84871">
        <ele>57.2</ele>
        <time>1970-01-01T01:17:51.000Z</time>
      </trkpt>
      <trkpt lat="43.288093" lon="-2.848646">
        <ele>57.2</ele>
        <time>1970-01-01T01:17:52.000Z</time>
      </trkpt>
      <trkpt lat="43.288086" lon="-2.848583">
        <ele>57.2</ele>
        <time>1970-01-01T01:17:53.000Z</time>
      </trkpt>
      <trkpt lat="43.288078" lon="-2.848521">
        <ele>57</ele>
        <time>1970-01-01T01:17:54.000Z</time>
      </trkpt>
      <trkpt lat="43.288071" lon="-2.84846">
        <ele>57</ele>
        <time>1970-01-01T01:17:55.000Z</time>
      </trkpt>
      <trkpt lat="43.288063" lon="-2.848401">
        <ele>57</ele>
        <time>1970-01-01T01:17:56.000Z</time>
      </trkpt>
      <trkpt lat="43.288051" lon="-2.848341">
        <ele>56.8</ele>
        <time>1970-01-01T01:17:57.000Z</time>
      </trkpt>
      <trkpt lat="43.288041" lon="-2.848281">
        <ele>57</ele>
        <time>1970-01-01T01:17:58.000Z</time>
      </trkpt>
      <trkpt lat="43.28803" lon="-2.84822">
        <ele>57</ele>
        <time>1970-01-01T01:17:59.000Z</time>
      </trkpt>
      <trkpt lat="43.28802" lon="-2.848155">
        <ele>57</ele>
        <time>1970-01-01T01:18:00.000Z</time>
      </trkpt>
      <trkpt lat="43.28801" lon="-2.848088">
        <ele>57</ele>
        <time>1970-01-01T01:18:01.000Z</time>
      </trkpt>
      <trkpt lat="43.288003" lon="-2.84802">
        <ele>55.8</ele>
        <time>1970-01-01T01:18:02.000Z</time>
      </trkpt>
      <trkpt lat="43.287996" lon="-2.847946">
        <ele>55.8</ele>
        <time>1970-01-01T01:18:03.000Z</time>
      </trkpt>
      <trkpt lat="43.287993" lon="-2.84787">
        <ele>55.8</ele>
        <time>1970-01-01T01:18:04.000Z</time>
      </trkpt>
      <trkpt lat="43.287988" lon="-2.847793">
        <ele>54.8</ele>
        <time>1970-01-01T01:18:05.000Z</time>
      </trkpt>
      <trkpt lat="43.287988" lon="-2.847715">
        <ele>55.4</ele>
        <time>1970-01-01T01:18:06.000Z</time>
      </trkpt>
      <trkpt lat="43.287985" lon="-2.847655">
        <ele>55.4</ele>
        <time>1970-01-01T01:18:07.000Z</time>
      </trkpt>
      <trkpt lat="43.287983" lon="-2.847611">
        <ele>55.4</ele>
        <time>1970-01-01T01:18:08.000Z</time>
      </trkpt>
      <trkpt lat="43.287986" lon="-2.847571">
        <ele>55.4</ele>
        <time>1970-01-01T01:18:09.000Z</time>
      </trkpt>
      <trkpt lat="43.287995" lon="-2.847528">
        <ele>54.8</ele>
        <time>1970-01-01T01:18:10.000Z</time>
      </trkpt>
      <trkpt lat="43.288008" lon="-2.847488">
        <ele>54.8</ele>
        <time>1970-01-01T01:18:11.000Z</time>
      </trkpt>
      <trkpt lat="43.288016" lon="-2.847453">
        <ele>54.8</ele>
        <time>1970-01-01T01:18:12.000Z</time>
      </trkpt>
      <trkpt lat="43.288033" lon="-2.847425">
        <ele>54.8</ele>
        <time>1970-01-01T01:18:13.000Z</time>
      </trkpt>
      <trkpt lat="43.288061" lon="-2.847393">
        <ele>55.2</ele>
        <time>1970-01-01T01:18:14.000Z</time>
      </trkpt>
      <trkpt lat="43.28809" lon="-2.847353">
        <ele>55.2</ele>
        <time>1970-01-01T01:18:15.000Z</time>
      </trkpt>
      <trkpt lat="43.28811" lon="-2.847315">
        <ele>55.2</ele>
        <time>1970-01-01T01:18:16.000Z</time>
      </trkpt>
      <trkpt lat="43.288133" lon="-2.847273">
        <ele>55.2</ele>
        <time>1970-01-01T01:18:17.000Z</time>
      </trkpt>
      <trkpt lat="43.288153" lon="-2.84724">
        <ele>56.2</ele>
        <time>1970-01-01T01:18:18.000Z</time>
      </trkpt>
      <trkpt lat="43.288171" lon="-2.8472">
        <ele>56.2</ele>
        <time>1970-01-01T01:18:19.000Z</time>
      </trkpt>
      <trkpt lat="43.28819" lon="-2.847156">
        <ele>56.2</ele>
        <time>1970-01-01T01:18:20.000Z</time>
      </trkpt>
      <trkpt lat="43.288201" lon="-2.847123">
        <ele>56.2</ele>
        <time>1970-01-01T01:18:21.000Z</time>
      </trkpt>
      <trkpt lat="43.2882" lon="-2.8471">
        <ele>56.6</ele>
        <time>1970-01-01T01:18:22.000Z</time>
      </trkpt>
      <trkpt lat="43.288193" lon="-2.847096">
        <ele>56.6</ele>
        <time>1970-01-01T01:18:23.000Z</time>
      </trkpt>
      <trkpt lat="43.288183" lon="-2.847085">
        <ele>56.6</ele>
        <time>1970-01-01T01:18:24.000Z</time>
      </trkpt>
      <trkpt lat="43.288173" lon="-2.84707">
        <ele>56.6</ele>
        <time>1970-01-01T01:18:25.000Z</time>
      </trkpt>
      <trkpt lat="43.288156" lon="-2.847053">
        <ele>55.8</ele>
        <time>1970-01-01T01:18:26.000Z</time>
      </trkpt>
      <trkpt lat="43.28814" lon="-2.847033">
        <ele>55.8</ele>
        <time>1970-01-01T01:18:27.000Z</time>
      </trkpt>
      <trkpt lat="43.28812" lon="-2.84701">
        <ele>55.8</ele>
        <time>1970-01-01T01:18:28.000Z</time>
      </trkpt>
      <trkpt lat="43.288096" lon="-2.846991">
        <ele>56</ele>
        <time>1970-01-01T01:18:29.000Z</time>
      </trkpt>
      <trkpt lat="43.288071" lon="-2.846971">
        <ele>56.4</ele>
        <time>1970-01-01T01:18:30.000Z</time>
      </trkpt>
      <trkpt lat="43.288041" lon="-2.846951">
        <ele>56.4</ele>
        <time>1970-01-01T01:18:31.000Z</time>
      </trkpt>
      <trkpt lat="43.288006" lon="-2.84693">
        <ele>56.4</ele>
        <time>1970-01-01T01:18:32.000Z</time>
      </trkpt>
      <trkpt lat="43.287983" lon="-2.846908">
        <ele>56.4</ele>
        <time>1970-01-01T01:18:33.000Z</time>
      </trkpt>
      <trkpt lat="43.287953" lon="-2.846886">
        <ele>56.4</ele>
        <time>1970-01-01T01:18:34.000Z</time>
      </trkpt>
      <trkpt lat="43.287928" lon="-2.846863">
        <ele>56.4</ele>
        <time>1970-01-01T01:18:35.000Z</time>
      </trkpt>
      <trkpt lat="43.287896" lon="-2.846835">
        <ele>56.4</ele>
        <time>1970-01-01T01:18:36.000Z</time>
      </trkpt>
      <trkpt lat="43.287865" lon="-2.846803">
        <ele>56.4</ele>
        <time>1970-01-01T01:18:37.000Z</time>
      </trkpt>
      <trkpt lat="43.287846" lon="-2.84677">
        <ele>56.8</ele>
        <time>1970-01-01T01:18:38.000Z</time>
      </trkpt>
      <trkpt lat="43.287825" lon="-2.846731">
        <ele>56.8</ele>
        <time>1970-01-01T01:18:39.000Z</time>
      </trkpt>
      <trkpt lat="43.287805" lon="-2.846675">
        <ele>56.8</ele>
        <time>1970-01-01T01:18:40.000Z</time>
      </trkpt>
      <trkpt lat="43.28779" lon="-2.846613">
        <ele>56.8</ele>
        <time>1970-01-01T01:18:41.000Z</time>
      </trkpt>
      <trkpt lat="43.287775" lon="-2.846555">
        <ele>56.8</ele>
        <time>1970-01-01T01:18:42.000Z</time>
      </trkpt>
      <trkpt lat="43.28776" lon="-2.846495">
        <ele>56.8</ele>
        <time>1970-01-01T01:18:43.000Z</time>
      </trkpt>
      <trkpt lat="43.287741" lon="-2.846445">
        <ele>56.8</ele>
        <time>1970-01-01T01:18:44.000Z</time>
      </trkpt>
      <trkpt lat="43.287736" lon="-2.846405">
        <ele>56.4</ele>
        <time>1970-01-01T01:18:45.000Z</time>
      </trkpt>
      <trkpt lat="43.287735" lon="-2.846356">
        <ele>56.2</ele>
        <time>1970-01-01T01:18:46.000Z</time>
      </trkpt>
      <trkpt lat="43.287746" lon="-2.846318">
        <ele>56.2</ele>
        <time>1970-01-01T01:18:47.000Z</time>
      </trkpt>
      <trkpt lat="43.287765" lon="-2.846285">
        <ele>56.2</ele>
        <time>1970-01-01T01:18:48.000Z</time>
      </trkpt>
      <trkpt lat="43.287781" lon="-2.84626">
        <ele>56.2</ele>
        <time>1970-01-01T01:18:49.000Z</time>
      </trkpt>
      <trkpt lat="43.287801" lon="-2.84623">
        <ele>55.8</ele>
        <time>1970-01-01T01:18:50.000Z</time>
      </trkpt>
      <trkpt lat="43.287825" lon="-2.846198">
        <ele>55.8</ele>
        <time>1970-01-01T01:18:51.000Z</time>
      </trkpt>
      <trkpt lat="43.287848" lon="-2.846163">
        <ele>55.8</ele>
        <time>1970-01-01T01:18:52.000Z</time>
      </trkpt>
      <trkpt lat="43.287866" lon="-2.846121">
        <ele>55.8</ele>
        <time>1970-01-01T01:18:53.000Z</time>
      </trkpt>
      <trkpt lat="43.287895" lon="-2.846076">
        <ele>57</ele>
        <time>1970-01-01T01:18:54.000Z</time>
      </trkpt>
      <trkpt lat="43.287926" lon="-2.846031">
        <ele>57</ele>
        <time>1970-01-01T01:18:55.000Z</time>
      </trkpt>
      <trkpt lat="43.287961" lon="-2.845993">
        <ele>57</ele>
        <time>1970-01-01T01:18:56.000Z</time>
      </trkpt>
      <trkpt lat="43.287988" lon="-2.845953">
        <ele>57</ele>
        <time>1970-01-01T01:18:57.000Z</time>
      </trkpt>
      <trkpt lat="43.288016" lon="-2.845911">
        <ele>56.8</ele>
        <time>1970-01-01T01:18:58.000Z</time>
      </trkpt>
      <trkpt lat="43.288041" lon="-2.845871">
        <ele>56.8</ele>
        <time>1970-01-01T01:18:59.000Z</time>
      </trkpt>
      <trkpt lat="43.288068" lon="-2.845838">
        <ele>56.8</ele>
        <time>1970-01-01T01:19:00.000Z</time>
      </trkpt>
      <trkpt lat="43.288101" lon="-2.845795">
        <ele>57.8</ele>
        <time>1970-01-01T01:19:01.000Z</time>
      </trkpt>
      <trkpt lat="43.28813" lon="-2.845755">
        <ele>57.6</ele>
        <time>1970-01-01T01:19:02.000Z</time>
      </trkpt>
      <trkpt lat="43.288161" lon="-2.845713">
        <ele>57.6</ele>
        <time>1970-01-01T01:19:03.000Z</time>
      </trkpt>
      <trkpt lat="43.288195" lon="-2.845666">
        <ele>57.6</ele>
        <time>1970-01-01T01:19:04.000Z</time>
      </trkpt>
      <trkpt lat="43.288225" lon="-2.845628">
        <ele>58.4</ele>
        <time>1970-01-01T01:19:05.000Z</time>
      </trkpt>
      <trkpt lat="43.28825" lon="-2.845591">
        <ele>57.8</ele>
        <time>1970-01-01T01:19:06.000Z</time>
      </trkpt>
      <trkpt lat="43.288278" lon="-2.845546">
        <ele>57.8</ele>
        <time>1970-01-01T01:19:07.000Z</time>
      </trkpt>
      <trkpt lat="43.288303" lon="-2.84551">
        <ele>57.8</ele>
        <time>1970-01-01T01:19:08.000Z</time>
      </trkpt>
      <trkpt lat="43.28833" lon="-2.845475">
        <ele>57.8</ele>
        <time>1970-01-01T01:19:09.000Z</time>
      </trkpt>
      <trkpt lat="43.288356" lon="-2.845435">
        <ele>59</ele>
        <time>1970-01-01T01:19:10.000Z</time>
      </trkpt>
      <trkpt lat="43.288381" lon="-2.845396">
        <ele>59</ele>
        <time>1970-01-01T01:19:11.000Z</time>
      </trkpt>
      <trkpt lat="43.288408" lon="-2.845363">
        <ele>59</ele>
        <time>1970-01-01T01:19:12.000Z</time>
      </trkpt>
      <trkpt lat="43.288431" lon="-2.845323">
        <ele>60</ele>
        <time>1970-01-01T01:19:13.000Z</time>
      </trkpt>
      <trkpt lat="43.288455" lon="-2.845295">
        <ele>60</ele>
        <time>1970-01-01T01:19:14.000Z</time>
      </trkpt>
      <trkpt lat="43.288471" lon="-2.84527">
        <ele>60.2</ele>
        <time>1970-01-01T01:19:15.000Z</time>
      </trkpt>
      <trkpt lat="43.28849" lon="-2.845251">
        <ele>60.2</ele>
        <time>1970-01-01T01:19:16.000Z</time>
      </trkpt>
      <trkpt lat="43.288508" lon="-2.845233">
        <ele>60.6</ele>
        <time>1970-01-01T01:19:17.000Z</time>
      </trkpt>
      <trkpt lat="43.288518" lon="-2.845211">
        <ele>60.2</ele>
        <time>1970-01-01T01:19:18.000Z</time>
      </trkpt>
      <trkpt lat="43.288516" lon="-2.845195">
        <ele>60.2</ele>
        <time>1970-01-01T01:19:19.000Z</time>
      </trkpt>
      <trkpt lat="43.288515" lon="-2.84519">
        <ele>60.2</ele>
        <time>1970-01-01T01:19:20.000Z</time>
      </trkpt>
      <trkpt lat="43.288511" lon="-2.84519">
        <ele>60.2</ele>
        <time>1970-01-01T01:19:21.000Z</time>
      </trkpt>
      <trkpt lat="43.288506" lon="-2.845196">
        <ele>60.2</ele>
        <time>1970-01-01T01:19:22.000Z</time>
      </trkpt>
      <trkpt lat="43.288498" lon="-2.845213">
        <ele>60.2</ele>
        <time>1970-01-01T01:19:23.000Z</time>
      </trkpt>
      <trkpt lat="43.288483" lon="-2.845236">
        <ele>60.2</ele>
        <time>1970-01-01T01:19:24.000Z</time>
      </trkpt>
      <trkpt lat="43.28846" lon="-2.84526">
        <ele>60.2</ele>
        <time>1970-01-01T01:19:25.000Z</time>
      </trkpt>
      <trkpt lat="43.288433" lon="-2.845281">
        <ele>60</ele>
        <time>1970-01-01T01:19:26.000Z</time>
      </trkpt>
      <trkpt lat="43.288403" lon="-2.845318">
        <ele>60</ele>
        <time>1970-01-01T01:19:27.000Z</time>
      </trkpt>
      <trkpt lat="43.288375" lon="-2.845355">
        <ele>60</ele>
        <time>1970-01-01T01:19:28.000Z</time>
      </trkpt>
      <trkpt lat="43.288338" lon="-2.845396">
        <ele>60</ele>
        <time>1970-01-01T01:19:29.000Z</time>
      </trkpt>
      <trkpt lat="43.288296" lon="-2.845438">
        <ele>57.8</ele>
        <time>1970-01-01T01:19:30.000Z</time>
      </trkpt>
      <trkpt lat="43.288256" lon="-2.845486">
        <ele>57.8</ele>
        <time>1970-01-01T01:19:31.000Z</time>
      </trkpt>
      <trkpt lat="43.28821" lon="-2.845536">
        <ele>57.8</ele>
        <time>1970-01-01T01:19:32.000Z</time>
      </trkpt>
      <trkpt lat="43.288166" lon="-2.845585">
        <ele>56.8</ele>
        <time>1970-01-01T01:19:33.000Z</time>
      </trkpt>
      <trkpt lat="43.288123" lon="-2.84563">
        <ele>57</ele>
        <time>1970-01-01T01:19:34.000Z</time>
      </trkpt>
      <trkpt lat="43.28808" lon="-2.845681">
        <ele>57</ele>
        <time>1970-01-01T01:19:35.000Z</time>
      </trkpt>
      <trkpt lat="43.288033" lon="-2.845735">
        <ele>57</ele>
        <time>1970-01-01T01:19:36.000Z</time>
      </trkpt>
      <trkpt lat="43.287988" lon="-2.845791">
        <ele>57</ele>
        <time>1970-01-01T01:19:37.000Z</time>
      </trkpt>
      <trkpt lat="43.287941" lon="-2.845841">
        <ele>55.8</ele>
        <time>1970-01-01T01:19:38.000Z</time>
      </trkpt>
      <trkpt lat="43.2879" lon="-2.845895">
        <ele>55.8</ele>
        <time>1970-01-01T01:19:39.000Z</time>
      </trkpt>
      <trkpt lat="43.28786" lon="-2.845948">
        <ele>55.8</ele>
        <time>1970-01-01T01:19:40.000Z</time>
      </trkpt>
      <trkpt lat="43.287813" lon="-2.846005">
        <ele>55.8</ele>
        <time>1970-01-01T01:19:41.000Z</time>
      </trkpt>
      <trkpt lat="43.287766" lon="-2.846068">
        <ele>55.4</ele>
        <time>1970-01-01T01:19:42.000Z</time>
      </trkpt>
      <trkpt lat="43.287728" lon="-2.846131">
        <ele>55.4</ele>
        <time>1970-01-01T01:19:43.000Z</time>
      </trkpt>
      <trkpt lat="43.287715" lon="-2.846196">
        <ele>55.4</ele>
        <time>1970-01-01T01:19:44.000Z</time>
      </trkpt>
      <trkpt lat="43.287713" lon="-2.846258">
        <ele>55.4</ele>
        <time>1970-01-01T01:19:45.000Z</time>
      </trkpt>
      <trkpt lat="43.287715" lon="-2.846313">
        <ele>56.4</ele>
        <time>1970-01-01T01:19:46.000Z</time>
      </trkpt>
      <trkpt lat="43.287725" lon="-2.84637">
        <ele>56.4</ele>
        <time>1970-01-01T01:19:47.000Z</time>
      </trkpt>
      <trkpt lat="43.287743" lon="-2.846418">
        <ele>56.4</ele>
        <time>1970-01-01T01:19:48.000Z</time>
      </trkpt>
      <trkpt lat="43.287758" lon="-2.846475">
        <ele>56.4</ele>
        <time>1970-01-01T01:19:49.000Z</time>
      </trkpt>
      <trkpt lat="43.287775" lon="-2.846523">
        <ele>55.8</ele>
        <time>1970-01-01T01:19:50.000Z</time>
      </trkpt>
      <trkpt lat="43.287795" lon="-2.846566">
        <ele>55.8</ele>
        <time>1970-01-01T01:19:51.000Z</time>
      </trkpt>
      <trkpt lat="43.28782" lon="-2.846591">
        <ele>55.8</ele>
        <time>1970-01-01T01:19:52.000Z</time>
      </trkpt>
      <trkpt lat="43.287841" lon="-2.846621">
        <ele>55.8</ele>
        <time>1970-01-01T01:19:53.000Z</time>
      </trkpt>
      <trkpt lat="43.287853" lon="-2.846645">
        <ele>56.6</ele>
        <time>1970-01-01T01:19:54.000Z</time>
      </trkpt>
      <trkpt lat="43.287861" lon="-2.846653">
        <ele>56.6</ele>
        <time>1970-01-01T01:19:55.000Z</time>
      </trkpt>
      <trkpt lat="43.287858" lon="-2.84665">
        <ele>56.6</ele>
        <time>1970-01-01T01:19:56.000Z</time>
      </trkpt>
      <trkpt lat="43.287858" lon="-2.84665">
        <ele>56.8</ele>
        <time>1970-01-01T01:19:57.000Z</time>
      </trkpt>
      <trkpt lat="43.287846" lon="-2.846655">
        <ele>56.6</ele>
        <time>1970-01-01T01:19:58.000Z</time>
      </trkpt>
      <trkpt lat="43.287835" lon="-2.846646">
        <ele>56.6</ele>
        <time>1970-01-01T01:19:59.000Z</time>
      </trkpt>
      <trkpt lat="43.28782" lon="-2.846643">
        <ele>56.6</ele>
        <time>1970-01-01T01:20:00.000Z</time>
      </trkpt>
      <trkpt lat="43.287811" lon="-2.846628">
        <ele>56.6</ele>
        <time>1970-01-01T01:20:01.000Z</time>
      </trkpt>
      <trkpt lat="43.287798" lon="-2.846615">
        <ele>56.8</ele>
        <time>1970-01-01T01:20:02.000Z</time>
      </trkpt>
      <trkpt lat="43.287775" lon="-2.84662">
        <ele>56.8</ele>
        <time>1970-01-01T01:20:03.000Z</time>
      </trkpt>
      <trkpt lat="43.287745" lon="-2.846626">
        <ele>56.8</ele>
        <time>1970-01-01T01:20:04.000Z</time>
      </trkpt>
      <trkpt lat="43.28771" lon="-2.846628">
        <ele>55.8</ele>
        <time>1970-01-01T01:20:05.000Z</time>
      </trkpt>
      <trkpt lat="43.287666" lon="-2.846635">
        <ele>56.6</ele>
        <time>1970-01-01T01:20:06.000Z</time>
      </trkpt>
      <trkpt lat="43.287628" lon="-2.84665">
        <ele>56.6</ele>
        <time>1970-01-01T01:20:07.000Z</time>
      </trkpt>
      <trkpt lat="43.287583" lon="-2.846666">
        <ele>56.6</ele>
        <time>1970-01-01T01:20:08.000Z</time>
      </trkpt>
      <trkpt lat="43.287545" lon="-2.846693">
        <ele>56.6</ele>
        <time>1970-01-01T01:20:09.000Z</time>
      </trkpt>
      <trkpt lat="43.28752" lon="-2.84671">
        <ele>55.6</ele>
        <time>1970-01-01T01:20:10.000Z</time>
      </trkpt>
      <trkpt lat="43.287476" lon="-2.846726">
        <ele>55.6</ele>
        <time>1970-01-01T01:20:11.000Z</time>
      </trkpt>
      <trkpt lat="43.287428" lon="-2.846738">
        <ele>55.6</ele>
        <time>1970-01-01T01:20:12.000Z</time>
      </trkpt>
      <trkpt lat="43.287383" lon="-2.846756">
        <ele>55</ele>
        <time>1970-01-01T01:20:13.000Z</time>
      </trkpt>
      <trkpt lat="43.287341" lon="-2.846771">
        <ele>55.8</ele>
        <time>1970-01-01T01:20:14.000Z</time>
      </trkpt>
      <trkpt lat="43.287303" lon="-2.846791">
        <ele>55.8</ele>
        <time>1970-01-01T01:20:15.000Z</time>
      </trkpt>
      <trkpt lat="43.287255" lon="-2.846796">
        <ele>55.8</ele>
        <time>1970-01-01T01:20:16.000Z</time>
      </trkpt>
      <trkpt lat="43.287205" lon="-2.846801">
        <ele>55.8</ele>
        <time>1970-01-01T01:20:17.000Z</time>
      </trkpt>
      <trkpt lat="43.28716" lon="-2.846803">
        <ele>54.8</ele>
        <time>1970-01-01T01:20:18.000Z</time>
      </trkpt>
      <trkpt lat="43.287113" lon="-2.84681">
        <ele>54.8</ele>
        <time>1970-01-01T01:20:19.000Z</time>
      </trkpt>
      <trkpt lat="43.287066" lon="-2.846825">
        <ele>54.8</ele>
        <time>1970-01-01T01:20:20.000Z</time>
      </trkpt>
      <trkpt lat="43.28701" lon="-2.846841">
        <ele>54.8</ele>
        <time>1970-01-01T01:20:21.000Z</time>
      </trkpt>
      <trkpt lat="43.286958" lon="-2.84685">
        <ele>54.4</ele>
        <time>1970-01-01T01:20:22.000Z</time>
      </trkpt>
      <trkpt lat="43.286901" lon="-2.846863">
        <ele>54.4</ele>
        <time>1970-01-01T01:20:23.000Z</time>
      </trkpt>
      <trkpt lat="43.28686" lon="-2.846883">
        <ele>54.4</ele>
        <time>1970-01-01T01:20:24.000Z</time>
      </trkpt>
      <trkpt lat="43.286805" lon="-2.846891">
        <ele>54.4</ele>
        <time>1970-01-01T01:20:25.000Z</time>
      </trkpt>
      <trkpt lat="43.286753" lon="-2.84689">
        <ele>54.4</ele>
        <time>1970-01-01T01:20:26.000Z</time>
      </trkpt>
      <trkpt lat="43.2867" lon="-2.846888">
        <ele>54.4</ele>
        <time>1970-01-01T01:20:27.000Z</time>
      </trkpt>
      <trkpt lat="43.28665" lon="-2.846875">
        <ele>54.4</ele>
        <time>1970-01-01T01:20:28.000Z</time>
      </trkpt>
      <trkpt lat="43.286596" lon="-2.846845">
        <ele>54.4</ele>
        <time>1970-01-01T01:20:29.000Z</time>
      </trkpt>
      <trkpt lat="43.286561" lon="-2.846835">
        <ele>53.6</ele>
        <time>1970-01-01T01:20:30.000Z</time>
      </trkpt>
      <trkpt lat="43.286528" lon="-2.84683">
        <ele>53.6</ele>
        <time>1970-01-01T01:20:31.000Z</time>
      </trkpt>
      <trkpt lat="43.286496" lon="-2.846833">
        <ele>53.6</ele>
        <time>1970-01-01T01:20:32.000Z</time>
      </trkpt>
      <trkpt lat="43.286461" lon="-2.846841">
        <ele>53.6</ele>
        <time>1970-01-01T01:20:33.000Z</time>
      </trkpt>
      <trkpt lat="43.286421" lon="-2.846851">
        <ele>53.4</ele>
        <time>1970-01-01T01:20:34.000Z</time>
      </trkpt>
      <trkpt lat="43.286373" lon="-2.84687">
        <ele>53.4</ele>
        <time>1970-01-01T01:20:35.000Z</time>
      </trkpt>
      <trkpt lat="43.28634" lon="-2.846901">
        <ele>53.4</ele>
        <time>1970-01-01T01:20:36.000Z</time>
      </trkpt>
      <trkpt lat="43.286308" lon="-2.84693">
        <ele>52.8</ele>
        <time>1970-01-01T01:20:37.000Z</time>
      </trkpt>
      <trkpt lat="43.286298" lon="-2.846978">
        <ele>52.8</ele>
        <time>1970-01-01T01:20:38.000Z</time>
      </trkpt>
      <trkpt lat="43.286288" lon="-2.847048">
        <ele>52.8</ele>
        <time>1970-01-01T01:20:39.000Z</time>
      </trkpt>
      <trkpt lat="43.286268" lon="-2.847113">
        <ele>52.8</ele>
        <time>1970-01-01T01:20:40.000Z</time>
      </trkpt>
      <trkpt lat="43.286251" lon="-2.847168">
        <ele>52.8</ele>
        <time>1970-01-01T01:20:41.000Z</time>
      </trkpt>
      <trkpt lat="43.286236" lon="-2.84722">
        <ele>52</ele>
        <time>1970-01-01T01:20:42.000Z</time>
      </trkpt>
      <trkpt lat="43.286225" lon="-2.847271">
        <ele>52</ele>
        <time>1970-01-01T01:20:43.000Z</time>
      </trkpt>
      <trkpt lat="43.28622" lon="-2.847318">
        <ele>52</ele>
        <time>1970-01-01T01:20:44.000Z</time>
      </trkpt>
      <trkpt lat="43.286213" lon="-2.847361">
        <ele>51</ele>
        <time>1970-01-01T01:20:45.000Z</time>
      </trkpt>
      <trkpt lat="43.286206" lon="-2.8474">
        <ele>50.6</ele>
        <time>1970-01-01T01:20:46.000Z</time>
      </trkpt>
      <trkpt lat="43.286196" lon="-2.847438">
        <ele>50.6</ele>
        <time>1970-01-01T01:20:47.000Z</time>
      </trkpt>
      <trkpt lat="43.286186" lon="-2.847478">
        <ele>50.6</ele>
        <time>1970-01-01T01:20:48.000Z</time>
      </trkpt>
      <trkpt lat="43.286178" lon="-2.84751">
        <ele>50.6</ele>
        <time>1970-01-01T01:20:49.000Z</time>
      </trkpt>
      <trkpt lat="43.286176" lon="-2.847521">
        <ele>51.2</ele>
        <time>1970-01-01T01:20:50.000Z</time>
      </trkpt>
      <trkpt lat="43.286173" lon="-2.847528">
        <ele>51.2</ele>
        <time>1970-01-01T01:20:51.000Z</time>
      </trkpt>
      <trkpt lat="43.286173" lon="-2.847528">
        <ele>51.2</ele>
        <time>1970-01-01T01:20:52.000Z</time>
      </trkpt>
      <trkpt lat="43.286173" lon="-2.847528">
        <ele>51.2</ele>
        <time>1970-01-01T01:20:53.000Z</time>
      </trkpt>
      <trkpt lat="43.286173" lon="-2.847528">
        <ele>50.8</ele>
        <time>1970-01-01T01:20:54.000Z</time>
      </trkpt>
      <trkpt lat="43.286138" lon="-2.847535">
        <ele>49.6</ele>
        <time>1970-01-01T01:20:58.000Z</time>
      </trkpt>
      <trkpt lat="43.286133" lon="-2.847516">
        <ele>49.6</ele>
        <time>1970-01-01T01:20:59.000Z</time>
      </trkpt>
      <trkpt lat="43.28613" lon="-2.847486">
        <ele>49.6</ele>
        <time>1970-01-01T01:21:00.000Z</time>
      </trkpt>
      <trkpt lat="43.286126" lon="-2.847456">
        <ele>50.6</ele>
        <time>1970-01-01T01:21:01.000Z</time>
      </trkpt>
      <trkpt lat="43.286121" lon="-2.847413">
        <ele>50</ele>
        <time>1970-01-01T01:21:02.000Z</time>
      </trkpt>
      <trkpt lat="43.286118" lon="-2.847371">
        <ele>50</ele>
        <time>1970-01-01T01:21:03.000Z</time>
      </trkpt>
      <trkpt lat="43.286116" lon="-2.847328">
        <ele>50</ele>
        <time>1970-01-01T01:21:04.000Z</time>
      </trkpt>
      <trkpt lat="43.286118" lon="-2.847285">
        <ele>51</ele>
        <time>1970-01-01T01:21:05.000Z</time>
      </trkpt>
      <trkpt lat="43.286128" lon="-2.847248">
        <ele>51.2</ele>
        <time>1970-01-01T01:21:06.000Z</time>
      </trkpt>
      <trkpt lat="43.286141" lon="-2.847216">
        <ele>51.2</ele>
        <time>1970-01-01T01:21:07.000Z</time>
      </trkpt>
      <trkpt lat="43.286141" lon="-2.84717">
        <ele>51.2</ele>
        <time>1970-01-01T01:21:08.000Z</time>
      </trkpt>
      <trkpt lat="43.28616" lon="-2.847125">
        <ele>52</ele>
        <time>1970-01-01T01:21:09.000Z</time>
      </trkpt>
      <trkpt lat="43.286178" lon="-2.84708">
        <ele>52.8</ele>
        <time>1970-01-01T01:21:10.000Z</time>
      </trkpt>
      <trkpt lat="43.286191" lon="-2.847033">
        <ele>52.8</ele>
        <time>1970-01-01T01:21:11.000Z</time>
      </trkpt>
      <trkpt lat="43.286205" lon="-2.846995">
        <ele>52.8</ele>
        <time>1970-01-01T01:21:12.000Z</time>
      </trkpt>
      <trkpt lat="43.286228" lon="-2.846948">
        <ele>52.8</ele>
        <time>1970-01-01T01:21:13.000Z</time>
      </trkpt>
      <trkpt lat="43.286256" lon="-2.846921">
        <ele>53.2</ele>
        <time>1970-01-01T01:21:14.000Z</time>
      </trkpt>
      <trkpt lat="43.286283" lon="-2.84691">
        <ele>53.2</ele>
        <time>1970-01-01T01:21:15.000Z</time>
      </trkpt>
      <trkpt lat="43.28631" lon="-2.846905">
        <ele>53.2</ele>
        <time>1970-01-01T01:21:16.000Z</time>
      </trkpt>
      <trkpt lat="43.286346" lon="-2.846905">
        <ele>53.2</ele>
        <time>1970-01-01T01:21:17.000Z</time>
      </trkpt>
      <trkpt lat="43.28638" lon="-2.8469">
        <ele>54</ele>
        <time>1970-01-01T01:21:18.000Z</time>
      </trkpt>
      <trkpt lat="43.286398" lon="-2.846883">
        <ele>54</ele>
        <time>1970-01-01T01:21:19.000Z</time>
      </trkpt>
      <trkpt lat="43.286406" lon="-2.846851">
        <ele>54</ele>
        <time>1970-01-01T01:21:20.000Z</time>
      </trkpt>
      <trkpt lat="43.286413" lon="-2.846811">
        <ele>54</ele>
        <time>1970-01-01T01:21:21.000Z</time>
      </trkpt>
      <trkpt lat="43.28642" lon="-2.846761">
        <ele>54</ele>
        <time>1970-01-01T01:21:22.000Z</time>
      </trkpt>
      <trkpt lat="43.286426" lon="-2.846703">
        <ele>54.4</ele>
        <time>1970-01-01T01:21:23.000Z</time>
      </trkpt>
      <trkpt lat="43.28644" lon="-2.846643">
        <ele>54.4</ele>
        <time>1970-01-01T01:21:24.000Z</time>
      </trkpt>
      <trkpt lat="43.286461" lon="-2.846583">
        <ele>53.6</ele>
        <time>1970-01-01T01:21:25.000Z</time>
      </trkpt>
      <trkpt lat="43.286486" lon="-2.84652">
        <ele>53.4</ele>
        <time>1970-01-01T01:21:26.000Z</time>
      </trkpt>
      <trkpt lat="43.286508" lon="-2.846455">
        <ele>53.4</ele>
        <time>1970-01-01T01:21:27.000Z</time>
      </trkpt>
      <trkpt lat="43.286521" lon="-2.846386">
        <ele>53.4</ele>
        <time>1970-01-01T01:21:28.000Z</time>
      </trkpt>
      <trkpt lat="43.286528" lon="-2.84633">
        <ele>54.4</ele>
        <time>1970-01-01T01:21:29.000Z</time>
      </trkpt>
      <trkpt lat="43.286535" lon="-2.846296">
        <ele>54.4</ele>
        <time>1970-01-01T01:21:30.000Z</time>
      </trkpt>
      <trkpt lat="43.286548" lon="-2.846271">
        <ele>54</ele>
        <time>1970-01-01T01:21:31.000Z</time>
      </trkpt>
      <trkpt lat="43.286561" lon="-2.846256">
        <ele>54</ele>
        <time>1970-01-01T01:21:32.000Z</time>
      </trkpt>
      <trkpt lat="43.286576" lon="-2.846255">
        <ele>54</ele>
        <time>1970-01-01T01:21:33.000Z</time>
      </trkpt>
      <trkpt lat="43.286588" lon="-2.846258">
        <ele>54.2</ele>
        <time>1970-01-01T01:21:34.000Z</time>
      </trkpt>
      <trkpt lat="43.286606" lon="-2.846273">
        <ele>54.2</ele>
        <time>1970-01-01T01:21:35.000Z</time>
      </trkpt>
      <trkpt lat="43.286626" lon="-2.846291">
        <ele>54.2</ele>
        <time>1970-01-01T01:21:36.000Z</time>
      </trkpt>
      <trkpt lat="43.28665" lon="-2.8463">
        <ele>55.2</ele>
        <time>1970-01-01T01:21:37.000Z</time>
      </trkpt>
      <trkpt lat="43.286678" lon="-2.84631">
        <ele>55.2</ele>
        <time>1970-01-01T01:21:38.000Z</time>
      </trkpt>
      <trkpt lat="43.286711" lon="-2.846323">
        <ele>55.8</ele>
        <time>1970-01-01T01:21:39.000Z</time>
      </trkpt>
      <trkpt lat="43.286735" lon="-2.846331">
        <ele>55.8</ele>
        <time>1970-01-01T01:21:40.000Z</time>
      </trkpt>
      <trkpt lat="43.28675" lon="-2.846365">
        <ele>55.8</ele>
        <time>1970-01-01T01:21:41.000Z</time>
      </trkpt>
      <trkpt lat="43.286771" lon="-2.846385">
        <ele>55.4</ele>
        <time>1970-01-01T01:21:42.000Z</time>
      </trkpt>
      <trkpt lat="43.286803" lon="-2.846395">
        <ele>55.4</ele>
        <time>1970-01-01T01:21:43.000Z</time>
      </trkpt>
      <trkpt lat="43.286836" lon="-2.846401">
        <ele>55.4</ele>
        <time>1970-01-01T01:21:44.000Z</time>
      </trkpt>
      <trkpt lat="43.286875" lon="-2.846415">
        <ele>56.2</ele>
        <time>1970-01-01T01:21:45.000Z</time>
      </trkpt>
      <trkpt lat="43.2869" lon="-2.84644">
        <ele>56.2</ele>
        <time>1970-01-01T01:21:46.000Z</time>
      </trkpt>
      <trkpt lat="43.28693" lon="-2.846465">
        <ele>56.8</ele>
        <time>1970-01-01T01:21:47.000Z</time>
      </trkpt>
      <trkpt lat="43.286968" lon="-2.846505">
        <ele>56.8</ele>
        <time>1970-01-01T01:21:48.000Z</time>
      </trkpt>
      <trkpt lat="43.286995" lon="-2.846538">
        <ele>56.8</ele>
        <time>1970-01-01T01:21:49.000Z</time>
      </trkpt>
      <trkpt lat="43.287023" lon="-2.846561">
        <ele>56.4</ele>
        <time>1970-01-01T01:21:50.000Z</time>
      </trkpt>
      <trkpt lat="43.287048" lon="-2.84657">
        <ele>56.4</ele>
        <time>1970-01-01T01:21:51.000Z</time>
      </trkpt>
      <trkpt lat="43.28707" lon="-2.84657">
        <ele>56.4</ele>
        <time>1970-01-01T01:21:52.000Z</time>
      </trkpt>
      <trkpt lat="43.287095" lon="-2.846575">
        <ele>56.4</ele>
        <time>1970-01-01T01:21:53.000Z</time>
      </trkpt>
      <trkpt lat="43.287121" lon="-2.846571">
        <ele>56.4</ele>
        <time>1970-01-01T01:21:54.000Z</time>
      </trkpt>
      <trkpt lat="43.287145" lon="-2.846571">
        <ele>55.8</ele>
        <time>1970-01-01T01:21:55.000Z</time>
      </trkpt>
      <trkpt lat="43.287183" lon="-2.846563">
        <ele>55.8</ele>
        <time>1970-01-01T01:21:56.000Z</time>
      </trkpt>
      <trkpt lat="43.287213" lon="-2.846543">
        <ele>55.8</ele>
        <time>1970-01-01T01:21:57.000Z</time>
      </trkpt>
      <trkpt lat="43.287248" lon="-2.846526">
        <ele>56.4</ele>
        <time>1970-01-01T01:21:58.000Z</time>
      </trkpt>
      <trkpt lat="43.28728" lon="-2.846506">
        <ele>56.4</ele>
        <time>1970-01-01T01:21:59.000Z</time>
      </trkpt>
      <trkpt lat="43.287308" lon="-2.846493">
        <ele>56.4</ele>
        <time>1970-01-01T01:22:00.000Z</time>
      </trkpt>
      <trkpt lat="43.287331" lon="-2.846483">
        <ele>56.4</ele>
        <time>1970-01-01T01:22:01.000Z</time>
      </trkpt>
      <trkpt lat="43.287361" lon="-2.846478">
        <ele>56.4</ele>
        <time>1970-01-01T01:22:02.000Z</time>
      </trkpt>
      <trkpt lat="43.287388" lon="-2.846468">
        <ele>56.4</ele>
        <time>1970-01-01T01:22:03.000Z</time>
      </trkpt>
      <trkpt lat="43.287421" lon="-2.84646">
        <ele>56.4</ele>
        <time>1970-01-01T01:22:04.000Z</time>
      </trkpt>
      <trkpt lat="43.287458" lon="-2.846463">
        <ele>56.4</ele>
        <time>1970-01-01T01:22:05.000Z</time>
      </trkpt>
      <trkpt lat="43.287491" lon="-2.846471">
        <ele>56.8</ele>
        <time>1970-01-01T01:22:06.000Z</time>
      </trkpt>
      <trkpt lat="43.287518" lon="-2.846503">
        <ele>56.8</ele>
        <time>1970-01-01T01:22:07.000Z</time>
      </trkpt>
      <trkpt lat="43.287536" lon="-2.84654">
        <ele>56.8</ele>
        <time>1970-01-01T01:22:08.000Z</time>
      </trkpt>
      <trkpt lat="43.28757" lon="-2.846586">
        <ele>56.8</ele>
        <time>1970-01-01T01:22:09.000Z</time>
      </trkpt>
      <trkpt lat="43.287605" lon="-2.84662">
        <ele>56.8</ele>
        <time>1970-01-01T01:22:10.000Z</time>
      </trkpt>
      <trkpt lat="43.287641" lon="-2.846658">
        <ele>57.2</ele>
        <time>1970-01-01T01:22:11.000Z</time>
      </trkpt>
      <trkpt lat="43.28768" lon="-2.84669">
        <ele>57.2</ele>
        <time>1970-01-01T01:22:12.000Z</time>
      </trkpt>
      <trkpt lat="43.287723" lon="-2.846715">
        <ele>56.8</ele>
        <time>1970-01-01T01:22:13.000Z</time>
      </trkpt>
      <trkpt lat="43.287756" lon="-2.846731">
        <ele>57.2</ele>
        <time>1970-01-01T01:22:14.000Z</time>
      </trkpt>
      <trkpt lat="43.287801" lon="-2.846765">
        <ele>57.2</ele>
        <time>1970-01-01T01:22:15.000Z</time>
      </trkpt>
      <trkpt lat="43.287845" lon="-2.846795">
        <ele>57.2</ele>
        <time>1970-01-01T01:22:16.000Z</time>
      </trkpt>
      <trkpt lat="43.287895" lon="-2.846828">
        <ele>57.2</ele>
        <time>1970-01-01T01:22:17.000Z</time>
      </trkpt>
      <trkpt lat="43.287935" lon="-2.846866">
        <ele>57.2</ele>
        <time>1970-01-01T01:22:18.000Z</time>
      </trkpt>
      <trkpt lat="43.287965" lon="-2.84691">
        <ele>56.6</ele>
        <time>1970-01-01T01:22:19.000Z</time>
      </trkpt>
      <trkpt lat="43.287995" lon="-2.846955">
        <ele>56.6</ele>
        <time>1970-01-01T01:22:20.000Z</time>
      </trkpt>
      <trkpt lat="43.288008" lon="-2.846995">
        <ele>56.6</ele>
        <time>1970-01-01T01:22:21.000Z</time>
      </trkpt>
      <trkpt lat="43.288" lon="-2.847046">
        <ele>56.8</ele>
        <time>1970-01-01T01:22:22.000Z</time>
      </trkpt>
      <trkpt lat="43.287988" lon="-2.847091">
        <ele>56.8</ele>
        <time>1970-01-01T01:22:23.000Z</time>
      </trkpt>
      <trkpt lat="43.287973" lon="-2.847141">
        <ele>56.8</ele>
        <time>1970-01-01T01:22:24.000Z</time>
      </trkpt>
      <trkpt lat="43.287951" lon="-2.847195">
        <ele>56.2</ele>
        <time>1970-01-01T01:22:25.000Z</time>
      </trkpt>
      <trkpt lat="43.287931" lon="-2.847235">
        <ele>56.2</ele>
        <time>1970-01-01T01:22:26.000Z</time>
      </trkpt>
      <trkpt lat="43.287903" lon="-2.847281">
        <ele>56</ele>
        <time>1970-01-01T01:22:27.000Z</time>
      </trkpt>
      <trkpt lat="43.287888" lon="-2.847341">
        <ele>56</ele>
        <time>1970-01-01T01:22:28.000Z</time>
      </trkpt>
      <trkpt lat="43.287878" lon="-2.847398">
        <ele>56</ele>
        <time>1970-01-01T01:22:29.000Z</time>
      </trkpt>
      <trkpt lat="43.287883" lon="-2.847471">
        <ele>55.8</ele>
        <time>1970-01-01T01:22:30.000Z</time>
      </trkpt>
      <trkpt lat="43.287888" lon="-2.847541">
        <ele>55.8</ele>
        <time>1970-01-01T01:22:31.000Z</time>
      </trkpt>
      <trkpt lat="43.287895" lon="-2.847616">
        <ele>55.8</ele>
        <time>1970-01-01T01:22:32.000Z</time>
      </trkpt>
      <trkpt lat="43.287903" lon="-2.847691">
        <ele>55.8</ele>
        <time>1970-01-01T01:22:33.000Z</time>
      </trkpt>
      <trkpt lat="43.287911" lon="-2.847768">
        <ele>55.8</ele>
        <time>1970-01-01T01:22:34.000Z</time>
      </trkpt>
      <trkpt lat="43.287921" lon="-2.847845">
        <ele>56.8</ele>
        <time>1970-01-01T01:22:35.000Z</time>
      </trkpt>
      <trkpt lat="43.287935" lon="-2.847918">
        <ele>56.8</ele>
        <time>1970-01-01T01:22:36.000Z</time>
      </trkpt>
      <trkpt lat="43.287948" lon="-2.847993">
        <ele>56.8</ele>
        <time>1970-01-01T01:22:37.000Z</time>
      </trkpt>
      <trkpt lat="43.287965" lon="-2.848066">
        <ele>57</ele>
        <time>1970-01-01T01:22:38.000Z</time>
      </trkpt>
      <trkpt lat="43.287981" lon="-2.848136">
        <ele>57</ele>
        <time>1970-01-01T01:22:39.000Z</time>
      </trkpt>
      <trkpt lat="43.287995" lon="-2.848208">
        <ele>57</ele>
        <time>1970-01-01T01:22:40.000Z</time>
      </trkpt>
      <trkpt lat="43.288006" lon="-2.848278">
        <ele>57</ele>
        <time>1970-01-01T01:22:41.000Z</time>
      </trkpt>
      <trkpt lat="43.288018" lon="-2.848351">
        <ele>57</ele>
        <time>1970-01-01T01:22:42.000Z</time>
      </trkpt>
      <trkpt lat="43.28803" lon="-2.848425">
        <ele>57.6</ele>
        <time>1970-01-01T01:22:43.000Z</time>
      </trkpt>
      <trkpt lat="43.288038" lon="-2.8485">
        <ele>57.6</ele>
        <time>1970-01-01T01:22:44.000Z</time>
      </trkpt>
      <trkpt lat="43.288048" lon="-2.848576">
        <ele>56.6</ele>
        <time>1970-01-01T01:22:45.000Z</time>
      </trkpt>
      <trkpt lat="43.288056" lon="-2.84865">
        <ele>57.2</ele>
        <time>1970-01-01T01:22:46.000Z</time>
      </trkpt>
      <trkpt lat="43.288063" lon="-2.84872">
        <ele>57.2</ele>
        <time>1970-01-01T01:22:47.000Z</time>
      </trkpt>
      <trkpt lat="43.28807" lon="-2.848791">
        <ele>57.2</ele>
        <time>1970-01-01T01:22:48.000Z</time>
      </trkpt>
      <trkpt lat="43.288076" lon="-2.848861">
        <ele>57.2</ele>
        <time>1970-01-01T01:22:49.000Z</time>
      </trkpt>
      <trkpt lat="43.288078" lon="-2.848935">
        <ele>57.2</ele>
        <time>1970-01-01T01:22:50.000Z</time>
      </trkpt>
      <trkpt lat="43.28807" lon="-2.849008">
        <ele>57.4</ele>
        <time>1970-01-01T01:22:51.000Z</time>
      </trkpt>
      <trkpt lat="43.288056" lon="-2.849078">
        <ele>57.4</ele>
        <time>1970-01-01T01:22:52.000Z</time>
      </trkpt>
      <trkpt lat="43.288048" lon="-2.84915">
        <ele>57.4</ele>
        <time>1970-01-01T01:22:53.000Z</time>
      </trkpt>
      <trkpt lat="43.288053" lon="-2.84922">
        <ele>57.8</ele>
        <time>1970-01-01T01:22:54.000Z</time>
      </trkpt>
      <trkpt lat="43.288061" lon="-2.84929">
        <ele>57.8</ele>
        <time>1970-01-01T01:22:55.000Z</time>
      </trkpt>
      <trkpt lat="43.288076" lon="-2.849366">
        <ele>57.8</ele>
        <time>1970-01-01T01:22:56.000Z</time>
      </trkpt>
      <trkpt lat="43.288093" lon="-2.84945">
        <ele>56.8</ele>
        <time>1970-01-01T01:22:57.000Z</time>
      </trkpt>
      <trkpt lat="43.288118" lon="-2.849538">
        <ele>56.8</ele>
        <time>1970-01-01T01:22:58.000Z</time>
      </trkpt>
      <trkpt lat="43.288145" lon="-2.84963">
        <ele>55.2</ele>
        <time>1970-01-01T01:22:59.000Z</time>
      </trkpt>
      <trkpt lat="43.28817" lon="-2.849726">
        <ele>55.2</ele>
        <time>1970-01-01T01:23:00.000Z</time>
      </trkpt>
      <trkpt lat="43.288186" lon="-2.849826">
        <ele>54.2</ele>
        <time>1970-01-01T01:23:01.000Z</time>
      </trkpt>
      <trkpt lat="43.288203" lon="-2.849926">
        <ele>53.8</ele>
        <time>1970-01-01T01:23:02.000Z</time>
      </trkpt>
      <trkpt lat="43.288218" lon="-2.850025">
        <ele>53.8</ele>
        <time>1970-01-01T01:23:03.000Z</time>
      </trkpt>
      <trkpt lat="43.288233" lon="-2.850123">
        <ele>53.8</ele>
        <time>1970-01-01T01:23:04.000Z</time>
      </trkpt>
      <trkpt lat="43.288248" lon="-2.850216">
        <ele>54</ele>
        <time>1970-01-01T01:23:05.000Z</time>
      </trkpt>
      <trkpt lat="43.288261" lon="-2.85031">
        <ele>54</ele>
        <time>1970-01-01T01:23:06.000Z</time>
      </trkpt>
      <trkpt lat="43.288276" lon="-2.8504">
        <ele>54</ele>
        <time>1970-01-01T01:23:07.000Z</time>
      </trkpt>
      <trkpt lat="43.288293" lon="-2.850493">
        <ele>54</ele>
        <time>1970-01-01T01:23:08.000Z</time>
      </trkpt>
      <trkpt lat="43.288311" lon="-2.850586">
        <ele>54.6</ele>
        <time>1970-01-01T01:23:09.000Z</time>
      </trkpt>
      <trkpt lat="43.288331" lon="-2.85068">
        <ele>54.4</ele>
        <time>1970-01-01T01:23:10.000Z</time>
      </trkpt>
      <trkpt lat="43.288356" lon="-2.85077">
        <ele>54.4</ele>
        <time>1970-01-01T01:23:11.000Z</time>
      </trkpt>
      <trkpt lat="43.288398" lon="-2.85085">
        <ele>54.4</ele>
        <time>1970-01-01T01:23:12.000Z</time>
      </trkpt>
      <trkpt lat="43.288451" lon="-2.850921">
        <ele>53.4</ele>
        <time>1970-01-01T01:23:13.000Z</time>
      </trkpt>
      <trkpt lat="43.288506" lon="-2.850996">
        <ele>53.4</ele>
        <time>1970-01-01T01:23:14.000Z</time>
      </trkpt>
      <trkpt lat="43.288558" lon="-2.851076">
        <ele>51.8</ele>
        <time>1970-01-01T01:23:15.000Z</time>
      </trkpt>
      <trkpt lat="43.288608" lon="-2.851161">
        <ele>51.8</ele>
        <time>1970-01-01T01:23:16.000Z</time>
      </trkpt>
      <trkpt lat="43.288653" lon="-2.851246">
        <ele>51.4</ele>
        <time>1970-01-01T01:23:17.000Z</time>
      </trkpt>
      <trkpt lat="43.288695" lon="-2.851331">
        <ele>51.6</ele>
        <time>1970-01-01T01:23:18.000Z</time>
      </trkpt>
      <trkpt lat="43.288728" lon="-2.851416">
        <ele>51.6</ele>
        <time>1970-01-01T01:23:19.000Z</time>
      </trkpt>
      <trkpt lat="43.288766" lon="-2.851503">
        <ele>51.6</ele>
        <time>1970-01-01T01:23:20.000Z</time>
      </trkpt>
      <trkpt lat="43.288803" lon="-2.85159">
        <ele>50.6</ele>
        <time>1970-01-01T01:23:21.000Z</time>
      </trkpt>
      <trkpt lat="43.288843" lon="-2.851681">
        <ele>50.6</ele>
        <time>1970-01-01T01:23:22.000Z</time>
      </trkpt>
      <trkpt lat="43.28888" lon="-2.851776">
        <ele>49.6</ele>
        <time>1970-01-01T01:23:23.000Z</time>
      </trkpt>
      <trkpt lat="43.288916" lon="-2.851878">
        <ele>49.6</ele>
        <time>1970-01-01T01:23:24.000Z</time>
      </trkpt>
      <trkpt lat="43.288951" lon="-2.851986">
        <ele>48.6</ele>
        <time>1970-01-01T01:23:25.000Z</time>
      </trkpt>
      <trkpt lat="43.288986" lon="-2.852101">
        <ele>46.2</ele>
        <time>1970-01-01T01:23:26.000Z</time>
      </trkpt>
      <trkpt lat="43.289021" lon="-2.852225">
        <ele>46.2</ele>
        <time>1970-01-01T01:23:27.000Z</time>
      </trkpt>
      <trkpt lat="43.289053" lon="-2.852353">
        <ele>46.2</ele>
        <time>1970-01-01T01:23:28.000Z</time>
      </trkpt>
      <trkpt lat="43.289086" lon="-2.852488">
        <ele>45.2</ele>
        <time>1970-01-01T01:23:29.000Z</time>
      </trkpt>
      <trkpt lat="43.289121" lon="-2.852628">
        <ele>45.2</ele>
        <time>1970-01-01T01:23:30.000Z</time>
      </trkpt>
      <trkpt lat="43.289155" lon="-2.852768">
        <ele>42.6</ele>
        <time>1970-01-01T01:23:31.000Z</time>
      </trkpt>
      <trkpt lat="43.289181" lon="-2.85291">
        <ele>42.6</ele>
        <time>1970-01-01T01:23:32.000Z</time>
      </trkpt>
      <trkpt lat="43.2892" lon="-2.853046">
        <ele>42.6</ele>
        <time>1970-01-01T01:23:33.000Z</time>
      </trkpt>
      <trkpt lat="43.289218" lon="-2.853175">
        <ele>40.4</ele>
        <time>1970-01-01T01:23:34.000Z</time>
      </trkpt>
      <trkpt lat="43.289233" lon="-2.853303">
        <ele>40.4</ele>
        <time>1970-01-01T01:23:35.000Z</time>
      </trkpt>
      <trkpt lat="43.289243" lon="-2.853423">
        <ele>40.4</ele>
        <time>1970-01-01T01:23:36.000Z</time>
      </trkpt>
      <trkpt lat="43.289251" lon="-2.853538">
        <ele>41.4</ele>
        <time>1970-01-01T01:23:37.000Z</time>
      </trkpt>
      <trkpt lat="43.28926" lon="-2.853648">
        <ele>41.4</ele>
        <time>1970-01-01T01:23:38.000Z</time>
      </trkpt>
      <trkpt lat="43.289265" lon="-2.853758">
        <ele>41.2</ele>
        <time>1970-01-01T01:23:39.000Z</time>
      </trkpt>
      <trkpt lat="43.289268" lon="-2.853863">
        <ele>41.2</ele>
        <time>1970-01-01T01:23:40.000Z</time>
      </trkpt>
      <trkpt lat="43.289271" lon="-2.853965">
        <ele>41.2</ele>
        <time>1970-01-01T01:23:41.000Z</time>
      </trkpt>
      <trkpt lat="43.289273" lon="-2.854061">
        <ele>41.4</ele>
        <time>1970-01-01T01:23:42.000Z</time>
      </trkpt>
      <trkpt lat="43.289273" lon="-2.854151">
        <ele>41.4</ele>
        <time>1970-01-01T01:23:43.000Z</time>
      </trkpt>
      <trkpt lat="43.289275" lon="-2.854233">
        <ele>41.4</ele>
        <time>1970-01-01T01:23:44.000Z</time>
      </trkpt>
      <trkpt lat="43.289275" lon="-2.854308">
        <ele>42</ele>
        <time>1970-01-01T01:23:45.000Z</time>
      </trkpt>
      <trkpt lat="43.289273" lon="-2.854378">
        <ele>42</ele>
        <time>1970-01-01T01:23:46.000Z</time>
      </trkpt>
      <trkpt lat="43.289271" lon="-2.854448">
        <ele>42</ele>
        <time>1970-01-01T01:23:47.000Z</time>
      </trkpt>
      <trkpt lat="43.289271" lon="-2.854508">
        <ele>42</ele>
        <time>1970-01-01T01:23:48.000Z</time>
      </trkpt>
      <trkpt lat="43.289273" lon="-2.85456">
        <ele>42.6</ele>
        <time>1970-01-01T01:23:49.000Z</time>
      </trkpt>
      <trkpt lat="43.289273" lon="-2.854605">
        <ele>42.4</ele>
        <time>1970-01-01T01:23:50.000Z</time>
      </trkpt>
      <trkpt lat="43.289276" lon="-2.854648">
        <ele>42.4</ele>
        <time>1970-01-01T01:23:51.000Z</time>
      </trkpt>
      <trkpt lat="43.289285" lon="-2.854685">
        <ele>42.4</ele>
        <time>1970-01-01T01:23:52.000Z</time>
      </trkpt>
      <trkpt lat="43.289298" lon="-2.854701">
        <ele>42.4</ele>
        <time>1970-01-01T01:23:53.000Z</time>
      </trkpt>
      <trkpt lat="43.289301" lon="-2.854705">
        <ele>42.4</ele>
        <time>1970-01-01T01:23:54.000Z</time>
      </trkpt>
      <trkpt lat="43.289303" lon="-2.854705">
        <ele>42.6</ele>
        <time>1970-01-01T01:23:55.000Z</time>
      </trkpt>
      <trkpt lat="43.289303" lon="-2.854705">
        <ele>42.6</ele>
        <time>1970-01-01T01:23:56.000Z</time>
      </trkpt>
      <trkpt lat="43.289321" lon="-2.854708">
        <ele>42</ele>
        <time>1970-01-01T01:24:05.000Z</time>
      </trkpt>
      <trkpt lat="43.289333" lon="-2.8547">
        <ele>42.6</ele>
        <time>1970-01-01T01:24:06.000Z</time>
      </trkpt>
      <trkpt lat="43.289348" lon="-2.854683">
        <ele>42.6</ele>
        <time>1970-01-01T01:24:07.000Z</time>
      </trkpt>
      <trkpt lat="43.289371" lon="-2.854658">
        <ele>42.6</ele>
        <time>1970-01-01T01:24:08.000Z</time>
      </trkpt>
      <trkpt lat="43.289393" lon="-2.854625">
        <ele>42.6</ele>
        <time>1970-01-01T01:24:09.000Z</time>
      </trkpt>
      <trkpt lat="43.289418" lon="-2.854583">
        <ele>42.6</ele>
        <time>1970-01-01T01:24:10.000Z</time>
      </trkpt>
      <trkpt lat="43.289446" lon="-2.854536">
        <ele>42.6</ele>
        <time>1970-01-01T01:24:11.000Z</time>
      </trkpt>
      <trkpt lat="43.28948" lon="-2.854488">
        <ele>42.6</ele>
        <time>1970-01-01T01:24:12.000Z</time>
      </trkpt>
      <trkpt lat="43.289518" lon="-2.854441">
        <ele>42.6</ele>
        <time>1970-01-01T01:24:13.000Z</time>
      </trkpt>
      <trkpt lat="43.289558" lon="-2.854395">
        <ele>43.2</ele>
        <time>1970-01-01T01:24:14.000Z</time>
      </trkpt>
      <trkpt lat="43.289601" lon="-2.854346">
        <ele>43.2</ele>
        <time>1970-01-01T01:24:15.000Z</time>
      </trkpt>
      <trkpt lat="43.289646" lon="-2.854303">
        <ele>43.2</ele>
        <time>1970-01-01T01:24:16.000Z</time>
      </trkpt>
      <trkpt lat="43.289691" lon="-2.854265">
        <ele>43.2</ele>
        <time>1970-01-01T01:24:17.000Z</time>
      </trkpt>
      <trkpt lat="43.289736" lon="-2.854225">
        <ele>44</ele>
        <time>1970-01-01T01:24:18.000Z</time>
      </trkpt>
      <trkpt lat="43.289783" lon="-2.854186">
        <ele>44</ele>
        <time>1970-01-01T01:24:19.000Z</time>
      </trkpt>
      <trkpt lat="43.289828" lon="-2.854151">
        <ele>44</ele>
        <time>1970-01-01T01:24:20.000Z</time>
      </trkpt>
      <trkpt lat="43.289878" lon="-2.854126">
        <ele>44</ele>
        <time>1970-01-01T01:24:21.000Z</time>
      </trkpt>
      <trkpt lat="43.289925" lon="-2.854113">
        <ele>44</ele>
        <time>1970-01-01T01:24:22.000Z</time>
      </trkpt>
      <trkpt lat="43.289973" lon="-2.854105">
        <ele>44</ele>
        <time>1970-01-01T01:24:23.000Z</time>
      </trkpt>
      <trkpt lat="43.290023" lon="-2.854098">
        <ele>44</ele>
        <time>1970-01-01T01:24:24.000Z</time>
      </trkpt>
      <trkpt lat="43.29007" lon="-2.854088">
        <ele>44</ele>
        <time>1970-01-01T01:24:25.000Z</time>
      </trkpt>
      <trkpt lat="43.290121" lon="-2.854078">
        <ele>45.2</ele>
        <time>1970-01-01T01:24:26.000Z</time>
      </trkpt>
      <trkpt lat="43.290171" lon="-2.854068">
        <ele>45.2</ele>
        <time>1970-01-01T01:24:27.000Z</time>
      </trkpt>
      <trkpt lat="43.290225" lon="-2.85406">
        <ele>45.2</ele>
        <time>1970-01-01T01:24:28.000Z</time>
      </trkpt>
      <trkpt lat="43.290276" lon="-2.85405">
        <ele>45.2</ele>
        <time>1970-01-01T01:24:29.000Z</time>
      </trkpt>
      <trkpt lat="43.290331" lon="-2.85404">
        <ele>45.4</ele>
        <time>1970-01-01T01:24:30.000Z</time>
      </trkpt>
      <trkpt lat="43.290385" lon="-2.854031">
        <ele>45.4</ele>
        <time>1970-01-01T01:24:31.000Z</time>
      </trkpt>
      <trkpt lat="43.29044" lon="-2.854021">
        <ele>45.4</ele>
        <time>1970-01-01T01:24:32.000Z</time>
      </trkpt>
      <trkpt lat="43.290496" lon="-2.85401">
        <ele>45.4</ele>
        <time>1970-01-01T01:24:33.000Z</time>
      </trkpt>
      <trkpt lat="43.290551" lon="-2.854">
        <ele>46.8</ele>
        <time>1970-01-01T01:24:34.000Z</time>
      </trkpt>
      <trkpt lat="43.290608" lon="-2.85399">
        <ele>46.8</ele>
        <time>1970-01-01T01:24:35.000Z</time>
      </trkpt>
      <trkpt lat="43.290668" lon="-2.853983">
        <ele>46.8</ele>
        <time>1970-01-01T01:24:36.000Z</time>
      </trkpt>
      <trkpt lat="43.290725" lon="-2.85398">
        <ele>46.8</ele>
        <time>1970-01-01T01:24:37.000Z</time>
      </trkpt>
      <trkpt lat="43.29078" lon="-2.853976">
        <ele>48.2</ele>
        <time>1970-01-01T01:24:38.000Z</time>
      </trkpt>
      <trkpt lat="43.290831" lon="-2.853973">
        <ele>48.2</ele>
        <time>1970-01-01T01:24:39.000Z</time>
      </trkpt>
      <trkpt lat="43.290885" lon="-2.853981">
        <ele>48.2</ele>
        <time>1970-01-01T01:24:40.000Z</time>
      </trkpt>
      <trkpt lat="43.290931" lon="-2.854015">
        <ele>48.6</ele>
        <time>1970-01-01T01:24:41.000Z</time>
      </trkpt>
      <trkpt lat="43.290965" lon="-2.85407">
        <ele>49</ele>
        <time>1970-01-01T01:24:42.000Z</time>
      </trkpt>
      <trkpt lat="43.290983" lon="-2.854138">
        <ele>49</ele>
        <time>1970-01-01T01:24:43.000Z</time>
      </trkpt>
      <trkpt lat="43.290998" lon="-2.85421">
        <ele>49</ele>
        <time>1970-01-01T01:24:44.000Z</time>
      </trkpt>
      <trkpt lat="43.291013" lon="-2.854281">
        <ele>49</ele>
        <time>1970-01-01T01:24:45.000Z</time>
      </trkpt>
      <trkpt lat="43.291028" lon="-2.85435">
        <ele>50.6</ele>
        <time>1970-01-01T01:24:46.000Z</time>
      </trkpt>
      <trkpt lat="43.291043" lon="-2.854415">
        <ele>50.6</ele>
        <time>1970-01-01T01:24:47.000Z</time>
      </trkpt>
      <trkpt lat="43.291058" lon="-2.854483">
        <ele>50.6</ele>
        <time>1970-01-01T01:24:48.000Z</time>
      </trkpt>
      <trkpt lat="43.291071" lon="-2.854553">
        <ele>50.6</ele>
        <time>1970-01-01T01:24:49.000Z</time>
      </trkpt>
      <trkpt lat="43.291081" lon="-2.854625">
        <ele>50.6</ele>
        <time>1970-01-01T01:24:50.000Z</time>
      </trkpt>
      <trkpt lat="43.291093" lon="-2.854696">
        <ele>50.6</ele>
        <time>1970-01-01T01:24:51.000Z</time>
      </trkpt>
      <trkpt lat="43.291106" lon="-2.854768">
        <ele>50.6</ele>
        <time>1970-01-01T01:24:52.000Z</time>
      </trkpt>
      <trkpt lat="43.291121" lon="-2.85484">
        <ele>50.6</ele>
        <time>1970-01-01T01:24:53.000Z</time>
      </trkpt>
      <trkpt lat="43.291138" lon="-2.854913">
        <ele>51.4</ele>
        <time>1970-01-01T01:24:54.000Z</time>
      </trkpt>
      <trkpt lat="43.291153" lon="-2.854986">
        <ele>51.4</ele>
        <time>1970-01-01T01:24:55.000Z</time>
      </trkpt>
      <trkpt lat="43.291168" lon="-2.855058">
        <ele>51.4</ele>
        <time>1970-01-01T01:24:56.000Z</time>
      </trkpt>
      <trkpt lat="43.291181" lon="-2.855133">
        <ele>51.6</ele>
        <time>1970-01-01T01:24:57.000Z</time>
      </trkpt>
      <trkpt lat="43.291193" lon="-2.855205">
        <ele>51.6</ele>
        <time>1970-01-01T01:24:58.000Z</time>
      </trkpt>
      <trkpt lat="43.291205" lon="-2.85528">
        <ele>52</ele>
        <time>1970-01-01T01:24:59.000Z</time>
      </trkpt>
      <trkpt lat="43.291216" lon="-2.855353">
        <ele>52</ele>
        <time>1970-01-01T01:25:00.000Z</time>
      </trkpt>
      <trkpt lat="43.29123" lon="-2.855426">
        <ele>52</ele>
        <time>1970-01-01T01:25:01.000Z</time>
      </trkpt>
      <trkpt lat="43.29124" lon="-2.855496">
        <ele>51.8</ele>
        <time>1970-01-01T01:25:02.000Z</time>
      </trkpt>
      <trkpt lat="43.291253" lon="-2.855566">
        <ele>51.8</ele>
        <time>1970-01-01T01:25:03.000Z</time>
      </trkpt>
      <trkpt lat="43.291266" lon="-2.855638">
        <ele>51.8</ele>
        <time>1970-01-01T01:25:04.000Z</time>
      </trkpt>
      <trkpt lat="43.291276" lon="-2.855708">
        <ele>52.8</ele>
        <time>1970-01-01T01:25:05.000Z</time>
      </trkpt>
      <trkpt lat="43.291288" lon="-2.85578">
        <ele>52.8</ele>
        <time>1970-01-01T01:25:06.000Z</time>
      </trkpt>
      <trkpt lat="43.2913" lon="-2.855851">
        <ele>53.2</ele>
        <time>1970-01-01T01:25:07.000Z</time>
      </trkpt>
      <trkpt lat="43.291311" lon="-2.855925">
        <ele>53.2</ele>
        <time>1970-01-01T01:25:08.000Z</time>
      </trkpt>
      <trkpt lat="43.291326" lon="-2.855996">
        <ele>53.2</ele>
        <time>1970-01-01T01:25:09.000Z</time>
      </trkpt>
      <trkpt lat="43.291341" lon="-2.856068">
        <ele>53.4</ele>
        <time>1970-01-01T01:25:10.000Z</time>
      </trkpt>
      <trkpt lat="43.291356" lon="-2.856138">
        <ele>53.4</ele>
        <time>1970-01-01T01:25:11.000Z</time>
      </trkpt>
      <trkpt lat="43.291373" lon="-2.856206">
        <ele>53.4</ele>
        <time>1970-01-01T01:25:12.000Z</time>
      </trkpt>
      <trkpt lat="43.291385" lon="-2.856268">
        <ele>54.4</ele>
        <time>1970-01-01T01:25:13.000Z</time>
      </trkpt>
      <trkpt lat="43.2914" lon="-2.856335">
        <ele>54.4</ele>
        <time>1970-01-01T01:25:14.000Z</time>
      </trkpt>
      <trkpt lat="43.291416" lon="-2.856398">
        <ele>54.4</ele>
        <time>1970-01-01T01:25:15.000Z</time>
      </trkpt>
      <trkpt lat="43.291433" lon="-2.856465">
        <ele>54.4</ele>
        <time>1970-01-01T01:25:16.000Z</time>
      </trkpt>
      <trkpt lat="43.291448" lon="-2.856536">
        <ele>55.2</ele>
        <time>1970-01-01T01:25:17.000Z</time>
      </trkpt>
      <trkpt lat="43.29146" lon="-2.856611">
        <ele>55.8</ele>
        <time>1970-01-01T01:25:18.000Z</time>
      </trkpt>
      <trkpt lat="43.291471" lon="-2.856683">
        <ele>55.8</ele>
        <time>1970-01-01T01:25:19.000Z</time>
      </trkpt>
      <trkpt lat="43.291485" lon="-2.856755">
        <ele>55.8</ele>
        <time>1970-01-01T01:25:20.000Z</time>
      </trkpt>
      <trkpt lat="43.291493" lon="-2.856823">
        <ele>55.8</ele>
        <time>1970-01-01T01:25:21.000Z</time>
      </trkpt>
      <trkpt lat="43.291505" lon="-2.856895">
        <ele>55.4</ele>
        <time>1970-01-01T01:25:22.000Z</time>
      </trkpt>
      <trkpt lat="43.291518" lon="-2.856966">
        <ele>55.4</ele>
        <time>1970-01-01T01:25:23.000Z</time>
      </trkpt>
      <trkpt lat="43.291531" lon="-2.857036">
        <ele>55.4</ele>
        <time>1970-01-01T01:25:24.000Z</time>
      </trkpt>
      <trkpt lat="43.291545" lon="-2.857108">
        <ele>55.4</ele>
        <time>1970-01-01T01:25:25.000Z</time>
      </trkpt>
      <trkpt lat="43.29156" lon="-2.85718">
        <ele>55.6</ele>
        <time>1970-01-01T01:25:26.000Z</time>
      </trkpt>
      <trkpt lat="43.291576" lon="-2.857253">
        <ele>55.6</ele>
        <time>1970-01-01T01:25:27.000Z</time>
      </trkpt>
      <trkpt lat="43.29159" lon="-2.857326">
        <ele>55.6</ele>
        <time>1970-01-01T01:25:28.000Z</time>
      </trkpt>
      <trkpt lat="43.291605" lon="-2.8574">
        <ele>55.6</ele>
        <time>1970-01-01T01:25:29.000Z</time>
      </trkpt>
      <trkpt lat="43.29162" lon="-2.85747">
        <ele>55.6</ele>
        <time>1970-01-01T01:25:30.000Z</time>
      </trkpt>
      <trkpt lat="43.291635" lon="-2.85754">
        <ele>55.6</ele>
        <time>1970-01-01T01:25:31.000Z</time>
      </trkpt>
      <trkpt lat="43.29165" lon="-2.857611">
        <ele>55.6</ele>
        <time>1970-01-01T01:25:32.000Z</time>
      </trkpt>
      <trkpt lat="43.291671" lon="-2.85768">
        <ele>55.6</ele>
        <time>1970-01-01T01:25:33.000Z</time>
      </trkpt>
      <trkpt lat="43.291703" lon="-2.857738">
        <ele>55.8</ele>
        <time>1970-01-01T01:25:34.000Z</time>
      </trkpt>
      <trkpt lat="43.291745" lon="-2.857778">
        <ele>55.8</ele>
        <time>1970-01-01T01:25:35.000Z</time>
      </trkpt>
      <trkpt lat="43.291793" lon="-2.85781">
        <ele>55.8</ele>
        <time>1970-01-01T01:25:36.000Z</time>
      </trkpt>
      <trkpt lat="43.291843" lon="-2.857826">
        <ele>55.8</ele>
        <time>1970-01-01T01:25:37.000Z</time>
      </trkpt>
      <trkpt lat="43.291893" lon="-2.857828">
        <ele>56.8</ele>
        <time>1970-01-01T01:25:38.000Z</time>
      </trkpt>
      <trkpt lat="43.291945" lon="-2.857816">
        <ele>56.8</ele>
        <time>1970-01-01T01:25:39.000Z</time>
      </trkpt>
      <trkpt lat="43.291993" lon="-2.857803">
        <ele>56.8</ele>
        <time>1970-01-01T01:25:40.000Z</time>
      </trkpt>
      <trkpt lat="43.292043" lon="-2.857786">
        <ele>56.4</ele>
        <time>1970-01-01T01:25:41.000Z</time>
      </trkpt>
      <trkpt lat="43.29209" lon="-2.85776">
        <ele>56.4</ele>
        <time>1970-01-01T01:25:42.000Z</time>
      </trkpt>
      <trkpt lat="43.292131" lon="-2.85772">
        <ele>56.4</ele>
        <time>1970-01-01T01:25:43.000Z</time>
      </trkpt>
      <trkpt lat="43.292146" lon="-2.857391">
        <ele>57.2</ele>
        <time>1970-01-01T01:25:49.000Z</time>
      </trkpt>
      <trkpt lat="43.29214" lon="-2.857341">
        <ele>56.4</ele>
        <time>1970-01-01T01:25:50.000Z</time>
      </trkpt>
      <trkpt lat="43.292135" lon="-2.857291">
        <ele>56.4</ele>
        <time>1970-01-01T01:25:51.000Z</time>
      </trkpt>
      <trkpt lat="43.292125" lon="-2.857245">
        <ele>56.4</ele>
        <time>1970-01-01T01:25:52.000Z</time>
      </trkpt>
      <trkpt lat="43.292101" lon="-2.857208">
        <ele>56.4</ele>
        <time>1970-01-01T01:25:53.000Z</time>
      </trkpt>
      <trkpt lat="43.292068" lon="-2.857198">
        <ele>56.4</ele>
        <time>1970-01-01T01:25:54.000Z</time>
      </trkpt>
    </trkseg>
  </trk>
</gpx>
